<?xml version='1.0' encoding='UTF-8'?><gpx version="1.1" creator="JPX - https://github.com/jenetics/jpx" xmlns="http://www.topografix.com/GPX/1/1"><trk><trkseg><trkpt lat="44.8701961" lon="7.8995478"><ele>291.0</ele><time>2026-04-05T08:23:37.847Z</time></trkpt><trkpt lat="44.8701435" lon="7.8994292"><ele>291.0</ele><time>2026-04-05T08:23:39.847Z</time></trkpt><trkpt lat="44.870067" lon="7.8993771"><ele>291.0</ele><time>2026-04-05T08:23:41.847Z</time></trkpt><trkpt lat="44.8699853" lon="7.8994063"><ele>291.0</ele><time>2026-04-05T08:23:43.847Z</time></trkpt><trkpt lat="44.869915" lon="7.8994484"><ele>291.0</ele><time>2026-04-05T08:23:45.847Z</time></trkpt><trkpt lat="44.8698521" lon="7.8994851"><ele>291.0</ele><time>2026-04-05T08:23:47.847Z</time></trkpt><trkpt lat="44.869783" lon="7.8995275"><ele>291.6</ele><time>2026-04-05T08:24:05.846Z</time></trkpt><trkpt lat="44.8696975" lon="7.8995678"><ele>292.20000000000005</ele><time>2026-04-05T08:24:07.847Z</time></trkpt><trkpt lat="44.8696038" lon="7.8996035"><ele>292.79999999999995</ele><time>2026-04-05T08:24:09.847Z</time></trkpt><trkpt lat="44.8695275" lon="7.8996363"><ele>293.4</ele><time>2026-04-05T08:24:11.847Z</time></trkpt><trkpt lat="44.8694359" lon="7.8996587"><ele>294.0</ele><time>2026-04-05T08:24:13.847Z</time></trkpt><trkpt lat="44.8693074" lon="7.8996682"><ele>294.6666666666667</ele><time>2026-04-05T08:24:15.846Z</time></trkpt><trkpt lat="44.8692316" lon="7.8996563"><ele>295.3333333333333</ele><time>2026-04-05T08:24:16.847Z</time></trkpt><trkpt lat="44.8691564" lon="7.8996316"><ele>296.0</ele><time>2026-04-05T08:24:17.847Z</time></trkpt><trkpt lat="44.8690863" lon="7.8995928"><ele>296.66666666666663</ele><time>2026-04-05T08:24:18.847Z</time></trkpt><trkpt lat="44.869019" lon="7.8995383"><ele>297.3333333333333</ele><time>2026-04-05T08:24:19.847Z</time></trkpt><trkpt lat="44.8689601" lon="7.8994686"><ele>298.0</ele><time>2026-04-05T08:24:20.847Z</time></trkpt><trkpt lat="44.8689141" lon="7.8993908"><ele>298.0</ele><time>2026-04-05T08:24:21.847Z</time></trkpt><trkpt lat="44.8688704" lon="7.8993018"><ele>298.0</ele><time>2026-04-05T08:24:22.847Z</time></trkpt><trkpt lat="44.8688255" lon="7.8991987"><ele>298.0</ele><time>2026-04-05T08:24:23.847Z</time></trkpt><trkpt lat="44.8687789" lon="7.8990962"><ele>298.0</ele><time>2026-04-05T08:24:24.847Z</time></trkpt><trkpt lat="44.8687285" lon="7.8990033"><ele>298.0</ele><time>2026-04-05T08:24:25.847Z</time></trkpt><trkpt lat="44.8686731" lon="7.8989218"><ele>298.0</ele><time>2026-04-05T08:24:26.847Z</time></trkpt><trkpt lat="44.8686098" lon="7.8988569"><ele>298.16666666666663</ele><time>2026-04-05T08:24:27.847Z</time></trkpt><trkpt lat="44.8685414" lon="7.8988053"><ele>298.3333333333333</ele><time>2026-04-05T08:24:28.847Z</time></trkpt><trkpt lat="44.8684694" lon="7.8987552"><ele>298.5</ele><time>2026-04-05T08:24:29.847Z</time></trkpt><trkpt lat="44.8683901" lon="7.8986975"><ele>298.6666666666667</ele><time>2026-04-05T08:24:30.847Z</time></trkpt><trkpt lat="44.8683166" lon="7.8986387"><ele>298.83333333333337</ele><time>2026-04-05T08:24:31.847Z</time></trkpt><trkpt lat="44.8682509" lon="7.8985888"><ele>299.0</ele><time>2026-04-05T08:24:32.846Z</time></trkpt><trkpt lat="44.8681937" lon="7.8985508"><ele>299.0</ele><time>2026-04-05T08:24:33.847Z</time></trkpt><trkpt lat="44.8681086" lon="7.8984947"><ele>299.0</ele><time>2026-04-05T08:24:35.847Z</time></trkpt><trkpt lat="44.8680321" lon="7.8984579"><ele>299.0</ele><time>2026-04-05T08:24:39.847Z</time></trkpt><trkpt lat="44.8679653" lon="7.8985273"><ele>299.0</ele><time>2026-04-05T08:24:41.847Z</time></trkpt><trkpt lat="44.8679173" lon="7.8986152"><ele>299.0</ele><time>2026-04-05T08:24:42.847Z</time></trkpt><trkpt lat="44.8678591" lon="7.8987241"><ele>299.0</ele><time>2026-04-05T08:24:43.847Z</time></trkpt><trkpt lat="44.8678056" lon="7.8988444"><ele>299.0</ele><time>2026-04-05T08:24:44.847Z</time></trkpt><trkpt lat="44.8677574" lon="7.8989797"><ele>299.0</ele><time>2026-04-05T08:24:45.847Z</time></trkpt><trkpt lat="44.8677273" lon="7.8991318"><ele>299.0</ele><time>2026-04-05T08:24:46.847Z</time></trkpt><trkpt lat="44.8677041" lon="7.8992967"><ele>299.0</ele><time>2026-04-05T08:24:47.847Z</time></trkpt><trkpt lat="44.8676964" lon="7.8994687"><ele>299.25</ele><time>2026-04-05T08:24:48.847Z</time></trkpt><trkpt lat="44.8676941" lon="7.8996423"><ele>299.5</ele><time>2026-04-05T08:24:49.847Z</time></trkpt><trkpt lat="44.8676799" lon="7.8998011"><ele>299.75</ele><time>2026-04-05T08:24:50.847Z</time></trkpt><trkpt lat="44.8676518" lon="7.8999453"><ele>300.0</ele><time>2026-04-05T08:24:51.847Z</time></trkpt><trkpt lat="44.8676136" lon="7.9000911"><ele>300.0</ele><time>2026-04-05T08:24:52.847Z</time></trkpt><trkpt lat="44.8675767" lon="7.9002364"><ele>300.0</ele><time>2026-04-05T08:24:53.847Z</time></trkpt><trkpt lat="44.8675455" lon="7.9003699"><ele>300.0</ele><time>2026-04-05T08:24:54.847Z</time></trkpt><trkpt lat="44.8675191" lon="7.9004872"><ele>300.0</ele><time>2026-04-05T08:24:55.847Z</time></trkpt><trkpt lat="44.8674954" lon="7.9006002"><ele>300.0</ele><time>2026-04-05T08:24:56.847Z</time></trkpt><trkpt lat="44.8674686" lon="7.9006924"><ele>300.0</ele><time>2026-04-05T08:24:57.847Z</time></trkpt><trkpt lat="44.8674255" lon="7.9007843"><ele>300.0</ele><time>2026-04-05T08:24:58.847Z</time></trkpt><trkpt lat="44.8673643" lon="7.9008654"><ele>300.0</ele><time>2026-04-05T08:24:59.847Z</time></trkpt><trkpt lat="44.8672906" lon="7.9009422"><ele>300.0</ele><time>2026-04-05T08:25:00.847Z</time></trkpt><trkpt lat="44.8672119" lon="7.9010116"><ele>300.0</ele><time>2026-04-05T08:25:01.847Z</time></trkpt><trkpt lat="44.8671291" lon="7.901059"><ele>300.0</ele><time>2026-04-05T08:25:02.846Z</time></trkpt><trkpt lat="44.867042" lon="7.9011025"><ele>300.2</ele><time>2026-04-05T08:25:03.847Z</time></trkpt><trkpt lat="44.8669531" lon="7.9011368"><ele>300.4</ele><time>2026-04-05T08:25:04.847Z</time></trkpt><trkpt lat="44.8668591" lon="7.9011821"><ele>300.6</ele><time>2026-04-05T08:25:05.846Z</time></trkpt><trkpt lat="44.8667652" lon="7.9012516"><ele>300.8</ele><time>2026-04-05T08:25:06.847Z</time></trkpt><trkpt lat="44.866676" lon="7.9013408"><ele>301.0</ele><time>2026-04-05T08:25:07.847Z</time></trkpt><trkpt lat="44.8665965" lon="7.9014442"><ele>301.0</ele><time>2026-04-05T08:25:08.847Z</time></trkpt><trkpt lat="44.8665232" lon="7.9015575"><ele>301.0</ele><time>2026-04-05T08:25:09.846Z</time></trkpt><trkpt lat="44.8664618" lon="7.9016864"><ele>301.0</ele><time>2026-04-05T08:25:10.845Z</time></trkpt><trkpt lat="44.8664074" lon="7.9018169"><ele>301.0</ele><time>2026-04-05T08:25:11.846Z</time></trkpt><trkpt lat="44.866364" lon="7.9019459"><ele>301.0</ele><time>2026-04-05T08:25:12.846Z</time></trkpt><trkpt lat="44.866321" lon="7.902072"><ele>301.0</ele><time>2026-04-05T08:25:13.846Z</time></trkpt><trkpt lat="44.8662678" lon="7.9022021"><ele>301.0</ele><time>2026-04-05T08:25:14.846Z</time></trkpt><trkpt lat="44.8662045" lon="7.9023209"><ele>301.0</ele><time>2026-04-05T08:25:15.846Z</time></trkpt><trkpt lat="44.8661298" lon="7.9024343"><ele>301.0</ele><time>2026-04-05T08:25:16.846Z</time></trkpt><trkpt lat="44.8660383" lon="7.9025217"><ele>301.0</ele><time>2026-04-05T08:25:17.846Z</time></trkpt><trkpt lat="44.8659433" lon="7.90258"><ele>301.40000000000003</ele><time>2026-04-05T08:25:18.846Z</time></trkpt><trkpt lat="44.8658383" lon="7.9026333"><ele>301.8</ele><time>2026-04-05T08:25:19.846Z</time></trkpt><trkpt lat="44.8657433" lon="7.9026883"><ele>302.20000000000005</ele><time>2026-04-05T08:25:20.846Z</time></trkpt><trkpt lat="44.8656567" lon="7.90275"><ele>302.6</ele><time>2026-04-05T08:25:21.846Z</time></trkpt><trkpt lat="44.8655733" lon="7.90281"><ele>303.0</ele><time>2026-04-05T08:25:22.845Z</time></trkpt><trkpt lat="44.8654933" lon="7.902885"><ele>303.0</ele><time>2026-04-05T08:25:23.846Z</time></trkpt><trkpt lat="44.865425" lon="7.90298"><ele>303.0</ele><time>2026-04-05T08:25:24.846Z</time></trkpt><trkpt lat="44.8653733" lon="7.90309"><ele>303.0</ele><time>2026-04-05T08:25:25.846Z</time></trkpt><trkpt lat="44.86533" lon="7.9032167"><ele>303.0</ele><time>2026-04-05T08:25:26.846Z</time></trkpt><trkpt lat="44.86529" lon="7.903345"><ele>303.0</ele><time>2026-04-05T08:25:27.845Z</time></trkpt><trkpt lat="44.86525" lon="7.903475"><ele>302.8</ele><time>2026-04-05T08:25:28.846Z</time></trkpt><trkpt lat="44.86521" lon="7.9036083"><ele>302.6</ele><time>2026-04-05T08:25:29.845Z</time></trkpt><trkpt lat="44.8651617" lon="7.90375"><ele>302.4</ele><time>2026-04-05T08:25:30.845Z</time></trkpt><trkpt lat="44.8651133" lon="7.903885"><ele>302.2</ele><time>2026-04-05T08:25:31.846Z</time></trkpt><trkpt lat="44.8650683" lon="7.9040267"><ele>302.0</ele><time>2026-04-05T08:25:32.846Z</time></trkpt><trkpt lat="44.8650233" lon="7.9041633"><ele>302.0</ele><time>2026-04-05T08:25:33.846Z</time></trkpt><trkpt lat="44.8649767" lon="7.904295"><ele>302.0</ele><time>2026-04-05T08:25:34.846Z</time></trkpt><trkpt lat="44.8649233" lon="7.9044333"><ele>302.0</ele><time>2026-04-05T08:25:35.846Z</time></trkpt><trkpt lat="44.864865" lon="7.9045717"><ele>302.0</ele><time>2026-04-05T08:25:36.846Z</time></trkpt><trkpt lat="44.8648083" lon="7.9047117"><ele>302.0</ele><time>2026-04-05T08:25:37.846Z</time></trkpt><trkpt lat="44.8647667" lon="7.9048533"><ele>302.0</ele><time>2026-04-05T08:25:38.846Z</time></trkpt><trkpt lat="44.8647267" lon="7.904995"><ele>302.0</ele><time>2026-04-05T08:25:39.846Z</time></trkpt><trkpt lat="44.8646833" lon="7.9051317"><ele>302.0</ele><time>2026-04-05T08:25:40.846Z</time></trkpt><trkpt lat="44.8646417" lon="7.905265"><ele>302.0</ele><time>2026-04-05T08:25:41.846Z</time></trkpt><trkpt lat="44.8646017" lon="7.9054"><ele>302.0</ele><time>2026-04-05T08:25:42.846Z</time></trkpt><trkpt lat="44.8645617" lon="7.905525"><ele>301.8</ele><time>2026-04-05T08:25:43.846Z</time></trkpt><trkpt lat="44.8645167" lon="7.9056417"><ele>301.6</ele><time>2026-04-05T08:25:44.846Z</time></trkpt><trkpt lat="44.8644617" lon="7.9057533"><ele>301.40000000000003</ele><time>2026-04-05T08:25:45.845Z</time></trkpt><trkpt lat="44.8644033" lon="7.9058617"><ele>301.2</ele><time>2026-04-05T08:25:46.845Z</time></trkpt><trkpt lat="44.8643417" lon="7.9059733"><ele>301.0</ele><time>2026-04-05T08:25:47.846Z</time></trkpt><trkpt lat="44.864285" lon="7.906085"><ele>300.40000000000003</ele><time>2026-04-05T08:25:48.846Z</time></trkpt><trkpt lat="44.864225" lon="7.9062017"><ele>299.8</ele><time>2026-04-05T08:25:49.846Z</time></trkpt><trkpt lat="44.8641617" lon="7.9063083"><ele>299.20000000000005</ele><time>2026-04-05T08:25:50.846Z</time></trkpt><trkpt lat="44.864085" lon="7.9064133"><ele>298.6</ele><time>2026-04-05T08:25:51.846Z</time></trkpt><trkpt lat="44.864005" lon="7.9065167"><ele>298.0</ele><time>2026-04-05T08:25:52.846Z</time></trkpt><trkpt lat="44.86392" lon="7.9066083"><ele>298.0</ele><time>2026-04-05T08:25:53.846Z</time></trkpt><trkpt lat="44.86383" lon="7.9067083"><ele>298.0</ele><time>2026-04-05T08:25:54.846Z</time></trkpt><trkpt lat="44.8637433" lon="7.9068017"><ele>298.0</ele><time>2026-04-05T08:25:55.846Z</time></trkpt><trkpt lat="44.8636617" lon="7.906885"><ele>298.0</ele><time>2026-04-05T08:25:56.846Z</time></trkpt><trkpt lat="44.863585" lon="7.9069683"><ele>298.0</ele><time>2026-04-05T08:25:57.846Z</time></trkpt><trkpt lat="44.8635217" lon="7.9070383"><ele>298.0</ele><time>2026-04-05T08:25:58.846Z</time></trkpt><trkpt lat="44.863465" lon="7.9070967"><ele>298.0</ele><time>2026-04-05T08:25:59.846Z</time></trkpt><trkpt lat="44.8633883" lon="7.907185"><ele>298.0</ele><time>2026-04-05T08:26:01.845Z</time></trkpt><trkpt lat="44.8633333" lon="7.9072383"><ele>298.0</ele><time>2026-04-05T08:26:03.846Z</time></trkpt><trkpt lat="44.8632433" lon="7.9073433"><ele>298.0</ele><time>2026-04-05T08:26:50.846Z</time></trkpt><trkpt lat="44.863185" lon="7.9073783"><ele>298.0</ele><time>2026-04-05T08:26:51.846Z</time></trkpt><trkpt lat="44.8631167" lon="7.9074133"><ele>298.66666666666663</ele><time>2026-04-05T08:26:52.846Z</time></trkpt><trkpt lat="44.86304" lon="7.90745"><ele>299.3333333333333</ele><time>2026-04-05T08:26:53.846Z</time></trkpt><trkpt lat="44.86296" lon="7.90748"><ele>300.0</ele><time>2026-04-05T08:26:54.846Z</time></trkpt><trkpt lat="44.8628817" lon="7.9075083"><ele>300.6666666666667</ele><time>2026-04-05T08:26:55.846Z</time></trkpt><trkpt lat="44.862795" lon="7.9075383"><ele>301.33333333333337</ele><time>2026-04-05T08:26:56.846Z</time></trkpt><trkpt lat="44.8627033" lon="7.9075617"><ele>302.0</ele><time>2026-04-05T08:26:57.846Z</time></trkpt><trkpt lat="44.8626117" lon="7.90758"><ele>302.8</ele><time>2026-04-05T08:26:58.846Z</time></trkpt><trkpt lat="44.8625183" lon="7.9076"><ele>303.6</ele><time>2026-04-05T08:26:59.845Z</time></trkpt><trkpt lat="44.862425" lon="7.9076117"><ele>304.40000000000003</ele><time>2026-04-05T08:27:00.846Z</time></trkpt><trkpt lat="44.8623383" lon="7.907615"><ele>305.2</ele><time>2026-04-05T08:27:01.846Z</time></trkpt><trkpt lat="44.8622517" lon="7.9076133"><ele>306.0</ele><time>2026-04-05T08:27:02.846Z</time></trkpt><trkpt lat="44.8621617" lon="7.9076117"><ele>306.0</ele><time>2026-04-05T08:27:03.846Z</time></trkpt><trkpt lat="44.8620733" lon="7.9076233"><ele>306.0</ele><time>2026-04-05T08:27:04.845Z</time></trkpt><trkpt lat="44.8619867" lon="7.9076517"><ele>306.0</ele><time>2026-04-05T08:27:05.845Z</time></trkpt><trkpt lat="44.8618983" lon="7.90768"><ele>306.0</ele><time>2026-04-05T08:27:06.846Z</time></trkpt><trkpt lat="44.86181" lon="7.907715"><ele>306.0</ele><time>2026-04-05T08:27:07.846Z</time></trkpt><trkpt lat="44.8617283" lon="7.9077567"><ele>306.0</ele><time>2026-04-05T08:27:08.846Z</time></trkpt><trkpt lat="44.8616467" lon="7.907795"><ele>306.1666666666667</ele><time>2026-04-05T08:27:09.846Z</time></trkpt><trkpt lat="44.8615667" lon="7.9078233"><ele>306.3333333333333</ele><time>2026-04-05T08:27:10.846Z</time></trkpt><trkpt lat="44.86149" lon="7.9078467"><ele>306.5</ele><time>2026-04-05T08:27:11.846Z</time></trkpt><trkpt lat="44.861425" lon="7.9078683"><ele>306.66666666666663</ele><time>2026-04-05T08:27:12.846Z</time></trkpt><trkpt lat="44.8613583" lon="7.9078867"><ele>306.8333333333333</ele><time>2026-04-05T08:27:13.846Z</time></trkpt><trkpt lat="44.861285" lon="7.907905"><ele>307.0</ele><time>2026-04-05T08:27:14.846Z</time></trkpt><trkpt lat="44.8612" lon="7.907915"><ele>307.0</ele><time>2026-04-05T08:27:15.846Z</time></trkpt><trkpt lat="44.8611" lon="7.9079233"><ele>307.0</ele><time>2026-04-05T08:27:16.846Z</time></trkpt><trkpt lat="44.8609917" lon="7.9079467"><ele>307.0</ele><time>2026-04-05T08:27:17.846Z</time></trkpt><trkpt lat="44.860875" lon="7.9079767"><ele>307.0</ele><time>2026-04-05T08:27:18.846Z</time></trkpt><trkpt lat="44.860755" lon="7.9080117"><ele>307.2</ele><time>2026-04-05T08:27:19.846Z</time></trkpt><trkpt lat="44.8606417" lon="7.9080467"><ele>307.4</ele><time>2026-04-05T08:27:20.846Z</time></trkpt><trkpt lat="44.8605333" lon="7.9080767"><ele>307.6</ele><time>2026-04-05T08:27:21.846Z</time></trkpt><trkpt lat="44.8604333" lon="7.9080867"><ele>307.8</ele><time>2026-04-05T08:27:22.845Z</time></trkpt><trkpt lat="44.86034" lon="7.9080767"><ele>308.0</ele><time>2026-04-05T08:27:23.846Z</time></trkpt><trkpt lat="44.86026" lon="7.9080417"><ele>308.0</ele><time>2026-04-05T08:27:24.846Z</time></trkpt><trkpt lat="44.860205" lon="7.9079983"><ele>308.0</ele><time>2026-04-05T08:27:25.846Z</time></trkpt><trkpt lat="44.86013" lon="7.9079217"><ele>308.0</ele><time>2026-04-05T08:27:27.846Z</time></trkpt><trkpt lat="44.860035" lon="7.9079133"><ele>308.0</ele><time>2026-04-05T08:27:30.846Z</time></trkpt><trkpt lat="44.8599183" lon="7.9080283"><ele>308.0</ele><time>2026-04-05T08:27:32.845Z</time></trkpt><trkpt lat="44.859845" lon="7.9081183"><ele>308.25</ele><time>2026-04-05T08:27:33.846Z</time></trkpt><trkpt lat="44.859765" lon="7.908215"><ele>308.5</ele><time>2026-04-05T08:27:34.845Z</time></trkpt><trkpt lat="44.8596767" lon="7.9083167"><ele>308.75</ele><time>2026-04-05T08:27:35.846Z</time></trkpt><trkpt lat="44.8595833" lon="7.9084233"><ele>309.0</ele><time>2026-04-05T08:27:36.845Z</time></trkpt><trkpt lat="44.8594867" lon="7.90854"><ele>309.0</ele><time>2026-04-05T08:27:37.846Z</time></trkpt><trkpt lat="44.8593917" lon="7.90865"><ele>309.0</ele><time>2026-04-05T08:27:38.846Z</time></trkpt><trkpt lat="44.8592917" lon="7.9087667"><ele>309.0</ele><time>2026-04-05T08:27:39.846Z</time></trkpt><trkpt lat="44.859185" lon="7.908895"><ele>309.0</ele><time>2026-04-05T08:27:40.846Z</time></trkpt><trkpt lat="44.8590767" lon="7.9090267"><ele>309.25</ele><time>2026-04-05T08:27:41.846Z</time></trkpt><trkpt lat="44.8589633" lon="7.9091583"><ele>309.5</ele><time>2026-04-05T08:27:42.846Z</time></trkpt><trkpt lat="44.8588533" lon="7.90928"><ele>309.75</ele><time>2026-04-05T08:27:43.846Z</time></trkpt><trkpt lat="44.858745" lon="7.9094083"><ele>310.0</ele><time>2026-04-05T08:27:44.846Z</time></trkpt><trkpt lat="44.85864" lon="7.909535"><ele>309.5</ele><time>2026-04-05T08:27:45.846Z</time></trkpt><trkpt lat="44.85854" lon="7.9096533"><ele>309.0</ele><time>2026-04-05T08:27:46.846Z</time></trkpt><trkpt lat="44.85844" lon="7.9097767"><ele>308.5</ele><time>2026-04-05T08:27:47.846Z</time></trkpt><trkpt lat="44.85834" lon="7.9098917"><ele>308.0</ele><time>2026-04-05T08:27:48.846Z</time></trkpt><trkpt lat="44.8582433" lon="7.910005"><ele>309.0</ele><time>2026-04-05T08:27:49.846Z</time></trkpt><trkpt lat="44.85816" lon="7.910125"><ele>310.0</ele><time>2026-04-05T08:27:50.846Z</time></trkpt><trkpt lat="44.858085" lon="7.9102617"><ele>311.0</ele><time>2026-04-05T08:27:51.846Z</time></trkpt><trkpt lat="44.858025" lon="7.9104117"><ele>312.0</ele><time>2026-04-05T08:27:52.846Z</time></trkpt><trkpt lat="44.8579917" lon="7.9105667"><ele>312.0</ele><time>2026-04-05T08:27:53.846Z</time></trkpt><trkpt lat="44.857965" lon="7.9107533"><ele>312.0</ele><time>2026-04-05T08:27:54.846Z</time></trkpt><trkpt lat="44.8579433" lon="7.910945"><ele>312.0</ele><time>2026-04-05T08:27:55.845Z</time></trkpt><trkpt lat="44.8579283" lon="7.911145"><ele>312.0</ele><time>2026-04-05T08:27:56.846Z</time></trkpt><trkpt lat="44.8579083" lon="7.9113583"><ele>312.5</ele><time>2026-04-05T08:27:57.845Z</time></trkpt><trkpt lat="44.8578933" lon="7.911555"><ele>313.0</ele><time>2026-04-05T08:27:58.846Z</time></trkpt><trkpt lat="44.8578767" lon="7.9117567"><ele>313.5</ele><time>2026-04-05T08:27:59.845Z</time></trkpt><trkpt lat="44.8578617" lon="7.9119517"><ele>314.0</ele><time>2026-04-05T08:28:00.845Z</time></trkpt><trkpt lat="44.8578417" lon="7.91216"><ele>314.5</ele><time>2026-04-05T08:28:01.846Z</time></trkpt><trkpt lat="44.8578233" lon="7.9123717"><ele>315.0</ele><time>2026-04-05T08:28:02.845Z</time></trkpt><trkpt lat="44.8578083" lon="7.9125783"><ele>315.5</ele><time>2026-04-05T08:28:03.845Z</time></trkpt><trkpt lat="44.8577933" lon="7.9127883"><ele>316.0</ele><time>2026-04-05T08:28:04.846Z</time></trkpt><trkpt lat="44.85778" lon="7.9129817"><ele>316.0</ele><time>2026-04-05T08:28:05.845Z</time></trkpt><trkpt lat="44.85776" lon="7.9131733"><ele>316.0</ele><time>2026-04-05T08:28:06.845Z</time></trkpt><trkpt lat="44.8577417" lon="7.913365"><ele>316.0</ele><time>2026-04-05T08:28:07.845Z</time></trkpt><trkpt lat="44.8577183" lon="7.9135717"><ele>316.0</ele><time>2026-04-05T08:28:08.845Z</time></trkpt><trkpt lat="44.857705" lon="7.9137717"><ele>316.0</ele><time>2026-04-05T08:28:09.846Z</time></trkpt><trkpt lat="44.8576917" lon="7.9139733"><ele>316.0</ele><time>2026-04-05T08:28:10.845Z</time></trkpt><trkpt lat="44.8576783" lon="7.9141667"><ele>316.0</ele><time>2026-04-05T08:28:11.846Z</time></trkpt><trkpt lat="44.8576633" lon="7.9143633"><ele>316.0</ele><time>2026-04-05T08:28:12.846Z</time></trkpt><trkpt lat="44.857645" lon="7.9145483"><ele>316.25</ele><time>2026-04-05T08:28:13.846Z</time></trkpt><trkpt lat="44.85763" lon="7.9147233"><ele>316.5</ele><time>2026-04-05T08:28:14.845Z</time></trkpt><trkpt lat="44.857615" lon="7.9149017"><ele>316.75</ele><time>2026-04-05T08:28:15.846Z</time></trkpt><trkpt lat="44.857595" lon="7.9150783"><ele>317.0</ele><time>2026-04-05T08:28:16.846Z</time></trkpt><trkpt lat="44.8575533" lon="7.915235"><ele>317.5</ele><time>2026-04-05T08:28:17.846Z</time></trkpt><trkpt lat="44.8574833" lon="7.915385"><ele>318.0</ele><time>2026-04-05T08:28:18.846Z</time></trkpt><trkpt lat="44.857395" lon="7.9155067"><ele>318.5</ele><time>2026-04-05T08:28:19.846Z</time></trkpt><trkpt lat="44.8572867" lon="7.9156033"><ele>319.0</ele><time>2026-04-05T08:28:20.846Z</time></trkpt><trkpt lat="44.8571667" lon="7.9157017"><ele>319.0</ele><time>2026-04-05T08:28:21.845Z</time></trkpt><trkpt lat="44.8570467" lon="7.9158033"><ele>319.0</ele><time>2026-04-05T08:28:22.846Z</time></trkpt><trkpt lat="44.8569333" lon="7.9159133"><ele>319.0</ele><time>2026-04-05T08:28:23.845Z</time></trkpt><trkpt lat="44.856825" lon="7.916025"><ele>319.0</ele><time>2026-04-05T08:28:24.846Z</time></trkpt><trkpt lat="44.856725" lon="7.916145"><ele>318.5</ele><time>2026-04-05T08:28:25.846Z</time></trkpt><trkpt lat="44.8566267" lon="7.9162733"><ele>318.0</ele><time>2026-04-05T08:28:26.846Z</time></trkpt><trkpt lat="44.8565242" lon="7.9164002"><ele>317.5</ele><time>2026-04-05T08:28:27.846Z</time></trkpt><trkpt lat="44.8564199" lon="7.9165295"><ele>317.0</ele><time>2026-04-05T08:28:28.846Z</time></trkpt><trkpt lat="44.8563167" lon="7.91666"><ele>317.0</ele><time>2026-04-05T08:28:29.846Z</time></trkpt><trkpt lat="44.8562203" lon="7.9167928"><ele>317.0</ele><time>2026-04-05T08:28:30.846Z</time></trkpt><trkpt lat="44.8561287" lon="7.9169267"><ele>317.0</ele><time>2026-04-05T08:28:31.846Z</time></trkpt><trkpt lat="44.8560404" lon="7.9170734"><ele>317.0</ele><time>2026-04-05T08:28:32.846Z</time></trkpt><trkpt lat="44.8559567" lon="7.9172273"><ele>318.25</ele><time>2026-04-05T08:28:33.846Z</time></trkpt><trkpt lat="44.8558832" lon="7.9173953"><ele>319.5</ele><time>2026-04-05T08:28:34.846Z</time></trkpt><trkpt lat="44.8558177" lon="7.9175745"><ele>320.75</ele><time>2026-04-05T08:28:35.846Z</time></trkpt><trkpt lat="44.8557548" lon="7.9177588"><ele>322.0</ele><time>2026-04-05T08:28:36.846Z</time></trkpt><trkpt lat="44.8556936" lon="7.9179418"><ele>322.25</ele><time>2026-04-05T08:28:37.846Z</time></trkpt><trkpt lat="44.8556404" lon="7.9181189"><ele>322.5</ele><time>2026-04-05T08:28:38.846Z</time></trkpt><trkpt lat="44.8555911" lon="7.9182981"><ele>322.75</ele><time>2026-04-05T08:28:39.846Z</time></trkpt><trkpt lat="44.8555465" lon="7.9184822"><ele>323.0</ele><time>2026-04-05T08:28:40.846Z</time></trkpt><trkpt lat="44.8555185" lon="7.9186692"><ele>322.5</ele><time>2026-04-05T08:28:41.846Z</time></trkpt><trkpt lat="44.8555068" lon="7.9188591"><ele>322.0</ele><time>2026-04-05T08:28:42.845Z</time></trkpt><trkpt lat="44.8555135" lon="7.9190518"><ele>321.5</ele><time>2026-04-05T08:28:43.846Z</time></trkpt><trkpt lat="44.8555335" lon="7.9192512"><ele>321.0</ele><time>2026-04-05T08:28:44.846Z</time></trkpt><trkpt lat="44.8555646" lon="7.9194466"><ele>322.0</ele><time>2026-04-05T08:28:45.846Z</time></trkpt><trkpt lat="44.8555951" lon="7.9196336"><ele>323.0</ele><time>2026-04-05T08:28:46.846Z</time></trkpt><trkpt lat="44.8556272" lon="7.9198221"><ele>324.0</ele><time>2026-04-05T08:28:47.846Z</time></trkpt><trkpt lat="44.8556598" lon="7.9200167"><ele>325.0</ele><time>2026-04-05T08:28:48.846Z</time></trkpt><trkpt lat="44.8556905" lon="7.9202151"><ele>325.66666666666663</ele><time>2026-04-05T08:28:49.846Z</time></trkpt><trkpt lat="44.8557222" lon="7.9204123"><ele>326.3333333333333</ele><time>2026-04-05T08:28:50.845Z</time></trkpt><trkpt lat="44.8557558" lon="7.9206266"><ele>327.0</ele><time>2026-04-05T08:28:51.846Z</time></trkpt><trkpt lat="44.8557926" lon="7.9208475"><ele>327.0</ele><time>2026-04-05T08:28:52.846Z</time></trkpt><trkpt lat="44.8558243" lon="7.921048"><ele>327.0</ele><time>2026-04-05T08:28:53.846Z</time></trkpt><trkpt lat="44.8558534" lon="7.9212481"><ele>327.0</ele><time>2026-04-05T08:28:54.846Z</time></trkpt><trkpt lat="44.8558853" lon="7.921451"><ele>327.0</ele><time>2026-04-05T08:28:55.846Z</time></trkpt><trkpt lat="44.8559221" lon="7.9216524"><ele>326.25</ele><time>2026-04-05T08:28:56.846Z</time></trkpt><trkpt lat="44.855954" lon="7.9218393"><ele>325.5</ele><time>2026-04-05T08:28:57.845Z</time></trkpt><trkpt lat="44.8559887" lon="7.9220173"><ele>324.75</ele><time>2026-04-05T08:28:58.846Z</time></trkpt><trkpt lat="44.8560194" lon="7.9221946"><ele>324.0</ele><time>2026-04-05T08:28:59.846Z</time></trkpt><trkpt lat="44.856038" lon="7.92237"><ele>324.0</ele><time>2026-04-05T08:29:00.846Z</time></trkpt><trkpt lat="44.8560522" lon="7.9225361"><ele>324.0</ele><time>2026-04-05T08:29:01.846Z</time></trkpt><trkpt lat="44.8560555" lon="7.9227007"><ele>324.0</ele><time>2026-04-05T08:29:02.846Z</time></trkpt><trkpt lat="44.8560265" lon="7.9228749"><ele>324.0</ele><time>2026-04-05T08:29:03.846Z</time></trkpt><trkpt lat="44.8559588" lon="7.9230492"><ele>324.6666666666667</ele><time>2026-04-05T08:29:04.846Z</time></trkpt><trkpt lat="44.8558728" lon="7.9232225"><ele>325.33333333333337</ele><time>2026-04-05T08:29:05.846Z</time></trkpt><trkpt lat="44.8557804" lon="7.9233897"><ele>326.0</ele><time>2026-04-05T08:29:06.846Z</time></trkpt><trkpt lat="44.8556763" lon="7.9235537"><ele>326.0</ele><time>2026-04-05T08:29:07.846Z</time></trkpt><trkpt lat="44.855573" lon="7.9237072"><ele>326.0</ele><time>2026-04-05T08:29:08.846Z</time></trkpt><trkpt lat="44.8554695" lon="7.9238592"><ele>326.0</ele><time>2026-04-05T08:29:09.846Z</time></trkpt><trkpt lat="44.8553753" lon="7.9240133"><ele>326.0</ele><time>2026-04-05T08:29:10.846Z</time></trkpt><trkpt lat="44.8552887" lon="7.9241762"><ele>326.25</ele><time>2026-04-05T08:29:11.846Z</time></trkpt><trkpt lat="44.8552049" lon="7.924346"><ele>326.5</ele><time>2026-04-05T08:29:12.846Z</time></trkpt><trkpt lat="44.8551296" lon="7.9245149"><ele>326.75</ele><time>2026-04-05T08:29:13.845Z</time></trkpt><trkpt lat="44.8550546" lon="7.9246785"><ele>327.0</ele><time>2026-04-05T08:29:14.846Z</time></trkpt><trkpt lat="44.8549667" lon="7.9248307"><ele>327.0</ele><time>2026-04-05T08:29:15.845Z</time></trkpt><trkpt lat="44.8548622" lon="7.9249611"><ele>327.0</ele><time>2026-04-05T08:29:16.846Z</time></trkpt><trkpt lat="44.8547428" lon="7.9250694"><ele>327.0</ele><time>2026-04-05T08:29:17.845Z</time></trkpt><trkpt lat="44.8546144" lon="7.9251738"><ele>327.0</ele><time>2026-04-05T08:29:18.846Z</time></trkpt><trkpt lat="44.8544861" lon="7.9252871"><ele>326.0</ele><time>2026-04-05T08:29:19.846Z</time></trkpt><trkpt lat="44.8543656" lon="7.9254176"><ele>325.0</ele><time>2026-04-05T08:29:20.846Z</time></trkpt><trkpt lat="44.8542582" lon="7.9255598"><ele>324.0</ele><time>2026-04-05T08:29:21.846Z</time></trkpt><trkpt lat="44.8541557" lon="7.9257182"><ele>324.0</ele><time>2026-04-05T08:29:22.845Z</time></trkpt><trkpt lat="44.854063" lon="7.9258916"><ele>324.0</ele><time>2026-04-05T08:29:23.846Z</time></trkpt><trkpt lat="44.8539833" lon="7.9260713"><ele>324.0</ele><time>2026-04-05T08:29:24.845Z</time></trkpt><trkpt lat="44.8539281" lon="7.9262576"><ele>324.0</ele><time>2026-04-05T08:29:25.845Z</time></trkpt><trkpt lat="44.8538926" lon="7.9264552"><ele>324.25</ele><time>2026-04-05T08:29:26.846Z</time></trkpt><trkpt lat="44.8538678" lon="7.9266505"><ele>324.5</ele><time>2026-04-05T08:29:27.846Z</time></trkpt><trkpt lat="44.8538439" lon="7.9268333"><ele>324.75</ele><time>2026-04-05T08:29:28.846Z</time></trkpt><trkpt lat="44.8538064" lon="7.9269974"><ele>325.0</ele><time>2026-04-05T08:29:29.845Z</time></trkpt><trkpt lat="44.8537426" lon="7.9271463"><ele>325.25</ele><time>2026-04-05T08:29:30.846Z</time></trkpt><trkpt lat="44.8536591" lon="7.9272776"><ele>325.5</ele><time>2026-04-05T08:29:31.846Z</time></trkpt><trkpt lat="44.8535554" lon="7.9273934"><ele>325.75</ele><time>2026-04-05T08:29:32.846Z</time></trkpt><trkpt lat="44.853443" lon="7.9275049"><ele>326.0</ele><time>2026-04-05T08:29:33.846Z</time></trkpt><trkpt lat="44.8533482" lon="7.9276346"><ele>326.75</ele><time>2026-04-05T08:29:34.846Z</time></trkpt><trkpt lat="44.853279" lon="7.9277931"><ele>327.5</ele><time>2026-04-05T08:29:35.845Z</time></trkpt><trkpt lat="44.8532431" lon="7.9279745"><ele>328.25</ele><time>2026-04-05T08:29:36.846Z</time></trkpt><trkpt lat="44.8532299" lon="7.9281608"><ele>329.0</ele><time>2026-04-05T08:29:37.846Z</time></trkpt><trkpt lat="44.853227" lon="7.9283422"><ele>329.6</ele><time>2026-04-05T08:29:38.845Z</time></trkpt><trkpt lat="44.8532214" lon="7.9285197"><ele>330.2</ele><time>2026-04-05T08:29:39.846Z</time></trkpt><trkpt lat="44.8532121" lon="7.9286777"><ele>330.8</ele><time>2026-04-05T08:29:40.846Z</time></trkpt><trkpt lat="44.853206" lon="7.9288139"><ele>331.40000000000003</ele><time>2026-04-05T08:29:41.845Z</time></trkpt><trkpt lat="44.8532052" lon="7.9289333"><ele>332.0</ele><time>2026-04-05T08:29:42.846Z</time></trkpt><trkpt lat="44.8531936" lon="7.9290242"><ele>332.0</ele><time>2026-04-05T08:29:43.846Z</time></trkpt><trkpt lat="44.8531646" lon="7.9291037"><ele>332.0</ele><time>2026-04-05T08:29:44.846Z</time></trkpt><trkpt lat="44.853111" lon="7.9291581"><ele>332.0</ele><time>2026-04-05T08:29:45.846Z</time></trkpt><trkpt lat="44.8530371" lon="7.9291931"><ele>332.0</ele><time>2026-04-05T08:29:46.846Z</time></trkpt><trkpt lat="44.8529443" lon="7.9292298"><ele>332.0</ele><time>2026-04-05T08:29:47.846Z</time></trkpt><trkpt lat="44.8528459" lon="7.9292603"><ele>332.0</ele><time>2026-04-05T08:29:48.846Z</time></trkpt><trkpt lat="44.852745" lon="7.9293052"><ele>331.8</ele><time>2026-04-05T08:29:49.845Z</time></trkpt><trkpt lat="44.8526473" lon="7.9293674"><ele>331.6</ele><time>2026-04-05T08:29:50.845Z</time></trkpt><trkpt lat="44.8525527" lon="7.9294275"><ele>331.40000000000003</ele><time>2026-04-05T08:29:51.845Z</time></trkpt><trkpt lat="44.8524628" lon="7.9294807"><ele>331.20000000000005</ele><time>2026-04-05T08:29:52.846Z</time></trkpt><trkpt lat="44.8523717" lon="7.929527"><ele>331.0</ele><time>2026-04-05T08:29:53.846Z</time></trkpt><trkpt lat="44.8522776" lon="7.9295732"><ele>331.0</ele><time>2026-04-05T08:29:54.846Z</time></trkpt><trkpt lat="44.85219" lon="7.9296072"><ele>331.0</ele><time>2026-04-05T08:29:55.846Z</time></trkpt><trkpt lat="44.8521143" lon="7.9296548"><ele>331.0</ele><time>2026-04-05T08:29:56.845Z</time></trkpt><trkpt lat="44.852055" lon="7.9297217"><ele>331.0</ele><time>2026-04-05T08:29:57.846Z</time></trkpt><trkpt lat="44.852005" lon="7.929815"><ele>331.0</ele><time>2026-04-05T08:29:58.846Z</time></trkpt><trkpt lat="44.851955" lon="7.9299233"><ele>331.0</ele><time>2026-04-05T08:29:59.846Z</time></trkpt><trkpt lat="44.85191" lon="7.930055"><ele>330.8</ele><time>2026-04-05T08:30:00.846Z</time></trkpt><trkpt lat="44.8518783" lon="7.9301817"><ele>330.6</ele><time>2026-04-05T08:30:01.846Z</time></trkpt><trkpt lat="44.851845" lon="7.9303067"><ele>330.4</ele><time>2026-04-05T08:30:02.846Z</time></trkpt><trkpt lat="44.85181" lon="7.9304417"><ele>330.2</ele><time>2026-04-05T08:30:03.846Z</time></trkpt><trkpt lat="44.851775" lon="7.9305817"><ele>330.0</ele><time>2026-04-05T08:30:04.846Z</time></trkpt><trkpt lat="44.8517333" lon="7.93073"><ele>331.0</ele><time>2026-04-05T08:30:05.845Z</time></trkpt><trkpt lat="44.8516983" lon="7.930865"><ele>332.0</ele><time>2026-04-05T08:30:06.846Z</time></trkpt><trkpt lat="44.8516617" lon="7.930985"><ele>333.0</ele><time>2026-04-05T08:30:07.846Z</time></trkpt><trkpt lat="44.8516383" lon="7.93111"><ele>334.0</ele><time>2026-04-05T08:30:08.845Z</time></trkpt><trkpt lat="44.8516167" lon="7.9312417"><ele>335.0</ele><time>2026-04-05T08:30:09.846Z</time></trkpt><trkpt lat="44.8515767" lon="7.931365"><ele>335.0</ele><time>2026-04-05T08:30:10.846Z</time></trkpt><trkpt lat="44.8515317" lon="7.9314883"><ele>335.0</ele><time>2026-04-05T08:30:11.846Z</time></trkpt><trkpt lat="44.8514817" lon="7.9316017"><ele>335.0</ele><time>2026-04-05T08:30:12.845Z</time></trkpt><trkpt lat="44.8514333" lon="7.93171"><ele>335.0</ele><time>2026-04-05T08:30:13.845Z</time></trkpt><trkpt lat="44.851385" lon="7.931825"><ele>335.0</ele><time>2026-04-05T08:30:14.846Z</time></trkpt><trkpt lat="44.851335" lon="7.93196"><ele>334.2</ele><time>2026-04-05T08:30:15.846Z</time></trkpt><trkpt lat="44.851285" lon="7.9321"><ele>333.4</ele><time>2026-04-05T08:30:16.846Z</time></trkpt><trkpt lat="44.851235" lon="7.9322417"><ele>332.6</ele><time>2026-04-05T08:30:17.846Z</time></trkpt><trkpt lat="44.8511917" lon="7.9323683"><ele>331.8</ele><time>2026-04-05T08:30:18.846Z</time></trkpt><trkpt lat="44.8511517" lon="7.9325"><ele>331.0</ele><time>2026-04-05T08:30:19.846Z</time></trkpt><trkpt lat="44.8511033" lon="7.9326217"><ele>331.4</ele><time>2026-04-05T08:30:20.846Z</time></trkpt><trkpt lat="44.8510583" lon="7.9327417"><ele>331.8</ele><time>2026-04-05T08:30:21.846Z</time></trkpt><trkpt lat="44.8510133" lon="7.9328667"><ele>332.2</ele><time>2026-04-05T08:30:22.846Z</time></trkpt><trkpt lat="44.8509717" lon="7.9329967"><ele>332.59999999999997</ele><time>2026-04-05T08:30:23.846Z</time></trkpt><trkpt lat="44.8509283" lon="7.9331183"><ele>333.0</ele><time>2026-04-05T08:30:24.846Z</time></trkpt><trkpt lat="44.85088" lon="7.9332467"><ele>333.0</ele><time>2026-04-05T08:30:25.846Z</time></trkpt><trkpt lat="44.8508333" lon="7.93337"><ele>333.0</ele><time>2026-04-05T08:30:26.845Z</time></trkpt><trkpt lat="44.8507767" lon="7.9334883"><ele>333.0</ele><time>2026-04-05T08:30:27.846Z</time></trkpt><trkpt lat="44.8507183" lon="7.9336117"><ele>333.0</ele><time>2026-04-05T08:30:28.846Z</time></trkpt><trkpt lat="44.8506633" lon="7.9337283"><ele>333.0</ele><time>2026-04-05T08:30:29.846Z</time></trkpt><trkpt lat="44.8506067" lon="7.9338417"><ele>333.5</ele><time>2026-04-05T08:30:30.846Z</time></trkpt><trkpt lat="44.8505583" lon="7.9339467"><ele>334.0</ele><time>2026-04-05T08:30:31.845Z</time></trkpt><trkpt lat="44.8505183" lon="7.934045"><ele>334.5</ele><time>2026-04-05T08:30:32.846Z</time></trkpt><trkpt lat="44.85049" lon="7.9341467"><ele>335.0</ele><time>2026-04-05T08:30:33.846Z</time></trkpt><trkpt lat="44.850465" lon="7.9342483"><ele>335.5</ele><time>2026-04-05T08:30:34.846Z</time></trkpt><trkpt lat="44.850455" lon="7.9343667"><ele>336.0</ele><time>2026-04-05T08:30:35.846Z</time></trkpt><trkpt lat="44.850445" lon="7.9344833"><ele>336.6</ele><time>2026-04-05T08:30:36.846Z</time></trkpt><trkpt lat="44.8504383" lon="7.9345883"><ele>337.20000000000005</ele><time>2026-04-05T08:30:37.845Z</time></trkpt><trkpt lat="44.8504383" lon="7.934725"><ele>337.79999999999995</ele><time>2026-04-05T08:30:39.846Z</time></trkpt><trkpt lat="44.8504433" lon="7.9348583"><ele>338.4</ele><time>2026-04-05T08:30:42.846Z</time></trkpt><trkpt lat="44.8504667" lon="7.93502"><ele>339.0</ele><time>2026-04-05T08:30:44.845Z</time></trkpt><trkpt lat="44.8504867" lon="7.9351867"><ele>337.3333333333333</ele><time>2026-04-05T08:30:46.845Z</time></trkpt><trkpt lat="44.8504917" lon="7.9353217"><ele>335.6666666666667</ele><time>2026-04-05T08:30:48.846Z</time></trkpt><trkpt lat="44.85048" lon="7.9354117"><ele>334.0</ele><time>2026-04-05T08:30:50.846Z</time></trkpt><trkpt lat="44.8504433" lon="7.9354967"><ele>332.33333333333337</ele><time>2026-04-05T08:30:53.846Z</time></trkpt><trkpt lat="44.8503667" lon="7.9355667"><ele>330.6666666666667</ele><time>2026-04-05T08:30:56.846Z</time></trkpt><trkpt lat="44.850315" lon="7.9356633"><ele>329.0</ele><time>2026-04-05T08:30:59.846Z</time></trkpt><trkpt lat="44.8502417" lon="7.93573"><ele>329.0</ele><time>2026-04-05T08:31:01.846Z</time></trkpt><trkpt lat="44.85017" lon="7.935775"><ele>329.0</ele><time>2026-04-05T08:31:03.846Z</time></trkpt><trkpt lat="44.850115" lon="7.935855"><ele>329.0</ele><time>2026-04-05T08:31:05.846Z</time></trkpt><trkpt lat="44.850085" lon="7.93596"><ele>329.0</ele><time>2026-04-05T08:31:07.846Z</time></trkpt><trkpt lat="44.8500717" lon="7.9360617"><ele>329.0</ele><time>2026-04-05T08:31:09.846Z</time></trkpt><trkpt lat="44.8500733" lon="7.9361983"><ele>329.0</ele><time>2026-04-05T08:31:11.846Z</time></trkpt><trkpt lat="44.8500967" lon="7.9362817"><ele>327.5</ele><time>2026-04-05T08:31:12.846Z</time></trkpt><trkpt lat="44.8501683" lon="7.9364217"><ele>326.0</ele><time>2026-04-05T08:31:14.846Z</time></trkpt><trkpt lat="44.85025" lon="7.936545"><ele>324.5</ele><time>2026-04-05T08:31:16.846Z</time></trkpt><trkpt lat="44.8503383" lon="7.9366567"><ele>323.0</ele><time>2026-04-05T08:31:18.846Z</time></trkpt><trkpt lat="44.8504367" lon="7.9367417"><ele>322.2</ele><time>2026-04-05T08:31:20.846Z</time></trkpt><trkpt lat="44.850545" lon="7.9368133"><ele>321.4</ele><time>2026-04-05T08:31:22.846Z</time></trkpt><trkpt lat="44.8506433" lon="7.9368833"><ele>320.59999999999997</ele><time>2026-04-05T08:31:24.846Z</time></trkpt><trkpt lat="44.850715" lon="7.9369317"><ele>319.79999999999995</ele><time>2026-04-05T08:31:26.846Z</time></trkpt><trkpt lat="44.8507867" lon="7.9369417"><ele>319.0</ele><time>2026-04-05T08:31:28.846Z</time></trkpt><trkpt lat="44.8508883" lon="7.93695"><ele>319.0</ele><time>2026-04-05T08:31:30.846Z</time></trkpt><trkpt lat="44.8509533" lon="7.9369583"><ele>319.0</ele><time>2026-04-05T08:31:31.846Z</time></trkpt><trkpt lat="44.8510167" lon="7.9369767"><ele>319.0</ele><time>2026-04-05T08:31:32.846Z</time></trkpt><trkpt lat="44.85113" lon="7.9370283"><ele>319.0</ele><time>2026-04-05T08:31:34.846Z</time></trkpt><trkpt lat="44.8512317" lon="7.93711"><ele>319.0</ele><time>2026-04-05T08:31:36.846Z</time></trkpt><trkpt lat="44.8513367" lon="7.9371633"><ele>317.8</ele><time>2026-04-05T08:31:38.846Z</time></trkpt><trkpt lat="44.8514367" lon="7.9372"><ele>316.59999999999997</ele><time>2026-04-05T08:31:40.846Z</time></trkpt><trkpt lat="44.8515317" lon="7.9372467"><ele>315.4</ele><time>2026-04-05T08:31:42.846Z</time></trkpt><trkpt lat="44.85163" lon="7.9373083"><ele>314.2</ele><time>2026-04-05T08:31:44.846Z</time></trkpt><trkpt lat="44.8516983" lon="7.9373317"><ele>313.0</ele><time>2026-04-05T08:31:46.846Z</time></trkpt><trkpt lat="44.8517717" lon="7.9373733"><ele>312.5</ele><time>2026-04-05T08:31:50.846Z</time></trkpt><trkpt lat="44.8518333" lon="7.9374533"><ele>312.0</ele><time>2026-04-05T08:31:54.846Z</time></trkpt><trkpt lat="44.851905" lon="7.9374467"><ele>311.5</ele><time>2026-04-05T08:31:57.846Z</time></trkpt><trkpt lat="44.851995" lon="7.93743"><ele>311.0</ele><time>2026-04-05T08:32:00.845Z</time></trkpt><trkpt lat="44.852075" lon="7.937445"><ele>310.5</ele><time>2026-04-05T08:32:03.846Z</time></trkpt><trkpt lat="44.8521583" lon="7.93745"><ele>310.0</ele><time>2026-04-05T08:32:06.846Z</time></trkpt><trkpt lat="44.8522333" lon="7.9374267"><ele>310.0</ele><time>2026-04-05T08:32:09.846Z</time></trkpt><trkpt lat="44.8522917" lon="7.9373933"><ele>310.0</ele><time>2026-04-05T08:32:12.846Z</time></trkpt><trkpt lat="44.8523567" lon="7.9373917"><ele>310.0</ele><time>2026-04-05T08:32:15.846Z</time></trkpt><trkpt lat="44.8524267" lon="7.9373883"><ele>310.0</ele><time>2026-04-05T08:32:17.846Z</time></trkpt><trkpt lat="44.8524933" lon="7.937415"><ele>310.0</ele><time>2026-04-05T08:32:19.845Z</time></trkpt><trkpt lat="44.852565" lon="7.9374383"><ele>310.0</ele><time>2026-04-05T08:32:21.846Z</time></trkpt><trkpt lat="44.8526033" lon="7.937515"><ele>310.0</ele><time>2026-04-05T08:32:24.846Z</time></trkpt><trkpt lat="44.8526483" lon="7.9375817"><ele>311.3333333333333</ele><time>2026-04-05T08:32:26.846Z</time></trkpt><trkpt lat="44.852705" lon="7.9376683"><ele>312.66666666666663</ele><time>2026-04-05T08:32:28.845Z</time></trkpt><trkpt lat="44.8527483" lon="7.937735"><ele>314.0</ele><time>2026-04-05T08:32:29.846Z</time></trkpt><trkpt lat="44.85281" lon="7.9378583"><ele>315.3333333333333</ele><time>2026-04-05T08:32:31.846Z</time></trkpt><trkpt lat="44.852845" lon="7.9379333"><ele>316.6666666666667</ele><time>2026-04-05T08:32:33.846Z</time></trkpt><trkpt lat="44.8529133" lon="7.9379467"><ele>318.0</ele><time>2026-04-05T08:32:37.846Z</time></trkpt><trkpt lat="44.8529917" lon="7.93797"><ele>318.0</ele><time>2026-04-05T08:32:40.846Z</time></trkpt><trkpt lat="44.8530867" lon="7.9379783"><ele>318.0</ele><time>2026-04-05T08:32:43.846Z</time></trkpt><trkpt lat="44.853155" lon="7.9379517"><ele>318.0</ele><time>2026-04-05T08:32:45.846Z</time></trkpt><trkpt lat="44.8532383" lon="7.937965"><ele>318.0</ele><time>2026-04-05T08:32:48.846Z</time></trkpt><trkpt lat="44.8533017" lon="7.9380217"><ele>318.0</ele><time>2026-04-05T08:32:50.846Z</time></trkpt><trkpt lat="44.8533633" lon="7.9380483"><ele>318.0</ele><time>2026-04-05T08:32:52.846Z</time></trkpt><trkpt lat="44.853445" lon="7.938015"><ele>320.2</ele><time>2026-04-05T08:32:54.846Z</time></trkpt><trkpt lat="44.853545" lon="7.9379417"><ele>322.4</ele><time>2026-04-05T08:32:56.846Z</time></trkpt><trkpt lat="44.8536483" lon="7.9378617"><ele>324.59999999999997</ele><time>2026-04-05T08:32:58.846Z</time></trkpt><trkpt lat="44.8537267" lon="7.9377467"><ele>326.8</ele><time>2026-04-05T08:33:00.846Z</time></trkpt><trkpt lat="44.8538083" lon="7.9376533"><ele>329.0</ele><time>2026-04-05T08:33:02.846Z</time></trkpt><trkpt lat="44.8538967" lon="7.9376367"><ele>329.0</ele><time>2026-04-05T08:33:04.846Z</time></trkpt><trkpt lat="44.8539067" lon="7.9377633"><ele>329.0</ele><time>2026-04-05T08:33:07.846Z</time></trkpt><trkpt lat="44.8538917" lon="7.9378533"><ele>329.0</ele><time>2026-04-05T08:33:08.846Z</time></trkpt><trkpt lat="44.8538767" lon="7.9379483"><ele>329.0</ele><time>2026-04-05T08:33:09.846Z</time></trkpt><trkpt lat="44.85387" lon="7.9380517"><ele>329.0</ele><time>2026-04-05T08:33:10.845Z</time></trkpt><trkpt lat="44.8538733" lon="7.9381483"><ele>329.0</ele><time>2026-04-05T08:33:11.846Z</time></trkpt><trkpt lat="44.853895" lon="7.9382533"><ele>329.0</ele><time>2026-04-05T08:33:12.846Z</time></trkpt><trkpt lat="44.8539233" lon="7.938355"><ele>329.5</ele><time>2026-04-05T08:33:13.846Z</time></trkpt><trkpt lat="44.8539583" lon="7.938455"><ele>330.0</ele><time>2026-04-05T08:33:14.846Z</time></trkpt><trkpt lat="44.8539933" lon="7.93854"><ele>330.5</ele><time>2026-04-05T08:33:15.846Z</time></trkpt><trkpt lat="44.8540233" lon="7.9386333"><ele>331.0</ele><time>2026-04-05T08:33:16.846Z</time></trkpt><trkpt lat="44.8540433" lon="7.9387417"><ele>331.5</ele><time>2026-04-05T08:33:18.846Z</time></trkpt><trkpt lat="44.8540433" lon="7.9388317"><ele>332.0</ele><time>2026-04-05T08:33:20.845Z</time></trkpt><trkpt lat="44.85397" lon="7.93897"><ele>332.0</ele><time>2026-04-05T08:33:22.846Z</time></trkpt><trkpt lat="44.8539283" lon="7.9390767"><ele>332.0</ele><time>2026-04-05T08:33:23.846Z</time></trkpt><trkpt lat="44.85389" lon="7.9391967"><ele>332.0</ele><time>2026-04-05T08:33:24.846Z</time></trkpt><trkpt lat="44.85385" lon="7.93933"><ele>332.0</ele><time>2026-04-05T08:33:25.846Z</time></trkpt><trkpt lat="44.853795" lon="7.9394733"><ele>332.0</ele><time>2026-04-05T08:33:26.845Z</time></trkpt><trkpt lat="44.85374" lon="7.939605"><ele>331.6666666666667</ele><time>2026-04-05T08:33:27.846Z</time></trkpt><trkpt lat="44.8537033" lon="7.9397233"><ele>331.33333333333337</ele><time>2026-04-05T08:33:28.846Z</time></trkpt><trkpt lat="44.8536733" lon="7.9398333"><ele>331.0</ele><time>2026-04-05T08:33:29.846Z</time></trkpt><trkpt lat="44.8536483" lon="7.939955"><ele>330.6666666666667</ele><time>2026-04-05T08:33:30.845Z</time></trkpt><trkpt lat="44.85362" lon="7.9400583"><ele>330.3333333333333</ele><time>2026-04-05T08:33:31.846Z</time></trkpt><trkpt lat="44.8535833" lon="7.9401517"><ele>330.0</ele><time>2026-04-05T08:33:32.846Z</time></trkpt><trkpt lat="44.8535483" lon="7.94024"><ele>330.1666666666667</ele><time>2026-04-05T08:33:33.846Z</time></trkpt><trkpt lat="44.8535283" lon="7.9403367"><ele>330.3333333333333</ele><time>2026-04-05T08:33:34.846Z</time></trkpt><trkpt lat="44.85352" lon="7.9404467"><ele>330.5</ele><time>2026-04-05T08:33:35.845Z</time></trkpt><trkpt lat="44.8535117" lon="7.9405683"><ele>330.66666666666663</ele><time>2026-04-05T08:33:36.846Z</time></trkpt><trkpt lat="44.8534983" lon="7.94068"><ele>330.8333333333333</ele><time>2026-04-05T08:33:37.846Z</time></trkpt><trkpt lat="44.8534917" lon="7.9407917"><ele>331.0</ele><time>2026-04-05T08:33:38.845Z</time></trkpt><trkpt lat="44.8534867" lon="7.9409133"><ele>331.0</ele><time>2026-04-05T08:33:39.846Z</time></trkpt><trkpt lat="44.8534867" lon="7.941045"><ele>331.0</ele><time>2026-04-05T08:33:40.846Z</time></trkpt><trkpt lat="44.853495" lon="7.9411917"><ele>331.0</ele><time>2026-04-05T08:33:41.846Z</time></trkpt><trkpt lat="44.8535117" lon="7.94137"><ele>331.0</ele><time>2026-04-05T08:33:42.845Z</time></trkpt><trkpt lat="44.8535183" lon="7.9415517"><ele>331.25</ele><time>2026-04-05T08:33:43.846Z</time></trkpt><trkpt lat="44.8535283" lon="7.94172"><ele>331.5</ele><time>2026-04-05T08:33:44.846Z</time></trkpt><trkpt lat="44.85352" lon="7.9418783"><ele>331.75</ele><time>2026-04-05T08:33:45.845Z</time></trkpt><trkpt lat="44.8535183" lon="7.9420433"><ele>332.0</ele><time>2026-04-05T08:33:46.846Z</time></trkpt><trkpt lat="44.8535133" lon="7.9422067"><ele>332.0</ele><time>2026-04-05T08:33:47.846Z</time></trkpt><trkpt lat="44.8535083" lon="7.9423733"><ele>332.0</ele><time>2026-04-05T08:33:48.845Z</time></trkpt><trkpt lat="44.8535033" lon="7.94252"><ele>332.0</ele><time>2026-04-05T08:33:49.846Z</time></trkpt><trkpt lat="44.8535017" lon="7.9426467"><ele>332.0</ele><time>2026-04-05T08:33:50.846Z</time></trkpt><trkpt lat="44.8535017" lon="7.942755"><ele>332.0</ele><time>2026-04-05T08:33:51.846Z</time></trkpt><trkpt lat="44.8534783" lon="7.9429067"><ele>333.0</ele><time>2026-04-05T08:33:53.846Z</time></trkpt><trkpt lat="44.8533683" lon="7.9429883"><ele>334.0</ele><time>2026-04-05T08:33:55.846Z</time></trkpt><trkpt lat="44.8532967" lon="7.9430167"><ele>335.0</ele><time>2026-04-05T08:33:56.846Z</time></trkpt><trkpt lat="44.8532233" lon="7.943045"><ele>336.0</ele><time>2026-04-05T08:33:57.846Z</time></trkpt><trkpt lat="44.8531567" lon="7.943085"><ele>337.0</ele><time>2026-04-05T08:33:58.846Z</time></trkpt><trkpt lat="44.8530783" lon="7.9431817"><ele>337.0</ele><time>2026-04-05T08:34:00.846Z</time></trkpt><trkpt lat="44.8530567" lon="7.9432817"><ele>337.0</ele><time>2026-04-05T08:34:03.845Z</time></trkpt><trkpt lat="44.8530417" lon="7.94341"><ele>337.0</ele><time>2026-04-05T08:34:10.846Z</time></trkpt><trkpt lat="44.8530283" lon="7.9435017"><ele>337.0</ele><time>2026-04-05T08:34:11.846Z</time></trkpt><trkpt lat="44.853025" lon="7.943605"><ele>337.0</ele><time>2026-04-05T08:34:12.845Z</time></trkpt><trkpt lat="44.8530217" lon="7.9437217"><ele>337.0</ele><time>2026-04-05T08:34:13.845Z</time></trkpt><trkpt lat="44.853025" lon="7.9438483"><ele>337.0</ele><time>2026-04-05T08:34:14.846Z</time></trkpt><trkpt lat="44.8530317" lon="7.9439783"><ele>337.0</ele><time>2026-04-05T08:34:15.846Z</time></trkpt><trkpt lat="44.85304" lon="7.944105"><ele>337.0</ele><time>2026-04-05T08:34:16.846Z</time></trkpt><trkpt lat="44.8530433" lon="7.944225"><ele>337.0</ele><time>2026-04-05T08:34:17.846Z</time></trkpt><trkpt lat="44.853045" lon="7.9443367"><ele>337.0</ele><time>2026-04-05T08:34:18.846Z</time></trkpt><trkpt lat="44.853045" lon="7.9444333"><ele>337.0</ele><time>2026-04-05T08:34:19.846Z</time></trkpt><trkpt lat="44.8530517" lon="7.9445867"><ele>337.0</ele><time>2026-04-05T08:34:21.846Z</time></trkpt><trkpt lat="44.8529883" lon="7.9446517"><ele>337.0</ele><time>2026-04-05T08:34:24.846Z</time></trkpt><trkpt lat="44.852855" lon="7.944635"><ele>337.0</ele><time>2026-04-05T08:34:26.846Z</time></trkpt><trkpt lat="44.852765" lon="7.9446317"><ele>337.0</ele><time>2026-04-05T08:34:27.846Z</time></trkpt><trkpt lat="44.852665" lon="7.9446267"><ele>337.0</ele><time>2026-04-05T08:34:28.846Z</time></trkpt><trkpt lat="44.8525567" lon="7.944625"><ele>337.25</ele><time>2026-04-05T08:34:29.846Z</time></trkpt><trkpt lat="44.8524383" lon="7.9446233"><ele>337.5</ele><time>2026-04-05T08:34:30.846Z</time></trkpt><trkpt lat="44.852305" lon="7.9446217"><ele>337.75</ele><time>2026-04-05T08:34:31.846Z</time></trkpt><trkpt lat="44.852165" lon="7.9446183"><ele>338.0</ele><time>2026-04-05T08:34:32.846Z</time></trkpt><trkpt lat="44.85201" lon="7.9446233"><ele>338.0</ele><time>2026-04-05T08:34:33.846Z</time></trkpt><trkpt lat="44.85185" lon="7.9446433"><ele>338.0</ele><time>2026-04-05T08:34:34.846Z</time></trkpt><trkpt lat="44.85169" lon="7.9446583"><ele>338.0</ele><time>2026-04-05T08:34:35.846Z</time></trkpt><trkpt lat="44.8515317" lon="7.94468"><ele>339.6666666666667</ele><time>2026-04-05T08:34:36.846Z</time></trkpt><trkpt lat="44.8513817" lon="7.9447"><ele>341.3333333333333</ele><time>2026-04-05T08:34:37.846Z</time></trkpt><trkpt lat="44.8512317" lon="7.9447267"><ele>343.0</ele><time>2026-04-05T08:34:38.846Z</time></trkpt><trkpt lat="44.851085" lon="7.9447517"><ele>342.25</ele><time>2026-04-05T08:34:39.845Z</time></trkpt><trkpt lat="44.8509417" lon="7.944775"><ele>341.5</ele><time>2026-04-05T08:34:40.846Z</time></trkpt><trkpt lat="44.850805" lon="7.944795"><ele>340.75</ele><time>2026-04-05T08:34:41.846Z</time></trkpt><trkpt lat="44.8506617" lon="7.9448167"><ele>340.0</ele><time>2026-04-05T08:34:42.846Z</time></trkpt><trkpt lat="44.85052" lon="7.9448583"><ele>340.0</ele><time>2026-04-05T08:34:43.846Z</time></trkpt><trkpt lat="44.8503817" lon="7.944905"><ele>340.0</ele><time>2026-04-05T08:34:44.846Z</time></trkpt><trkpt lat="44.850255" lon="7.9449467"><ele>340.0</ele><time>2026-04-05T08:34:45.846Z</time></trkpt><trkpt lat="44.850125" lon="7.944985"><ele>340.0</ele><time>2026-04-05T08:34:46.846Z</time></trkpt><trkpt lat="44.8499883" lon="7.9450417"><ele>338.25</ele><time>2026-04-05T08:34:47.846Z</time></trkpt><trkpt lat="44.8498467" lon="7.9450917"><ele>336.5</ele><time>2026-04-05T08:34:48.846Z</time></trkpt><trkpt lat="44.849715" lon="7.9451433"><ele>334.75</ele><time>2026-04-05T08:34:49.845Z</time></trkpt><trkpt lat="44.849575" lon="7.94518"><ele>333.0</ele><time>2026-04-05T08:34:50.846Z</time></trkpt><trkpt lat="44.84944" lon="7.945205"><ele>333.0</ele><time>2026-04-05T08:34:51.846Z</time></trkpt><trkpt lat="44.8493017" lon="7.9452267"><ele>333.0</ele><time>2026-04-05T08:34:52.845Z</time></trkpt><trkpt lat="44.84918" lon="7.9452383"><ele>333.0</ele><time>2026-04-05T08:34:53.846Z</time></trkpt><trkpt lat="44.84907" lon="7.945245"><ele>333.0</ele><time>2026-04-05T08:34:54.845Z</time></trkpt><trkpt lat="44.8489767" lon="7.945255"><ele>334.1666666666667</ele><time>2026-04-05T08:34:55.845Z</time></trkpt><trkpt lat="44.8489" lon="7.9452617"><ele>335.3333333333333</ele><time>2026-04-05T08:34:56.846Z</time></trkpt><trkpt lat="44.8488383" lon="7.9452433"><ele>336.5</ele><time>2026-04-05T08:34:57.846Z</time></trkpt><trkpt lat="44.8487567" lon="7.9451667"><ele>337.66666666666663</ele><time>2026-04-05T08:34:59.846Z</time></trkpt><trkpt lat="44.848685" lon="7.9450283"><ele>338.8333333333333</ele><time>2026-04-05T08:35:01.846Z</time></trkpt><trkpt lat="44.8486333" lon="7.9449483"><ele>340.0</ele><time>2026-04-05T08:35:02.845Z</time></trkpt><trkpt lat="44.8485783" lon="7.9448667"><ele>340.2</ele><time>2026-04-05T08:35:03.846Z</time></trkpt><trkpt lat="44.848525" lon="7.9447667"><ele>340.4</ele><time>2026-04-05T08:35:04.846Z</time></trkpt><trkpt lat="44.8484617" lon="7.94466"><ele>340.6</ele><time>2026-04-05T08:35:05.846Z</time></trkpt><trkpt lat="44.8484" lon="7.9445483"><ele>340.8</ele><time>2026-04-05T08:35:06.846Z</time></trkpt><trkpt lat="44.848335" lon="7.9444433"><ele>341.0</ele><time>2026-04-05T08:35:07.846Z</time></trkpt><trkpt lat="44.8482767" lon="7.9443383"><ele>340.5</ele><time>2026-04-05T08:35:08.846Z</time></trkpt><trkpt lat="44.84822" lon="7.9442383"><ele>340.0</ele><time>2026-04-05T08:35:09.846Z</time></trkpt><trkpt lat="44.84817" lon="7.94415"><ele>339.5</ele><time>2026-04-05T08:35:10.846Z</time></trkpt><trkpt lat="44.8481233" lon="7.9440617"><ele>339.0</ele><time>2026-04-05T08:35:11.846Z</time></trkpt><trkpt lat="44.8480783" lon="7.9439617"><ele>338.5</ele><time>2026-04-05T08:35:12.846Z</time></trkpt><trkpt lat="44.848035" lon="7.9438667"><ele>338.0</ele><time>2026-04-05T08:35:13.846Z</time></trkpt><trkpt lat="44.8479883" lon="7.9437717"><ele>336.83333333333337</ele><time>2026-04-05T08:35:14.845Z</time></trkpt><trkpt lat="44.847945" lon="7.9436817"><ele>335.6666666666667</ele><time>2026-04-05T08:35:15.846Z</time></trkpt><trkpt lat="44.8479" lon="7.943595"><ele>334.5</ele><time>2026-04-05T08:35:16.846Z</time></trkpt><trkpt lat="44.8478517" lon="7.9435183"><ele>333.3333333333333</ele><time>2026-04-05T08:35:17.846Z</time></trkpt><trkpt lat="44.8477967" lon="7.9434333"><ele>332.16666666666663</ele><time>2026-04-05T08:35:18.846Z</time></trkpt><trkpt lat="44.8477467" lon="7.94335"><ele>331.0</ele><time>2026-04-05T08:35:19.845Z</time></trkpt><trkpt lat="44.8476933" lon="7.9432717"><ele>330.6</ele><time>2026-04-05T08:35:20.846Z</time></trkpt><trkpt lat="44.84764" lon="7.94315"><ele>330.20000000000005</ele><time>2026-04-05T08:35:22.846Z</time></trkpt><trkpt lat="44.8476583" lon="7.9430483"><ele>329.79999999999995</ele><time>2026-04-05T08:35:24.845Z</time></trkpt><trkpt lat="44.8477383" lon="7.9428983"><ele>329.4</ele><time>2026-04-05T08:35:26.846Z</time></trkpt><trkpt lat="44.84779" lon="7.942815"><ele>329.0</ele><time>2026-04-05T08:35:27.846Z</time></trkpt><trkpt lat="44.847835" lon="7.9427467"><ele>329.0</ele><time>2026-04-05T08:35:28.845Z</time></trkpt><trkpt lat="44.8479233" lon="7.9426217"><ele>329.0</ele><time>2026-04-05T08:35:30.846Z</time></trkpt><trkpt lat="44.8479717" lon="7.9425417"><ele>329.0</ele><time>2026-04-05T08:35:31.846Z</time></trkpt><trkpt lat="44.8480333" lon="7.9424533"><ele>329.0</ele><time>2026-04-05T08:35:32.845Z</time></trkpt><trkpt lat="44.8480983" lon="7.9423867"><ele>329.0</ele><time>2026-04-05T08:35:33.846Z</time></trkpt><trkpt lat="44.8481667" lon="7.9423283"><ele>329.0</ele><time>2026-04-05T08:35:34.846Z</time></trkpt><trkpt lat="44.8482283" lon="7.9422683"><ele>328.5</ele><time>2026-04-05T08:35:35.846Z</time></trkpt><trkpt lat="44.8483" lon="7.9422083"><ele>328.0</ele><time>2026-04-05T08:35:36.846Z</time></trkpt><trkpt lat="44.84837" lon="7.9421483"><ele>327.5</ele><time>2026-04-05T08:35:37.846Z</time></trkpt><trkpt lat="44.84844" lon="7.9421033"><ele>327.0</ele><time>2026-04-05T08:35:38.846Z</time></trkpt><trkpt lat="44.8485033" lon="7.9420683"><ele>326.5</ele><time>2026-04-05T08:35:39.846Z</time></trkpt><trkpt lat="44.8485633" lon="7.942035"><ele>326.0</ele><time>2026-04-05T08:35:40.845Z</time></trkpt><trkpt lat="44.8486733" lon="7.9419667"><ele>326.0</ele><time>2026-04-05T08:35:42.846Z</time></trkpt><trkpt lat="44.848745" lon="7.9418967"><ele>326.0</ele><time>2026-04-05T08:35:44.846Z</time></trkpt><trkpt lat="44.8487417" lon="7.9417733"><ele>326.0</ele><time>2026-04-05T08:35:46.846Z</time></trkpt><trkpt lat="44.8487533" lon="7.9416367"><ele>326.0</ele><time>2026-04-05T08:35:48.846Z</time></trkpt><trkpt lat="44.84883" lon="7.9415017"><ele>326.0</ele><time>2026-04-05T08:35:50.845Z</time></trkpt><trkpt lat="44.84889" lon="7.94141"><ele>325.6</ele><time>2026-04-05T08:35:51.846Z</time></trkpt><trkpt lat="44.848965" lon="7.94131"><ele>325.20000000000005</ele><time>2026-04-05T08:35:52.846Z</time></trkpt><trkpt lat="44.8490467" lon="7.9412017"><ele>324.79999999999995</ele><time>2026-04-05T08:35:53.846Z</time></trkpt><trkpt lat="44.8491167" lon="7.9411117"><ele>324.4</ele><time>2026-04-05T08:35:54.845Z</time></trkpt><trkpt lat="44.8491917" lon="7.9410267"><ele>324.0</ele><time>2026-04-05T08:35:55.845Z</time></trkpt><trkpt lat="44.8492633" lon="7.9409667"><ele>324.3333333333333</ele><time>2026-04-05T08:35:56.846Z</time></trkpt><trkpt lat="44.8493233" lon="7.9409033"><ele>324.6666666666667</ele><time>2026-04-05T08:35:57.846Z</time></trkpt><trkpt lat="44.8493783" lon="7.940845"><ele>325.0</ele><time>2026-04-05T08:35:58.846Z</time></trkpt><trkpt lat="44.84944" lon="7.9407817"><ele>325.33333333333337</ele><time>2026-04-05T08:35:59.846Z</time></trkpt><trkpt lat="44.84951" lon="7.9406917"><ele>325.6666666666667</ele><time>2026-04-05T08:36:00.846Z</time></trkpt><trkpt lat="44.84958" lon="7.9405933"><ele>326.0</ele><time>2026-04-05T08:36:01.845Z</time></trkpt><trkpt lat="44.84964" lon="7.9404983"><ele>326.0</ele><time>2026-04-05T08:36:02.846Z</time></trkpt><trkpt lat="44.8497067" lon="7.9404133"><ele>326.0</ele><time>2026-04-05T08:36:03.846Z</time></trkpt><trkpt lat="44.849765" lon="7.9403317"><ele>326.0</ele><time>2026-04-05T08:36:04.846Z</time></trkpt><trkpt lat="44.84981" lon="7.9402433"><ele>326.0</ele><time>2026-04-05T08:36:05.846Z</time></trkpt><trkpt lat="44.8498633" lon="7.94015"><ele>326.0</ele><time>2026-04-05T08:36:06.846Z</time></trkpt><trkpt lat="44.849915" lon="7.9400583"><ele>326.0</ele><time>2026-04-05T08:36:07.845Z</time></trkpt><trkpt lat="44.8499633" lon="7.93997"><ele>326.83333333333337</ele><time>2026-04-05T08:36:08.846Z</time></trkpt><trkpt lat="44.850015" lon="7.9398983"><ele>327.6666666666667</ele><time>2026-04-05T08:36:09.846Z</time></trkpt><trkpt lat="44.8500717" lon="7.9398417"><ele>328.5</ele><time>2026-04-05T08:36:10.846Z</time></trkpt><trkpt lat="44.85013" lon="7.9398033"><ele>329.3333333333333</ele><time>2026-04-05T08:36:11.846Z</time></trkpt><trkpt lat="44.8502317" lon="7.9397617"><ele>330.16666666666663</ele><time>2026-04-05T08:36:13.846Z</time></trkpt><trkpt lat="44.85031" lon="7.9397333"><ele>331.0</ele><time>2026-04-05T08:36:15.846Z</time></trkpt><trkpt lat="44.85039" lon="7.9396867"><ele>331.0</ele><time>2026-04-05T08:36:18.846Z</time></trkpt><trkpt lat="44.8504617" lon="7.9396533"><ele>331.0</ele><time>2026-04-05T08:36:21.846Z</time></trkpt><trkpt lat="44.8505283" lon="7.9395867"><ele>331.0</ele><time>2026-04-05T08:36:24.846Z</time></trkpt><trkpt lat="44.8504533" lon="7.9396317"><ele>331.0</ele><time>2026-04-05T08:36:30.846Z</time></trkpt><trkpt lat="44.85038" lon="7.93967"><ele>331.0</ele><time>2026-04-05T08:36:33.845Z</time></trkpt><trkpt lat="44.850325" lon="7.9396217"><ele>331.0</ele><time>2026-04-05T08:36:35.846Z</time></trkpt><trkpt lat="44.8502283" lon="7.9395783"><ele>331.0</ele><time>2026-04-05T08:36:37.845Z</time></trkpt><trkpt lat="44.850155" lon="7.9395167"><ele>331.0</ele><time>2026-04-05T08:36:39.845Z</time></trkpt><trkpt lat="44.85009" lon="7.9394267"><ele>331.0</ele><time>2026-04-05T08:36:41.846Z</time></trkpt><trkpt lat="44.8500517" lon="7.9393133"><ele>331.0</ele><time>2026-04-05T08:36:44.846Z</time></trkpt><trkpt lat="44.84999" lon="7.9392283"><ele>331.0</ele><time>2026-04-05T08:36:47.846Z</time></trkpt><trkpt lat="44.8499133" lon="7.939205"><ele>331.0</ele><time>2026-04-05T08:36:49.846Z</time></trkpt><trkpt lat="44.849815" lon="7.9392167"><ele>328.66666666666663</ele><time>2026-04-05T08:36:51.846Z</time></trkpt><trkpt lat="44.8497517" lon="7.93922"><ele>326.3333333333333</ele><time>2026-04-05T08:36:52.846Z</time></trkpt><trkpt lat="44.8496317" lon="7.93925"><ele>324.0</ele><time>2026-04-05T08:36:54.846Z</time></trkpt><trkpt lat="44.8495633" lon="7.939285"><ele>321.6666666666667</ele><time>2026-04-05T08:36:55.846Z</time></trkpt><trkpt lat="44.8494917" lon="7.9393083"><ele>319.33333333333337</ele><time>2026-04-05T08:36:56.845Z</time></trkpt><trkpt lat="44.84941" lon="7.939325"><ele>317.0</ele><time>2026-04-05T08:36:57.846Z</time></trkpt><trkpt lat="44.84933" lon="7.93933"><ele>317.1666666666667</ele><time>2026-04-05T08:36:58.846Z</time></trkpt><trkpt lat="44.8492483" lon="7.9393233"><ele>317.33333333333337</ele><time>2026-04-05T08:36:59.846Z</time></trkpt><trkpt lat="44.8491633" lon="7.9393233"><ele>317.5</ele><time>2026-04-05T08:37:00.846Z</time></trkpt><trkpt lat="44.84908" lon="7.9393533"><ele>317.6666666666667</ele><time>2026-04-05T08:37:01.845Z</time></trkpt><trkpt lat="44.84899" lon="7.9394083"><ele>317.8333333333333</ele><time>2026-04-05T08:37:02.846Z</time></trkpt><trkpt lat="44.8489017" lon="7.9394567"><ele>318.0</ele><time>2026-04-05T08:37:03.846Z</time></trkpt><trkpt lat="44.8488183" lon="7.9395"><ele>318.0</ele><time>2026-04-05T08:37:04.845Z</time></trkpt><trkpt lat="44.8487433" lon="7.93953"><ele>318.0</ele><time>2026-04-05T08:37:05.846Z</time></trkpt><trkpt lat="44.848675" lon="7.93956"><ele>318.0</ele><time>2026-04-05T08:37:06.846Z</time></trkpt><trkpt lat="44.8486117" lon="7.93957"><ele>318.0</ele><time>2026-04-05T08:37:07.845Z</time></trkpt><trkpt lat="44.8485067" lon="7.9395267"><ele>318.0</ele><time>2026-04-05T08:37:09.846Z</time></trkpt><trkpt lat="44.848445" lon="7.939415"><ele>318.0</ele><time>2026-04-05T08:37:11.846Z</time></trkpt><trkpt lat="44.8483817" lon="7.939265"><ele>321.4</ele><time>2026-04-05T08:37:13.846Z</time></trkpt><trkpt lat="44.8483633" lon="7.9391783"><ele>324.8</ele><time>2026-04-05T08:37:14.846Z</time></trkpt><trkpt lat="44.848355" lon="7.9390017"><ele>328.2</ele><time>2026-04-05T08:37:16.846Z</time></trkpt><trkpt lat="44.8483367" lon="7.938865"><ele>331.6</ele><time>2026-04-05T08:37:18.846Z</time></trkpt><trkpt lat="44.84823" lon="7.938775"><ele>335.0</ele><time>2026-04-05T08:37:20.846Z</time></trkpt><trkpt lat="44.848155" lon="7.93874"><ele>335.0</ele><time>2026-04-05T08:37:21.846Z</time></trkpt><trkpt lat="44.8480617" lon="7.9387083"><ele>335.0</ele><time>2026-04-05T08:37:22.846Z</time></trkpt><trkpt lat="44.8479717" lon="7.9386933"><ele>335.0</ele><time>2026-04-05T08:37:23.846Z</time></trkpt><trkpt lat="44.8479067" lon="7.9387183"><ele>335.0</ele><time>2026-04-05T08:37:24.846Z</time></trkpt><trkpt lat="44.847845" lon="7.9387667"><ele>335.0</ele><time>2026-04-05T08:37:25.846Z</time></trkpt><trkpt lat="44.8477983" lon="7.9388517"><ele>335.0</ele><time>2026-04-05T08:37:26.846Z</time></trkpt><trkpt lat="44.84777" lon="7.9389567"><ele>335.0</ele><time>2026-04-05T08:37:27.846Z</time></trkpt><trkpt lat="44.8477333" lon="7.9390767"><ele>335.0</ele><time>2026-04-05T08:37:28.846Z</time></trkpt><trkpt lat="44.8476867" lon="7.9392"><ele>335.0</ele><time>2026-04-05T08:37:29.846Z</time></trkpt><trkpt lat="44.8476217" lon="7.9392983"><ele>335.0</ele><time>2026-04-05T08:37:30.846Z</time></trkpt><trkpt lat="44.8475567" lon="7.9393967"><ele>335.0</ele><time>2026-04-05T08:37:31.846Z</time></trkpt><trkpt lat="44.847495" lon="7.9395"><ele>336.1666666666667</ele><time>2026-04-05T08:37:32.845Z</time></trkpt><trkpt lat="44.8474467" lon="7.9396017"><ele>337.33333333333337</ele><time>2026-04-05T08:37:33.845Z</time></trkpt><trkpt lat="44.8474017" lon="7.9396867"><ele>338.5</ele><time>2026-04-05T08:37:34.846Z</time></trkpt><trkpt lat="44.8473233" lon="7.9397867"><ele>339.6666666666667</ele><time>2026-04-05T08:37:36.846Z</time></trkpt><trkpt lat="44.8472567" lon="7.9398233"><ele>340.8333333333333</ele><time>2026-04-05T08:37:37.846Z</time></trkpt><trkpt lat="44.8471683" lon="7.9398667"><ele>342.0</ele><time>2026-04-05T08:37:38.846Z</time></trkpt><trkpt lat="44.847075" lon="7.9399117"><ele>342.0</ele><time>2026-04-05T08:37:39.846Z</time></trkpt><trkpt lat="44.8469883" lon="7.9399583"><ele>342.0</ele><time>2026-04-05T08:37:40.846Z</time></trkpt><trkpt lat="44.8469017" lon="7.9400167"><ele>342.0</ele><time>2026-04-05T08:37:41.846Z</time></trkpt><trkpt lat="44.846825" lon="7.940105"><ele>342.0</ele><time>2026-04-05T08:37:42.846Z</time></trkpt><trkpt lat="44.8467433" lon="7.940205"><ele>342.0</ele><time>2026-04-05T08:37:43.846Z</time></trkpt><trkpt lat="44.8466683" lon="7.9403017"><ele>342.2857142857143</ele><time>2026-04-05T08:37:44.846Z</time></trkpt><trkpt lat="44.8466" lon="7.9403767"><ele>342.57142857142856</ele><time>2026-04-05T08:37:45.846Z</time></trkpt><trkpt lat="44.8465483" lon="7.9404433"><ele>342.8571428571429</ele><time>2026-04-05T08:37:46.846Z</time></trkpt><trkpt lat="44.8465" lon="7.9405017"><ele>343.1428571428571</ele><time>2026-04-05T08:37:47.846Z</time></trkpt><trkpt lat="44.8464533" lon="7.940565"><ele>343.42857142857144</ele><time>2026-04-05T08:37:48.846Z</time></trkpt><trkpt lat="44.8464033" lon="7.9406333"><ele>343.7142857142857</ele><time>2026-04-05T08:37:49.846Z</time></trkpt><trkpt lat="44.84634" lon="7.9406933"><ele>344.0</ele><time>2026-04-05T08:37:50.846Z</time></trkpt><trkpt lat="44.8462583" lon="7.940745"><ele>344.0</ele><time>2026-04-05T08:37:51.846Z</time></trkpt><trkpt lat="44.8461583" lon="7.940785"><ele>344.0</ele><time>2026-04-05T08:37:52.846Z</time></trkpt><trkpt lat="44.846045" lon="7.9408467"><ele>344.0</ele><time>2026-04-05T08:37:53.846Z</time></trkpt><trkpt lat="44.8459283" lon="7.9409083"><ele>344.0</ele><time>2026-04-05T08:37:54.846Z</time></trkpt><trkpt lat="44.84582" lon="7.9409617"><ele>344.6</ele><time>2026-04-05T08:37:55.846Z</time></trkpt><trkpt lat="44.8457083" lon="7.94101"><ele>345.2</ele><time>2026-04-05T08:37:56.845Z</time></trkpt><trkpt lat="44.84561" lon="7.94104"><ele>345.8</ele><time>2026-04-05T08:37:57.846Z</time></trkpt><trkpt lat="44.8455217" lon="7.9410567"><ele>346.40000000000003</ele><time>2026-04-05T08:37:58.846Z</time></trkpt><trkpt lat="44.84543" lon="7.9410683"><ele>347.0</ele><time>2026-04-05T08:37:59.845Z</time></trkpt><trkpt lat="44.84534" lon="7.941065"><ele>347.0</ele><time>2026-04-05T08:38:00.846Z</time></trkpt><trkpt lat="44.8452533" lon="7.9410367"><ele>347.0</ele><time>2026-04-05T08:38:01.845Z</time></trkpt><trkpt lat="44.84516" lon="7.9409933"><ele>347.0</ele><time>2026-04-05T08:38:02.846Z</time></trkpt><trkpt lat="44.8450583" lon="7.9409583"><ele>347.0</ele><time>2026-04-05T08:38:03.845Z</time></trkpt><trkpt lat="44.8449683" lon="7.9409283"><ele>347.0</ele><time>2026-04-05T08:38:04.846Z</time></trkpt><trkpt lat="44.8448867" lon="7.9408733"><ele>347.5</ele><time>2026-04-05T08:38:05.846Z</time></trkpt><trkpt lat="44.8448117" lon="7.940825"><ele>348.0</ele><time>2026-04-05T08:38:06.845Z</time></trkpt><trkpt lat="44.8447383" lon="7.940795"><ele>348.5</ele><time>2026-04-05T08:38:07.846Z</time></trkpt><trkpt lat="44.8446617" lon="7.940765"><ele>349.0</ele><time>2026-04-05T08:38:08.846Z</time></trkpt><trkpt lat="44.84459" lon="7.940735"><ele>349.5</ele><time>2026-04-05T08:38:09.846Z</time></trkpt><trkpt lat="44.8445217" lon="7.94071"><ele>350.0</ele><time>2026-04-05T08:38:10.846Z</time></trkpt><trkpt lat="44.8444517" lon="7.94069"><ele>350.0</ele><time>2026-04-05T08:38:11.846Z</time></trkpt><trkpt lat="44.844375" lon="7.9406717"><ele>350.0</ele><time>2026-04-05T08:38:12.846Z</time></trkpt><trkpt lat="44.844295" lon="7.94066"><ele>350.0</ele><time>2026-04-05T08:38:13.846Z</time></trkpt><trkpt lat="44.8442067" lon="7.94064"><ele>350.0</ele><time>2026-04-05T08:38:14.846Z</time></trkpt><trkpt lat="44.8441217" lon="7.94062"><ele>350.0</ele><time>2026-04-05T08:38:15.845Z</time></trkpt><trkpt lat="44.84404" lon="7.9406033"><ele>350.0</ele><time>2026-04-05T08:38:16.846Z</time></trkpt><trkpt lat="44.8439633" lon="7.94058"><ele>349.83333333333337</ele><time>2026-04-05T08:38:17.846Z</time></trkpt><trkpt lat="44.84388" lon="7.9405567"><ele>349.6666666666667</ele><time>2026-04-05T08:38:18.846Z</time></trkpt><trkpt lat="44.8438" lon="7.94054"><ele>349.5</ele><time>2026-04-05T08:38:19.846Z</time></trkpt><trkpt lat="44.8437267" lon="7.940525"><ele>349.3333333333333</ele><time>2026-04-05T08:38:20.846Z</time></trkpt><trkpt lat="44.8436133" lon="7.9405"><ele>349.16666666666663</ele><time>2026-04-05T08:38:22.846Z</time></trkpt><trkpt lat="44.8435517" lon="7.9405267"><ele>349.0</ele><time>2026-04-05T08:38:24.845Z</time></trkpt><trkpt lat="44.8435167" lon="7.94065"><ele>349.0</ele><time>2026-04-05T08:38:26.846Z</time></trkpt><trkpt lat="44.843495" lon="7.9407367"><ele>349.0</ele><time>2026-04-05T08:38:27.846Z</time></trkpt><trkpt lat="44.8434617" lon="7.9408217"><ele>349.0</ele><time>2026-04-05T08:38:28.846Z</time></trkpt><trkpt lat="44.84342" lon="7.9409083"><ele>349.0</ele><time>2026-04-05T08:38:29.846Z</time></trkpt><trkpt lat="44.8433633" lon="7.9409883"><ele>349.0</ele><time>2026-04-05T08:38:30.846Z</time></trkpt><trkpt lat="44.8432933" lon="7.941065"><ele>349.0</ele><time>2026-04-05T08:38:31.845Z</time></trkpt><trkpt lat="44.8432117" lon="7.941135"><ele>349.2</ele><time>2026-04-05T08:38:32.846Z</time></trkpt><trkpt lat="44.8431233" lon="7.9411933"><ele>349.4</ele><time>2026-04-05T08:38:33.846Z</time></trkpt><trkpt lat="44.8430267" lon="7.9412633"><ele>349.6</ele><time>2026-04-05T08:38:34.846Z</time></trkpt><trkpt lat="44.842925" lon="7.9413367"><ele>349.8</ele><time>2026-04-05T08:38:35.846Z</time></trkpt><trkpt lat="44.842825" lon="7.94142"><ele>350.0</ele><time>2026-04-05T08:38:36.845Z</time></trkpt><trkpt lat="44.84272" lon="7.9415183"><ele>350.25</ele><time>2026-04-05T08:38:37.845Z</time></trkpt><trkpt lat="44.8426183" lon="7.9416217"><ele>350.5</ele><time>2026-04-05T08:38:38.846Z</time></trkpt><trkpt lat="44.842525" lon="7.9417283"><ele>350.75</ele><time>2026-04-05T08:38:39.846Z</time></trkpt><trkpt lat="44.8424433" lon="7.941825"><ele>351.0</ele><time>2026-04-05T08:38:40.846Z</time></trkpt><trkpt lat="44.8423567" lon="7.94192"><ele>350.0</ele><time>2026-04-05T08:38:41.846Z</time></trkpt><trkpt lat="44.842265" lon="7.9420017"><ele>349.0</ele><time>2026-04-05T08:38:42.846Z</time></trkpt><trkpt lat="44.8421717" lon="7.9420767"><ele>348.0</ele><time>2026-04-05T08:38:43.845Z</time></trkpt><trkpt lat="44.8420783" lon="7.9421267"><ele>347.0</ele><time>2026-04-05T08:38:44.845Z</time></trkpt><trkpt lat="44.8419917" lon="7.9421617"><ele>346.0</ele><time>2026-04-05T08:38:45.846Z</time></trkpt><trkpt lat="44.8419067" lon="7.9421917"><ele>346.0</ele><time>2026-04-05T08:38:46.846Z</time></trkpt><trkpt lat="44.841815" lon="7.9422283"><ele>346.0</ele><time>2026-04-05T08:38:47.846Z</time></trkpt><trkpt lat="44.8417217" lon="7.94229"><ele>346.0</ele><time>2026-04-05T08:38:48.846Z</time></trkpt><trkpt lat="44.841635" lon="7.9423917"><ele>346.0</ele><time>2026-04-05T08:38:49.846Z</time></trkpt><trkpt lat="44.8415733" lon="7.94252"><ele>346.0</ele><time>2026-04-05T08:38:50.845Z</time></trkpt><trkpt lat="44.8415233" lon="7.9426833"><ele>346.5</ele><time>2026-04-05T08:38:51.846Z</time></trkpt><trkpt lat="44.841475" lon="7.94285"><ele>347.0</ele><time>2026-04-05T08:38:52.846Z</time></trkpt><trkpt lat="44.8414233" lon="7.9430033"><ele>347.5</ele><time>2026-04-05T08:38:53.846Z</time></trkpt><trkpt lat="44.841345" lon="7.9431217"><ele>348.0</ele><time>2026-04-05T08:38:54.846Z</time></trkpt><trkpt lat="44.8412517" lon="7.9432133"><ele>348.0</ele><time>2026-04-05T08:38:55.846Z</time></trkpt><trkpt lat="44.8411317" lon="7.9432917"><ele>348.0</ele><time>2026-04-05T08:38:56.846Z</time></trkpt><trkpt lat="44.840995" lon="7.9433483"><ele>348.0</ele><time>2026-04-05T08:38:57.846Z</time></trkpt><trkpt lat="44.8408567" lon="7.94341"><ele>348.0</ele><time>2026-04-05T08:38:58.846Z</time></trkpt><trkpt lat="44.8407283" lon="7.9434833"><ele>348.0</ele><time>2026-04-05T08:38:59.846Z</time></trkpt><trkpt lat="44.8406217" lon="7.9435617"><ele>348.0</ele><time>2026-04-05T08:39:00.846Z</time></trkpt><trkpt lat="44.8405283" lon="7.9436567"><ele>348.0</ele><time>2026-04-05T08:39:01.846Z</time></trkpt><trkpt lat="44.8404533" lon="7.9437917"><ele>348.0</ele><time>2026-04-05T08:39:02.846Z</time></trkpt><trkpt lat="44.84038" lon="7.94395"><ele>348.0</ele><time>2026-04-05T08:39:03.846Z</time></trkpt><trkpt lat="44.8403133" lon="7.9441167"><ele>348.0</ele><time>2026-04-05T08:39:04.845Z</time></trkpt><trkpt lat="44.8402367" lon="7.94428"><ele>348.0</ele><time>2026-04-05T08:39:05.845Z</time></trkpt><trkpt lat="44.840155" lon="7.9444467"><ele>348.0</ele><time>2026-04-05T08:39:06.846Z</time></trkpt><trkpt lat="44.84007" lon="7.9446033"><ele>349.5</ele><time>2026-04-05T08:39:07.846Z</time></trkpt><trkpt lat="44.839985" lon="7.9447533"><ele>351.0</ele><time>2026-04-05T08:39:08.845Z</time></trkpt><trkpt lat="44.83991" lon="7.9448917"><ele>352.5</ele><time>2026-04-05T08:39:09.846Z</time></trkpt><trkpt lat="44.8398383" lon="7.9450333"><ele>354.0</ele><time>2026-04-05T08:39:10.846Z</time></trkpt><trkpt lat="44.8397633" lon="7.9451717"><ele>354.0</ele><time>2026-04-05T08:39:11.845Z</time></trkpt><trkpt lat="44.8396967" lon="7.945295"><ele>354.0</ele><time>2026-04-05T08:39:12.846Z</time></trkpt><trkpt lat="44.8396233" lon="7.9453967"><ele>354.0</ele><time>2026-04-05T08:39:13.846Z</time></trkpt><trkpt lat="44.839545" lon="7.94548"><ele>354.0</ele><time>2026-04-05T08:39:14.846Z</time></trkpt><trkpt lat="44.8394667" lon="7.9455367"><ele>354.0</ele><time>2026-04-05T08:39:15.846Z</time></trkpt><trkpt lat="44.8393833" lon="7.9455667"><ele>354.4</ele><time>2026-04-05T08:39:16.845Z</time></trkpt><trkpt lat="44.83929" lon="7.9455833"><ele>354.79999999999995</ele><time>2026-04-05T08:39:17.846Z</time></trkpt><trkpt lat="44.8391883" lon="7.945605"><ele>355.20000000000005</ele><time>2026-04-05T08:39:18.845Z</time></trkpt><trkpt lat="44.8390783" lon="7.9456633"><ele>355.6</ele><time>2026-04-05T08:39:19.846Z</time></trkpt><trkpt lat="44.8389717" lon="7.945755"><ele>356.0</ele><time>2026-04-05T08:39:20.846Z</time></trkpt><trkpt lat="44.838865" lon="7.945875"><ele>356.0</ele><time>2026-04-05T08:39:21.846Z</time></trkpt><trkpt lat="44.838755" lon="7.9460017"><ele>356.0</ele><time>2026-04-05T08:39:22.845Z</time></trkpt><trkpt lat="44.8386467" lon="7.9461367"><ele>356.0</ele><time>2026-04-05T08:39:23.846Z</time></trkpt><trkpt lat="44.8385467" lon="7.94627"><ele>356.0</ele><time>2026-04-05T08:39:24.846Z</time></trkpt><trkpt lat="44.8384483" lon="7.9464033"><ele>356.0</ele><time>2026-04-05T08:39:25.846Z</time></trkpt><trkpt lat="44.8383617" lon="7.9465267"><ele>356.0</ele><time>2026-04-05T08:39:26.846Z</time></trkpt><trkpt lat="44.838275" lon="7.9466467"><ele>356.0</ele><time>2026-04-05T08:39:27.846Z</time></trkpt><trkpt lat="44.838185" lon="7.9467917"><ele>356.0</ele><time>2026-04-05T08:39:28.846Z</time></trkpt><trkpt lat="44.8381117" lon="7.9469433"><ele>356.0</ele><time>2026-04-05T08:39:29.846Z</time></trkpt><trkpt lat="44.838055" lon="7.94709"><ele>356.0</ele><time>2026-04-05T08:39:30.845Z</time></trkpt><trkpt lat="44.838005" lon="7.9472467"><ele>356.0</ele><time>2026-04-05T08:39:31.846Z</time></trkpt><trkpt lat="44.8379783" lon="7.9474"><ele>356.0</ele><time>2026-04-05T08:39:32.845Z</time></trkpt><trkpt lat="44.83797" lon="7.9475667"><ele>356.0</ele><time>2026-04-05T08:39:33.846Z</time></trkpt><trkpt lat="44.8379733" lon="7.94775"><ele>356.0</ele><time>2026-04-05T08:39:34.846Z</time></trkpt><trkpt lat="44.8379983" lon="7.9479283"><ele>356.0</ele><time>2026-04-05T08:39:35.845Z</time></trkpt><trkpt lat="44.8380383" lon="7.9481"><ele>356.0</ele><time>2026-04-05T08:39:36.846Z</time></trkpt><trkpt lat="44.8380817" lon="7.9482533"><ele>356.75</ele><time>2026-04-05T08:39:37.846Z</time></trkpt><trkpt lat="44.838135" lon="7.948415"><ele>357.5</ele><time>2026-04-05T08:39:38.846Z</time></trkpt><trkpt lat="44.8381917" lon="7.948575"><ele>358.25</ele><time>2026-04-05T08:39:39.846Z</time></trkpt><trkpt lat="44.838245" lon="7.94873"><ele>359.0</ele><time>2026-04-05T08:39:40.846Z</time></trkpt><trkpt lat="44.8382967" lon="7.948875"><ele>359.0</ele><time>2026-04-05T08:39:41.846Z</time></trkpt><trkpt lat="44.8383483" lon="7.9490183"><ele>359.0</ele><time>2026-04-05T08:39:42.845Z</time></trkpt><trkpt lat="44.8384" lon="7.94917"><ele>359.0</ele><time>2026-04-05T08:39:43.846Z</time></trkpt><trkpt lat="44.83847" lon="7.9493167"><ele>359.0</ele><time>2026-04-05T08:39:44.846Z</time></trkpt><trkpt lat="44.8385433" lon="7.94946"><ele>359.5</ele><time>2026-04-05T08:39:45.846Z</time></trkpt><trkpt lat="44.838615" lon="7.9496083"><ele>360.0</ele><time>2026-04-05T08:39:46.846Z</time></trkpt><trkpt lat="44.8386817" lon="7.9497583"><ele>360.5</ele><time>2026-04-05T08:39:47.846Z</time></trkpt><trkpt lat="44.8387367" lon="7.9498933"><ele>361.0</ele><time>2026-04-05T08:39:48.846Z</time></trkpt><trkpt lat="44.8387817" lon="7.950025"><ele>360.20000000000005</ele><time>2026-04-05T08:39:49.846Z</time></trkpt><trkpt lat="44.8388267" lon="7.950155"><ele>359.40000000000003</ele><time>2026-04-05T08:39:50.846Z</time></trkpt><trkpt lat="44.83887" lon="7.9502933"><ele>358.6</ele><time>2026-04-05T08:39:51.846Z</time></trkpt><trkpt lat="44.8388967" lon="7.9504483"><ele>357.8</ele><time>2026-04-05T08:39:52.846Z</time></trkpt><trkpt lat="44.838915" lon="7.9506133"><ele>357.0</ele><time>2026-04-05T08:39:53.845Z</time></trkpt><trkpt lat="44.83893" lon="7.9507883"><ele>357.75</ele><time>2026-04-05T08:39:54.846Z</time></trkpt><trkpt lat="44.8389483" lon="7.950965"><ele>358.5</ele><time>2026-04-05T08:39:55.846Z</time></trkpt><trkpt lat="44.8389633" lon="7.951135"><ele>359.25</ele><time>2026-04-05T08:39:56.846Z</time></trkpt><trkpt lat="44.8390167" lon="7.9512967"><ele>360.0</ele><time>2026-04-05T08:39:57.845Z</time></trkpt><trkpt lat="44.8390933" lon="7.9514517"><ele>360.0</ele><time>2026-04-05T08:39:58.846Z</time></trkpt><trkpt lat="44.839185" lon="7.951585"><ele>360.0</ele><time>2026-04-05T08:39:59.846Z</time></trkpt><trkpt lat="44.83929" lon="7.9516983"><ele>360.0</ele><time>2026-04-05T08:40:00.846Z</time></trkpt><trkpt lat="44.8393767" lon="7.9518067"><ele>360.0</ele><time>2026-04-05T08:40:01.846Z</time></trkpt><trkpt lat="44.8394317" lon="7.9519217"><ele>360.75</ele><time>2026-04-05T08:40:02.846Z</time></trkpt><trkpt lat="44.83946" lon="7.95206"><ele>361.5</ele><time>2026-04-05T08:40:03.846Z</time></trkpt><trkpt lat="44.83947" lon="7.9522117"><ele>362.25</ele><time>2026-04-05T08:40:04.846Z</time></trkpt><trkpt lat="44.8394767" lon="7.952375"><ele>363.0</ele><time>2026-04-05T08:40:05.846Z</time></trkpt><trkpt lat="44.8394917" lon="7.952555"><ele>363.5</ele><time>2026-04-05T08:40:06.846Z</time></trkpt><trkpt lat="44.8395217" lon="7.9527383"><ele>364.0</ele><time>2026-04-05T08:40:07.846Z</time></trkpt><trkpt lat="44.8395683" lon="7.9529083"><ele>364.5</ele><time>2026-04-05T08:40:08.845Z</time></trkpt><trkpt lat="44.83963" lon="7.95306"><ele>365.0</ele><time>2026-04-05T08:40:09.846Z</time></trkpt><trkpt lat="44.8396883" lon="7.95319"><ele>365.0</ele><time>2026-04-05T08:40:10.846Z</time></trkpt><trkpt lat="44.83975" lon="7.9533033"><ele>365.0</ele><time>2026-04-05T08:40:11.846Z</time></trkpt><trkpt lat="44.839805" lon="7.9534067"><ele>365.0</ele><time>2026-04-05T08:40:12.845Z</time></trkpt><trkpt lat="44.83985" lon="7.9534883"><ele>365.0</ele><time>2026-04-05T08:40:13.846Z</time></trkpt><trkpt lat="44.83988" lon="7.9536417"><ele>365.0</ele><time>2026-04-05T08:40:15.846Z</time></trkpt><trkpt lat="44.83979" lon="7.9537983"><ele>365.25</ele><time>2026-04-05T08:40:17.846Z</time></trkpt><trkpt lat="44.839715" lon="7.9538817"><ele>365.5</ele><time>2026-04-05T08:40:18.846Z</time></trkpt><trkpt lat="44.8396233" lon="7.95398"><ele>365.75</ele><time>2026-04-05T08:40:19.846Z</time></trkpt><trkpt lat="44.8395217" lon="7.9540883"><ele>366.0</ele><time>2026-04-05T08:40:20.846Z</time></trkpt><trkpt lat="44.8394133" lon="7.9542083"><ele>366.0</ele><time>2026-04-05T08:40:21.846Z</time></trkpt><trkpt lat="44.8393017" lon="7.9543383"><ele>366.0</ele><time>2026-04-05T08:40:22.845Z</time></trkpt><trkpt lat="44.839195" lon="7.9544567"><ele>366.0</ele><time>2026-04-05T08:40:23.846Z</time></trkpt><trkpt lat="44.8390783" lon="7.9545867"><ele>366.0</ele><time>2026-04-05T08:40:24.846Z</time></trkpt><trkpt lat="44.838965" lon="7.95472"><ele>366.25</ele><time>2026-04-05T08:40:25.845Z</time></trkpt><trkpt lat="44.838855" lon="7.9548567"><ele>366.5</ele><time>2026-04-05T08:40:26.846Z</time></trkpt><trkpt lat="44.8387517" lon="7.954995"><ele>366.75</ele><time>2026-04-05T08:40:27.846Z</time></trkpt><trkpt lat="44.8386517" lon="7.95514"><ele>367.0</ele><time>2026-04-05T08:40:28.846Z</time></trkpt><trkpt lat="44.8385517" lon="7.9552817"><ele>366.75</ele><time>2026-04-05T08:40:29.846Z</time></trkpt><trkpt lat="44.8384517" lon="7.9554133"><ele>366.5</ele><time>2026-04-05T08:40:30.846Z</time></trkpt><trkpt lat="44.8383533" lon="7.9555483"><ele>366.25</ele><time>2026-04-05T08:40:31.846Z</time></trkpt><trkpt lat="44.838255" lon="7.9556817"><ele>366.0</ele><time>2026-04-05T08:40:32.845Z</time></trkpt><trkpt lat="44.8381567" lon="7.9558183"><ele>364.5</ele><time>2026-04-05T08:40:33.846Z</time></trkpt><trkpt lat="44.8380633" lon="7.9559317"><ele>363.0</ele><time>2026-04-05T08:40:34.846Z</time></trkpt><trkpt lat="44.8379717" lon="7.9560417"><ele>361.5</ele><time>2026-04-05T08:40:35.846Z</time></trkpt><trkpt lat="44.8378683" lon="7.9561283"><ele>360.0</ele><time>2026-04-05T08:40:36.846Z</time></trkpt><trkpt lat="44.8377633" lon="7.9561883"><ele>360.0</ele><time>2026-04-05T08:40:37.846Z</time></trkpt><trkpt lat="44.83766" lon="7.956235"><ele>360.0</ele><time>2026-04-05T08:40:38.846Z</time></trkpt><trkpt lat="44.837555" lon="7.9562467"><ele>360.0</ele><time>2026-04-05T08:40:39.846Z</time></trkpt><trkpt lat="44.837445" lon="7.9562367"><ele>360.0</ele><time>2026-04-05T08:40:40.846Z</time></trkpt><trkpt lat="44.8373367" lon="7.9562317"><ele>360.0</ele><time>2026-04-05T08:40:41.846Z</time></trkpt><trkpt lat="44.8372233" lon="7.9562183"><ele>360.4</ele><time>2026-04-05T08:40:42.846Z</time></trkpt><trkpt lat="44.8371083" lon="7.9562233"><ele>360.8</ele><time>2026-04-05T08:40:43.845Z</time></trkpt><trkpt lat="44.836995" lon="7.956225"><ele>361.20000000000005</ele><time>2026-04-05T08:40:44.846Z</time></trkpt><trkpt lat="44.8368917" lon="7.9562217"><ele>361.6</ele><time>2026-04-05T08:40:45.846Z</time></trkpt><trkpt lat="44.8368083" lon="7.95621"><ele>362.0</ele><time>2026-04-05T08:40:46.846Z</time></trkpt><trkpt lat="44.8367267" lon="7.9562017"><ele>360.83333333333337</ele><time>2026-04-05T08:40:47.845Z</time></trkpt><trkpt lat="44.836655" lon="7.9561683"><ele>359.6666666666667</ele><time>2026-04-05T08:40:48.846Z</time></trkpt><trkpt lat="44.8365883" lon="7.9561533"><ele>358.5</ele><time>2026-04-05T08:40:49.846Z</time></trkpt><trkpt lat="44.8365217" lon="7.9561783"><ele>357.3333333333333</ele><time>2026-04-05T08:40:50.846Z</time></trkpt><trkpt lat="44.8364483" lon="7.9562267"><ele>356.16666666666663</ele><time>2026-04-05T08:40:51.846Z</time></trkpt><trkpt lat="44.8363617" lon="7.956275"><ele>355.0</ele><time>2026-04-05T08:40:52.846Z</time></trkpt><trkpt lat="44.8362617" lon="7.9562983"><ele>355.0</ele><time>2026-04-05T08:40:53.845Z</time></trkpt><trkpt lat="44.8361567" lon="7.9563133"><ele>355.0</ele><time>2026-04-05T08:40:54.846Z</time></trkpt><trkpt lat="44.8360517" lon="7.9563333"><ele>355.0</ele><time>2026-04-05T08:40:55.846Z</time></trkpt><trkpt lat="44.835945" lon="7.9563383"><ele>355.0</ele><time>2026-04-05T08:40:56.846Z</time></trkpt><trkpt lat="44.83583" lon="7.9563517"><ele>355.0</ele><time>2026-04-05T08:40:57.846Z</time></trkpt><trkpt lat="44.8357183" lon="7.956365"><ele>354.2</ele><time>2026-04-05T08:40:58.845Z</time></trkpt><trkpt lat="44.835605" lon="7.9563717"><ele>353.4</ele><time>2026-04-05T08:40:59.846Z</time></trkpt><trkpt lat="44.8354933" lon="7.9563783"><ele>352.6</ele><time>2026-04-05T08:41:00.846Z</time></trkpt><trkpt lat="44.8353867" lon="7.956405"><ele>351.8</ele><time>2026-04-05T08:41:01.846Z</time></trkpt><trkpt lat="44.83528" lon="7.9564583"><ele>351.0</ele><time>2026-04-05T08:41:02.845Z</time></trkpt><trkpt lat="44.8351717" lon="7.9565317"><ele>351.75</ele><time>2026-04-05T08:41:03.846Z</time></trkpt><trkpt lat="44.8350533" lon="7.95662"><ele>352.5</ele><time>2026-04-05T08:41:04.846Z</time></trkpt><trkpt lat="44.834935" lon="7.9567083"><ele>353.25</ele><time>2026-04-05T08:41:05.846Z</time></trkpt><trkpt lat="44.8348217" lon="7.9568117"><ele>354.0</ele><time>2026-04-05T08:41:06.846Z</time></trkpt><trkpt lat="44.8347117" lon="7.956925"><ele>350.75</ele><time>2026-04-05T08:41:07.846Z</time></trkpt><trkpt lat="44.8346167" lon="7.9570417"><ele>347.5</ele><time>2026-04-05T08:41:08.846Z</time></trkpt><trkpt lat="44.834525" lon="7.95718"><ele>344.25</ele><time>2026-04-05T08:41:09.846Z</time></trkpt><trkpt lat="44.83444" lon="7.9573383"><ele>341.0</ele><time>2026-04-05T08:41:10.845Z</time></trkpt><trkpt lat="44.83437" lon="7.9575067"><ele>343.25</ele><time>2026-04-05T08:41:11.846Z</time></trkpt><trkpt lat="44.83431" lon="7.9576767"><ele>345.5</ele><time>2026-04-05T08:41:12.846Z</time></trkpt><trkpt lat="44.8342533" lon="7.95784"><ele>347.75</ele><time>2026-04-05T08:41:13.846Z</time></trkpt><trkpt lat="44.83418" lon="7.958"><ele>350.0</ele><time>2026-04-05T08:41:14.846Z</time></trkpt><trkpt lat="44.8341" lon="7.95815"><ele>350.0</ele><time>2026-04-05T08:41:15.846Z</time></trkpt><trkpt lat="44.8340033" lon="7.958295"><ele>350.0</ele><time>2026-04-05T08:41:16.845Z</time></trkpt><trkpt lat="44.8339183" lon="7.9584233"><ele>350.0</ele><time>2026-04-05T08:41:17.845Z</time></trkpt><trkpt lat="44.833845" lon="7.9585433"><ele>350.0</ele><time>2026-04-05T08:41:18.846Z</time></trkpt><trkpt lat="44.83378" lon="7.958675"><ele>349.4</ele><time>2026-04-05T08:41:19.846Z</time></trkpt><trkpt lat="44.8337183" lon="7.9588083"><ele>348.8</ele><time>2026-04-05T08:41:20.846Z</time></trkpt><trkpt lat="44.8336583" lon="7.958935"><ele>348.20000000000005</ele><time>2026-04-05T08:41:21.846Z</time></trkpt><trkpt lat="44.8336" lon="7.95907"><ele>347.6</ele><time>2026-04-05T08:41:22.846Z</time></trkpt><trkpt lat="44.8335383" lon="7.959205"><ele>347.0</ele><time>2026-04-05T08:41:23.846Z</time></trkpt><trkpt lat="44.8334733" lon="7.95934"><ele>346.8</ele><time>2026-04-05T08:41:24.846Z</time></trkpt><trkpt lat="44.8334183" lon="7.9594783"><ele>346.6</ele><time>2026-04-05T08:41:25.846Z</time></trkpt><trkpt lat="44.8333667" lon="7.959595"><ele>346.40000000000003</ele><time>2026-04-05T08:41:26.846Z</time></trkpt><trkpt lat="44.8333133" lon="7.9597133"><ele>346.20000000000005</ele><time>2026-04-05T08:41:27.846Z</time></trkpt><trkpt lat="44.833265" lon="7.959815"><ele>346.0</ele><time>2026-04-05T08:41:28.846Z</time></trkpt><trkpt lat="44.83322" lon="7.95991"><ele>346.0</ele><time>2026-04-05T08:41:29.846Z</time></trkpt><trkpt lat="44.833185" lon="7.9599867"><ele>346.0</ele><time>2026-04-05T08:41:30.846Z</time></trkpt><trkpt lat="44.8331117" lon="7.9600983"><ele>346.0</ele><time>2026-04-05T08:41:32.846Z</time></trkpt><trkpt lat="44.8330133" lon="7.96014"><ele>346.0</ele><time>2026-04-05T08:41:34.846Z</time></trkpt><trkpt lat="44.8329433" lon="7.9601483"><ele>346.0</ele><time>2026-04-05T08:41:35.846Z</time></trkpt><trkpt lat="44.8328683" lon="7.96018"><ele>346.0</ele><time>2026-04-05T08:41:36.846Z</time></trkpt><trkpt lat="44.832795" lon="7.9602267"><ele>346.0</ele><time>2026-04-05T08:41:37.846Z</time></trkpt><trkpt lat="44.83272" lon="7.9602783"><ele>346.0</ele><time>2026-04-05T08:41:38.846Z</time></trkpt><trkpt lat="44.8326383" lon="7.96034"><ele>346.0</ele><time>2026-04-05T08:41:39.846Z</time></trkpt><trkpt lat="44.83257" lon="7.960405"><ele>346.0</ele><time>2026-04-05T08:41:40.846Z</time></trkpt><trkpt lat="44.8325133" lon="7.9604917"><ele>346.0</ele><time>2026-04-05T08:41:41.846Z</time></trkpt><trkpt lat="44.8324633" lon="7.9605867"><ele>346.0</ele><time>2026-04-05T08:41:42.846Z</time></trkpt><trkpt lat="44.8324117" lon="7.96069"><ele>346.0</ele><time>2026-04-05T08:41:43.846Z</time></trkpt><trkpt lat="44.832365" lon="7.9608017"><ele>346.0</ele><time>2026-04-05T08:41:44.846Z</time></trkpt><trkpt lat="44.8323283" lon="7.9609"><ele>346.0</ele><time>2026-04-05T08:41:45.846Z</time></trkpt><trkpt lat="44.832295" lon="7.9610233"><ele>346.0</ele><time>2026-04-05T08:41:46.846Z</time></trkpt><trkpt lat="44.832265" lon="7.96115"><ele>346.0</ele><time>2026-04-05T08:41:47.845Z</time></trkpt><trkpt lat="44.8322433" lon="7.9612733"><ele>346.0</ele><time>2026-04-05T08:41:48.845Z</time></trkpt><trkpt lat="44.8322233" lon="7.9613933"><ele>346.0</ele><time>2026-04-05T08:41:49.846Z</time></trkpt><trkpt lat="44.8322017" lon="7.9615217"><ele>346.0</ele><time>2026-04-05T08:41:50.846Z</time></trkpt><trkpt lat="44.8321783" lon="7.9616583"><ele>346.0</ele><time>2026-04-05T08:41:51.846Z</time></trkpt><trkpt lat="44.8321533" lon="7.9618067"><ele>346.0</ele><time>2026-04-05T08:41:52.846Z</time></trkpt><trkpt lat="44.8321267" lon="7.9619517"><ele>346.0</ele><time>2026-04-05T08:41:53.846Z</time></trkpt><trkpt lat="44.8321" lon="7.96209"><ele>346.0</ele><time>2026-04-05T08:41:54.846Z</time></trkpt><trkpt lat="44.8320733" lon="7.9622267"><ele>346.0</ele><time>2026-04-05T08:41:55.846Z</time></trkpt><trkpt lat="44.8320467" lon="7.9623783"><ele>346.0</ele><time>2026-04-05T08:41:56.846Z</time></trkpt><trkpt lat="44.8320267" lon="7.962525"><ele>346.0</ele><time>2026-04-05T08:41:57.846Z</time></trkpt><trkpt lat="44.83201" lon="7.9626683"><ele>346.0</ele><time>2026-04-05T08:41:58.845Z</time></trkpt><trkpt lat="44.8319933" lon="7.962815"><ele>346.0</ele><time>2026-04-05T08:41:59.846Z</time></trkpt><trkpt lat="44.8319733" lon="7.9629483"><ele>346.0</ele><time>2026-04-05T08:42:00.846Z</time></trkpt><trkpt lat="44.8319433" lon="7.9630817"><ele>346.0</ele><time>2026-04-05T08:42:01.846Z</time></trkpt><trkpt lat="44.8319067" lon="7.96322"><ele>346.0</ele><time>2026-04-05T08:42:02.846Z</time></trkpt><trkpt lat="44.8318617" lon="7.9633517"><ele>346.0</ele><time>2026-04-05T08:42:03.846Z</time></trkpt><trkpt lat="44.8318167" lon="7.9634717"><ele>347.1428571428571</ele><time>2026-04-05T08:42:04.845Z</time></trkpt><trkpt lat="44.83177" lon="7.96358"><ele>348.28571428571433</ele><time>2026-04-05T08:42:05.846Z</time></trkpt><trkpt lat="44.8317233" lon="7.9636767"><ele>349.42857142857144</ele><time>2026-04-05T08:42:06.846Z</time></trkpt><trkpt lat="44.8316817" lon="7.963765"><ele>350.57142857142856</ele><time>2026-04-05T08:42:07.846Z</time></trkpt><trkpt lat="44.8316417" lon="7.9638383"><ele>351.71428571428567</ele><time>2026-04-05T08:42:08.846Z</time></trkpt><trkpt lat="44.8315983" lon="7.96392"><ele>352.8571428571429</ele><time>2026-04-05T08:42:09.846Z</time></trkpt><trkpt lat="44.8315733" lon="7.9640017"><ele>354.0</ele><time>2026-04-05T08:42:10.846Z</time></trkpt><trkpt lat="44.8315567" lon="7.96411"><ele>354.0</ele><time>2026-04-05T08:42:11.846Z</time></trkpt><trkpt lat="44.831535" lon="7.9642167"><ele>354.0</ele><time>2026-04-05T08:42:12.846Z</time></trkpt><trkpt lat="44.8315067" lon="7.9643367"><ele>354.0</ele><time>2026-04-05T08:42:13.846Z</time></trkpt><trkpt lat="44.8314817" lon="7.9644517"><ele>354.0</ele><time>2026-04-05T08:42:14.845Z</time></trkpt><trkpt lat="44.8314683" lon="7.9645767"><ele>354.0</ele><time>2026-04-05T08:42:15.846Z</time></trkpt><trkpt lat="44.8314667" lon="7.9646833"><ele>354.0</ele><time>2026-04-05T08:42:16.846Z</time></trkpt><trkpt lat="44.8314817" lon="7.9647983"><ele>354.0</ele><time>2026-04-05T08:42:17.846Z</time></trkpt><trkpt lat="44.8315033" lon="7.9649"><ele>354.0</ele><time>2026-04-05T08:42:18.846Z</time></trkpt><trkpt lat="44.8315317" lon="7.9650133"><ele>354.0</ele><time>2026-04-05T08:42:19.846Z</time></trkpt><trkpt lat="44.8315717" lon="7.9651283"><ele>354.0</ele><time>2026-04-05T08:42:20.846Z</time></trkpt><trkpt lat="44.83161" lon="7.9652467"><ele>354.0</ele><time>2026-04-05T08:42:21.846Z</time></trkpt><trkpt lat="44.8316233" lon="7.9653683"><ele>354.0</ele><time>2026-04-05T08:42:22.846Z</time></trkpt><trkpt lat="44.8316383" lon="7.965485"><ele>354.0</ele><time>2026-04-05T08:42:23.846Z</time></trkpt><trkpt lat="44.8316517" lon="7.9656083"><ele>354.0</ele><time>2026-04-05T08:42:24.846Z</time></trkpt><trkpt lat="44.8316567" lon="7.9657267"><ele>354.0</ele><time>2026-04-05T08:42:25.846Z</time></trkpt><trkpt lat="44.8316617" lon="7.9658517"><ele>354.0</ele><time>2026-04-05T08:42:26.846Z</time></trkpt><trkpt lat="44.8316617" lon="7.9659717"><ele>354.0</ele><time>2026-04-05T08:42:27.846Z</time></trkpt><trkpt lat="44.83166" lon="7.966095"><ele>354.0</ele><time>2026-04-05T08:42:28.846Z</time></trkpt><trkpt lat="44.8316517" lon="7.966215"><ele>353.5</ele><time>2026-04-05T08:42:29.846Z</time></trkpt><trkpt lat="44.83165" lon="7.9663367"><ele>353.0</ele><time>2026-04-05T08:42:30.846Z</time></trkpt><trkpt lat="44.8316517" lon="7.96646"><ele>352.5</ele><time>2026-04-05T08:42:31.846Z</time></trkpt><trkpt lat="44.83164" lon="7.9665717"><ele>352.0</ele><time>2026-04-05T08:42:32.846Z</time></trkpt><trkpt lat="44.8316267" lon="7.96669"><ele>351.5</ele><time>2026-04-05T08:42:33.846Z</time></trkpt><trkpt lat="44.83162" lon="7.9668133"><ele>351.0</ele><time>2026-04-05T08:42:34.846Z</time></trkpt><trkpt lat="44.8316033" lon="7.9669283"><ele>350.1666666666667</ele><time>2026-04-05T08:42:35.846Z</time></trkpt><trkpt lat="44.8315833" lon="7.96704"><ele>349.3333333333333</ele><time>2026-04-05T08:42:36.846Z</time></trkpt><trkpt lat="44.831545" lon="7.9671367"><ele>348.5</ele><time>2026-04-05T08:42:37.846Z</time></trkpt><trkpt lat="44.831485" lon="7.9672183"><ele>347.66666666666663</ele><time>2026-04-05T08:42:38.846Z</time></trkpt><trkpt lat="44.8314217" lon="7.96729"><ele>346.8333333333333</ele><time>2026-04-05T08:42:39.846Z</time></trkpt><trkpt lat="44.8313567" lon="7.9673633"><ele>346.0</ele><time>2026-04-05T08:42:40.846Z</time></trkpt><trkpt lat="44.8313017" lon="7.9674517"><ele>346.3333333333333</ele><time>2026-04-05T08:42:41.846Z</time></trkpt><trkpt lat="44.8312567" lon="7.9675467"><ele>346.66666666666663</ele><time>2026-04-05T08:42:42.846Z</time></trkpt><trkpt lat="44.8312167" lon="7.9676533"><ele>347.0</ele><time>2026-04-05T08:42:43.846Z</time></trkpt><trkpt lat="44.8311767" lon="7.9677667"><ele>347.3333333333333</ele><time>2026-04-05T08:42:44.846Z</time></trkpt><trkpt lat="44.831135" lon="7.96787"><ele>347.6666666666667</ele><time>2026-04-05T08:42:45.846Z</time></trkpt><trkpt lat="44.8310917" lon="7.9679517"><ele>348.0</ele><time>2026-04-05T08:42:46.846Z</time></trkpt><trkpt lat="44.831015" lon="7.9680633"><ele>348.0</ele><time>2026-04-05T08:42:48.846Z</time></trkpt><trkpt lat="44.8309767" lon="7.968135"><ele>348.0</ele><time>2026-04-05T08:42:50.846Z</time></trkpt><trkpt lat="44.83101" lon="7.9682333"><ele>348.0</ele><time>2026-04-05T08:42:53.845Z</time></trkpt><trkpt lat="44.8310733" lon="7.9683483"><ele>348.0</ele><time>2026-04-05T08:42:55.846Z</time></trkpt><trkpt lat="44.831105" lon="7.9684267"><ele>348.0</ele><time>2026-04-05T08:42:56.845Z</time></trkpt><trkpt lat="44.8311433" lon="7.968515"><ele>348.0</ele><time>2026-04-05T08:42:57.845Z</time></trkpt><trkpt lat="44.831225" lon="7.9686383"><ele>350.5</ele><time>2026-04-05T08:42:59.846Z</time></trkpt><trkpt lat="44.8313367" lon="7.968675"><ele>353.0</ele><time>2026-04-05T08:43:01.846Z</time></trkpt><trkpt lat="44.83146" lon="7.968695"><ele>355.5</ele><time>2026-04-05T08:43:03.846Z</time></trkpt><trkpt lat="44.8315317" lon="7.9687017"><ele>358.0</ele><time>2026-04-05T08:43:04.846Z</time></trkpt><trkpt lat="44.831595" lon="7.9687167"><ele>360.5</ele><time>2026-04-05T08:43:05.845Z</time></trkpt><trkpt lat="44.8316567" lon="7.9687417"><ele>363.0</ele><time>2026-04-05T08:43:06.846Z</time></trkpt><trkpt lat="44.8317383" lon="7.9688283"><ele>363.0</ele><time>2026-04-05T08:43:08.846Z</time></trkpt><trkpt lat="44.8317933" lon="7.9689967"><ele>363.0</ele><time>2026-04-05T08:43:10.846Z</time></trkpt><trkpt lat="44.83182" lon="7.9691033"><ele>363.0</ele><time>2026-04-05T08:43:11.846Z</time></trkpt><trkpt lat="44.8318483" lon="7.9692"><ele>363.0</ele><time>2026-04-05T08:43:12.846Z</time></trkpt><trkpt lat="44.8318933" lon="7.9692767"><ele>363.0</ele><time>2026-04-05T08:43:13.846Z</time></trkpt><trkpt lat="44.83196" lon="7.9693333"><ele>363.0</ele><time>2026-04-05T08:43:14.846Z</time></trkpt><trkpt lat="44.8320283" lon="7.969385"><ele>361.0</ele><time>2026-04-05T08:43:15.846Z</time></trkpt><trkpt lat="44.8321" lon="7.96943"><ele>359.0</ele><time>2026-04-05T08:43:16.846Z</time></trkpt><trkpt lat="44.8321667" lon="7.96946"><ele>357.0</ele><time>2026-04-05T08:43:17.846Z</time></trkpt><trkpt lat="44.8322883" lon="7.9695033"><ele>355.0</ele><time>2026-04-05T08:43:19.846Z</time></trkpt><trkpt lat="44.832355" lon="7.9695017"><ele>353.0</ele><time>2026-04-05T08:43:20.846Z</time></trkpt><trkpt lat="44.83243" lon="7.9694833"><ele>351.0</ele><time>2026-04-05T08:43:21.846Z</time></trkpt><trkpt lat="44.8325083" lon="7.969475"><ele>351.00000000000006</ele><time>2026-04-05T08:43:22.846Z</time></trkpt><trkpt lat="44.8325783" lon="7.9694767"><ele>351.0</ele><time>2026-04-05T08:43:23.845Z</time></trkpt><trkpt lat="44.8326517" lon="7.9694883"><ele>351.0</ele><time>2026-04-05T08:43:24.846Z</time></trkpt><trkpt lat="44.8327233" lon="7.9695133"><ele>351.0</ele><time>2026-04-05T08:43:25.846Z</time></trkpt><trkpt lat="44.83279" lon="7.9695367"><ele>351.0</ele><time>2026-04-05T08:43:26.846Z</time></trkpt><trkpt lat="44.832855" lon="7.969565"><ele>351.00000000000006</ele><time>2026-04-05T08:43:27.846Z</time></trkpt><trkpt lat="44.83292" lon="7.9695917"><ele>351.0</ele><time>2026-04-05T08:43:28.846Z</time></trkpt><trkpt lat="44.8329833" lon="7.969615"><ele>350.0</ele><time>2026-04-05T08:43:29.846Z</time></trkpt><trkpt lat="44.8331" lon="7.9696533"><ele>349.0</ele><time>2026-04-05T08:43:31.846Z</time></trkpt><trkpt lat="44.8332167" lon="7.9696767"><ele>348.0</ele><time>2026-04-05T08:43:33.846Z</time></trkpt><trkpt lat="44.8333417" lon="7.9696783"><ele>347.0</ele><time>2026-04-05T08:43:35.846Z</time></trkpt><trkpt lat="44.8334033" lon="7.9696567"><ele>346.0</ele><time>2026-04-05T08:43:36.846Z</time></trkpt><trkpt lat="44.8334667" lon="7.9696267"><ele>344.0</ele><time>2026-04-05T08:43:37.846Z</time></trkpt><trkpt lat="44.8335333" lon="7.9695883"><ele>342.0</ele><time>2026-04-05T08:43:38.846Z</time></trkpt><trkpt lat="44.8335967" lon="7.969545"><ele>340.0</ele><time>2026-04-05T08:43:39.845Z</time></trkpt><trkpt lat="44.8336983" lon="7.96947"><ele>338.0</ele><time>2026-04-05T08:43:41.846Z</time></trkpt><trkpt lat="44.83376" lon="7.9694467"><ele>336.0</ele><time>2026-04-05T08:43:42.846Z</time></trkpt><trkpt lat="44.8338817" lon="7.96944"><ele>334.0</ele><time>2026-04-05T08:43:44.846Z</time></trkpt><trkpt lat="44.8339467" lon="7.96944"><ele>334.0</ele><time>2026-04-05T08:43:45.846Z</time></trkpt><trkpt lat="44.83406" lon="7.9694333"><ele>334.0</ele><time>2026-04-05T08:43:47.846Z</time></trkpt><trkpt lat="44.8341567" lon="7.969395"><ele>334.0</ele><time>2026-04-05T08:43:49.846Z</time></trkpt><trkpt lat="44.8342767" lon="7.9693567"><ele>334.0</ele><time>2026-04-05T08:43:51.846Z</time></trkpt><trkpt lat="44.834345" lon="7.9693433"><ele>334.0</ele><time>2026-04-05T08:43:52.845Z</time></trkpt><trkpt lat="44.83442" lon="7.9693533"><ele>332.0</ele><time>2026-04-05T08:43:53.846Z</time></trkpt><trkpt lat="44.8344917" lon="7.9693633"><ele>330.0</ele><time>2026-04-05T08:43:54.845Z</time></trkpt><trkpt lat="44.8345633" lon="7.9693717"><ele>328.0</ele><time>2026-04-05T08:43:55.845Z</time></trkpt><trkpt lat="44.8346283" lon="7.96938"><ele>326.0</ele><time>2026-04-05T08:43:56.846Z</time></trkpt><trkpt lat="44.8347383" lon="7.96937"><ele>324.0</ele><time>2026-04-05T08:43:58.846Z</time></trkpt><trkpt lat="44.8348533" lon="7.9693317"><ele>322.0</ele><time>2026-04-05T08:44:00.845Z</time></trkpt><trkpt lat="44.8349167" lon="7.96932"><ele>322.0</ele><time>2026-04-05T08:44:01.845Z</time></trkpt><trkpt lat="44.8349883" lon="7.9693283"><ele>322.0</ele><time>2026-04-05T08:44:02.845Z</time></trkpt><trkpt lat="44.835065" lon="7.969365"><ele>322.0</ele><time>2026-04-05T08:44:03.846Z</time></trkpt><trkpt lat="44.8351517" lon="7.9694117"><ele>322.0</ele><time>2026-04-05T08:44:04.846Z</time></trkpt><trkpt lat="44.8352283" lon="7.9694417"><ele>322.0</ele><time>2026-04-05T08:44:05.846Z</time></trkpt><trkpt lat="44.8353033" lon="7.9694667"><ele>322.0</ele><time>2026-04-05T08:44:06.846Z</time></trkpt><trkpt lat="44.8353683" lon="7.969475"><ele>320.5</ele><time>2026-04-05T08:44:07.845Z</time></trkpt><trkpt lat="44.8354333" lon="7.9694783"><ele>319.0</ele><time>2026-04-05T08:44:08.846Z</time></trkpt><trkpt lat="44.83556" lon="7.969435"><ele>317.5</ele><time>2026-04-05T08:44:10.846Z</time></trkpt><trkpt lat="44.835675" lon="7.96939"><ele>316.0</ele><time>2026-04-05T08:44:12.845Z</time></trkpt><trkpt lat="44.8357367" lon="7.96937"><ele>314.5</ele><time>2026-04-05T08:44:13.846Z</time></trkpt><trkpt lat="44.835805" lon="7.9693467"><ele>313.0</ele><time>2026-04-05T08:44:14.845Z</time></trkpt><trkpt lat="44.83587" lon="7.969325"><ele>313.0</ele><time>2026-04-05T08:44:15.845Z</time></trkpt><trkpt lat="44.8359333" lon="7.9693033"><ele>313.0</ele><time>2026-04-05T08:44:16.845Z</time></trkpt><trkpt lat="44.8359967" lon="7.9692783"><ele>313.0</ele><time>2026-04-05T08:44:17.846Z</time></trkpt><trkpt lat="44.8361083" lon="7.9692267"><ele>313.0</ele><time>2026-04-05T08:44:19.845Z</time></trkpt><trkpt lat="44.836225" lon="7.969185"><ele>313.0</ele><time>2026-04-05T08:44:21.846Z</time></trkpt><trkpt lat="44.8362917" lon="7.96916"><ele>313.0</ele><time>2026-04-05T08:44:22.845Z</time></trkpt><trkpt lat="44.8364" lon="7.969105"><ele>311.4</ele><time>2026-04-05T08:44:24.846Z</time></trkpt><trkpt lat="44.8365033" lon="7.9690333"><ele>309.8</ele><time>2026-04-05T08:44:26.846Z</time></trkpt><trkpt lat="44.8365767" lon="7.96902"><ele>308.2</ele><time>2026-04-05T08:44:28.846Z</time></trkpt><trkpt lat="44.836635" lon="7.9690817"><ele>306.6</ele><time>2026-04-05T08:44:30.846Z</time></trkpt><trkpt lat="44.8367133" lon="7.9691617"><ele>305.0</ele><time>2026-04-05T08:44:32.846Z</time></trkpt><trkpt lat="44.8368067" lon="7.9692067"><ele>302.5</ele><time>2026-04-05T08:44:34.846Z</time></trkpt><trkpt lat="44.8369367" lon="7.9691933"><ele>300.0</ele><time>2026-04-05T08:44:36.846Z</time></trkpt><trkpt lat="44.837005" lon="7.969185"><ele>297.5</ele><time>2026-04-05T08:44:37.845Z</time></trkpt><trkpt lat="44.8370767" lon="7.9691667"><ele>295.0</ele><time>2026-04-05T08:44:38.846Z</time></trkpt><trkpt lat="44.8371417" lon="7.9691333"><ele>292.5</ele><time>2026-04-05T08:44:39.846Z</time></trkpt><trkpt lat="44.83721" lon="7.9691017"><ele>290.0</ele><time>2026-04-05T08:44:40.845Z</time></trkpt><trkpt lat="44.8372833" lon="7.969065"><ele>290.0</ele><time>2026-04-05T08:44:41.846Z</time></trkpt><trkpt lat="44.8373583" lon="7.9690133"><ele>290.0</ele><time>2026-04-05T08:44:42.846Z</time></trkpt><trkpt lat="44.8374333" lon="7.9689683"><ele>290.0</ele><time>2026-04-05T08:44:43.846Z</time></trkpt><trkpt lat="44.83751" lon="7.96891"><ele>290.0</ele><time>2026-04-05T08:44:44.846Z</time></trkpt><trkpt lat="44.8375933" lon="7.96885"><ele>290.0</ele><time>2026-04-05T08:44:45.846Z</time></trkpt><trkpt lat="44.8376817" lon="7.96878"><ele>290.0</ele><time>2026-04-05T08:44:46.846Z</time></trkpt><trkpt lat="44.83777" lon="7.9687117"><ele>288.33333333333337</ele><time>2026-04-05T08:44:47.846Z</time></trkpt><trkpt lat="44.8378417" lon="7.9686683"><ele>286.6666666666667</ele><time>2026-04-05T08:44:48.845Z</time></trkpt><trkpt lat="44.837915" lon="7.9686367"><ele>285.0</ele><time>2026-04-05T08:44:49.846Z</time></trkpt><trkpt lat="44.8379783" lon="7.96861"><ele>283.3333333333333</ele><time>2026-04-05T08:44:50.845Z</time></trkpt><trkpt lat="44.83805" lon="7.9685783"><ele>281.66666666666663</ele><time>2026-04-05T08:44:52.846Z</time></trkpt><trkpt lat="44.8381267" lon="7.9685817"><ele>280.0</ele><time>2026-04-05T08:44:58.845Z</time></trkpt><trkpt lat="44.8382317" lon="7.9686367"><ele>280.0</ele><time>2026-04-05T08:45:00.846Z</time></trkpt><trkpt lat="44.838305" lon="7.9686883"><ele>280.0</ele><time>2026-04-05T08:45:01.846Z</time></trkpt><trkpt lat="44.8383817" lon="7.9687417"><ele>280.0</ele><time>2026-04-05T08:45:02.845Z</time></trkpt><trkpt lat="44.8384517" lon="7.9687917"><ele>280.0</ele><time>2026-04-05T08:45:03.845Z</time></trkpt><trkpt lat="44.8385167" lon="7.9688333"><ele>280.0</ele><time>2026-04-05T08:45:04.846Z</time></trkpt><trkpt lat="44.8385817" lon="7.9688783"><ele>280.0</ele><time>2026-04-05T08:45:05.846Z</time></trkpt><trkpt lat="44.8386517" lon="7.9689283"><ele>279.8333333333333</ele><time>2026-04-05T08:45:06.846Z</time></trkpt><trkpt lat="44.8387167" lon="7.968995"><ele>279.66666666666663</ele><time>2026-04-05T08:45:07.846Z</time></trkpt><trkpt lat="44.8387767" lon="7.96906"><ele>279.5</ele><time>2026-04-05T08:45:08.846Z</time></trkpt><trkpt lat="44.8388417" lon="7.96912"><ele>279.3333333333333</ele><time>2026-04-05T08:45:09.846Z</time></trkpt><trkpt lat="44.83891" lon="7.9691817"><ele>279.1666666666667</ele><time>2026-04-05T08:45:10.846Z</time></trkpt><trkpt lat="44.8389717" lon="7.96924"><ele>279.0</ele><time>2026-04-05T08:45:11.846Z</time></trkpt><trkpt lat="44.8390267" lon="7.96929"><ele>280.4</ele><time>2026-04-05T08:45:12.846Z</time></trkpt><trkpt lat="44.8391317" lon="7.9693583"><ele>281.79999999999995</ele><time>2026-04-05T08:45:14.846Z</time></trkpt><trkpt lat="44.8391533" lon="7.96947"><ele>283.20000000000005</ele><time>2026-04-05T08:45:22.846Z</time></trkpt><trkpt lat="44.839065" lon="7.9695767"><ele>284.6</ele><time>2026-04-05T08:45:24.846Z</time></trkpt><trkpt lat="44.8389983" lon="7.9696517"><ele>286.0</ele><time>2026-04-05T08:45:25.846Z</time></trkpt><trkpt lat="44.8389233" lon="7.9697333"><ele>286.0</ele><time>2026-04-05T08:45:26.847Z</time></trkpt><trkpt lat="44.8388483" lon="7.9698183"><ele>286.0</ele><time>2026-04-05T08:45:27.847Z</time></trkpt><trkpt lat="44.83877" lon="7.969895"><ele>286.0</ele><time>2026-04-05T08:45:28.847Z</time></trkpt><trkpt lat="44.83868" lon="7.9699667"><ele>286.0</ele><time>2026-04-05T08:45:29.847Z</time></trkpt><trkpt lat="44.8385867" lon="7.9700267"><ele>286.0</ele><time>2026-04-05T08:45:30.846Z</time></trkpt><trkpt lat="44.8384967" lon="7.9700817"><ele>287.16666666666663</ele><time>2026-04-05T08:45:31.847Z</time></trkpt><trkpt lat="44.838415" lon="7.970135"><ele>288.3333333333333</ele><time>2026-04-05T08:45:32.847Z</time></trkpt><trkpt lat="44.83834" lon="7.970185"><ele>289.5</ele><time>2026-04-05T08:45:33.847Z</time></trkpt><trkpt lat="44.83826" lon="7.9702333"><ele>290.6666666666667</ele><time>2026-04-05T08:45:34.847Z</time></trkpt><trkpt lat="44.8381783" lon="7.9702617"><ele>291.83333333333337</ele><time>2026-04-05T08:45:35.847Z</time></trkpt><trkpt lat="44.8380967" lon="7.97029"><ele>293.0</ele><time>2026-04-05T08:45:36.847Z</time></trkpt><trkpt lat="44.8380167" lon="7.970325"><ele>293.0</ele><time>2026-04-05T08:45:37.847Z</time></trkpt><trkpt lat="44.8379367" lon="7.9703633"><ele>293.0</ele><time>2026-04-05T08:45:38.846Z</time></trkpt><trkpt lat="44.8378583" lon="7.97041"><ele>293.0</ele><time>2026-04-05T08:45:39.847Z</time></trkpt><trkpt lat="44.8377733" lon="7.9704483"><ele>293.0</ele><time>2026-04-05T08:45:40.847Z</time></trkpt><trkpt lat="44.837675" lon="7.970485"><ele>293.0</ele><time>2026-04-05T08:45:41.847Z</time></trkpt><trkpt lat="44.8375733" lon="7.9705267"><ele>292.6</ele><time>2026-04-05T08:45:42.847Z</time></trkpt><trkpt lat="44.83748" lon="7.9705667"><ele>292.20000000000005</ele><time>2026-04-05T08:45:43.847Z</time></trkpt><trkpt lat="44.8373767" lon="7.9706133"><ele>291.8</ele><time>2026-04-05T08:45:44.846Z</time></trkpt><trkpt lat="44.8372767" lon="7.970655"><ele>291.40000000000003</ele><time>2026-04-05T08:45:45.847Z</time></trkpt><trkpt lat="44.83719" lon="7.9706917"><ele>291.0</ele><time>2026-04-05T08:45:46.847Z</time></trkpt><trkpt lat="44.8371017" lon="7.9707367"><ele>291.0</ele><time>2026-04-05T08:45:47.847Z</time></trkpt><trkpt lat="44.8370133" lon="7.9707867"><ele>291.0</ele><time>2026-04-05T08:45:48.847Z</time></trkpt><trkpt lat="44.8369233" lon="7.9708267"><ele>291.0</ele><time>2026-04-05T08:45:49.846Z</time></trkpt><trkpt lat="44.8368333" lon="7.9708667"><ele>291.0</ele><time>2026-04-05T08:45:50.847Z</time></trkpt><trkpt lat="44.8367467" lon="7.9709133"><ele>291.0</ele><time>2026-04-05T08:45:51.847Z</time></trkpt><trkpt lat="44.8366617" lon="7.9709583"><ele>291.6</ele><time>2026-04-05T08:45:52.847Z</time></trkpt><trkpt lat="44.8365817" lon="7.971"><ele>292.20000000000005</ele><time>2026-04-05T08:45:53.847Z</time></trkpt><trkpt lat="44.8365017" lon="7.9710533"><ele>292.79999999999995</ele><time>2026-04-05T08:45:54.847Z</time></trkpt><trkpt lat="44.836405" lon="7.9711067"><ele>293.4</ele><time>2026-04-05T08:45:55.847Z</time></trkpt><trkpt lat="44.8363117" lon="7.97116"><ele>294.0</ele><time>2026-04-05T08:45:56.847Z</time></trkpt><trkpt lat="44.83623" lon="7.9712067"><ele>294.0</ele><time>2026-04-05T08:45:57.847Z</time></trkpt><trkpt lat="44.8361483" lon="7.9712667"><ele>294.0</ele><time>2026-04-05T08:45:58.846Z</time></trkpt><trkpt lat="44.8360717" lon="7.971325"><ele>294.0</ele><time>2026-04-05T08:45:59.847Z</time></trkpt><trkpt lat="44.83599" lon="7.9713917"><ele>294.0</ele><time>2026-04-05T08:46:00.847Z</time></trkpt><trkpt lat="44.83592" lon="7.9714483"><ele>294.0</ele><time>2026-04-05T08:46:01.847Z</time></trkpt><trkpt lat="44.8358533" lon="7.971495"><ele>294.0</ele><time>2026-04-05T08:46:02.847Z</time></trkpt><trkpt lat="44.83579" lon="7.9715467"><ele>293.6666666666667</ele><time>2026-04-05T08:46:03.846Z</time></trkpt><trkpt lat="44.8357267" lon="7.9716167"><ele>293.3333333333333</ele><time>2026-04-05T08:46:04.847Z</time></trkpt><trkpt lat="44.83566" lon="7.9716833"><ele>293.0</ele><time>2026-04-05T08:46:05.847Z</time></trkpt><trkpt lat="44.8355967" lon="7.9717483"><ele>292.66666666666663</ele><time>2026-04-05T08:46:06.847Z</time></trkpt><trkpt lat="44.835535" lon="7.971805"><ele>292.3333333333333</ele><time>2026-04-05T08:46:07.847Z</time></trkpt><trkpt lat="44.83547" lon="7.9718483"><ele>292.0</ele><time>2026-04-05T08:46:08.847Z</time></trkpt><trkpt lat="44.835395" lon="7.97189"><ele>293.4</ele><time>2026-04-05T08:46:09.847Z</time></trkpt><trkpt lat="44.83531" lon="7.9719317"><ele>294.79999999999995</ele><time>2026-04-05T08:46:10.847Z</time></trkpt><trkpt lat="44.8352183" lon="7.97198"><ele>296.2</ele><time>2026-04-05T08:46:11.847Z</time></trkpt><trkpt lat="44.8351283" lon="7.97202"><ele>297.59999999999997</ele><time>2026-04-05T08:46:12.847Z</time></trkpt><trkpt lat="44.8350383" lon="7.9720633"><ele>299.0</ele><time>2026-04-05T08:46:13.846Z</time></trkpt><trkpt lat="44.8349567" lon="7.9721067"><ele>299.0</ele><time>2026-04-05T08:46:14.847Z</time></trkpt><trkpt lat="44.83488" lon="7.9721533"><ele>299.0</ele><time>2026-04-05T08:46:15.847Z</time></trkpt><trkpt lat="44.8347983" lon="7.9721983"><ele>299.0</ele><time>2026-04-05T08:46:16.847Z</time></trkpt><trkpt lat="44.834715" lon="7.9722483"><ele>299.0</ele><time>2026-04-05T08:46:17.847Z</time></trkpt><trkpt lat="44.8346233" lon="7.9722833"><ele>299.0</ele><time>2026-04-05T08:46:18.847Z</time></trkpt><trkpt lat="44.8345333" lon="7.9723067"><ele>299.0</ele><time>2026-04-05T08:46:19.847Z</time></trkpt><trkpt lat="44.8344433" lon="7.97233"><ele>299.0</ele><time>2026-04-05T08:46:20.847Z</time></trkpt><trkpt lat="44.8343567" lon="7.9723583"><ele>299.0</ele><time>2026-04-05T08:46:21.847Z</time></trkpt><trkpt lat="44.8342767" lon="7.972395"><ele>299.0</ele><time>2026-04-05T08:46:22.847Z</time></trkpt><trkpt lat="44.8342067" lon="7.97246"><ele>299.0</ele><time>2026-04-05T08:46:23.847Z</time></trkpt><trkpt lat="44.8341433" lon="7.9725333"><ele>299.0</ele><time>2026-04-05T08:46:24.847Z</time></trkpt><trkpt lat="44.834075" lon="7.97261"><ele>299.0</ele><time>2026-04-05T08:46:25.846Z</time></trkpt><trkpt lat="44.83401" lon="7.9726733"><ele>299.59999999999997</ele><time>2026-04-05T08:46:26.847Z</time></trkpt><trkpt lat="44.833955" lon="7.972725"><ele>300.2</ele><time>2026-04-05T08:46:27.846Z</time></trkpt><trkpt lat="44.8338333" lon="7.972815"><ele>300.79999999999995</ele><time>2026-04-05T08:46:29.846Z</time></trkpt><trkpt lat="44.8337717" lon="7.9728583"><ele>301.4</ele><time>2026-04-05T08:46:30.847Z</time></trkpt><trkpt lat="44.8336467" lon="7.9729133"><ele>302.0</ele><time>2026-04-05T08:46:32.847Z</time></trkpt><trkpt lat="44.8335717" lon="7.97293"><ele>302.0</ele><time>2026-04-05T08:46:33.847Z</time></trkpt><trkpt lat="44.833495" lon="7.97296"><ele>302.0</ele><time>2026-04-05T08:46:34.847Z</time></trkpt><trkpt lat="44.83341" lon="7.9729867"><ele>302.0</ele><time>2026-04-05T08:46:35.847Z</time></trkpt><trkpt lat="44.8333283" lon="7.97301"><ele>302.0</ele><time>2026-04-05T08:46:36.847Z</time></trkpt><trkpt lat="44.833245" lon="7.9730333"><ele>302.0</ele><time>2026-04-05T08:46:37.847Z</time></trkpt><trkpt lat="44.8331683" lon="7.9730483"><ele>302.0</ele><time>2026-04-05T08:46:38.847Z</time></trkpt><trkpt lat="44.8330917" lon="7.9730533"><ele>302.4</ele><time>2026-04-05T08:46:39.847Z</time></trkpt><trkpt lat="44.833015" lon="7.9730717"><ele>302.79999999999995</ele><time>2026-04-05T08:46:40.847Z</time></trkpt><trkpt lat="44.8329117" lon="7.9730917"><ele>303.2</ele><time>2026-04-05T08:46:42.847Z</time></trkpt><trkpt lat="44.8328183" lon="7.9731533"><ele>303.59999999999997</ele><time>2026-04-05T08:46:51.847Z</time></trkpt><trkpt lat="44.832735" lon="7.97319"><ele>304.0</ele><time>2026-04-05T08:46:52.847Z</time></trkpt><trkpt lat="44.8326433" lon="7.97321"><ele>304.1428571428571</ele><time>2026-04-05T08:46:53.847Z</time></trkpt><trkpt lat="44.8325633" lon="7.9732383"><ele>304.28571428571433</ele><time>2026-04-05T08:46:54.847Z</time></trkpt><trkpt lat="44.8324917" lon="7.973275"><ele>304.42857142857144</ele><time>2026-04-05T08:46:55.847Z</time></trkpt><trkpt lat="44.832425" lon="7.9733083"><ele>304.57142857142856</ele><time>2026-04-05T08:46:56.847Z</time></trkpt><trkpt lat="44.8323533" lon="7.9733333"><ele>304.71428571428567</ele><time>2026-04-05T08:46:57.847Z</time></trkpt><trkpt lat="44.83229" lon="7.9733483"><ele>304.8571428571429</ele><time>2026-04-05T08:46:58.846Z</time></trkpt><trkpt lat="44.8322233" lon="7.9733333"><ele>305.0</ele><time>2026-04-05T08:46:59.846Z</time></trkpt><trkpt lat="44.8321517" lon="7.97332"><ele>305.0</ele><time>2026-04-05T08:47:00.846Z</time></trkpt><trkpt lat="44.83208" lon="7.973335"><ele>305.0</ele><time>2026-04-05T08:47:01.847Z</time></trkpt><trkpt lat="44.8320033" lon="7.9733583"><ele>305.0</ele><time>2026-04-05T08:47:02.847Z</time></trkpt><trkpt lat="44.8319217" lon="7.97339"><ele>305.0</ele><time>2026-04-05T08:47:03.847Z</time></trkpt><trkpt lat="44.831835" lon="7.9734283"><ele>305.0</ele><time>2026-04-05T08:47:04.847Z</time></trkpt><trkpt lat="44.831755" lon="7.9734717"><ele>305.0</ele><time>2026-04-05T08:47:05.847Z</time></trkpt><trkpt lat="44.8316817" lon="7.9735133"><ele>307.0</ele><time>2026-04-05T08:47:06.847Z</time></trkpt><trkpt lat="44.8316067" lon="7.973545"><ele>309.0</ele><time>2026-04-05T08:47:07.847Z</time></trkpt><trkpt lat="44.83153" lon="7.9735667"><ele>311.0</ele><time>2026-04-05T08:47:08.847Z</time></trkpt><trkpt lat="44.8314567" lon="7.973585"><ele>313.0</ele><time>2026-04-05T08:47:09.847Z</time></trkpt><trkpt lat="44.83139" lon="7.9736"><ele>315.0</ele><time>2026-04-05T08:47:10.847Z</time></trkpt><trkpt lat="44.8313267" lon="7.9736283"><ele>317.0</ele><time>2026-04-05T08:47:11.847Z</time></trkpt><trkpt lat="44.8312633" lon="7.973665"><ele>319.0</ele><time>2026-04-05T08:47:12.847Z</time></trkpt><trkpt lat="44.8311917" lon="7.973695"><ele>319.0</ele><time>2026-04-05T08:47:13.847Z</time></trkpt><trkpt lat="44.8311117" lon="7.973715"><ele>319.0</ele><time>2026-04-05T08:47:14.847Z</time></trkpt><trkpt lat="44.8310417" lon="7.9737433"><ele>319.0</ele><time>2026-04-05T08:47:15.847Z</time></trkpt><trkpt lat="44.8309733" lon="7.973765"><ele>319.0</ele><time>2026-04-05T08:47:16.847Z</time></trkpt><trkpt lat="44.8308583" lon="7.9738167"><ele>319.0</ele><time>2026-04-05T08:47:18.846Z</time></trkpt><trkpt lat="44.83078" lon="7.9738833"><ele>319.0</ele><time>2026-04-05T08:47:20.847Z</time></trkpt><trkpt lat="44.83071" lon="7.9739683"><ele>318.3333333333333</ele><time>2026-04-05T08:47:22.846Z</time></trkpt><trkpt lat="44.8306633" lon="7.974035"><ele>317.66666666666663</ele><time>2026-04-05T08:47:23.847Z</time></trkpt><trkpt lat="44.83061" lon="7.9740967"><ele>317.0</ele><time>2026-04-05T08:47:24.846Z</time></trkpt><trkpt lat="44.8305567" lon="7.9741483"><ele>316.3333333333333</ele><time>2026-04-05T08:47:25.846Z</time></trkpt><trkpt lat="44.8305033" lon="7.9741983"><ele>315.6666666666667</ele><time>2026-04-05T08:47:26.847Z</time></trkpt><trkpt lat="44.830405" lon="7.9742583"><ele>315.0</ele><time>2026-04-05T08:47:28.847Z</time></trkpt><trkpt lat="44.830295" lon="7.9743033"><ele>317.0</ele><time>2026-04-05T08:47:30.847Z</time></trkpt><trkpt lat="44.8302083" lon="7.9743783"><ele>319.0</ele><time>2026-04-05T08:47:32.847Z</time></trkpt><trkpt lat="44.8301133" lon="7.9744317"><ele>321.0</ele><time>2026-04-05T08:47:34.846Z</time></trkpt><trkpt lat="44.8300433" lon="7.974455"><ele>323.0</ele><time>2026-04-05T08:47:35.847Z</time></trkpt><trkpt lat="44.8299583" lon="7.9744817"><ele>325.0</ele><time>2026-04-05T08:47:36.847Z</time></trkpt><trkpt lat="44.8298683" lon="7.9745083"><ele>325.4</ele><time>2026-04-05T08:47:37.847Z</time></trkpt><trkpt lat="44.8297767" lon="7.9745267"><ele>325.8</ele><time>2026-04-05T08:47:38.847Z</time></trkpt><trkpt lat="44.829685" lon="7.974535"><ele>326.20000000000005</ele><time>2026-04-05T08:47:39.847Z</time></trkpt><trkpt lat="44.829595" lon="7.9745317"><ele>326.6</ele><time>2026-04-05T08:47:40.847Z</time></trkpt><trkpt lat="44.8294933" lon="7.97453"><ele>327.0</ele><time>2026-04-05T08:47:41.846Z</time></trkpt><trkpt lat="44.82941" lon="7.9745383"><ele>327.0</ele><time>2026-04-05T08:47:42.847Z</time></trkpt><trkpt lat="44.8293283" lon="7.9745433"><ele>327.0</ele><time>2026-04-05T08:47:43.847Z</time></trkpt><trkpt lat="44.8292483" lon="7.9745467"><ele>327.0</ele><time>2026-04-05T08:47:44.847Z</time></trkpt><trkpt lat="44.8291733" lon="7.9745533"><ele>327.0</ele><time>2026-04-05T08:47:45.846Z</time></trkpt><trkpt lat="44.8291" lon="7.97456"><ele>327.0</ele><time>2026-04-05T08:47:46.847Z</time></trkpt><trkpt lat="44.8290367" lon="7.97456"><ele>327.0</ele><time>2026-04-05T08:47:47.847Z</time></trkpt><trkpt lat="44.82891" lon="7.974525"><ele>327.20000000000005</ele><time>2026-04-05T08:47:49.847Z</time></trkpt><trkpt lat="44.8288467" lon="7.9745067"><ele>327.4</ele><time>2026-04-05T08:47:50.847Z</time></trkpt><trkpt lat="44.828735" lon="7.9745467"><ele>327.6</ele><time>2026-04-05T08:47:52.847Z</time></trkpt><trkpt lat="44.8286783" lon="7.97459"><ele>327.79999999999995</ele><time>2026-04-05T08:47:53.847Z</time></trkpt><trkpt lat="44.8285683" lon="7.974695"><ele>328.0</ele><time>2026-04-05T08:47:55.847Z</time></trkpt><trkpt lat="44.8285067" lon="7.9747517"><ele>329.0</ele><time>2026-04-05T08:47:56.847Z</time></trkpt><trkpt lat="44.82845" lon="7.974805"><ele>330.0</ele><time>2026-04-05T08:47:57.846Z</time></trkpt><trkpt lat="44.8283417" lon="7.9748767"><ele>331.0</ele><time>2026-04-05T08:47:59.847Z</time></trkpt><trkpt lat="44.8282133" lon="7.9749367"><ele>332.0</ele><time>2026-04-05T08:48:01.846Z</time></trkpt><trkpt lat="44.8281333" lon="7.9749683"><ele>333.0</ele><time>2026-04-05T08:48:02.847Z</time></trkpt><trkpt lat="44.8280517" lon="7.9750083"><ele>334.5</ele><time>2026-04-05T08:48:03.847Z</time></trkpt><trkpt lat="44.8279767" lon="7.9750483"><ele>336.0</ele><time>2026-04-05T08:48:04.847Z</time></trkpt><trkpt lat="44.82791" lon="7.9750867"><ele>337.5</ele><time>2026-04-05T08:48:05.846Z</time></trkpt><trkpt lat="44.82785" lon="7.9751267"><ele>339.0</ele><time>2026-04-05T08:48:06.847Z</time></trkpt><trkpt lat="44.8277917" lon="7.975185"><ele>340.5</ele><time>2026-04-05T08:48:07.847Z</time></trkpt><trkpt lat="44.827735" lon="7.975235"><ele>342.0</ele><time>2026-04-05T08:48:08.847Z</time></trkpt><trkpt lat="44.82764" lon="7.9753033"><ele>343.20000000000005</ele><time>2026-04-05T08:48:10.847Z</time></trkpt><trkpt lat="44.82756" lon="7.9753267"><ele>344.4</ele><time>2026-04-05T08:48:12.847Z</time></trkpt><trkpt lat="44.8274733" lon="7.9752633"><ele>345.6</ele><time>2026-04-05T08:48:21.847Z</time></trkpt><trkpt lat="44.8273883" lon="7.97518"><ele>346.79999999999995</ele><time>2026-04-05T08:48:23.847Z</time></trkpt><trkpt lat="44.8273033" lon="7.9750967"><ele>348.0</ele><time>2026-04-05T08:48:25.847Z</time></trkpt><trkpt lat="44.8272317" lon="7.9750333"><ele>348.0</ele><time>2026-04-05T08:48:27.847Z</time></trkpt><trkpt lat="44.8271467" lon="7.9750833"><ele>348.0</ele><time>2026-04-05T08:48:39.847Z</time></trkpt><trkpt lat="44.8271033" lon="7.9752317"><ele>348.0</ele><time>2026-04-05T08:48:41.847Z</time></trkpt><trkpt lat="44.8270733" lon="7.97534"><ele>348.0</ele><time>2026-04-05T08:48:42.847Z</time></trkpt><trkpt lat="44.827035" lon="7.9754583"><ele>348.0</ele><time>2026-04-05T08:48:43.847Z</time></trkpt><trkpt lat="44.826985" lon="7.97559"><ele>348.0</ele><time>2026-04-05T08:48:44.847Z</time></trkpt><trkpt lat="44.8269333" lon="7.97572"><ele>348.0</ele><time>2026-04-05T08:48:45.847Z</time></trkpt><trkpt lat="44.82687" lon="7.9758567"><ele>348.0</ele><time>2026-04-05T08:48:46.847Z</time></trkpt><trkpt lat="44.82681" lon="7.976"><ele>348.0</ele><time>2026-04-05T08:48:47.847Z</time></trkpt><trkpt lat="44.8267617" lon="7.976145"><ele>347.75</ele><time>2026-04-05T08:48:48.847Z</time></trkpt><trkpt lat="44.826725" lon="7.9763067"><ele>347.5</ele><time>2026-04-05T08:48:49.847Z</time></trkpt><trkpt lat="44.826695" lon="7.9764733"><ele>347.25</ele><time>2026-04-05T08:48:50.847Z</time></trkpt><trkpt lat="44.8266883" lon="7.9766517"><ele>347.0</ele><time>2026-04-05T08:48:51.846Z</time></trkpt><trkpt lat="44.8267033" lon="7.9768417"><ele>347.0</ele><time>2026-04-05T08:48:52.847Z</time></trkpt><trkpt lat="44.82672" lon="7.97702"><ele>347.0</ele><time>2026-04-05T08:48:53.847Z</time></trkpt><trkpt lat="44.8267383" lon="7.9771883"><ele>347.0</ele><time>2026-04-05T08:48:54.847Z</time></trkpt><trkpt lat="44.826775" lon="7.9773417"><ele>347.0</ele><time>2026-04-05T08:48:55.847Z</time></trkpt><trkpt lat="44.8268367" lon="7.9774567"><ele>348.20000000000005</ele><time>2026-04-05T08:48:56.847Z</time></trkpt><trkpt lat="44.82692" lon="7.9775233"><ele>349.4</ele><time>2026-04-05T08:48:57.846Z</time></trkpt><trkpt lat="44.8270267" lon="7.97754"><ele>350.6</ele><time>2026-04-05T08:48:58.847Z</time></trkpt><trkpt lat="44.8271417" lon="7.9775283"><ele>351.79999999999995</ele><time>2026-04-05T08:48:59.847Z</time></trkpt><trkpt lat="44.8272617" lon="7.97751"><ele>353.0</ele><time>2026-04-05T08:49:00.847Z</time></trkpt><trkpt lat="44.8273733" lon="7.9774967"><ele>353.0</ele><time>2026-04-05T08:49:01.847Z</time></trkpt><trkpt lat="44.8274883" lon="7.9774967"><ele>353.0</ele><time>2026-04-05T08:49:02.847Z</time></trkpt><trkpt lat="44.8275983" lon="7.977535"><ele>353.0</ele><time>2026-04-05T08:49:03.847Z</time></trkpt><trkpt lat="44.827695" lon="7.977605"><ele>353.0</ele><time>2026-04-05T08:49:04.847Z</time></trkpt><trkpt lat="44.8277733" lon="7.9777183"><ele>353.0</ele><time>2026-04-05T08:49:05.847Z</time></trkpt><trkpt lat="44.827835" lon="7.9778433"><ele>355.79999999999995</ele><time>2026-04-05T08:49:06.847Z</time></trkpt><trkpt lat="44.827875" lon="7.9779783"><ele>358.6</ele><time>2026-04-05T08:49:07.847Z</time></trkpt><trkpt lat="44.8279117" lon="7.97811"><ele>361.4</ele><time>2026-04-05T08:49:08.847Z</time></trkpt><trkpt lat="44.827945" lon="7.978235"><ele>364.20000000000005</ele><time>2026-04-05T08:49:09.847Z</time></trkpt><trkpt lat="44.8279783" lon="7.97835"><ele>367.0</ele><time>2026-04-05T08:49:10.847Z</time></trkpt><trkpt lat="44.82801" lon="7.9784683"><ele>367.0</ele><time>2026-04-05T08:49:11.847Z</time></trkpt><trkpt lat="44.8280433" lon="7.9785817"><ele>367.0</ele><time>2026-04-05T08:49:12.846Z</time></trkpt><trkpt lat="44.82807" lon="7.9786867"><ele>367.0</ele><time>2026-04-05T08:49:13.847Z</time></trkpt><trkpt lat="44.8280933" lon="7.97878"><ele>367.0</ele><time>2026-04-05T08:49:14.847Z</time></trkpt><trkpt lat="44.8281183" lon="7.97887"><ele>367.0</ele><time>2026-04-05T08:49:15.847Z</time></trkpt><trkpt lat="44.8281517" lon="7.9789567"><ele>367.0</ele><time>2026-04-05T08:49:16.847Z</time></trkpt><trkpt lat="44.8281917" lon="7.9790333"><ele>367.0</ele><time>2026-04-05T08:49:17.847Z</time></trkpt><trkpt lat="44.82824" lon="7.9791033"><ele>367.0</ele><time>2026-04-05T08:49:18.847Z</time></trkpt><trkpt lat="44.8282933" lon="7.979165"><ele>367.0</ele><time>2026-04-05T08:49:19.846Z</time></trkpt><trkpt lat="44.82835" lon="7.9792267"><ele>367.0</ele><time>2026-04-05T08:49:20.847Z</time></trkpt><trkpt lat="44.8284133" lon="7.97929"><ele>367.0</ele><time>2026-04-05T08:49:21.847Z</time></trkpt><trkpt lat="44.8284633" lon="7.9793633"><ele>367.0</ele><time>2026-04-05T08:49:22.847Z</time></trkpt><trkpt lat="44.82851" lon="7.9794633"><ele>367.0</ele><time>2026-04-05T08:49:23.847Z</time></trkpt><trkpt lat="44.8285583" lon="7.9795717"><ele>363.6</ele><time>2026-04-05T08:49:24.847Z</time></trkpt><trkpt lat="44.8286133" lon="7.9796717"><ele>360.20000000000005</ele><time>2026-04-05T08:49:25.847Z</time></trkpt><trkpt lat="44.8286733" lon="7.9797683"><ele>356.8</ele><time>2026-04-05T08:49:26.847Z</time></trkpt><trkpt lat="44.82874" lon="7.9798667"><ele>353.4</ele><time>2026-04-05T08:49:27.847Z</time></trkpt><trkpt lat="44.82879" lon="7.979975"><ele>350.0</ele><time>2026-04-05T08:49:28.846Z</time></trkpt><trkpt lat="44.82883" lon="7.9801033"><ele>349.0</ele><time>2026-04-05T08:49:29.846Z</time></trkpt><trkpt lat="44.8288583" lon="7.9802333"><ele>348.0</ele><time>2026-04-05T08:49:30.846Z</time></trkpt><trkpt lat="44.8288683" lon="7.9803733"><ele>347.0</ele><time>2026-04-05T08:49:31.846Z</time></trkpt><trkpt lat="44.8288817" lon="7.9805117"><ele>346.0</ele><time>2026-04-05T08:49:32.847Z</time></trkpt><trkpt lat="44.8289333" lon="7.980635"><ele>345.0</ele><time>2026-04-05T08:49:33.847Z</time></trkpt><trkpt lat="44.828995" lon="7.9807383"><ele>345.0</ele><time>2026-04-05T08:49:34.847Z</time></trkpt><trkpt lat="44.8290783" lon="7.9808233"><ele>345.0</ele><time>2026-04-05T08:49:35.846Z</time></trkpt><trkpt lat="44.8291633" lon="7.98089"><ele>345.0</ele><time>2026-04-05T08:49:36.846Z</time></trkpt><trkpt lat="44.829255" lon="7.98094"><ele>345.0</ele><time>2026-04-05T08:49:37.847Z</time></trkpt><trkpt lat="44.82935" lon="7.9809867"><ele>345.0</ele><time>2026-04-05T08:49:38.847Z</time></trkpt><trkpt lat="44.8294417" lon="7.9810333"><ele>344.8333333333333</ele><time>2026-04-05T08:49:39.847Z</time></trkpt><trkpt lat="44.82953" lon="7.98107"><ele>344.6666666666667</ele><time>2026-04-05T08:49:40.847Z</time></trkpt><trkpt lat="44.8296167" lon="7.9811167"><ele>344.5</ele><time>2026-04-05T08:49:41.846Z</time></trkpt><trkpt lat="44.8296817" lon="7.981155"><ele>344.33333333333337</ele><time>2026-04-05T08:49:42.847Z</time></trkpt><trkpt lat="44.8297517" lon="7.98119"><ele>344.1666666666667</ele><time>2026-04-05T08:49:44.846Z</time></trkpt><trkpt lat="44.8297017" lon="7.981115"><ele>344.0</ele><time>2026-04-05T08:49:49.847Z</time></trkpt><trkpt lat="44.8296" lon="7.981095"><ele>344.0</ele><time>2026-04-05T08:49:51.847Z</time></trkpt><trkpt lat="44.8294967" lon="7.9810683"><ele>344.0</ele><time>2026-04-05T08:49:53.846Z</time></trkpt><trkpt lat="44.8294417" lon="7.981025"><ele>344.0</ele><time>2026-04-05T08:49:55.847Z</time></trkpt><trkpt lat="44.829505" lon="7.9809633"><ele>344.0</ele><time>2026-04-05T08:49:59.847Z</time></trkpt><trkpt lat="44.8295917" lon="7.9809283"><ele>344.0</ele><time>2026-04-05T08:50:01.847Z</time></trkpt><trkpt lat="44.82967" lon="7.9808817"><ele>344.0</ele><time>2026-04-05T08:50:03.847Z</time></trkpt><trkpt lat="44.82973" lon="7.9808483"><ele>344.0</ele><time>2026-04-05T08:50:05.847Z</time></trkpt><trkpt lat="44.82982" lon="7.9808817"><ele>344.0</ele><time>2026-04-05T08:50:08.847Z</time></trkpt><trkpt lat="44.8298533" lon="7.980965"><ele>344.0</ele><time>2026-04-05T08:50:10.847Z</time></trkpt><trkpt lat="44.82992" lon="7.9810267"><ele>344.0</ele><time>2026-04-05T08:50:12.847Z</time></trkpt><trkpt lat="44.8300333" lon="7.9810383"><ele>344.0</ele><time>2026-04-05T08:50:14.847Z</time></trkpt><trkpt lat="44.8301083" lon="7.9810233"><ele>344.0</ele><time>2026-04-05T08:50:15.846Z</time></trkpt><trkpt lat="44.83018" lon="7.9809933"><ele>345.4</ele><time>2026-04-05T08:50:16.847Z</time></trkpt><trkpt lat="44.830235" lon="7.980945"><ele>346.79999999999995</ele><time>2026-04-05T08:50:17.846Z</time></trkpt><trkpt lat="44.830295" lon="7.9807983"><ele>348.20000000000005</ele><time>2026-04-05T08:50:19.846Z</time></trkpt><trkpt lat="44.830315" lon="7.9806183"><ele>349.6</ele><time>2026-04-05T08:50:21.847Z</time></trkpt><trkpt lat="44.8303317" lon="7.9805317"><ele>351.0</ele><time>2026-04-05T08:50:22.847Z</time></trkpt><trkpt lat="44.830345" lon="7.98041"><ele>351.5</ele><time>2026-04-05T08:50:24.847Z</time></trkpt><trkpt lat="44.8303067" lon="7.98033"><ele>352.0</ele><time>2026-04-05T08:50:26.847Z</time></trkpt><trkpt lat="44.8302283" lon="7.9804117"><ele>352.5</ele><time>2026-04-05T08:50:29.847Z</time></trkpt><trkpt lat="44.830205" lon="7.9805233"><ele>353.0</ele><time>2026-04-05T08:50:31.846Z</time></trkpt><trkpt lat="44.8301283" lon="7.980495"><ele>353.5</ele><time>2026-04-05T08:50:34.847Z</time></trkpt><trkpt lat="44.8301117" lon="7.980365"><ele>354.0</ele><time>2026-04-05T08:50:36.846Z</time></trkpt><trkpt lat="44.8300883" lon="7.98019"><ele>352.0</ele><time>2026-04-05T08:50:38.847Z</time></trkpt><trkpt lat="44.8300517" lon="7.9800333"><ele>350.0</ele><time>2026-04-05T08:50:40.847Z</time></trkpt><trkpt lat="44.8300517" lon="7.9798817"><ele>348.0</ele><time>2026-04-05T08:50:42.847Z</time></trkpt><trkpt lat="44.8300883" lon="7.9797483"><ele>346.0</ele><time>2026-04-05T08:50:44.846Z</time></trkpt><trkpt lat="44.830145" lon="7.9796483"><ele>344.0</ele><time>2026-04-05T08:50:46.847Z</time></trkpt><trkpt lat="44.8301867" lon="7.979525"><ele>342.2</ele><time>2026-04-05T08:50:48.847Z</time></trkpt><trkpt lat="44.8302133" lon="7.9793767"><ele>340.4</ele><time>2026-04-05T08:50:50.847Z</time></trkpt><trkpt lat="44.830245" lon="7.979265"><ele>338.6</ele><time>2026-04-05T08:50:52.847Z</time></trkpt><trkpt lat="44.8303033" lon="7.9791833"><ele>336.8</ele><time>2026-04-05T08:50:54.847Z</time></trkpt><trkpt lat="44.830385" lon="7.979125"><ele>335.0</ele><time>2026-04-05T08:50:56.847Z</time></trkpt><trkpt lat="44.830495" lon="7.9790783"><ele>332.83333333333337</ele><time>2026-04-05T08:50:58.847Z</time></trkpt><trkpt lat="44.8306133" lon="7.9790467"><ele>330.6666666666667</ele><time>2026-04-05T08:51:00.846Z</time></trkpt><trkpt lat="44.8306917" lon="7.979045"><ele>328.5</ele><time>2026-04-05T08:51:01.847Z</time></trkpt><trkpt lat="44.8307667" lon="7.979055"><ele>326.3333333333333</ele><time>2026-04-05T08:51:02.847Z</time></trkpt><trkpt lat="44.8308433" lon="7.9790667"><ele>324.16666666666663</ele><time>2026-04-05T08:51:03.847Z</time></trkpt><trkpt lat="44.8309217" lon="7.9790717"><ele>322.0</ele><time>2026-04-05T08:51:04.847Z</time></trkpt><trkpt lat="44.831" lon="7.9790933"><ele>321.66666666666663</ele><time>2026-04-05T08:51:05.847Z</time></trkpt><trkpt lat="44.8310733" lon="7.9791233"><ele>321.3333333333333</ele><time>2026-04-05T08:51:06.847Z</time></trkpt><trkpt lat="44.8311583" lon="7.979155"><ele>321.0</ele><time>2026-04-05T08:51:07.847Z</time></trkpt><trkpt lat="44.83124" lon="7.9791783"><ele>320.6666666666667</ele><time>2026-04-05T08:51:08.847Z</time></trkpt><trkpt lat="44.8313217" lon="7.979195"><ele>320.33333333333337</ele><time>2026-04-05T08:51:09.847Z</time></trkpt><trkpt lat="44.831395" lon="7.9792083"><ele>320.0</ele><time>2026-04-05T08:51:10.846Z</time></trkpt><trkpt lat="44.831465" lon="7.979215"><ele>321.0</ele><time>2026-04-05T08:51:11.847Z</time></trkpt><trkpt lat="44.8315367" lon="7.9792167"><ele>322.0</ele><time>2026-04-05T08:51:12.847Z</time></trkpt><trkpt lat="44.8316117" lon="7.9792267"><ele>323.0</ele><time>2026-04-05T08:51:13.847Z</time></trkpt><trkpt lat="44.8316783" lon="7.97926"><ele>324.0</ele><time>2026-04-05T08:51:14.846Z</time></trkpt><trkpt lat="44.8317317" lon="7.97931"><ele>325.0</ele><time>2026-04-05T08:51:15.847Z</time></trkpt><trkpt lat="44.8317833" lon="7.9793667"><ele>326.0</ele><time>2026-04-05T08:51:16.847Z</time></trkpt><trkpt lat="44.831845" lon="7.979405"><ele>327.0</ele><time>2026-04-05T08:51:17.847Z</time></trkpt><trkpt lat="44.83191" lon="7.9794317"><ele>327.0</ele><time>2026-04-05T08:51:18.847Z</time></trkpt><trkpt lat="44.83198" lon="7.9794383"><ele>327.0</ele><time>2026-04-05T08:51:19.846Z</time></trkpt><trkpt lat="44.8320567" lon="7.9794267"><ele>327.0</ele><time>2026-04-05T08:51:20.847Z</time></trkpt><trkpt lat="44.8321346" lon="7.9794195"><ele>327.0</ele><time>2026-04-05T08:51:21.847Z</time></trkpt><trkpt lat="44.8322177" lon="7.9794115"><ele>327.0</ele><time>2026-04-05T08:51:22.847Z</time></trkpt><trkpt lat="44.8322964" lon="7.9794011"><ele>327.0</ele><time>2026-04-05T08:51:23.847Z</time></trkpt><trkpt lat="44.8323789" lon="7.9793918"><ele>327.0</ele><time>2026-04-05T08:51:24.847Z</time></trkpt><trkpt lat="44.8324675" lon="7.9793899"><ele>327.0</ele><time>2026-04-05T08:51:25.847Z</time></trkpt><trkpt lat="44.8325529" lon="7.9793929"><ele>327.0</ele><time>2026-04-05T08:51:26.847Z</time></trkpt><trkpt lat="44.8326321" lon="7.9794045"><ele>327.0</ele><time>2026-04-05T08:51:27.847Z</time></trkpt><trkpt lat="44.8327046" lon="7.9794148"><ele>327.0</ele><time>2026-04-05T08:51:28.847Z</time></trkpt><trkpt lat="44.8327717" lon="7.9794294"><ele>327.0</ele><time>2026-04-05T08:51:29.847Z</time></trkpt><trkpt lat="44.8328453" lon="7.9794429"><ele>325.5</ele><time>2026-04-05T08:51:30.847Z</time></trkpt><trkpt lat="44.8329315" lon="7.9794598"><ele>324.0</ele><time>2026-04-05T08:51:31.847Z</time></trkpt><trkpt lat="44.8330191" lon="7.9794952"><ele>322.5</ele><time>2026-04-05T08:51:32.847Z</time></trkpt><trkpt lat="44.8331079" lon="7.9795382"><ele>321.0</ele><time>2026-04-05T08:51:33.847Z</time></trkpt><trkpt lat="44.8331836" lon="7.9795847"><ele>319.5</ele><time>2026-04-05T08:51:34.847Z</time></trkpt><trkpt lat="44.8332586" lon="7.9796241"><ele>318.0</ele><time>2026-04-05T08:51:35.847Z</time></trkpt><trkpt lat="44.833343" lon="7.9796313"><ele>318.0</ele><time>2026-04-05T08:51:36.847Z</time></trkpt><trkpt lat="44.8334275" lon="7.9796246"><ele>318.0</ele><time>2026-04-05T08:51:37.847Z</time></trkpt><trkpt lat="44.8335085" lon="7.9796254"><ele>318.0</ele><time>2026-04-05T08:51:38.847Z</time></trkpt><trkpt lat="44.8335849" lon="7.9796437"><ele>318.0</ele><time>2026-04-05T08:51:39.847Z</time></trkpt><trkpt lat="44.8336497" lon="7.9796761"><ele>318.0</ele><time>2026-04-05T08:51:40.847Z</time></trkpt><trkpt lat="44.8337107" lon="7.9797081"><ele>318.0</ele><time>2026-04-05T08:51:41.847Z</time></trkpt><trkpt lat="44.8338272" lon="7.9797293"><ele>317.0</ele><time>2026-04-05T08:51:43.847Z</time></trkpt><trkpt lat="44.8339202" lon="7.9797473"><ele>316.0</ele><time>2026-04-05T08:51:45.847Z</time></trkpt><trkpt lat="44.8340339" lon="7.9798393"><ele>315.0</ele><time>2026-04-05T08:51:47.847Z</time></trkpt><trkpt lat="44.8341054" lon="7.9799041"><ele>314.0</ele><time>2026-04-05T08:51:48.846Z</time></trkpt><trkpt lat="44.8341956" lon="7.9799755"><ele>313.0</ele><time>2026-04-05T08:51:49.847Z</time></trkpt><trkpt lat="44.8342867" lon="7.9800391"><ele>313.8</ele><time>2026-04-05T08:51:50.847Z</time></trkpt><trkpt lat="44.8343786" lon="7.9800856"><ele>314.6</ele><time>2026-04-05T08:51:51.847Z</time></trkpt><trkpt lat="44.8344712" lon="7.9801232"><ele>315.4</ele><time>2026-04-05T08:51:52.847Z</time></trkpt><trkpt lat="44.8345635" lon="7.9801547"><ele>316.2</ele><time>2026-04-05T08:51:53.847Z</time></trkpt><trkpt lat="44.8346461" lon="7.9801762"><ele>317.0</ele><time>2026-04-05T08:51:54.847Z</time></trkpt><trkpt lat="44.8347209" lon="7.980205"><ele>317.0</ele><time>2026-04-05T08:51:55.847Z</time></trkpt><trkpt lat="44.8347862" lon="7.9802253"><ele>317.0</ele><time>2026-04-05T08:51:56.847Z</time></trkpt><trkpt lat="44.8348595" lon="7.9802566"><ele>317.0</ele><time>2026-04-05T08:51:57.847Z</time></trkpt><trkpt lat="44.8349364" lon="7.9802937"><ele>317.0</ele><time>2026-04-05T08:51:58.847Z</time></trkpt><trkpt lat="44.8350098" lon="7.9803351"><ele>317.0</ele><time>2026-04-05T08:51:59.847Z</time></trkpt><trkpt lat="44.8350781" lon="7.9803716"><ele>317.0</ele><time>2026-04-05T08:52:00.847Z</time></trkpt><trkpt lat="44.8351433" lon="7.9804"><ele>317.0</ele><time>2026-04-05T08:52:01.847Z</time></trkpt><trkpt lat="44.83521" lon="7.980415"><ele>317.75</ele><time>2026-04-05T08:52:02.847Z</time></trkpt><trkpt lat="44.835325" lon="7.98036"><ele>318.5</ele><time>2026-04-05T08:52:04.847Z</time></trkpt><trkpt lat="44.8354083" lon="7.9802433"><ele>319.25</ele><time>2026-04-05T08:52:06.847Z</time></trkpt><trkpt lat="44.835525" lon="7.9801833"><ele>320.0</ele><time>2026-04-05T08:52:08.847Z</time></trkpt><trkpt lat="44.83565" lon="7.98014"><ele>320.0</ele><time>2026-04-05T08:52:10.846Z</time></trkpt><trkpt lat="44.835735" lon="7.9801217"><ele>320.0</ele><time>2026-04-05T08:52:11.847Z</time></trkpt><trkpt lat="44.8358233" lon="7.980105"><ele>320.0</ele><time>2026-04-05T08:52:12.847Z</time></trkpt><trkpt lat="44.8359133" lon="7.9800983"><ele>320.0</ele><time>2026-04-05T08:52:13.847Z</time></trkpt><trkpt lat="44.836" lon="7.9800767"><ele>320.0</ele><time>2026-04-05T08:52:14.847Z</time></trkpt><trkpt lat="44.8360833" lon="7.9800633"><ele>320.0</ele><time>2026-04-05T08:52:15.847Z</time></trkpt><trkpt lat="44.8361683" lon="7.9800433"><ele>320.1666666666667</ele><time>2026-04-05T08:52:16.847Z</time></trkpt><trkpt lat="44.8362517" lon="7.9800317"><ele>320.33333333333337</ele><time>2026-04-05T08:52:17.847Z</time></trkpt><trkpt lat="44.83633" lon="7.980025"><ele>320.5</ele><time>2026-04-05T08:52:18.847Z</time></trkpt><trkpt lat="44.8364067" lon="7.9800317"><ele>320.6666666666667</ele><time>2026-04-05T08:52:19.847Z</time></trkpt><trkpt lat="44.836475" lon="7.9800483"><ele>320.8333333333333</ele><time>2026-04-05T08:52:20.847Z</time></trkpt><trkpt lat="44.8365967" lon="7.980065"><ele>321.0</ele><time>2026-04-05T08:52:22.847Z</time></trkpt><trkpt lat="44.83666" lon="7.980055"><ele>321.0</ele><time>2026-04-05T08:52:23.847Z</time></trkpt><trkpt lat="44.836765" lon="7.9800367"><ele>321.0</ele><time>2026-04-05T08:52:25.847Z</time></trkpt><trkpt lat="44.8368717" lon="7.9800117"><ele>321.0</ele><time>2026-04-05T08:52:27.847Z</time></trkpt><trkpt lat="44.8369983" lon="7.979995"><ele>321.0</ele><time>2026-04-05T08:52:29.847Z</time></trkpt><trkpt lat="44.8370733" lon="7.979995"><ele>321.0</ele><time>2026-04-05T08:52:30.847Z</time></trkpt><trkpt lat="44.837145" lon="7.9799967"><ele>320.2</ele><time>2026-04-05T08:52:31.847Z</time></trkpt><trkpt lat="44.8372117" lon="7.9800167"><ele>319.40000000000003</ele><time>2026-04-05T08:52:32.846Z</time></trkpt><trkpt lat="44.837325" lon="7.9799883"><ele>318.6</ele><time>2026-04-05T08:52:34.847Z</time></trkpt><trkpt lat="44.837425" lon="7.9799317"><ele>317.8</ele><time>2026-04-05T08:52:36.847Z</time></trkpt><trkpt lat="44.8375417" lon="7.9798867"><ele>317.0</ele><time>2026-04-05T08:52:38.847Z</time></trkpt><trkpt lat="44.837615" lon="7.979875"><ele>315.0</ele><time>2026-04-05T08:52:39.847Z</time></trkpt><trkpt lat="44.8376917" lon="7.9798717"><ele>313.0</ele><time>2026-04-05T08:52:40.847Z</time></trkpt><trkpt lat="44.8377583" lon="7.979875"><ele>311.0</ele><time>2026-04-05T08:52:41.847Z</time></trkpt><trkpt lat="44.8378267" lon="7.9798933"><ele>309.0</ele><time>2026-04-05T08:52:42.847Z</time></trkpt><trkpt lat="44.8378933" lon="7.9799267"><ele>307.0</ele><time>2026-04-05T08:52:43.846Z</time></trkpt><trkpt lat="44.8379667" lon="7.9799633"><ele>305.0</ele><time>2026-04-05T08:52:44.847Z</time></trkpt><trkpt lat="44.838045" lon="7.9799933"><ele>303.0</ele><time>2026-04-05T08:52:45.847Z</time></trkpt><trkpt lat="44.8381117" lon="7.9800367"><ele>303.0</ele><time>2026-04-05T08:52:46.846Z</time></trkpt><trkpt lat="44.8381667" lon="7.9800817"><ele>303.0</ele><time>2026-04-05T08:52:47.847Z</time></trkpt><trkpt lat="44.8382233" lon="7.980135"><ele>303.0</ele><time>2026-04-05T08:52:48.847Z</time></trkpt><trkpt lat="44.8383033" lon="7.98026"><ele>303.0</ele><time>2026-04-05T08:52:50.847Z</time></trkpt><trkpt lat="44.83835" lon="7.98034"><ele>303.0</ele><time>2026-04-05T08:52:51.847Z</time></trkpt><trkpt lat="44.838405" lon="7.9804183"><ele>303.0</ele><time>2026-04-05T08:52:52.847Z</time></trkpt><trkpt lat="44.8384633" lon="7.9804883"><ele>301.0</ele><time>2026-04-05T08:52:53.847Z</time></trkpt><trkpt lat="44.8385133" lon="7.980555"><ele>299.0</ele><time>2026-04-05T08:52:54.847Z</time></trkpt><trkpt lat="44.838615" lon="7.98065"><ele>297.0</ele><time>2026-04-05T08:52:56.846Z</time></trkpt><trkpt lat="44.8386983" lon="7.9807333"><ele>295.0</ele><time>2026-04-05T08:52:58.847Z</time></trkpt><trkpt lat="44.8388367" lon="7.98078"><ele>293.0</ele><time>2026-04-05T08:53:07.847Z</time></trkpt><trkpt lat="44.83892" lon="7.980765"><ele>293.0</ele><time>2026-04-05T08:53:09.846Z</time></trkpt><trkpt lat="44.839005" lon="7.980755"><ele>293.0</ele><time>2026-04-05T08:53:11.847Z</time></trkpt><trkpt lat="44.8391033" lon="7.9807567"><ele>293.0</ele><time>2026-04-05T08:53:13.847Z</time></trkpt><trkpt lat="44.83917" lon="7.98075"><ele>293.0</ele><time>2026-04-05T08:53:14.846Z</time></trkpt><trkpt lat="44.8392367" lon="7.98073"><ele>293.0</ele><time>2026-04-05T08:53:15.846Z</time></trkpt><trkpt lat="44.8393133" lon="7.9807083"><ele>293.0</ele><time>2026-04-05T08:53:16.846Z</time></trkpt><trkpt lat="44.8393833" lon="7.980685"><ele>292.6666666666667</ele><time>2026-04-05T08:53:17.846Z</time></trkpt><trkpt lat="44.8394533" lon="7.98066"><ele>292.33333333333337</ele><time>2026-04-05T08:53:18.847Z</time></trkpt><trkpt lat="44.83952" lon="7.98063"><ele>292.0</ele><time>2026-04-05T08:53:19.846Z</time></trkpt><trkpt lat="44.8395867" lon="7.9805983"><ele>291.6666666666667</ele><time>2026-04-05T08:53:20.847Z</time></trkpt><trkpt lat="44.8396567" lon="7.9805783"><ele>291.3333333333333</ele><time>2026-04-05T08:53:21.847Z</time></trkpt><trkpt lat="44.8397317" lon="7.9805583"><ele>291.0</ele><time>2026-04-05T08:53:22.847Z</time></trkpt><trkpt lat="44.8398217" lon="7.9805333"><ele>291.0</ele><time>2026-04-05T08:53:23.847Z</time></trkpt><trkpt lat="44.8399017" lon="7.9805117"><ele>291.0</ele><time>2026-04-05T08:53:24.847Z</time></trkpt><trkpt lat="44.8399767" lon="7.9804983"><ele>291.0</ele><time>2026-04-05T08:53:25.847Z</time></trkpt><trkpt lat="44.8400433" lon="7.9804933"><ele>291.0</ele><time>2026-04-05T08:53:26.847Z</time></trkpt><trkpt lat="44.8401167" lon="7.9805017"><ele>291.0</ele><time>2026-04-05T08:53:27.847Z</time></trkpt><trkpt lat="44.8401833" lon="7.980525"><ele>291.0</ele><time>2026-04-05T08:53:28.847Z</time></trkpt><trkpt lat="44.84025" lon="7.980545"><ele>291.0</ele><time>2026-04-05T08:53:29.847Z</time></trkpt><trkpt lat="44.8403267" lon="7.9805717"><ele>290.8333333333333</ele><time>2026-04-05T08:53:30.847Z</time></trkpt><trkpt lat="44.8404067" lon="7.9805833"><ele>290.6666666666667</ele><time>2026-04-05T08:53:31.847Z</time></trkpt><trkpt lat="44.8404917" lon="7.98059"><ele>290.5</ele><time>2026-04-05T08:53:32.847Z</time></trkpt><trkpt lat="44.8405783" lon="7.98059"><ele>290.33333333333337</ele><time>2026-04-05T08:53:33.847Z</time></trkpt><trkpt lat="44.8406567" lon="7.98057"><ele>290.1666666666667</ele><time>2026-04-05T08:53:34.847Z</time></trkpt><trkpt lat="44.840725" lon="7.9805417"><ele>290.0</ele><time>2026-04-05T08:53:35.847Z</time></trkpt><trkpt lat="44.8408017" lon="7.9805083"><ele>290.0</ele><time>2026-04-05T08:53:36.846Z</time></trkpt><trkpt lat="44.84088" lon="7.9804767"><ele>290.0</ele><time>2026-04-05T08:53:37.847Z</time></trkpt><trkpt lat="44.8409633" lon="7.98046"><ele>290.0</ele><time>2026-04-05T08:53:38.847Z</time></trkpt><trkpt lat="44.8410383" lon="7.9804467"><ele>290.0</ele><time>2026-04-05T08:53:39.847Z</time></trkpt><trkpt lat="44.8411017" lon="7.98043"><ele>290.0</ele><time>2026-04-05T08:53:40.847Z</time></trkpt><trkpt lat="44.841165" lon="7.9804067"><ele>290.0</ele><time>2026-04-05T08:53:41.847Z</time></trkpt><trkpt lat="44.8412667" lon="7.98033"><ele>289.1666666666667</ele><time>2026-04-05T08:53:43.847Z</time></trkpt><trkpt lat="44.8413433" lon="7.9802633"><ele>288.33333333333337</ele><time>2026-04-05T08:53:45.846Z</time></trkpt><trkpt lat="44.8413917" lon="7.980205"><ele>287.5</ele><time>2026-04-05T08:53:47.847Z</time></trkpt><trkpt lat="44.8414633" lon="7.9802"><ele>286.6666666666667</ele><time>2026-04-05T08:53:51.847Z</time></trkpt><trkpt lat="44.8414583" lon="7.9803283"><ele>285.8333333333333</ele><time>2026-04-05T08:53:55.847Z</time></trkpt><trkpt lat="44.8414383" lon="7.9804817"><ele>285.0</ele><time>2026-04-05T08:53:57.847Z</time></trkpt><trkpt lat="44.841445" lon="7.980655"><ele>285.0</ele><time>2026-04-05T08:53:59.847Z</time></trkpt><trkpt lat="44.84142" lon="7.980825"><ele>285.0</ele><time>2026-04-05T08:54:01.847Z</time></trkpt><trkpt lat="44.841395" lon="7.9809833"><ele>285.0</ele><time>2026-04-05T08:54:03.847Z</time></trkpt><trkpt lat="44.8413483" lon="7.9811533"><ele>285.0</ele><time>2026-04-05T08:54:05.847Z</time></trkpt><trkpt lat="44.84131" lon="7.9812417"><ele>285.0</ele><time>2026-04-05T08:54:06.846Z</time></trkpt><trkpt lat="44.84127" lon="7.9813217"><ele>286.8333333333333</ele><time>2026-04-05T08:54:07.847Z</time></trkpt><trkpt lat="44.841225" lon="7.9814167"><ele>288.6666666666667</ele><time>2026-04-05T08:54:08.847Z</time></trkpt><trkpt lat="44.8411783" lon="7.981505"><ele>290.5</ele><time>2026-04-05T08:54:09.847Z</time></trkpt><trkpt lat="44.8411317" lon="7.9816017"><ele>292.33333333333337</ele><time>2026-04-05T08:54:10.846Z</time></trkpt><trkpt lat="44.841095" lon="7.9816983"><ele>294.1666666666667</ele><time>2026-04-05T08:54:11.847Z</time></trkpt><trkpt lat="44.841065" lon="7.9818"><ele>296.0</ele><time>2026-04-05T08:54:12.847Z</time></trkpt><trkpt lat="44.84104" lon="7.9818983"><ele>298.5</ele><time>2026-04-05T08:54:13.847Z</time></trkpt><trkpt lat="44.8410233" lon="7.9820117"><ele>301.0</ele><time>2026-04-05T08:54:14.847Z</time></trkpt><trkpt lat="44.8410083" lon="7.9821283"><ele>303.5</ele><time>2026-04-05T08:54:15.847Z</time></trkpt><trkpt lat="44.84099" lon="7.9822483"><ele>306.0</ele><time>2026-04-05T08:54:16.847Z</time></trkpt><trkpt lat="44.840975" lon="7.9823917"><ele>308.5</ele><time>2026-04-05T08:54:17.847Z</time></trkpt><trkpt lat="44.8409617" lon="7.9825217"><ele>311.0</ele><time>2026-04-05T08:54:18.847Z</time></trkpt><trkpt lat="44.84095" lon="7.9826317"><ele>311.6</ele><time>2026-04-05T08:54:19.847Z</time></trkpt><trkpt lat="44.84094" lon="7.982735"><ele>312.20000000000005</ele><time>2026-04-05T08:54:20.846Z</time></trkpt><trkpt lat="44.8409383" lon="7.9829"><ele>312.79999999999995</ele><time>2026-04-05T08:54:22.847Z</time></trkpt><trkpt lat="44.8409583" lon="7.9830333"><ele>313.4</ele><time>2026-04-05T08:54:24.846Z</time></trkpt><trkpt lat="44.84102" lon="7.983095"><ele>314.0</ele><time>2026-04-05T08:54:26.847Z</time></trkpt><trkpt lat="44.8411183" lon="7.9831083"><ele>315.5</ele><time>2026-04-05T08:54:28.847Z</time></trkpt><trkpt lat="44.841205" lon="7.9830783"><ele>317.0</ele><time>2026-04-05T08:54:30.847Z</time></trkpt><trkpt lat="44.8412817" lon="7.9830067"><ele>318.5</ele><time>2026-04-05T08:54:32.847Z</time></trkpt><trkpt lat="44.84136" lon="7.98297"><ele>320.0</ele><time>2026-04-05T08:54:34.846Z</time></trkpt><trkpt lat="44.841425" lon="7.98304"><ele>321.5</ele><time>2026-04-05T08:54:36.847Z</time></trkpt><trkpt lat="44.8414433" lon="7.9831633"><ele>323.0</ele><time>2026-04-05T08:54:38.847Z</time></trkpt><trkpt lat="44.8413617" lon="7.9833033"><ele>323.4</ele><time>2026-04-05T08:54:40.847Z</time></trkpt><trkpt lat="44.8412833" lon="7.9834433"><ele>323.79999999999995</ele><time>2026-04-05T08:54:42.847Z</time></trkpt><trkpt lat="44.8412333" lon="7.9836067"><ele>324.2</ele><time>2026-04-05T08:54:44.847Z</time></trkpt><trkpt lat="44.8412167" lon="7.983705"><ele>324.6</ele><time>2026-04-05T08:54:45.846Z</time></trkpt><trkpt lat="44.8411483" lon="7.9838317"><ele>325.0</ele><time>2026-04-05T08:54:47.847Z</time></trkpt><trkpt lat="44.8410767" lon="7.9839183"><ele>325.0</ele><time>2026-04-05T08:54:49.847Z</time></trkpt><trkpt lat="44.8410167" lon="7.9839817"><ele>325.0</ele><time>2026-04-05T08:54:51.847Z</time></trkpt><trkpt lat="44.8409567" lon="7.9840583"><ele>325.0</ele><time>2026-04-05T08:54:53.846Z</time></trkpt><trkpt lat="44.8408733" lon="7.9841933"><ele>325.0</ele><time>2026-04-05T08:54:55.846Z</time></trkpt><trkpt lat="44.8408167" lon="7.9843017"><ele>325.0</ele><time>2026-04-05T08:54:57.847Z</time></trkpt><trkpt lat="44.84077" lon="7.9843717"><ele>325.0</ele><time>2026-04-05T08:54:59.847Z</time></trkpt><trkpt lat="44.8407083" lon="7.9844267"><ele>323.6</ele><time>2026-04-05T08:55:01.846Z</time></trkpt><trkpt lat="44.8405917" lon="7.984485"><ele>322.2</ele><time>2026-04-05T08:55:03.847Z</time></trkpt><trkpt lat="44.840505" lon="7.984495"><ele>320.8</ele><time>2026-04-05T08:55:04.847Z</time></trkpt><trkpt lat="44.8404167" lon="7.9845117"><ele>319.4</ele><time>2026-04-05T08:55:05.847Z</time></trkpt><trkpt lat="44.840325" lon="7.9845133"><ele>318.0</ele><time>2026-04-05T08:55:06.847Z</time></trkpt><trkpt lat="44.840235" lon="7.9844933"><ele>318.0</ele><time>2026-04-05T08:55:07.847Z</time></trkpt><trkpt lat="44.84015" lon="7.9844817"><ele>318.0</ele><time>2026-04-05T08:55:08.847Z</time></trkpt><trkpt lat="44.840065" lon="7.9844717"><ele>318.0</ele><time>2026-04-05T08:55:09.846Z</time></trkpt><trkpt lat="44.8399867" lon="7.9844683"><ele>318.0</ele><time>2026-04-05T08:55:10.847Z</time></trkpt><trkpt lat="44.8399133" lon="7.98446"><ele>318.0</ele><time>2026-04-05T08:55:11.846Z</time></trkpt><trkpt lat="44.8398333" lon="7.9844617"><ele>318.0</ele><time>2026-04-05T08:55:12.847Z</time></trkpt><trkpt lat="44.8397517" lon="7.9844567"><ele>320.0</ele><time>2026-04-05T08:55:13.847Z</time></trkpt><trkpt lat="44.8396717" lon="7.9844567"><ele>322.0</ele><time>2026-04-05T08:55:14.846Z</time></trkpt><trkpt lat="44.8395883" lon="7.9844617"><ele>324.0</ele><time>2026-04-05T08:55:15.847Z</time></trkpt><trkpt lat="44.8394967" lon="7.9844683"><ele>326.0</ele><time>2026-04-05T08:55:16.847Z</time></trkpt><trkpt lat="44.8394083" lon="7.984475"><ele>328.0</ele><time>2026-04-05T08:55:17.847Z</time></trkpt><trkpt lat="44.8393217" lon="7.98448"><ele>330.0</ele><time>2026-04-05T08:55:18.846Z</time></trkpt><trkpt lat="44.8392383" lon="7.9844783"><ele>332.5</ele><time>2026-04-05T08:55:19.846Z</time></trkpt><trkpt lat="44.8391617" lon="7.9844817"><ele>335.0</ele><time>2026-04-05T08:55:20.847Z</time></trkpt><trkpt lat="44.839095" lon="7.98448"><ele>337.5</ele><time>2026-04-05T08:55:21.847Z</time></trkpt><trkpt lat="44.838985" lon="7.984535"><ele>340.0</ele><time>2026-04-05T08:55:23.847Z</time></trkpt><trkpt lat="44.8389333" lon="7.9846167"><ele>342.5</ele><time>2026-04-05T08:55:24.847Z</time></trkpt><trkpt lat="44.83889" lon="7.9847"><ele>345.0</ele><time>2026-04-05T08:55:25.847Z</time></trkpt><trkpt lat="44.838825" lon="7.9848383"><ele>345.0</ele><time>2026-04-05T08:55:27.847Z</time></trkpt><trkpt lat="44.83882" lon="7.9849717"><ele>345.0</ele><time>2026-04-05T08:55:29.847Z</time></trkpt><trkpt lat="44.8388617" lon="7.9851033"><ele>345.0</ele><time>2026-04-05T08:55:31.847Z</time></trkpt><trkpt lat="44.8388383" lon="7.98522"><ele>345.0</ele><time>2026-04-05T08:55:33.847Z</time></trkpt><trkpt lat="44.8387533" lon="7.985335"><ele>345.0</ele><time>2026-04-05T08:55:35.847Z</time></trkpt><trkpt lat="44.8386633" lon="7.98542"><ele>346.3333333333333</ele><time>2026-04-05T08:55:37.847Z</time></trkpt><trkpt lat="44.8385717" lon="7.9854583"><ele>347.6666666666667</ele><time>2026-04-05T08:55:39.847Z</time></trkpt><trkpt lat="44.83848" lon="7.9854617"><ele>349.0</ele><time>2026-04-05T08:55:41.846Z</time></trkpt><trkpt lat="44.8383867" lon="7.9855067"><ele>350.33333333333337</ele><time>2026-04-05T08:55:43.847Z</time></trkpt><trkpt lat="44.8383267" lon="7.9855617"><ele>351.6666666666667</ele><time>2026-04-05T08:55:44.847Z</time></trkpt><trkpt lat="44.8382533" lon="7.985625"><ele>353.0</ele><time>2026-04-05T08:55:45.847Z</time></trkpt><trkpt lat="44.838195" lon="7.9856833"><ele>353.0</ele><time>2026-04-05T08:55:46.846Z</time></trkpt><trkpt lat="44.83811" lon="7.9857967"><ele>353.0</ele><time>2026-04-05T08:55:48.847Z</time></trkpt><trkpt lat="44.838065" lon="7.9859417"><ele>353.0</ele><time>2026-04-05T08:55:50.847Z</time></trkpt><trkpt lat="44.838045" lon="7.986035"><ele>353.0</ele><time>2026-04-05T08:55:51.847Z</time></trkpt><trkpt lat="44.8380067" lon="7.9862167"><ele>353.0</ele><time>2026-04-05T08:55:53.847Z</time></trkpt><trkpt lat="44.8379633" lon="7.9863717"><ele>352.5</ele><time>2026-04-05T08:55:55.847Z</time></trkpt><trkpt lat="44.8379183" lon="7.9864967"><ele>352.0</ele><time>2026-04-05T08:55:57.847Z</time></trkpt><trkpt lat="44.8378733" lon="7.9865717"><ele>351.5</ele><time>2026-04-05T08:55:59.846Z</time></trkpt><trkpt lat="44.8378383" lon="7.9866833"><ele>351.0</ele><time>2026-04-05T08:56:52.847Z</time></trkpt><trkpt lat="44.83788" lon="7.986755"><ele>350.5</ele><time>2026-04-05T08:56:54.847Z</time></trkpt><trkpt lat="44.83793" lon="7.986815"><ele>350.0</ele><time>2026-04-05T08:56:56.847Z</time></trkpt><trkpt lat="44.8379933" lon="7.98689"><ele>348.8</ele><time>2026-04-05T08:56:58.847Z</time></trkpt><trkpt lat="44.83807" lon="7.98697"><ele>347.6</ele><time>2026-04-05T08:57:00.847Z</time></trkpt><trkpt lat="44.838165" lon="7.9870617"><ele>346.4</ele><time>2026-04-05T08:57:02.847Z</time></trkpt><trkpt lat="44.8382633" lon="7.98712"><ele>345.2</ele><time>2026-04-05T08:57:04.847Z</time></trkpt><trkpt lat="44.8383683" lon="7.9871733"><ele>344.0</ele><time>2026-04-05T08:57:06.847Z</time></trkpt><trkpt lat="44.8384633" lon="7.9872633"><ele>343.28571428571433</ele><time>2026-04-05T08:57:08.847Z</time></trkpt><trkpt lat="44.8385083" lon="7.9873317"><ele>342.57142857142856</ele><time>2026-04-05T08:57:09.847Z</time></trkpt><trkpt lat="44.8385467" lon="7.987405"><ele>341.8571428571429</ele><time>2026-04-05T08:57:10.847Z</time></trkpt><trkpt lat="44.8385817" lon="7.9874833"><ele>341.14285714285717</ele><time>2026-04-05T08:57:11.847Z</time></trkpt><trkpt lat="44.8386233" lon="7.9875633"><ele>340.42857142857144</ele><time>2026-04-05T08:57:12.847Z</time></trkpt><trkpt lat="44.83867" lon="7.9876483"><ele>339.7142857142857</ele><time>2026-04-05T08:57:13.847Z</time></trkpt><trkpt lat="44.8387117" lon="7.987725"><ele>339.0</ele><time>2026-04-05T08:57:14.847Z</time></trkpt><trkpt lat="44.838795" lon="7.98786"><ele>339.0</ele><time>2026-04-05T08:57:16.847Z</time></trkpt><trkpt lat="44.83885" lon="7.9879233"><ele>339.0</ele><time>2026-04-05T08:57:17.847Z</time></trkpt><trkpt lat="44.83891" lon="7.9879983"><ele>339.0</ele><time>2026-04-05T08:57:18.847Z</time></trkpt><trkpt lat="44.8389717" lon="7.9880733"><ele>339.0</ele><time>2026-04-05T08:57:19.847Z</time></trkpt><trkpt lat="44.83903" lon="7.9881333"><ele>339.0</ele><time>2026-04-05T08:57:20.847Z</time></trkpt><trkpt lat="44.8391333" lon="7.988205"><ele>339.0</ele><time>2026-04-05T08:57:22.847Z</time></trkpt><trkpt lat="44.8392417" lon="7.9882367"><ele>338.4</ele><time>2026-04-05T08:57:24.847Z</time></trkpt><trkpt lat="44.8393517" lon="7.9882383"><ele>337.79999999999995</ele><time>2026-04-05T08:57:26.847Z</time></trkpt><trkpt lat="44.8394133" lon="7.9882183"><ele>337.20000000000005</ele><time>2026-04-05T08:57:27.847Z</time></trkpt><trkpt lat="44.8395233" lon="7.9882"><ele>336.6</ele><time>2026-04-05T08:57:29.847Z</time></trkpt><trkpt lat="44.8396383" lon="7.988215"><ele>336.0</ele><time>2026-04-05T08:57:31.846Z</time></trkpt><trkpt lat="44.8397033" lon="7.98824"><ele>336.0</ele><time>2026-04-05T08:57:32.846Z</time></trkpt><trkpt lat="44.8397683" lon="7.9882667"><ele>336.0</ele><time>2026-04-05T08:57:33.847Z</time></trkpt><trkpt lat="44.8398333" lon="7.9883017"><ele>336.0</ele><time>2026-04-05T08:57:34.847Z</time></trkpt><trkpt lat="44.8398967" lon="7.9883233"><ele>336.0</ele><time>2026-04-05T08:57:35.847Z</time></trkpt><trkpt lat="44.84001" lon="7.98837"><ele>336.0</ele><time>2026-04-05T08:57:37.846Z</time></trkpt><trkpt lat="44.8401117" lon="7.98844"><ele>336.0</ele><time>2026-04-05T08:57:39.846Z</time></trkpt><trkpt lat="44.840215" lon="7.98847"><ele>333.8333333333333</ele><time>2026-04-05T08:57:41.847Z</time></trkpt><trkpt lat="44.8403233" lon="7.9884917"><ele>331.6666666666667</ele><time>2026-04-05T08:57:43.847Z</time></trkpt><trkpt lat="44.840435" lon="7.9885033"><ele>329.5</ele><time>2026-04-05T08:57:45.847Z</time></trkpt><trkpt lat="44.8405033" lon="7.9884833"><ele>327.33333333333337</ele><time>2026-04-05T08:57:46.846Z</time></trkpt><trkpt lat="44.84057" lon="7.988455"><ele>325.1666666666667</ele><time>2026-04-05T08:57:47.847Z</time></trkpt><trkpt lat="44.8406367" lon="7.9884283"><ele>323.0</ele><time>2026-04-05T08:57:48.847Z</time></trkpt><trkpt lat="44.8407" lon="7.988405"><ele>323.0</ele><time>2026-04-05T08:57:49.846Z</time></trkpt><trkpt lat="44.84082" lon="7.9884133"><ele>323.0</ele><time>2026-04-05T08:57:51.847Z</time></trkpt><trkpt lat="44.840915" lon="7.988485"><ele>323.0</ele><time>2026-04-05T08:57:53.847Z</time></trkpt><trkpt lat="44.8410217" lon="7.9885233"><ele>323.0</ele><time>2026-04-05T08:57:55.847Z</time></trkpt><trkpt lat="44.8411433" lon="7.9885367"><ele>322.4</ele><time>2026-04-05T08:57:57.847Z</time></trkpt><trkpt lat="44.8412067" lon="7.9885383"><ele>321.79999999999995</ele><time>2026-04-05T08:57:58.847Z</time></trkpt><trkpt lat="44.8413233" lon="7.9885267"><ele>321.2</ele><time>2026-04-05T08:58:00.847Z</time></trkpt><trkpt lat="44.8414417" lon="7.9885183"><ele>320.6</ele><time>2026-04-05T08:58:02.846Z</time></trkpt><trkpt lat="44.841555" lon="7.9885317"><ele>320.0</ele><time>2026-04-05T08:58:04.847Z</time></trkpt><trkpt lat="44.8416417" lon="7.9885483"><ele>320.0</ele><time>2026-04-05T08:58:06.847Z</time></trkpt><trkpt lat="44.84173" lon="7.9886"><ele>320.0</ele><time>2026-04-05T08:58:08.847Z</time></trkpt><trkpt lat="44.8418267" lon="7.9886583"><ele>320.0</ele><time>2026-04-05T08:58:10.846Z</time></trkpt><trkpt lat="44.8418883" lon="7.988685"><ele>320.0</ele><time>2026-04-05T08:58:11.847Z</time></trkpt><trkpt lat="44.841955" lon="7.988715"><ele>320.0</ele><time>2026-04-05T08:58:12.847Z</time></trkpt><trkpt lat="44.8420317" lon="7.988725"><ele>320.0</ele><time>2026-04-05T08:58:13.846Z</time></trkpt><trkpt lat="44.8421433" lon="7.9887433"><ele>321.8</ele><time>2026-04-05T08:58:15.847Z</time></trkpt><trkpt lat="44.8422283" lon="7.9887217"><ele>323.6</ele><time>2026-04-05T08:58:17.847Z</time></trkpt><trkpt lat="44.84231" lon="7.988665"><ele>325.4</ele><time>2026-04-05T08:58:20.847Z</time></trkpt><trkpt lat="44.8424067" lon="7.9886283"><ele>327.2</ele><time>2026-04-05T08:58:22.847Z</time></trkpt><trkpt lat="44.8425267" lon="7.988585"><ele>329.0</ele><time>2026-04-05T08:58:24.847Z</time></trkpt><trkpt lat="44.8425883" lon="7.9885583"><ele>327.79999999999995</ele><time>2026-04-05T08:58:25.847Z</time></trkpt><trkpt lat="44.84265" lon="7.988525"><ele>326.59999999999997</ele><time>2026-04-05T08:58:26.847Z</time></trkpt><trkpt lat="44.842715" lon="7.9884833"><ele>325.4</ele><time>2026-04-05T08:58:27.847Z</time></trkpt><trkpt lat="44.8428317" lon="7.9884133"><ele>324.2</ele><time>2026-04-05T08:58:29.847Z</time></trkpt><trkpt lat="44.8429417" lon="7.9883567"><ele>323.0</ele><time>2026-04-05T08:58:31.847Z</time></trkpt><trkpt lat="44.8430483" lon="7.9882883"><ele>323.0</ele><time>2026-04-05T08:58:33.847Z</time></trkpt><trkpt lat="44.843145" lon="7.9882167"><ele>323.0</ele><time>2026-04-05T08:58:35.847Z</time></trkpt><trkpt lat="44.84324" lon="7.9882033"><ele>323.0</ele><time>2026-04-05T08:58:37.846Z</time></trkpt><trkpt lat="44.8433383" lon="7.98826"><ele>323.0</ele><time>2026-04-05T08:58:39.847Z</time></trkpt><trkpt lat="44.84339" lon="7.988315"><ele>323.0</ele><time>2026-04-05T08:58:40.847Z</time></trkpt><trkpt lat="44.8434383" lon="7.9883817"><ele>323.0</ele><time>2026-04-05T08:58:41.846Z</time></trkpt><trkpt lat="44.84347" lon="7.98846"><ele>323.0</ele><time>2026-04-05T08:58:42.847Z</time></trkpt><trkpt lat="44.8434833" lon="7.9885733"><ele>323.0</ele><time>2026-04-05T08:58:44.847Z</time></trkpt><trkpt lat="44.8434833" lon="7.9886833"><ele>323.0</ele><time>2026-04-05T08:58:46.847Z</time></trkpt><trkpt lat="44.8434817" lon="7.9888067"><ele>323.0</ele><time>2026-04-05T08:58:48.846Z</time></trkpt><trkpt lat="44.8434667" lon="7.9889467"><ele>323.0</ele><time>2026-04-05T08:58:50.847Z</time></trkpt><trkpt lat="44.8434383" lon="7.9890783"><ele>323.0</ele><time>2026-04-05T08:58:52.847Z</time></trkpt><trkpt lat="44.8433717" lon="7.9892"><ele>320.4</ele><time>2026-04-05T08:58:54.847Z</time></trkpt><trkpt lat="44.8433" lon="7.9893483"><ele>317.79999999999995</ele><time>2026-04-05T08:58:56.847Z</time></trkpt><trkpt lat="44.8432583" lon="7.9895267"><ele>315.2</ele><time>2026-04-05T08:58:58.846Z</time></trkpt><trkpt lat="44.8432567" lon="7.9896367"><ele>312.6</ele><time>2026-04-05T08:58:59.847Z</time></trkpt><trkpt lat="44.8432567" lon="7.9897567"><ele>310.0</ele><time>2026-04-05T08:59:00.847Z</time></trkpt><trkpt lat="44.8432433" lon="7.9898617"><ele>310.0</ele><time>2026-04-05T08:59:01.847Z</time></trkpt><trkpt lat="44.843225" lon="7.9899517"><ele>310.0</ele><time>2026-04-05T08:59:02.847Z</time></trkpt><trkpt lat="44.8431817" lon="7.9901133"><ele>310.0</ele><time>2026-04-05T08:59:04.847Z</time></trkpt><trkpt lat="44.8431583" lon="7.99026"><ele>310.0</ele><time>2026-04-05T08:59:06.846Z</time></trkpt><trkpt lat="44.8431683" lon="7.9903517"><ele>310.0</ele><time>2026-04-05T08:59:08.847Z</time></trkpt><trkpt lat="44.8432367" lon="7.99038"><ele>310.0</ele><time>2026-04-05T08:59:29.847Z</time></trkpt><trkpt lat="44.8433017" lon="7.9903317"><ele>310.0</ele><time>2026-04-05T08:59:31.847Z</time></trkpt><trkpt lat="44.843395" lon="7.990255"><ele>310.0</ele><time>2026-04-05T08:59:33.847Z</time></trkpt><trkpt lat="44.8434783" lon="7.990155"><ele>310.0</ele><time>2026-04-05T08:59:35.847Z</time></trkpt><trkpt lat="44.8435617" lon="7.9900217"><ele>310.0</ele><time>2026-04-05T08:59:37.847Z</time></trkpt><trkpt lat="44.8436033" lon="7.9899483"><ele>310.0</ele><time>2026-04-05T08:59:38.847Z</time></trkpt><trkpt lat="44.8436467" lon="7.98988"><ele>308.2857142857143</ele><time>2026-04-05T08:59:39.847Z</time></trkpt><trkpt lat="44.843695" lon="7.989815"><ele>306.57142857142856</ele><time>2026-04-05T08:59:40.847Z</time></trkpt><trkpt lat="44.8437383" lon="7.9897467"><ele>304.85714285714283</ele><time>2026-04-05T08:59:41.847Z</time></trkpt><trkpt lat="44.843785" lon="7.9896817"><ele>303.1428571428571</ele><time>2026-04-05T08:59:42.847Z</time></trkpt><trkpt lat="44.843835" lon="7.9896233"><ele>301.4285714285714</ele><time>2026-04-05T08:59:43.847Z</time></trkpt><trkpt lat="44.8438867" lon="7.989565"><ele>299.7142857142857</ele><time>2026-04-05T08:59:44.847Z</time></trkpt><trkpt lat="44.84394" lon="7.9895083"><ele>298.0</ele><time>2026-04-05T08:59:45.847Z</time></trkpt><trkpt lat="44.843995" lon="7.9894617"><ele>298.0</ele><time>2026-04-05T08:59:46.846Z</time></trkpt><trkpt lat="44.8440533" lon="7.98942"><ele>298.0</ele><time>2026-04-05T08:59:47.846Z</time></trkpt><trkpt lat="44.8441117" lon="7.9893867"><ele>298.0</ele><time>2026-04-05T08:59:48.846Z</time></trkpt><trkpt lat="44.8442267" lon="7.989345"><ele>298.0</ele><time>2026-04-05T08:59:50.847Z</time></trkpt><trkpt lat="44.844295" lon="7.9893233"><ele>298.0</ele><time>2026-04-05T08:59:51.847Z</time></trkpt><trkpt lat="44.8444117" lon="7.989315"><ele>298.0</ele><time>2026-04-05T08:59:53.847Z</time></trkpt><trkpt lat="44.8445383" lon="7.9893233"><ele>296.8</ele><time>2026-04-05T08:59:55.847Z</time></trkpt><trkpt lat="44.8446617" lon="7.9893483"><ele>295.6</ele><time>2026-04-05T08:59:57.847Z</time></trkpt><trkpt lat="44.8447867" lon="7.98933"><ele>294.4</ele><time>2026-04-05T08:59:59.847Z</time></trkpt><trkpt lat="44.8448583" lon="7.9893233"><ele>293.2</ele><time>2026-04-05T09:00:00.846Z</time></trkpt><trkpt lat="44.84493" lon="7.9893117"><ele>292.0</ele><time>2026-04-05T09:00:01.847Z</time></trkpt><trkpt lat="44.8449983" lon="7.989295"><ele>292.0</ele><time>2026-04-05T09:00:02.846Z</time></trkpt><trkpt lat="44.8450683" lon="7.989275"><ele>292.0</ele><time>2026-04-05T09:00:03.847Z</time></trkpt><trkpt lat="44.8451383" lon="7.9892517"><ele>292.0</ele><time>2026-04-05T09:00:04.847Z</time></trkpt><trkpt lat="44.8452033" lon="7.9892367"><ele>292.0</ele><time>2026-04-05T09:00:05.847Z</time></trkpt><trkpt lat="44.8453217" lon="7.9891967"><ele>292.0</ele><time>2026-04-05T09:00:07.847Z</time></trkpt><trkpt lat="44.8453933" lon="7.9891917"><ele>292.0</ele><time>2026-04-05T09:00:08.847Z</time></trkpt><trkpt lat="44.845455" lon="7.9891717"><ele>290.66666666666663</ele><time>2026-04-05T09:00:09.847Z</time></trkpt><trkpt lat="44.8455183" lon="7.9891367"><ele>289.3333333333333</ele><time>2026-04-05T09:00:10.846Z</time></trkpt><trkpt lat="44.8455833" lon="7.989095"><ele>288.0</ele><time>2026-04-05T09:00:11.847Z</time></trkpt><trkpt lat="44.84566" lon="7.9890367"><ele>286.6666666666667</ele><time>2026-04-05T09:00:12.847Z</time></trkpt><trkpt lat="44.845745" lon="7.988985"><ele>285.33333333333337</ele><time>2026-04-05T09:00:13.847Z</time></trkpt><trkpt lat="44.8458267" lon="7.9889367"><ele>284.0</ele><time>2026-04-05T09:00:14.847Z</time></trkpt><trkpt lat="44.8459017" lon="7.98888"><ele>283.1666666666667</ele><time>2026-04-05T09:00:15.847Z</time></trkpt><trkpt lat="44.845965" lon="7.9888283"><ele>282.33333333333337</ele><time>2026-04-05T09:00:16.847Z</time></trkpt><trkpt lat="44.84603" lon="7.98877"><ele>281.5</ele><time>2026-04-05T09:00:17.847Z</time></trkpt><trkpt lat="44.8461" lon="7.9887033"><ele>280.6666666666667</ele><time>2026-04-05T09:00:18.847Z</time></trkpt><trkpt lat="44.846165" lon="7.9886283"><ele>279.8333333333333</ele><time>2026-04-05T09:00:19.847Z</time></trkpt><trkpt lat="44.8462267" lon="7.9885633"><ele>279.0</ele><time>2026-04-05T09:00:20.847Z</time></trkpt><trkpt lat="44.8462933" lon="7.9885"><ele>279.0</ele><time>2026-04-05T09:00:21.846Z</time></trkpt><trkpt lat="44.84635" lon="7.9884483"><ele>279.0</ele><time>2026-04-05T09:00:22.847Z</time></trkpt><trkpt lat="44.8464367" lon="7.9883683"><ele>279.0</ele><time>2026-04-05T09:00:24.847Z</time></trkpt><trkpt lat="44.8465133" lon="7.9883717"><ele>279.0</ele><time>2026-04-05T09:00:32.847Z</time></trkpt><trkpt lat="44.8465433" lon="7.988505"><ele>279.0</ele><time>2026-04-05T09:00:34.847Z</time></trkpt><trkpt lat="44.8465817" lon="7.9886"><ele>279.0</ele><time>2026-04-05T09:00:35.847Z</time></trkpt><trkpt lat="44.8466233" lon="7.9887033"><ele>279.0</ele><time>2026-04-05T09:00:36.846Z</time></trkpt><trkpt lat="44.8466583" lon="7.98881"><ele>279.0</ele><time>2026-04-05T09:00:37.847Z</time></trkpt><trkpt lat="44.84669" lon="7.9889117"><ele>279.0</ele><time>2026-04-05T09:00:38.847Z</time></trkpt><trkpt lat="44.8467217" lon="7.9890083"><ele>279.0</ele><time>2026-04-05T09:00:39.847Z</time></trkpt><trkpt lat="44.8467533" lon="7.9891033"><ele>279.0</ele><time>2026-04-05T09:00:40.847Z</time></trkpt><trkpt lat="44.846785" lon="7.9892033"><ele>279.0</ele><time>2026-04-05T09:00:41.847Z</time></trkpt><trkpt lat="44.84682" lon="7.9893083"><ele>282.6666666666667</ele><time>2026-04-05T09:00:42.847Z</time></trkpt><trkpt lat="44.8468483" lon="7.9894117"><ele>286.3333333333333</ele><time>2026-04-05T09:00:43.847Z</time></trkpt><trkpt lat="44.84687" lon="7.9895133"><ele>290.0</ele><time>2026-04-05T09:00:44.847Z</time></trkpt><trkpt lat="44.8469017" lon="7.9896083"><ele>293.66666666666663</ele><time>2026-04-05T09:00:45.847Z</time></trkpt><trkpt lat="44.8469417" lon="7.989695"><ele>297.3333333333333</ele><time>2026-04-05T09:00:46.847Z</time></trkpt><trkpt lat="44.8469767" lon="7.98977"><ele>301.0</ele><time>2026-04-05T09:00:47.847Z</time></trkpt><trkpt lat="44.8470683" lon="7.9898633"><ele>301.0</ele><time>2026-04-05T09:00:49.846Z</time></trkpt><trkpt lat="44.847155" lon="7.9897533"><ele>301.0</ele><time>2026-04-05T09:00:51.847Z</time></trkpt><trkpt lat="44.8471517" lon="7.989625"><ele>301.0</ele><time>2026-04-05T09:00:52.846Z</time></trkpt><trkpt lat="44.8471383" lon="7.98949"><ele>301.0</ele><time>2026-04-05T09:00:53.846Z</time></trkpt><trkpt lat="44.847135" lon="7.98936"><ele>301.0</ele><time>2026-04-05T09:00:54.847Z</time></trkpt><trkpt lat="44.8471367" lon="7.9892517"><ele>301.0</ele><time>2026-04-05T09:00:55.847Z</time></trkpt><trkpt lat="44.8471833" lon="7.9890933"><ele>301.0</ele><time>2026-04-05T09:00:57.847Z</time></trkpt><trkpt lat="44.8472667" lon="7.9890333"><ele>301.0</ele><time>2026-04-05T09:00:59.847Z</time></trkpt><trkpt lat="44.847355" lon="7.98904"><ele>301.0</ele><time>2026-04-05T09:01:01.847Z</time></trkpt><trkpt lat="44.84744" lon="7.9891133"><ele>301.0</ele><time>2026-04-05T09:01:03.847Z</time></trkpt><trkpt lat="44.847475" lon="7.9892217"><ele>301.0</ele><time>2026-04-05T09:01:05.847Z</time></trkpt><trkpt lat="44.8474283" lon="7.9893783"><ele>301.0</ele><time>2026-04-05T09:01:07.847Z</time></trkpt><trkpt lat="44.8474067" lon="7.9894917"><ele>301.0</ele><time>2026-04-05T09:01:08.847Z</time></trkpt><trkpt lat="44.8474017" lon="7.9896017"><ele>301.0</ele><time>2026-04-05T09:01:09.847Z</time></trkpt><trkpt lat="44.8474183" lon="7.98971"><ele>301.0</ele><time>2026-04-05T09:01:10.846Z</time></trkpt><trkpt lat="44.8474333" lon="7.9898033"><ele>301.0</ele><time>2026-04-05T09:01:11.847Z</time></trkpt><trkpt lat="44.847485" lon="7.9899217"><ele>301.0</ele><time>2026-04-05T09:01:13.847Z</time></trkpt><trkpt lat="44.8475667" lon="7.989815"><ele>301.0</ele><time>2026-04-05T09:01:15.847Z</time></trkpt><trkpt lat="44.8476133" lon="7.98973"><ele>301.0</ele><time>2026-04-05T09:01:16.847Z</time></trkpt><trkpt lat="44.84767" lon="7.9896533"><ele>301.0</ele><time>2026-04-05T09:01:17.847Z</time></trkpt><trkpt lat="44.847735" lon="7.989575"><ele>301.0</ele><time>2026-04-05T09:01:18.847Z</time></trkpt><trkpt lat="44.8478067" lon="7.9895033"><ele>301.0</ele><time>2026-04-05T09:01:19.846Z</time></trkpt><trkpt lat="44.84788" lon="7.98942"><ele>303.14285714285717</ele><time>2026-04-05T09:01:20.847Z</time></trkpt><trkpt lat="44.8479467" lon="7.98935"><ele>305.2857142857143</ele><time>2026-04-05T09:01:21.847Z</time></trkpt><trkpt lat="44.848" lon="7.989285"><ele>307.42857142857144</ele><time>2026-04-05T09:01:22.847Z</time></trkpt><trkpt lat="44.8480833" lon="7.9892533"><ele>309.57142857142856</ele><time>2026-04-05T09:01:24.847Z</time></trkpt><trkpt lat="44.84809" lon="7.989355"><ele>311.7142857142857</ele><time>2026-04-05T09:01:26.847Z</time></trkpt><trkpt lat="44.8480483" lon="7.989425"><ele>313.8571428571429</ele><time>2026-04-05T09:01:27.847Z</time></trkpt><trkpt lat="44.8479967" lon="7.98949"><ele>316.0</ele><time>2026-04-05T09:01:28.846Z</time></trkpt><trkpt lat="44.847955" lon="7.98956"><ele>316.0</ele><time>2026-04-05T09:01:29.847Z</time></trkpt><trkpt lat="44.847925" lon="7.9897367"><ele>316.0</ele><time>2026-04-05T09:01:31.847Z</time></trkpt><trkpt lat="44.8479417" lon="7.9898417"><ele>316.0</ele><time>2026-04-05T09:01:32.847Z</time></trkpt><trkpt lat="44.8479683" lon="7.9899633"><ele>316.0</ele><time>2026-04-05T09:01:33.847Z</time></trkpt><trkpt lat="44.8479917" lon="7.9900767"><ele>316.0</ele><time>2026-04-05T09:01:34.847Z</time></trkpt><trkpt lat="44.8480083" lon="7.9901683"><ele>316.0</ele><time>2026-04-05T09:01:35.847Z</time></trkpt><trkpt lat="44.8480267" lon="7.9902533"><ele>317.66666666666663</ele><time>2026-04-05T09:01:36.847Z</time></trkpt><trkpt lat="44.8480417" lon="7.9903433"><ele>319.3333333333333</ele><time>2026-04-05T09:01:37.847Z</time></trkpt><trkpt lat="44.8480517" lon="7.9905217"><ele>321.0</ele><time>2026-04-05T09:01:39.846Z</time></trkpt><trkpt lat="44.848065" lon="7.990625"><ele>322.6666666666667</ele><time>2026-04-05T09:01:40.846Z</time></trkpt><trkpt lat="44.8480817" lon="7.9907417"><ele>324.33333333333337</ele><time>2026-04-05T09:01:41.847Z</time></trkpt><trkpt lat="44.8480983" lon="7.990865"><ele>326.0</ele><time>2026-04-05T09:01:42.847Z</time></trkpt><trkpt lat="44.8481167" lon="7.9909717"><ele>326.0</ele><time>2026-04-05T09:01:43.847Z</time></trkpt><trkpt lat="44.8481367" lon="7.991085"><ele>326.0</ele><time>2026-04-05T09:01:44.847Z</time></trkpt><trkpt lat="44.848155" lon="7.9911933"><ele>326.0</ele><time>2026-04-05T09:01:45.847Z</time></trkpt><trkpt lat="44.848175" lon="7.9912967"><ele>326.0</ele><time>2026-04-05T09:01:46.847Z</time></trkpt><trkpt lat="44.84819" lon="7.991395"><ele>326.0</ele><time>2026-04-05T09:01:47.847Z</time></trkpt><trkpt lat="44.8481933" lon="7.991505"><ele>326.0</ele><time>2026-04-05T09:01:48.846Z</time></trkpt><trkpt lat="44.8481817" lon="7.9916017"><ele>324.8571428571429</ele><time>2026-04-05T09:01:49.846Z</time></trkpt><trkpt lat="44.848155" lon="7.991685"><ele>323.71428571428567</ele><time>2026-04-05T09:01:50.847Z</time></trkpt><trkpt lat="44.8481167" lon="7.9917617"><ele>322.57142857142856</ele><time>2026-04-05T09:01:51.847Z</time></trkpt><trkpt lat="44.8480767" lon="7.9918367"><ele>321.42857142857144</ele><time>2026-04-05T09:01:52.847Z</time></trkpt><trkpt lat="44.8480433" lon="7.9919133"><ele>320.28571428571433</ele><time>2026-04-05T09:01:53.847Z</time></trkpt><trkpt lat="44.848015" lon="7.9919983"><ele>319.1428571428571</ele><time>2026-04-05T09:01:54.847Z</time></trkpt><trkpt lat="44.847995" lon="7.9920933"><ele>318.0</ele><time>2026-04-05T09:01:55.847Z</time></trkpt><trkpt lat="44.8479833" lon="7.9922617"><ele>318.0</ele><time>2026-04-05T09:01:57.847Z</time></trkpt><trkpt lat="44.848025" lon="7.99241"><ele>318.0</ele><time>2026-04-05T09:01:59.847Z</time></trkpt><trkpt lat="44.8480583" lon="7.9924883"><ele>318.0</ele><time>2026-04-05T09:02:00.847Z</time></trkpt><trkpt lat="44.8480917" lon="7.99257"><ele>318.0</ele><time>2026-04-05T09:02:01.847Z</time></trkpt><trkpt lat="44.8481267" lon="7.9926617"><ele>318.0</ele><time>2026-04-05T09:02:02.846Z</time></trkpt><trkpt lat="44.8481517" lon="7.9927533"><ele>318.0</ele><time>2026-04-05T09:02:03.847Z</time></trkpt><trkpt lat="44.84819" lon="7.9929083"><ele>317.4</ele><time>2026-04-05T09:02:05.847Z</time></trkpt><trkpt lat="44.8482233" lon="7.99303"><ele>316.8</ele><time>2026-04-05T09:02:07.847Z</time></trkpt><trkpt lat="44.8482817" lon="7.9929367"><ele>316.2</ele><time>2026-04-05T09:02:20.847Z</time></trkpt><trkpt lat="44.8483067" lon="7.9928383"><ele>315.6</ele><time>2026-04-05T09:02:22.846Z</time></trkpt><trkpt lat="44.8482983" lon="7.9926967"><ele>315.0</ele><time>2026-04-05T09:02:24.847Z</time></trkpt><trkpt lat="44.84827" lon="7.9925517"><ele>315.5</ele><time>2026-04-05T09:02:26.847Z</time></trkpt><trkpt lat="44.8482417" lon="7.9924283"><ele>316.0</ele><time>2026-04-05T09:02:28.847Z</time></trkpt><trkpt lat="44.8482517" lon="7.99234"><ele>316.5</ele><time>2026-04-05T09:02:30.847Z</time></trkpt><trkpt lat="44.8483067" lon="7.9922533"><ele>317.0</ele><time>2026-04-05T09:02:33.847Z</time></trkpt><trkpt lat="44.848375" lon="7.992195"><ele>317.5</ele><time>2026-04-05T09:02:36.846Z</time></trkpt><trkpt lat="44.848445" lon="7.9921217"><ele>318.0</ele><time>2026-04-05T09:02:38.846Z</time></trkpt><trkpt lat="44.8485267" lon="7.992085"><ele>313.1666666666667</ele><time>2026-04-05T09:02:40.847Z</time></trkpt><trkpt lat="44.8486183" lon="7.9920783"><ele>308.3333333333333</ele><time>2026-04-05T09:02:42.846Z</time></trkpt><trkpt lat="44.8487333" lon="7.9921017"><ele>303.5</ele><time>2026-04-05T09:02:44.846Z</time></trkpt><trkpt lat="44.848795" lon="7.99212"><ele>298.66666666666663</ele><time>2026-04-05T09:02:45.847Z</time></trkpt><trkpt lat="44.848895" lon="7.9921483"><ele>293.8333333333333</ele><time>2026-04-05T09:02:47.847Z</time></trkpt><trkpt lat="44.8489617" lon="7.99217"><ele>289.0</ele><time>2026-04-05T09:02:49.847Z</time></trkpt><trkpt lat="44.8490417" lon="7.9922033"><ele>289.0</ele><time>2026-04-05T09:02:51.847Z</time></trkpt><trkpt lat="44.849085" lon="7.992275"><ele>289.0</ele><time>2026-04-05T09:02:54.847Z</time></trkpt><trkpt lat="44.8490983" lon="7.99238"><ele>289.0</ele><time>2026-04-05T09:02:57.847Z</time></trkpt><trkpt lat="44.849155" lon="7.9924817"><ele>289.0</ele><time>2026-04-05T09:03:00.846Z</time></trkpt><trkpt lat="44.8492117" lon="7.99255"><ele>289.0</ele><time>2026-04-05T09:03:02.846Z</time></trkpt><trkpt lat="44.8492833" lon="7.992615"><ele>289.0</ele><time>2026-04-05T09:03:04.847Z</time></trkpt><trkpt lat="44.8493583" lon="7.9926683"><ele>289.16666666666663</ele><time>2026-04-05T09:03:06.847Z</time></trkpt><trkpt lat="44.8494617" lon="7.9927017"><ele>289.3333333333333</ele><time>2026-04-05T09:03:08.847Z</time></trkpt><trkpt lat="44.849555" lon="7.9927467"><ele>289.5</ele><time>2026-04-05T09:03:10.847Z</time></trkpt><trkpt lat="44.84964" lon="7.9927933"><ele>289.6666666666667</ele><time>2026-04-05T09:03:12.847Z</time></trkpt><trkpt lat="44.849705" lon="7.9928017"><ele>289.83333333333337</ele><time>2026-04-05T09:03:14.847Z</time></trkpt><trkpt lat="44.849775" lon="7.9927583"><ele>290.0</ele><time>2026-04-05T09:03:16.847Z</time></trkpt><trkpt lat="44.8498483" lon="7.99269"><ele>290.0</ele><time>2026-04-05T09:03:18.847Z</time></trkpt><trkpt lat="44.8499317" lon="7.9926667"><ele>290.0</ele><time>2026-04-05T09:03:20.847Z</time></trkpt><trkpt lat="44.8500033" lon="7.9926917"><ele>290.0</ele><time>2026-04-05T09:03:22.847Z</time></trkpt><trkpt lat="44.850065" lon="7.9927267"><ele>290.0</ele><time>2026-04-05T09:03:24.847Z</time></trkpt><trkpt lat="44.8501417" lon="7.9927533"><ele>290.0</ele><time>2026-04-05T09:03:26.847Z</time></trkpt><trkpt lat="44.8502333" lon="7.9927667"><ele>290.0</ele><time>2026-04-05T09:03:28.847Z</time></trkpt><trkpt lat="44.85035" lon="7.9927967"><ele>288.2</ele><time>2026-04-05T09:03:30.847Z</time></trkpt><trkpt lat="44.85046" lon="7.992845"><ele>286.4</ele><time>2026-04-05T09:03:32.847Z</time></trkpt><trkpt lat="44.8505367" lon="7.9928883"><ele>284.6</ele><time>2026-04-05T09:03:33.847Z</time></trkpt><trkpt lat="44.8506233" lon="7.9929183"><ele>282.8</ele><time>2026-04-05T09:03:34.847Z</time></trkpt><trkpt lat="44.8506917" lon="7.992955"><ele>281.0</ele><time>2026-04-05T09:03:35.847Z</time></trkpt><trkpt lat="44.8508083" lon="7.993015"><ele>281.0</ele><time>2026-04-05T09:03:37.847Z</time></trkpt><trkpt lat="44.85087" lon="7.993045"><ele>281.0</ele><time>2026-04-05T09:03:38.846Z</time></trkpt><trkpt lat="44.8509433" lon="7.993085"><ele>281.0</ele><time>2026-04-05T09:03:39.847Z</time></trkpt><trkpt lat="44.8510183" lon="7.9931283"><ele>281.0</ele><time>2026-04-05T09:03:40.847Z</time></trkpt><trkpt lat="44.85111" lon="7.99314"><ele>281.0</ele><time>2026-04-05T09:03:41.846Z</time></trkpt><trkpt lat="44.8511867" lon="7.9931583"><ele>281.0</ele><time>2026-04-05T09:03:42.847Z</time></trkpt><trkpt lat="44.8512667" lon="7.993185"><ele>279.33333333333337</ele><time>2026-04-05T09:03:43.847Z</time></trkpt><trkpt lat="44.8513533" lon="7.9932083"><ele>277.6666666666667</ele><time>2026-04-05T09:03:44.847Z</time></trkpt><trkpt lat="44.851445" lon="7.9932217"><ele>276.0</ele><time>2026-04-05T09:03:45.847Z</time></trkpt><trkpt lat="44.8515233" lon="7.99325"><ele>274.3333333333333</ele><time>2026-04-05T09:03:46.847Z</time></trkpt><trkpt lat="44.8515967" lon="7.9932717"><ele>272.66666666666663</ele><time>2026-04-05T09:03:47.847Z</time></trkpt><trkpt lat="44.8516767" lon="7.9933017"><ele>271.0</ele><time>2026-04-05T09:03:48.847Z</time></trkpt><trkpt lat="44.8517567" lon="7.9933283"><ele>269.3333333333333</ele><time>2026-04-05T09:03:49.847Z</time></trkpt><trkpt lat="44.8518267" lon="7.993355"><ele>267.66666666666663</ele><time>2026-04-05T09:03:50.847Z</time></trkpt><trkpt lat="44.85192" lon="7.993465"><ele>266.0</ele><time>2026-04-05T09:03:52.847Z</time></trkpt><trkpt lat="44.8519467" lon="7.9935583"><ele>264.3333333333333</ele><time>2026-04-05T09:03:53.847Z</time></trkpt><trkpt lat="44.85197" lon="7.993655"><ele>262.6666666666667</ele><time>2026-04-05T09:03:54.847Z</time></trkpt><trkpt lat="44.8519967" lon="7.9937433"><ele>261.0</ele><time>2026-04-05T09:03:55.846Z</time></trkpt><trkpt lat="44.852025" lon="7.993825"><ele>261.0</ele><time>2026-04-05T09:03:56.847Z</time></trkpt><trkpt lat="44.8520567" lon="7.9939117"><ele>261.0</ele><time>2026-04-05T09:03:57.847Z</time></trkpt><trkpt lat="44.8521233" lon="7.99403"><ele>261.0</ele><time>2026-04-05T09:03:59.846Z</time></trkpt><trkpt lat="44.85222" lon="7.9941167"><ele>261.0</ele><time>2026-04-05T09:04:01.847Z</time></trkpt><trkpt lat="44.8522933" lon="7.9941517"><ele>261.0</ele><time>2026-04-05T09:04:02.847Z</time></trkpt><trkpt lat="44.8523683" lon="7.9941817"><ele>261.0</ele><time>2026-04-05T09:04:03.847Z</time></trkpt><trkpt lat="44.8524517" lon="7.9942017"><ele>261.1666666666667</ele><time>2026-04-05T09:04:04.847Z</time></trkpt><trkpt lat="44.8525267" lon="7.9942317"><ele>261.3333333333333</ele><time>2026-04-05T09:04:05.847Z</time></trkpt><trkpt lat="44.852605" lon="7.9942617"><ele>261.5</ele><time>2026-04-05T09:04:06.847Z</time></trkpt><trkpt lat="44.8526767" lon="7.9943017"><ele>261.66666666666663</ele><time>2026-04-05T09:04:07.847Z</time></trkpt><trkpt lat="44.85274" lon="7.994365"><ele>261.8333333333333</ele><time>2026-04-05T09:04:08.847Z</time></trkpt><trkpt lat="44.8527933" lon="7.9944333"><ele>262.0</ele><time>2026-04-05T09:04:09.846Z</time></trkpt><trkpt lat="44.8528517" lon="7.9945017"><ele>262.0</ele><time>2026-04-05T09:04:10.846Z</time></trkpt><trkpt lat="44.8529017" lon="7.99457"><ele>262.0</ele><time>2026-04-05T09:04:11.847Z</time></trkpt><trkpt lat="44.8529467" lon="7.994635"><ele>262.0</ele><time>2026-04-05T09:04:12.847Z</time></trkpt><trkpt lat="44.85305" lon="7.994745"><ele>262.0</ele><time>2026-04-05T09:04:14.847Z</time></trkpt><trkpt lat="44.85311" lon="7.99481"><ele>262.0</ele><time>2026-04-05T09:04:15.847Z</time></trkpt><trkpt lat="44.8531767" lon="7.99488"><ele>262.0</ele><time>2026-04-05T09:04:16.846Z</time></trkpt><trkpt lat="44.85325" lon="7.9949467"><ele>262.8333333333333</ele><time>2026-04-05T09:04:17.846Z</time></trkpt><trkpt lat="44.85332" lon="7.9950067"><ele>263.66666666666663</ele><time>2026-04-05T09:04:18.847Z</time></trkpt><trkpt lat="44.8533783" lon="7.9950883"><ele>264.5</ele><time>2026-04-05T09:04:19.847Z</time></trkpt><trkpt lat="44.8534117" lon="7.995175"><ele>265.3333333333333</ele><time>2026-04-05T09:04:20.847Z</time></trkpt><trkpt lat="44.853435" lon="7.9952683"><ele>266.1666666666667</ele><time>2026-04-05T09:04:21.847Z</time></trkpt><trkpt lat="44.8534417" lon="7.9953817"><ele>267.0</ele><time>2026-04-05T09:04:22.847Z</time></trkpt><trkpt lat="44.8534417" lon="7.9954933"><ele>267.0</ele><time>2026-04-05T09:04:23.846Z</time></trkpt><trkpt lat="44.8534267" lon="7.9955933"><ele>267.0</ele><time>2026-04-05T09:04:24.847Z</time></trkpt><trkpt lat="44.8534467" lon="7.9957583"><ele>267.0</ele><time>2026-04-05T09:04:26.846Z</time></trkpt><trkpt lat="44.8535017" lon="7.9958883"><ele>267.0</ele><time>2026-04-05T09:04:28.846Z</time></trkpt><trkpt lat="44.8535933" lon="7.9960217"><ele>267.0</ele><time>2026-04-05T09:04:30.847Z</time></trkpt><trkpt lat="44.8536433" lon="7.9961033"><ele>265.1666666666667</ele><time>2026-04-05T09:04:31.846Z</time></trkpt><trkpt lat="44.8536883" lon="7.996185"><ele>263.3333333333333</ele><time>2026-04-05T09:04:32.847Z</time></trkpt><trkpt lat="44.85373" lon="7.9962633"><ele>261.5</ele><time>2026-04-05T09:04:33.847Z</time></trkpt><trkpt lat="44.85377" lon="7.9963483"><ele>259.66666666666663</ele><time>2026-04-05T09:04:34.847Z</time></trkpt><trkpt lat="44.8538033" lon="7.9964317"><ele>257.8333333333333</ele><time>2026-04-05T09:04:35.847Z</time></trkpt><trkpt lat="44.8538283" lon="7.996515"><ele>256.0</ele><time>2026-04-05T09:04:36.846Z</time></trkpt><trkpt lat="44.8538433" lon="7.9966917"><ele>255.66666666666666</ele><time>2026-04-05T09:04:38.847Z</time></trkpt><trkpt lat="44.8538567" lon="7.996795"><ele>255.33333333333331</ele><time>2026-04-05T09:04:39.847Z</time></trkpt><trkpt lat="44.8538717" lon="7.9968967"><ele>255.0</ele><time>2026-04-05T09:04:40.847Z</time></trkpt><trkpt lat="44.8538883" lon="7.9969917"><ele>254.66666666666669</ele><time>2026-04-05T09:04:41.847Z</time></trkpt><trkpt lat="44.8539" lon="7.9970817"><ele>254.33333333333334</ele><time>2026-04-05T09:04:42.847Z</time></trkpt><trkpt lat="44.8539317" lon="7.997225"><ele>254.0</ele><time>2026-04-05T09:04:44.847Z</time></trkpt><trkpt lat="44.8539617" lon="7.9973167"><ele>254.0</ele><time>2026-04-05T09:04:47.846Z</time></trkpt><trkpt lat="44.8538833" lon="7.9973483"><ele>254.0</ele><time>2026-04-05T09:05:41.847Z</time></trkpt><trkpt lat="44.8538117" lon="7.9973333"><ele>254.0</ele><time>2026-04-05T09:05:42.847Z</time></trkpt><trkpt lat="44.8537333" lon="7.997315"><ele>254.0</ele><time>2026-04-05T09:05:43.847Z</time></trkpt><trkpt lat="44.8536667" lon="7.9973083"><ele>254.0</ele><time>2026-04-05T09:05:44.847Z</time></trkpt><trkpt lat="44.8535917" lon="7.997315"><ele>254.0</ele><time>2026-04-05T09:05:45.847Z</time></trkpt><trkpt lat="44.8535283" lon="7.997345"><ele>254.0</ele><time>2026-04-05T09:05:46.847Z</time></trkpt><trkpt lat="44.8534733" lon="7.9973917"><ele>256.0</ele><time>2026-04-05T09:05:47.846Z</time></trkpt><trkpt lat="44.8533983" lon="7.9974783"><ele>258.0</ele><time>2026-04-05T09:05:48.847Z</time></trkpt><trkpt lat="44.8533217" lon="7.9975367"><ele>260.0</ele><time>2026-04-05T09:05:49.847Z</time></trkpt><trkpt lat="44.8532417" lon="7.9975933"><ele>262.0</ele><time>2026-04-05T09:05:50.847Z</time></trkpt><trkpt lat="44.8531667" lon="7.99764"><ele>264.0</ele><time>2026-04-05T09:05:51.847Z</time></trkpt><trkpt lat="44.8530817" lon="7.9976767"><ele>266.0</ele><time>2026-04-05T09:05:52.846Z</time></trkpt><trkpt lat="44.8530067" lon="7.9976867"><ele>267.2857142857143</ele><time>2026-04-05T09:05:53.847Z</time></trkpt><trkpt lat="44.8529417" lon="7.9977"><ele>268.57142857142856</ele><time>2026-04-05T09:05:54.847Z</time></trkpt><trkpt lat="44.852855" lon="7.9977617"><ele>269.8571428571429</ele><time>2026-04-05T09:05:56.847Z</time></trkpt><trkpt lat="44.8528183" lon="7.9978383"><ele>271.1428571428571</ele><time>2026-04-05T09:05:57.846Z</time></trkpt><trkpt lat="44.852775" lon="7.997915"><ele>272.42857142857144</ele><time>2026-04-05T09:05:58.847Z</time></trkpt><trkpt lat="44.8527233" lon="7.9979967"><ele>273.7142857142857</ele><time>2026-04-05T09:05:59.847Z</time></trkpt><trkpt lat="44.8526717" lon="7.9980533"><ele>275.0</ele><time>2026-04-05T09:06:00.847Z</time></trkpt><trkpt lat="44.8526183" lon="7.99812"><ele>275.0</ele><time>2026-04-05T09:06:01.847Z</time></trkpt><trkpt lat="44.8525817" lon="7.9982033"><ele>275.0</ele><time>2026-04-05T09:06:02.846Z</time></trkpt><trkpt lat="44.8525633" lon="7.9982967"><ele>275.0</ele><time>2026-04-05T09:06:03.847Z</time></trkpt><trkpt lat="44.85256" lon="7.9983967"><ele>275.0</ele><time>2026-04-05T09:06:04.847Z</time></trkpt><trkpt lat="44.852555" lon="7.9984967"><ele>275.0</ele><time>2026-04-05T09:06:05.847Z</time></trkpt><trkpt lat="44.8525567" lon="7.9986183"><ele>275.0</ele><time>2026-04-05T09:06:06.847Z</time></trkpt><trkpt lat="44.8525533" lon="7.9987333"><ele>275.0</ele><time>2026-04-05T09:06:07.847Z</time></trkpt><trkpt lat="44.8525483" lon="7.998845"><ele>277.2</ele><time>2026-04-05T09:06:08.847Z</time></trkpt><trkpt lat="44.8525433" lon="7.9989433"><ele>279.4</ele><time>2026-04-05T09:06:09.847Z</time></trkpt><trkpt lat="44.8525283" lon="7.9991133"><ele>281.6</ele><time>2026-04-05T09:06:11.846Z</time></trkpt><trkpt lat="44.8525367" lon="7.9993017"><ele>283.8</ele><time>2026-04-05T09:06:13.847Z</time></trkpt><trkpt lat="44.85254" lon="7.99941"><ele>286.0</ele><time>2026-04-05T09:06:14.847Z</time></trkpt><trkpt lat="44.8525383" lon="7.9995083"><ele>287.2</ele><time>2026-04-05T09:06:15.847Z</time></trkpt><trkpt lat="44.85253" lon="7.9996"><ele>288.40000000000003</ele><time>2026-04-05T09:06:16.847Z</time></trkpt><trkpt lat="44.8525233" lon="7.99977"><ele>289.6</ele><time>2026-04-05T09:06:18.847Z</time></trkpt><trkpt lat="44.8525133" lon="7.9999017"><ele>290.8</ele><time>2026-04-05T09:06:20.846Z</time></trkpt><trkpt lat="44.8523967" lon="7.99991"><ele>292.0</ele><time>2026-04-05T09:06:23.847Z</time></trkpt><trkpt lat="44.8523033" lon="7.9998383"><ele>292.0</ele><time>2026-04-05T09:06:25.847Z</time></trkpt><trkpt lat="44.8521767" lon="7.9997317"><ele>292.0</ele><time>2026-04-05T09:06:34.847Z</time></trkpt><trkpt lat="44.8521033" lon="7.9996067"><ele>292.0</ele><time>2026-04-05T09:06:36.847Z</time></trkpt><trkpt lat="44.852025" lon="7.9994933"><ele>292.0</ele><time>2026-04-05T09:06:38.847Z</time></trkpt><trkpt lat="44.8519383" lon="7.9993633"><ele>292.0</ele><time>2026-04-05T09:06:40.847Z</time></trkpt><trkpt lat="44.8518817" lon="7.99929"><ele>292.0</ele><time>2026-04-05T09:06:41.846Z</time></trkpt><trkpt lat="44.8518367" lon="7.9992267"><ele>292.0</ele><time>2026-04-05T09:06:42.847Z</time></trkpt><trkpt lat="44.8517967" lon="7.999155"><ele>292.0</ele><time>2026-04-05T09:06:43.846Z</time></trkpt><trkpt lat="44.85173" lon="7.9990417"><ele>292.0</ele><time>2026-04-05T09:06:45.846Z</time></trkpt><trkpt lat="44.8516783" lon="7.9989067"><ele>292.0</ele><time>2026-04-05T09:06:47.847Z</time></trkpt><trkpt lat="44.851625" lon="7.9987933"><ele>291.16666666666663</ele><time>2026-04-05T09:06:49.846Z</time></trkpt><trkpt lat="44.8515267" lon="7.998755"><ele>290.3333333333333</ele><time>2026-04-05T09:06:51.847Z</time></trkpt><trkpt lat="44.8514583" lon="7.99875"><ele>289.5</ele><time>2026-04-05T09:06:52.846Z</time></trkpt><trkpt lat="44.851385" lon="7.9987333"><ele>288.6666666666667</ele><time>2026-04-05T09:06:53.846Z</time></trkpt><trkpt lat="44.8513167" lon="7.9987133"><ele>287.83333333333337</ele><time>2026-04-05T09:06:54.847Z</time></trkpt><trkpt lat="44.8512483" lon="7.9986817"><ele>287.0</ele><time>2026-04-05T09:06:55.846Z</time></trkpt><trkpt lat="44.8511867" lon="7.998645"><ele>287.0</ele><time>2026-04-05T09:06:56.847Z</time></trkpt><trkpt lat="44.8511233" lon="7.9986183"><ele>287.0</ele><time>2026-04-05T09:06:57.846Z</time></trkpt><trkpt lat="44.8510217" lon="7.9985833"><ele>287.0</ele><time>2026-04-05T09:06:59.847Z</time></trkpt><trkpt lat="44.8509133" lon="7.9986117"><ele>287.0</ele><time>2026-04-05T09:07:01.847Z</time></trkpt><trkpt lat="44.8508" lon="7.99868"><ele>287.0</ele><time>2026-04-05T09:07:03.847Z</time></trkpt><trkpt lat="44.8507383" lon="7.9987083"><ele>287.2</ele><time>2026-04-05T09:07:04.847Z</time></trkpt><trkpt lat="44.8506467" lon="7.9988133"><ele>287.4</ele><time>2026-04-05T09:07:06.846Z</time></trkpt><trkpt lat="44.8505833" lon="7.99896"><ele>287.6</ele><time>2026-04-05T09:07:08.847Z</time></trkpt><trkpt lat="44.850565" lon="7.99905"><ele>287.8</ele><time>2026-04-05T09:07:09.847Z</time></trkpt><trkpt lat="44.8505567" lon="7.9991583"><ele>288.0</ele><time>2026-04-05T09:07:10.847Z</time></trkpt><trkpt lat="44.8505467" lon="7.99928"><ele>286.0</ele><time>2026-04-05T09:07:11.846Z</time></trkpt><trkpt lat="44.8505433" lon="7.9993967"><ele>284.0</ele><time>2026-04-05T09:07:12.847Z</time></trkpt><trkpt lat="44.8505383" lon="7.9995217"><ele>282.0</ele><time>2026-04-05T09:07:13.847Z</time></trkpt><trkpt lat="44.8505233" lon="7.99966"><ele>280.0</ele><time>2026-04-05T09:07:14.847Z</time></trkpt><trkpt lat="44.8505117" lon="7.9998033"><ele>278.0</ele><time>2026-04-05T09:07:15.846Z</time></trkpt><trkpt lat="44.850515" lon="7.99991"><ele>276.0</ele><time>2026-04-05T09:07:16.848Z</time></trkpt><trkpt lat="44.8505217" lon="8.0000233"><ele>276.0</ele><time>2026-04-05T09:07:17.847Z</time></trkpt><trkpt lat="44.8505167" lon="8.0001367"><ele>276.0</ele><time>2026-04-05T09:07:18.848Z</time></trkpt><trkpt lat="44.85052" lon="8.0002483"><ele>276.0</ele><time>2026-04-05T09:07:19.848Z</time></trkpt><trkpt lat="44.8505133" lon="8.00036"><ele>276.0</ele><time>2026-04-05T09:07:20.848Z</time></trkpt><trkpt lat="44.8505117" lon="8.00052"><ele>276.0</ele><time>2026-04-05T09:07:22.847Z</time></trkpt><trkpt lat="44.8505133" lon="8.0006233"><ele>276.0</ele><time>2026-04-05T09:07:24.848Z</time></trkpt><trkpt lat="44.8504983" lon="8.0007117"><ele>275.2</ele><time>2026-04-05T09:07:42.847Z</time></trkpt><trkpt lat="44.850525" lon="8.00084"><ele>274.40000000000003</ele><time>2026-04-05T09:07:44.848Z</time></trkpt><trkpt lat="44.8505467" lon="8.000985"><ele>273.6</ele><time>2026-04-05T09:07:46.847Z</time></trkpt><trkpt lat="44.8505433" lon="8.0011267"><ele>272.8</ele><time>2026-04-05T09:07:48.848Z</time></trkpt><trkpt lat="44.85051" lon="8.00126"><ele>272.0</ele><time>2026-04-05T09:07:50.848Z</time></trkpt><trkpt lat="44.8504283" lon="8.001345"><ele>272.0</ele><time>2026-04-05T09:07:52.848Z</time></trkpt><trkpt lat="44.8503383" lon="8.00133"><ele>272.0</ele><time>2026-04-05T09:07:54.848Z</time></trkpt><trkpt lat="44.8502667" lon="8.0012417"><ele>272.0</ele><time>2026-04-05T09:07:56.847Z</time></trkpt><trkpt lat="44.8501967" lon="8.001115"><ele>272.0</ele><time>2026-04-05T09:07:58.848Z</time></trkpt><trkpt lat="44.8501" lon="8.0010083"><ele>272.0</ele><time>2026-04-05T09:08:00.848Z</time></trkpt><trkpt lat="44.8499883" lon="8.0009583"><ele>272.6666666666667</ele><time>2026-04-05T09:08:02.847Z</time></trkpt><trkpt lat="44.849875" lon="8.00095"><ele>273.33333333333337</ele><time>2026-04-05T09:08:04.848Z</time></trkpt><trkpt lat="44.8497533" lon="8.00096"><ele>274.0</ele><time>2026-04-05T09:08:06.848Z</time></trkpt><trkpt lat="44.84969" lon="8.0009617"><ele>274.6666666666667</ele><time>2026-04-05T09:08:07.848Z</time></trkpt><trkpt lat="44.849625" lon="8.0009717"><ele>275.3333333333333</ele><time>2026-04-05T09:08:08.848Z</time></trkpt><trkpt lat="44.849555" lon="8.0009783"><ele>276.0</ele><time>2026-04-05T09:08:09.848Z</time></trkpt><trkpt lat="44.849485" lon="8.00098"><ele>276.0</ele><time>2026-04-05T09:08:10.848Z</time></trkpt><trkpt lat="44.8494117" lon="8.0009683"><ele>276.0</ele><time>2026-04-05T09:08:11.848Z</time></trkpt><trkpt lat="44.84934" lon="8.0009483"><ele>276.0</ele><time>2026-04-05T09:08:12.848Z</time></trkpt><trkpt lat="44.8492683" lon="8.0009333"><ele>276.0</ele><time>2026-04-05T09:08:13.848Z</time></trkpt><trkpt lat="44.8492" lon="8.0009233"><ele>276.0</ele><time>2026-04-05T09:08:14.847Z</time></trkpt><trkpt lat="44.84913" lon="8.00092"><ele>276.0</ele><time>2026-04-05T09:08:15.848Z</time></trkpt><trkpt lat="44.8490667" lon="8.0009367"><ele>276.0</ele><time>2026-04-05T09:08:16.848Z</time></trkpt><trkpt lat="44.8489783" lon="8.0010533"><ele>272.8</ele><time>2026-04-05T09:08:18.848Z</time></trkpt><trkpt lat="44.8489363" lon="8.0011302"><ele>269.6</ele><time>2026-04-05T09:08:19.848Z</time></trkpt><trkpt lat="44.8488933" lon="8.0012095"><ele>266.4</ele><time>2026-04-05T09:08:20.848Z</time></trkpt><trkpt lat="44.8488373" lon="8.0013651"><ele>263.2</ele><time>2026-04-05T09:08:22.848Z</time></trkpt><trkpt lat="44.8488224" lon="8.0015363"><ele>260.0</ele><time>2026-04-05T09:08:24.847Z</time></trkpt><trkpt lat="44.8488552" lon="8.0016137"><ele>259.5714285714286</ele><time>2026-04-05T09:08:25.848Z</time></trkpt><trkpt lat="44.8489087" lon="8.0016723"><ele>259.14285714285717</ele><time>2026-04-05T09:08:26.848Z</time></trkpt><trkpt lat="44.8489734" lon="8.0017043"><ele>258.7142857142857</ele><time>2026-04-05T09:08:27.848Z</time></trkpt><trkpt lat="44.8490478" lon="8.0017185"><ele>258.28571428571433</ele><time>2026-04-05T09:08:28.848Z</time></trkpt><trkpt lat="44.8491216" lon="8.0017196"><ele>257.8571428571429</ele><time>2026-04-05T09:08:29.848Z</time></trkpt><trkpt lat="44.8491953" lon="8.0017006"><ele>257.42857142857144</ele><time>2026-04-05T09:08:30.848Z</time></trkpt><trkpt lat="44.8492634" lon="8.0016812"><ele>257.0</ele><time>2026-04-05T09:08:31.848Z</time></trkpt><trkpt lat="44.8493812" lon="8.0016818"><ele>257.0</ele><time>2026-04-05T09:08:33.848Z</time></trkpt><trkpt lat="44.8494397" lon="8.0017858"><ele>257.0</ele><time>2026-04-05T09:08:35.848Z</time></trkpt><trkpt lat="44.8494304" lon="8.0018751"><ele>257.0</ele><time>2026-04-05T09:08:36.848Z</time></trkpt><trkpt lat="44.8493968" lon="8.0019518"><ele>257.0</ele><time>2026-04-05T09:08:37.847Z</time></trkpt><trkpt lat="44.8493435" lon="8.0020181"><ele>257.0</ele><time>2026-04-05T09:08:38.847Z</time></trkpt><trkpt lat="44.8492782" lon="8.002078"><ele>257.0</ele><time>2026-04-05T09:08:39.848Z</time></trkpt><trkpt lat="44.8492169" lon="8.0021423"><ele>257.0</ele><time>2026-04-05T09:08:40.848Z</time></trkpt><trkpt lat="44.8491725" lon="8.002217"><ele>256.0</ele><time>2026-04-05T09:08:41.847Z</time></trkpt><trkpt lat="44.8491478" lon="8.0023542"><ele>255.0</ele><time>2026-04-05T09:08:43.848Z</time></trkpt><trkpt lat="44.8491442" lon="8.0024717"><ele>254.0</ele><time>2026-04-05T09:08:45.848Z</time></trkpt><trkpt lat="44.8491275" lon="8.0026285"><ele>253.0</ele><time>2026-04-05T09:08:47.847Z</time></trkpt><trkpt lat="44.8491203" lon="8.002726"><ele>252.00000000000003</ele><time>2026-04-05T09:08:48.848Z</time></trkpt><trkpt lat="44.8491151" lon="8.0028213"><ele>251.0</ele><time>2026-04-05T09:08:49.847Z</time></trkpt><trkpt lat="44.8490983" lon="8.0029907"><ele>248.83333333333334</ele><time>2026-04-05T09:08:51.848Z</time></trkpt><trkpt lat="44.8490797" lon="8.0031469"><ele>246.66666666666669</ele><time>2026-04-05T09:08:53.848Z</time></trkpt><trkpt lat="44.8490668" lon="8.0032635"><ele>244.5</ele><time>2026-04-05T09:08:55.847Z</time></trkpt><trkpt lat="44.8490414" lon="8.0033645"><ele>242.33333333333331</ele><time>2026-04-05T09:08:58.848Z</time></trkpt><trkpt lat="44.8490967" lon="8.00348"><ele>240.16666666666666</ele><time>2026-04-05T09:09:10.848Z</time></trkpt><trkpt lat="44.849155" lon="8.0035167"><ele>238.0</ele><time>2026-04-05T09:09:11.848Z</time></trkpt><trkpt lat="44.8492233" lon="8.003555"><ele>238.0</ele><time>2026-04-05T09:09:12.848Z</time></trkpt><trkpt lat="44.8492883" lon="8.0035983"><ele>238.0</ele><time>2026-04-05T09:09:13.848Z</time></trkpt><trkpt lat="44.849355" lon="8.003635"><ele>238.0</ele><time>2026-04-05T09:09:14.848Z</time></trkpt><trkpt lat="44.84942" lon="8.003675"><ele>238.0</ele><time>2026-04-05T09:09:15.848Z</time></trkpt><trkpt lat="44.8494867" lon="8.0037133"><ele>238.0</ele><time>2026-04-05T09:09:16.848Z</time></trkpt><trkpt lat="44.8495517" lon="8.0037517"><ele>238.0</ele><time>2026-04-05T09:09:17.848Z</time></trkpt><trkpt lat="44.8496167" lon="8.0037867"><ele>238.0</ele><time>2026-04-05T09:09:18.848Z</time></trkpt><trkpt lat="44.8496883" lon="8.0038267"><ele>237.71428571428572</ele><time>2026-04-05T09:09:19.848Z</time></trkpt><trkpt lat="44.84976" lon="8.0038683"><ele>237.42857142857144</ele><time>2026-04-05T09:09:20.848Z</time></trkpt><trkpt lat="44.84983" lon="8.0039067"><ele>237.14285714285714</ele><time>2026-04-05T09:09:21.848Z</time></trkpt><trkpt lat="44.8498983" lon="8.0039483"><ele>236.85714285714286</ele><time>2026-04-05T09:09:22.848Z</time></trkpt><trkpt lat="44.849965" lon="8.0039883"><ele>236.57142857142858</ele><time>2026-04-05T09:09:23.847Z</time></trkpt><trkpt lat="44.8500267" lon="8.0040283"><ele>236.28571428571428</ele><time>2026-04-05T09:09:24.847Z</time></trkpt><trkpt lat="44.8500867" lon="8.00406"><ele>236.0</ele><time>2026-04-05T09:09:25.848Z</time></trkpt><trkpt lat="44.8501817" lon="8.004125"><ele>236.4</ele><time>2026-04-05T09:09:27.848Z</time></trkpt><trkpt lat="44.850235" lon="8.0041967"><ele>236.8</ele><time>2026-04-05T09:09:29.848Z</time></trkpt><trkpt lat="44.8502067" lon="8.00428"><ele>237.20000000000002</ele><time>2026-04-05T09:09:31.848Z</time></trkpt><trkpt lat="44.8501" lon="8.004335"><ele>237.60000000000002</ele><time>2026-04-05T09:09:33.848Z</time></trkpt><trkpt lat="44.84998" lon="8.0044"><ele>238.0</ele><time>2026-04-05T09:09:35.848Z</time></trkpt><trkpt lat="44.84987" lon="8.0044817"><ele>238.0</ele><time>2026-04-05T09:09:37.848Z</time></trkpt><trkpt lat="44.8497783" lon="8.0045783"><ele>238.0</ele><time>2026-04-05T09:09:39.848Z</time></trkpt><trkpt lat="44.8496883" lon="8.0046583"><ele>238.0</ele><time>2026-04-05T09:09:41.848Z</time></trkpt><trkpt lat="44.849595" lon="8.0047517"><ele>238.0</ele><time>2026-04-05T09:09:43.848Z</time></trkpt><trkpt lat="44.849495" lon="8.0048467"><ele>238.0</ele><time>2026-04-05T09:09:45.848Z</time></trkpt><trkpt lat="44.8494083" lon="8.0049283"><ele>238.0</ele><time>2026-04-05T09:09:47.848Z</time></trkpt><trkpt lat="44.849305" lon="8.00505"><ele>238.0</ele><time>2026-04-05T09:09:49.848Z</time></trkpt><trkpt lat="44.8492483" lon="8.0051217"><ele>238.0</ele><time>2026-04-05T09:09:50.848Z</time></trkpt><trkpt lat="44.849185" lon="8.0051867"><ele>238.0</ele><time>2026-04-05T09:09:51.848Z</time></trkpt><trkpt lat="44.849125" lon="8.00525"><ele>239.28571428571428</ele><time>2026-04-05T09:09:52.848Z</time></trkpt><trkpt lat="44.8490667" lon="8.005325"><ele>240.57142857142856</ele><time>2026-04-05T09:09:53.848Z</time></trkpt><trkpt lat="44.8490167" lon="8.0053933"><ele>241.85714285714286</ele><time>2026-04-05T09:09:54.848Z</time></trkpt><trkpt lat="44.848965" lon="8.0054583"><ele>243.14285714285714</ele><time>2026-04-05T09:09:55.848Z</time></trkpt><trkpt lat="44.8489133" lon="8.005515"><ele>244.42857142857142</ele><time>2026-04-05T09:09:56.848Z</time></trkpt><trkpt lat="44.8488517" lon="8.005575"><ele>245.71428571428572</ele><time>2026-04-05T09:09:57.848Z</time></trkpt><trkpt lat="44.8487867" lon="8.0056233"><ele>247.0</ele><time>2026-04-05T09:09:58.848Z</time></trkpt><trkpt lat="44.8487183" lon="8.00567"><ele>247.0</ele><time>2026-04-05T09:09:59.848Z</time></trkpt><trkpt lat="44.84866" lon="8.0057083"><ele>247.0</ele><time>2026-04-05T09:10:00.848Z</time></trkpt><trkpt lat="44.8485983" lon="8.0057383"><ele>247.0</ele><time>2026-04-05T09:10:01.848Z</time></trkpt><trkpt lat="44.8485367" lon="8.0057717"><ele>247.0</ele><time>2026-04-05T09:10:02.848Z</time></trkpt><trkpt lat="44.848475" lon="8.0058067"><ele>247.0</ele><time>2026-04-05T09:10:03.848Z</time></trkpt><trkpt lat="44.8484133" lon="8.00584"><ele>247.0</ele><time>2026-04-05T09:10:04.848Z</time></trkpt><trkpt lat="44.8483483" lon="8.0058717"><ele>247.0</ele><time>2026-04-05T09:10:05.848Z</time></trkpt><trkpt lat="44.848285" lon="8.00591"><ele>246.49999999999997</ele><time>2026-04-05T09:10:06.848Z</time></trkpt><trkpt lat="44.8482217" lon="8.0059517"><ele>246.0</ele><time>2026-04-05T09:10:07.848Z</time></trkpt><trkpt lat="44.8481533" lon="8.0060033"><ele>245.5</ele><time>2026-04-05T09:10:08.848Z</time></trkpt><trkpt lat="44.8480933" lon="8.0060617"><ele>245.0</ele><time>2026-04-05T09:10:09.848Z</time></trkpt><trkpt lat="44.84803" lon="8.0061233"><ele>244.49999999999997</ele><time>2026-04-05T09:10:10.848Z</time></trkpt><trkpt lat="44.84798" lon="8.0061883"><ele>244.0</ele><time>2026-04-05T09:10:11.848Z</time></trkpt><trkpt lat="44.8479017" lon="8.006305"><ele>243.99999999999997</ele><time>2026-04-05T09:10:13.848Z</time></trkpt><trkpt lat="44.84786" lon="8.0063967"><ele>244.0</ele><time>2026-04-05T09:10:18.848Z</time></trkpt><trkpt lat="44.84783" lon="8.0065217"><ele>244.0</ele><time>2026-04-05T09:10:20.848Z</time></trkpt><trkpt lat="44.8478067" lon="8.00661"><ele>244.0</ele><time>2026-04-05T09:10:21.848Z</time></trkpt><trkpt lat="44.8477833" lon="8.0067117"><ele>243.99999999999997</ele><time>2026-04-05T09:10:22.847Z</time></trkpt><trkpt lat="44.84776" lon="8.00681"><ele>244.0</ele><time>2026-04-05T09:10:23.848Z</time></trkpt><trkpt lat="44.8477367" lon="8.0069067"><ele>245.16666666666666</ele><time>2026-04-05T09:10:24.848Z</time></trkpt><trkpt lat="44.8477117" lon="8.0070133"><ele>246.33333333333331</ele><time>2026-04-05T09:10:25.848Z</time></trkpt><trkpt lat="44.8476867" lon="8.007125"><ele>247.5</ele><time>2026-04-05T09:10:26.848Z</time></trkpt><trkpt lat="44.8476633" lon="8.0072333"><ele>248.66666666666669</ele><time>2026-04-05T09:10:27.848Z</time></trkpt><trkpt lat="44.8476333" lon="8.0073333"><ele>249.83333333333334</ele><time>2026-04-05T09:10:28.848Z</time></trkpt><trkpt lat="44.8476033" lon="8.0074333"><ele>251.0</ele><time>2026-04-05T09:10:29.848Z</time></trkpt><trkpt lat="44.8475733" lon="8.007515"><ele>251.0</ele><time>2026-04-05T09:10:30.848Z</time></trkpt><trkpt lat="44.8475283" lon="8.0076283"><ele>251.00000000000003</ele><time>2026-04-05T09:10:32.848Z</time></trkpt><trkpt lat="44.8475533" lon="8.00771"><ele>251.00000000000003</ele><time>2026-04-05T09:10:38.848Z</time></trkpt><trkpt lat="44.847645" lon="8.0077717"><ele>251.0</ele><time>2026-04-05T09:10:45.848Z</time></trkpt><trkpt lat="44.84773" lon="8.007875"><ele>251.0</ele><time>2026-04-05T09:10:47.848Z</time></trkpt><trkpt lat="44.8478067" lon="8.0079717"><ele>253.0</ele><time>2026-04-05T09:10:49.848Z</time></trkpt><trkpt lat="44.84785" lon="8.0080783"><ele>255.00000000000003</ele><time>2026-04-05T09:10:51.847Z</time></trkpt><trkpt lat="44.8479067" lon="8.00823"><ele>257.0</ele><time>2026-04-05T09:10:53.848Z</time></trkpt><trkpt lat="44.847975" lon="8.008385"><ele>259.0</ele><time>2026-04-05T09:10:55.848Z</time></trkpt><trkpt lat="44.84801" lon="8.0084733"><ele>261.0</ele><time>2026-04-05T09:10:56.848Z</time></trkpt><trkpt lat="44.84805" lon="8.00857"><ele>261.6666666666667</ele><time>2026-04-05T09:10:57.848Z</time></trkpt><trkpt lat="44.8480867" lon="8.0086833"><ele>262.3333333333333</ele><time>2026-04-05T09:10:58.848Z</time></trkpt><trkpt lat="44.848115" lon="8.0087917"><ele>263.0</ele><time>2026-04-05T09:10:59.848Z</time></trkpt><trkpt lat="44.8481383" lon="8.0088767"><ele>263.66666666666663</ele><time>2026-04-05T09:11:00.848Z</time></trkpt><trkpt lat="44.8481933" lon="8.0089633"><ele>264.3333333333333</ele><time>2026-04-05T09:11:02.848Z</time></trkpt><trkpt lat="44.8482817" lon="8.0088933"><ele>265.0</ele><time>2026-04-05T09:11:05.848Z</time></trkpt><trkpt lat="44.84835" lon="8.008785"><ele>265.0</ele><time>2026-04-05T09:11:07.848Z</time></trkpt><trkpt lat="44.8484367" lon="8.0087"><ele>265.0</ele><time>2026-04-05T09:11:09.848Z</time></trkpt><trkpt lat="44.8485017" lon="8.0087033"><ele>265.0</ele><time>2026-04-05T09:11:10.848Z</time></trkpt><trkpt lat="44.848545" lon="8.008815"><ele>265.0</ele><time>2026-04-05T09:11:12.848Z</time></trkpt><trkpt lat="44.8484983" lon="8.0089167"><ele>265.0</ele><time>2026-04-05T09:11:14.848Z</time></trkpt><trkpt lat="44.8484817" lon="8.00907"><ele>268.8333333333333</ele><time>2026-04-05T09:11:16.848Z</time></trkpt><trkpt lat="44.8484983" lon="8.0091633"><ele>272.66666666666663</ele><time>2026-04-05T09:11:17.848Z</time></trkpt><trkpt lat="44.8485283" lon="8.009245"><ele>276.5</ele><time>2026-04-05T09:11:18.847Z</time></trkpt><trkpt lat="44.8485617" lon="8.0093383"><ele>280.3333333333333</ele><time>2026-04-05T09:11:19.848Z</time></trkpt><trkpt lat="44.8485967" lon="8.00942"><ele>284.1666666666667</ele><time>2026-04-05T09:11:20.848Z</time></trkpt><trkpt lat="44.848695" lon="8.0095383"><ele>288.0</ele><time>2026-04-05T09:11:22.848Z</time></trkpt><trkpt lat="44.8487617" lon="8.0095717"><ele>288.0</ele><time>2026-04-05T09:11:23.848Z</time></trkpt><trkpt lat="44.84883" lon="8.00957"><ele>288.0</ele><time>2026-04-05T09:11:24.848Z</time></trkpt><trkpt lat="44.8489" lon="8.0095383"><ele>288.0</ele><time>2026-04-05T09:11:25.848Z</time></trkpt><trkpt lat="44.8489667" lon="8.0094733"><ele>288.0</ele><time>2026-04-05T09:11:26.848Z</time></trkpt><trkpt lat="44.8490333" lon="8.0094083"><ele>288.0</ele><time>2026-04-05T09:11:27.848Z</time></trkpt><trkpt lat="44.8490917" lon="8.0093517"><ele>288.0</ele><time>2026-04-05T09:11:28.847Z</time></trkpt><trkpt lat="44.849195" lon="8.0092783"><ele>288.3333333333333</ele><time>2026-04-05T09:11:30.848Z</time></trkpt><trkpt lat="44.8493017" lon="8.0093833"><ele>288.6666666666667</ele><time>2026-04-05T09:11:32.847Z</time></trkpt><trkpt lat="44.84936" lon="8.009445"><ele>289.0</ele><time>2026-04-05T09:11:33.848Z</time></trkpt><trkpt lat="44.8494167" lon="8.009485"><ele>289.33333333333337</ele><time>2026-04-05T09:11:34.847Z</time></trkpt><trkpt lat="44.8494817" lon="8.0094883"><ele>289.6666666666667</ele><time>2026-04-05T09:11:35.848Z</time></trkpt><trkpt lat="44.8495483" lon="8.0095"><ele>290.0</ele><time>2026-04-05T09:11:36.847Z</time></trkpt><trkpt lat="44.8496183" lon="8.00949"><ele>290.0</ele><time>2026-04-05T09:11:37.848Z</time></trkpt><trkpt lat="44.8496883" lon="8.0094583"><ele>290.0</ele><time>2026-04-05T09:11:38.848Z</time></trkpt><trkpt lat="44.8497533" lon="8.0094033"><ele>290.0</ele><time>2026-04-05T09:11:39.848Z</time></trkpt><trkpt lat="44.849815" lon="8.00933"><ele>290.0</ele><time>2026-04-05T09:11:40.848Z</time></trkpt><trkpt lat="44.8498617" lon="8.0092267"><ele>290.0</ele><time>2026-04-05T09:11:41.847Z</time></trkpt><trkpt lat="44.8498883" lon="8.009125"><ele>290.0</ele><time>2026-04-05T09:11:42.847Z</time></trkpt><trkpt lat="44.8498917" lon="8.008965"><ele>291.8</ele><time>2026-04-05T09:11:44.848Z</time></trkpt><trkpt lat="44.849885" lon="8.0088133"><ele>293.6</ele><time>2026-04-05T09:11:46.847Z</time></trkpt><trkpt lat="44.84989" lon="8.0086883"><ele>295.4</ele><time>2026-04-05T09:11:48.848Z</time></trkpt><trkpt lat="44.8499083" lon="8.0085717"><ele>297.2</ele><time>2026-04-05T09:11:50.848Z</time></trkpt><trkpt lat="44.8499683" lon="8.0084933"><ele>299.0</ele><time>2026-04-05T09:11:52.848Z</time></trkpt><trkpt lat="44.85006" lon="8.0084733"><ele>297.5</ele><time>2026-04-05T09:11:54.848Z</time></trkpt><trkpt lat="44.850195" lon="8.0084633"><ele>296.0</ele><time>2026-04-05T09:11:56.848Z</time></trkpt><trkpt lat="44.8502717" lon="8.008445"><ele>294.5</ele><time>2026-04-05T09:11:57.847Z</time></trkpt><trkpt lat="44.85034" lon="8.0084233"><ele>293.0</ele><time>2026-04-05T09:11:58.848Z</time></trkpt><trkpt lat="44.8504067" lon="8.0084"><ele>291.5</ele><time>2026-04-05T09:11:59.847Z</time></trkpt><trkpt lat="44.8504833" lon="8.0083567"><ele>290.0</ele><time>2026-04-05T09:12:00.848Z</time></trkpt><trkpt lat="44.8505617" lon="8.008335"><ele>288.33333333333337</ele><time>2026-04-05T09:12:01.848Z</time></trkpt><trkpt lat="44.8506383" lon="8.0083183"><ele>286.6666666666667</ele><time>2026-04-05T09:12:02.848Z</time></trkpt><trkpt lat="44.850705" lon="8.0083133"><ele>285.0</ele><time>2026-04-05T09:12:03.848Z</time></trkpt><trkpt lat="44.8507767" lon="8.0082983"><ele>283.3333333333333</ele><time>2026-04-05T09:12:04.848Z</time></trkpt><trkpt lat="44.8508517" lon="8.0082633"><ele>281.66666666666663</ele><time>2026-04-05T09:12:05.848Z</time></trkpt><trkpt lat="44.8509367" lon="8.0082283"><ele>280.0</ele><time>2026-04-05T09:12:06.848Z</time></trkpt><trkpt lat="44.851035" lon="8.0082"><ele>280.0</ele><time>2026-04-05T09:12:07.847Z</time></trkpt><trkpt lat="44.8511433" lon="8.0081683"><ele>280.0</ele><time>2026-04-05T09:12:08.847Z</time></trkpt><trkpt lat="44.8512483" lon="8.0081267"><ele>280.0</ele><time>2026-04-05T09:12:09.848Z</time></trkpt><trkpt lat="44.8513533" lon="8.008075"><ele>280.0</ele><time>2026-04-05T09:12:10.848Z</time></trkpt><trkpt lat="44.8514517" lon="8.0080317"><ele>280.0</ele><time>2026-04-05T09:12:11.848Z</time></trkpt><trkpt lat="44.8515333" lon="8.0079983"><ele>280.0</ele><time>2026-04-05T09:12:12.848Z</time></trkpt><trkpt lat="44.8516183" lon="8.007965"><ele>280.0</ele><time>2026-04-05T09:12:13.848Z</time></trkpt><trkpt lat="44.851695" lon="8.0079333"><ele>280.0</ele><time>2026-04-05T09:12:14.848Z</time></trkpt><trkpt lat="44.8517633" lon="8.0079067"><ele>280.0</ele><time>2026-04-05T09:12:15.848Z</time></trkpt><trkpt lat="44.8518617" lon="8.0079017"><ele>280.0</ele><time>2026-04-05T09:12:17.848Z</time></trkpt><trkpt lat="44.8519317" lon="8.0079433"><ele>280.0</ele><time>2026-04-05T09:12:19.848Z</time></trkpt><trkpt lat="44.8520083" lon="8.0079783"><ele>278.8</ele><time>2026-04-05T09:12:21.848Z</time></trkpt><trkpt lat="44.8520817" lon="8.0079867"><ele>277.6</ele><time>2026-04-05T09:12:23.848Z</time></trkpt><trkpt lat="44.852175" lon="8.007955"><ele>276.4</ele><time>2026-04-05T09:12:26.848Z</time></trkpt><trkpt lat="44.8522633" lon="8.007975"><ele>275.2</ele><time>2026-04-05T09:12:28.848Z</time></trkpt><trkpt lat="44.852365" lon="8.0080283"><ele>274.0</ele><time>2026-04-05T09:12:30.848Z</time></trkpt><trkpt lat="44.85246" lon="8.0080917"><ele>274.0</ele><time>2026-04-05T09:12:32.848Z</time></trkpt><trkpt lat="44.852555" lon="8.008175"><ele>274.0</ele><time>2026-04-05T09:12:34.848Z</time></trkpt><trkpt lat="44.85265" lon="8.008265"><ele>274.0</ele><time>2026-04-05T09:12:36.848Z</time></trkpt><trkpt lat="44.8527283" lon="8.0083817"><ele>274.0</ele><time>2026-04-05T09:12:38.848Z</time></trkpt><trkpt lat="44.8527967" lon="8.00848"><ele>274.0</ele><time>2026-04-05T09:12:40.848Z</time></trkpt><trkpt lat="44.8528467" lon="8.0085733"><ele>275.0</ele><time>2026-04-05T09:12:42.848Z</time></trkpt><trkpt lat="44.85294" lon="8.0086133"><ele>276.0</ele><time>2026-04-05T09:12:48.848Z</time></trkpt><trkpt lat="44.85301" lon="8.0085983"><ele>277.0</ele><time>2026-04-05T09:12:50.847Z</time></trkpt><trkpt lat="44.8530867" lon="8.00861"><ele>278.0</ele><time>2026-04-05T09:12:52.848Z</time></trkpt><trkpt lat="44.853205" lon="8.0086383"><ele>279.0</ele><time>2026-04-05T09:12:54.848Z</time></trkpt><trkpt lat="44.8532683" lon="8.0086483"><ele>280.0</ele><time>2026-04-05T09:12:55.848Z</time></trkpt><trkpt lat="44.8533683" lon="8.0086667"><ele>280.0</ele><time>2026-04-05T09:12:57.847Z</time></trkpt><trkpt lat="44.853455" lon="8.0085933"><ele>280.0</ele><time>2026-04-05T09:12:59.848Z</time></trkpt><trkpt lat="44.85353" lon="8.008495"><ele>280.0</ele><time>2026-04-05T09:13:01.848Z</time></trkpt><trkpt lat="44.8535417" lon="8.0083933"><ele>280.0</ele><time>2026-04-05T09:13:04.847Z</time></trkpt><trkpt lat="44.8535967" lon="8.0083067"><ele>280.0</ele><time>2026-04-05T09:13:07.848Z</time></trkpt><trkpt lat="44.8536733" lon="8.0082717"><ele>280.0</ele><time>2026-04-05T09:13:10.847Z</time></trkpt><trkpt lat="44.8537383" lon="8.0081967"><ele>281.14285714285717</ele><time>2026-04-05T09:13:12.848Z</time></trkpt><trkpt lat="44.853795" lon="8.0081167"><ele>282.2857142857143</ele><time>2026-04-05T09:13:14.848Z</time></trkpt><trkpt lat="44.8538733" lon="8.0080433"><ele>283.42857142857144</ele><time>2026-04-05T09:13:16.848Z</time></trkpt><trkpt lat="44.8539317" lon="8.0080033"><ele>284.57142857142856</ele><time>2026-04-05T09:13:18.848Z</time></trkpt><trkpt lat="44.8539767" lon="8.0080667"><ele>285.7142857142857</ele><time>2026-04-05T09:13:21.848Z</time></trkpt><trkpt lat="44.854" lon="8.008155"><ele>286.8571428571429</ele><time>2026-04-05T09:13:23.848Z</time></trkpt><trkpt lat="44.854025" lon="8.00825"><ele>288.0</ele><time>2026-04-05T09:13:25.848Z</time></trkpt><trkpt lat="44.8540933" lon="8.0083317"><ele>288.00000000000006</ele><time>2026-04-05T09:13:27.848Z</time></trkpt><trkpt lat="44.8541483" lon="8.0083917"><ele>288.0</ele><time>2026-04-05T09:13:29.848Z</time></trkpt><trkpt lat="44.8542033" lon="8.0084617"><ele>288.0</ele><time>2026-04-05T09:13:33.848Z</time></trkpt><trkpt lat="44.8542317" lon="8.00855"><ele>288.0</ele><time>2026-04-05T09:13:35.848Z</time></trkpt><trkpt lat="44.8542667" lon="8.0086267"><ele>288.0</ele><time>2026-04-05T09:13:37.848Z</time></trkpt><trkpt lat="44.85434" lon="8.0086383"><ele>288.00000000000006</ele><time>2026-04-05T09:13:40.848Z</time></trkpt><trkpt lat="44.8543983" lon="8.0085917"><ele>288.0</ele><time>2026-04-05T09:13:43.848Z</time></trkpt><trkpt lat="44.8544633" lon="8.0085417"><ele>284.5</ele><time>2026-04-05T09:13:46.847Z</time></trkpt><trkpt lat="44.8545117" lon="8.00846"><ele>281.0</ele><time>2026-04-05T09:13:49.848Z</time></trkpt><trkpt lat="44.8545867" lon="8.008375"><ele>277.5</ele><time>2026-04-05T09:13:52.848Z</time></trkpt><trkpt lat="44.8546467" lon="8.0083417"><ele>274.0</ele><time>2026-04-05T09:13:54.847Z</time></trkpt><trkpt lat="44.8547267" lon="8.008305"><ele>270.5</ele><time>2026-04-05T09:13:57.848Z</time></trkpt><trkpt lat="44.8548333" lon="8.0083483"><ele>267.0</ele><time>2026-04-05T09:14:05.847Z</time></trkpt><trkpt lat="44.85491" lon="8.008335"><ele>264.8</ele><time>2026-04-05T09:14:07.848Z</time></trkpt><trkpt lat="44.8549867" lon="8.0083017"><ele>262.6</ele><time>2026-04-05T09:14:09.848Z</time></trkpt><trkpt lat="44.8550867" lon="8.0082333"><ele>260.40000000000003</ele><time>2026-04-05T09:14:11.848Z</time></trkpt><trkpt lat="44.8551483" lon="8.0082"><ele>258.2</ele><time>2026-04-05T09:14:12.848Z</time></trkpt><trkpt lat="44.8552567" lon="8.008135"><ele>256.0</ele><time>2026-04-05T09:14:14.848Z</time></trkpt><trkpt lat="44.8553167" lon="8.00807"><ele>254.49999999999997</ele><time>2026-04-05T09:14:17.848Z</time></trkpt><trkpt lat="44.8553733" lon="8.0080117"><ele>253.0</ele><time>2026-04-05T09:14:20.847Z</time></trkpt><trkpt lat="44.85542" lon="8.0079033"><ele>251.5</ele><time>2026-04-05T09:14:26.848Z</time></trkpt><trkpt lat="44.8554633" lon="8.0078033"><ele>250.0</ele><time>2026-04-05T09:14:35.848Z</time></trkpt><trkpt lat="44.8554883" lon="8.0077167"><ele>248.49999999999997</ele><time>2026-04-05T09:14:38.848Z</time></trkpt><trkpt lat="44.8555233" lon="8.007635"><ele>247.0</ele><time>2026-04-05T09:14:40.848Z</time></trkpt><trkpt lat="44.8555617" lon="8.0075433"><ele>245.49999999999997</ele><time>2026-04-05T09:14:42.848Z</time></trkpt><trkpt lat="44.8556067" lon="8.0074567"><ele>244.0</ele><time>2026-04-05T09:14:44.848Z</time></trkpt><trkpt lat="44.855655" lon="8.0073683"><ele>242.5</ele><time>2026-04-05T09:14:46.848Z</time></trkpt><trkpt lat="44.8557117" lon="8.0072967"><ele>241.0</ele><time>2026-04-05T09:14:48.848Z</time></trkpt><trkpt lat="44.8557717" lon="8.0072217"><ele>239.49999999999997</ele><time>2026-04-05T09:14:51.847Z</time></trkpt><trkpt lat="44.855825" lon="8.0071433"><ele>238.0</ele><time>2026-04-05T09:14:55.848Z</time></trkpt><trkpt lat="44.8558867" lon="8.0070617"><ele>238.0</ele><time>2026-04-05T09:15:58.847Z</time></trkpt><trkpt lat="44.8559667" lon="8.006985"><ele>230.0</ele><time>2026-04-05T09:16:01.848Z</time></trkpt><trkpt lat="44.8560367" lon="8.0069333"><ele>230.0</ele><time>2026-04-05T09:16:03.848Z</time></trkpt><trkpt lat="44.856115" lon="8.0068667"><ele>230.0</ele><time>2026-04-05T09:16:05.848Z</time></trkpt><trkpt lat="44.856165" lon="8.0068067"><ele>230.0</ele><time>2026-04-05T09:16:07.848Z</time></trkpt><trkpt lat="44.8562133" lon="8.0067367"><ele>230.0</ele><time>2026-04-05T09:16:10.847Z</time></trkpt></trkseg><trkseg><trkpt lat="44.8561983" lon="8.0068283"><ele>230.0</ele><time>2026-04-05T09:26:14.848Z</time></trkpt><trkpt lat="44.8561833" lon="8.006925"><ele>230.0</ele><time>2026-04-05T09:26:16.847Z</time></trkpt><trkpt lat="44.8561617" lon="8.0070567"><ele>230.0</ele><time>2026-04-05T09:26:18.848Z</time></trkpt><trkpt lat="44.856165" lon="8.0072017"><ele>230.0</ele><time>2026-04-05T09:26:20.848Z</time></trkpt><trkpt lat="44.85618" lon="8.0073683"><ele>230.0</ele><time>2026-04-05T09:26:22.848Z</time></trkpt><trkpt lat="44.8561967" lon="8.00746"><ele>230.99999999999997</ele><time>2026-04-05T09:26:23.848Z</time></trkpt><trkpt lat="44.8562133" lon="8.00755"><ele>232.0</ele><time>2026-04-05T09:26:24.848Z</time></trkpt><trkpt lat="44.8562283" lon="8.0076483"><ele>232.99999999999997</ele><time>2026-04-05T09:26:25.848Z</time></trkpt><trkpt lat="44.8562433" lon="8.007745"><ele>233.99999999999997</ele><time>2026-04-05T09:26:26.847Z</time></trkpt><trkpt lat="44.85626" lon="8.007855"><ele>235.0</ele><time>2026-04-05T09:26:27.848Z</time></trkpt><trkpt lat="44.8562683" lon="8.0079617"><ele>235.99999999999997</ele><time>2026-04-05T09:26:28.848Z</time></trkpt><trkpt lat="44.856275" lon="8.008075"><ele>236.99999999999997</ele><time>2026-04-05T09:26:29.848Z</time></trkpt><trkpt lat="44.8562833" lon="8.008175"><ele>236.99999999999997</ele><time>2026-04-05T09:26:30.848Z</time></trkpt><trkpt lat="44.8562833" lon="8.008275"><ele>237.0</ele><time>2026-04-05T09:26:31.848Z</time></trkpt><trkpt lat="44.856285" lon="8.008375"><ele>236.99999999999997</ele><time>2026-04-05T09:26:32.848Z</time></trkpt><trkpt lat="44.8562883" lon="8.008475"><ele>236.99999999999997</ele><time>2026-04-05T09:26:33.848Z</time></trkpt><trkpt lat="44.8562933" lon="8.0085817"><ele>237.0</ele><time>2026-04-05T09:26:34.848Z</time></trkpt><trkpt lat="44.8562933" lon="8.0086917"><ele>236.99999999999997</ele><time>2026-04-05T09:26:35.848Z</time></trkpt><trkpt lat="44.8562833" lon="8.008805"><ele>236.99999999999997</ele><time>2026-04-05T09:26:36.848Z</time></trkpt><trkpt lat="44.856265" lon="8.00891"><ele>239.33333333333334</ele><time>2026-04-05T09:26:37.848Z</time></trkpt><trkpt lat="44.856255" lon="8.0090067"><ele>241.66666666666669</ele><time>2026-04-05T09:26:38.848Z</time></trkpt><trkpt lat="44.8562767" lon="8.0091167"><ele>244.0</ele><time>2026-04-05T09:26:40.848Z</time></trkpt><trkpt lat="44.8563383" lon="8.0090683"><ele>246.33333333333334</ele><time>2026-04-05T09:26:42.848Z</time></trkpt><trkpt lat="44.8563883" lon="8.0090017"><ele>248.66666666666669</ele><time>2026-04-05T09:26:43.848Z</time></trkpt><trkpt lat="44.856435" lon="8.008935"><ele>251.0</ele><time>2026-04-05T09:26:44.848Z</time></trkpt><trkpt lat="44.8564967" lon="8.008825"><ele>251.0</ele><time>2026-04-05T09:26:46.847Z</time></trkpt><trkpt lat="44.856535" lon="8.0087083"><ele>251.00000000000003</ele><time>2026-04-05T09:26:48.847Z</time></trkpt><trkpt lat="44.8565967" lon="8.0085983"><ele>251.00000000000003</ele><time>2026-04-05T09:26:50.848Z</time></trkpt><trkpt lat="44.8566883" lon="8.008495"><ele>251.0</ele><time>2026-04-05T09:26:52.848Z</time></trkpt><trkpt lat="44.8567783" lon="8.008395"><ele>251.0</ele><time>2026-04-05T09:26:54.848Z</time></trkpt><trkpt lat="44.8568517" lon="8.008285"><ele>249.83333333333334</ele><time>2026-04-05T09:26:56.848Z</time></trkpt><trkpt lat="44.8569133" lon="8.00824"><ele>248.66666666666669</ele><time>2026-04-05T09:26:58.848Z</time></trkpt><trkpt lat="44.856975" lon="8.00826"><ele>247.5</ele><time>2026-04-05T09:27:01.847Z</time></trkpt><trkpt lat="44.8569967" lon="8.0083917"><ele>246.33333333333331</ele><time>2026-04-05T09:27:04.848Z</time></trkpt><trkpt lat="44.8569517" lon="8.0085183"><ele>245.16666666666666</ele><time>2026-04-05T09:27:06.847Z</time></trkpt><trkpt lat="44.8568967" lon="8.00866"><ele>244.0</ele><time>2026-04-05T09:27:08.848Z</time></trkpt><trkpt lat="44.8568483" lon="8.008795"><ele>244.0</ele><time>2026-04-05T09:27:10.848Z</time></trkpt><trkpt lat="44.8567983" lon="8.0089267"><ele>243.99999999999997</ele><time>2026-04-05T09:27:12.848Z</time></trkpt><trkpt lat="44.8567483" lon="8.009055"><ele>243.99999999999997</ele><time>2026-04-05T09:27:14.848Z</time></trkpt><trkpt lat="44.8567083" lon="8.0092033"><ele>244.0</ele><time>2026-04-05T09:27:16.848Z</time></trkpt><trkpt lat="44.8566983" lon="8.00935"><ele>244.0</ele><time>2026-04-05T09:27:18.848Z</time></trkpt><trkpt lat="44.8567017" lon="8.0094817"><ele>247.2</ele><time>2026-04-05T09:27:20.848Z</time></trkpt><trkpt lat="44.8567317" lon="8.0096317"><ele>250.39999999999998</ele><time>2026-04-05T09:27:22.848Z</time></trkpt><trkpt lat="44.8567583" lon="8.0097783"><ele>253.6</ele><time>2026-04-05T09:27:24.848Z</time></trkpt><trkpt lat="44.8567533" lon="8.009935"><ele>256.8</ele><time>2026-04-05T09:27:26.848Z</time></trkpt><trkpt lat="44.8567167" lon="8.01009"><ele>260.0</ele><time>2026-04-05T09:27:28.848Z</time></trkpt><trkpt lat="44.8566783" lon="8.010245"><ele>261.5714285714286</ele><time>2026-04-05T09:27:30.847Z</time></trkpt><trkpt lat="44.8566583" lon="8.0103317"><ele>263.14285714285717</ele><time>2026-04-05T09:27:31.848Z</time></trkpt><trkpt lat="44.8566267" lon="8.010435"><ele>264.7142857142857</ele><time>2026-04-05T09:27:32.848Z</time></trkpt><trkpt lat="44.8566017" lon="8.0105233"><ele>266.28571428571433</ele><time>2026-04-05T09:27:33.848Z</time></trkpt><trkpt lat="44.8565733" lon="8.0106067"><ele>267.8571428571429</ele><time>2026-04-05T09:27:34.848Z</time></trkpt><trkpt lat="44.8565333" lon="8.010725"><ele>269.42857142857144</ele><time>2026-04-05T09:27:36.848Z</time></trkpt><trkpt lat="44.8565333" lon="8.0108217"><ele>271.0</ele><time>2026-04-05T09:27:40.848Z</time></trkpt><trkpt lat="44.8565817" lon="8.0109183"><ele>272.0</ele><time>2026-04-05T09:27:42.848Z</time></trkpt><trkpt lat="44.8566583" lon="8.0110483"><ele>273.0</ele><time>2026-04-05T09:27:44.847Z</time></trkpt><trkpt lat="44.85673" lon="8.0111817"><ele>274.0</ele><time>2026-04-05T09:27:46.848Z</time></trkpt><trkpt lat="44.8568033" lon="8.011315"><ele>275.0</ele><time>2026-04-05T09:27:48.847Z</time></trkpt><trkpt lat="44.8568733" lon="8.0114217"><ele>275.33333333333337</ele><time>2026-04-05T09:27:50.848Z</time></trkpt><trkpt lat="44.8569467" lon="8.0115233"><ele>275.6666666666667</ele><time>2026-04-05T09:27:52.848Z</time></trkpt><trkpt lat="44.8570117" lon="8.0115983"><ele>276.0</ele><time>2026-04-05T09:27:54.847Z</time></trkpt><trkpt lat="44.8570867" lon="8.0116433"><ele>276.3333333333333</ele><time>2026-04-05T09:27:56.848Z</time></trkpt><trkpt lat="44.857195" lon="8.011645"><ele>276.66666666666663</ele><time>2026-04-05T09:27:58.847Z</time></trkpt><trkpt lat="44.857265" lon="8.0116383"><ele>277.0</ele><time>2026-04-05T09:27:59.847Z</time></trkpt><trkpt lat="44.8573283" lon="8.0116383"><ele>277.0</ele><time>2026-04-05T09:28:00.847Z</time></trkpt><trkpt lat="44.8573967" lon="8.0116333"><ele>277.0</ele><time>2026-04-05T09:28:01.848Z</time></trkpt><trkpt lat="44.8575133" lon="8.011645"><ele>277.0</ele><time>2026-04-05T09:28:03.848Z</time></trkpt><trkpt lat="44.8576183" lon="8.0116133"><ele>277.0</ele><time>2026-04-05T09:28:05.848Z</time></trkpt><trkpt lat="44.8577317" lon="8.011605"><ele>277.0</ele><time>2026-04-05T09:28:07.847Z</time></trkpt><trkpt lat="44.8578317" lon="8.011645"><ele>273.4</ele><time>2026-04-05T09:28:09.848Z</time></trkpt><trkpt lat="44.8579217" lon="8.0116883"><ele>269.79999999999995</ele><time>2026-04-05T09:28:11.848Z</time></trkpt><trkpt lat="44.8580033" lon="8.0116933"><ele>266.2</ele><time>2026-04-05T09:28:13.848Z</time></trkpt><trkpt lat="44.8580917" lon="8.01167"><ele>262.59999999999997</ele><time>2026-04-05T09:28:15.848Z</time></trkpt><trkpt lat="44.858205" lon="8.011605"><ele>259.0</ele><time>2026-04-05T09:28:17.848Z</time></trkpt><trkpt lat="44.858265" lon="8.0115617"><ele>259.0</ele><time>2026-04-05T09:28:18.847Z</time></trkpt><trkpt lat="44.85838" lon="8.0115033"><ele>259.0</ele><time>2026-04-05T09:28:20.848Z</time></trkpt><trkpt lat="44.8584433" lon="8.0114817"><ele>259.0</ele><time>2026-04-05T09:28:21.848Z</time></trkpt><trkpt lat="44.8585617" lon="8.0114467"><ele>259.0</ele><time>2026-04-05T09:28:23.848Z</time></trkpt><trkpt lat="44.85862" lon="8.01141"><ele>259.0</ele><time>2026-04-05T09:28:24.847Z</time></trkpt><trkpt lat="44.8586817" lon="8.0113817"><ele>259.0</ele><time>2026-04-05T09:28:25.848Z</time></trkpt><trkpt lat="44.85879" lon="8.01132"><ele>256.8333333333333</ele><time>2026-04-05T09:28:27.848Z</time></trkpt><trkpt lat="44.858885" lon="8.0112617"><ele>254.66666666666666</ele><time>2026-04-05T09:28:29.848Z</time></trkpt><trkpt lat="44.8589517" lon="8.0111883"><ele>252.5</ele><time>2026-04-05T09:28:31.848Z</time></trkpt><trkpt lat="44.8589867" lon="8.0111017"><ele>250.33333333333331</ele><time>2026-04-05T09:28:33.848Z</time></trkpt><trkpt lat="44.8590133" lon="8.0109767"><ele>248.16666666666666</ele><time>2026-04-05T09:28:35.848Z</time></trkpt><trkpt lat="44.8590467" lon="8.010855"><ele>246.0</ele><time>2026-04-05T09:28:37.847Z</time></trkpt><trkpt lat="44.85912" lon="8.010755"><ele>245.20000000000002</ele><time>2026-04-05T09:28:39.848Z</time></trkpt><trkpt lat="44.8592083" lon="8.0106733"><ele>244.40000000000003</ele><time>2026-04-05T09:28:41.848Z</time></trkpt><trkpt lat="44.85929" lon="8.0106017"><ele>243.6</ele><time>2026-04-05T09:28:43.848Z</time></trkpt><trkpt lat="44.8593633" lon="8.0105117"><ele>242.8</ele><time>2026-04-05T09:28:45.848Z</time></trkpt><trkpt lat="44.8594117" lon="8.01038"><ele>242.0</ele><time>2026-04-05T09:28:47.848Z</time></trkpt><trkpt lat="44.859475" lon="8.0103083"><ele>242.00000000000003</ele><time>2026-04-05T09:28:49.847Z</time></trkpt><trkpt lat="44.85955" lon="8.010325"><ele>242.0</ele><time>2026-04-05T09:28:51.848Z</time></trkpt><trkpt lat="44.8595967" lon="8.010435"><ele>242.0</ele><time>2026-04-05T09:28:53.848Z</time></trkpt><trkpt lat="44.8596417" lon="8.0106183"><ele>242.0</ele><time>2026-04-05T09:28:55.848Z</time></trkpt><trkpt lat="44.8596667" lon="8.0107133"><ele>242.00000000000003</ele><time>2026-04-05T09:28:56.847Z</time></trkpt><trkpt lat="44.8596817" lon="8.01081"><ele>242.0</ele><time>2026-04-05T09:28:57.847Z</time></trkpt><trkpt lat="44.8597" lon="8.0109"><ele>241.0</ele><time>2026-04-05T09:28:58.848Z</time></trkpt><trkpt lat="44.8597167" lon="8.0109917"><ele>239.99999999999997</ele><time>2026-04-05T09:28:59.847Z</time></trkpt><trkpt lat="44.8597283" lon="8.0110967"><ele>239.0</ele><time>2026-04-05T09:29:01.847Z</time></trkpt><trkpt lat="44.85974" lon="8.011185"><ele>238.0</ele><time>2026-04-05T09:29:04.848Z</time></trkpt><trkpt lat="44.859735" lon="8.011275"><ele>236.99999999999997</ele><time>2026-04-05T09:29:10.848Z</time></trkpt><trkpt lat="44.8596983" lon="8.01138"><ele>236.0</ele><time>2026-04-05T09:29:13.848Z</time></trkpt><trkpt lat="44.85966" lon="8.0114933"><ele>235.0</ele><time>2026-04-05T09:29:16.848Z</time></trkpt><trkpt lat="44.8596267" lon="8.0115867"><ele>234.83333333333331</ele><time>2026-04-05T09:29:27.847Z</time></trkpt><trkpt lat="44.8596033" lon="8.0117033"><ele>234.66666666666666</ele><time>2026-04-05T09:29:30.848Z</time></trkpt><trkpt lat="44.8595817" lon="8.0118083"><ele>234.5</ele><time>2026-04-05T09:29:32.848Z</time></trkpt><trkpt lat="44.859545" lon="8.0119433"><ele>234.33333333333331</ele><time>2026-04-05T09:29:34.848Z</time></trkpt><trkpt lat="44.8595033" lon="8.0120733"><ele>234.16666666666666</ele><time>2026-04-05T09:29:36.848Z</time></trkpt><trkpt lat="44.8594933" lon="8.0121883"><ele>234.0</ele><time>2026-04-05T09:29:38.848Z</time></trkpt><trkpt lat="44.8595017" lon="8.0123117"><ele>234.0</ele><time>2026-04-05T09:29:40.848Z</time></trkpt><trkpt lat="44.8595183" lon="8.0124267"><ele>233.99999999999997</ele><time>2026-04-05T09:29:42.848Z</time></trkpt><trkpt lat="44.8595417" lon="8.0125633"><ele>233.99999999999997</ele><time>2026-04-05T09:29:44.848Z</time></trkpt><trkpt lat="44.8595717" lon="8.012725"><ele>234.0</ele><time>2026-04-05T09:29:46.847Z</time></trkpt><trkpt lat="44.8596" lon="8.0128833"><ele>234.0</ele><time>2026-04-05T09:29:48.848Z</time></trkpt><trkpt lat="44.85963" lon="8.0130017"><ele>233.2</ele><time>2026-04-05T09:29:50.848Z</time></trkpt><trkpt lat="44.8596433" lon="8.0131333"><ele>232.39999999999998</ele><time>2026-04-05T09:29:52.847Z</time></trkpt><trkpt lat="44.859655" lon="8.0132617"><ele>231.6</ele><time>2026-04-05T09:29:54.847Z</time></trkpt><trkpt lat="44.859665" lon="8.0133883"><ele>230.8</ele><time>2026-04-05T09:29:56.848Z</time></trkpt><trkpt lat="44.8596967" lon="8.0134917"><ele>230.0</ele><time>2026-04-05T09:29:58.848Z</time></trkpt><trkpt lat="44.8597767" lon="8.0135733"><ele>229.50000000000003</ele><time>2026-04-05T09:30:00.847Z</time></trkpt><trkpt lat="44.85985" lon="8.013585"><ele>229.0</ele><time>2026-04-05T09:30:02.848Z</time></trkpt><trkpt lat="44.8599367" lon="8.0135333"><ele>228.5</ele><time>2026-04-05T09:30:05.848Z</time></trkpt><trkpt lat="44.860005" lon="8.0135433"><ele>228.0</ele><time>2026-04-05T09:30:07.848Z</time></trkpt><trkpt lat="44.8600983" lon="8.01358"><ele>227.50000000000003</ele><time>2026-04-05T09:30:09.848Z</time></trkpt><trkpt lat="44.8602133" lon="8.0135833"><ele>227.0</ele><time>2026-04-05T09:30:11.848Z</time></trkpt><trkpt lat="44.860335" lon="8.0135983"><ele>227.0</ele><time>2026-04-05T09:30:13.848Z</time></trkpt><trkpt lat="44.860435" lon="8.0136583"><ele>227.0</ele><time>2026-04-05T09:30:15.848Z</time></trkpt><trkpt lat="44.8605283" lon="8.0137517"><ele>227.0</ele><time>2026-04-05T09:30:17.847Z</time></trkpt><trkpt lat="44.8605983" lon="8.01385"><ele>227.0</ele><time>2026-04-05T09:30:19.848Z</time></trkpt><trkpt lat="44.8607017" lon="8.0139767"><ele>227.00000000000003</ele><time>2026-04-05T09:30:21.847Z</time></trkpt><trkpt lat="44.8607617" lon="8.0140433"><ele>227.0</ele><time>2026-04-05T09:30:22.848Z</time></trkpt><trkpt lat="44.86082" lon="8.0141133"><ele>227.0</ele><time>2026-04-05T09:30:23.848Z</time></trkpt><trkpt lat="44.8608867" lon="8.0141833"><ele>227.0</ele><time>2026-04-05T09:30:24.848Z</time></trkpt><trkpt lat="44.8609533" lon="8.0142517"><ele>227.00000000000003</ele><time>2026-04-05T09:30:25.848Z</time></trkpt><trkpt lat="44.8610183" lon="8.014315"><ele>227.0</ele><time>2026-04-05T09:30:26.848Z</time></trkpt><trkpt lat="44.8610867" lon="8.0143783"><ele>227.57142857142858</ele><time>2026-04-05T09:30:27.848Z</time></trkpt><trkpt lat="44.8611467" lon="8.01445"><ele>228.14285714285717</ele><time>2026-04-05T09:30:28.848Z</time></trkpt><trkpt lat="44.8612017" lon="8.0145117"><ele>228.71428571428572</ele><time>2026-04-05T09:30:29.848Z</time></trkpt><trkpt lat="44.8612583" lon="8.0145817"><ele>229.28571428571428</ele><time>2026-04-05T09:30:30.847Z</time></trkpt><trkpt lat="44.86131" lon="8.0146383"><ele>229.85714285714286</ele><time>2026-04-05T09:30:31.848Z</time></trkpt><trkpt lat="44.8613733" lon="8.0147017"><ele>230.42857142857144</ele><time>2026-04-05T09:30:32.848Z</time></trkpt><trkpt lat="44.86144" lon="8.0147583"><ele>231.0</ele><time>2026-04-05T09:30:33.848Z</time></trkpt><trkpt lat="44.861505" lon="8.0148083"><ele>231.0</ele><time>2026-04-05T09:30:34.848Z</time></trkpt><trkpt lat="44.861575" lon="8.0148517"><ele>231.0</ele><time>2026-04-05T09:30:35.848Z</time></trkpt><trkpt lat="44.861645" lon="8.0148883"><ele>231.0</ele><time>2026-04-05T09:30:36.848Z</time></trkpt><trkpt lat="44.8617117" lon="8.0149217"><ele>231.0</ele><time>2026-04-05T09:30:37.848Z</time></trkpt><trkpt lat="44.8617767" lon="8.014945"><ele>231.0</ele><time>2026-04-05T09:30:38.848Z</time></trkpt><trkpt lat="44.8618417" lon="8.0149667"><ele>231.0</ele><time>2026-04-05T09:30:39.848Z</time></trkpt><trkpt lat="44.8619517" lon="8.0150217"><ele>229.83333333333334</ele><time>2026-04-05T09:30:41.848Z</time></trkpt><trkpt lat="44.8620067" lon="8.0150717"><ele>228.66666666666669</ele><time>2026-04-05T09:30:42.847Z</time></trkpt><trkpt lat="44.8620567" lon="8.0151283"><ele>227.5</ele><time>2026-04-05T09:30:43.848Z</time></trkpt><trkpt lat="44.862105" lon="8.01519"><ele>226.33333333333334</ele><time>2026-04-05T09:30:44.848Z</time></trkpt><trkpt lat="44.8622067" lon="8.0152783"><ele>225.16666666666669</ele><time>2026-04-05T09:30:46.848Z</time></trkpt><trkpt lat="44.862265" lon="8.015315"><ele>224.0</ele><time>2026-04-05T09:30:47.848Z</time></trkpt><trkpt lat="44.86233" lon="8.0153583"><ele>224.00000000000003</ele><time>2026-04-05T09:30:48.848Z</time></trkpt><trkpt lat="44.862385" lon="8.0154033"><ele>224.0</ele><time>2026-04-05T09:30:49.847Z</time></trkpt><trkpt lat="44.86246" lon="8.0154883"><ele>224.0</ele><time>2026-04-05T09:30:51.848Z</time></trkpt><trkpt lat="44.86251" lon="8.0155583"><ele>224.0</ele><time>2026-04-05T09:30:54.848Z</time></trkpt><trkpt lat="44.8625833" lon="8.0155967"><ele>224.00000000000003</ele><time>2026-04-05T09:30:56.848Z</time></trkpt><trkpt lat="44.8626633" lon="8.0156567"><ele>224.0</ele><time>2026-04-05T09:30:58.848Z</time></trkpt><trkpt lat="44.86271" lon="8.0157617"><ele>222.16666666666669</ele><time>2026-04-05T09:31:00.847Z</time></trkpt><trkpt lat="44.86274" lon="8.015895"><ele>220.33333333333334</ele><time>2026-04-05T09:31:02.847Z</time></trkpt><trkpt lat="44.862765" lon="8.01604"><ele>218.5</ele><time>2026-04-05T09:31:04.848Z</time></trkpt><trkpt lat="44.8628033" lon="8.0161583"><ele>216.66666666666669</ele><time>2026-04-05T09:31:06.848Z</time></trkpt><trkpt lat="44.86285" lon="8.0162517"><ele>214.83333333333334</ele><time>2026-04-05T09:31:08.848Z</time></trkpt><trkpt lat="44.8628933" lon="8.0163167"><ele>213.0</ele><time>2026-04-05T09:31:10.848Z</time></trkpt><trkpt lat="44.862945" lon="8.0163883"><ele>213.0</ele><time>2026-04-05T09:31:14.848Z</time></trkpt><trkpt lat="44.8628667" lon="8.0163667"><ele>213.0</ele><time>2026-04-05T09:31:23.848Z</time></trkpt><trkpt lat="44.862805" lon="8.0164067"><ele>213.0</ele><time>2026-04-05T09:31:27.848Z</time></trkpt><trkpt lat="44.8627467" lon="8.0164783"><ele>213.0</ele><time>2026-04-05T09:31:40.848Z</time></trkpt><trkpt lat="44.8626467" lon="8.0165883"><ele>213.0</ele><time>2026-04-05T09:31:42.848Z</time></trkpt><trkpt lat="44.8625833" lon="8.0166567"><ele>213.0</ele><time>2026-04-05T09:31:43.848Z</time></trkpt><trkpt lat="44.8625167" lon="8.0167167"><ele>213.85714285714283</ele><time>2026-04-05T09:31:44.848Z</time></trkpt><trkpt lat="44.8624567" lon="8.0167767"><ele>214.71428571428572</ele><time>2026-04-05T09:31:45.848Z</time></trkpt><trkpt lat="44.862405" lon="8.0168433"><ele>215.57142857142856</ele><time>2026-04-05T09:31:46.848Z</time></trkpt><trkpt lat="44.862365" lon="8.016915"><ele>216.42857142857142</ele><time>2026-04-05T09:31:47.848Z</time></trkpt><trkpt lat="44.86234" lon="8.0170033"><ele>217.28571428571428</ele><time>2026-04-05T09:31:48.847Z</time></trkpt><trkpt lat="44.8623217" lon="8.01709"><ele>218.14285714285714</ele><time>2026-04-05T09:31:49.848Z</time></trkpt><trkpt lat="44.8623017" lon="8.0171867"><ele>219.0</ele><time>2026-04-05T09:31:50.848Z</time></trkpt><trkpt lat="44.86229" lon="8.017315"><ele>219.0</ele><time>2026-04-05T09:31:51.848Z</time></trkpt><trkpt lat="44.8622767" lon="8.0174233"><ele>219.0</ele><time>2026-04-05T09:31:52.848Z</time></trkpt><trkpt lat="44.86227" lon="8.01752"><ele>219.0</ele><time>2026-04-05T09:31:53.847Z</time></trkpt><trkpt lat="44.8622817" lon="8.0176117"><ele>219.0</ele><time>2026-04-05T09:31:54.848Z</time></trkpt><trkpt lat="44.8623033" lon="8.0177017"><ele>219.0</ele><time>2026-04-05T09:31:55.848Z</time></trkpt><trkpt lat="44.86234" lon="8.0177967"><ele>219.0</ele><time>2026-04-05T09:31:56.848Z</time></trkpt><trkpt lat="44.8623917" lon="8.0178967"><ele>219.0</ele><time>2026-04-05T09:31:57.848Z</time></trkpt><trkpt lat="44.8624617" lon="8.0180067"><ele>220.0</ele><time>2026-04-05T09:31:58.848Z</time></trkpt><trkpt lat="44.8625167" lon="8.0181133"><ele>221.0</ele><time>2026-04-05T09:31:59.848Z</time></trkpt><trkpt lat="44.8625683" lon="8.0182017"><ele>222.0</ele><time>2026-04-05T09:32:00.848Z</time></trkpt><trkpt lat="44.86262" lon="8.0182967"><ele>223.0</ele><time>2026-04-05T09:32:01.847Z</time></trkpt><trkpt lat="44.86267" lon="8.0183883"><ele>224.0</ele><time>2026-04-05T09:32:02.847Z</time></trkpt><trkpt lat="44.862715" lon="8.01847"><ele>225.0</ele><time>2026-04-05T09:32:03.848Z</time></trkpt><trkpt lat="44.8627467" lon="8.01855"><ele>227.66666666666666</ele><time>2026-04-05T09:32:04.848Z</time></trkpt><trkpt lat="44.862795" lon="8.0187067"><ele>230.33333333333331</ele><time>2026-04-05T09:32:06.848Z</time></trkpt><trkpt lat="44.8628133" lon="8.0187917"><ele>233.0</ele><time>2026-04-05T09:32:07.848Z</time></trkpt><trkpt lat="44.8628167" lon="8.0188867"><ele>235.66666666666666</ele><time>2026-04-05T09:32:08.848Z</time></trkpt><trkpt lat="44.8628117" lon="8.0189817"><ele>238.33333333333331</ele><time>2026-04-05T09:32:09.848Z</time></trkpt><trkpt lat="44.862805" lon="8.019085"><ele>241.0</ele><time>2026-04-05T09:32:10.848Z</time></trkpt><trkpt lat="44.8627917" lon="8.019185"><ele>240.99999999999997</ele><time>2026-04-05T09:32:11.848Z</time></trkpt><trkpt lat="44.862765" lon="8.0192917"><ele>241.0</ele><time>2026-04-05T09:32:12.848Z</time></trkpt><trkpt lat="44.8627383" lon="8.0193917"><ele>241.0</ele><time>2026-04-05T09:32:13.848Z</time></trkpt><trkpt lat="44.8627233" lon="8.0195067"><ele>241.0</ele><time>2026-04-05T09:32:14.848Z</time></trkpt><trkpt lat="44.86272" lon="8.0196217"><ele>240.99999999999997</ele><time>2026-04-05T09:32:15.848Z</time></trkpt><trkpt lat="44.8627117" lon="8.0197267"><ele>241.0</ele><time>2026-04-05T09:32:16.848Z</time></trkpt><trkpt lat="44.8626967" lon="8.0198367"><ele>240.99999999999997</ele><time>2026-04-05T09:32:17.848Z</time></trkpt><trkpt lat="44.8626767" lon="8.01994"><ele>241.0</ele><time>2026-04-05T09:32:18.847Z</time></trkpt><trkpt lat="44.86266" lon="8.0200467"><ele>241.0</ele><time>2026-04-05T09:32:19.847Z</time></trkpt><trkpt lat="44.8626367" lon="8.0201483"><ele>241.0</ele><time>2026-04-05T09:32:20.848Z</time></trkpt><trkpt lat="44.8626117" lon="8.0202617"><ele>240.99999999999997</ele><time>2026-04-05T09:32:21.848Z</time></trkpt><trkpt lat="44.8625867" lon="8.0203733"><ele>241.0</ele><time>2026-04-05T09:32:22.848Z</time></trkpt><trkpt lat="44.86255" lon="8.0204833"><ele>241.16666666666666</ele><time>2026-04-05T09:32:23.848Z</time></trkpt><trkpt lat="44.8625183" lon="8.0206083"><ele>241.33333333333331</ele><time>2026-04-05T09:32:24.848Z</time></trkpt><trkpt lat="44.8624917" lon="8.0207317"><ele>241.5</ele><time>2026-04-05T09:32:25.848Z</time></trkpt><trkpt lat="44.86247" lon="8.0208617"><ele>241.66666666666669</ele><time>2026-04-05T09:32:26.848Z</time></trkpt><trkpt lat="44.8624633" lon="8.0209783"><ele>241.83333333333334</ele><time>2026-04-05T09:32:27.848Z</time></trkpt><trkpt lat="44.8624583" lon="8.0210767"><ele>242.0</ele><time>2026-04-05T09:32:28.848Z</time></trkpt><trkpt lat="44.8624733" lon="8.0212333"><ele>242.66666666666669</ele><time>2026-04-05T09:32:30.847Z</time></trkpt><trkpt lat="44.86242" lon="8.0213083"><ele>243.33333333333334</ele><time>2026-04-05T09:32:32.848Z</time></trkpt><trkpt lat="44.86235" lon="8.02137"><ele>244.0</ele><time>2026-04-05T09:32:34.848Z</time></trkpt><trkpt lat="44.862305" lon="8.021465"><ele>244.66666666666669</ele><time>2026-04-05T09:32:36.848Z</time></trkpt><trkpt lat="44.862275" lon="8.0216233"><ele>245.33333333333334</ele><time>2026-04-05T09:32:38.848Z</time></trkpt><trkpt lat="44.8622533" lon="8.021715"><ele>246.0</ele><time>2026-04-05T09:32:39.848Z</time></trkpt><trkpt lat="44.8622317" lon="8.0218033"><ele>247.0</ele><time>2026-04-05T09:32:40.848Z</time></trkpt><trkpt lat="44.862215" lon="8.021965"><ele>248.00000000000003</ele><time>2026-04-05T09:32:42.848Z</time></trkpt><trkpt lat="44.862225" lon="8.0221217"><ele>249.00000000000003</ele><time>2026-04-05T09:32:44.848Z</time></trkpt><trkpt lat="44.8622433" lon="8.0222733"><ele>250.0</ele><time>2026-04-05T09:32:46.848Z</time></trkpt><trkpt lat="44.8622617" lon="8.022415"><ele>251.0</ele><time>2026-04-05T09:32:48.847Z</time></trkpt><trkpt lat="44.8622383" lon="8.0225867"><ele>252.8</ele><time>2026-04-05T09:32:50.847Z</time></trkpt><trkpt lat="44.862215" lon="8.0226733"><ele>254.60000000000002</ele><time>2026-04-05T09:32:51.848Z</time></trkpt><trkpt lat="44.8621467" lon="8.0228017"><ele>256.4</ele><time>2026-04-05T09:32:53.848Z</time></trkpt><trkpt lat="44.8620767" lon="8.0228983"><ele>258.2</ele><time>2026-04-05T09:32:55.848Z</time></trkpt><trkpt lat="44.8620133" lon="8.023"><ele>260.0</ele><time>2026-04-05T09:32:57.847Z</time></trkpt><trkpt lat="44.8619483" lon="8.0231217"><ele>260.0</ele><time>2026-04-05T09:32:59.848Z</time></trkpt><trkpt lat="44.8618883" lon="8.0232133"><ele>260.0</ele><time>2026-04-05T09:33:01.848Z</time></trkpt><trkpt lat="44.8618983" lon="8.0233367"><ele>260.0</ele><time>2026-04-05T09:33:04.848Z</time></trkpt><trkpt lat="44.861925" lon="8.02344"><ele>260.0</ele><time>2026-04-05T09:33:06.848Z</time></trkpt><trkpt lat="44.8619083" lon="8.0235533"><ele>260.0</ele><time>2026-04-05T09:33:08.848Z</time></trkpt><trkpt lat="44.861835" lon="8.02362"><ele>260.0</ele><time>2026-04-05T09:33:10.848Z</time></trkpt><trkpt lat="44.86174" lon="8.0236467"><ele>262.1666666666667</ele><time>2026-04-05T09:33:12.848Z</time></trkpt><trkpt lat="44.86167" lon="8.02366"><ele>264.33333333333337</ele><time>2026-04-05T09:33:14.847Z</time></trkpt><trkpt lat="44.8615767" lon="8.02362"><ele>266.5</ele><time>2026-04-05T09:33:24.848Z</time></trkpt><trkpt lat="44.8615183" lon="8.0235767"><ele>268.6666666666667</ele><time>2026-04-05T09:33:25.848Z</time></trkpt><trkpt lat="44.8614533" lon="8.023525"><ele>270.8333333333333</ele><time>2026-04-05T09:33:26.848Z</time></trkpt><trkpt lat="44.8613983" lon="8.0234733"><ele>273.0</ele><time>2026-04-05T09:33:27.848Z</time></trkpt><trkpt lat="44.86131" lon="8.0233467"><ele>271.6</ele><time>2026-04-05T09:33:29.848Z</time></trkpt><trkpt lat="44.8612283" lon="8.02323"><ele>270.20000000000005</ele><time>2026-04-05T09:33:31.847Z</time></trkpt><trkpt lat="44.8611217" lon="8.02314"><ele>268.8</ele><time>2026-04-05T09:33:33.848Z</time></trkpt><trkpt lat="44.861015" lon="8.0231"><ele>267.40000000000003</ele><time>2026-04-05T09:33:35.848Z</time></trkpt><trkpt lat="44.8609383" lon="8.02316"><ele>266.0</ele><time>2026-04-05T09:33:37.848Z</time></trkpt><trkpt lat="44.8609033" lon="8.0232467"><ele>269.83333333333337</ele><time>2026-04-05T09:33:47.847Z</time></trkpt><trkpt lat="44.8608533" lon="8.0233217"><ele>273.6666666666667</ele><time>2026-04-05T09:33:49.848Z</time></trkpt><trkpt lat="44.8608083" lon="8.0233967"><ele>277.5</ele><time>2026-04-05T09:33:50.848Z</time></trkpt><trkpt lat="44.86077" lon="8.02347"><ele>281.3333333333333</ele><time>2026-04-05T09:33:51.847Z</time></trkpt><trkpt lat="44.86073" lon="8.0235533"><ele>285.16666666666663</ele><time>2026-04-05T09:33:52.848Z</time></trkpt><trkpt lat="44.860695" lon="8.023635"><ele>289.0</ele><time>2026-04-05T09:33:53.847Z</time></trkpt><trkpt lat="44.860635" lon="8.0237967"><ele>289.0</ele><time>2026-04-05T09:33:55.848Z</time></trkpt><trkpt lat="44.86057" lon="8.023925"><ele>289.0</ele><time>2026-04-05T09:33:57.848Z</time></trkpt><trkpt lat="44.8605283" lon="8.0240433"><ele>289.0</ele><time>2026-04-05T09:33:59.848Z</time></trkpt><trkpt lat="44.8605483" lon="8.0241733"><ele>289.0</ele><time>2026-04-05T09:34:01.848Z</time></trkpt><trkpt lat="44.8606217" lon="8.0243"><ele>289.0</ele><time>2026-04-05T09:34:03.848Z</time></trkpt><trkpt lat="44.8607017" lon="8.0243933"><ele>288.2</ele><time>2026-04-05T09:34:05.848Z</time></trkpt><trkpt lat="44.8607467" lon="8.0244717"><ele>287.4</ele><time>2026-04-05T09:34:07.847Z</time></trkpt><trkpt lat="44.86076" lon="8.02459"><ele>286.6</ele><time>2026-04-05T09:34:11.847Z</time></trkpt><trkpt lat="44.86074" lon="8.0247033"><ele>285.8</ele><time>2026-04-05T09:34:13.848Z</time></trkpt><trkpt lat="44.8607067" lon="8.02485"><ele>285.0</ele><time>2026-04-05T09:34:15.847Z</time></trkpt><trkpt lat="44.8606433" lon="8.0249717"><ele>286.1666666666667</ele><time>2026-04-05T09:34:17.848Z</time></trkpt><trkpt lat="44.8605683" lon="8.0250683"><ele>287.3333333333333</ele><time>2026-04-05T09:34:19.848Z</time></trkpt><trkpt lat="44.8604767" lon="8.0251817"><ele>288.5</ele><time>2026-04-05T09:34:21.847Z</time></trkpt><trkpt lat="44.8604267" lon="8.025255"><ele>289.66666666666663</ele><time>2026-04-05T09:34:22.848Z</time></trkpt><trkpt lat="44.8603783" lon="8.0253217"><ele>290.8333333333333</ele><time>2026-04-05T09:34:23.848Z</time></trkpt><trkpt lat="44.8603217" lon="8.0253783"><ele>292.0</ele><time>2026-04-05T09:34:24.848Z</time></trkpt><trkpt lat="44.8602683" lon="8.02545"><ele>292.0</ele><time>2026-04-05T09:34:25.848Z</time></trkpt><trkpt lat="44.860215" lon="8.02553"><ele>292.0</ele><time>2026-04-05T09:34:26.848Z</time></trkpt><trkpt lat="44.8601617" lon="8.0256017"><ele>292.0</ele><time>2026-04-05T09:34:27.848Z</time></trkpt><trkpt lat="44.860105" lon="8.02568"><ele>292.0</ele><time>2026-04-05T09:34:28.848Z</time></trkpt><trkpt lat="44.8600533" lon="8.025755"><ele>292.0</ele><time>2026-04-05T09:34:29.848Z</time></trkpt><trkpt lat="44.86" lon="8.025825"><ele>292.0</ele><time>2026-04-05T09:34:30.848Z</time></trkpt><trkpt lat="44.859935" lon="8.0258867"><ele>292.66666666666663</ele><time>2026-04-05T09:34:31.847Z</time></trkpt><trkpt lat="44.8598717" lon="8.0259583"><ele>293.3333333333333</ele><time>2026-04-05T09:34:32.848Z</time></trkpt><trkpt lat="44.8597933" lon="8.0260233"><ele>294.0</ele><time>2026-04-05T09:34:33.848Z</time></trkpt><trkpt lat="44.85972" lon="8.0260667"><ele>294.6666666666667</ele><time>2026-04-05T09:34:34.848Z</time></trkpt><trkpt lat="44.8596467" lon="8.0261217"><ele>295.33333333333337</ele><time>2026-04-05T09:34:35.848Z</time></trkpt><trkpt lat="44.85957" lon="8.0261783"><ele>296.0</ele><time>2026-04-05T09:34:36.848Z</time></trkpt><trkpt lat="44.859495" lon="8.0262433"><ele>296.0</ele><time>2026-04-05T09:34:37.848Z</time></trkpt><trkpt lat="44.859425" lon="8.0263033"><ele>296.0</ele><time>2026-04-05T09:34:38.848Z</time></trkpt><trkpt lat="44.8593583" lon="8.0263617"><ele>296.0</ele><time>2026-04-05T09:34:39.848Z</time></trkpt><trkpt lat="44.8592983" lon="8.0264133"><ele>296.0</ele><time>2026-04-05T09:34:40.848Z</time></trkpt><trkpt lat="44.8592417" lon="8.0264733"><ele>296.0</ele><time>2026-04-05T09:34:41.848Z</time></trkpt><trkpt lat="44.8591767" lon="8.0265233"><ele>296.0</ele><time>2026-04-05T09:34:42.848Z</time></trkpt><trkpt lat="44.859105" lon="8.0265733"><ele>296.5</ele><time>2026-04-05T09:34:43.848Z</time></trkpt><trkpt lat="44.859035" lon="8.0266333"><ele>297.0</ele><time>2026-04-05T09:34:44.848Z</time></trkpt><trkpt lat="44.8589667" lon="8.0266867"><ele>297.5</ele><time>2026-04-05T09:34:45.847Z</time></trkpt><trkpt lat="44.858895" lon="8.0267417"><ele>298.0</ele><time>2026-04-05T09:34:46.848Z</time></trkpt><trkpt lat="44.8588217" lon="8.0267917"><ele>298.5</ele><time>2026-04-05T09:34:47.848Z</time></trkpt><trkpt lat="44.8587517" lon="8.0268533"><ele>299.0</ele><time>2026-04-05T09:34:48.848Z</time></trkpt><trkpt lat="44.8586933" lon="8.0269133"><ele>299.0</ele><time>2026-04-05T09:34:49.848Z</time></trkpt><trkpt lat="44.8586433" lon="8.0269767"><ele>299.0</ele><time>2026-04-05T09:34:50.848Z</time></trkpt><trkpt lat="44.8585917" lon="8.0270483"><ele>299.0</ele><time>2026-04-05T09:34:51.848Z</time></trkpt><trkpt lat="44.8585333" lon="8.027125"><ele>299.0</ele><time>2026-04-05T09:34:52.848Z</time></trkpt><trkpt lat="44.858475" lon="8.0272083"><ele>299.0</ele><time>2026-04-05T09:34:53.848Z</time></trkpt><trkpt lat="44.8584217" lon="8.0272867"><ele>299.0</ele><time>2026-04-05T09:34:54.848Z</time></trkpt><trkpt lat="44.8583683" lon="8.027365"><ele>297.83333333333337</ele><time>2026-04-05T09:34:55.848Z</time></trkpt><trkpt lat="44.8583217" lon="8.0274483"><ele>296.6666666666667</ele><time>2026-04-05T09:34:56.847Z</time></trkpt><trkpt lat="44.85827" lon="8.027535"><ele>295.5</ele><time>2026-04-05T09:34:57.847Z</time></trkpt><trkpt lat="44.8582117" lon="8.0276217"><ele>294.3333333333333</ele><time>2026-04-05T09:34:58.848Z</time></trkpt><trkpt lat="44.858155" lon="8.0277033"><ele>293.16666666666663</ele><time>2026-04-05T09:34:59.848Z</time></trkpt><trkpt lat="44.8580967" lon="8.0277667"><ele>292.0</ele><time>2026-04-05T09:35:00.847Z</time></trkpt><trkpt lat="44.858045" lon="8.027825"><ele>292.0</ele><time>2026-04-05T09:35:01.848Z</time></trkpt><trkpt lat="44.85799" lon="8.0278767"><ele>292.0</ele><time>2026-04-05T09:35:02.847Z</time></trkpt><trkpt lat="44.8579" lon="8.027925"><ele>292.0</ele><time>2026-04-05T09:35:04.848Z</time></trkpt><trkpt lat="44.8578" lon="8.02794"><ele>292.0</ele><time>2026-04-05T09:35:06.848Z</time></trkpt><trkpt lat="44.85772" lon="8.027935"><ele>292.0</ele><time>2026-04-05T09:35:08.847Z</time></trkpt><trkpt lat="44.8576183" lon="8.0279083"><ele>292.0</ele><time>2026-04-05T09:35:15.848Z</time></trkpt><trkpt lat="44.8575267" lon="8.0277867"><ele>290.6</ele><time>2026-04-05T09:35:17.847Z</time></trkpt><trkpt lat="44.8574683" lon="8.0277367"><ele>289.2</ele><time>2026-04-05T09:35:18.847Z</time></trkpt><trkpt lat="44.85741" lon="8.0276983"><ele>287.8</ele><time>2026-04-05T09:35:19.848Z</time></trkpt><trkpt lat="44.8573017" lon="8.0276117"><ele>286.4</ele><time>2026-04-05T09:35:21.848Z</time></trkpt><trkpt lat="44.8572" lon="8.0275417"><ele>285.0</ele><time>2026-04-05T09:35:23.848Z</time></trkpt><trkpt lat="44.8570867" lon="8.027505"><ele>285.0</ele><time>2026-04-05T09:35:25.848Z</time></trkpt><trkpt lat="44.8569833" lon="8.0274783"><ele>285.0</ele><time>2026-04-05T09:35:27.848Z</time></trkpt><trkpt lat="44.85691" lon="8.02744"><ele>285.0</ele><time>2026-04-05T09:35:29.848Z</time></trkpt><trkpt lat="44.85688" lon="8.0273267"><ele>285.0</ele><time>2026-04-05T09:35:32.847Z</time></trkpt><trkpt lat="44.856895" lon="8.0271633"><ele>285.0</ele><time>2026-04-05T09:35:34.848Z</time></trkpt><trkpt lat="44.856905" lon="8.0270583"><ele>284.1666666666667</ele><time>2026-04-05T09:35:35.848Z</time></trkpt><trkpt lat="44.8569067" lon="8.0269417"><ele>283.3333333333333</ele><time>2026-04-05T09:35:36.848Z</time></trkpt><trkpt lat="44.85691" lon="8.0268283"><ele>282.5</ele><time>2026-04-05T09:35:37.848Z</time></trkpt><trkpt lat="44.85692" lon="8.0267117"><ele>281.66666666666663</ele><time>2026-04-05T09:35:38.848Z</time></trkpt><trkpt lat="44.8569283" lon="8.026595"><ele>280.8333333333333</ele><time>2026-04-05T09:35:39.848Z</time></trkpt><trkpt lat="44.85693" lon="8.0264817"><ele>280.0</ele><time>2026-04-05T09:35:40.848Z</time></trkpt><trkpt lat="44.8569267" lon="8.0263717"><ele>279.85714285714283</ele><time>2026-04-05T09:35:41.848Z</time></trkpt><trkpt lat="44.8569167" lon="8.0262583"><ele>279.7142857142857</ele><time>2026-04-05T09:35:42.848Z</time></trkpt><trkpt lat="44.856905" lon="8.0261567"><ele>279.57142857142856</ele><time>2026-04-05T09:35:43.848Z</time></trkpt><trkpt lat="44.856875" lon="8.026065"><ele>279.42857142857144</ele><time>2026-04-05T09:35:44.848Z</time></trkpt><trkpt lat="44.8568383" lon="8.0259783"><ele>279.2857142857143</ele><time>2026-04-05T09:35:45.848Z</time></trkpt><trkpt lat="44.856795" lon="8.0259017"><ele>279.1428571428571</ele><time>2026-04-05T09:35:46.848Z</time></trkpt><trkpt lat="44.85674" lon="8.0258283"><ele>279.0</ele><time>2026-04-05T09:35:47.848Z</time></trkpt><trkpt lat="44.8566767" lon="8.0257667"><ele>282.3333333333333</ele><time>2026-04-05T09:35:48.848Z</time></trkpt><trkpt lat="44.8566133" lon="8.0257167"><ele>285.6666666666667</ele><time>2026-04-05T09:35:49.848Z</time></trkpt><trkpt lat="44.8565517" lon="8.0256783"><ele>289.0</ele><time>2026-04-05T09:35:50.848Z</time></trkpt><trkpt lat="44.85649" lon="8.025655"><ele>292.33333333333337</ele><time>2026-04-05T09:35:51.848Z</time></trkpt><trkpt lat="44.8564233" lon="8.0256517"><ele>295.6666666666667</ele><time>2026-04-05T09:35:52.848Z</time></trkpt><trkpt lat="44.8563517" lon="8.0256583"><ele>299.0</ele><time>2026-04-05T09:35:53.848Z</time></trkpt><trkpt lat="44.8562333" lon="8.0256633"><ele>299.0</ele><time>2026-04-05T09:35:55.847Z</time></trkpt><trkpt lat="44.856105" lon="8.0256517"><ele>299.0</ele><time>2026-04-05T09:35:57.848Z</time></trkpt><trkpt lat="44.8560333" lon="8.0256633"><ele>299.0</ele><time>2026-04-05T09:35:58.848Z</time></trkpt><trkpt lat="44.85597" lon="8.025685"><ele>299.0</ele><time>2026-04-05T09:35:59.847Z</time></trkpt><trkpt lat="44.855865" lon="8.025695"><ele>299.0</ele><time>2026-04-05T09:36:01.848Z</time></trkpt><trkpt lat="44.8557583" lon="8.0256667"><ele>298.42857142857144</ele><time>2026-04-05T09:36:03.848Z</time></trkpt><trkpt lat="44.8557" lon="8.0256167"><ele>297.8571428571429</ele><time>2026-04-05T09:36:04.848Z</time></trkpt><trkpt lat="44.8556383" lon="8.025555"><ele>297.28571428571433</ele><time>2026-04-05T09:36:05.848Z</time></trkpt><trkpt lat="44.8555783" lon="8.0254967"><ele>296.7142857142857</ele><time>2026-04-05T09:36:06.848Z</time></trkpt><trkpt lat="44.855525" lon="8.0254467"><ele>296.14285714285717</ele><time>2026-04-05T09:36:07.848Z</time></trkpt><trkpt lat="44.855465" lon="8.0254117"><ele>295.5714285714286</ele><time>2026-04-05T09:36:08.848Z</time></trkpt><trkpt lat="44.8553867" lon="8.0253783"><ele>295.0</ele><time>2026-04-05T09:36:09.848Z</time></trkpt><trkpt lat="44.8553133" lon="8.0253517"><ele>295.00000000000006</ele><time>2026-04-05T09:36:10.847Z</time></trkpt><trkpt lat="44.8552367" lon="8.0253283"><ele>295.0</ele><time>2026-04-05T09:36:11.847Z</time></trkpt><trkpt lat="44.8551633" lon="8.0252967"><ele>295.0</ele><time>2026-04-05T09:36:12.848Z</time></trkpt><trkpt lat="44.8550933" lon="8.02527"><ele>295.0</ele><time>2026-04-05T09:36:13.848Z</time></trkpt><trkpt lat="44.855025" lon="8.0252517"><ele>295.0</ele><time>2026-04-05T09:36:14.848Z</time></trkpt><trkpt lat="44.854955" lon="8.025235"><ele>295.00000000000006</ele><time>2026-04-05T09:36:15.848Z</time></trkpt><trkpt lat="44.8548867" lon="8.0252117"><ele>295.0</ele><time>2026-04-05T09:36:16.848Z</time></trkpt><trkpt lat="44.85482" lon="8.02519"><ele>293.5714285714286</ele><time>2026-04-05T09:36:17.848Z</time></trkpt><trkpt lat="44.854755" lon="8.025165"><ele>292.14285714285717</ele><time>2026-04-05T09:36:18.848Z</time></trkpt><trkpt lat="44.8546933" lon="8.0251433"><ele>290.7142857142857</ele><time>2026-04-05T09:36:19.848Z</time></trkpt><trkpt lat="44.854635" lon="8.0251083"><ele>289.28571428571433</ele><time>2026-04-05T09:36:20.848Z</time></trkpt><trkpt lat="44.8545867" lon="8.02505"><ele>287.8571428571429</ele><time>2026-04-05T09:36:21.848Z</time></trkpt><trkpt lat="44.854545" lon="8.0249633"><ele>286.42857142857144</ele><time>2026-04-05T09:36:22.848Z</time></trkpt><trkpt lat="44.8545117" lon="8.0248633"><ele>285.0</ele><time>2026-04-05T09:36:23.847Z</time></trkpt><trkpt lat="44.85448" lon="8.0247517"><ele>284.5</ele><time>2026-04-05T09:36:24.848Z</time></trkpt><trkpt lat="44.8544467" lon="8.0246467"><ele>284.0</ele><time>2026-04-05T09:36:25.848Z</time></trkpt><trkpt lat="44.8543967" lon="8.0245583"><ele>283.5</ele><time>2026-04-05T09:36:26.847Z</time></trkpt><trkpt lat="44.8543333" lon="8.0244817"><ele>283.0</ele><time>2026-04-05T09:36:27.848Z</time></trkpt><trkpt lat="44.8542583" lon="8.0244083"><ele>282.5</ele><time>2026-04-05T09:36:28.848Z</time></trkpt><trkpt lat="44.8541767" lon="8.024345"><ele>282.0</ele><time>2026-04-05T09:36:29.848Z</time></trkpt><trkpt lat="44.8540983" lon="8.024285"><ele>281.8</ele><time>2026-04-05T09:36:30.848Z</time></trkpt><trkpt lat="44.854015" lon="8.0242267"><ele>281.6</ele><time>2026-04-05T09:36:31.848Z</time></trkpt><trkpt lat="44.8539333" lon="8.0241683"><ele>281.40000000000003</ele><time>2026-04-05T09:36:32.847Z</time></trkpt><trkpt lat="44.8538533" lon="8.0241117"><ele>281.2</ele><time>2026-04-05T09:36:33.847Z</time></trkpt><trkpt lat="44.8537667" lon="8.0240567"><ele>281.0</ele><time>2026-04-05T09:36:34.848Z</time></trkpt><trkpt lat="44.85368" lon="8.0239983"><ele>280.6</ele><time>2026-04-05T09:36:35.848Z</time></trkpt><trkpt lat="44.85359" lon="8.02394"><ele>280.20000000000005</ele><time>2026-04-05T09:36:36.848Z</time></trkpt><trkpt lat="44.8535083" lon="8.023875"><ele>279.79999999999995</ele><time>2026-04-05T09:36:37.848Z</time></trkpt><trkpt lat="44.8534317" lon="8.0238033"><ele>279.4</ele><time>2026-04-05T09:36:38.848Z</time></trkpt><trkpt lat="44.8533633" lon="8.0237217"><ele>279.0</ele><time>2026-04-05T09:36:39.848Z</time></trkpt><trkpt lat="44.8532983" lon="8.0236483"><ele>279.0</ele><time>2026-04-05T09:36:40.848Z</time></trkpt><trkpt lat="44.853235" lon="8.0235717"><ele>279.0</ele><time>2026-04-05T09:36:41.848Z</time></trkpt><trkpt lat="44.85318" lon="8.0235"><ele>279.0</ele><time>2026-04-05T09:36:42.848Z</time></trkpt><trkpt lat="44.853115" lon="8.0234217"><ele>279.0</ele><time>2026-04-05T09:36:43.848Z</time></trkpt><trkpt lat="44.8530517" lon="8.023345"><ele>279.0</ele><time>2026-04-05T09:36:44.848Z</time></trkpt><trkpt lat="44.8529867" lon="8.0232717"><ele>279.0</ele><time>2026-04-05T09:36:45.848Z</time></trkpt><trkpt lat="44.85292" lon="8.023205"><ele>277.8333333333333</ele><time>2026-04-05T09:36:46.848Z</time></trkpt><trkpt lat="44.852855" lon="8.0231383"><ele>276.6666666666667</ele><time>2026-04-05T09:36:47.848Z</time></trkpt><trkpt lat="44.85279" lon="8.0230817"><ele>275.5</ele><time>2026-04-05T09:36:48.848Z</time></trkpt><trkpt lat="44.8527317" lon="8.0230333"><ele>274.33333333333337</ele><time>2026-04-05T09:36:49.848Z</time></trkpt><trkpt lat="44.85267" lon="8.0229817"><ele>273.1666666666667</ele><time>2026-04-05T09:36:50.848Z</time></trkpt><trkpt lat="44.8526133" lon="8.0229367"><ele>272.0</ele><time>2026-04-05T09:36:51.848Z</time></trkpt><trkpt lat="44.8525217" lon="8.022835"><ele>272.0</ele><time>2026-04-05T09:36:53.848Z</time></trkpt><trkpt lat="44.8525" lon="8.0227133"><ele>272.0</ele><time>2026-04-05T09:36:55.848Z</time></trkpt><trkpt lat="44.8525483" lon="8.02259"><ele>272.0</ele><time>2026-04-05T09:36:57.848Z</time></trkpt><trkpt lat="44.8526017" lon="8.02249"><ele>272.0</ele><time>2026-04-05T09:36:59.847Z</time></trkpt><trkpt lat="44.8526533" lon="8.0224017"><ele>272.0</ele><time>2026-04-05T09:37:01.848Z</time></trkpt><trkpt lat="44.85272" lon="8.0223867"><ele>272.0</ele><time>2026-04-05T09:37:03.848Z</time></trkpt><trkpt lat="44.8527883" lon="8.022455"><ele>271.83333333333337</ele><time>2026-04-05T09:37:05.848Z</time></trkpt><trkpt lat="44.8528333" lon="8.0225617"><ele>271.6666666666667</ele><time>2026-04-05T09:37:07.847Z</time></trkpt><trkpt lat="44.8529133" lon="8.0226467"><ele>271.5</ele><time>2026-04-05T09:37:09.848Z</time></trkpt><trkpt lat="44.8529733" lon="8.022675"><ele>271.3333333333333</ele><time>2026-04-05T09:37:10.848Z</time></trkpt><trkpt lat="44.85304" lon="8.0226933"><ele>271.16666666666663</ele><time>2026-04-05T09:37:11.848Z</time></trkpt><trkpt lat="44.8531567" lon="8.0227233"><ele>271.0</ele><time>2026-04-05T09:37:13.848Z</time></trkpt><trkpt lat="44.8532583" lon="8.0227633"><ele>271.0</ele><time>2026-04-05T09:37:15.848Z</time></trkpt><trkpt lat="44.8533533" lon="8.022745"><ele>271.0</ele><time>2026-04-05T09:37:17.848Z</time></trkpt><trkpt lat="44.853445" lon="8.022685"><ele>271.0</ele><time>2026-04-05T09:37:19.847Z</time></trkpt><trkpt lat="44.8535367" lon="8.0226267"><ele>271.0</ele><time>2026-04-05T09:37:21.847Z</time></trkpt><trkpt lat="44.8536217" lon="8.02263"><ele>271.0</ele><time>2026-04-05T09:37:23.848Z</time></trkpt><trkpt lat="44.8537367" lon="8.02267"><ele>269.66666666666663</ele><time>2026-04-05T09:37:25.848Z</time></trkpt><trkpt lat="44.8538" lon="8.0226767"><ele>268.3333333333333</ele><time>2026-04-05T09:37:26.848Z</time></trkpt><trkpt lat="44.8538667" lon="8.0226867"><ele>267.0</ele><time>2026-04-05T09:37:27.848Z</time></trkpt><trkpt lat="44.8539367" lon="8.0226917"><ele>265.6666666666667</ele><time>2026-04-05T09:37:28.848Z</time></trkpt><trkpt lat="44.8540033" lon="8.0226867"><ele>264.33333333333337</ele><time>2026-04-05T09:37:29.848Z</time></trkpt><trkpt lat="44.8540667" lon="8.02268"><ele>263.0</ele><time>2026-04-05T09:37:30.848Z</time></trkpt><trkpt lat="44.85419" lon="8.0226617"><ele>263.0</ele><time>2026-04-05T09:37:32.847Z</time></trkpt><trkpt lat="44.8542567" lon="8.0226517"><ele>263.0</ele><time>2026-04-05T09:37:33.848Z</time></trkpt><trkpt lat="44.85432" lon="8.022645"><ele>263.0</ele><time>2026-04-05T09:37:34.847Z</time></trkpt><trkpt lat="44.8544283" lon="8.02265"><ele>263.0</ele><time>2026-04-05T09:37:36.848Z</time></trkpt><trkpt lat="44.8545617" lon="8.0226367"><ele>263.0</ele><time>2026-04-05T09:37:38.847Z</time></trkpt><trkpt lat="44.8546367" lon="8.0226117"><ele>263.1428571428571</ele><time>2026-04-05T09:37:39.848Z</time></trkpt><trkpt lat="44.8547183" lon="8.0225933"><ele>263.2857142857143</ele><time>2026-04-05T09:37:40.848Z</time></trkpt><trkpt lat="44.854795" lon="8.022565"><ele>263.42857142857144</ele><time>2026-04-05T09:37:41.848Z</time></trkpt><trkpt lat="44.85487" lon="8.0225417"><ele>263.57142857142856</ele><time>2026-04-05T09:37:42.848Z</time></trkpt><trkpt lat="44.8549367" lon="8.02252"><ele>263.7142857142857</ele><time>2026-04-05T09:37:43.847Z</time></trkpt><trkpt lat="44.8549933" lon="8.0224667"><ele>263.85714285714283</ele><time>2026-04-05T09:37:44.848Z</time></trkpt><trkpt lat="44.8550467" lon="8.0224033"><ele>264.0</ele><time>2026-04-05T09:37:45.848Z</time></trkpt><trkpt lat="44.8551083" lon="8.0223083"><ele>262.5</ele><time>2026-04-05T09:37:46.848Z</time></trkpt><trkpt lat="44.85518" lon="8.0222167"><ele>261.0</ele><time>2026-04-05T09:37:47.848Z</time></trkpt><trkpt lat="44.855245" lon="8.022145"><ele>259.5</ele><time>2026-04-05T09:37:48.848Z</time></trkpt><trkpt lat="44.85532" lon="8.0220767"><ele>258.0</ele><time>2026-04-05T09:37:49.848Z</time></trkpt><trkpt lat="44.85539" lon="8.0220017"><ele>256.5</ele><time>2026-04-05T09:37:50.848Z</time></trkpt><trkpt lat="44.8554617" lon="8.02193"><ele>255.0</ele><time>2026-04-05T09:37:51.848Z</time></trkpt><trkpt lat="44.85553" lon="8.02186"><ele>255.0</ele><time>2026-04-05T09:37:52.847Z</time></trkpt><trkpt lat="44.8556" lon="8.0217833"><ele>255.0</ele><time>2026-04-05T09:37:53.848Z</time></trkpt><trkpt lat="44.8556583" lon="8.0217083"><ele>255.0</ele><time>2026-04-05T09:37:54.848Z</time></trkpt><trkpt lat="44.8557067" lon="8.021615"><ele>255.0</ele><time>2026-04-05T09:37:55.848Z</time></trkpt><trkpt lat="44.855755" lon="8.0215283"><ele>255.0</ele><time>2026-04-05T09:37:56.848Z</time></trkpt><trkpt lat="44.8558033" lon="8.0214483"><ele>255.0</ele><time>2026-04-05T09:37:57.848Z</time></trkpt><trkpt lat="44.855855" lon="8.0213833"><ele>255.16666666666666</ele><time>2026-04-05T09:37:58.848Z</time></trkpt><trkpt lat="44.855905" lon="8.0213283"><ele>255.33333333333331</ele><time>2026-04-05T09:37:59.847Z</time></trkpt><trkpt lat="44.856005" lon="8.02124"><ele>255.5</ele><time>2026-04-05T09:38:01.848Z</time></trkpt><trkpt lat="44.856065" lon="8.0211967"><ele>255.66666666666666</ele><time>2026-04-05T09:38:02.848Z</time></trkpt><trkpt lat="44.85613" lon="8.0211583"><ele>255.83333333333331</ele><time>2026-04-05T09:38:03.848Z</time></trkpt><trkpt lat="44.856205" lon="8.0211083"><ele>256.0</ele><time>2026-04-05T09:38:04.848Z</time></trkpt><trkpt lat="44.8562633" lon="8.0210567"><ele>255.57142857142856</ele><time>2026-04-05T09:38:05.847Z</time></trkpt><trkpt lat="44.8563217" lon="8.0209983"><ele>255.1428571428571</ele><time>2026-04-05T09:38:06.848Z</time></trkpt><trkpt lat="44.856385" lon="8.02093"><ele>254.71428571428572</ele><time>2026-04-05T09:38:07.848Z</time></trkpt><trkpt lat="44.8564483" lon="8.0208617"><ele>254.28571428571428</ele><time>2026-04-05T09:38:08.848Z</time></trkpt><trkpt lat="44.8565017" lon="8.0207967"><ele>253.85714285714286</ele><time>2026-04-05T09:38:09.848Z</time></trkpt><trkpt lat="44.8565567" lon="8.020735"><ele>253.42857142857144</ele><time>2026-04-05T09:38:10.848Z</time></trkpt><trkpt lat="44.8566133" lon="8.0206833"><ele>253.00000000000003</ele><time>2026-04-05T09:38:11.848Z</time></trkpt><trkpt lat="44.856715" lon="8.020605"><ele>252.99999999999997</ele><time>2026-04-05T09:38:13.847Z</time></trkpt><trkpt lat="44.8567767" lon="8.02057"><ele>253.0</ele><time>2026-04-05T09:38:14.848Z</time></trkpt><trkpt lat="44.8568433" lon="8.0205383"><ele>253.0</ele><time>2026-04-05T09:38:15.848Z</time></trkpt><trkpt lat="44.8569133" lon="8.020515"><ele>253.0</ele><time>2026-04-05T09:38:16.848Z</time></trkpt><trkpt lat="44.85699" lon="8.0204867"><ele>252.99999999999997</ele><time>2026-04-05T09:38:17.847Z</time></trkpt><trkpt lat="44.8570717" lon="8.02045"><ele>253.0</ele><time>2026-04-05T09:38:18.848Z</time></trkpt><trkpt lat="44.8571533" lon="8.02043"><ele>251.83333333333331</ele><time>2026-04-05T09:38:19.848Z</time></trkpt><trkpt lat="44.8572317" lon="8.0204017"><ele>250.66666666666666</ele><time>2026-04-05T09:38:20.848Z</time></trkpt><trkpt lat="44.85731" lon="8.0203583"><ele>249.5</ele><time>2026-04-05T09:38:21.848Z</time></trkpt><trkpt lat="44.8573933" lon="8.0203183"><ele>248.33333333333331</ele><time>2026-04-05T09:38:22.848Z</time></trkpt><trkpt lat="44.8574683" lon="8.0202833"><ele>247.16666666666666</ele><time>2026-04-05T09:38:23.848Z</time></trkpt><trkpt lat="44.8575483" lon="8.0202433"><ele>246.0</ele><time>2026-04-05T09:38:24.848Z</time></trkpt><trkpt lat="44.8576333" lon="8.0202117"><ele>245.83333333333334</ele><time>2026-04-05T09:38:25.848Z</time></trkpt><trkpt lat="44.8577133" lon="8.0201983"><ele>245.66666666666669</ele><time>2026-04-05T09:38:26.848Z</time></trkpt><trkpt lat="44.8577983" lon="8.0201933"><ele>245.5</ele><time>2026-04-05T09:38:27.848Z</time></trkpt><trkpt lat="44.8578833" lon="8.0201983"><ele>245.33333333333334</ele><time>2026-04-05T09:38:28.847Z</time></trkpt><trkpt lat="44.8579683" lon="8.0202067"><ele>245.16666666666669</ele><time>2026-04-05T09:38:29.848Z</time></trkpt><trkpt lat="44.8580567" lon="8.0202133"><ele>245.0</ele><time>2026-04-05T09:38:30.847Z</time></trkpt><trkpt lat="44.8581433" lon="8.0202167"><ele>245.00000000000003</ele><time>2026-04-05T09:38:31.848Z</time></trkpt><trkpt lat="44.8582333" lon="8.0202283"><ele>245.0</ele><time>2026-04-05T09:38:32.847Z</time></trkpt><trkpt lat="44.85832" lon="8.0202433"><ele>245.0</ele><time>2026-04-05T09:38:33.847Z</time></trkpt><trkpt lat="44.858395" lon="8.020265"><ele>245.0</ele><time>2026-04-05T09:38:34.848Z</time></trkpt><trkpt lat="44.8584617" lon="8.0202867"><ele>245.00000000000003</ele><time>2026-04-05T09:38:35.848Z</time></trkpt><trkpt lat="44.8585767" lon="8.0203283"><ele>245.0</ele><time>2026-04-05T09:38:37.848Z</time></trkpt><trkpt lat="44.8586433" lon="8.0203583"><ele>243.33333333333334</ele><time>2026-04-05T09:38:39.848Z</time></trkpt><trkpt lat="44.85873" lon="8.0203767"><ele>241.66666666666669</ele><time>2026-04-05T09:38:41.847Z</time></trkpt><trkpt lat="44.8588467" lon="8.020325"><ele>240.0</ele><time>2026-04-05T09:38:43.848Z</time></trkpt><trkpt lat="44.8589033" lon="8.02026"><ele>238.33333333333331</ele><time>2026-04-05T09:38:44.847Z</time></trkpt><trkpt lat="44.858965" lon="8.020185"><ele>236.66666666666666</ele><time>2026-04-05T09:38:45.848Z</time></trkpt><trkpt lat="44.8590267" lon="8.020105"><ele>235.0</ele><time>2026-04-05T09:38:46.847Z</time></trkpt><trkpt lat="44.8590867" lon="8.020025"><ele>235.99999999999997</ele><time>2026-04-05T09:38:47.848Z</time></trkpt><trkpt lat="44.8591333" lon="8.0199517"><ele>237.0</ele><time>2026-04-05T09:38:48.848Z</time></trkpt><trkpt lat="44.85918" lon="8.0198817"><ele>238.0</ele><time>2026-04-05T09:38:49.848Z</time></trkpt><trkpt lat="44.8592383" lon="8.019825"><ele>239.0</ele><time>2026-04-05T09:38:50.848Z</time></trkpt><trkpt lat="44.8593133" lon="8.01976"><ele>239.99999999999997</ele><time>2026-04-05T09:38:51.847Z</time></trkpt><trkpt lat="44.8593733" lon="8.01967"><ele>241.0</ele><time>2026-04-05T09:38:52.848Z</time></trkpt><trkpt lat="44.8594133" lon="8.01957"><ele>239.16666666666666</ele><time>2026-04-05T09:38:53.847Z</time></trkpt><trkpt lat="44.8594517" lon="8.0194917"><ele>237.33333333333331</ele><time>2026-04-05T09:38:54.848Z</time></trkpt><trkpt lat="44.8594983" lon="8.01941"><ele>235.5</ele><time>2026-04-05T09:38:55.847Z</time></trkpt><trkpt lat="44.8595533" lon="8.0193367"><ele>233.66666666666669</ele><time>2026-04-05T09:38:56.848Z</time></trkpt><trkpt lat="44.85962" lon="8.0192067"><ele>231.83333333333334</ele><time>2026-04-05T09:38:58.848Z</time></trkpt><trkpt lat="44.859635" lon="8.0191083"><ele>230.0</ele><time>2026-04-05T09:39:00.848Z</time></trkpt><trkpt lat="44.8596183" lon="8.0190067"><ele>230.0</ele><time>2026-04-05T09:39:03.848Z</time></trkpt><trkpt lat="44.8596133" lon="8.0189067"><ele>230.0</ele><time>2026-04-05T09:39:05.848Z</time></trkpt><trkpt lat="44.85964" lon="8.018715"><ele>230.0</ele><time>2026-04-05T09:39:07.848Z</time></trkpt><trkpt lat="44.8596617" lon="8.018615"><ele>230.0</ele><time>2026-04-05T09:39:08.848Z</time></trkpt><trkpt lat="44.8596817" lon="8.01852"><ele>230.0</ele><time>2026-04-05T09:39:09.848Z</time></trkpt><trkpt lat="44.8597417" lon="8.01837"><ele>231.00000000000003</ele><time>2026-04-05T09:39:11.848Z</time></trkpt><trkpt lat="44.8598" lon="8.0182833"><ele>232.0</ele><time>2026-04-05T09:39:12.848Z</time></trkpt><trkpt lat="44.8598667" lon="8.0182"><ele>233.0</ele><time>2026-04-05T09:39:13.848Z</time></trkpt><trkpt lat="44.8599283" lon="8.018135"><ele>234.0</ele><time>2026-04-05T09:39:14.848Z</time></trkpt><trkpt lat="44.8599833" lon="8.0180717"><ele>235.00000000000003</ele><time>2026-04-05T09:39:15.848Z</time></trkpt><trkpt lat="44.8600533" lon="8.0179433"><ele>236.0</ele><time>2026-04-05T09:39:17.847Z</time></trkpt><trkpt lat="44.8600733" lon="8.0178367"><ele>236.00000000000003</ele><time>2026-04-05T09:39:19.848Z</time></trkpt><trkpt lat="44.860045" lon="8.0177"><ele>236.0</ele><time>2026-04-05T09:39:21.848Z</time></trkpt><trkpt lat="44.8600233" lon="8.0176117"><ele>236.0</ele><time>2026-04-05T09:39:22.848Z</time></trkpt><trkpt lat="44.860005" lon="8.0175183"><ele>236.0</ele><time>2026-04-05T09:39:23.848Z</time></trkpt><trkpt lat="44.85998" lon="8.0174233"><ele>236.00000000000003</ele><time>2026-04-05T09:39:24.848Z</time></trkpt><trkpt lat="44.859945" lon="8.01732"><ele>236.0</ele><time>2026-04-05T09:39:25.848Z</time></trkpt><trkpt lat="44.8598867" lon="8.01723"><ele>236.33333333333334</ele><time>2026-04-05T09:39:26.848Z</time></trkpt><trkpt lat="44.85983" lon="8.0171517"><ele>236.66666666666669</ele><time>2026-04-05T09:39:27.848Z</time></trkpt><trkpt lat="44.8597667" lon="8.0171"><ele>237.0</ele><time>2026-04-05T09:39:28.847Z</time></trkpt><trkpt lat="44.85969" lon="8.017085"><ele>237.33333333333331</ele><time>2026-04-05T09:39:29.848Z</time></trkpt><trkpt lat="44.8596017" lon="8.0170867"><ele>237.66666666666666</ele><time>2026-04-05T09:39:30.848Z</time></trkpt><trkpt lat="44.859515" lon="8.0170767"><ele>238.0</ele><time>2026-04-05T09:39:31.847Z</time></trkpt><trkpt lat="44.859425" lon="8.0171017"><ele>238.0</ele><time>2026-04-05T09:39:32.848Z</time></trkpt><trkpt lat="44.8593317" lon="8.0171483"><ele>238.0</ele><time>2026-04-05T09:39:33.847Z</time></trkpt><trkpt lat="44.8592383" lon="8.0171917"><ele>238.0</ele><time>2026-04-05T09:39:34.847Z</time></trkpt><trkpt lat="44.8591467" lon="8.01724"><ele>238.0</ele><time>2026-04-05T09:39:35.848Z</time></trkpt><trkpt lat="44.8590583" lon="8.01729"><ele>238.0</ele><time>2026-04-05T09:39:36.848Z</time></trkpt><trkpt lat="44.8589683" lon="8.0173483"><ele>238.60000000000002</ele><time>2026-04-05T09:39:37.848Z</time></trkpt><trkpt lat="44.8588783" lon="8.0174083"><ele>239.20000000000002</ele><time>2026-04-05T09:39:38.848Z</time></trkpt><trkpt lat="44.8587933" lon="8.01746"><ele>239.8</ele><time>2026-04-05T09:39:39.848Z</time></trkpt><trkpt lat="44.8587067" lon="8.0175183"><ele>240.4</ele><time>2026-04-05T09:39:40.848Z</time></trkpt><trkpt lat="44.8586267" lon="8.01759"><ele>241.0</ele><time>2026-04-05T09:39:41.848Z</time></trkpt><trkpt lat="44.8585583" lon="8.0176783"><ele>241.99999999999997</ele><time>2026-04-05T09:39:42.848Z</time></trkpt><trkpt lat="44.85851" lon="8.0177717"><ele>243.0</ele><time>2026-04-05T09:39:43.848Z</time></trkpt><trkpt lat="44.8584433" lon="8.01788"><ele>244.0</ele><time>2026-04-05T09:39:45.848Z</time></trkpt><trkpt lat="44.8583683" lon="8.01788"><ele>245.0</ele><time>2026-04-05T09:39:53.848Z</time></trkpt><trkpt lat="44.8583" lon="8.017875"><ele>245.99999999999997</ele><time>2026-04-05T09:39:55.848Z</time></trkpt><trkpt lat="44.8582367" lon="8.0178917"><ele>247.0</ele><time>2026-04-05T09:39:57.848Z</time></trkpt><trkpt lat="44.85817" lon="8.01787"><ele>247.83333333333331</ele><time>2026-04-05T09:39:59.848Z</time></trkpt><trkpt lat="44.8581383" lon="8.01778"><ele>248.66666666666666</ele><time>2026-04-05T09:40:02.848Z</time></trkpt><trkpt lat="44.85818" lon="8.017655"><ele>249.5</ele><time>2026-04-05T09:40:05.847Z</time></trkpt><trkpt lat="44.8581983" lon="8.01753"><ele>250.33333333333331</ele><time>2026-04-05T09:40:07.848Z</time></trkpt><trkpt lat="44.8582067" lon="8.0173967"><ele>251.16666666666666</ele><time>2026-04-05T09:40:09.848Z</time></trkpt><trkpt lat="44.858225" lon="8.01727"><ele>252.0</ele><time>2026-04-05T09:40:11.848Z</time></trkpt><trkpt lat="44.8582617" lon="8.0171683"><ele>252.0</ele><time>2026-04-05T09:40:13.848Z</time></trkpt><trkpt lat="44.858305" lon="8.01707"><ele>252.0</ele><time>2026-04-05T09:40:15.848Z</time></trkpt><trkpt lat="44.8583567" lon="8.0169817"><ele>252.0</ele><time>2026-04-05T09:40:17.848Z</time></trkpt><trkpt lat="44.8584333" lon="8.01695"><ele>252.0</ele><time>2026-04-05T09:40:19.847Z</time></trkpt><trkpt lat="44.8585183" lon="8.016935"><ele>252.0</ele><time>2026-04-05T09:40:21.848Z</time></trkpt><trkpt lat="44.8585933" lon="8.01688"><ele>252.0</ele><time>2026-04-05T09:40:23.848Z</time></trkpt><trkpt lat="44.8586683" lon="8.016825"><ele>250.83333333333334</ele><time>2026-04-05T09:40:25.847Z</time></trkpt><trkpt lat="44.858735" lon="8.01674"><ele>249.66666666666669</ele><time>2026-04-05T09:40:28.848Z</time></trkpt><trkpt lat="44.8587383" lon="8.0166333"><ele>248.5</ele><time>2026-04-05T09:40:29.848Z</time></trkpt><trkpt lat="44.8587333" lon="8.0165267"><ele>247.33333333333334</ele><time>2026-04-05T09:40:30.848Z</time></trkpt><trkpt lat="44.858725" lon="8.0163917"><ele>246.16666666666669</ele><time>2026-04-05T09:40:32.848Z</time></trkpt><trkpt lat="44.8587667" lon="8.01629"><ele>245.0</ele><time>2026-04-05T09:40:35.848Z</time></trkpt><trkpt lat="44.8587183" lon="8.01617"><ele>245.00000000000003</ele><time>2026-04-05T09:40:44.848Z</time></trkpt><trkpt lat="44.8586383" lon="8.016185"><ele>245.0</ele><time>2026-04-05T09:40:47.847Z</time></trkpt><trkpt lat="44.858575" lon="8.0161733"><ele>245.0</ele><time>2026-04-05T09:40:50.847Z</time></trkpt><trkpt lat="44.85849" lon="8.016155"><ele>245.0</ele><time>2026-04-05T09:40:53.848Z</time></trkpt><trkpt lat="44.8583983" lon="8.016185"><ele>245.00000000000003</ele><time>2026-04-05T09:40:55.848Z</time></trkpt><trkpt lat="44.8582967" lon="8.0161567"><ele>245.0</ele><time>2026-04-05T09:40:57.848Z</time></trkpt><trkpt lat="44.858195" lon="8.0161283"><ele>246.8</ele><time>2026-04-05T09:40:59.848Z</time></trkpt><trkpt lat="44.8580933" lon="8.016075"><ele>248.6</ele><time>2026-04-05T09:41:01.848Z</time></trkpt><trkpt lat="44.857995" lon="8.0160183"><ele>250.39999999999998</ele><time>2026-04-05T09:41:03.848Z</time></trkpt><trkpt lat="44.8579017" lon="8.016025"><ele>252.2</ele><time>2026-04-05T09:41:05.848Z</time></trkpt><trkpt lat="44.8578283" lon="8.0160267"><ele>254.0</ele><time>2026-04-05T09:41:08.848Z</time></trkpt><trkpt lat="44.8578017" lon="8.0159233"><ele>254.00000000000003</ele><time>2026-04-05T09:41:11.848Z</time></trkpt><trkpt lat="44.8577433" lon="8.01587"><ele>254.0</ele><time>2026-04-05T09:41:14.848Z</time></trkpt><trkpt lat="44.8576617" lon="8.015835"><ele>254.0</ele><time>2026-04-05T09:41:17.848Z</time></trkpt><trkpt lat="44.8575767" lon="8.0157633"><ele>254.0</ele><time>2026-04-05T09:41:20.848Z</time></trkpt><trkpt lat="44.8575033" lon="8.0157333"><ele>254.00000000000003</ele><time>2026-04-05T09:41:22.848Z</time></trkpt><trkpt lat="44.857455" lon="8.0156417"><ele>254.0</ele><time>2026-04-05T09:41:25.848Z</time></trkpt><trkpt lat="44.85745" lon="8.01554"><ele>253.16666666666669</ele><time>2026-04-05T09:41:27.848Z</time></trkpt><trkpt lat="44.8574383" lon="8.0154067"><ele>252.33333333333334</ele><time>2026-04-05T09:41:29.848Z</time></trkpt><trkpt lat="44.85745" lon="8.0153"><ele>251.5</ele><time>2026-04-05T09:41:31.848Z</time></trkpt><trkpt lat="44.8574317" lon="8.0152067"><ele>250.66666666666669</ele><time>2026-04-05T09:41:34.848Z</time></trkpt><trkpt lat="44.8574117" lon="8.01511"><ele>249.83333333333334</ele><time>2026-04-05T09:41:36.848Z</time></trkpt><trkpt lat="44.8573983" lon="8.0150083"><ele>249.0</ele><time>2026-04-05T09:41:38.848Z</time></trkpt><trkpt lat="44.85732" lon="8.0149867"><ele>246.66666666666666</ele><time>2026-04-05T09:41:41.848Z</time></trkpt><trkpt lat="44.8572533" lon="8.01497"><ele>244.33333333333331</ele><time>2026-04-05T09:41:43.848Z</time></trkpt><trkpt lat="44.8571783" lon="8.0149367"><ele>242.0</ele><time>2026-04-05T09:41:45.848Z</time></trkpt><trkpt lat="44.8571133" lon="8.0148617"><ele>239.66666666666666</ele><time>2026-04-05T09:41:47.848Z</time></trkpt><trkpt lat="44.85705" lon="8.0147633"><ele>237.33333333333331</ele><time>2026-04-05T09:41:49.848Z</time></trkpt><trkpt lat="44.856985" lon="8.0146733"><ele>235.0</ele><time>2026-04-05T09:41:51.848Z</time></trkpt><trkpt lat="44.8569017" lon="8.014665"><ele>234.99999999999997</ele><time>2026-04-05T09:41:54.847Z</time></trkpt><trkpt lat="44.8568217" lon="8.01462"><ele>235.0</ele><time>2026-04-05T09:41:57.848Z</time></trkpt><trkpt lat="44.856785" lon="8.01454"><ele>235.0</ele><time>2026-04-05T09:42:00.848Z</time></trkpt><trkpt lat="44.8568283" lon="8.0144433"><ele>235.0</ele><time>2026-04-05T09:42:48.848Z</time></trkpt><trkpt lat="44.8568783" lon="8.0143333"><ele>234.99999999999997</ele><time>2026-04-05T09:42:50.848Z</time></trkpt><trkpt lat="44.8569233" lon="8.0142267"><ele>235.0</ele><time>2026-04-05T09:42:52.847Z</time></trkpt><trkpt lat="44.8569667" lon="8.0141417"><ele>234.99999999999997</ele><time>2026-04-05T09:42:54.848Z</time></trkpt><trkpt lat="44.8570033" lon="8.0140383"><ele>235.0</ele><time>2026-04-05T09:42:56.848Z</time></trkpt><trkpt lat="44.857025" lon="8.0139317"><ele>235.0</ele><time>2026-04-05T09:42:58.848Z</time></trkpt><trkpt lat="44.85696" lon="8.0139717"><ele>235.0</ele><time>2026-04-05T09:43:04.848Z</time></trkpt><trkpt lat="44.8569067" lon="8.014045"><ele>234.99999999999997</ele><time>2026-04-05T09:43:06.848Z</time></trkpt><trkpt lat="44.8568183" lon="8.01411"><ele>235.0</ele><time>2026-04-05T09:43:08.848Z</time></trkpt><trkpt lat="44.856705" lon="8.0141767"><ele>235.8</ele><time>2026-04-05T09:43:10.848Z</time></trkpt><trkpt lat="44.85663" lon="8.014215"><ele>236.6</ele><time>2026-04-05T09:43:11.848Z</time></trkpt><trkpt lat="44.8565383" lon="8.0142467"><ele>237.39999999999998</ele><time>2026-04-05T09:43:12.847Z</time></trkpt><trkpt lat="44.856435" lon="8.014275"><ele>238.2</ele><time>2026-04-05T09:43:13.848Z</time></trkpt><trkpt lat="44.85634" lon="8.0143167"><ele>239.0</ele><time>2026-04-05T09:43:14.848Z</time></trkpt><trkpt lat="44.856235" lon="8.0143717"><ele>239.0</ele><time>2026-04-05T09:43:15.848Z</time></trkpt><trkpt lat="44.85614" lon="8.0144267"><ele>238.99999999999997</ele><time>2026-04-05T09:43:16.848Z</time></trkpt><trkpt lat="44.8560417" lon="8.0144833"><ele>238.99999999999997</ele><time>2026-04-05T09:43:17.848Z</time></trkpt><trkpt lat="44.8559417" lon="8.0145417"><ele>239.0</ele><time>2026-04-05T09:43:18.847Z</time></trkpt><trkpt lat="44.8558367" lon="8.014585"><ele>239.0</ele><time>2026-04-05T09:43:19.848Z</time></trkpt><trkpt lat="44.8557367" lon="8.0146167"><ele>240.66666666666669</ele><time>2026-04-05T09:43:20.848Z</time></trkpt><trkpt lat="44.85564" lon="8.0146417"><ele>242.33333333333334</ele><time>2026-04-05T09:43:21.848Z</time></trkpt><trkpt lat="44.8555533" lon="8.0146667"><ele>244.0</ele><time>2026-04-05T09:43:22.848Z</time></trkpt><trkpt lat="44.855485" lon="8.0146833"><ele>245.66666666666669</ele><time>2026-04-05T09:43:23.848Z</time></trkpt><trkpt lat="44.855415" lon="8.0147017"><ele>247.33333333333334</ele><time>2026-04-05T09:43:24.848Z</time></trkpt><trkpt lat="44.85535" lon="8.0147167"><ele>249.0</ele><time>2026-04-05T09:43:25.848Z</time></trkpt><trkpt lat="44.8552783" lon="8.014735"><ele>249.0</ele><time>2026-04-05T09:43:26.848Z</time></trkpt><trkpt lat="44.8552067" lon="8.0147467"><ele>249.0</ele><time>2026-04-05T09:43:27.848Z</time></trkpt><trkpt lat="44.85514" lon="8.0147683"><ele>249.0</ele><time>2026-04-05T09:43:28.848Z</time></trkpt><trkpt lat="44.8550767" lon="8.0147867"><ele>249.0</ele><time>2026-04-05T09:43:29.848Z</time></trkpt><trkpt lat="44.8550167" lon="8.01483"><ele>249.0</ele><time>2026-04-05T09:43:31.848Z</time></trkpt><trkpt lat="44.8549417" lon="8.014875"><ele>249.0</ele><time>2026-04-05T09:43:34.848Z</time></trkpt><trkpt lat="44.85485" lon="8.01493"><ele>249.83333333333334</ele><time>2026-04-05T09:43:36.847Z</time></trkpt><trkpt lat="44.8547433" lon="8.0149883"><ele>250.66666666666669</ele><time>2026-04-05T09:43:38.848Z</time></trkpt><trkpt lat="44.854635" lon="8.01504"><ele>251.5</ele><time>2026-04-05T09:43:40.848Z</time></trkpt><trkpt lat="44.85457" lon="8.0150717"><ele>252.33333333333334</ele><time>2026-04-05T09:43:41.848Z</time></trkpt><trkpt lat="44.8544983" lon="8.0151067"><ele>253.16666666666669</ele><time>2026-04-05T09:43:42.847Z</time></trkpt><trkpt lat="44.854435" lon="8.01514"><ele>254.0</ele><time>2026-04-05T09:43:43.848Z</time></trkpt><trkpt lat="44.854375" lon="8.0151783"><ele>254.00000000000003</ele><time>2026-04-05T09:43:44.848Z</time></trkpt><trkpt lat="44.854315" lon="8.0152183"><ele>254.0</ele><time>2026-04-05T09:43:45.848Z</time></trkpt><trkpt lat="44.8542583" lon="8.0152617"><ele>254.0</ele><time>2026-04-05T09:43:46.848Z</time></trkpt><trkpt lat="44.8541567" lon="8.0153433"><ele>254.0</ele><time>2026-04-05T09:43:48.848Z</time></trkpt><trkpt lat="44.8540533" lon="8.0154383"><ele>254.00000000000003</ele><time>2026-04-05T09:43:50.848Z</time></trkpt><trkpt lat="44.853995" lon="8.015495"><ele>254.0</ele><time>2026-04-05T09:43:51.848Z</time></trkpt><trkpt lat="44.8538933" lon="8.01561"><ele>254.0</ele><time>2026-04-05T09:43:53.848Z</time></trkpt><trkpt lat="44.8538033" lon="8.0157117"><ele>253.99999999999997</ele><time>2026-04-05T09:43:55.847Z</time></trkpt><trkpt lat="44.853695" lon="8.015805"><ele>253.99999999999997</ele><time>2026-04-05T09:43:57.848Z</time></trkpt><trkpt lat="44.853615" lon="8.0158683"><ele>254.0</ele><time>2026-04-05T09:43:59.847Z</time></trkpt><trkpt lat="44.8535633" lon="8.0159267"><ele>254.0</ele><time>2026-04-05T09:44:27.848Z</time></trkpt><trkpt lat="44.8535017" lon="8.015975"><ele>257.2</ele><time>2026-04-05T09:44:29.848Z</time></trkpt><trkpt lat="44.8534117" lon="8.0160367"><ele>260.4</ele><time>2026-04-05T09:44:31.848Z</time></trkpt><trkpt lat="44.85333" lon="8.0161"><ele>263.6</ele><time>2026-04-05T09:44:33.848Z</time></trkpt><trkpt lat="44.8532483" lon="8.0161683"><ele>266.8</ele><time>2026-04-05T09:44:35.848Z</time></trkpt><trkpt lat="44.853165" lon="8.0162383"><ele>270.0</ele><time>2026-04-05T09:44:37.848Z</time></trkpt><trkpt lat="44.8530833" lon="8.01629"><ele>270.0</ele><time>2026-04-05T09:44:39.848Z</time></trkpt><trkpt lat="44.8530067" lon="8.01634"><ele>270.0</ele><time>2026-04-05T09:44:41.848Z</time></trkpt><trkpt lat="44.8529383" lon="8.016405"><ele>270.0</ele><time>2026-04-05T09:44:43.848Z</time></trkpt><trkpt lat="44.8528783" lon="8.0164333"><ele>270.0</ele><time>2026-04-05T09:44:45.848Z</time></trkpt><trkpt lat="44.8528033" lon="8.016445"><ele>270.0</ele><time>2026-04-05T09:47:35.848Z</time></trkpt><trkpt lat="44.85287" lon="8.0164483"><ele>270.0</ele><time>2026-04-05T09:47:40.848Z</time></trkpt><trkpt lat="44.852935" lon="8.0164183"><ele>270.0</ele><time>2026-04-05T09:47:42.847Z</time></trkpt><trkpt lat="44.853015" lon="8.0163567"><ele>270.0</ele><time>2026-04-05T09:47:45.848Z</time></trkpt><trkpt lat="44.85307" lon="8.016305"><ele>270.0</ele><time>2026-04-05T09:47:47.848Z</time></trkpt><trkpt lat="44.8531417" lon="8.0162433"><ele>270.0</ele><time>2026-04-05T09:47:49.848Z</time></trkpt><trkpt lat="44.8532233" lon="8.0161717"><ele>270.0</ele><time>2026-04-05T09:47:51.848Z</time></trkpt><trkpt lat="44.8533067" lon="8.0161117"><ele>270.0</ele><time>2026-04-05T09:47:53.848Z</time></trkpt><trkpt lat="44.8533783" lon="8.0160567"><ele>270.0</ele><time>2026-04-05T09:47:55.848Z</time></trkpt><trkpt lat="44.853435" lon="8.016015"><ele>267.6666666666667</ele><time>2026-04-05T09:47:57.848Z</time></trkpt><trkpt lat="44.8535117" lon="8.0159717"><ele>265.3333333333333</ele><time>2026-04-05T09:47:59.848Z</time></trkpt><trkpt lat="44.8535833" lon="8.0158833"><ele>263.0</ele><time>2026-04-05T09:48:01.848Z</time></trkpt><trkpt lat="44.8536333" lon="8.0157883"><ele>260.66666666666663</ele><time>2026-04-05T09:48:03.848Z</time></trkpt><trkpt lat="44.8536817" lon="8.0157167"><ele>258.3333333333333</ele><time>2026-04-05T09:48:05.848Z</time></trkpt><trkpt lat="44.8537483" lon="8.01565"><ele>256.0</ele><time>2026-04-05T09:48:08.848Z</time></trkpt><trkpt lat="44.8538067" lon="8.0155833"><ele>254.0</ele><time>2026-04-05T09:48:10.847Z</time></trkpt><trkpt lat="44.8538567" lon="8.0155183"><ele>254.0</ele><time>2026-04-05T09:48:12.848Z</time></trkpt></trkseg><trkseg><trkpt lat="44.8540767" lon="8.0152633"><ele>254.00000000000003</ele><time>2026-04-05T10:20:46.271Z</time></trkpt><trkpt lat="44.8540133" lon="8.01537"><ele>254.0</ele><time>2026-04-05T10:20:49.27Z</time></trkpt><trkpt lat="44.8540383" lon="8.0152717"><ele>254.0</ele><time>2026-04-05T10:20:56.847Z</time></trkpt><trkpt lat="44.8540983" lon="8.0152017"><ele>254.0</ele><time>2026-04-05T10:20:58.847Z</time></trkpt><trkpt lat="44.85416" lon="8.015125"><ele>254.00000000000003</ele><time>2026-04-05T10:21:00.846Z</time></trkpt><trkpt lat="44.854235" lon="8.01503"><ele>254.0</ele><time>2026-04-05T10:21:02.847Z</time></trkpt><trkpt lat="44.8543167" lon="8.0149083"><ele>252.71428571428572</ele><time>2026-04-05T10:21:04.847Z</time></trkpt><trkpt lat="44.8543617" lon="8.0148417"><ele>251.42857142857142</ele><time>2026-04-05T10:21:05.847Z</time></trkpt><trkpt lat="44.8544133" lon="8.014765"><ele>250.14285714285714</ele><time>2026-04-05T10:21:06.847Z</time></trkpt><trkpt lat="44.8544733" lon="8.0146883"><ele>248.85714285714286</ele><time>2026-04-05T10:21:07.847Z</time></trkpt><trkpt lat="44.8545183" lon="8.0146233"><ele>247.57142857142856</ele><time>2026-04-05T10:21:08.847Z</time></trkpt><trkpt lat="44.854585" lon="8.01455"><ele>246.28571428571428</ele><time>2026-04-05T10:21:09.847Z</time></trkpt><trkpt lat="44.8546417" lon="8.0144883"><ele>245.0</ele><time>2026-04-05T10:21:10.847Z</time></trkpt><trkpt lat="44.8546967" lon="8.0144367"><ele>245.0</ele><time>2026-04-05T10:21:11.847Z</time></trkpt><trkpt lat="44.8548083" lon="8.01437"><ele>245.0</ele><time>2026-04-05T10:21:13.847Z</time></trkpt><trkpt lat="44.8549" lon="8.0142917"><ele>245.0</ele><time>2026-04-05T10:21:15.847Z</time></trkpt><trkpt lat="44.8549767" lon="8.01423"><ele>245.0</ele><time>2026-04-05T10:21:17.846Z</time></trkpt><trkpt lat="44.85507" lon="8.01419"><ele>245.0</ele><time>2026-04-05T10:21:19.847Z</time></trkpt><trkpt lat="44.8551683" lon="8.0141167"><ele>243.4</ele><time>2026-04-05T10:21:21.847Z</time></trkpt><trkpt lat="44.85524" lon="8.0140283"><ele>241.8</ele><time>2026-04-05T10:21:23.846Z</time></trkpt><trkpt lat="44.8552583" lon="8.0139083"><ele>240.2</ele><time>2026-04-05T10:21:25.847Z</time></trkpt><trkpt lat="44.855215" lon="8.0137583"><ele>238.6</ele><time>2026-04-05T10:21:27.846Z</time></trkpt><trkpt lat="44.85518" lon="8.0136833"><ele>237.0</ele><time>2026-04-05T10:21:28.847Z</time></trkpt><trkpt lat="44.8551783" lon="8.0135333"><ele>237.0</ele><time>2026-04-05T10:21:30.847Z</time></trkpt><trkpt lat="44.8552567" lon="8.0133917"><ele>237.0</ele><time>2026-04-05T10:21:32.847Z</time></trkpt><trkpt lat="44.8553067" lon="8.0133167"><ele>237.0</ele><time>2026-04-05T10:21:33.847Z</time></trkpt><trkpt lat="44.8553667" lon="8.0132317"><ele>237.0</ele><time>2026-04-05T10:21:34.847Z</time></trkpt><trkpt lat="44.85543" lon="8.0131483"><ele>237.0</ele><time>2026-04-05T10:21:35.847Z</time></trkpt><trkpt lat="44.855495" lon="8.013065"><ele>237.33333333333334</ele><time>2026-04-05T10:21:36.847Z</time></trkpt><trkpt lat="44.8555517" lon="8.01299"><ele>237.66666666666669</ele><time>2026-04-05T10:21:37.846Z</time></trkpt><trkpt lat="44.8556" lon="8.0129183"><ele>238.0</ele><time>2026-04-05T10:21:38.847Z</time></trkpt><trkpt lat="44.8556783" lon="8.0128067"><ele>238.33333333333334</ele><time>2026-04-05T10:21:40.847Z</time></trkpt><trkpt lat="44.85574" lon="8.0127317"><ele>238.66666666666669</ele><time>2026-04-05T10:21:42.847Z</time></trkpt><trkpt lat="44.85579" lon="8.01265"><ele>239.0</ele><time>2026-04-05T10:21:44.846Z</time></trkpt><trkpt lat="44.8558033" lon="8.012545"><ele>240.83333333333334</ele><time>2026-04-05T10:21:47.846Z</time></trkpt><trkpt lat="44.8558067" lon="8.0124317"><ele>242.66666666666669</ele><time>2026-04-05T10:21:50.847Z</time></trkpt><trkpt lat="44.8557617" lon="8.01227"><ele>244.5</ele><time>2026-04-05T10:21:52.847Z</time></trkpt><trkpt lat="44.8557083" lon="8.01218"><ele>246.33333333333331</ele><time>2026-04-05T10:21:53.847Z</time></trkpt><trkpt lat="44.855665" lon="8.0120933"><ele>248.16666666666666</ele><time>2026-04-05T10:21:54.846Z</time></trkpt><trkpt lat="44.8556167" lon="8.012005"><ele>250.0</ele><time>2026-04-05T10:21:55.847Z</time></trkpt><trkpt lat="44.8555667" lon="8.011915"><ele>249.99999999999997</ele><time>2026-04-05T10:21:56.846Z</time></trkpt><trkpt lat="44.8555033" lon="8.011835"><ele>250.0</ele><time>2026-04-05T10:21:57.847Z</time></trkpt><trkpt lat="44.855435" lon="8.011755"><ele>250.0</ele><time>2026-04-05T10:21:58.847Z</time></trkpt><trkpt lat="44.8553767" lon="8.0116767"><ele>250.0</ele><time>2026-04-05T10:21:59.847Z</time></trkpt><trkpt lat="44.8553183" lon="8.0115967"><ele>249.99999999999997</ele><time>2026-04-05T10:22:00.847Z</time></trkpt><trkpt lat="44.85526" lon="8.0115117"><ele>250.0</ele><time>2026-04-05T10:22:01.846Z</time></trkpt><trkpt lat="44.8552" lon="8.0114267"><ele>250.28571428571428</ele><time>2026-04-05T10:22:02.847Z</time></trkpt><trkpt lat="44.8551483" lon="8.01134"><ele>250.57142857142858</ele><time>2026-04-05T10:22:03.846Z</time></trkpt><trkpt lat="44.8551033" lon="8.0112567"><ele>250.85714285714286</ele><time>2026-04-05T10:22:04.847Z</time></trkpt><trkpt lat="44.85505" lon="8.0111833"><ele>251.14285714285714</ele><time>2026-04-05T10:22:05.847Z</time></trkpt><trkpt lat="44.854995" lon="8.01111"><ele>251.42857142857144</ele><time>2026-04-05T10:22:06.847Z</time></trkpt><trkpt lat="44.8549417" lon="8.011055"><ele>251.71428571428572</ele><time>2026-04-05T10:22:07.847Z</time></trkpt><trkpt lat="44.854885" lon="8.0110133"><ele>252.0</ele><time>2026-04-05T10:22:08.847Z</time></trkpt><trkpt lat="44.8547583" lon="8.0109733"><ele>252.0</ele><time>2026-04-05T10:22:10.847Z</time></trkpt><trkpt lat="44.85467" lon="8.0109733"><ele>252.0</ele><time>2026-04-05T10:22:11.847Z</time></trkpt><trkpt lat="44.8545783" lon="8.0109733"><ele>252.0</ele><time>2026-04-05T10:22:12.847Z</time></trkpt><trkpt lat="44.8544917" lon="8.01096"><ele>252.0</ele><time>2026-04-05T10:22:13.847Z</time></trkpt><trkpt lat="44.8544233" lon="8.0109233"><ele>252.0</ele><time>2026-04-05T10:22:14.847Z</time></trkpt><trkpt lat="44.8543567" lon="8.010885"><ele>252.0</ele><time>2026-04-05T10:22:15.847Z</time></trkpt><trkpt lat="44.8542867" lon="8.0108417"><ele>253.28571428571428</ele><time>2026-04-05T10:22:16.847Z</time></trkpt><trkpt lat="44.8542117" lon="8.0108"><ele>254.57142857142856</ele><time>2026-04-05T10:22:17.847Z</time></trkpt><trkpt lat="44.854145" lon="8.0107683"><ele>255.85714285714286</ele><time>2026-04-05T10:22:18.847Z</time></trkpt><trkpt lat="44.8540817" lon="8.010745"><ele>257.1428571428571</ele><time>2026-04-05T10:22:19.846Z</time></trkpt><trkpt lat="44.854015" lon="8.010735"><ele>258.42857142857144</ele><time>2026-04-05T10:22:20.846Z</time></trkpt><trkpt lat="44.8539517" lon="8.0107217"><ele>259.7142857142857</ele><time>2026-04-05T10:22:21.847Z</time></trkpt><trkpt lat="44.853885" lon="8.0107017"><ele>261.0</ele><time>2026-04-05T10:22:22.847Z</time></trkpt><trkpt lat="44.8538167" lon="8.010675"><ele>261.0</ele><time>2026-04-05T10:22:23.847Z</time></trkpt><trkpt lat="44.8537583" lon="8.0106383"><ele>261.0</ele><time>2026-04-05T10:22:24.847Z</time></trkpt><trkpt lat="44.8536567" lon="8.010545"><ele>261.0</ele><time>2026-04-05T10:22:26.847Z</time></trkpt><trkpt lat="44.8536067" lon="8.0104867"><ele>261.0</ele><time>2026-04-05T10:22:27.847Z</time></trkpt><trkpt lat="44.8535483" lon="8.0104367"><ele>261.0</ele><time>2026-04-05T10:22:28.847Z</time></trkpt><trkpt lat="44.8534883" lon="8.0103933"><ele>261.0</ele><time>2026-04-05T10:22:29.847Z</time></trkpt><trkpt lat="44.8534083" lon="8.010305"><ele>260.40000000000003</ele><time>2026-04-05T10:22:31.847Z</time></trkpt><trkpt lat="44.853305" lon="8.0102683"><ele>259.8</ele><time>2026-04-05T10:22:33.847Z</time></trkpt><trkpt lat="44.8532067" lon="8.0103"><ele>259.20000000000005</ele><time>2026-04-05T10:22:35.847Z</time></trkpt><trkpt lat="44.85313" lon="8.0103233"><ele>258.6</ele><time>2026-04-05T10:22:37.847Z</time></trkpt><trkpt lat="44.8530433" lon="8.0102817"><ele>258.0</ele><time>2026-04-05T10:22:39.847Z</time></trkpt><trkpt lat="44.8529333" lon="8.010205"><ele>258.0</ele><time>2026-04-05T10:22:41.846Z</time></trkpt><trkpt lat="44.8528217" lon="8.0101433"><ele>258.0</ele><time>2026-04-05T10:22:43.847Z</time></trkpt><trkpt lat="44.8527683" lon="8.010095"><ele>258.0</ele><time>2026-04-05T10:22:44.847Z</time></trkpt><trkpt lat="44.8527033" lon="8.010065"><ele>258.0</ele><time>2026-04-05T10:22:45.847Z</time></trkpt><trkpt lat="44.85261" lon="8.0100233"><ele>258.0</ele><time>2026-04-05T10:22:47.847Z</time></trkpt><trkpt lat="44.852545" lon="8.0100333"><ele>258.0</ele><time>2026-04-05T10:22:48.847Z</time></trkpt><trkpt lat="44.85245" lon="8.0100717"><ele>257.2</ele><time>2026-04-05T10:22:49.847Z</time></trkpt><trkpt lat="44.8523833" lon="8.0100967"><ele>256.4</ele><time>2026-04-05T10:22:50.847Z</time></trkpt><trkpt lat="44.852295" lon="8.01011"><ele>255.59999999999997</ele><time>2026-04-05T10:22:52.847Z</time></trkpt><trkpt lat="44.8522067" lon="8.01015"><ele>254.79999999999998</ele><time>2026-04-05T10:23:08.847Z</time></trkpt><trkpt lat="44.8521233" lon="8.01014"><ele>254.0</ele><time>2026-04-05T10:23:10.847Z</time></trkpt><trkpt lat="44.852" lon="8.0101417"><ele>254.00000000000003</ele><time>2026-04-05T10:23:12.847Z</time></trkpt><trkpt lat="44.8519017" lon="8.0101667"><ele>254.0</ele><time>2026-04-05T10:23:13.847Z</time></trkpt><trkpt lat="44.8518133" lon="8.0102217"><ele>254.0</ele><time>2026-04-05T10:23:14.847Z</time></trkpt><trkpt lat="44.8517483" lon="8.01028"><ele>254.0</ele><time>2026-04-05T10:23:15.846Z</time></trkpt><trkpt lat="44.851685" lon="8.0103383"><ele>254.00000000000003</ele><time>2026-04-05T10:23:16.847Z</time></trkpt><trkpt lat="44.851625" lon="8.01038"><ele>254.0</ele><time>2026-04-05T10:23:17.847Z</time></trkpt><trkpt lat="44.8515583" lon="8.0104117"><ele>253.83333333333334</ele><time>2026-04-05T10:23:18.847Z</time></trkpt><trkpt lat="44.8514933" lon="8.0104333"><ele>253.66666666666669</ele><time>2026-04-05T10:23:19.847Z</time></trkpt><trkpt lat="44.851425" lon="8.01045"><ele>253.5</ele><time>2026-04-05T10:23:20.846Z</time></trkpt><trkpt lat="44.8513583" lon="8.0104583"><ele>253.33333333333331</ele><time>2026-04-05T10:23:21.846Z</time></trkpt><trkpt lat="44.851285" lon="8.0104717"><ele>253.16666666666666</ele><time>2026-04-05T10:23:22.847Z</time></trkpt><trkpt lat="44.8511617" lon="8.0104883"><ele>253.0</ele><time>2026-04-05T10:23:24.847Z</time></trkpt><trkpt lat="44.8510967" lon="8.0104883"><ele>253.0</ele><time>2026-04-05T10:23:25.847Z</time></trkpt><trkpt lat="44.85099" lon="8.0104983"><ele>253.0</ele><time>2026-04-05T10:23:27.846Z</time></trkpt><trkpt lat="44.85088" lon="8.010545"><ele>253.0</ele><time>2026-04-05T10:23:29.847Z</time></trkpt><trkpt lat="44.85078" lon="8.0105933"><ele>253.0</ele><time>2026-04-05T10:23:31.847Z</time></trkpt><trkpt lat="44.850675" lon="8.0106633"><ele>253.0</ele><time>2026-04-05T10:23:33.847Z</time></trkpt><trkpt lat="44.8505833" lon="8.0107283"><ele>253.49999999999997</ele><time>2026-04-05T10:23:35.847Z</time></trkpt><trkpt lat="44.8504983" lon="8.0108"><ele>254.0</ele><time>2026-04-05T10:23:37.847Z</time></trkpt><trkpt lat="44.850395" lon="8.010905"><ele>254.5</ele><time>2026-04-05T10:23:39.847Z</time></trkpt><trkpt lat="44.850335" lon="8.0109567"><ele>255.0</ele><time>2026-04-05T10:23:40.847Z</time></trkpt><trkpt lat="44.8502733" lon="8.0109983"><ele>255.49999999999997</ele><time>2026-04-05T10:23:41.847Z</time></trkpt><trkpt lat="44.8502067" lon="8.0110517"><ele>256.0</ele><time>2026-04-05T10:23:42.847Z</time></trkpt><trkpt lat="44.8501467" lon="8.0111117"><ele>256.8333333333333</ele><time>2026-04-05T10:23:43.847Z</time></trkpt><trkpt lat="44.8500967" lon="8.0111833"><ele>257.66666666666663</ele><time>2026-04-05T10:23:44.847Z</time></trkpt><trkpt lat="44.8500467" lon="8.0112683"><ele>258.5</ele><time>2026-04-05T10:23:45.847Z</time></trkpt><trkpt lat="44.849995" lon="8.0113533"><ele>259.3333333333333</ele><time>2026-04-05T10:23:46.847Z</time></trkpt><trkpt lat="44.849945" lon="8.011435"><ele>260.1666666666667</ele><time>2026-04-05T10:23:47.847Z</time></trkpt><trkpt lat="44.8499" lon="8.0115233"><ele>261.0</ele><time>2026-04-05T10:23:48.847Z</time></trkpt><trkpt lat="44.8498533" lon="8.0116"><ele>260.8</ele><time>2026-04-05T10:23:49.847Z</time></trkpt><trkpt lat="44.8498133" lon="8.0116767"><ele>260.6</ele><time>2026-04-05T10:23:50.847Z</time></trkpt><trkpt lat="44.8497567" lon="8.0118133"><ele>260.4</ele><time>2026-04-05T10:23:52.847Z</time></trkpt><trkpt lat="44.8497217" lon="8.0119333"><ele>260.2</ele><time>2026-04-05T10:23:54.846Z</time></trkpt><trkpt lat="44.8496983" lon="8.0120933"><ele>260.0</ele><time>2026-04-05T10:23:56.847Z</time></trkpt><trkpt lat="44.849635" lon="8.0122283"><ele>260.0</ele><time>2026-04-05T10:23:58.847Z</time></trkpt><trkpt lat="44.8495283" lon="8.0123083"><ele>260.0</ele><time>2026-04-05T10:24:00.847Z</time></trkpt><trkpt lat="44.8494483" lon="8.0123867"><ele>260.0</ele><time>2026-04-05T10:24:02.847Z</time></trkpt><trkpt lat="44.8494" lon="8.0125217"><ele>260.0</ele><time>2026-04-05T10:24:04.846Z</time></trkpt><trkpt lat="44.8493667" lon="8.0125983"><ele>260.0</ele><time>2026-04-05T10:24:05.847Z</time></trkpt><trkpt lat="44.8493333" lon="8.0126833"><ele>261.33333333333337</ele><time>2026-04-05T10:24:06.847Z</time></trkpt><trkpt lat="44.84928" lon="8.0127567"><ele>262.6666666666667</ele><time>2026-04-05T10:24:07.846Z</time></trkpt><trkpt lat="44.849225" lon="8.012825"><ele>264.0</ele><time>2026-04-05T10:24:08.846Z</time></trkpt><trkpt lat="44.849145" lon="8.0129117"><ele>265.3333333333333</ele><time>2026-04-05T10:24:09.847Z</time></trkpt><trkpt lat="44.8490867" lon="8.0129933"><ele>266.66666666666663</ele><time>2026-04-05T10:24:10.847Z</time></trkpt><trkpt lat="44.8490317" lon="8.01306"><ele>268.0</ele><time>2026-04-05T10:24:11.847Z</time></trkpt><trkpt lat="44.8489667" lon="8.0131183"><ele>268.0</ele><time>2026-04-05T10:24:12.847Z</time></trkpt><trkpt lat="44.8489017" lon="8.01317"><ele>268.0</ele><time>2026-04-05T10:24:13.847Z</time></trkpt><trkpt lat="44.8488317" lon="8.0132217"><ele>268.0</ele><time>2026-04-05T10:24:14.847Z</time></trkpt><trkpt lat="44.84877" lon="8.01327"><ele>268.0</ele><time>2026-04-05T10:24:15.847Z</time></trkpt><trkpt lat="44.848705" lon="8.013325"><ele>268.0</ele><time>2026-04-05T10:24:16.847Z</time></trkpt><trkpt lat="44.84862" lon="8.0133967"><ele>268.0</ele><time>2026-04-05T10:24:18.846Z</time></trkpt><trkpt lat="44.84854" lon="8.0134583"><ele>268.66666666666663</ele><time>2026-04-05T10:24:20.847Z</time></trkpt><trkpt lat="44.8484383" lon="8.013555"><ele>269.3333333333333</ele><time>2026-04-05T10:24:22.847Z</time></trkpt><trkpt lat="44.848365" lon="8.013605"><ele>270.0</ele><time>2026-04-05T10:24:23.847Z</time></trkpt><trkpt lat="44.8483" lon="8.0136567"><ele>270.6666666666667</ele><time>2026-04-05T10:24:24.847Z</time></trkpt><trkpt lat="44.848225" lon="8.0137"><ele>271.33333333333337</ele><time>2026-04-05T10:24:25.847Z</time></trkpt><trkpt lat="44.8481433" lon="8.0137383"><ele>272.0</ele><time>2026-04-05T10:24:26.847Z</time></trkpt><trkpt lat="44.8480817" lon="8.01378"><ele>272.0</ele><time>2026-04-05T10:24:27.847Z</time></trkpt><trkpt lat="44.847975" lon="8.0138583"><ele>272.0</ele><time>2026-04-05T10:24:29.847Z</time></trkpt><trkpt lat="44.84787" lon="8.0139383"><ele>272.0</ele><time>2026-04-05T10:24:31.847Z</time></trkpt><trkpt lat="44.8477783" lon="8.0139733"><ele>272.0</ele><time>2026-04-05T10:24:33.847Z</time></trkpt><trkpt lat="44.8477" lon="8.0139733"><ele>272.0</ele><time>2026-04-05T10:24:35.847Z</time></trkpt><trkpt lat="44.8476333" lon="8.0139833"><ele>272.6666666666667</ele><time>2026-04-05T10:24:38.847Z</time></trkpt><trkpt lat="44.847545" lon="8.0140467"><ele>273.33333333333337</ele><time>2026-04-05T10:24:40.847Z</time></trkpt><trkpt lat="44.8474733" lon="8.014095"><ele>274.0</ele><time>2026-04-05T10:24:41.847Z</time></trkpt><trkpt lat="44.8473983" lon="8.01414"><ele>274.6666666666667</ele><time>2026-04-05T10:24:42.847Z</time></trkpt><trkpt lat="44.8473283" lon="8.0141867"><ele>275.3333333333333</ele><time>2026-04-05T10:24:43.847Z</time></trkpt><trkpt lat="44.84727" lon="8.0142283"><ele>276.0</ele><time>2026-04-05T10:24:44.847Z</time></trkpt><trkpt lat="44.8472083" lon="8.0142617"><ele>276.0</ele><time>2026-04-05T10:24:45.847Z</time></trkpt><trkpt lat="44.8471483" lon="8.01429"><ele>276.0</ele><time>2026-04-05T10:24:46.847Z</time></trkpt><trkpt lat="44.8470517" lon="8.0143483"><ele>276.0</ele><time>2026-04-05T10:24:48.847Z</time></trkpt><trkpt lat="44.846995" lon="8.014395"><ele>276.0</ele><time>2026-04-05T10:24:49.846Z</time></trkpt><trkpt lat="44.8469117" lon="8.0144783"><ele>276.0</ele><time>2026-04-05T10:24:51.847Z</time></trkpt><trkpt lat="44.8468283" lon="8.0145667"><ele>276.0</ele><time>2026-04-05T10:24:53.847Z</time></trkpt><trkpt lat="44.8467267" lon="8.01466"><ele>276.8333333333333</ele><time>2026-04-05T10:24:55.847Z</time></trkpt><trkpt lat="44.84667" lon="8.01472"><ele>277.6666666666667</ele><time>2026-04-05T10:24:56.847Z</time></trkpt><trkpt lat="44.8466183" lon="8.014785"><ele>278.5</ele><time>2026-04-05T10:24:57.847Z</time></trkpt><trkpt lat="44.8465617" lon="8.0148633"><ele>279.33333333333337</ele><time>2026-04-05T10:24:58.847Z</time></trkpt><trkpt lat="44.846505" lon="8.0149467"><ele>280.1666666666667</ele><time>2026-04-05T10:24:59.847Z</time></trkpt><trkpt lat="44.846455" lon="8.01503"><ele>281.0</ele><time>2026-04-05T10:25:00.847Z</time></trkpt><trkpt lat="44.8464067" lon="8.0151117"><ele>281.00000000000006</ele><time>2026-04-05T10:25:01.846Z</time></trkpt><trkpt lat="44.8463633" lon="8.0151817"><ele>281.0</ele><time>2026-04-05T10:25:02.847Z</time></trkpt><trkpt lat="44.84631" lon="8.0152517"><ele>281.0</ele><time>2026-04-05T10:25:03.846Z</time></trkpt><trkpt lat="44.8462517" lon="8.015315"><ele>281.0</ele><time>2026-04-05T10:25:04.847Z</time></trkpt><trkpt lat="44.84619" lon="8.0153733"><ele>281.0</ele><time>2026-04-05T10:25:05.847Z</time></trkpt><trkpt lat="44.84613" lon="8.0154333"><ele>281.00000000000006</ele><time>2026-04-05T10:25:06.847Z</time></trkpt><trkpt lat="44.846085" lon="8.0154983"><ele>281.0</ele><time>2026-04-05T10:25:07.846Z</time></trkpt><trkpt lat="44.8459983" lon="8.0156117"><ele>281.5</ele><time>2026-04-05T10:25:09.847Z</time></trkpt><trkpt lat="44.845905" lon="8.0156733"><ele>282.0</ele><time>2026-04-05T10:25:11.847Z</time></trkpt><trkpt lat="44.8458433" lon="8.0156983"><ele>282.5</ele><time>2026-04-05T10:25:12.846Z</time></trkpt><trkpt lat="44.8457617" lon="8.01573"><ele>283.0</ele><time>2026-04-05T10:25:13.847Z</time></trkpt><trkpt lat="44.84568" lon="8.0157683"><ele>283.5</ele><time>2026-04-05T10:25:14.847Z</time></trkpt><trkpt lat="44.8456117" lon="8.0158217"><ele>284.0</ele><time>2026-04-05T10:25:15.847Z</time></trkpt><trkpt lat="44.8455467" lon="8.015865"><ele>284.0</ele><time>2026-04-05T10:25:16.847Z</time></trkpt><trkpt lat="44.8454767" lon="8.0158967"><ele>284.0</ele><time>2026-04-05T10:25:17.847Z</time></trkpt><trkpt lat="44.845395" lon="8.0159067"><ele>284.0</ele><time>2026-04-05T10:25:18.847Z</time></trkpt><trkpt lat="44.8453217" lon="8.0159167"><ele>284.0</ele><time>2026-04-05T10:25:19.847Z</time></trkpt><trkpt lat="44.845225" lon="8.015935"><ele>284.0</ele><time>2026-04-05T10:25:21.846Z</time></trkpt><trkpt lat="44.845155" lon="8.015975"><ele>284.0</ele><time>2026-04-05T10:25:23.847Z</time></trkpt><trkpt lat="44.8450783" lon="8.0159967"><ele>285.0</ele><time>2026-04-05T10:25:24.847Z</time></trkpt><trkpt lat="44.8449983" lon="8.016005"><ele>286.0</ele><time>2026-04-05T10:25:25.847Z</time></trkpt><trkpt lat="44.8449" lon="8.016"><ele>287.0</ele><time>2026-04-05T10:25:26.847Z</time></trkpt><trkpt lat="44.8447883" lon="8.0159367"><ele>288.0</ele><time>2026-04-05T10:25:28.847Z</time></trkpt><trkpt lat="44.844725" lon="8.0158567"><ele>289.0</ele><time>2026-04-05T10:25:29.847Z</time></trkpt><trkpt lat="44.8446583" lon="8.0157583"><ele>290.3333333333333</ele><time>2026-04-05T10:25:30.847Z</time></trkpt><trkpt lat="44.8445833" lon="8.01568"><ele>291.66666666666663</ele><time>2026-04-05T10:25:31.846Z</time></trkpt><trkpt lat="44.8445167" lon="8.0156117"><ele>293.0</ele><time>2026-04-05T10:25:32.847Z</time></trkpt><trkpt lat="44.8444667" lon="8.0155567"><ele>294.3333333333333</ele><time>2026-04-05T10:25:33.847Z</time></trkpt><trkpt lat="44.8443867" lon="8.015505"><ele>295.6666666666667</ele><time>2026-04-05T10:25:34.847Z</time></trkpt><trkpt lat="44.8443083" lon="8.0154867"><ele>297.0</ele><time>2026-04-05T10:25:35.847Z</time></trkpt><trkpt lat="44.8442117" lon="8.0154417"><ele>297.0</ele><time>2026-04-05T10:25:37.847Z</time></trkpt><trkpt lat="44.844105" lon="8.0153867"><ele>297.0</ele><time>2026-04-05T10:25:39.847Z</time></trkpt><trkpt lat="44.8440083" lon="8.0152683"><ele>297.0</ele><time>2026-04-05T10:25:41.847Z</time></trkpt><trkpt lat="44.8439483" lon="8.0152267"><ele>297.0</ele><time>2026-04-05T10:25:42.847Z</time></trkpt><trkpt lat="44.84388" lon="8.0151967"><ele>297.0</ele><time>2026-04-05T10:25:43.846Z</time></trkpt><trkpt lat="44.84377" lon="8.01518"><ele>297.0</ele><time>2026-04-05T10:25:45.847Z</time></trkpt><trkpt lat="44.8436883" lon="8.01517"><ele>297.0</ele><time>2026-04-05T10:25:48.847Z</time></trkpt><trkpt lat="44.843615" lon="8.0151917"><ele>297.0</ele><time>2026-04-05T10:25:51.847Z</time></trkpt><trkpt lat="44.843545" lon="8.0152067"><ele>297.0</ele><time>2026-04-05T10:25:54.847Z</time></trkpt><trkpt lat="44.8434633" lon="8.01522"><ele>297.0</ele><time>2026-04-05T10:25:56.847Z</time></trkpt><trkpt lat="44.8433917" lon="8.0152117"><ele>297.0</ele><time>2026-04-05T10:25:57.847Z</time></trkpt><trkpt lat="44.8433167" lon="8.0151767"><ele>297.5</ele><time>2026-04-05T10:25:58.847Z</time></trkpt><trkpt lat="44.8432467" lon="8.015135"><ele>298.0</ele><time>2026-04-05T10:25:59.847Z</time></trkpt><trkpt lat="44.84318" lon="8.0150767"><ele>298.5</ele><time>2026-04-05T10:26:00.847Z</time></trkpt><trkpt lat="44.84311" lon="8.01502"><ele>299.0</ele><time>2026-04-05T10:26:01.847Z</time></trkpt><trkpt lat="44.8430483" lon="8.014955"><ele>299.5</ele><time>2026-04-05T10:26:02.847Z</time></trkpt><trkpt lat="44.8429933" lon="8.014895"><ele>300.0</ele><time>2026-04-05T10:26:03.846Z</time></trkpt><trkpt lat="44.8428967" lon="8.014825"><ele>300.0</ele><time>2026-04-05T10:26:05.847Z</time></trkpt><trkpt lat="44.8428017" lon="8.0149083"><ele>300.0</ele><time>2026-04-05T10:26:07.846Z</time></trkpt><trkpt lat="44.8427467" lon="8.0149933"><ele>300.0</ele><time>2026-04-05T10:26:08.846Z</time></trkpt><trkpt lat="44.84271" lon="8.0150733"><ele>300.0</ele><time>2026-04-05T10:26:09.847Z</time></trkpt><trkpt lat="44.8426733" lon="8.01515"><ele>300.0</ele><time>2026-04-05T10:26:10.847Z</time></trkpt><trkpt lat="44.8426383" lon="8.0152417"><ele>300.0</ele><time>2026-04-05T10:26:12.847Z</time></trkpt><trkpt lat="44.8425833" lon="8.0151817"><ele>300.5</ele><time>2026-04-05T10:26:18.847Z</time></trkpt><trkpt lat="44.84259" lon="8.0150433"><ele>301.0</ele><time>2026-04-05T10:26:22.847Z</time></trkpt><trkpt lat="44.842605" lon="8.01494"><ele>301.5</ele><time>2026-04-05T10:26:24.847Z</time></trkpt><trkpt lat="44.8426267" lon="8.0148283"><ele>302.0</ele><time>2026-04-05T10:26:26.846Z</time></trkpt><trkpt lat="44.8426333" lon="8.0146917"><ele>302.5</ele><time>2026-04-05T10:26:28.847Z</time></trkpt><trkpt lat="44.8426217" lon="8.0146"><ele>303.0</ele><time>2026-04-05T10:26:29.847Z</time></trkpt><trkpt lat="44.8425967" lon="8.01451"><ele>303.0</ele><time>2026-04-05T10:26:30.847Z</time></trkpt><trkpt lat="44.8425667" lon="8.0144017"><ele>303.0</ele><time>2026-04-05T10:26:31.847Z</time></trkpt><trkpt lat="44.8425367" lon="8.0142967"><ele>303.0</ele><time>2026-04-05T10:26:32.847Z</time></trkpt><trkpt lat="44.8425133" lon="8.0142017"><ele>303.0</ele><time>2026-04-05T10:26:33.847Z</time></trkpt><trkpt lat="44.84249" lon="8.0141"><ele>303.0</ele><time>2026-04-05T10:26:34.847Z</time></trkpt><trkpt lat="44.8424683" lon="8.0140117"><ele>303.0</ele><time>2026-04-05T10:26:35.847Z</time></trkpt><trkpt lat="44.84244" lon="8.013925"><ele>303.0</ele><time>2026-04-05T10:26:36.847Z</time></trkpt><trkpt lat="44.8424133" lon="8.01383"><ele>304.0</ele><time>2026-04-05T10:26:37.847Z</time></trkpt><trkpt lat="44.8424" lon="8.0137317"><ele>305.0</ele><time>2026-04-05T10:26:38.847Z</time></trkpt><trkpt lat="44.8423833" lon="8.0136367"><ele>306.0</ele><time>2026-04-05T10:26:39.847Z</time></trkpt><trkpt lat="44.8423683" lon="8.0135417"><ele>307.0</ele><time>2026-04-05T10:26:40.847Z</time></trkpt><trkpt lat="44.8423517" lon="8.0134417"><ele>308.0</ele><time>2026-04-05T10:26:41.846Z</time></trkpt><trkpt lat="44.8423367" lon="8.0133433"><ele>309.0</ele><time>2026-04-05T10:26:42.847Z</time></trkpt><trkpt lat="44.8422967" lon="8.0131733"><ele>309.0</ele><time>2026-04-05T10:26:44.847Z</time></trkpt><trkpt lat="44.8422533" lon="8.0130933"><ele>309.0</ele><time>2026-04-05T10:26:45.847Z</time></trkpt><trkpt lat="44.8421917" lon="8.0130383"><ele>309.0</ele><time>2026-04-05T10:26:46.846Z</time></trkpt><trkpt lat="44.8421167" lon="8.0130083"><ele>309.0</ele><time>2026-04-05T10:26:47.846Z</time></trkpt><trkpt lat="44.8420383" lon="8.0129883"><ele>309.0</ele><time>2026-04-05T10:26:48.847Z</time></trkpt><trkpt lat="44.8419567" lon="8.0129617"><ele>309.0</ele><time>2026-04-05T10:26:49.847Z</time></trkpt><trkpt lat="44.841885" lon="8.012915"><ele>309.0</ele><time>2026-04-05T10:26:50.847Z</time></trkpt><trkpt lat="44.8418167" lon="8.0128417"><ele>309.0</ele><time>2026-04-05T10:26:51.847Z</time></trkpt><trkpt lat="44.8417617" lon="8.0127633"><ele>309.0</ele><time>2026-04-05T10:26:52.847Z</time></trkpt><trkpt lat="44.841725" lon="8.0126767"><ele>309.0</ele><time>2026-04-05T10:26:53.847Z</time></trkpt><trkpt lat="44.8417017" lon="8.0125767"><ele>309.0</ele><time>2026-04-05T10:26:54.847Z</time></trkpt><trkpt lat="44.8416917" lon="8.0124667"><ele>309.0</ele><time>2026-04-05T10:26:55.847Z</time></trkpt><trkpt lat="44.8416783" lon="8.0123567"><ele>303.5</ele><time>2026-04-05T10:26:56.847Z</time></trkpt><trkpt lat="44.841645" lon="8.0122783"><ele>298.0</ele><time>2026-04-05T10:26:57.847Z</time></trkpt><trkpt lat="44.8415933" lon="8.0122183"><ele>292.5</ele><time>2026-04-05T10:26:58.847Z</time></trkpt><trkpt lat="44.84148" lon="8.0121633"><ele>287.0</ele><time>2026-04-05T10:27:00.846Z</time></trkpt><trkpt lat="44.8414033" lon="8.0121717"><ele>281.5</ele><time>2026-04-05T10:27:01.847Z</time></trkpt><trkpt lat="44.8413283" lon="8.012185"><ele>276.0</ele><time>2026-04-05T10:27:02.847Z</time></trkpt><trkpt lat="44.8412583" lon="8.0122067"><ele>276.0</ele><time>2026-04-05T10:27:03.847Z</time></trkpt><trkpt lat="44.8411883" lon="8.0122483"><ele>276.0</ele><time>2026-04-05T10:27:04.847Z</time></trkpt><trkpt lat="44.8411233" lon="8.012305"><ele>276.0</ele><time>2026-04-05T10:27:05.847Z</time></trkpt><trkpt lat="44.8410633" lon="8.0123717"><ele>276.0</ele><time>2026-04-05T10:27:06.847Z</time></trkpt><trkpt lat="44.841005" lon="8.0124417"><ele>276.0</ele><time>2026-04-05T10:27:07.846Z</time></trkpt><trkpt lat="44.84095" lon="8.0124983"><ele>276.0</ele><time>2026-04-05T10:27:08.847Z</time></trkpt><trkpt lat="44.84084" lon="8.0125333"><ele>278.0</ele><time>2026-04-05T10:27:10.847Z</time></trkpt><trkpt lat="44.8407233" lon="8.012485"><ele>280.0</ele><time>2026-04-05T10:27:12.847Z</time></trkpt><trkpt lat="44.8406683" lon="8.0124417"><ele>282.0</ele><time>2026-04-05T10:27:13.847Z</time></trkpt><trkpt lat="44.8405633" lon="8.01236"><ele>284.0</ele><time>2026-04-05T10:27:15.847Z</time></trkpt><trkpt lat="44.8404833" lon="8.01229"><ele>286.0</ele><time>2026-04-05T10:27:17.847Z</time></trkpt><trkpt lat="44.8404467" lon="8.0122017"><ele>286.0</ele><time>2026-04-05T10:27:20.846Z</time></trkpt><trkpt lat="44.8405067" lon="8.0121483"><ele>286.0</ele><time>2026-04-05T10:27:25.847Z</time></trkpt><trkpt lat="44.8406067" lon="8.0121283"><ele>286.0</ele><time>2026-04-05T10:27:27.847Z</time></trkpt><trkpt lat="44.84072" lon="8.0120683"><ele>286.0</ele><time>2026-04-05T10:27:29.847Z</time></trkpt><trkpt lat="44.84084" lon="8.01199"><ele>286.0</ele><time>2026-04-05T10:27:31.847Z</time></trkpt><trkpt lat="44.8408983" lon="8.01194"><ele>285.99999999999994</ele><time>2026-04-05T10:27:32.847Z</time></trkpt><trkpt lat="44.840955" lon="8.0118817"><ele>286.0</ele><time>2026-04-05T10:27:33.847Z</time></trkpt><trkpt lat="44.841015" lon="8.0118267"><ele>286.0</ele><time>2026-04-05T10:27:34.847Z</time></trkpt><trkpt lat="44.8410767" lon="8.0117767"><ele>286.0</ele><time>2026-04-05T10:27:35.847Z</time></trkpt><trkpt lat="44.8411383" lon="8.0117183"><ele>286.0</ele><time>2026-04-05T10:27:36.847Z</time></trkpt><trkpt lat="44.8412033" lon="8.0116683"><ele>285.99999999999994</ele><time>2026-04-05T10:27:37.847Z</time></trkpt><trkpt lat="44.8412683" lon="8.0116233"><ele>286.0</ele><time>2026-04-05T10:27:38.847Z</time></trkpt><trkpt lat="44.8413333" lon="8.01158"><ele>284.4285714285714</ele><time>2026-04-05T10:27:39.847Z</time></trkpt><trkpt lat="44.8414033" lon="8.0115383"><ele>282.85714285714283</ele><time>2026-04-05T10:27:40.847Z</time></trkpt><trkpt lat="44.8414733" lon="8.0115"><ele>281.2857142857143</ele><time>2026-04-05T10:27:41.847Z</time></trkpt><trkpt lat="44.841535" lon="8.011445"><ele>279.71428571428567</ele><time>2026-04-05T10:27:42.847Z</time></trkpt><trkpt lat="44.8416017" lon="8.0113983"><ele>278.1428571428571</ele><time>2026-04-05T10:27:43.847Z</time></trkpt><trkpt lat="44.8416633" lon="8.01134"><ele>276.57142857142856</ele><time>2026-04-05T10:27:44.847Z</time></trkpt><trkpt lat="44.8417267" lon="8.0112933"><ele>275.0</ele><time>2026-04-05T10:27:45.847Z</time></trkpt><trkpt lat="44.841785" lon="8.01125"><ele>276.0</ele><time>2026-04-05T10:27:46.847Z</time></trkpt><trkpt lat="44.8418317" lon="8.0111833"><ele>277.0</ele><time>2026-04-05T10:27:47.846Z</time></trkpt><trkpt lat="44.8418917" lon="8.0111383"><ele>278.0</ele><time>2026-04-05T10:27:48.847Z</time></trkpt><trkpt lat="44.841955" lon="8.011085"><ele>279.0</ele><time>2026-04-05T10:27:49.847Z</time></trkpt><trkpt lat="44.842015" lon="8.0110267"><ele>280.0</ele><time>2026-04-05T10:27:50.847Z</time></trkpt><trkpt lat="44.8420767" lon="8.0109667"><ele>281.0</ele><time>2026-04-05T10:27:51.847Z</time></trkpt><trkpt lat="44.84214" lon="8.010905"><ele>282.0</ele><time>2026-04-05T10:27:52.846Z</time></trkpt><trkpt lat="44.8421983" lon="8.0108467"><ele>281.8333333333333</ele><time>2026-04-05T10:27:53.847Z</time></trkpt><trkpt lat="44.84226" lon="8.01079"><ele>281.6666666666667</ele><time>2026-04-05T10:27:54.847Z</time></trkpt><trkpt lat="44.8423283" lon="8.010735"><ele>281.5</ele><time>2026-04-05T10:27:55.847Z</time></trkpt><trkpt lat="44.8423967" lon="8.0106767"><ele>281.33333333333337</ele><time>2026-04-05T10:27:56.847Z</time></trkpt><trkpt lat="44.842465" lon="8.0106117"><ele>281.1666666666667</ele><time>2026-04-05T10:27:57.847Z</time></trkpt><trkpt lat="44.8425283" lon="8.0105417"><ele>281.0</ele><time>2026-04-05T10:27:58.847Z</time></trkpt><trkpt lat="44.84259" lon="8.0104633"><ele>280.1666666666667</ele><time>2026-04-05T10:27:59.847Z</time></trkpt><trkpt lat="44.842645" lon="8.01038"><ele>279.33333333333337</ele><time>2026-04-05T10:28:00.847Z</time></trkpt><trkpt lat="44.8426917" lon="8.010285"><ele>278.5</ele><time>2026-04-05T10:28:01.847Z</time></trkpt><trkpt lat="44.84274" lon="8.0101983"><ele>277.6666666666667</ele><time>2026-04-05T10:28:02.847Z</time></trkpt><trkpt lat="44.8427867" lon="8.0101133"><ele>276.8333333333333</ele><time>2026-04-05T10:28:03.847Z</time></trkpt><trkpt lat="44.8428317" lon="8.0100367"><ele>276.0</ele><time>2026-04-05T10:28:04.847Z</time></trkpt><trkpt lat="44.8428833" lon="8.00998"><ele>278.0</ele><time>2026-04-05T10:28:05.847Z</time></trkpt><trkpt lat="44.8429383" lon="8.009925"><ele>280.0</ele><time>2026-04-05T10:28:06.847Z</time></trkpt><trkpt lat="44.843" lon="8.0098767"><ele>282.0</ele><time>2026-04-05T10:28:07.847Z</time></trkpt><trkpt lat="44.8430717" lon="8.0098417"><ele>284.0</ele><time>2026-04-05T10:28:08.847Z</time></trkpt><trkpt lat="44.84315" lon="8.0098167"><ele>286.0</ele><time>2026-04-05T10:28:09.847Z</time></trkpt><trkpt lat="44.8432217" lon="8.009795"><ele>288.0</ele><time>2026-04-05T10:28:10.847Z</time></trkpt><trkpt lat="44.8432983" lon="8.0097933"><ele>290.0</ele><time>2026-04-05T10:28:11.847Z</time></trkpt><trkpt lat="44.84338" lon="8.0097917"><ele>290.0</ele><time>2026-04-05T10:28:12.847Z</time></trkpt><trkpt lat="44.8434583" lon="8.0097933"><ele>290.0</ele><time>2026-04-05T10:28:13.847Z</time></trkpt><trkpt lat="44.8435333" lon="8.009795"><ele>290.0</ele><time>2026-04-05T10:28:14.847Z</time></trkpt><trkpt lat="44.8436083" lon="8.0097967"><ele>290.0</ele><time>2026-04-05T10:28:15.846Z</time></trkpt><trkpt lat="44.8436867" lon="8.0097917"><ele>290.0</ele><time>2026-04-05T10:28:16.847Z</time></trkpt><trkpt lat="44.843765" lon="8.0097833"><ele>290.0</ele><time>2026-04-05T10:28:17.847Z</time></trkpt><trkpt lat="44.8438467" lon="8.00977"><ele>288.5</ele><time>2026-04-05T10:28:18.847Z</time></trkpt><trkpt lat="44.84393" lon="8.009755"><ele>287.0</ele><time>2026-04-05T10:28:19.847Z</time></trkpt><trkpt lat="44.8440133" lon="8.0097417"><ele>285.5</ele><time>2026-04-05T10:28:20.847Z</time></trkpt><trkpt lat="44.844095" lon="8.00974"><ele>284.0</ele><time>2026-04-05T10:28:21.847Z</time></trkpt><trkpt lat="44.844175" lon="8.0097367"><ele>282.5</ele><time>2026-04-05T10:28:22.847Z</time></trkpt><trkpt lat="44.8442517" lon="8.0097467"><ele>281.0</ele><time>2026-04-05T10:28:23.847Z</time></trkpt><trkpt lat="44.84433" lon="8.0097667"><ele>278.83333333333337</ele><time>2026-04-05T10:28:24.846Z</time></trkpt><trkpt lat="44.8443933" lon="8.00978"><ele>276.6666666666667</ele><time>2026-04-05T10:28:25.847Z</time></trkpt><trkpt lat="44.8445017" lon="8.009805"><ele>274.5</ele><time>2026-04-05T10:28:27.847Z</time></trkpt><trkpt lat="44.8445783" lon="8.0098"><ele>272.3333333333333</ele><time>2026-04-05T10:28:30.847Z</time></trkpt><trkpt lat="44.8446717" lon="8.009735"><ele>270.16666666666663</ele><time>2026-04-05T10:28:33.847Z</time></trkpt><trkpt lat="44.8447283" lon="8.009675"><ele>268.0</ele><time>2026-04-05T10:28:34.847Z</time></trkpt><trkpt lat="44.8447883" lon="8.009615"><ele>268.0</ele><time>2026-04-05T10:28:35.846Z</time></trkpt><trkpt lat="44.8448483" lon="8.0095633"><ele>268.0</ele><time>2026-04-05T10:28:36.847Z</time></trkpt><trkpt lat="44.8449167" lon="8.00952"><ele>268.0</ele><time>2026-04-05T10:28:37.847Z</time></trkpt><trkpt lat="44.844995" lon="8.0094867"><ele>268.0</ele><time>2026-04-05T10:28:38.847Z</time></trkpt><trkpt lat="44.8450767" lon="8.009465"><ele>268.0</ele><time>2026-04-05T10:28:39.847Z</time></trkpt><trkpt lat="44.84515" lon="8.00945"><ele>268.0</ele><time>2026-04-05T10:28:40.847Z</time></trkpt><trkpt lat="44.8452283" lon="8.00944"><ele>267.2857142857143</ele><time>2026-04-05T10:28:41.846Z</time></trkpt><trkpt lat="44.8452983" lon="8.0094217"><ele>266.57142857142856</ele><time>2026-04-05T10:28:42.847Z</time></trkpt><trkpt lat="44.845365" lon="8.0093917"><ele>265.85714285714283</ele><time>2026-04-05T10:28:43.847Z</time></trkpt><trkpt lat="44.8454217" lon="8.0093417"><ele>265.1428571428571</ele><time>2026-04-05T10:28:44.847Z</time></trkpt><trkpt lat="44.8454767" lon="8.0092917"><ele>264.4285714285714</ele><time>2026-04-05T10:28:45.847Z</time></trkpt><trkpt lat="44.8455367" lon="8.0092383"><ele>263.7142857142857</ele><time>2026-04-05T10:28:46.847Z</time></trkpt><trkpt lat="44.8456017" lon="8.0091933"><ele>263.0</ele><time>2026-04-05T10:28:47.847Z</time></trkpt><trkpt lat="44.8456733" lon="8.0091683"><ele>264.0</ele><time>2026-04-05T10:28:48.847Z</time></trkpt><trkpt lat="44.845745" lon="8.00915"><ele>265.0</ele><time>2026-04-05T10:28:49.847Z</time></trkpt><trkpt lat="44.84582" lon="8.0091417"><ele>266.0</ele><time>2026-04-05T10:28:50.846Z</time></trkpt><trkpt lat="44.845895" lon="8.009155"><ele>267.0</ele><time>2026-04-05T10:28:51.847Z</time></trkpt><trkpt lat="44.8459717" lon="8.0091833"><ele>268.0</ele><time>2026-04-05T10:28:52.847Z</time></trkpt><trkpt lat="44.8460533" lon="8.0091983"><ele>269.0</ele><time>2026-04-05T10:28:53.847Z</time></trkpt><trkpt lat="44.84613" lon="8.0092033"><ele>266.6666666666667</ele><time>2026-04-05T10:28:54.846Z</time></trkpt><trkpt lat="44.8462017" lon="8.00918"><ele>264.33333333333337</ele><time>2026-04-05T10:28:55.847Z</time></trkpt><trkpt lat="44.8462783" lon="8.0091367"><ele>262.0</ele><time>2026-04-05T10:28:56.847Z</time></trkpt><trkpt lat="44.8463483" lon="8.0090883"><ele>259.6666666666667</ele><time>2026-04-05T10:28:57.847Z</time></trkpt><trkpt lat="44.8464183" lon="8.00903"><ele>257.3333333333333</ele><time>2026-04-05T10:28:58.847Z</time></trkpt><trkpt lat="44.8464833" lon="8.00896"><ele>255.0</ele><time>2026-04-05T10:28:59.847Z</time></trkpt><trkpt lat="44.84654" lon="8.00889"><ele>255.33333333333334</ele><time>2026-04-05T10:29:00.847Z</time></trkpt><trkpt lat="44.846595" lon="8.00882"><ele>255.66666666666669</ele><time>2026-04-05T10:29:01.846Z</time></trkpt><trkpt lat="44.846645" lon="8.0087367"><ele>256.0</ele><time>2026-04-05T10:29:02.847Z</time></trkpt><trkpt lat="44.8466917" lon="8.008645"><ele>256.33333333333337</ele><time>2026-04-05T10:29:03.847Z</time></trkpt><trkpt lat="44.8467317" lon="8.0085533"><ele>256.6666666666667</ele><time>2026-04-05T10:29:04.847Z</time></trkpt><trkpt lat="44.8467717" lon="8.00846"><ele>257.0</ele><time>2026-04-05T10:29:05.846Z</time></trkpt><trkpt lat="44.8468233" lon="8.0083733"><ele>256.0</ele><time>2026-04-05T10:29:06.847Z</time></trkpt><trkpt lat="44.8468867" lon="8.008305"><ele>255.0</ele><time>2026-04-05T10:29:07.847Z</time></trkpt><trkpt lat="44.8469567" lon="8.00826"><ele>254.0</ele><time>2026-04-05T10:29:08.847Z</time></trkpt><trkpt lat="44.84703" lon="8.008225"><ele>253.0</ele><time>2026-04-05T10:29:09.847Z</time></trkpt><trkpt lat="44.8471017" lon="8.008185"><ele>252.00000000000003</ele><time>2026-04-05T10:29:10.847Z</time></trkpt><trkpt lat="44.8471733" lon="8.008135"><ele>251.0</ele><time>2026-04-05T10:29:11.847Z</time></trkpt><trkpt lat="44.8472367" lon="8.0080783"><ele>251.00000000000003</ele><time>2026-04-05T10:29:12.847Z</time></trkpt><trkpt lat="44.8472967" lon="8.0080217"><ele>251.0</ele><time>2026-04-05T10:29:13.847Z</time></trkpt><trkpt lat="44.8473467" lon="8.0079617"><ele>251.0</ele><time>2026-04-05T10:29:14.847Z</time></trkpt><trkpt lat="44.847395" lon="8.0078817"><ele>251.0</ele><time>2026-04-05T10:29:15.847Z</time></trkpt><trkpt lat="44.8474417" lon="8.0078167"><ele>251.00000000000003</ele><time>2026-04-05T10:29:16.847Z</time></trkpt><trkpt lat="44.8475" lon="8.0077317"><ele>251.0</ele><time>2026-04-05T10:29:18.847Z</time></trkpt><trkpt lat="44.8476033" lon="8.00777"><ele>253.0</ele><time>2026-04-05T10:29:27.847Z</time></trkpt><trkpt lat="44.8476717" lon="8.0078433"><ele>255.00000000000003</ele><time>2026-04-05T10:29:29.847Z</time></trkpt><trkpt lat="44.8477433" lon="8.007905"><ele>257.0</ele><time>2026-04-05T10:29:31.847Z</time></trkpt><trkpt lat="44.8477917" lon="8.0080167"><ele>259.0</ele><time>2026-04-05T10:29:33.847Z</time></trkpt><trkpt lat="44.8478317" lon="8.0081517"><ele>261.0</ele><time>2026-04-05T10:29:35.847Z</time></trkpt><trkpt lat="44.8478917" lon="8.0083183"><ele>261.6666666666667</ele><time>2026-04-05T10:29:37.847Z</time></trkpt><trkpt lat="44.8479233" lon="8.0084167"><ele>262.3333333333333</ele><time>2026-04-05T10:29:38.847Z</time></trkpt><trkpt lat="44.8479567" lon="8.00851"><ele>263.0</ele><time>2026-04-05T10:29:39.846Z</time></trkpt><trkpt lat="44.84799" lon="8.0086067"><ele>263.66666666666663</ele><time>2026-04-05T10:29:40.847Z</time></trkpt><trkpt lat="44.8480317" lon="8.0087017"><ele>264.3333333333333</ele><time>2026-04-05T10:29:41.847Z</time></trkpt><trkpt lat="44.8480733" lon="8.008795"><ele>265.0</ele><time>2026-04-05T10:29:42.846Z</time></trkpt><trkpt lat="44.8481117" lon="8.00888"><ele>265.0</ele><time>2026-04-05T10:29:43.846Z</time></trkpt><trkpt lat="44.8481883" lon="8.00896"><ele>265.0</ele><time>2026-04-05T10:29:45.847Z</time></trkpt><trkpt lat="44.8482767" lon="8.0089083"><ele>265.0</ele><time>2026-04-05T10:29:47.847Z</time></trkpt><trkpt lat="44.8483233" lon="8.00884"><ele>265.0</ele><time>2026-04-05T10:29:48.846Z</time></trkpt><trkpt lat="44.8484067" lon="8.0087367"><ele>265.0</ele><time>2026-04-05T10:29:50.847Z</time></trkpt><trkpt lat="44.8484967" lon="8.0086933"><ele>268.8333333333333</ele><time>2026-04-05T10:29:52.847Z</time></trkpt><trkpt lat="44.8485483" lon="8.0087517"><ele>272.66666666666663</ele><time>2026-04-05T10:29:54.847Z</time></trkpt><trkpt lat="44.8485" lon="8.0088683"><ele>276.5</ele><time>2026-04-05T10:29:56.847Z</time></trkpt><trkpt lat="44.8484667" lon="8.008995"><ele>280.3333333333333</ele><time>2026-04-05T10:29:58.847Z</time></trkpt><trkpt lat="44.8484767" lon="8.009095"><ele>284.1666666666667</ele><time>2026-04-05T10:29:59.847Z</time></trkpt><trkpt lat="44.8484983" lon="8.0091917"><ele>288.0</ele><time>2026-04-05T10:30:00.847Z</time></trkpt><trkpt lat="44.8485367" lon="8.0092783"><ele>288.0</ele><time>2026-04-05T10:30:01.847Z</time></trkpt><trkpt lat="44.8485833" lon="8.0093667"><ele>288.0</ele><time>2026-04-05T10:30:02.847Z</time></trkpt><trkpt lat="44.8486317" lon="8.0094467"><ele>288.0</ele><time>2026-04-05T10:30:03.847Z</time></trkpt><trkpt lat="44.84869" lon="8.0095067"><ele>288.0</ele><time>2026-04-05T10:30:04.846Z</time></trkpt><trkpt lat="44.8487967" lon="8.009585"><ele>288.0</ele><time>2026-04-05T10:30:06.847Z</time></trkpt><trkpt lat="44.8489033" lon="8.009545"><ele>288.0</ele><time>2026-04-05T10:30:08.847Z</time></trkpt><trkpt lat="44.84896" lon="8.0095017"><ele>288.0</ele><time>2026-04-05T10:30:09.847Z</time></trkpt><trkpt lat="44.8490067" lon="8.0094383"><ele>288.0</ele><time>2026-04-05T10:30:10.847Z</time></trkpt><trkpt lat="44.8490867" lon="8.009355"><ele>288.0</ele><time>2026-04-05T10:30:12.847Z</time></trkpt><trkpt lat="44.84917" lon="8.00933"><ele>288.0</ele><time>2026-04-05T10:30:14.847Z</time></trkpt><trkpt lat="44.8492467" lon="8.0094"><ele>288.0</ele><time>2026-04-05T10:30:16.846Z</time></trkpt><trkpt lat="44.8493367" lon="8.0094817"><ele>288.4</ele><time>2026-04-05T10:30:18.847Z</time></trkpt><trkpt lat="44.849435" lon="8.0094917"><ele>288.8</ele><time>2026-04-05T10:30:20.847Z</time></trkpt><trkpt lat="44.8495317" lon="8.0094583"><ele>289.2</ele><time>2026-04-05T10:30:22.847Z</time></trkpt><trkpt lat="44.84962" lon="8.0094083"><ele>289.6</ele><time>2026-04-05T10:30:24.847Z</time></trkpt><trkpt lat="44.8497233" lon="8.0093017"><ele>290.0</ele><time>2026-04-05T10:30:26.847Z</time></trkpt><trkpt lat="44.8498133" lon="8.0091817"><ele>290.0</ele><time>2026-04-05T10:30:28.847Z</time></trkpt><trkpt lat="44.849865" lon="8.0090867"><ele>290.0</ele><time>2026-04-05T10:30:30.846Z</time></trkpt><trkpt lat="44.84993" lon="8.0091083"><ele>290.0</ele><time>2026-04-05T10:31:27.846Z</time></trkpt><trkpt lat="44.8498817" lon="8.0092067"><ele>290.0</ele><time>2026-04-05T10:31:29.847Z</time></trkpt><trkpt lat="44.8498083" lon="8.0093167"><ele>290.0</ele><time>2026-04-05T10:31:31.846Z</time></trkpt><trkpt lat="44.8497267" lon="8.009395"><ele>290.0</ele><time>2026-04-05T10:31:33.847Z</time></trkpt><trkpt lat="44.8496533" lon="8.00944"><ele>290.0</ele><time>2026-04-05T10:31:35.847Z</time></trkpt><trkpt lat="44.8495667" lon="8.00947"><ele>290.0</ele><time>2026-04-05T10:31:37.846Z</time></trkpt><trkpt lat="44.8494717" lon="8.0094983"><ele>290.0</ele><time>2026-04-05T10:31:39.846Z</time></trkpt><trkpt lat="44.849395" lon="8.0094833"><ele>290.0</ele><time>2026-04-05T10:31:41.847Z</time></trkpt><trkpt lat="44.8493233" lon="8.0094167"><ele>290.0</ele><time>2026-04-05T10:31:43.847Z</time></trkpt><trkpt lat="44.849245" lon="8.0093517"><ele>290.0</ele><time>2026-04-05T10:31:45.847Z</time></trkpt><trkpt lat="44.8491583" lon="8.00934"><ele>289.6</ele><time>2026-04-05T10:31:47.847Z</time></trkpt><trkpt lat="44.8490817" lon="8.0094117"><ele>289.2</ele><time>2026-04-05T10:31:49.847Z</time></trkpt><trkpt lat="44.8490117" lon="8.0094967"><ele>288.8</ele><time>2026-04-05T10:31:51.847Z</time></trkpt><trkpt lat="44.8489133" lon="8.0095567"><ele>288.4</ele><time>2026-04-05T10:31:53.847Z</time></trkpt><trkpt lat="44.8488167" lon="8.0095467"><ele>288.0</ele><time>2026-04-05T10:31:55.846Z</time></trkpt><trkpt lat="44.8487183" lon="8.00945"><ele>288.0</ele><time>2026-04-05T10:31:57.846Z</time></trkpt><trkpt lat="44.8486367" lon="8.0093283"><ele>288.0</ele><time>2026-04-05T10:31:59.846Z</time></trkpt><trkpt lat="44.848565" lon="8.0091933"><ele>288.0</ele><time>2026-04-05T10:32:01.847Z</time></trkpt><trkpt lat="44.8485233" lon="8.0090633"><ele>288.0</ele><time>2026-04-05T10:32:03.847Z</time></trkpt><trkpt lat="44.8485283" lon="8.00894"><ele>288.0</ele><time>2026-04-05T10:32:05.847Z</time></trkpt><trkpt lat="44.8485833" lon="8.00885"><ele>288.1666666666667</ele><time>2026-04-05T10:32:07.847Z</time></trkpt><trkpt lat="44.8486233" lon="8.0087667"><ele>288.3333333333333</ele><time>2026-04-05T10:32:09.847Z</time></trkpt><trkpt lat="44.8485433" lon="8.0087033"><ele>288.5</ele><time>2026-04-05T10:32:12.847Z</time></trkpt><trkpt lat="44.84846" lon="8.0087417"><ele>288.66666666666663</ele><time>2026-04-05T10:32:14.847Z</time></trkpt><trkpt lat="44.8484067" lon="8.008825"><ele>288.8333333333333</ele><time>2026-04-05T10:32:16.847Z</time></trkpt><trkpt lat="44.8483333" lon="8.0089017"><ele>289.0</ele><time>2026-04-05T10:32:18.847Z</time></trkpt><trkpt lat="44.8482367" lon="8.0089283"><ele>283.0</ele><time>2026-04-05T10:32:20.847Z</time></trkpt><trkpt lat="44.8481467" lon="8.0088533"><ele>277.0</ele><time>2026-04-05T10:32:22.847Z</time></trkpt><trkpt lat="44.8480783" lon="8.0087117"><ele>271.0</ele><time>2026-04-05T10:32:24.846Z</time></trkpt><trkpt lat="44.8480167" lon="8.0085683"><ele>265.0</ele><time>2026-04-05T10:32:26.847Z</time></trkpt><trkpt lat="44.8479767" lon="8.00839"><ele>264.3333333333333</ele><time>2026-04-05T10:32:28.846Z</time></trkpt><trkpt lat="44.8479383" lon="8.008295"><ele>263.66666666666663</ele><time>2026-04-05T10:32:29.847Z</time></trkpt><trkpt lat="44.8479083" lon="8.0082167"><ele>263.0</ele><time>2026-04-05T10:32:30.847Z</time></trkpt><trkpt lat="44.8478633" lon="8.0080817"><ele>262.3333333333333</ele><time>2026-04-05T10:32:32.847Z</time></trkpt><trkpt lat="44.8477933" lon="8.0079667"><ele>261.6666666666667</ele><time>2026-04-05T10:32:34.847Z</time></trkpt><trkpt lat="44.847735" lon="8.0079167"><ele>261.0</ele><time>2026-04-05T10:32:35.847Z</time></trkpt><trkpt lat="44.8476583" lon="8.00783"><ele>259.6666666666667</ele><time>2026-04-05T10:32:37.846Z</time></trkpt><trkpt lat="44.8475967" lon="8.00775"><ele>258.3333333333333</ele><time>2026-04-05T10:32:40.847Z</time></trkpt><trkpt lat="44.84754" lon="8.0076717"><ele>257.0</ele><time>2026-04-05T10:32:56.847Z</time></trkpt><trkpt lat="44.8474717" lon="8.00764"><ele>255.66666666666666</ele><time>2026-04-05T10:32:58.847Z</time></trkpt><trkpt lat="44.8473783" lon="8.0076"><ele>254.33333333333331</ele><time>2026-04-05T10:33:00.847Z</time></trkpt><trkpt lat="44.8473217" lon="8.00756"><ele>253.0</ele><time>2026-04-05T10:33:01.847Z</time></trkpt><trkpt lat="44.8472133" lon="8.0074833"><ele>252.99999999999997</ele><time>2026-04-05T10:33:03.847Z</time></trkpt><trkpt lat="44.84711" lon="8.007435"><ele>253.0</ele><time>2026-04-05T10:33:05.847Z</time></trkpt><trkpt lat="44.8470083" lon="8.0074233"><ele>253.0</ele><time>2026-04-05T10:33:07.847Z</time></trkpt><trkpt lat="44.846925" lon="8.0074483"><ele>253.0</ele><time>2026-04-05T10:33:09.846Z</time></trkpt><trkpt lat="44.8468467" lon="8.0074733"><ele>252.99999999999997</ele><time>2026-04-05T10:33:11.847Z</time></trkpt><trkpt lat="44.8467833" lon="8.007515"><ele>253.0</ele><time>2026-04-05T10:33:14.847Z</time></trkpt><trkpt lat="44.8468517" lon="8.0075717"><ele>252.71428571428575</ele><time>2026-04-05T10:33:18.847Z</time></trkpt><trkpt lat="44.84691" lon="8.0076117"><ele>252.42857142857144</ele><time>2026-04-05T10:33:20.847Z</time></trkpt><trkpt lat="44.846965" lon="8.007675"><ele>252.14285714285714</ele><time>2026-04-05T10:33:23.847Z</time></trkpt><trkpt lat="44.8469533" lon="8.0077633"><ele>251.85714285714286</ele><time>2026-04-05T10:33:26.847Z</time></trkpt><trkpt lat="44.8468867" lon="8.0077383"><ele>251.57142857142856</ele><time>2026-04-05T10:33:30.847Z</time></trkpt><trkpt lat="44.846805" lon="8.0077217"><ele>251.28571428571425</ele><time>2026-04-05T10:33:33.847Z</time></trkpt><trkpt lat="44.8467167" lon="8.0077167"><ele>250.99999999999997</ele><time>2026-04-05T10:33:36.847Z</time></trkpt><trkpt lat="44.8466467" lon="8.0077283"><ele>252.66666666666669</ele><time>2026-04-05T10:33:39.847Z</time></trkpt><trkpt lat="44.8465883" lon="8.007775"><ele>254.33333333333334</ele><time>2026-04-05T10:33:41.847Z</time></trkpt><trkpt lat="44.8465183" lon="8.00779"><ele>256.0</ele><time>2026-04-05T10:33:44.847Z</time></trkpt><trkpt lat="44.8464633" lon="8.007675"><ele>257.6666666666667</ele><time>2026-04-05T10:33:47.847Z</time></trkpt><trkpt lat="44.8464133" lon="8.0075717"><ele>259.3333333333333</ele><time>2026-04-05T10:33:49.847Z</time></trkpt><trkpt lat="44.8463433" lon="8.00753"><ele>261.0</ele><time>2026-04-05T10:33:52.847Z</time></trkpt><trkpt lat="44.8462683" lon="8.007555"><ele>261.0</ele><time>2026-04-05T10:33:55.847Z</time></trkpt><trkpt lat="44.846185" lon="8.0075417"><ele>261.0</ele><time>2026-04-05T10:33:58.847Z</time></trkpt><trkpt lat="44.8461183" lon="8.0075617"><ele>261.0</ele><time>2026-04-05T10:34:00.847Z</time></trkpt><trkpt lat="44.846055" lon="8.0076133"><ele>261.0</ele><time>2026-04-05T10:34:03.846Z</time></trkpt><trkpt lat="44.8459833" lon="8.0075967"><ele>261.0</ele><time>2026-04-05T10:34:13.847Z</time></trkpt><trkpt lat="44.84591" lon="8.0075767"><ele>261.0</ele><time>2026-04-05T10:34:15.847Z</time></trkpt><trkpt lat="44.84581" lon="8.00757"><ele>263.8333333333333</ele><time>2026-04-05T10:34:17.847Z</time></trkpt><trkpt lat="44.8457283" lon="8.0075783"><ele>266.6666666666667</ele><time>2026-04-05T10:34:19.847Z</time></trkpt><trkpt lat="44.84566" lon="8.0075867"><ele>269.5</ele><time>2026-04-05T10:34:21.847Z</time></trkpt><trkpt lat="44.845595" lon="8.007605"><ele>272.33333333333337</ele><time>2026-04-05T10:34:23.847Z</time></trkpt><trkpt lat="44.8455217" lon="8.0076233"><ele>275.1666666666667</ele><time>2026-04-05T10:34:25.847Z</time></trkpt><trkpt lat="44.8454433" lon="8.0076317"><ele>278.0</ele><time>2026-04-05T10:34:27.847Z</time></trkpt><trkpt lat="44.8453417" lon="8.0076217"><ele>278.0</ele><time>2026-04-05T10:34:30.847Z</time></trkpt><trkpt lat="44.8452667" lon="8.0076333"><ele>278.0</ele><time>2026-04-05T10:34:32.846Z</time></trkpt><trkpt lat="44.845195" lon="8.0076733"><ele>278.0</ele><time>2026-04-05T10:34:34.846Z</time></trkpt><trkpt lat="44.8451117" lon="8.0076617"><ele>278.0</ele><time>2026-04-05T10:34:37.847Z</time></trkpt><trkpt lat="44.8450283" lon="8.0076267"><ele>278.0</ele><time>2026-04-05T10:34:40.847Z</time></trkpt><trkpt lat="44.84498" lon="8.00756"><ele>278.0</ele><time>2026-04-05T10:34:42.847Z</time></trkpt><trkpt lat="44.8449167" lon="8.0074783"><ele>280.33333333333337</ele><time>2026-04-05T10:34:45.847Z</time></trkpt><trkpt lat="44.8448483" lon="8.0073917"><ele>282.6666666666667</ele><time>2026-04-05T10:34:53.846Z</time></trkpt><trkpt lat="44.8448033" lon="8.0072983"><ele>285.0</ele><time>2026-04-05T10:34:56.847Z</time></trkpt><trkpt lat="44.84474" lon="8.007185"><ele>287.3333333333333</ele><time>2026-04-05T10:34:59.847Z</time></trkpt><trkpt lat="44.844685" lon="8.0071267"><ele>289.66666666666663</ele><time>2026-04-05T10:35:01.847Z</time></trkpt><trkpt lat="44.8446183" lon="8.007095"><ele>292.0</ele><time>2026-04-05T10:35:03.847Z</time></trkpt><trkpt lat="44.8445267" lon="8.00705"><ele>292.0</ele><time>2026-04-05T10:35:05.847Z</time></trkpt><trkpt lat="44.844435" lon="8.0069733"><ele>292.0</ele><time>2026-04-05T10:35:07.847Z</time></trkpt><trkpt lat="44.8443667" lon="8.0068733"><ele>292.0</ele><time>2026-04-05T10:35:09.847Z</time></trkpt><trkpt lat="44.8442867" lon="8.0067917"><ele>292.0</ele><time>2026-04-05T10:35:11.847Z</time></trkpt><trkpt lat="44.844205" lon="8.0067233"><ele>292.0</ele><time>2026-04-05T10:35:13.847Z</time></trkpt><trkpt lat="44.84415" lon="8.0066217"><ele>296.0</ele><time>2026-04-05T10:35:15.847Z</time></trkpt><trkpt lat="44.8441233" lon="8.0065133"><ele>300.0</ele><time>2026-04-05T10:35:17.846Z</time></trkpt><trkpt lat="44.844095" lon="8.0063983"><ele>304.0</ele><time>2026-04-05T10:35:19.847Z</time></trkpt><trkpt lat="44.8440383" lon="8.006335"><ele>308.0</ele><time>2026-04-05T10:35:21.847Z</time></trkpt><trkpt lat="44.8439133" lon="8.00663"><ele>309.2</ele><time>2026-04-05T10:37:52.847Z</time></trkpt><trkpt lat="44.8438467" lon="8.0067017"><ele>310.4</ele><time>2026-04-05T10:37:59.847Z</time></trkpt><trkpt lat="44.8437367" lon="8.006755"><ele>311.59999999999997</ele><time>2026-04-05T10:38:01.847Z</time></trkpt><trkpt lat="44.8436317" lon="8.0068333"><ele>312.8</ele><time>2026-04-05T10:38:03.847Z</time></trkpt><trkpt lat="44.8435417" lon="8.0069517"><ele>314.0</ele><time>2026-04-05T10:38:05.846Z</time></trkpt><trkpt lat="44.843455" lon="8.0070333"><ele>314.0</ele><time>2026-04-05T10:38:07.847Z</time></trkpt><trkpt lat="44.8433783" lon="8.0070633"><ele>314.0</ele><time>2026-04-05T10:38:09.847Z</time></trkpt><trkpt lat="44.8434" lon="8.006975"><ele>314.0</ele><time>2026-04-05T10:38:34.847Z</time></trkpt><trkpt lat="44.8434667" lon="8.006875"><ele>314.0</ele><time>2026-04-05T10:38:36.847Z</time></trkpt><trkpt lat="44.843545" lon="8.0067567"><ele>314.0</ele><time>2026-04-05T10:38:38.846Z</time></trkpt><trkpt lat="44.8435983" lon="8.0066383"><ele>312.8</ele><time>2026-04-05T10:38:40.847Z</time></trkpt><trkpt lat="44.8436433" lon="8.00651"><ele>311.59999999999997</ele><time>2026-04-05T10:38:42.847Z</time></trkpt><trkpt lat="44.8436767" lon="8.006395"><ele>310.4</ele><time>2026-04-05T10:38:44.847Z</time></trkpt><trkpt lat="44.8437067" lon="8.0062767"><ele>309.2</ele><time>2026-04-05T10:38:46.847Z</time></trkpt><trkpt lat="44.843745" lon="8.0061633"><ele>308.0</ele><time>2026-04-05T10:38:48.847Z</time></trkpt><trkpt lat="44.8437883" lon="8.0060317"><ele>308.0</ele><time>2026-04-05T10:38:50.846Z</time></trkpt><trkpt lat="44.8438183" lon="8.0058917"><ele>308.0</ele><time>2026-04-05T10:38:52.847Z</time></trkpt><trkpt lat="44.84386" lon="8.005755"><ele>308.0</ele><time>2026-04-05T10:38:54.847Z</time></trkpt><trkpt lat="44.84387" lon="8.0056283"><ele>308.0</ele><time>2026-04-05T10:38:56.847Z</time></trkpt><trkpt lat="44.84387" lon="8.005505"><ele>308.0</ele><time>2026-04-05T10:38:58.847Z</time></trkpt><trkpt lat="44.84385" lon="8.0053867"><ele>306.83333333333337</ele><time>2026-04-05T10:39:00.847Z</time></trkpt><trkpt lat="44.8438617" lon="8.00527"><ele>305.6666666666667</ele><time>2026-04-05T10:39:02.847Z</time></trkpt><trkpt lat="44.84391" lon="8.005165"><ele>304.5</ele><time>2026-04-05T10:39:04.847Z</time></trkpt><trkpt lat="44.84396" lon="8.005105"><ele>303.3333333333333</ele><time>2026-04-05T10:39:06.847Z</time></trkpt><trkpt lat="44.844025" lon="8.00506"><ele>302.16666666666663</ele><time>2026-04-05T10:39:08.847Z</time></trkpt><trkpt lat="44.8441183" lon="8.0050317"><ele>301.0</ele><time>2026-04-05T10:39:10.847Z</time></trkpt><trkpt lat="44.844245" lon="8.0050017"><ele>300.6</ele><time>2026-04-05T10:39:12.847Z</time></trkpt><trkpt lat="44.84431" lon="8.0049867"><ele>300.20000000000005</ele><time>2026-04-05T10:39:13.847Z</time></trkpt><trkpt lat="44.8444233" lon="8.00498"><ele>299.79999999999995</ele><time>2026-04-05T10:39:15.846Z</time></trkpt><trkpt lat="44.84453" lon="8.00498"><ele>299.4</ele><time>2026-04-05T10:39:17.847Z</time></trkpt><trkpt lat="44.844625" lon="8.0049617"><ele>299.0</ele><time>2026-04-05T10:39:19.847Z</time></trkpt><trkpt lat="44.8447133" lon="8.004885"><ele>299.0</ele><time>2026-04-05T10:39:21.847Z</time></trkpt><trkpt lat="44.84481" lon="8.00481"><ele>299.0</ele><time>2026-04-05T10:39:23.846Z</time></trkpt><trkpt lat="44.84491" lon="8.00479"><ele>299.0</ele><time>2026-04-05T10:39:25.847Z</time></trkpt><trkpt lat="44.8449967" lon="8.00482"><ele>299.0</ele><time>2026-04-05T10:39:27.847Z</time></trkpt><trkpt lat="44.845065" lon="8.0048167"><ele>299.0</ele><time>2026-04-05T10:39:29.847Z</time></trkpt><trkpt lat="44.8451183" lon="8.00474"><ele>299.0</ele><time>2026-04-05T10:39:31.847Z</time></trkpt><trkpt lat="44.8452017" lon="8.0047067"><ele>298.83333333333337</ele><time>2026-04-05T10:39:34.847Z</time></trkpt><trkpt lat="44.8452733" lon="8.0047017"><ele>298.6666666666667</ele><time>2026-04-05T10:39:36.847Z</time></trkpt><trkpt lat="44.8453683" lon="8.00471"><ele>298.5</ele><time>2026-04-05T10:39:38.847Z</time></trkpt><trkpt lat="44.845465" lon="8.0047483"><ele>298.3333333333333</ele><time>2026-04-05T10:39:40.847Z</time></trkpt><trkpt lat="44.8455383" lon="8.004795"><ele>298.16666666666663</ele><time>2026-04-05T10:39:42.847Z</time></trkpt><trkpt lat="44.8455967" lon="8.00486"><ele>298.0</ele><time>2026-04-05T10:39:44.847Z</time></trkpt><trkpt lat="44.8456517" lon="8.0049317"><ele>298.8333333333333</ele><time>2026-04-05T10:39:46.847Z</time></trkpt><trkpt lat="44.8457067" lon="8.0049983"><ele>299.66666666666663</ele><time>2026-04-05T10:39:49.846Z</time></trkpt><trkpt lat="44.8457383" lon="8.0050883"><ele>300.5</ele><time>2026-04-05T10:39:53.847Z</time></trkpt><trkpt lat="44.8457783" lon="8.0051867"><ele>301.3333333333333</ele><time>2026-04-05T10:39:56.847Z</time></trkpt><trkpt lat="44.8458333" lon="8.0052883"><ele>302.1666666666667</ele><time>2026-04-05T10:39:59.847Z</time></trkpt><trkpt lat="44.84589" lon="8.0053583"><ele>303.0</ele><time>2026-04-05T10:40:01.847Z</time></trkpt><trkpt lat="44.8459433" lon="8.0054383"><ele>299.0</ele><time>2026-04-05T10:40:04.847Z</time></trkpt><trkpt lat="44.8460233" lon="8.0054633"><ele>295.0</ele><time>2026-04-05T10:40:08.847Z</time></trkpt><trkpt lat="44.846095" lon="8.0054483"><ele>291.0</ele><time>2026-04-05T10:40:12.847Z</time></trkpt><trkpt lat="44.8461767" lon="8.0054683"><ele>287.0</ele><time>2026-04-05T10:40:16.847Z</time></trkpt><trkpt lat="44.846255" lon="8.005485"><ele>283.0</ele><time>2026-04-05T10:40:20.847Z</time></trkpt><trkpt lat="44.84632" lon="8.0055417"><ele>279.0</ele><time>2026-04-05T10:40:23.847Z</time></trkpt><trkpt lat="44.8463367" lon="8.005635"><ele>279.0</ele><time>2026-04-05T10:40:26.846Z</time></trkpt><trkpt lat="44.8464483" lon="8.00575"><ele>279.0</ele><time>2026-04-05T10:40:58.847Z</time></trkpt><trkpt lat="44.846525" lon="8.00576"><ele>279.0</ele><time>2026-04-05T10:41:02.846Z</time></trkpt><trkpt lat="44.8465833" lon="8.0057117"><ele>279.0</ele><time>2026-04-05T10:41:04.847Z</time></trkpt><trkpt lat="44.8466617" lon="8.0056083"><ele>279.0</ele><time>2026-04-05T10:41:06.847Z</time></trkpt><trkpt lat="44.8467433" lon="8.0055483"><ele>279.0</ele><time>2026-04-05T10:41:08.847Z</time></trkpt><trkpt lat="44.8467633" lon="8.0054183"><ele>279.0</ele><time>2026-04-05T10:41:11.847Z</time></trkpt><trkpt lat="44.84675" lon="8.005315"><ele>279.0</ele><time>2026-04-05T10:41:13.847Z</time></trkpt><trkpt lat="44.846775" lon="8.0052133"><ele>279.0</ele><time>2026-04-05T10:41:16.847Z</time></trkpt><trkpt lat="44.846815" lon="8.0051183"><ele>279.0</ele><time>2026-04-05T10:41:18.846Z</time></trkpt><trkpt lat="44.8468383" lon="8.0050183"><ele>279.0</ele><time>2026-04-05T10:41:20.847Z</time></trkpt><trkpt lat="44.84688" lon="8.0048983"><ele>275.6666666666667</ele><time>2026-04-05T10:41:23.846Z</time></trkpt><trkpt lat="44.8469217" lon="8.004795"><ele>272.3333333333333</ele><time>2026-04-05T10:41:25.847Z</time></trkpt><trkpt lat="44.8469733" lon="8.0046883"><ele>269.0</ele><time>2026-04-05T10:41:27.847Z</time></trkpt><trkpt lat="44.847005" lon="8.00459"><ele>265.66666666666663</ele><time>2026-04-05T10:41:29.847Z</time></trkpt><trkpt lat="44.8470617" lon="8.004505"><ele>262.3333333333333</ele><time>2026-04-05T10:41:31.846Z</time></trkpt><trkpt lat="44.8471233" lon="8.0044267"><ele>259.0</ele><time>2026-04-05T10:41:33.847Z</time></trkpt><trkpt lat="44.847195" lon="8.0043267"><ele>259.0</ele><time>2026-04-05T10:41:35.847Z</time></trkpt><trkpt lat="44.8472867" lon="8.0042283"><ele>259.0</ele><time>2026-04-05T10:41:37.847Z</time></trkpt><trkpt lat="44.847365" lon="8.0040817"><ele>259.0</ele><time>2026-04-05T10:41:39.847Z</time></trkpt><trkpt lat="44.8473983" lon="8.004"><ele>259.0</ele><time>2026-04-05T10:41:40.847Z</time></trkpt><trkpt lat="44.84743" lon="8.003915"><ele>259.0</ele><time>2026-04-05T10:41:41.847Z</time></trkpt><trkpt lat="44.8474617" lon="8.0038367"><ele>259.0</ele><time>2026-04-05T10:41:42.847Z</time></trkpt><trkpt lat="44.8475333" lon="8.0037"><ele>257.59999999999997</ele><time>2026-04-05T10:41:44.846Z</time></trkpt><trkpt lat="44.8476033" lon="8.0035733"><ele>256.2</ele><time>2026-04-05T10:41:46.847Z</time></trkpt><trkpt lat="44.84765" lon="8.0034617"><ele>254.79999999999998</ele><time>2026-04-05T10:41:48.847Z</time></trkpt><trkpt lat="44.8476433" lon="8.0033483"><ele>253.39999999999998</ele><time>2026-04-05T10:41:50.846Z</time></trkpt><trkpt lat="44.84767" lon="8.0032333"><ele>252.0</ele><time>2026-04-05T10:41:52.847Z</time></trkpt><trkpt lat="44.8477117" lon="8.00312"><ele>249.83333333333334</ele><time>2026-04-05T10:41:54.847Z</time></trkpt><trkpt lat="44.84777" lon="8.00305"><ele>247.66666666666669</ele><time>2026-04-05T10:41:56.847Z</time></trkpt><trkpt lat="44.8478233" lon="8.00294"><ele>245.5</ele><time>2026-04-05T10:43:16.847Z</time></trkpt><trkpt lat="44.8479067" lon="8.0029417"><ele>243.33333333333334</ele><time>2026-04-05T10:43:18.847Z</time></trkpt><trkpt lat="44.847975" lon="8.0029467"><ele>241.16666666666669</ele><time>2026-04-05T10:43:19.847Z</time></trkpt><trkpt lat="44.8480433" lon="8.0029517"><ele>239.0</ele><time>2026-04-05T10:43:20.847Z</time></trkpt><trkpt lat="44.8481717" lon="8.00298"><ele>239.00000000000003</ele><time>2026-04-05T10:43:22.847Z</time></trkpt><trkpt lat="44.8482467" lon="8.0029967"><ele>239.0</ele><time>2026-04-05T10:43:23.847Z</time></trkpt><trkpt lat="44.84832" lon="8.0030133"><ele>239.0</ele><time>2026-04-05T10:43:24.847Z</time></trkpt><trkpt lat="44.8483833" lon="8.0030433"><ele>239.0</ele><time>2026-04-05T10:43:25.847Z</time></trkpt><trkpt lat="44.8484417" lon="8.0030783"><ele>239.00000000000003</ele><time>2026-04-05T10:43:26.847Z</time></trkpt><trkpt lat="44.8485467" lon="8.00314"><ele>239.0</ele><time>2026-04-05T10:43:28.846Z</time></trkpt><trkpt lat="44.8486467" lon="8.0032033"><ele>238.83333333333334</ele><time>2026-04-05T10:43:30.847Z</time></trkpt><trkpt lat="44.8487433" lon="8.0032583"><ele>238.66666666666669</ele><time>2026-04-05T10:43:32.846Z</time></trkpt><trkpt lat="44.8488383" lon="8.003305"><ele>238.5</ele><time>2026-04-05T10:43:34.847Z</time></trkpt><trkpt lat="44.8489217" lon="8.0033517"><ele>238.33333333333331</ele><time>2026-04-05T10:43:36.847Z</time></trkpt><trkpt lat="44.8489933" lon="8.0033867"><ele>238.16666666666666</ele><time>2026-04-05T10:43:38.847Z</time></trkpt><trkpt lat="44.8490667" lon="8.0034133"><ele>238.0</ele><time>2026-04-05T10:45:11.847Z</time></trkpt><trkpt lat="44.8490817" lon="8.0033117"><ele>237.66666666666666</ele><time>2026-04-05T10:46:51.847Z</time></trkpt><trkpt lat="44.8490883" lon="8.0031617"><ele>237.33333333333331</ele><time>2026-04-05T10:46:53.847Z</time></trkpt><trkpt lat="44.849095" lon="8.0030717"><ele>237.0</ele><time>2026-04-05T10:46:54.847Z</time></trkpt><trkpt lat="44.8491117" lon="8.0029833"><ele>236.66666666666669</ele><time>2026-04-05T10:46:55.847Z</time></trkpt><trkpt lat="44.8491183" lon="8.0028917"><ele>236.33333333333334</ele><time>2026-04-05T10:46:56.847Z</time></trkpt><trkpt lat="44.84913" lon="8.0027083"><ele>236.0</ele><time>2026-04-05T10:46:58.847Z</time></trkpt><trkpt lat="44.8491383" lon="8.0026083"><ele>236.0</ele><time>2026-04-05T10:46:59.847Z</time></trkpt><trkpt lat="44.8491433" lon="8.0025033"><ele>236.0</ele><time>2026-04-05T10:47:00.847Z</time></trkpt><trkpt lat="44.849155" lon="8.0024017"><ele>236.0</ele><time>2026-04-05T10:47:01.847Z</time></trkpt><trkpt lat="44.849165" lon="8.002305"><ele>236.0</ele><time>2026-04-05T10:47:02.847Z</time></trkpt><trkpt lat="44.8491867" lon="8.0021983"><ele>236.0</ele><time>2026-04-05T10:47:03.847Z</time></trkpt><trkpt lat="44.8492283" lon="8.0021167"><ele>236.0</ele><time>2026-04-05T10:47:04.846Z</time></trkpt><trkpt lat="44.849295" lon="8.002055"><ele>236.0</ele><time>2026-04-05T10:47:05.846Z</time></trkpt><trkpt lat="44.8493617" lon="8.0019967"><ele>239.50000000000003</ele><time>2026-04-05T10:47:06.847Z</time></trkpt><trkpt lat="44.8494233" lon="8.0019283"><ele>243.0</ele><time>2026-04-05T10:47:07.847Z</time></trkpt><trkpt lat="44.849485" lon="8.0017917"><ele>246.5</ele><time>2026-04-05T10:47:09.847Z</time></trkpt><trkpt lat="44.849445" lon="8.0016633"><ele>250.0</ele><time>2026-04-05T10:47:11.847Z</time></trkpt><trkpt lat="44.8493833" lon="8.001625"><ele>253.50000000000003</ele><time>2026-04-05T10:47:12.847Z</time></trkpt><trkpt lat="44.8493033" lon="8.001625"><ele>257.0</ele><time>2026-04-05T10:47:13.846Z</time></trkpt><trkpt lat="44.8492183" lon="8.001645"><ele>257.5</ele><time>2026-04-05T10:47:14.847Z</time></trkpt><trkpt lat="44.84915" lon="8.0016467"><ele>258.0</ele><time>2026-04-05T10:47:15.847Z</time></trkpt><trkpt lat="44.8490767" lon="8.0016467"><ele>258.5</ele><time>2026-04-05T10:47:16.847Z</time></trkpt><trkpt lat="44.84901" lon="8.00163"><ele>259.0</ele><time>2026-04-05T10:47:17.847Z</time></trkpt><trkpt lat="44.8488983" lon="8.0015667"><ele>259.5</ele><time>2026-04-05T10:47:19.847Z</time></trkpt><trkpt lat="44.8488533" lon="8.0014167"><ele>260.0</ele><time>2026-04-05T10:47:21.847Z</time></trkpt><trkpt lat="44.8488767" lon="8.00133"><ele>260.0</ele><time>2026-04-05T10:47:22.847Z</time></trkpt><trkpt lat="44.84892" lon="8.0012233"><ele>260.0</ele><time>2026-04-05T10:47:23.847Z</time></trkpt><trkpt lat="44.84897" lon="8.0011167"><ele>260.0</ele><time>2026-04-05T10:47:24.846Z</time></trkpt><trkpt lat="44.8490167" lon="8.00102"><ele>260.0</ele><time>2026-04-05T10:47:25.847Z</time></trkpt><trkpt lat="44.849065" lon="8.00095"><ele>260.0</ele><time>2026-04-05T10:47:26.847Z</time></trkpt><trkpt lat="44.8491217" lon="8.0008983"><ele>260.0</ele><time>2026-04-05T10:47:27.847Z</time></trkpt><trkpt lat="44.84919" lon="8.000875"><ele>260.0</ele><time>2026-04-05T10:47:28.847Z</time></trkpt><trkpt lat="44.8492617" lon="8.0008683"><ele>260.0</ele><time>2026-04-05T10:47:29.847Z</time></trkpt><trkpt lat="44.8493433" lon="8.0008883"><ele>260.0</ele><time>2026-04-05T10:47:30.846Z</time></trkpt><trkpt lat="44.8494417" lon="8.00093"><ele>260.0</ele><time>2026-04-05T10:47:31.846Z</time></trkpt><trkpt lat="44.84953" lon="8.000945"><ele>260.0</ele><time>2026-04-05T10:47:32.847Z</time></trkpt><trkpt lat="44.8496183" lon="8.0009517"><ele>260.0</ele><time>2026-04-05T10:47:33.847Z</time></trkpt><trkpt lat="44.849705" lon="8.00095"><ele>262.0</ele><time>2026-04-05T10:47:34.847Z</time></trkpt><trkpt lat="44.84979" lon="8.0009383"><ele>264.0</ele><time>2026-04-05T10:47:35.846Z</time></trkpt><trkpt lat="44.84987" lon="8.000925"><ele>266.0</ele><time>2026-04-05T10:47:36.847Z</time></trkpt><trkpt lat="44.8499483" lon="8.000925"><ele>268.0</ele><time>2026-04-05T10:47:37.847Z</time></trkpt><trkpt lat="44.8500283" lon="8.0009317"><ele>270.0</ele><time>2026-04-05T10:47:38.847Z</time></trkpt><trkpt lat="44.8500967" lon="8.0009667"><ele>272.0</ele><time>2026-04-05T10:47:39.847Z</time></trkpt><trkpt lat="44.8501617" lon="8.001025"><ele>271.99999999999994</ele><time>2026-04-05T10:47:40.847Z</time></trkpt><trkpt lat="44.85022" lon="8.0011083"><ele>272.0</ele><time>2026-04-05T10:47:41.847Z</time></trkpt><trkpt lat="44.8502617" lon="8.0011867"><ele>272.0</ele><time>2026-04-05T10:47:42.846Z</time></trkpt><trkpt lat="44.8503033" lon="8.0012583"><ele>272.0</ele><time>2026-04-05T10:47:43.847Z</time></trkpt><trkpt lat="44.85035" lon="8.0013217"><ele>272.0</ele><time>2026-04-05T10:47:44.847Z</time></trkpt><trkpt lat="44.8504067" lon="8.0013617"><ele>271.99999999999994</ele><time>2026-04-05T10:47:45.847Z</time></trkpt><trkpt lat="44.8504717" lon="8.0013317"><ele>272.0</ele><time>2026-04-05T10:47:46.846Z</time></trkpt><trkpt lat="44.8505267" lon="8.00125"><ele>272.0</ele><time>2026-04-05T10:47:47.847Z</time></trkpt><trkpt lat="44.850565" lon="8.0011367"><ele>272.0</ele><time>2026-04-05T10:47:48.847Z</time></trkpt><trkpt lat="44.8505817" lon="8.001015"><ele>272.0</ele><time>2026-04-05T10:47:49.847Z</time></trkpt><trkpt lat="44.8505817" lon="8.000915"><ele>272.0</ele><time>2026-04-05T10:47:50.847Z</time></trkpt><trkpt lat="44.8505683" lon="8.000825"><ele>272.0</ele><time>2026-04-05T10:47:51.847Z</time></trkpt><trkpt lat="44.8505367" lon="8.0007367"><ele>272.0</ele><time>2026-04-05T10:47:52.847Z</time></trkpt><trkpt lat="44.85049" lon="8.0006583"><ele>272.6666666666667</ele><time>2026-04-05T10:47:53.846Z</time></trkpt><trkpt lat="44.850435" lon="8.0005917"><ele>273.33333333333337</ele><time>2026-04-05T10:47:54.847Z</time></trkpt><trkpt lat="44.850375" lon="8.0005217"><ele>274.0</ele><time>2026-04-05T10:47:55.847Z</time></trkpt><trkpt lat="44.8503" lon="8.0004483"><ele>274.6666666666667</ele><time>2026-04-05T10:47:56.847Z</time></trkpt><trkpt lat="44.85023" lon="8.000375"><ele>275.3333333333333</ele><time>2026-04-05T10:47:57.847Z</time></trkpt><trkpt lat="44.85017" lon="8.0003033"><ele>276.0</ele><time>2026-04-05T10:47:58.847Z</time></trkpt><trkpt lat="44.8501233" lon="8.000225"><ele>276.0</ele><time>2026-04-05T10:47:59.847Z</time></trkpt><trkpt lat="44.8500983" lon="8.0001233"><ele>276.0</ele><time>2026-04-05T10:48:00.846Z</time></trkpt><trkpt lat="44.850095" lon="8.0000167"><ele>276.0</ele><time>2026-04-05T10:48:01.847Z</time></trkpt><trkpt lat="44.850115" lon="7.9999017"><ele>276.0</ele><time>2026-04-05T10:48:02.847Z</time></trkpt><trkpt lat="44.8501433" lon="7.99979"><ele>276.0</ele><time>2026-04-05T10:48:03.847Z</time></trkpt><trkpt lat="44.85018" lon="7.99968"><ele>276.0</ele><time>2026-04-05T10:48:04.847Z</time></trkpt><trkpt lat="44.8502117" lon="7.999575"><ele>276.0</ele><time>2026-04-05T10:48:05.846Z</time></trkpt><trkpt lat="44.850235" lon="7.9994733"><ele>276.0</ele><time>2026-04-05T10:48:06.847Z</time></trkpt><trkpt lat="44.8502567" lon="7.9993767"><ele>276.0</ele><time>2026-04-05T10:48:07.847Z</time></trkpt><trkpt lat="44.8502633" lon="7.999265"><ele>276.0</ele><time>2026-04-05T10:48:08.847Z</time></trkpt><trkpt lat="44.85026" lon="7.9991633"><ele>276.0</ele><time>2026-04-05T10:48:09.847Z</time></trkpt><trkpt lat="44.85025" lon="7.9990433"><ele>276.0</ele><time>2026-04-05T10:48:10.847Z</time></trkpt><trkpt lat="44.850245" lon="7.9989317"><ele>278.0</ele><time>2026-04-05T10:48:11.847Z</time></trkpt><trkpt lat="44.8502367" lon="7.9988167"><ele>280.0</ele><time>2026-04-05T10:48:12.847Z</time></trkpt><trkpt lat="44.8502433" lon="7.9987"><ele>282.0</ele><time>2026-04-05T10:48:13.846Z</time></trkpt><trkpt lat="44.8502617" lon="7.9985833"><ele>284.0</ele><time>2026-04-05T10:48:14.847Z</time></trkpt><trkpt lat="44.8502883" lon="7.9984633"><ele>286.0</ele><time>2026-04-05T10:48:15.846Z</time></trkpt><trkpt lat="44.8503167" lon="7.9983433"><ele>288.0</ele><time>2026-04-05T10:48:16.847Z</time></trkpt><trkpt lat="44.85034" lon="7.9982333"><ele>291.3333333333333</ele><time>2026-04-05T10:48:17.847Z</time></trkpt><trkpt lat="44.8503517" lon="7.9981217"><ele>294.6666666666667</ele><time>2026-04-05T10:48:18.847Z</time></trkpt><trkpt lat="44.8503483" lon="7.9980183"><ele>298.0</ele><time>2026-04-05T10:48:19.847Z</time></trkpt><trkpt lat="44.8503233" lon="7.9979217"><ele>301.33333333333337</ele><time>2026-04-05T10:48:20.847Z</time></trkpt><trkpt lat="44.85028" lon="7.997825"><ele>304.6666666666667</ele><time>2026-04-05T10:48:21.847Z</time></trkpt><trkpt lat="44.8502167" lon="7.9977417"><ele>308.0</ele><time>2026-04-05T10:48:22.846Z</time></trkpt><trkpt lat="44.850145" lon="7.9976717"><ele>308.83333333333337</ele><time>2026-04-05T10:48:23.847Z</time></trkpt><trkpt lat="44.8500817" lon="7.9975967"><ele>309.6666666666667</ele><time>2026-04-05T10:48:24.847Z</time></trkpt><trkpt lat="44.8500383" lon="7.9975033"><ele>310.5</ele><time>2026-04-05T10:48:25.847Z</time></trkpt><trkpt lat="44.8500133" lon="7.997395"><ele>311.3333333333333</ele><time>2026-04-05T10:48:26.846Z</time></trkpt><trkpt lat="44.8500033" lon="7.9972767"><ele>312.16666666666663</ele><time>2026-04-05T10:48:27.847Z</time></trkpt><trkpt lat="44.8499933" lon="7.997145"><ele>313.0</ele><time>2026-04-05T10:48:28.847Z</time></trkpt><trkpt lat="44.8499683" lon="7.9970267"><ele>313.0</ele><time>2026-04-05T10:48:29.847Z</time></trkpt><trkpt lat="44.8499367" lon="7.9969267"><ele>313.0</ele><time>2026-04-05T10:48:30.847Z</time></trkpt><trkpt lat="44.8498967" lon="7.996835"><ele>313.0</ele><time>2026-04-05T10:48:31.847Z</time></trkpt><trkpt lat="44.84986" lon="7.9967483"><ele>313.0</ele><time>2026-04-05T10:48:32.847Z</time></trkpt><trkpt lat="44.849825" lon="7.9966683"><ele>313.0</ele><time>2026-04-05T10:48:33.847Z</time></trkpt><trkpt lat="44.8497833" lon="7.9965833"><ele>313.0</ele><time>2026-04-05T10:48:34.846Z</time></trkpt><trkpt lat="44.84973" lon="7.9965067"><ele>313.0</ele><time>2026-04-05T10:48:35.847Z</time></trkpt><trkpt lat="44.84967" lon="7.9964333"><ele>312.16666666666663</ele><time>2026-04-05T10:48:36.847Z</time></trkpt><trkpt lat="44.8496067" lon="7.996365"><ele>311.3333333333333</ele><time>2026-04-05T10:48:37.847Z</time></trkpt><trkpt lat="44.8495433" lon="7.9963033"><ele>310.5</ele><time>2026-04-05T10:48:38.847Z</time></trkpt><trkpt lat="44.8494783" lon="7.996255"><ele>309.6666666666667</ele><time>2026-04-05T10:48:39.847Z</time></trkpt><trkpt lat="44.8493767" lon="7.9962083"><ele>308.83333333333337</ele><time>2026-04-05T10:48:41.847Z</time></trkpt><trkpt lat="44.8492833" lon="7.9961833"><ele>308.0</ele><time>2026-04-05T10:48:43.847Z</time></trkpt><trkpt lat="44.84924" lon="7.9960833"><ele>308.0</ele><time>2026-04-05T10:48:45.846Z</time></trkpt><trkpt lat="44.8492083" lon="7.9959117"><ele>308.0</ele><time>2026-04-05T10:48:47.847Z</time></trkpt><trkpt lat="44.849185" lon="7.9958133"><ele>308.0</ele><time>2026-04-05T10:48:48.847Z</time></trkpt><trkpt lat="44.8491467" lon="7.9957183"><ele>308.0</ele><time>2026-04-05T10:48:49.846Z</time></trkpt><trkpt lat="44.849115" lon="7.9956333"><ele>308.0</ele><time>2026-04-05T10:48:50.847Z</time></trkpt><trkpt lat="44.8490933" lon="7.9955483"><ele>308.0</ele><time>2026-04-05T10:48:51.846Z</time></trkpt><trkpt lat="44.8490667" lon="7.99546"><ele>310.33333333333337</ele><time>2026-04-05T10:48:52.847Z</time></trkpt><trkpt lat="44.8490467" lon="7.9953667"><ele>312.6666666666667</ele><time>2026-04-05T10:48:53.847Z</time></trkpt><trkpt lat="44.84903" lon="7.995275"><ele>315.0</ele><time>2026-04-05T10:48:54.846Z</time></trkpt><trkpt lat="44.849015" lon="7.9951767"><ele>317.3333333333333</ele><time>2026-04-05T10:48:55.847Z</time></trkpt><trkpt lat="44.8490017" lon="7.9950783"><ele>319.66666666666663</ele><time>2026-04-05T10:48:56.847Z</time></trkpt><trkpt lat="44.8489883" lon="7.994985"><ele>322.0</ele><time>2026-04-05T10:48:57.847Z</time></trkpt><trkpt lat="44.8489667" lon="7.99481"><ele>322.7142857142857</ele><time>2026-04-05T10:48:59.846Z</time></trkpt><trkpt lat="44.84895" lon="7.9947033"><ele>323.42857142857144</ele><time>2026-04-05T10:49:00.847Z</time></trkpt><trkpt lat="44.8489383" lon="7.9946067"><ele>324.1428571428571</ele><time>2026-04-05T10:49:01.847Z</time></trkpt><trkpt lat="44.84893" lon="7.9945117"><ele>324.8571428571429</ele><time>2026-04-05T10:49:02.847Z</time></trkpt><trkpt lat="44.8489333" lon="7.9944217"><ele>325.57142857142856</ele><time>2026-04-05T10:49:03.846Z</time></trkpt><trkpt lat="44.84893" lon="7.9943183"><ele>326.2857142857143</ele><time>2026-04-05T10:49:04.846Z</time></trkpt><trkpt lat="44.8489267" lon="7.9942167"><ele>327.0</ele><time>2026-04-05T10:49:05.847Z</time></trkpt><trkpt lat="44.8489333" lon="7.9941167"><ele>325.3333333333333</ele><time>2026-04-05T10:49:06.846Z</time></trkpt><trkpt lat="44.8489283" lon="7.994025"><ele>323.6666666666667</ele><time>2026-04-05T10:49:07.847Z</time></trkpt><trkpt lat="44.848915" lon="7.9939283"><ele>322.0</ele><time>2026-04-05T10:49:08.847Z</time></trkpt><trkpt lat="44.84889" lon="7.9937833"><ele>320.33333333333337</ele><time>2026-04-05T10:49:10.847Z</time></trkpt><trkpt lat="44.8488517" lon="7.9936617"><ele>318.6666666666667</ele><time>2026-04-05T10:49:12.847Z</time></trkpt><trkpt lat="44.8487633" lon="7.993575"><ele>317.0</ele><time>2026-04-05T10:49:14.847Z</time></trkpt><trkpt lat="44.8487017" lon="7.9935517"><ele>317.0</ele><time>2026-04-05T10:49:15.847Z</time></trkpt><trkpt lat="44.8485967" lon="7.9935267"><ele>317.0</ele><time>2026-04-05T10:49:17.846Z</time></trkpt><trkpt lat="44.8485017" lon="7.9934867"><ele>317.0</ele><time>2026-04-05T10:49:19.847Z</time></trkpt><trkpt lat="44.848425" lon="7.9934"><ele>317.0</ele><time>2026-04-05T10:49:21.847Z</time></trkpt><trkpt lat="44.84837" lon="7.9932667"><ele>317.0</ele><time>2026-04-05T10:49:23.846Z</time></trkpt><trkpt lat="44.84831" lon="7.99313"><ele>317.2</ele><time>2026-04-05T10:49:25.847Z</time></trkpt><trkpt lat="44.8482783" lon="7.993045"><ele>317.4</ele><time>2026-04-05T10:49:26.847Z</time></trkpt><trkpt lat="44.84822" lon="7.9928983"><ele>317.6</ele><time>2026-04-05T10:49:28.847Z</time></trkpt><trkpt lat="44.8481733" lon="7.9927467"><ele>317.8</ele><time>2026-04-05T10:49:30.847Z</time></trkpt><trkpt lat="44.8481217" lon="7.992605"><ele>318.0</ele><time>2026-04-05T10:49:32.847Z</time></trkpt><trkpt lat="44.84807" lon="7.9924533"><ele>318.0</ele><time>2026-04-05T10:49:34.847Z</time></trkpt><trkpt lat="44.848035" lon="7.9923"><ele>318.0</ele><time>2026-04-05T10:49:36.847Z</time></trkpt><trkpt lat="44.8480233" lon="7.9921433"><ele>318.0</ele><time>2026-04-05T10:49:38.847Z</time></trkpt><trkpt lat="44.84806" lon="7.9919783"><ele>318.0</ele><time>2026-04-05T10:49:40.847Z</time></trkpt><trkpt lat="44.8480933" lon="7.9918917"><ele>318.0</ele><time>2026-04-05T10:49:41.847Z</time></trkpt><trkpt lat="44.8481283" lon="7.9918133"><ele>318.0</ele><time>2026-04-05T10:49:42.847Z</time></trkpt><trkpt lat="44.8481683" lon="7.9917317"><ele>318.0</ele><time>2026-04-05T10:49:43.846Z</time></trkpt><trkpt lat="44.848195" lon="7.9916433"><ele>318.0</ele><time>2026-04-05T10:49:44.847Z</time></trkpt><trkpt lat="44.8482183" lon="7.991495"><ele>318.0</ele><time>2026-04-05T10:49:46.846Z</time></trkpt><trkpt lat="44.8482183" lon="7.991375"><ele>318.0</ele><time>2026-04-05T10:49:48.847Z</time></trkpt><trkpt lat="44.8482117" lon="7.991265"><ele>318.0</ele><time>2026-04-05T10:49:50.847Z</time></trkpt><trkpt lat="44.8482" lon="7.9911417"><ele>319.6</ele><time>2026-04-05T10:49:52.847Z</time></trkpt><trkpt lat="44.8481867" lon="7.9910267"><ele>321.20000000000005</ele><time>2026-04-05T10:49:54.847Z</time></trkpt><trkpt lat="44.848165" lon="7.9909"><ele>322.8</ele><time>2026-04-05T10:49:56.847Z</time></trkpt><trkpt lat="44.8481483" lon="7.9907633"><ele>324.40000000000003</ele><time>2026-04-05T10:49:58.847Z</time></trkpt><trkpt lat="44.8481333" lon="7.990625"><ele>326.0</ele><time>2026-04-05T10:50:00.846Z</time></trkpt><trkpt lat="44.8481117" lon="7.99048"><ele>326.0</ele><time>2026-04-05T10:50:02.846Z</time></trkpt><trkpt lat="44.8480917" lon="7.9903217"><ele>326.0</ele><time>2026-04-05T10:50:04.846Z</time></trkpt><trkpt lat="44.8480533" lon="7.9901683"><ele>326.0</ele><time>2026-04-05T10:50:06.846Z</time></trkpt><trkpt lat="44.8480083" lon="7.9900233"><ele>326.0</ele><time>2026-04-05T10:50:08.846Z</time></trkpt><trkpt lat="44.8479933" lon="7.9898683"><ele>324.0</ele><time>2026-04-05T10:50:10.845Z</time></trkpt><trkpt lat="44.8479717" lon="7.9897233"><ele>322.0</ele><time>2026-04-05T10:50:12.846Z</time></trkpt><trkpt lat="44.84799" lon="7.9895833"><ele>320.0</ele><time>2026-04-05T10:50:14.846Z</time></trkpt><trkpt lat="44.8480483" lon="7.9894633"><ele>318.0</ele><time>2026-04-05T10:50:16.845Z</time></trkpt><trkpt lat="44.8481233" lon="7.989355"><ele>316.0</ele><time>2026-04-05T10:50:18.846Z</time></trkpt><trkpt lat="44.8481017" lon="7.98927"><ele>316.0</ele><time>2026-04-05T10:50:20.846Z</time></trkpt><trkpt lat="44.8480233" lon="7.9892967"><ele>316.0</ele><time>2026-04-05T10:50:22.846Z</time></trkpt><trkpt lat="44.8479383" lon="7.989385"><ele>316.0</ele><time>2026-04-05T10:50:24.846Z</time></trkpt><trkpt lat="44.8478583" lon="7.9894817"><ele>316.0</ele><time>2026-04-05T10:50:26.846Z</time></trkpt><trkpt lat="44.84777" lon="7.989555"><ele>316.0</ele><time>2026-04-05T10:50:28.846Z</time></trkpt><trkpt lat="44.8476867" lon="7.9896217"><ele>313.0</ele><time>2026-04-05T10:50:30.846Z</time></trkpt><trkpt lat="44.847605" lon="7.989735"><ele>310.0</ele><time>2026-04-05T10:50:32.846Z</time></trkpt><trkpt lat="44.8475333" lon="7.98986"><ele>307.0</ele><time>2026-04-05T10:50:34.846Z</time></trkpt><trkpt lat="44.8474667" lon="7.9898533"><ele>304.0</ele><time>2026-04-05T10:50:36.845Z</time></trkpt><trkpt lat="44.8474417" lon="7.98975"><ele>301.0</ele><time>2026-04-05T10:50:38.846Z</time></trkpt><trkpt lat="44.84742" lon="7.9896183"><ele>301.0</ele><time>2026-04-05T10:50:40.846Z</time></trkpt><trkpt lat="44.8474183" lon="7.9894817"><ele>301.0</ele><time>2026-04-05T10:50:42.846Z</time></trkpt><trkpt lat="44.8474383" lon="7.9893517"><ele>301.0</ele><time>2026-04-05T10:50:44.846Z</time></trkpt><trkpt lat="44.8474883" lon="7.98924"><ele>301.0</ele><time>2026-04-05T10:50:46.846Z</time></trkpt><trkpt lat="44.8474883" lon="7.9891417"><ele>301.0</ele><time>2026-04-05T10:50:48.845Z</time></trkpt><trkpt lat="44.8474233" lon="7.9890667"><ele>301.0</ele><time>2026-04-05T10:50:50.846Z</time></trkpt><trkpt lat="44.8473233" lon="7.98903"><ele>301.0</ele><time>2026-04-05T10:50:52.845Z</time></trkpt><trkpt lat="44.847225" lon="7.9890533"><ele>301.0</ele><time>2026-04-05T10:50:54.846Z</time></trkpt><trkpt lat="44.8471583" lon="7.989145"><ele>301.0</ele><time>2026-04-05T10:50:56.846Z</time></trkpt><trkpt lat="44.8471433" lon="7.9893"><ele>301.0</ele><time>2026-04-05T10:50:58.846Z</time></trkpt><trkpt lat="44.8471433" lon="7.9894017"><ele>301.0</ele><time>2026-04-05T10:50:59.846Z</time></trkpt><trkpt lat="44.84715" lon="7.9894983"><ele>301.0</ele><time>2026-04-05T10:51:00.846Z</time></trkpt><trkpt lat="44.8471633" lon="7.98966"><ele>301.0</ele><time>2026-04-05T10:51:02.846Z</time></trkpt><trkpt lat="44.8471483" lon="7.9897667"><ele>301.0</ele><time>2026-04-05T10:51:04.846Z</time></trkpt><trkpt lat="44.84707" lon="7.9898167"><ele>301.0</ele><time>2026-04-05T10:51:07.846Z</time></trkpt><trkpt lat="44.8469983" lon="7.9897383"><ele>301.0</ele><time>2026-04-05T10:51:09.846Z</time></trkpt><trkpt lat="44.846925" lon="7.9896033"><ele>301.0</ele><time>2026-04-05T10:51:11.845Z</time></trkpt><trkpt lat="44.8468967" lon="7.9895217"><ele>301.0</ele><time>2026-04-05T10:51:12.846Z</time></trkpt><trkpt lat="44.8468467" lon="7.9893717"><ele>301.0</ele><time>2026-04-05T10:51:14.846Z</time></trkpt><trkpt lat="44.8467983" lon="7.98921"><ele>301.0</ele><time>2026-04-05T10:51:16.845Z</time></trkpt><trkpt lat="44.8467683" lon="7.98913"><ele>301.0</ele><time>2026-04-05T10:51:17.846Z</time></trkpt><trkpt lat="44.8467417" lon="7.9890467"><ele>301.0</ele><time>2026-04-05T10:51:18.846Z</time></trkpt><trkpt lat="44.846715" lon="7.98896"><ele>301.0</ele><time>2026-04-05T10:51:19.846Z</time></trkpt><trkpt lat="44.8466883" lon="7.9888783"><ele>301.0</ele><time>2026-04-05T10:51:20.846Z</time></trkpt><trkpt lat="44.84666" lon="7.9887967"><ele>301.0</ele><time>2026-04-05T10:51:21.846Z</time></trkpt><trkpt lat="44.8466367" lon="7.9887067"><ele>297.3333333333333</ele><time>2026-04-05T10:51:22.846Z</time></trkpt><trkpt lat="44.846615" lon="7.9886233"><ele>293.66666666666663</ele><time>2026-04-05T10:51:23.846Z</time></trkpt><trkpt lat="44.8465883" lon="7.9885417"><ele>290.0</ele><time>2026-04-05T10:51:24.846Z</time></trkpt><trkpt lat="44.846545" lon="7.98841"><ele>286.3333333333333</ele><time>2026-04-05T10:51:26.846Z</time></trkpt><trkpt lat="44.846525" lon="7.9883233"><ele>282.6666666666667</ele><time>2026-04-05T10:51:28.846Z</time></trkpt><trkpt lat="44.8465583" lon="7.988215"><ele>279.0</ele><time>2026-04-05T10:51:31.846Z</time></trkpt><trkpt lat="44.8466283" lon="7.9881333"><ele>279.0</ele><time>2026-04-05T10:51:33.846Z</time></trkpt><trkpt lat="44.84672" lon="7.988045"><ele>279.0</ele><time>2026-04-05T10:51:35.846Z</time></trkpt><trkpt lat="44.8467783" lon="7.9879933"><ele>279.0</ele><time>2026-04-05T10:51:36.845Z</time></trkpt><trkpt lat="44.8468317" lon="7.9879367"><ele>279.0</ele><time>2026-04-05T10:51:37.846Z</time></trkpt><trkpt lat="44.8468867" lon="7.987885"><ele>279.0</ele><time>2026-04-05T10:51:38.846Z</time></trkpt><trkpt lat="44.8469433" lon="7.9878333"><ele>279.0</ele><time>2026-04-05T10:51:39.846Z</time></trkpt><trkpt lat="44.8470017" lon="7.9877683"><ele>279.0</ele><time>2026-04-05T10:51:40.846Z</time></trkpt><trkpt lat="44.847055" lon="7.98771"><ele>279.0</ele><time>2026-04-05T10:51:41.845Z</time></trkpt><trkpt lat="44.8471083" lon="7.9876433"><ele>279.0</ele><time>2026-04-05T10:51:42.846Z</time></trkpt><trkpt lat="44.8471667" lon="7.987585"><ele>279.0</ele><time>2026-04-05T10:51:43.845Z</time></trkpt><trkpt lat="44.8472233" lon="7.987525"><ele>279.0</ele><time>2026-04-05T10:51:44.846Z</time></trkpt><trkpt lat="44.8473333" lon="7.9874433"><ele>279.0</ele><time>2026-04-05T10:51:46.846Z</time></trkpt><trkpt lat="44.8473967" lon="7.9874233"><ele>277.1666666666667</ele><time>2026-04-05T10:51:47.846Z</time></trkpt><trkpt lat="44.8474633" lon="7.9874133"><ele>275.3333333333333</ele><time>2026-04-05T10:51:48.845Z</time></trkpt><trkpt lat="44.8475767" lon="7.98739"><ele>273.5</ele><time>2026-04-05T10:51:50.846Z</time></trkpt><trkpt lat="44.8476417" lon="7.9873667"><ele>271.66666666666663</ele><time>2026-04-05T10:51:51.845Z</time></trkpt><trkpt lat="44.847715" lon="7.9873517"><ele>269.8333333333333</ele><time>2026-04-05T10:51:52.846Z</time></trkpt><trkpt lat="44.8477917" lon="7.987335"><ele>268.0</ele><time>2026-04-05T10:51:53.846Z</time></trkpt><trkpt lat="44.84787" lon="7.9873233"><ele>267.7142857142857</ele><time>2026-04-05T10:51:54.846Z</time></trkpt><trkpt lat="44.847945" lon="7.9873133"><ele>267.42857142857144</ele><time>2026-04-05T10:51:55.846Z</time></trkpt><trkpt lat="44.8480183" lon="7.987305"><ele>267.1428571428571</ele><time>2026-04-05T10:51:56.846Z</time></trkpt><trkpt lat="44.84809" lon="7.987285"><ele>266.8571428571429</ele><time>2026-04-05T10:51:57.846Z</time></trkpt><trkpt lat="44.84816" lon="7.987265"><ele>266.57142857142856</ele><time>2026-04-05T10:51:58.846Z</time></trkpt><trkpt lat="44.8482283" lon="7.9872417"><ele>266.2857142857143</ele><time>2026-04-05T10:51:59.846Z</time></trkpt><trkpt lat="44.8482983" lon="7.9872133"><ele>266.0</ele><time>2026-04-05T10:52:00.846Z</time></trkpt><trkpt lat="44.8483683" lon="7.9871817"><ele>266.0</ele><time>2026-04-05T10:52:01.846Z</time></trkpt><trkpt lat="44.8484317" lon="7.9871483"><ele>266.0</ele><time>2026-04-05T10:52:02.846Z</time></trkpt><trkpt lat="44.848505" lon="7.9871167"><ele>266.0</ele><time>2026-04-05T10:52:03.846Z</time></trkpt><trkpt lat="44.8485783" lon="7.9870883"><ele>266.0</ele><time>2026-04-05T10:52:04.845Z</time></trkpt><trkpt lat="44.8486483" lon="7.987055"><ele>266.0</ele><time>2026-04-05T10:52:05.846Z</time></trkpt><trkpt lat="44.8487267" lon="7.9870117"><ele>266.0</ele><time>2026-04-05T10:52:06.846Z</time></trkpt><trkpt lat="44.8488" lon="7.986975"><ele>266.0</ele><time>2026-04-05T10:52:07.846Z</time></trkpt><trkpt lat="44.8488767" lon="7.9869383"><ele>266.0</ele><time>2026-04-05T10:52:08.846Z</time></trkpt><trkpt lat="44.848945" lon="7.9869"><ele>266.0</ele><time>2026-04-05T10:52:09.846Z</time></trkpt><trkpt lat="44.849015" lon="7.9868683"><ele>266.0</ele><time>2026-04-05T10:52:10.845Z</time></trkpt><trkpt lat="44.8490817" lon="7.9868333"><ele>266.0</ele><time>2026-04-05T10:52:11.845Z</time></trkpt><trkpt lat="44.8491517" lon="7.9868"><ele>266.0</ele><time>2026-04-05T10:52:12.846Z</time></trkpt><trkpt lat="44.8492133" lon="7.9867717"><ele>266.0</ele><time>2026-04-05T10:52:13.846Z</time></trkpt><trkpt lat="44.8493417" lon="7.98669"><ele>265.6666666666667</ele><time>2026-04-05T10:52:15.846Z</time></trkpt><trkpt lat="44.849415" lon="7.9866467"><ele>265.33333333333337</ele><time>2026-04-05T10:52:16.846Z</time></trkpt><trkpt lat="44.84949" lon="7.9866067"><ele>265.0</ele><time>2026-04-05T10:52:17.846Z</time></trkpt><trkpt lat="44.849555" lon="7.986575"><ele>264.6666666666667</ele><time>2026-04-05T10:52:18.846Z</time></trkpt><trkpt lat="44.8496217" lon="7.9865367"><ele>264.3333333333333</ele><time>2026-04-05T10:52:19.846Z</time></trkpt><trkpt lat="44.849695" lon="7.986495"><ele>264.0</ele><time>2026-04-05T10:52:20.846Z</time></trkpt><trkpt lat="44.8497667" lon="7.9864517"><ele>264.0</ele><time>2026-04-05T10:52:21.846Z</time></trkpt><trkpt lat="44.849835" lon="7.9864117"><ele>264.0</ele><time>2026-04-05T10:52:22.845Z</time></trkpt><trkpt lat="44.8499017" lon="7.9863683"><ele>264.0</ele><time>2026-04-05T10:52:23.846Z</time></trkpt><trkpt lat="44.8500183" lon="7.98631"><ele>264.0</ele><time>2026-04-05T10:52:25.845Z</time></trkpt><trkpt lat="44.85008" lon="7.9862767"><ele>264.0</ele><time>2026-04-05T10:52:26.846Z</time></trkpt><trkpt lat="44.8501983" lon="7.9862133"><ele>265.8</ele><time>2026-04-05T10:52:28.846Z</time></trkpt><trkpt lat="44.8502583" lon="7.986185"><ele>267.59999999999997</ele><time>2026-04-05T10:52:29.846Z</time></trkpt><trkpt lat="44.8503233" lon="7.9861517"><ele>269.4</ele><time>2026-04-05T10:52:30.846Z</time></trkpt><trkpt lat="44.850425" lon="7.98609"><ele>271.2</ele><time>2026-04-05T10:52:32.846Z</time></trkpt><trkpt lat="44.8505267" lon="7.98603"><ele>273.0</ele><time>2026-04-05T10:52:34.846Z</time></trkpt><trkpt lat="44.8506267" lon="7.98596"><ele>273.0</ele><time>2026-04-05T10:52:36.845Z</time></trkpt><trkpt lat="44.850685" lon="7.9859167"><ele>273.0</ele><time>2026-04-05T10:52:37.845Z</time></trkpt><trkpt lat="44.850745" lon="7.985875"><ele>273.0</ele><time>2026-04-05T10:52:38.845Z</time></trkpt><trkpt lat="44.8508083" lon="7.98583"><ele>273.0</ele><time>2026-04-05T10:52:39.846Z</time></trkpt><trkpt lat="44.850875" lon="7.985785"><ele>273.0</ele><time>2026-04-05T10:52:40.846Z</time></trkpt><trkpt lat="44.8509417" lon="7.9857367"><ele>273.0</ele><time>2026-04-05T10:52:41.845Z</time></trkpt><trkpt lat="44.851005" lon="7.985685"><ele>273.0</ele><time>2026-04-05T10:52:42.846Z</time></trkpt><trkpt lat="44.85107" lon="7.9856283"><ele>271.5</ele><time>2026-04-05T10:52:43.846Z</time></trkpt><trkpt lat="44.8511467" lon="7.9855667"><ele>270.0</ele><time>2026-04-05T10:52:44.845Z</time></trkpt><trkpt lat="44.8512183" lon="7.9855067"><ele>268.5</ele><time>2026-04-05T10:52:45.846Z</time></trkpt><trkpt lat="44.85129" lon="7.985445"><ele>267.0</ele><time>2026-04-05T10:52:46.846Z</time></trkpt><trkpt lat="44.8513583" lon="7.9853783"><ele>265.5</ele><time>2026-04-05T10:52:47.846Z</time></trkpt><trkpt lat="44.85142" lon="7.98532"><ele>264.0</ele><time>2026-04-05T10:52:48.846Z</time></trkpt><trkpt lat="44.8514933" lon="7.9852717"><ele>264.0</ele><time>2026-04-05T10:52:49.846Z</time></trkpt><trkpt lat="44.851565" lon="7.985225"><ele>264.0</ele><time>2026-04-05T10:52:50.846Z</time></trkpt><trkpt lat="44.8516267" lon="7.985175"><ele>264.0</ele><time>2026-04-05T10:52:51.846Z</time></trkpt><trkpt lat="44.8517283" lon="7.985085"><ele>264.0</ele><time>2026-04-05T10:52:53.846Z</time></trkpt><trkpt lat="44.8517883" lon="7.9850233"><ele>264.0</ele><time>2026-04-05T10:52:55.845Z</time></trkpt><trkpt lat="44.8518067" lon="7.9849067"><ele>264.0</ele><time>2026-04-05T10:52:58.846Z</time></trkpt><trkpt lat="44.8517517" lon="7.9847517"><ele>263.0</ele><time>2026-04-05T10:53:00.846Z</time></trkpt><trkpt lat="44.851715" lon="7.9846483"><ele>262.0</ele><time>2026-04-05T10:53:01.846Z</time></trkpt><trkpt lat="44.85168" lon="7.98454"><ele>261.0</ele><time>2026-04-05T10:53:02.845Z</time></trkpt><trkpt lat="44.8516433" lon="7.9844217"><ele>260.0</ele><time>2026-04-05T10:53:03.846Z</time></trkpt><trkpt lat="44.8516067" lon="7.9843067"><ele>259.0</ele><time>2026-04-05T10:53:04.846Z</time></trkpt><trkpt lat="44.8515733" lon="7.9841983"><ele>258.0</ele><time>2026-04-05T10:53:05.846Z</time></trkpt><trkpt lat="44.8515433" lon="7.9840867"><ele>258.0</ele><time>2026-04-05T10:53:06.846Z</time></trkpt><trkpt lat="44.8515117" lon="7.983975"><ele>258.0</ele><time>2026-04-05T10:53:07.846Z</time></trkpt><trkpt lat="44.8514767" lon="7.9838683"><ele>258.0</ele><time>2026-04-05T10:53:08.846Z</time></trkpt><trkpt lat="44.851435" lon="7.9837567"><ele>258.0</ele><time>2026-04-05T10:53:09.846Z</time></trkpt><trkpt lat="44.8513883" lon="7.9836433"><ele>258.0</ele><time>2026-04-05T10:53:10.846Z</time></trkpt><trkpt lat="44.8513567" lon="7.9835217"><ele>258.0</ele><time>2026-04-05T10:53:11.845Z</time></trkpt><trkpt lat="44.85131" lon="7.9834"><ele>257.6666666666667</ele><time>2026-04-05T10:53:12.846Z</time></trkpt><trkpt lat="44.8512583" lon="7.9832967"><ele>257.3333333333333</ele><time>2026-04-05T10:53:13.846Z</time></trkpt><trkpt lat="44.85122" lon="7.9831883"><ele>257.0</ele><time>2026-04-05T10:53:14.845Z</time></trkpt><trkpt lat="44.8511883" lon="7.9830783"><ele>256.66666666666663</ele><time>2026-04-05T10:53:15.846Z</time></trkpt><trkpt lat="44.8511683" lon="7.9829483"><ele>256.3333333333333</ele><time>2026-04-05T10:53:16.846Z</time></trkpt><trkpt lat="44.8511583" lon="7.9828217"><ele>256.0</ele><time>2026-04-05T10:53:17.846Z</time></trkpt><trkpt lat="44.85115" lon="7.9826983"><ele>256.0</ele><time>2026-04-05T10:53:18.845Z</time></trkpt><trkpt lat="44.8511467" lon="7.982575"><ele>256.0</ele><time>2026-04-05T10:53:19.845Z</time></trkpt><trkpt lat="44.8511433" lon="7.9824467"><ele>256.0</ele><time>2026-04-05T10:53:20.846Z</time></trkpt><trkpt lat="44.8511317" lon="7.98232"><ele>256.0</ele><time>2026-04-05T10:53:21.846Z</time></trkpt><trkpt lat="44.851095" lon="7.9822117"><ele>256.0</ele><time>2026-04-05T10:53:22.846Z</time></trkpt><trkpt lat="44.851045" lon="7.9820933"><ele>255.60000000000002</ele><time>2026-04-05T10:53:23.846Z</time></trkpt><trkpt lat="44.8509967" lon="7.98198"><ele>255.20000000000002</ele><time>2026-04-05T10:53:24.846Z</time></trkpt><trkpt lat="44.8509567" lon="7.98186"><ele>254.79999999999998</ele><time>2026-04-05T10:53:25.845Z</time></trkpt><trkpt lat="44.850915" lon="7.98174"><ele>254.39999999999998</ele><time>2026-04-05T10:53:26.846Z</time></trkpt><trkpt lat="44.85087" lon="7.9816183"><ele>254.0</ele><time>2026-04-05T10:53:27.846Z</time></trkpt><trkpt lat="44.8508217" lon="7.9815033"><ele>255.2</ele><time>2026-04-05T10:53:28.846Z</time></trkpt><trkpt lat="44.8507733" lon="7.981385"><ele>256.4</ele><time>2026-04-05T10:53:29.846Z</time></trkpt><trkpt lat="44.850715" lon="7.9812783"><ele>257.6</ele><time>2026-04-05T10:53:30.846Z</time></trkpt><trkpt lat="44.8506583" lon="7.981185"><ele>258.8</ele><time>2026-04-05T10:53:31.846Z</time></trkpt><trkpt lat="44.8506" lon="7.9810867"><ele>260.0</ele><time>2026-04-05T10:53:32.846Z</time></trkpt><trkpt lat="44.8505283" lon="7.981005"><ele>260.0</ele><time>2026-04-05T10:53:33.846Z</time></trkpt><trkpt lat="44.8504517" lon="7.9809267"><ele>260.0</ele><time>2026-04-05T10:53:34.846Z</time></trkpt><trkpt lat="44.8503667" lon="7.9808467"><ele>260.0</ele><time>2026-04-05T10:53:35.846Z</time></trkpt><trkpt lat="44.8502767" lon="7.9807767"><ele>260.0</ele><time>2026-04-05T10:53:36.846Z</time></trkpt><trkpt lat="44.85018" lon="7.9807117"><ele>260.0</ele><time>2026-04-05T10:53:37.846Z</time></trkpt><trkpt lat="44.8500817" lon="7.9806567"><ele>260.8</ele><time>2026-04-05T10:53:38.846Z</time></trkpt><trkpt lat="44.8499867" lon="7.9806033"><ele>261.6</ele><time>2026-04-05T10:53:39.846Z</time></trkpt><trkpt lat="44.8498933" lon="7.9805467"><ele>262.4</ele><time>2026-04-05T10:53:40.845Z</time></trkpt><trkpt lat="44.8498" lon="7.9804933"><ele>263.2</ele><time>2026-04-05T10:53:41.845Z</time></trkpt><trkpt lat="44.8497083" lon="7.980435"><ele>264.0</ele><time>2026-04-05T10:53:42.845Z</time></trkpt><trkpt lat="44.84961" lon="7.9803717"><ele>264.0</ele><time>2026-04-05T10:53:43.846Z</time></trkpt><trkpt lat="44.8495217" lon="7.9803017"><ele>264.0</ele><time>2026-04-05T10:53:44.846Z</time></trkpt><trkpt lat="44.8494283" lon="7.9802433"><ele>264.0</ele><time>2026-04-05T10:53:45.846Z</time></trkpt><trkpt lat="44.8493417" lon="7.98017"><ele>264.0</ele><time>2026-04-05T10:53:46.846Z</time></trkpt><trkpt lat="44.8492533" lon="7.9801"><ele>264.0</ele><time>2026-04-05T10:53:47.846Z</time></trkpt><trkpt lat="44.849165" lon="7.9800333"><ele>264.2</ele><time>2026-04-05T10:53:48.846Z</time></trkpt><trkpt lat="44.849075" lon="7.979975"><ele>264.4</ele><time>2026-04-05T10:53:49.846Z</time></trkpt><trkpt lat="44.84898" lon="7.9799233"><ele>264.6</ele><time>2026-04-05T10:53:50.845Z</time></trkpt><trkpt lat="44.848895" lon="7.9798633"><ele>264.8</ele><time>2026-04-05T10:53:51.846Z</time></trkpt><trkpt lat="44.848805" lon="7.9798133"><ele>265.0</ele><time>2026-04-05T10:53:52.846Z</time></trkpt><trkpt lat="44.8487217" lon="7.9797633"><ele>265.0</ele><time>2026-04-05T10:53:53.846Z</time></trkpt><trkpt lat="44.848645" lon="7.9797"><ele>265.0</ele><time>2026-04-05T10:53:54.846Z</time></trkpt><trkpt lat="44.8485767" lon="7.9796333"><ele>265.0</ele><time>2026-04-05T10:53:55.845Z</time></trkpt><trkpt lat="44.848505" lon="7.9795767"><ele>265.0</ele><time>2026-04-05T10:53:56.846Z</time></trkpt><trkpt lat="44.84844" lon="7.9795283"><ele>265.0</ele><time>2026-04-05T10:53:57.846Z</time></trkpt><trkpt lat="44.8483667" lon="7.97949"><ele>265.0</ele><time>2026-04-05T10:53:58.846Z</time></trkpt><trkpt lat="44.84829" lon="7.9794633"><ele>265.66666666666663</ele><time>2026-04-05T10:53:59.846Z</time></trkpt><trkpt lat="44.848205" lon="7.9794417"><ele>266.3333333333333</ele><time>2026-04-05T10:54:00.846Z</time></trkpt><trkpt lat="44.8481217" lon="7.9794267"><ele>267.0</ele><time>2026-04-05T10:54:01.846Z</time></trkpt><trkpt lat="44.848035" lon="7.9794083"><ele>267.6666666666667</ele><time>2026-04-05T10:54:02.846Z</time></trkpt><trkpt lat="44.8479467" lon="7.9794017"><ele>268.33333333333337</ele><time>2026-04-05T10:54:03.846Z</time></trkpt><trkpt lat="44.8478633" lon="7.9793983"><ele>269.0</ele><time>2026-04-05T10:54:04.846Z</time></trkpt><trkpt lat="44.847765" lon="7.9794033"><ele>269.0</ele><time>2026-04-05T10:54:05.846Z</time></trkpt><trkpt lat="44.8476617" lon="7.979415"><ele>269.0</ele><time>2026-04-05T10:54:06.846Z</time></trkpt><trkpt lat="44.8475633" lon="7.9794383"><ele>269.0</ele><time>2026-04-05T10:54:07.846Z</time></trkpt><trkpt lat="44.8474633" lon="7.9794633"><ele>269.0</ele><time>2026-04-05T10:54:08.845Z</time></trkpt><trkpt lat="44.8473617" lon="7.9794867"><ele>269.0</ele><time>2026-04-05T10:54:09.846Z</time></trkpt><trkpt lat="44.84726" lon="7.9795133"><ele>269.8</ele><time>2026-04-05T10:54:10.846Z</time></trkpt><trkpt lat="44.84716" lon="7.9795483"><ele>270.59999999999997</ele><time>2026-04-05T10:54:11.846Z</time></trkpt><trkpt lat="44.8470717" lon="7.9795667"><ele>271.4</ele><time>2026-04-05T10:54:12.846Z</time></trkpt><trkpt lat="44.8469817" lon="7.9795833"><ele>272.2</ele><time>2026-04-05T10:54:13.846Z</time></trkpt><trkpt lat="44.8468967" lon="7.979595"><ele>273.0</ele><time>2026-04-05T10:54:14.846Z</time></trkpt><trkpt lat="44.8468067" lon="7.9796067"><ele>272.6666666666667</ele><time>2026-04-05T10:54:15.846Z</time></trkpt><trkpt lat="44.8467283" lon="7.9796117"><ele>272.3333333333333</ele><time>2026-04-05T10:54:16.846Z</time></trkpt><trkpt lat="44.846655" lon="7.9796167"><ele>272.0</ele><time>2026-04-05T10:54:17.846Z</time></trkpt><trkpt lat="44.84658" lon="7.9796183"><ele>271.66666666666663</ele><time>2026-04-05T10:54:18.845Z</time></trkpt><trkpt lat="44.846495" lon="7.979625"><ele>271.3333333333333</ele><time>2026-04-05T10:54:19.846Z</time></trkpt><trkpt lat="44.846425" lon="7.9796317"><ele>271.0</ele><time>2026-04-05T10:54:20.846Z</time></trkpt><trkpt lat="44.84635" lon="7.97965"><ele>271.0</ele><time>2026-04-05T10:54:21.846Z</time></trkpt><trkpt lat="44.8462317" lon="7.9796817"><ele>271.0</ele><time>2026-04-05T10:54:23.846Z</time></trkpt><trkpt lat="44.8461633" lon="7.979695"><ele>271.0</ele><time>2026-04-05T10:54:24.845Z</time></trkpt><trkpt lat="44.8460967" lon="7.9796983"><ele>271.0</ele><time>2026-04-05T10:54:25.845Z</time></trkpt><trkpt lat="44.84603" lon="7.9796967"><ele>271.0</ele><time>2026-04-05T10:54:26.846Z</time></trkpt><trkpt lat="44.84596" lon="7.9796933"><ele>271.0</ele><time>2026-04-05T10:54:27.846Z</time></trkpt><trkpt lat="44.8458283" lon="7.9796983"><ele>271.3333333333333</ele><time>2026-04-05T10:54:29.846Z</time></trkpt><trkpt lat="44.8457483" lon="7.97971"><ele>271.66666666666663</ele><time>2026-04-05T10:54:30.846Z</time></trkpt><trkpt lat="44.8456667" lon="7.979725"><ele>272.0</ele><time>2026-04-05T10:54:31.846Z</time></trkpt><trkpt lat="44.8455917" lon="7.979745"><ele>272.3333333333333</ele><time>2026-04-05T10:54:32.846Z</time></trkpt><trkpt lat="44.8455183" lon="7.9797633"><ele>272.6666666666667</ele><time>2026-04-05T10:54:33.846Z</time></trkpt><trkpt lat="44.8454417" lon="7.97978"><ele>273.0</ele><time>2026-04-05T10:54:34.845Z</time></trkpt><trkpt lat="44.8453683" lon="7.9797967"><ele>273.0</ele><time>2026-04-05T10:54:35.846Z</time></trkpt><trkpt lat="44.845295" lon="7.97981"><ele>273.0</ele><time>2026-04-05T10:54:36.846Z</time></trkpt><trkpt lat="44.8452183" lon="7.97982"><ele>273.0</ele><time>2026-04-05T10:54:37.846Z</time></trkpt><trkpt lat="44.8451433" lon="7.9798367"><ele>273.0</ele><time>2026-04-05T10:54:38.846Z</time></trkpt><trkpt lat="44.8450617" lon="7.9798583"><ele>273.0</ele><time>2026-04-05T10:54:39.846Z</time></trkpt><trkpt lat="44.8449817" lon="7.97988"><ele>273.0</ele><time>2026-04-05T10:54:40.846Z</time></trkpt><trkpt lat="44.8449083" lon="7.9798933"><ele>272.8333333333333</ele><time>2026-04-05T10:54:41.846Z</time></trkpt><trkpt lat="44.8448267" lon="7.9799033"><ele>272.6666666666667</ele><time>2026-04-05T10:54:42.846Z</time></trkpt><trkpt lat="44.8447517" lon="7.9799033"><ele>272.5</ele><time>2026-04-05T10:54:43.846Z</time></trkpt><trkpt lat="44.84467" lon="7.9799017"><ele>272.33333333333337</ele><time>2026-04-05T10:54:44.846Z</time></trkpt><trkpt lat="44.8445933" lon="7.9798917"><ele>272.1666666666667</ele><time>2026-04-05T10:54:45.846Z</time></trkpt><trkpt lat="44.8445217" lon="7.9798833"><ele>272.0</ele><time>2026-04-05T10:54:46.846Z</time></trkpt><trkpt lat="44.8444417" lon="7.9798817"><ele>272.0</ele><time>2026-04-05T10:54:47.846Z</time></trkpt><trkpt lat="44.844355" lon="7.9798833"><ele>272.0</ele><time>2026-04-05T10:54:48.846Z</time></trkpt><trkpt lat="44.8442767" lon="7.979885"><ele>272.0</ele><time>2026-04-05T10:54:49.846Z</time></trkpt><trkpt lat="44.84419" lon="7.9798783"><ele>272.0</ele><time>2026-04-05T10:54:50.846Z</time></trkpt><trkpt lat="44.8441033" lon="7.9798683"><ele>272.0</ele><time>2026-04-05T10:54:51.846Z</time></trkpt><trkpt lat="44.8440267" lon="7.97987"><ele>272.0</ele><time>2026-04-05T10:54:52.846Z</time></trkpt><trkpt lat="44.84396" lon="7.9798783"><ele>272.0</ele><time>2026-04-05T10:54:53.845Z</time></trkpt><trkpt lat="44.8438917" lon="7.9798883"><ele>272.0</ele><time>2026-04-05T10:54:54.846Z</time></trkpt><trkpt lat="44.8438183" lon="7.979895"><ele>272.0</ele><time>2026-04-05T10:54:55.845Z</time></trkpt><trkpt lat="44.84374" lon="7.9798983"><ele>272.0</ele><time>2026-04-05T10:54:56.846Z</time></trkpt><trkpt lat="44.8436617" lon="7.9799017"><ele>272.0</ele><time>2026-04-05T10:54:57.846Z</time></trkpt><trkpt lat="44.8435833" lon="7.9798983"><ele>272.0</ele><time>2026-04-05T10:54:58.846Z</time></trkpt><trkpt lat="44.8435" lon="7.9799017"><ele>272.33333333333337</ele><time>2026-04-05T10:54:59.846Z</time></trkpt><trkpt lat="44.843415" lon="7.9799033"><ele>272.6666666666667</ele><time>2026-04-05T10:55:00.846Z</time></trkpt><trkpt lat="44.843335" lon="7.9799117"><ele>273.0</ele><time>2026-04-05T10:55:01.846Z</time></trkpt><trkpt lat="44.8432633" lon="7.97992"><ele>273.3333333333333</ele><time>2026-04-05T10:55:02.846Z</time></trkpt><trkpt lat="44.8431833" lon="7.9799533"><ele>273.66666666666663</ele><time>2026-04-05T10:55:03.846Z</time></trkpt><trkpt lat="44.8431217" lon="7.9799783"><ele>274.0</ele><time>2026-04-05T10:55:04.846Z</time></trkpt><trkpt lat="44.843055" lon="7.980015"><ele>275.16666666666663</ele><time>2026-04-05T10:55:05.846Z</time></trkpt><trkpt lat="44.8429833" lon="7.9800367"><ele>276.3333333333333</ele><time>2026-04-05T10:55:06.846Z</time></trkpt><trkpt lat="44.8429133" lon="7.980045"><ele>277.5</ele><time>2026-04-05T10:55:07.846Z</time></trkpt><trkpt lat="44.8428367" lon="7.9800483"><ele>278.6666666666667</ele><time>2026-04-05T10:55:08.846Z</time></trkpt><trkpt lat="44.842765" lon="7.9800467"><ele>279.83333333333337</ele><time>2026-04-05T10:55:09.846Z</time></trkpt><trkpt lat="44.8426867" lon="7.9800367"><ele>281.0</ele><time>2026-04-05T10:55:10.846Z</time></trkpt><trkpt lat="44.8426067" lon="7.9800367"><ele>282.6666666666667</ele><time>2026-04-05T10:55:11.846Z</time></trkpt><trkpt lat="44.8425317" lon="7.98004"><ele>284.33333333333337</ele><time>2026-04-05T10:55:12.845Z</time></trkpt><trkpt lat="44.8424517" lon="7.9800333"><ele>286.0</ele><time>2026-04-05T10:55:13.845Z</time></trkpt><trkpt lat="44.8423767" lon="7.9800283"><ele>287.6666666666667</ele><time>2026-04-05T10:55:14.846Z</time></trkpt><trkpt lat="44.8422917" lon="7.9800283"><ele>289.3333333333333</ele><time>2026-04-05T10:55:15.846Z</time></trkpt><trkpt lat="44.8422183" lon="7.9800233"><ele>291.0</ele><time>2026-04-05T10:55:16.846Z</time></trkpt><trkpt lat="44.8421333" lon="7.9800233"><ele>291.0</ele><time>2026-04-05T10:55:17.846Z</time></trkpt><trkpt lat="44.842055" lon="7.98003"><ele>291.0</ele><time>2026-04-05T10:55:18.845Z</time></trkpt><trkpt lat="44.841975" lon="7.980035"><ele>291.0</ele><time>2026-04-05T10:55:19.845Z</time></trkpt><trkpt lat="44.8418933" lon="7.9800433"><ele>291.0</ele><time>2026-04-05T10:55:20.846Z</time></trkpt><trkpt lat="44.841815" lon="7.9800533"><ele>291.0</ele><time>2026-04-05T10:55:21.846Z</time></trkpt><trkpt lat="44.84174" lon="7.98007"><ele>291.0</ele><time>2026-04-05T10:55:22.846Z</time></trkpt><trkpt lat="44.8416667" lon="7.9800967"><ele>289.8</ele><time>2026-04-05T10:55:23.846Z</time></trkpt><trkpt lat="44.84156" lon="7.980135"><ele>288.6</ele><time>2026-04-05T10:55:25.846Z</time></trkpt><trkpt lat="44.8414767" lon="7.9801683"><ele>287.4</ele><time>2026-04-05T10:55:27.846Z</time></trkpt><trkpt lat="44.84141" lon="7.98022"><ele>286.2</ele><time>2026-04-05T10:55:30.845Z</time></trkpt><trkpt lat="44.8413283" lon="7.98029"><ele>285.0</ele><time>2026-04-05T10:55:33.846Z</time></trkpt><trkpt lat="44.8412483" lon="7.9803467"><ele>285.0</ele><time>2026-04-05T10:55:35.845Z</time></trkpt><trkpt lat="44.8411367" lon="7.9803967"><ele>285.0</ele><time>2026-04-05T10:55:37.846Z</time></trkpt><trkpt lat="44.8410567" lon="7.98042"><ele>285.0</ele><time>2026-04-05T10:55:38.846Z</time></trkpt><trkpt lat="44.8409833" lon="7.9804433"><ele>285.0</ele><time>2026-04-05T10:55:39.845Z</time></trkpt><trkpt lat="44.8409083" lon="7.980475"><ele>285.0</ele><time>2026-04-05T10:55:40.846Z</time></trkpt><trkpt lat="44.840845" lon="7.9805117"><ele>285.0</ele><time>2026-04-05T10:55:41.846Z</time></trkpt><trkpt lat="44.8407767" lon="7.980535"><ele>285.8333333333333</ele><time>2026-04-05T10:55:42.846Z</time></trkpt><trkpt lat="44.8407017" lon="7.9805633"><ele>286.6666666666667</ele><time>2026-04-05T10:55:43.846Z</time></trkpt><trkpt lat="44.8406283" lon="7.9805733"><ele>287.5</ele><time>2026-04-05T10:55:44.846Z</time></trkpt><trkpt lat="44.8405417" lon="7.9805667"><ele>288.33333333333337</ele><time>2026-04-05T10:55:45.845Z</time></trkpt><trkpt lat="44.8404483" lon="7.9805583"><ele>289.1666666666667</ele><time>2026-04-05T10:55:46.846Z</time></trkpt><trkpt lat="44.8403683" lon="7.9805383"><ele>290.0</ele><time>2026-04-05T10:55:47.846Z</time></trkpt><trkpt lat="44.8402917" lon="7.980525"><ele>290.0</ele><time>2026-04-05T10:55:48.846Z</time></trkpt><trkpt lat="44.8402167" lon="7.9805133"><ele>290.0</ele><time>2026-04-05T10:55:49.846Z</time></trkpt><trkpt lat="44.8401533" lon="7.9805067"><ele>290.0</ele><time>2026-04-05T10:55:50.846Z</time></trkpt><trkpt lat="44.8400883" lon="7.9804933"><ele>290.0</ele><time>2026-04-05T10:55:51.846Z</time></trkpt><trkpt lat="44.8400233" lon="7.9804917"><ele>290.0</ele><time>2026-04-05T10:55:52.846Z</time></trkpt><trkpt lat="44.8399533" lon="7.9805033"><ele>290.0</ele><time>2026-04-05T10:55:53.845Z</time></trkpt><trkpt lat="44.839885" lon="7.9805133"><ele>290.0</ele><time>2026-04-05T10:55:54.846Z</time></trkpt><trkpt lat="44.83981" lon="7.980535"><ele>290.14285714285717</ele><time>2026-04-05T10:55:55.846Z</time></trkpt><trkpt lat="44.839735" lon="7.9805583"><ele>290.28571428571433</ele><time>2026-04-05T10:55:56.846Z</time></trkpt><trkpt lat="44.839665" lon="7.98058"><ele>290.42857142857144</ele><time>2026-04-05T10:55:57.846Z</time></trkpt><trkpt lat="44.8395933" lon="7.98061"><ele>290.57142857142856</ele><time>2026-04-05T10:55:58.846Z</time></trkpt><trkpt lat="44.8395283" lon="7.98064"><ele>290.71428571428567</ele><time>2026-04-05T10:55:59.846Z</time></trkpt><trkpt lat="44.83946" lon="7.98067"><ele>290.85714285714283</ele><time>2026-04-05T10:56:00.846Z</time></trkpt><trkpt lat="44.8393933" lon="7.98069"><ele>291.0</ele><time>2026-04-05T10:56:01.845Z</time></trkpt><trkpt lat="44.83928" lon="7.9807283"><ele>291.3333333333333</ele><time>2026-04-05T10:56:03.845Z</time></trkpt><trkpt lat="44.8392167" lon="7.9807483"><ele>291.6666666666667</ele><time>2026-04-05T10:56:04.845Z</time></trkpt><trkpt lat="44.8391417" lon="7.9807583"><ele>292.0</ele><time>2026-04-05T10:56:05.846Z</time></trkpt><trkpt lat="44.839075" lon="7.9807517"><ele>292.33333333333337</ele><time>2026-04-05T10:56:06.846Z</time></trkpt><trkpt lat="44.8389983" lon="7.980765"><ele>292.6666666666667</ele><time>2026-04-05T10:56:07.846Z</time></trkpt><trkpt lat="44.8389" lon="7.9808"><ele>293.0</ele><time>2026-04-05T10:56:09.846Z</time></trkpt><trkpt lat="44.838775" lon="7.9807783"><ele>293.0</ele><time>2026-04-05T10:56:16.846Z</time></trkpt><trkpt lat="44.8386667" lon="7.9806867"><ele>293.0</ele><time>2026-04-05T10:56:18.846Z</time></trkpt><trkpt lat="44.83861" lon="7.9806233"><ele>293.0</ele><time>2026-04-05T10:56:19.846Z</time></trkpt><trkpt lat="44.8385517" lon="7.9805633"><ele>293.0</ele><time>2026-04-05T10:56:20.845Z</time></trkpt><trkpt lat="44.83849" lon="7.9805167"><ele>293.0</ele><time>2026-04-05T10:56:21.846Z</time></trkpt><trkpt lat="44.83844" lon="7.9804583"><ele>293.0</ele><time>2026-04-05T10:56:22.846Z</time></trkpt><trkpt lat="44.8383517" lon="7.9803417"><ele>294.4</ele><time>2026-04-05T10:56:24.846Z</time></trkpt><trkpt lat="44.8382817" lon="7.9802133"><ele>295.8</ele><time>2026-04-05T10:56:26.845Z</time></trkpt><trkpt lat="44.8381833" lon="7.9801"><ele>297.2</ele><time>2026-04-05T10:56:28.846Z</time></trkpt><trkpt lat="44.8381167" lon="7.9800433"><ele>298.6</ele><time>2026-04-05T10:56:29.845Z</time></trkpt><trkpt lat="44.8380567" lon="7.9799983"><ele>300.0</ele><time>2026-04-05T10:56:30.846Z</time></trkpt><trkpt lat="44.837995" lon="7.9799517"><ele>300.0</ele><time>2026-04-05T10:56:31.846Z</time></trkpt><trkpt lat="44.83787" lon="7.9798867"><ele>300.0</ele><time>2026-04-05T10:56:33.846Z</time></trkpt><trkpt lat="44.8377917" lon="7.979885"><ele>300.0</ele><time>2026-04-05T10:56:34.846Z</time></trkpt><trkpt lat="44.8377117" lon="7.97989"><ele>300.0</ele><time>2026-04-05T10:56:35.845Z</time></trkpt><trkpt lat="44.8376433" lon="7.9798933"><ele>300.0</ele><time>2026-04-05T10:56:36.846Z</time></trkpt><trkpt lat="44.8375217" lon="7.9799083"><ele>300.2</ele><time>2026-04-05T10:56:38.846Z</time></trkpt><trkpt lat="44.8374483" lon="7.979945"><ele>300.4</ele><time>2026-04-05T10:56:39.846Z</time></trkpt><trkpt lat="44.8373883" lon="7.97998"><ele>300.6</ele><time>2026-04-05T10:56:40.846Z</time></trkpt><trkpt lat="44.8372817" lon="7.9800183"><ele>300.8</ele><time>2026-04-05T10:56:42.845Z</time></trkpt><trkpt lat="44.8372" lon="7.979985"><ele>301.0</ele><time>2026-04-05T10:56:44.846Z</time></trkpt><trkpt lat="44.83708" lon="7.9799717"><ele>301.0</ele><time>2026-04-05T10:56:46.846Z</time></trkpt><trkpt lat="44.8369967" lon="7.9799767"><ele>301.0</ele><time>2026-04-05T10:56:47.845Z</time></trkpt><trkpt lat="44.8368983" lon="7.9799933"><ele>301.0</ele><time>2026-04-05T10:56:48.846Z</time></trkpt><trkpt lat="44.8368183" lon="7.9800067"><ele>301.0</ele><time>2026-04-05T10:56:49.846Z</time></trkpt><trkpt lat="44.83674" lon="7.9800167"><ele>301.0</ele><time>2026-04-05T10:56:50.846Z</time></trkpt><trkpt lat="44.8366683" lon="7.9800233"><ele>301.0</ele><time>2026-04-05T10:56:51.846Z</time></trkpt><trkpt lat="44.8366033" lon="7.98003"><ele>305.0</ele><time>2026-04-05T10:56:52.846Z</time></trkpt><trkpt lat="44.8364833" lon="7.9800417"><ele>309.0</ele><time>2026-04-05T10:56:54.846Z</time></trkpt><trkpt lat="44.83642" lon="7.9800433"><ele>313.0</ele><time>2026-04-05T10:56:55.846Z</time></trkpt><trkpt lat="44.8363367" lon="7.9800267"><ele>317.0</ele><time>2026-04-05T10:56:56.846Z</time></trkpt><trkpt lat="44.8362733" lon="7.9800233"><ele>321.0</ele><time>2026-04-05T10:56:57.846Z</time></trkpt><trkpt lat="44.836135" lon="7.980055"><ele>321.0</ele><time>2026-04-05T10:56:59.846Z</time></trkpt><trkpt lat="44.8360517" lon="7.9800733"><ele>321.0</ele><time>2026-04-05T10:57:00.846Z</time></trkpt><trkpt lat="44.8359683" lon="7.9800983"><ele>321.0</ele><time>2026-04-05T10:57:01.846Z</time></trkpt><trkpt lat="44.83589" lon="7.98012"><ele>321.0</ele><time>2026-04-05T10:57:02.846Z</time></trkpt><trkpt lat="44.8357983" lon="7.9801417"><ele>321.0</ele><time>2026-04-05T10:57:03.846Z</time></trkpt><trkpt lat="44.8357317" lon="7.98015"><ele>321.0</ele><time>2026-04-05T10:57:04.846Z</time></trkpt><trkpt lat="44.835665" lon="7.980165"><ele>320.8333333333333</ele><time>2026-04-05T10:57:05.846Z</time></trkpt><trkpt lat="44.8355783" lon="7.980195"><ele>320.6666666666667</ele><time>2026-04-05T10:57:07.846Z</time></trkpt><trkpt lat="44.8354967" lon="7.9802167"><ele>320.5</ele><time>2026-04-05T10:57:09.845Z</time></trkpt><trkpt lat="44.8354167" lon="7.98027"><ele>320.33333333333337</ele><time>2026-04-05T10:57:11.846Z</time></trkpt><trkpt lat="44.8353433" lon="7.9803533"><ele>320.1666666666667</ele><time>2026-04-05T10:57:13.846Z</time></trkpt><trkpt lat="44.8352533" lon="7.98039"><ele>320.0</ele><time>2026-04-05T10:57:15.846Z</time></trkpt><trkpt lat="44.8351483" lon="7.980365"><ele>319.5</ele><time>2026-04-05T10:57:17.846Z</time></trkpt><trkpt lat="44.8350733" lon="7.98034"><ele>319.0</ele><time>2026-04-05T10:57:18.846Z</time></trkpt><trkpt lat="44.8349983" lon="7.9803033"><ele>318.5</ele><time>2026-04-05T10:57:19.846Z</time></trkpt><trkpt lat="44.834925" lon="7.9802667"><ele>318.0</ele><time>2026-04-05T10:57:20.846Z</time></trkpt><trkpt lat="44.834855" lon="7.9802367"><ele>317.5</ele><time>2026-04-05T10:57:21.846Z</time></trkpt><trkpt lat="44.8347867" lon="7.98021"><ele>317.0</ele><time>2026-04-05T10:57:22.845Z</time></trkpt><trkpt lat="44.8347117" lon="7.9801933"><ele>317.0</ele><time>2026-04-05T10:57:23.846Z</time></trkpt><trkpt lat="44.834635" lon="7.9801667"><ele>317.0</ele><time>2026-04-05T10:57:24.846Z</time></trkpt><trkpt lat="44.834555" lon="7.98014"><ele>317.0</ele><time>2026-04-05T10:57:25.846Z</time></trkpt><trkpt lat="44.834475" lon="7.9801117"><ele>317.0</ele><time>2026-04-05T10:57:26.846Z</time></trkpt><trkpt lat="44.8344033" lon="7.9800833"><ele>317.0</ele><time>2026-04-05T10:57:27.845Z</time></trkpt><trkpt lat="44.8343283" lon="7.9800583"><ele>317.0</ele><time>2026-04-05T10:57:28.846Z</time></trkpt><trkpt lat="44.8342517" lon="7.9800283"><ele>316.2</ele><time>2026-04-05T10:57:29.846Z</time></trkpt><trkpt lat="44.8341783" lon="7.979975"><ele>315.4</ele><time>2026-04-05T10:57:30.845Z</time></trkpt><trkpt lat="44.834115" lon="7.9799167"><ele>314.6</ele><time>2026-04-05T10:57:31.846Z</time></trkpt><trkpt lat="44.834055" lon="7.9798583"><ele>313.8</ele><time>2026-04-05T10:57:32.846Z</time></trkpt><trkpt lat="44.8339583" lon="7.9797567"><ele>313.0</ele><time>2026-04-05T10:57:34.846Z</time></trkpt><trkpt lat="44.833845" lon="7.9797083"><ele>313.0</ele><time>2026-04-05T10:57:36.846Z</time></trkpt><trkpt lat="44.83378" lon="7.9797"><ele>313.0</ele><time>2026-04-05T10:57:37.845Z</time></trkpt><trkpt lat="44.8337133" lon="7.97968"><ele>313.0</ele><time>2026-04-05T10:57:38.846Z</time></trkpt><trkpt lat="44.83359" lon="7.9796433"><ele>313.0</ele><time>2026-04-05T10:57:40.845Z</time></trkpt><trkpt lat="44.8335217" lon="7.9796433"><ele>313.0</ele><time>2026-04-05T10:57:41.846Z</time></trkpt><trkpt lat="44.8334517" lon="7.9796533"><ele>313.0</ele><time>2026-04-05T10:57:42.846Z</time></trkpt><trkpt lat="44.8333817" lon="7.9796617"><ele>313.8333333333333</ele><time>2026-04-05T10:57:43.846Z</time></trkpt><trkpt lat="44.8332983" lon="7.979665"><ele>314.66666666666663</ele><time>2026-04-05T10:57:44.846Z</time></trkpt><trkpt lat="44.8332283" lon="7.9796533"><ele>315.5</ele><time>2026-04-05T10:57:45.846Z</time></trkpt><trkpt lat="44.8331583" lon="7.9796317"><ele>316.3333333333333</ele><time>2026-04-05T10:57:46.846Z</time></trkpt><trkpt lat="44.8330767" lon="7.979595"><ele>317.1666666666667</ele><time>2026-04-05T10:57:47.846Z</time></trkpt><trkpt lat="44.8329933" lon="7.97956"><ele>318.0</ele><time>2026-04-05T10:57:48.846Z</time></trkpt><trkpt lat="44.832915" lon="7.97952"><ele>318.0</ele><time>2026-04-05T10:57:49.846Z</time></trkpt><trkpt lat="44.8328433" lon="7.9794883"><ele>318.0</ele><time>2026-04-05T10:57:50.845Z</time></trkpt><trkpt lat="44.83278" lon="7.9794833"><ele>318.0</ele><time>2026-04-05T10:57:51.846Z</time></trkpt><trkpt lat="44.832705" lon="7.9794683"><ele>318.0</ele><time>2026-04-05T10:57:52.846Z</time></trkpt><trkpt lat="44.83263" lon="7.9794467"><ele>318.0</ele><time>2026-04-05T10:57:53.846Z</time></trkpt><trkpt lat="44.8325567" lon="7.9794283"><ele>318.0</ele><time>2026-04-05T10:57:54.846Z</time></trkpt><trkpt lat="44.832485" lon="7.9794167"><ele>318.0</ele><time>2026-04-05T10:57:55.845Z</time></trkpt><trkpt lat="44.8324083" lon="7.9794083"><ele>319.5</ele><time>2026-04-05T10:57:56.846Z</time></trkpt><trkpt lat="44.832305" lon="7.9794117"><ele>321.0</ele><time>2026-04-05T10:57:57.846Z</time></trkpt><trkpt lat="44.8322233" lon="7.97942"><ele>322.5</ele><time>2026-04-05T10:57:58.846Z</time></trkpt><trkpt lat="44.8321333" lon="7.9794167"><ele>324.0</ele><time>2026-04-05T10:57:59.846Z</time></trkpt><trkpt lat="44.8320533" lon="7.9794117"><ele>325.5</ele><time>2026-04-05T10:58:00.846Z</time></trkpt><trkpt lat="44.83197" lon="7.9794233"><ele>327.0</ele><time>2026-04-05T10:58:01.845Z</time></trkpt><trkpt lat="44.8319017" lon="7.9794167"><ele>327.0</ele><time>2026-04-05T10:58:02.846Z</time></trkpt><trkpt lat="44.8318383" lon="7.9793867"><ele>327.0</ele><time>2026-04-05T10:58:03.845Z</time></trkpt><trkpt lat="44.83178" lon="7.9793433"><ele>327.0</ele><time>2026-04-05T10:58:04.846Z</time></trkpt><trkpt lat="44.831665" lon="7.979245"><ele>327.0</ele><time>2026-04-05T10:58:06.846Z</time></trkpt><trkpt lat="44.8315867" lon="7.9792133"><ele>327.0</ele><time>2026-04-05T10:58:07.846Z</time></trkpt><trkpt lat="44.8315067" lon="7.9791967"><ele>327.0</ele><time>2026-04-05T10:58:08.846Z</time></trkpt><trkpt lat="44.831425" lon="7.9791783"><ele>326.1666666666667</ele><time>2026-04-05T10:58:09.846Z</time></trkpt><trkpt lat="44.8313483" lon="7.9791483"><ele>325.3333333333333</ele><time>2026-04-05T10:58:10.846Z</time></trkpt><trkpt lat="44.831275" lon="7.979135"><ele>324.5</ele><time>2026-04-05T10:58:11.846Z</time></trkpt><trkpt lat="44.8311967" lon="7.97912"><ele>323.66666666666663</ele><time>2026-04-05T10:58:12.846Z</time></trkpt><trkpt lat="44.8311117" lon="7.9791117"><ele>322.8333333333333</ele><time>2026-04-05T10:58:13.845Z</time></trkpt><trkpt lat="44.83103" lon="7.9790917"><ele>322.0</ele><time>2026-04-05T10:58:14.846Z</time></trkpt><trkpt lat="44.8309567" lon="7.9790717"><ele>322.0</ele><time>2026-04-05T10:58:15.845Z</time></trkpt><trkpt lat="44.8308833" lon="7.97907"><ele>322.0</ele><time>2026-04-05T10:58:16.846Z</time></trkpt><trkpt lat="44.8308117" lon="7.9790633"><ele>322.0</ele><time>2026-04-05T10:58:17.846Z</time></trkpt><trkpt lat="44.8307467" lon="7.979055"><ele>322.0</ele><time>2026-04-05T10:58:18.846Z</time></trkpt><trkpt lat="44.83068" lon="7.979045"><ele>322.0</ele><time>2026-04-05T10:58:19.846Z</time></trkpt><trkpt lat="44.8306167" lon="7.979045"><ele>322.0</ele><time>2026-04-05T10:58:20.846Z</time></trkpt><trkpt lat="44.830495" lon="7.9790883"><ele>322.0</ele><time>2026-04-05T10:58:22.846Z</time></trkpt><trkpt lat="44.830435" lon="7.97912"><ele>322.0</ele><time>2026-04-05T10:58:23.845Z</time></trkpt><trkpt lat="44.8303367" lon="7.9791967"><ele>322.0</ele><time>2026-04-05T10:58:25.846Z</time></trkpt><trkpt lat="44.8302833" lon="7.979265"><ele>322.0</ele><time>2026-04-05T10:58:26.846Z</time></trkpt><trkpt lat="44.8302417" lon="7.9793617"><ele>322.0</ele><time>2026-04-05T10:58:27.846Z</time></trkpt><trkpt lat="44.8302067" lon="7.9794517"><ele>322.0</ele><time>2026-04-05T10:58:28.846Z</time></trkpt><trkpt lat="44.8301933" lon="7.9795483"><ele>323.3333333333333</ele><time>2026-04-05T10:58:29.846Z</time></trkpt><trkpt lat="44.830135" lon="7.9797067"><ele>324.66666666666663</ele><time>2026-04-05T10:58:31.846Z</time></trkpt><trkpt lat="44.8301017" lon="7.9798017"><ele>326.0</ele><time>2026-04-05T10:58:32.845Z</time></trkpt><trkpt lat="44.8300717" lon="7.9799033"><ele>327.3333333333333</ele><time>2026-04-05T10:58:33.846Z</time></trkpt><trkpt lat="44.8300683" lon="7.9799967"><ele>328.6666666666667</ele><time>2026-04-05T10:58:34.846Z</time></trkpt><trkpt lat="44.8300733" lon="7.980095"><ele>330.0</ele><time>2026-04-05T10:58:35.846Z</time></trkpt><trkpt lat="44.83009" lon="7.980205"><ele>332.3333333333333</ele><time>2026-04-05T10:58:36.846Z</time></trkpt><trkpt lat="44.8301067" lon="7.980315"><ele>334.6666666666667</ele><time>2026-04-05T10:58:37.846Z</time></trkpt><trkpt lat="44.830115" lon="7.980425"><ele>337.0</ele><time>2026-04-05T10:58:38.846Z</time></trkpt><trkpt lat="44.83013" lon="7.9805133"><ele>339.33333333333337</ele><time>2026-04-05T10:58:39.846Z</time></trkpt><trkpt lat="44.8301983" lon="7.9805483"><ele>341.6666666666667</ele><time>2026-04-05T10:58:41.846Z</time></trkpt><trkpt lat="44.830245" lon="7.9803933"><ele>344.0</ele><time>2026-04-05T10:58:43.846Z</time></trkpt><trkpt lat="44.83029" lon="7.9803117"><ele>345.1666666666667</ele><time>2026-04-05T10:58:45.846Z</time></trkpt><trkpt lat="44.8303583" lon="7.980345"><ele>346.33333333333337</ele><time>2026-04-05T10:58:48.846Z</time></trkpt><trkpt lat="44.8303567" lon="7.9804817"><ele>347.5</ele><time>2026-04-05T10:58:50.846Z</time></trkpt><trkpt lat="44.8303483" lon="7.9805817"><ele>348.6666666666667</ele><time>2026-04-05T10:58:51.846Z</time></trkpt><trkpt lat="44.830345" lon="7.9806867"><ele>349.8333333333333</ele><time>2026-04-05T10:58:52.846Z</time></trkpt><trkpt lat="44.8303317" lon="7.9807883"><ele>351.0</ele><time>2026-04-05T10:58:53.846Z</time></trkpt><trkpt lat="44.830275" lon="7.9809233"><ele>351.0</ele><time>2026-04-05T10:58:55.846Z</time></trkpt><trkpt lat="44.8301783" lon="7.981025"><ele>351.0</ele><time>2026-04-05T10:58:57.846Z</time></trkpt><trkpt lat="44.8301117" lon="7.9810533"><ele>351.0</ele><time>2026-04-05T10:58:58.846Z</time></trkpt><trkpt lat="44.83001" lon="7.98105"><ele>351.0</ele><time>2026-04-05T10:59:00.846Z</time></trkpt><trkpt lat="44.8299383" lon="7.9810283"><ele>351.0</ele><time>2026-04-05T10:59:02.846Z</time></trkpt><trkpt lat="44.8298867" lon="7.9809317"><ele>349.6</ele><time>2026-04-05T10:59:04.846Z</time></trkpt><trkpt lat="44.8298183" lon="7.980825"><ele>348.20000000000005</ele><time>2026-04-05T10:59:06.846Z</time></trkpt><trkpt lat="44.8297433" lon="7.980795"><ele>346.79999999999995</ele><time>2026-04-05T10:59:08.846Z</time></trkpt><trkpt lat="44.8296467" lon="7.9808533"><ele>345.4</ele><time>2026-04-05T10:59:10.846Z</time></trkpt><trkpt lat="44.8295633" lon="7.9809033"><ele>344.0</ele><time>2026-04-05T10:59:12.846Z</time></trkpt><trkpt lat="44.829475" lon="7.9809383"><ele>344.0</ele><time>2026-04-05T10:59:14.846Z</time></trkpt><trkpt lat="44.8293783" lon="7.9809133"><ele>344.0</ele><time>2026-04-05T10:59:16.846Z</time></trkpt><trkpt lat="44.8292933" lon="7.9808867"><ele>344.0</ele><time>2026-04-05T10:59:18.846Z</time></trkpt><trkpt lat="44.829215" lon="7.9808483"><ele>344.0</ele><time>2026-04-05T10:59:20.846Z</time></trkpt><trkpt lat="44.8291583" lon="7.980805"><ele>344.0</ele><time>2026-04-05T10:59:21.846Z</time></trkpt><trkpt lat="44.829095" lon="7.98075"><ele>344.0</ele><time>2026-04-05T10:59:22.846Z</time></trkpt><trkpt lat="44.8290433" lon="7.9806817"><ele>344.1666666666667</ele><time>2026-04-05T10:59:23.846Z</time></trkpt><trkpt lat="44.828995" lon="7.9806117"><ele>344.33333333333337</ele><time>2026-04-05T10:59:24.846Z</time></trkpt><trkpt lat="44.828955" lon="7.9805283"><ele>344.5</ele><time>2026-04-05T10:59:25.846Z</time></trkpt><trkpt lat="44.8289267" lon="7.9804333"><ele>344.6666666666667</ele><time>2026-04-05T10:59:26.846Z</time></trkpt><trkpt lat="44.82891" lon="7.9803233"><ele>344.8333333333333</ele><time>2026-04-05T10:59:27.846Z</time></trkpt><trkpt lat="44.8288983" lon="7.9802067"><ele>345.0</ele><time>2026-04-05T10:59:28.845Z</time></trkpt><trkpt lat="44.8288783" lon="7.9800933"><ele>345.8333333333333</ele><time>2026-04-05T10:59:29.846Z</time></trkpt><trkpt lat="44.8288483" lon="7.9799867"><ele>346.6666666666667</ele><time>2026-04-05T10:59:30.846Z</time></trkpt><trkpt lat="44.8288067" lon="7.9798883"><ele>347.5</ele><time>2026-04-05T10:59:31.846Z</time></trkpt><trkpt lat="44.82875" lon="7.97979"><ele>348.33333333333337</ele><time>2026-04-05T10:59:32.845Z</time></trkpt><trkpt lat="44.8286933" lon="7.9797067"><ele>349.1666666666667</ele><time>2026-04-05T10:59:33.846Z</time></trkpt><trkpt lat="44.8286367" lon="7.979635"><ele>350.0</ele><time>2026-04-05T10:59:34.846Z</time></trkpt><trkpt lat="44.8285933" lon="7.97956"><ele>350.0</ele><time>2026-04-05T10:59:35.846Z</time></trkpt><trkpt lat="44.8285567" lon="7.97948"><ele>350.0</ele><time>2026-04-05T10:59:36.846Z</time></trkpt><trkpt lat="44.8284817" lon="7.97933"><ele>350.0</ele><time>2026-04-05T10:59:38.846Z</time></trkpt><trkpt lat="44.8284017" lon="7.9792083"><ele>350.0</ele><time>2026-04-05T10:59:40.846Z</time></trkpt><trkpt lat="44.8283533" lon="7.9791367"><ele>350.0</ele><time>2026-04-05T10:59:41.846Z</time></trkpt><trkpt lat="44.8282917" lon="7.9790517"><ele>352.83333333333337</ele><time>2026-04-05T10:59:42.846Z</time></trkpt><trkpt lat="44.8282333" lon="7.9789533"><ele>355.6666666666667</ele><time>2026-04-05T10:59:43.846Z</time></trkpt><trkpt lat="44.8281967" lon="7.9788483"><ele>358.5</ele><time>2026-04-05T10:59:44.845Z</time></trkpt><trkpt lat="44.8281633" lon="7.97874"><ele>361.3333333333333</ele><time>2026-04-05T10:59:45.846Z</time></trkpt><trkpt lat="44.82814" lon="7.9786317"><ele>364.16666666666663</ele><time>2026-04-05T10:59:46.845Z</time></trkpt><trkpt lat="44.8281133" lon="7.9785317"><ele>367.0</ele><time>2026-04-05T10:59:47.846Z</time></trkpt><trkpt lat="44.8280817" lon="7.97843"><ele>367.5</ele><time>2026-04-05T10:59:48.845Z</time></trkpt><trkpt lat="44.8280533" lon="7.9783233"><ele>368.0</ele><time>2026-04-05T10:59:49.846Z</time></trkpt><trkpt lat="44.8280167" lon="7.978215"><ele>368.5</ele><time>2026-04-05T10:59:50.846Z</time></trkpt><trkpt lat="44.827985" lon="7.97811"><ele>369.0</ele><time>2026-04-05T10:59:51.846Z</time></trkpt><trkpt lat="44.827955" lon="7.9780117"><ele>369.5</ele><time>2026-04-05T10:59:52.845Z</time></trkpt><trkpt lat="44.8279317" lon="7.9779167"><ele>370.0</ele><time>2026-04-05T10:59:53.846Z</time></trkpt><trkpt lat="44.8279033" lon="7.97782"><ele>369.99999999999994</ele><time>2026-04-05T10:59:54.845Z</time></trkpt><trkpt lat="44.827875" lon="7.9777283"><ele>370.0</ele><time>2026-04-05T10:59:55.845Z</time></trkpt><trkpt lat="44.8278467" lon="7.9776467"><ele>370.0</ele><time>2026-04-05T10:59:56.846Z</time></trkpt><trkpt lat="44.8277983" lon="7.9775733"><ele>370.0</ele><time>2026-04-05T10:59:57.845Z</time></trkpt><trkpt lat="44.8277467" lon="7.9775033"><ele>370.0</ele><time>2026-04-05T10:59:58.845Z</time></trkpt><trkpt lat="44.8276667" lon="7.9774533"><ele>369.99999999999994</ele><time>2026-04-05T10:59:59.846Z</time></trkpt><trkpt lat="44.8275867" lon="7.97744"><ele>370.0</ele><time>2026-04-05T11:00:00.846Z</time></trkpt><trkpt lat="44.827495" lon="7.9774383"><ele>368.5</ele><time>2026-04-05T11:00:01.846Z</time></trkpt><trkpt lat="44.8274083" lon="7.9774417"><ele>367.0</ele><time>2026-04-05T11:00:02.846Z</time></trkpt><trkpt lat="44.827325" lon="7.97744"><ele>365.5</ele><time>2026-04-05T11:00:03.846Z</time></trkpt><trkpt lat="44.8272383" lon="7.977455"><ele>364.0</ele><time>2026-04-05T11:00:04.846Z</time></trkpt><trkpt lat="44.82715" lon="7.9774583"><ele>362.5</ele><time>2026-04-05T11:00:05.845Z</time></trkpt><trkpt lat="44.82706" lon="7.9774583"><ele>361.0</ele><time>2026-04-05T11:00:06.846Z</time></trkpt><trkpt lat="44.8269767" lon="7.9774417"><ele>361.0</ele><time>2026-04-05T11:00:07.846Z</time></trkpt><trkpt lat="44.8269033" lon="7.9773933"><ele>361.0</ele><time>2026-04-05T11:00:08.846Z</time></trkpt><trkpt lat="44.8268433" lon="7.9773117"><ele>361.0</ele><time>2026-04-05T11:00:09.846Z</time></trkpt><trkpt lat="44.8268083" lon="7.9771967"><ele>361.0</ele><time>2026-04-05T11:00:10.846Z</time></trkpt><trkpt lat="44.8267867" lon="7.9770617"><ele>361.0</ele><time>2026-04-05T11:00:11.846Z</time></trkpt><trkpt lat="44.82677" lon="7.9769217"><ele>358.20000000000005</ele><time>2026-04-05T11:00:12.846Z</time></trkpt><trkpt lat="44.8267617" lon="7.976775"><ele>355.40000000000003</ele><time>2026-04-05T11:00:13.846Z</time></trkpt><trkpt lat="44.8267517" lon="7.9766317"><ele>352.6</ele><time>2026-04-05T11:00:14.846Z</time></trkpt><trkpt lat="44.8267567" lon="7.9764733"><ele>349.8</ele><time>2026-04-05T11:00:15.846Z</time></trkpt><trkpt lat="44.82677" lon="7.9763367"><ele>347.0</ele><time>2026-04-05T11:00:16.846Z</time></trkpt><trkpt lat="44.8267967" lon="7.9762017"><ele>347.20000000000005</ele><time>2026-04-05T11:00:17.846Z</time></trkpt><trkpt lat="44.8268383" lon="7.9760583"><ele>347.4</ele><time>2026-04-05T11:00:18.846Z</time></trkpt><trkpt lat="44.8268833" lon="7.97592"><ele>347.6</ele><time>2026-04-05T11:00:19.846Z</time></trkpt><trkpt lat="44.8269417" lon="7.9757817"><ele>347.79999999999995</ele><time>2026-04-05T11:00:20.846Z</time></trkpt><trkpt lat="44.8270017" lon="7.9756517"><ele>348.0</ele><time>2026-04-05T11:00:21.846Z</time></trkpt><trkpt lat="44.82705" lon="7.9755217"><ele>348.0</ele><time>2026-04-05T11:00:22.846Z</time></trkpt><trkpt lat="44.827095" lon="7.9754083"><ele>348.0</ele><time>2026-04-05T11:00:23.846Z</time></trkpt><trkpt lat="44.82713" lon="7.9752983"><ele>348.0</ele><time>2026-04-05T11:00:24.846Z</time></trkpt><trkpt lat="44.82715" lon="7.9751983"><ele>348.0</ele><time>2026-04-05T11:00:25.845Z</time></trkpt><trkpt lat="44.8271893" lon="7.9750573"><ele>348.0</ele><time>2026-04-05T11:00:27.846Z</time></trkpt><trkpt lat="44.8272533" lon="7.9750212"><ele>348.0</ele><time>2026-04-05T11:00:29.846Z</time></trkpt><trkpt lat="44.827343" lon="7.9750876"><ele>348.0</ele><time>2026-04-05T11:00:31.846Z</time></trkpt><trkpt lat="44.8273928" lon="7.9751455"><ele>348.0</ele><time>2026-04-05T11:00:32.846Z</time></trkpt><trkpt lat="44.8274457" lon="7.9751964"><ele>348.0</ele><time>2026-04-05T11:00:33.846Z</time></trkpt><trkpt lat="44.827555" lon="7.9752379"><ele>348.0</ele><time>2026-04-05T11:00:35.846Z</time></trkpt><trkpt lat="44.8276729" lon="7.975169"><ele>348.0</ele><time>2026-04-05T11:00:37.846Z</time></trkpt><trkpt lat="44.8277276" lon="7.9750774"><ele>345.0</ele><time>2026-04-05T11:00:38.846Z</time></trkpt><trkpt lat="44.8277764" lon="7.9749732"><ele>342.0</ele><time>2026-04-05T11:00:39.845Z</time></trkpt><trkpt lat="44.8278121" lon="7.9748308"><ele>339.0</ele><time>2026-04-05T11:00:40.845Z</time></trkpt><trkpt lat="44.8278395" lon="7.9746766"><ele>336.0</ele><time>2026-04-05T11:00:41.845Z</time></trkpt><trkpt lat="44.827865" lon="7.9745193"><ele>333.0</ele><time>2026-04-05T11:00:42.846Z</time></trkpt><trkpt lat="44.8278825" lon="7.9743668"><ele>333.0</ele><time>2026-04-05T11:00:43.846Z</time></trkpt><trkpt lat="44.8278944" lon="7.9742082"><ele>333.0</ele><time>2026-04-05T11:00:44.846Z</time></trkpt><trkpt lat="44.827908" lon="7.9740594"><ele>333.0</ele><time>2026-04-05T11:00:45.846Z</time></trkpt><trkpt lat="44.8279372" lon="7.9739249"><ele>333.0</ele><time>2026-04-05T11:00:46.846Z</time></trkpt><trkpt lat="44.8279852" lon="7.9738106"><ele>333.0</ele><time>2026-04-05T11:00:47.846Z</time></trkpt><trkpt lat="44.8280445" lon="7.9737126"><ele>334.59999999999997</ele><time>2026-04-05T11:00:48.846Z</time></trkpt><trkpt lat="44.8281105" lon="7.9736226"><ele>336.2</ele><time>2026-04-05T11:00:49.846Z</time></trkpt><trkpt lat="44.8281872" lon="7.973539"><ele>337.8</ele><time>2026-04-05T11:00:50.846Z</time></trkpt><trkpt lat="44.8282707" lon="7.9734637"><ele>339.4</ele><time>2026-04-05T11:00:51.845Z</time></trkpt><trkpt lat="44.8283548" lon="7.9733976"><ele>341.0</ele><time>2026-04-05T11:00:52.845Z</time></trkpt><trkpt lat="44.8284227" lon="7.9733236"><ele>342.0</ele><time>2026-04-05T11:00:53.846Z</time></trkpt><trkpt lat="44.8284685" lon="7.9732274"><ele>343.0</ele><time>2026-04-05T11:00:54.846Z</time></trkpt><trkpt lat="44.8285059" lon="7.9731268"><ele>344.0</ele><time>2026-04-05T11:00:55.846Z</time></trkpt><trkpt lat="44.8285557" lon="7.9730452"><ele>345.0</ele><time>2026-04-05T11:00:56.846Z</time></trkpt><trkpt lat="44.8286133" lon="7.9729795"><ele>346.0</ele><time>2026-04-05T11:00:57.846Z</time></trkpt><trkpt lat="44.8286844" lon="7.9729321"><ele>347.0</ele><time>2026-04-05T11:00:58.846Z</time></trkpt><trkpt lat="44.828758" lon="7.972879"><ele>347.0</ele><time>2026-04-05T11:00:59.845Z</time></trkpt><trkpt lat="44.8288234" lon="7.9728033"><ele>347.0</ele><time>2026-04-05T11:01:00.845Z</time></trkpt><trkpt lat="44.8288718" lon="7.9727095"><ele>347.0</ele><time>2026-04-05T11:01:01.846Z</time></trkpt><trkpt lat="44.828907" lon="7.9726041"><ele>347.0</ele><time>2026-04-05T11:01:02.846Z</time></trkpt><trkpt lat="44.8289363" lon="7.97249"><ele>347.0</ele><time>2026-04-05T11:01:03.846Z</time></trkpt><trkpt lat="44.8289729" lon="7.9723753"><ele>347.0</ele><time>2026-04-05T11:01:04.846Z</time></trkpt><trkpt lat="44.8290176" lon="7.9722698"><ele>346.6666666666667</ele><time>2026-04-05T11:01:05.846Z</time></trkpt><trkpt lat="44.8290691" lon="7.9721778"><ele>346.33333333333337</ele><time>2026-04-05T11:01:06.845Z</time></trkpt><trkpt lat="44.8291307" lon="7.9720964"><ele>346.0</ele><time>2026-04-05T11:01:07.845Z</time></trkpt><trkpt lat="44.829194" lon="7.9720119"><ele>345.6666666666667</ele><time>2026-04-05T11:01:08.845Z</time></trkpt><trkpt lat="44.8292597" lon="7.9719241"><ele>345.3333333333333</ele><time>2026-04-05T11:01:09.845Z</time></trkpt><trkpt lat="44.829325" lon="7.9718346"><ele>345.0</ele><time>2026-04-05T11:01:10.846Z</time></trkpt><trkpt lat="44.8293918" lon="7.9717471"><ele>347.3333333333333</ele><time>2026-04-05T11:01:11.846Z</time></trkpt><trkpt lat="44.8294649" lon="7.9716628"><ele>349.6666666666667</ele><time>2026-04-05T11:01:12.846Z</time></trkpt><trkpt lat="44.8295339" lon="7.9715924"><ele>352.0</ele><time>2026-04-05T11:01:13.846Z</time></trkpt><trkpt lat="44.8296022" lon="7.9715244"><ele>354.33333333333337</ele><time>2026-04-05T11:01:14.846Z</time></trkpt><trkpt lat="44.8296668" lon="7.9714485"><ele>356.6666666666667</ele><time>2026-04-05T11:01:15.846Z</time></trkpt><trkpt lat="44.8297317" lon="7.9713833"><ele>359.0</ele><time>2026-04-05T11:01:16.846Z</time></trkpt><trkpt lat="44.8297933" lon="7.9713183"><ele>359.0</ele><time>2026-04-05T11:01:17.846Z</time></trkpt><trkpt lat="44.8298533" lon="7.9712583"><ele>359.0</ele><time>2026-04-05T11:01:18.846Z</time></trkpt><trkpt lat="44.8299017" lon="7.971185"><ele>359.0</ele><time>2026-04-05T11:01:19.845Z</time></trkpt><trkpt lat="44.8299567" lon="7.971125"><ele>359.0</ele><time>2026-04-05T11:01:20.846Z</time></trkpt><trkpt lat="44.8300117" lon="7.9710583"><ele>359.0</ele><time>2026-04-05T11:01:21.846Z</time></trkpt><trkpt lat="44.8300633" lon="7.9709867"><ele>359.0</ele><time>2026-04-05T11:01:22.846Z</time></trkpt><trkpt lat="44.830115" lon="7.97092"><ele>359.0</ele><time>2026-04-05T11:01:23.845Z</time></trkpt><trkpt lat="44.8301633" lon="7.9708583"><ele>359.1666666666667</ele><time>2026-04-05T11:01:24.846Z</time></trkpt><trkpt lat="44.8302433" lon="7.9707517"><ele>359.33333333333337</ele><time>2026-04-05T11:01:26.846Z</time></trkpt><trkpt lat="44.8303283" lon="7.970655"><ele>359.5</ele><time>2026-04-05T11:01:28.846Z</time></trkpt><trkpt lat="44.8303817" lon="7.9705983"><ele>359.6666666666667</ele><time>2026-04-05T11:01:29.846Z</time></trkpt><trkpt lat="44.8304417" lon="7.970525"><ele>359.8333333333333</ele><time>2026-04-05T11:01:30.846Z</time></trkpt><trkpt lat="44.8305017" lon="7.9704467"><ele>360.0</ele><time>2026-04-05T11:01:31.846Z</time></trkpt><trkpt lat="44.8305667" lon="7.970365"><ele>360.0</ele><time>2026-04-05T11:01:32.846Z</time></trkpt><trkpt lat="44.8306183" lon="7.9703"><ele>360.0</ele><time>2026-04-05T11:01:33.846Z</time></trkpt><trkpt lat="44.8306717" lon="7.970235"><ele>360.0</ele><time>2026-04-05T11:01:34.846Z</time></trkpt><trkpt lat="44.8307233" lon="7.9701683"><ele>360.0</ele><time>2026-04-05T11:01:35.846Z</time></trkpt><trkpt lat="44.8307617" lon="7.9700883"><ele>360.0</ele><time>2026-04-05T11:01:36.845Z</time></trkpt><trkpt lat="44.83079" lon="7.970005"><ele>360.0</ele><time>2026-04-05T11:01:37.846Z</time></trkpt><trkpt lat="44.830795" lon="7.9698033"><ele>360.5</ele><time>2026-04-05T11:01:39.846Z</time></trkpt><trkpt lat="44.8308" lon="7.9697033"><ele>361.0</ele><time>2026-04-05T11:01:40.846Z</time></trkpt><trkpt lat="44.8308" lon="7.9695883"><ele>361.5</ele><time>2026-04-05T11:01:41.846Z</time></trkpt><trkpt lat="44.8308" lon="7.969475"><ele>362.0</ele><time>2026-04-05T11:01:42.846Z</time></trkpt><trkpt lat="44.8307967" lon="7.9693667"><ele>362.5</ele><time>2026-04-05T11:01:43.846Z</time></trkpt><trkpt lat="44.830795" lon="7.96926"><ele>363.0</ele><time>2026-04-05T11:01:44.846Z</time></trkpt><trkpt lat="44.8307967" lon="7.9691517"><ele>362.99999999999994</ele><time>2026-04-05T11:01:45.846Z</time></trkpt><trkpt lat="44.8308017" lon="7.9690467"><ele>363.0</ele><time>2026-04-05T11:01:46.846Z</time></trkpt><trkpt lat="44.8308067" lon="7.9689517"><ele>363.0</ele><time>2026-04-05T11:01:47.846Z</time></trkpt><trkpt lat="44.830815" lon="7.9688533"><ele>363.0</ele><time>2026-04-05T11:01:48.846Z</time></trkpt><trkpt lat="44.8308283" lon="7.96875"><ele>363.0</ele><time>2026-04-05T11:01:49.846Z</time></trkpt><trkpt lat="44.8308433" lon="7.9686417"><ele>362.99999999999994</ele><time>2026-04-05T11:01:50.846Z</time></trkpt><trkpt lat="44.8308583" lon="7.96853"><ele>363.0</ele><time>2026-04-05T11:01:51.845Z</time></trkpt><trkpt lat="44.83087" lon="7.9684217"><ele>362.1666666666667</ele><time>2026-04-05T11:01:52.846Z</time></trkpt><trkpt lat="44.83088" lon="7.9683133"><ele>361.3333333333333</ele><time>2026-04-05T11:01:53.846Z</time></trkpt><trkpt lat="44.8309033" lon="7.9682167"><ele>360.5</ele><time>2026-04-05T11:01:54.846Z</time></trkpt><trkpt lat="44.83095" lon="7.9681317"><ele>359.66666666666663</ele><time>2026-04-05T11:01:55.846Z</time></trkpt><trkpt lat="44.83101" lon="7.9680617"><ele>358.8333333333333</ele><time>2026-04-05T11:01:56.846Z</time></trkpt><trkpt lat="44.831075" lon="7.9679917"><ele>358.0</ele><time>2026-04-05T11:01:57.846Z</time></trkpt><trkpt lat="44.8311333" lon="7.9679133"><ele>356.0</ele><time>2026-04-05T11:01:58.846Z</time></trkpt><trkpt lat="44.831185" lon="7.967815"><ele>354.0</ele><time>2026-04-05T11:01:59.846Z</time></trkpt><trkpt lat="44.8312333" lon="7.9676967"><ele>352.0</ele><time>2026-04-05T11:02:00.846Z</time></trkpt><trkpt lat="44.8312783" lon="7.9675783"><ele>350.0</ele><time>2026-04-05T11:02:01.846Z</time></trkpt><trkpt lat="44.83132" lon="7.9674633"><ele>348.0</ele><time>2026-04-05T11:02:02.846Z</time></trkpt><trkpt lat="44.83137" lon="7.9673583"><ele>347.59999999999997</ele><time>2026-04-05T11:02:03.846Z</time></trkpt><trkpt lat="44.8314367" lon="7.9672633"><ele>347.2</ele><time>2026-04-05T11:02:04.846Z</time></trkpt><trkpt lat="44.83151" lon="7.9671717"><ele>346.8</ele><time>2026-04-05T11:02:05.845Z</time></trkpt><trkpt lat="44.8315767" lon="7.9670717"><ele>346.4</ele><time>2026-04-05T11:02:06.846Z</time></trkpt><trkpt lat="44.83163" lon="7.966955"><ele>346.0</ele><time>2026-04-05T11:02:07.846Z</time></trkpt><trkpt lat="44.831665" lon="7.9668167"><ele>347.25</ele><time>2026-04-05T11:02:08.846Z</time></trkpt><trkpt lat="44.8316817" lon="7.9666533"><ele>348.5</ele><time>2026-04-05T11:02:09.846Z</time></trkpt><trkpt lat="44.8316867" lon="7.96647"><ele>349.75</ele><time>2026-04-05T11:02:10.845Z</time></trkpt><trkpt lat="44.83169" lon="7.9662717"><ele>351.0</ele><time>2026-04-05T11:02:11.846Z</time></trkpt><trkpt lat="44.8316983" lon="7.9660733"><ele>351.0</ele><time>2026-04-05T11:02:12.846Z</time></trkpt><trkpt lat="44.8317083" lon="7.96589"><ele>351.0</ele><time>2026-04-05T11:02:13.846Z</time></trkpt><trkpt lat="44.8317067" lon="7.9657183"><ele>351.0</ele><time>2026-04-05T11:02:14.846Z</time></trkpt><trkpt lat="44.8317" lon="7.9655567"><ele>351.0</ele><time>2026-04-05T11:02:15.846Z</time></trkpt><trkpt lat="44.8316867" lon="7.9653983"><ele>351.6</ele><time>2026-04-05T11:02:16.845Z</time></trkpt><trkpt lat="44.831665" lon="7.9652367"><ele>352.20000000000005</ele><time>2026-04-05T11:02:17.846Z</time></trkpt><trkpt lat="44.8316317" lon="7.9650767"><ele>352.79999999999995</ele><time>2026-04-05T11:02:18.846Z</time></trkpt><trkpt lat="44.8315883" lon="7.96493"><ele>353.4</ele><time>2026-04-05T11:02:19.846Z</time></trkpt><trkpt lat="44.8315467" lon="7.9648033"><ele>354.0</ele><time>2026-04-05T11:02:20.846Z</time></trkpt><trkpt lat="44.8315183" lon="7.96468"><ele>354.0</ele><time>2026-04-05T11:02:21.846Z</time></trkpt><trkpt lat="44.83151" lon="7.9645617"><ele>354.0</ele><time>2026-04-05T11:02:22.845Z</time></trkpt><trkpt lat="44.8315167" lon="7.96444"><ele>354.0</ele><time>2026-04-05T11:02:23.846Z</time></trkpt><trkpt lat="44.8315383" lon="7.96431"><ele>354.0</ele><time>2026-04-05T11:02:24.845Z</time></trkpt><trkpt lat="44.8315733" lon="7.9641767"><ele>354.0</ele><time>2026-04-05T11:02:25.845Z</time></trkpt><trkpt lat="44.8316117" lon="7.964055"><ele>354.0</ele><time>2026-04-05T11:02:26.846Z</time></trkpt><trkpt lat="44.8316433" lon="7.96394"><ele>354.0</ele><time>2026-04-05T11:02:27.846Z</time></trkpt><trkpt lat="44.8316783" lon="7.96384"><ele>354.0</ele><time>2026-04-05T11:02:28.845Z</time></trkpt><trkpt lat="44.8317333" lon="7.9637217"><ele>354.0</ele><time>2026-04-05T11:02:29.846Z</time></trkpt><trkpt lat="44.8317967" lon="7.9636017"><ele>354.0</ele><time>2026-04-05T11:02:30.846Z</time></trkpt><trkpt lat="44.8318617" lon="7.9634567"><ele>352.0</ele><time>2026-04-05T11:02:31.846Z</time></trkpt><trkpt lat="44.8319167" lon="7.96329"><ele>350.0</ele><time>2026-04-05T11:02:32.846Z</time></trkpt><trkpt lat="44.831965" lon="7.9631233"><ele>348.0</ele><time>2026-04-05T11:02:33.846Z</time></trkpt><trkpt lat="44.8320067" lon="7.9629633"><ele>346.0</ele><time>2026-04-05T11:02:34.846Z</time></trkpt><trkpt lat="44.8320467" lon="7.9628117"><ele>346.0</ele><time>2026-04-05T11:02:35.846Z</time></trkpt><trkpt lat="44.8320733" lon="7.9626533"><ele>346.0</ele><time>2026-04-05T11:02:36.846Z</time></trkpt><trkpt lat="44.83209" lon="7.9624867"><ele>346.0</ele><time>2026-04-05T11:02:37.846Z</time></trkpt><trkpt lat="44.832105" lon="7.9623367"><ele>346.0</ele><time>2026-04-05T11:02:38.845Z</time></trkpt><trkpt lat="44.83212" lon="7.9621867"><ele>346.0</ele><time>2026-04-05T11:02:39.846Z</time></trkpt><trkpt lat="44.8321417" lon="7.96203"><ele>346.0</ele><time>2026-04-05T11:02:40.845Z</time></trkpt><trkpt lat="44.83217" lon="7.9618767"><ele>346.0</ele><time>2026-04-05T11:02:41.846Z</time></trkpt><trkpt lat="44.8321967" lon="7.9617433"><ele>346.0</ele><time>2026-04-05T11:02:42.846Z</time></trkpt><trkpt lat="44.8322217" lon="7.9616183"><ele>346.0</ele><time>2026-04-05T11:02:43.845Z</time></trkpt><trkpt lat="44.832245" lon="7.96149"><ele>346.0</ele><time>2026-04-05T11:02:44.846Z</time></trkpt><trkpt lat="44.83226" lon="7.9613633"><ele>346.0</ele><time>2026-04-05T11:02:45.846Z</time></trkpt><trkpt lat="44.8322767" lon="7.9612383"><ele>346.0</ele><time>2026-04-05T11:02:46.846Z</time></trkpt><trkpt lat="44.832295" lon="7.9611167"><ele>346.0</ele><time>2026-04-05T11:02:47.846Z</time></trkpt><trkpt lat="44.8323167" lon="7.9609983"><ele>346.0</ele><time>2026-04-05T11:02:48.846Z</time></trkpt><trkpt lat="44.83235" lon="7.9608817"><ele>346.0</ele><time>2026-04-05T11:02:49.846Z</time></trkpt><trkpt lat="44.8323967" lon="7.96076"><ele>346.0</ele><time>2026-04-05T11:02:50.846Z</time></trkpt><trkpt lat="44.832455" lon="7.9606383"><ele>346.0</ele><time>2026-04-05T11:02:51.846Z</time></trkpt><trkpt lat="44.832515" lon="7.9605217"><ele>346.0</ele><time>2026-04-05T11:02:52.846Z</time></trkpt><trkpt lat="44.8325817" lon="7.9604167"><ele>346.0</ele><time>2026-04-05T11:02:53.846Z</time></trkpt><trkpt lat="44.83265" lon="7.9603217"><ele>346.0</ele><time>2026-04-05T11:02:54.846Z</time></trkpt><trkpt lat="44.832725" lon="7.9602483"><ele>344.16666666666663</ele><time>2026-04-05T11:02:55.846Z</time></trkpt><trkpt lat="44.8328033" lon="7.9601867"><ele>342.3333333333333</ele><time>2026-04-05T11:02:56.846Z</time></trkpt><trkpt lat="44.83288" lon="7.9601433"><ele>340.5</ele><time>2026-04-05T11:02:57.846Z</time></trkpt><trkpt lat="44.8329533" lon="7.9601117"><ele>338.6666666666667</ele><time>2026-04-05T11:02:58.846Z</time></trkpt><trkpt lat="44.8330183" lon="7.9600983"><ele>336.83333333333337</ele><time>2026-04-05T11:02:59.846Z</time></trkpt><trkpt lat="44.83311" lon="7.9601083"><ele>335.0</ele><time>2026-04-05T11:03:01.846Z</time></trkpt><trkpt lat="44.8331883" lon="7.9600883"><ele>337.2</ele><time>2026-04-05T11:03:24.846Z</time></trkpt><trkpt lat="44.83326" lon="7.9599467"><ele>339.4</ele><time>2026-04-05T11:03:26.845Z</time></trkpt><trkpt lat="44.8333017" lon="7.95984"><ele>341.6</ele><time>2026-04-05T11:03:27.846Z</time></trkpt><trkpt lat="44.8333533" lon="7.9597167"><ele>343.8</ele><time>2026-04-05T11:03:28.846Z</time></trkpt><trkpt lat="44.8334117" lon="7.9595833"><ele>346.0</ele><time>2026-04-05T11:03:29.846Z</time></trkpt><trkpt lat="44.8334733" lon="7.9594483"><ele>346.0</ele><time>2026-04-05T11:03:30.846Z</time></trkpt><trkpt lat="44.8335317" lon="7.9593133"><ele>346.0</ele><time>2026-04-05T11:03:31.845Z</time></trkpt><trkpt lat="44.83359" lon="7.9591767"><ele>346.0</ele><time>2026-04-05T11:03:32.846Z</time></trkpt><trkpt lat="44.8336517" lon="7.9590417"><ele>346.0</ele><time>2026-04-05T11:03:33.846Z</time></trkpt><trkpt lat="44.8337117" lon="7.9589033"><ele>346.20000000000005</ele><time>2026-04-05T11:03:34.846Z</time></trkpt><trkpt lat="44.8337667" lon="7.95877"><ele>346.40000000000003</ele><time>2026-04-05T11:03:35.845Z</time></trkpt><trkpt lat="44.833825" lon="7.95864"><ele>346.6</ele><time>2026-04-05T11:03:36.845Z</time></trkpt><trkpt lat="44.8338883" lon="7.95852"><ele>346.8</ele><time>2026-04-05T11:03:37.845Z</time></trkpt><trkpt lat="44.8339583" lon="7.9584017"><ele>347.0</ele><time>2026-04-05T11:03:38.846Z</time></trkpt><trkpt lat="44.8340383" lon="7.9582833"><ele>347.75</ele><time>2026-04-05T11:03:39.845Z</time></trkpt><trkpt lat="44.8341183" lon="7.9581633"><ele>348.5</ele><time>2026-04-05T11:03:40.845Z</time></trkpt><trkpt lat="44.83419" lon="7.9580333"><ele>349.25</ele><time>2026-04-05T11:03:41.845Z</time></trkpt><trkpt lat="44.83426" lon="7.9578883"><ele>350.0</ele><time>2026-04-05T11:03:42.846Z</time></trkpt><trkpt lat="44.8343233" lon="7.9577283"><ele>347.75</ele><time>2026-04-05T11:03:43.846Z</time></trkpt><trkpt lat="44.8343883" lon="7.957565"><ele>345.5</ele><time>2026-04-05T11:03:44.845Z</time></trkpt><trkpt lat="44.8344467" lon="7.957405"><ele>343.25</ele><time>2026-04-05T11:03:45.846Z</time></trkpt><trkpt lat="44.8345117" lon="7.95725"><ele>341.0</ele><time>2026-04-05T11:03:46.846Z</time></trkpt><trkpt lat="44.8345883" lon="7.9571033"><ele>341.0</ele><time>2026-04-05T11:03:47.846Z</time></trkpt><trkpt lat="44.83468" lon="7.9569683"><ele>341.0</ele><time>2026-04-05T11:03:48.846Z</time></trkpt><trkpt lat="44.8347817" lon="7.95685"><ele>341.0</ele><time>2026-04-05T11:03:49.846Z</time></trkpt><trkpt lat="44.8349" lon="7.9567483"><ele>341.0</ele><time>2026-04-05T11:03:50.845Z</time></trkpt><trkpt lat="44.8350217" lon="7.9566533"><ele>343.5</ele><time>2026-04-05T11:03:51.846Z</time></trkpt><trkpt lat="44.83514" lon="7.9565617"><ele>346.0</ele><time>2026-04-05T11:03:52.846Z</time></trkpt><trkpt lat="44.8352583" lon="7.9564867"><ele>348.5</ele><time>2026-04-05T11:03:53.846Z</time></trkpt><trkpt lat="44.8353767" lon="7.9564233"><ele>351.0</ele><time>2026-04-05T11:03:54.846Z</time></trkpt><trkpt lat="44.8355133" lon="7.9563767"><ele>351.0</ele><time>2026-04-05T11:03:55.846Z</time></trkpt><trkpt lat="44.8356517" lon="7.9563733"><ele>351.0</ele><time>2026-04-05T11:03:56.846Z</time></trkpt><trkpt lat="44.8357867" lon="7.9563617"><ele>351.0</ele><time>2026-04-05T11:03:57.846Z</time></trkpt><trkpt lat="44.8359133" lon="7.9563433"><ele>351.0</ele><time>2026-04-05T11:03:58.846Z</time></trkpt><trkpt lat="44.83603" lon="7.9563333"><ele>351.6666666666667</ele><time>2026-04-05T11:03:59.845Z</time></trkpt><trkpt lat="44.836135" lon="7.9563233"><ele>352.3333333333333</ele><time>2026-04-05T11:04:00.846Z</time></trkpt><trkpt lat="44.8362283" lon="7.9563083"><ele>353.0</ele><time>2026-04-05T11:04:01.846Z</time></trkpt><trkpt lat="44.836315" lon="7.956295"><ele>353.66666666666663</ele><time>2026-04-05T11:04:02.846Z</time></trkpt><trkpt lat="44.83639" lon="7.95629"><ele>354.3333333333333</ele><time>2026-04-05T11:04:03.845Z</time></trkpt><trkpt lat="44.8364583" lon="7.9562817"><ele>355.0</ele><time>2026-04-05T11:04:04.846Z</time></trkpt><trkpt lat="44.8365533" lon="7.9562467"><ele>355.0</ele><time>2026-04-05T11:04:06.846Z</time></trkpt><trkpt lat="44.8366133" lon="7.956165"><ele>355.0</ele><time>2026-04-05T11:04:16.846Z</time></trkpt><trkpt lat="44.8366033" lon="7.9560283"><ele>355.0</ele><time>2026-04-05T11:04:18.846Z</time></trkpt><trkpt lat="44.83659" lon="7.95593"><ele>355.0</ele><time>2026-04-05T11:04:19.846Z</time></trkpt><trkpt lat="44.83659" lon="7.9558067"><ele>355.0</ele><time>2026-04-05T11:04:20.846Z</time></trkpt><trkpt lat="44.8366" lon="7.955655"><ele>355.0</ele><time>2026-04-05T11:04:21.846Z</time></trkpt><trkpt lat="44.836615" lon="7.955485"><ele>356.5</ele><time>2026-04-05T11:04:22.846Z</time></trkpt><trkpt lat="44.8366317" lon="7.9553033"><ele>358.0</ele><time>2026-04-05T11:04:23.845Z</time></trkpt><trkpt lat="44.8366467" lon="7.9551133"><ele>359.5</ele><time>2026-04-05T11:04:24.846Z</time></trkpt><trkpt lat="44.8366633" lon="7.9549267"><ele>361.0</ele><time>2026-04-05T11:04:25.846Z</time></trkpt><trkpt lat="44.83668" lon="7.9547383"><ele>361.25</ele><time>2026-04-05T11:04:26.846Z</time></trkpt><trkpt lat="44.836695" lon="7.954545"><ele>361.5</ele><time>2026-04-05T11:04:27.846Z</time></trkpt><trkpt lat="44.836705" lon="7.9543533"><ele>361.75</ele><time>2026-04-05T11:04:28.846Z</time></trkpt><trkpt lat="44.8367033" lon="7.95416"><ele>362.0</ele><time>2026-04-05T11:04:29.846Z</time></trkpt><trkpt lat="44.8366867" lon="7.9539667"><ele>361.5</ele><time>2026-04-05T11:04:30.845Z</time></trkpt><trkpt lat="44.8366517" lon="7.9537733"><ele>361.0</ele><time>2026-04-05T11:04:31.846Z</time></trkpt><trkpt lat="44.836595" lon="7.9535917"><ele>360.5</ele><time>2026-04-05T11:04:32.846Z</time></trkpt><trkpt lat="44.83653" lon="7.95341"><ele>360.0</ele><time>2026-04-05T11:04:33.846Z</time></trkpt><trkpt lat="44.836465" lon="7.9532367"><ele>359.0</ele><time>2026-04-05T11:04:34.846Z</time></trkpt><trkpt lat="44.8364017" lon="7.953065"><ele>358.0</ele><time>2026-04-05T11:04:35.846Z</time></trkpt><trkpt lat="44.836335" lon="7.9528933"><ele>357.0</ele><time>2026-04-05T11:04:36.846Z</time></trkpt><trkpt lat="44.8362667" lon="7.9527233"><ele>356.0</ele><time>2026-04-05T11:04:37.846Z</time></trkpt><trkpt lat="44.8361967" lon="7.952545"><ele>356.25</ele><time>2026-04-05T11:04:38.846Z</time></trkpt><trkpt lat="44.8361283" lon="7.9523767"><ele>356.5</ele><time>2026-04-05T11:04:39.845Z</time></trkpt><trkpt lat="44.8360633" lon="7.95221"><ele>356.75</ele><time>2026-04-05T11:04:40.846Z</time></trkpt><trkpt lat="44.8359917" lon="7.95205"><ele>357.0</ele><time>2026-04-05T11:04:41.846Z</time></trkpt><trkpt lat="44.83592" lon="7.95189"><ele>358.0</ele><time>2026-04-05T11:04:42.846Z</time></trkpt><trkpt lat="44.83585" lon="7.951735"><ele>359.0</ele><time>2026-04-05T11:04:43.846Z</time></trkpt><trkpt lat="44.8357783" lon="7.951575"><ele>360.0</ele><time>2026-04-05T11:04:44.846Z</time></trkpt><trkpt lat="44.8357033" lon="7.95141"><ele>361.0</ele><time>2026-04-05T11:04:45.846Z</time></trkpt><trkpt lat="44.835635" lon="7.951245"><ele>361.5</ele><time>2026-04-05T11:04:46.846Z</time></trkpt><trkpt lat="44.8355667" lon="7.9510833"><ele>362.0</ele><time>2026-04-05T11:04:47.846Z</time></trkpt><trkpt lat="44.835495" lon="7.9509167"><ele>362.5</ele><time>2026-04-05T11:04:48.846Z</time></trkpt><trkpt lat="44.8354267" lon="7.950745"><ele>363.0</ele><time>2026-04-05T11:04:49.845Z</time></trkpt><trkpt lat="44.8353567" lon="7.9505733"><ele>362.25</ele><time>2026-04-05T11:04:50.846Z</time></trkpt><trkpt lat="44.8352883" lon="7.95041"><ele>361.5</ele><time>2026-04-05T11:04:51.845Z</time></trkpt><trkpt lat="44.8352167" lon="7.9502517"><ele>360.75</ele><time>2026-04-05T11:04:52.846Z</time></trkpt><trkpt lat="44.8351433" lon="7.9500917"><ele>360.0</ele><time>2026-04-05T11:04:53.846Z</time></trkpt><trkpt lat="44.8350633" lon="7.9499383"><ele>360.0</ele><time>2026-04-05T11:04:54.846Z</time></trkpt><trkpt lat="44.8349783" lon="7.949785"><ele>360.0</ele><time>2026-04-05T11:04:55.846Z</time></trkpt><trkpt lat="44.8348883" lon="7.949635"><ele>360.0</ele><time>2026-04-05T11:04:56.846Z</time></trkpt><trkpt lat="44.8348" lon="7.94949"><ele>360.0</ele><time>2026-04-05T11:04:57.846Z</time></trkpt><trkpt lat="44.8347133" lon="7.9493517"><ele>360.0</ele><time>2026-04-05T11:04:58.846Z</time></trkpt><trkpt lat="44.83463" lon="7.9492117"><ele>360.0</ele><time>2026-04-05T11:04:59.846Z</time></trkpt><trkpt lat="44.834545" lon="7.94908"><ele>360.0</ele><time>2026-04-05T11:05:00.845Z</time></trkpt><trkpt lat="44.8344617" lon="7.9489483"><ele>360.0</ele><time>2026-04-05T11:05:01.846Z</time></trkpt><trkpt lat="44.83438" lon="7.9488183"><ele>359.25</ele><time>2026-04-05T11:05:02.846Z</time></trkpt><trkpt lat="44.8342933" lon="7.9486817"><ele>358.5</ele><time>2026-04-05T11:05:03.846Z</time></trkpt><trkpt lat="44.8342067" lon="7.948535"><ele>357.75</ele><time>2026-04-05T11:05:04.846Z</time></trkpt><trkpt lat="44.8341167" lon="7.9483817"><ele>357.0</ele><time>2026-04-05T11:05:05.846Z</time></trkpt><trkpt lat="44.8340283" lon="7.9482217"><ele>355.25</ele><time>2026-04-05T11:05:06.846Z</time></trkpt><trkpt lat="44.8339367" lon="7.9480733"><ele>353.5</ele><time>2026-04-05T11:05:07.846Z</time></trkpt><trkpt lat="44.8338483" lon="7.9479317"><ele>351.75</ele><time>2026-04-05T11:05:08.845Z</time></trkpt><trkpt lat="44.8337567" lon="7.9477917"><ele>350.0</ele><time>2026-04-05T11:05:09.846Z</time></trkpt><trkpt lat="44.8336633" lon="7.9476533"><ele>350.75</ele><time>2026-04-05T11:05:10.846Z</time></trkpt><trkpt lat="44.8335617" lon="7.947525"><ele>351.5</ele><time>2026-04-05T11:05:11.846Z</time></trkpt><trkpt lat="44.8334417" lon="7.9474217"><ele>352.25</ele><time>2026-04-05T11:05:12.846Z</time></trkpt><trkpt lat="44.83331" lon="7.94735"><ele>353.0</ele><time>2026-04-05T11:05:13.846Z</time></trkpt><trkpt lat="44.8331717" lon="7.94731"><ele>353.0</ele><time>2026-04-05T11:05:14.846Z</time></trkpt><trkpt lat="44.8330333" lon="7.9472933"><ele>353.0</ele><time>2026-04-05T11:05:15.845Z</time></trkpt><trkpt lat="44.8328983" lon="7.9472983"><ele>353.0</ele><time>2026-04-05T11:05:16.846Z</time></trkpt><trkpt lat="44.8327633" lon="7.94731"><ele>353.0</ele><time>2026-04-05T11:05:17.845Z</time></trkpt><trkpt lat="44.8326233" lon="7.94732"><ele>353.5</ele><time>2026-04-05T11:05:18.846Z</time></trkpt><trkpt lat="44.832485" lon="7.94733"><ele>354.0</ele><time>2026-04-05T11:05:19.846Z</time></trkpt><trkpt lat="44.8323517" lon="7.9473383"><ele>354.5</ele><time>2026-04-05T11:05:20.845Z</time></trkpt><trkpt lat="44.8322183" lon="7.947345"><ele>355.0</ele><time>2026-04-05T11:05:21.845Z</time></trkpt><trkpt lat="44.83209" lon="7.9473533"><ele>355.0</ele><time>2026-04-05T11:05:22.846Z</time></trkpt><trkpt lat="44.8319567" lon="7.9473783"><ele>355.0</ele><time>2026-04-05T11:05:23.846Z</time></trkpt><trkpt lat="44.8318183" lon="7.9474"><ele>355.0</ele><time>2026-04-05T11:05:24.846Z</time></trkpt><trkpt lat="44.83168" lon="7.9474267"><ele>355.0</ele><time>2026-04-05T11:05:25.846Z</time></trkpt><trkpt lat="44.8315467" lon="7.9474483"><ele>354.25</ele><time>2026-04-05T11:05:26.846Z</time></trkpt><trkpt lat="44.8314133" lon="7.947475"><ele>353.5</ele><time>2026-04-05T11:05:27.846Z</time></trkpt><trkpt lat="44.8312783" lon="7.9474967"><ele>352.75</ele><time>2026-04-05T11:05:28.845Z</time></trkpt><trkpt lat="44.8311467" lon="7.9475167"><ele>352.0</ele><time>2026-04-05T11:05:29.846Z</time></trkpt><trkpt lat="44.83102" lon="7.94754"><ele>349.5</ele><time>2026-04-05T11:05:30.845Z</time></trkpt><trkpt lat="44.8308967" lon="7.9475667"><ele>347.0</ele><time>2026-04-05T11:05:31.846Z</time></trkpt><trkpt lat="44.8307767" lon="7.9475867"><ele>344.5</ele><time>2026-04-05T11:05:32.846Z</time></trkpt><trkpt lat="44.8306583" lon="7.9475967"><ele>342.0</ele><time>2026-04-05T11:05:33.845Z</time></trkpt><trkpt lat="44.8305367" lon="7.9476"><ele>342.0</ele><time>2026-04-05T11:05:34.846Z</time></trkpt><trkpt lat="44.8304183" lon="7.9475883"><ele>342.0</ele><time>2026-04-05T11:05:35.846Z</time></trkpt><trkpt lat="44.8303017" lon="7.947555"><ele>342.0</ele><time>2026-04-05T11:05:36.846Z</time></trkpt><trkpt lat="44.830075" lon="7.9474767"><ele>342.5</ele><time>2026-04-05T11:05:38.846Z</time></trkpt><trkpt lat="44.8299583" lon="7.9474417"><ele>343.0</ele><time>2026-04-05T11:05:39.846Z</time></trkpt><trkpt lat="44.8298433" lon="7.94741"><ele>343.5</ele><time>2026-04-05T11:05:40.846Z</time></trkpt><trkpt lat="44.8297267" lon="7.9473817"><ele>344.0</ele><time>2026-04-05T11:05:41.846Z</time></trkpt><trkpt lat="44.829605" lon="7.947355"><ele>344.0</ele><time>2026-04-05T11:05:42.846Z</time></trkpt><trkpt lat="44.82949" lon="7.94733"><ele>344.0</ele><time>2026-04-05T11:05:43.846Z</time></trkpt><trkpt lat="44.8293817" lon="7.94731"><ele>344.0</ele><time>2026-04-05T11:05:44.845Z</time></trkpt><trkpt lat="44.8292683" lon="7.9472967"><ele>344.0</ele><time>2026-04-05T11:05:45.846Z</time></trkpt><trkpt lat="44.829155" lon="7.9472983"><ele>342.4</ele><time>2026-04-05T11:05:46.846Z</time></trkpt><trkpt lat="44.8290417" lon="7.9473083"><ele>340.79999999999995</ele><time>2026-04-05T11:05:47.846Z</time></trkpt><trkpt lat="44.82893" lon="7.9473233"><ele>339.20000000000005</ele><time>2026-04-05T11:05:48.845Z</time></trkpt><trkpt lat="44.8288183" lon="7.9473367"><ele>337.6</ele><time>2026-04-05T11:05:49.846Z</time></trkpt><trkpt lat="44.8287083" lon="7.9473467"><ele>336.0</ele><time>2026-04-05T11:05:50.846Z</time></trkpt><trkpt lat="44.8285983" lon="7.9473533"><ele>336.0</ele><time>2026-04-05T11:05:51.846Z</time></trkpt><trkpt lat="44.82849" lon="7.9473617"><ele>336.0</ele><time>2026-04-05T11:05:52.846Z</time></trkpt><trkpt lat="44.82838" lon="7.9473683"><ele>336.0</ele><time>2026-04-05T11:05:53.846Z</time></trkpt><trkpt lat="44.8282683" lon="7.94737"><ele>336.0</ele><time>2026-04-05T11:05:54.846Z</time></trkpt><trkpt lat="44.8281567" lon="7.94737"><ele>336.0</ele><time>2026-04-05T11:05:55.846Z</time></trkpt><trkpt lat="44.828045" lon="7.9473567"><ele>334.0</ele><time>2026-04-05T11:05:56.846Z</time></trkpt><trkpt lat="44.8279367" lon="7.94732"><ele>332.0</ele><time>2026-04-05T11:05:57.846Z</time></trkpt><trkpt lat="44.8278383" lon="7.947245"><ele>330.0</ele><time>2026-04-05T11:05:58.846Z</time></trkpt><trkpt lat="44.8277583" lon="7.9471367"><ele>328.0</ele><time>2026-04-05T11:05:59.846Z</time></trkpt><trkpt lat="44.8276983" lon="7.9469917"><ele>328.0</ele><time>2026-04-05T11:06:00.846Z</time></trkpt><trkpt lat="44.827645" lon="7.9468233"><ele>328.0</ele><time>2026-04-05T11:06:01.845Z</time></trkpt><trkpt lat="44.827595" lon="7.94665"><ele>328.0</ele><time>2026-04-05T11:06:02.846Z</time></trkpt><trkpt lat="44.82755" lon="7.94648"><ele>328.0</ele><time>2026-04-05T11:06:03.846Z</time></trkpt><trkpt lat="44.8274983" lon="7.9463183"><ele>326.25</ele><time>2026-04-05T11:06:04.846Z</time></trkpt><trkpt lat="44.8274383" lon="7.94617"><ele>324.5</ele><time>2026-04-05T11:06:05.846Z</time></trkpt><trkpt lat="44.827365" lon="7.9460367"><ele>322.75</ele><time>2026-04-05T11:06:06.846Z</time></trkpt><trkpt lat="44.8272817" lon="7.9459167"><ele>321.0</ele><time>2026-04-05T11:06:07.846Z</time></trkpt><trkpt lat="44.8271917" lon="7.9458067"><ele>320.0</ele><time>2026-04-05T11:06:08.846Z</time></trkpt><trkpt lat="44.8270967" lon="7.9457067"><ele>319.0</ele><time>2026-04-05T11:06:09.846Z</time></trkpt><trkpt lat="44.8270017" lon="7.9456133"><ele>318.0</ele><time>2026-04-05T11:06:10.846Z</time></trkpt><trkpt lat="44.8269083" lon="7.94552"><ele>317.0</ele><time>2026-04-05T11:06:11.846Z</time></trkpt><trkpt lat="44.8268133" lon="7.9454167"><ele>315.0</ele><time>2026-04-05T11:06:12.846Z</time></trkpt><trkpt lat="44.8267217" lon="7.9452967"><ele>313.0</ele><time>2026-04-05T11:06:13.845Z</time></trkpt><trkpt lat="44.826635" lon="7.9451617"><ele>311.0</ele><time>2026-04-05T11:06:14.846Z</time></trkpt><trkpt lat="44.8265567" lon="7.9450183"><ele>309.0</ele><time>2026-04-05T11:06:15.846Z</time></trkpt><trkpt lat="44.826475" lon="7.9448783"><ele>308.25</ele><time>2026-04-05T11:06:16.846Z</time></trkpt><trkpt lat="44.8263917" lon="7.9447433"><ele>307.5</ele><time>2026-04-05T11:06:17.846Z</time></trkpt><trkpt lat="44.8263083" lon="7.94461"><ele>306.75</ele><time>2026-04-05T11:06:18.846Z</time></trkpt><trkpt lat="44.82623" lon="7.9444767"><ele>306.0</ele><time>2026-04-05T11:06:19.846Z</time></trkpt><trkpt lat="44.82615" lon="7.9443517"><ele>306.0</ele><time>2026-04-05T11:06:20.846Z</time></trkpt><trkpt lat="44.8260633" lon="7.9442317"><ele>306.0</ele><time>2026-04-05T11:06:21.846Z</time></trkpt><trkpt lat="44.82597" lon="7.9441217"><ele>306.0</ele><time>2026-04-05T11:06:22.846Z</time></trkpt><trkpt lat="44.82587" lon="7.944035"><ele>306.0</ele><time>2026-04-05T11:06:23.846Z</time></trkpt><trkpt lat="44.825765" lon="7.9439683"><ele>304.5</ele><time>2026-04-05T11:06:24.846Z</time></trkpt><trkpt lat="44.825655" lon="7.9439133"><ele>303.0</ele><time>2026-04-05T11:06:25.845Z</time></trkpt><trkpt lat="44.82554" lon="7.943875"><ele>301.5</ele><time>2026-04-05T11:06:26.846Z</time></trkpt><trkpt lat="44.8254267" lon="7.9438433"><ele>300.0</ele><time>2026-04-05T11:06:27.845Z</time></trkpt><trkpt lat="44.8253083" lon="7.9438133"><ele>300.0</ele><time>2026-04-05T11:06:28.846Z</time></trkpt><trkpt lat="44.82519" lon="7.9437883"><ele>300.0</ele><time>2026-04-05T11:06:29.846Z</time></trkpt><trkpt lat="44.8250767" lon="7.9437617"><ele>300.0</ele><time>2026-04-05T11:06:30.846Z</time></trkpt><trkpt lat="44.8249667" lon="7.9437333"><ele>300.0</ele><time>2026-04-05T11:06:31.845Z</time></trkpt><trkpt lat="44.824865" lon="7.9437117"><ele>300.0</ele><time>2026-04-05T11:06:32.845Z</time></trkpt><trkpt lat="44.8247667" lon="7.9436917"><ele>299.6</ele><time>2026-04-05T11:06:33.846Z</time></trkpt><trkpt lat="44.8246733" lon="7.9436683"><ele>299.2</ele><time>2026-04-05T11:06:34.846Z</time></trkpt><trkpt lat="44.8245767" lon="7.9436333"><ele>298.8</ele><time>2026-04-05T11:06:35.846Z</time></trkpt><trkpt lat="44.8244783" lon="7.943585"><ele>298.4</ele><time>2026-04-05T11:06:36.846Z</time></trkpt><trkpt lat="44.8243917" lon="7.9435283"><ele>298.0</ele><time>2026-04-05T11:06:37.846Z</time></trkpt><trkpt lat="44.824315" lon="7.94347"><ele>297.8333333333333</ele><time>2026-04-05T11:06:38.846Z</time></trkpt><trkpt lat="44.8242467" lon="7.943405"><ele>297.66666666666663</ele><time>2026-04-05T11:06:39.845Z</time></trkpt><trkpt lat="44.8241917" lon="7.9433333"><ele>297.5</ele><time>2026-04-05T11:06:40.846Z</time></trkpt><trkpt lat="44.8241533" lon="7.943245"><ele>297.3333333333333</ele><time>2026-04-05T11:06:41.845Z</time></trkpt><trkpt lat="44.82414" lon="7.9431383"><ele>297.1666666666667</ele><time>2026-04-05T11:06:42.846Z</time></trkpt><trkpt lat="44.8241583" lon="7.9430117"><ele>297.0</ele><time>2026-04-05T11:06:43.846Z</time></trkpt><trkpt lat="44.8242067" lon="7.9428717"><ele>296.75</ele><time>2026-04-05T11:06:44.846Z</time></trkpt><trkpt lat="44.8242617" lon="7.94272"><ele>296.5</ele><time>2026-04-05T11:06:45.845Z</time></trkpt><trkpt lat="44.8243167" lon="7.9425617"><ele>296.25</ele><time>2026-04-05T11:06:46.846Z</time></trkpt><trkpt lat="44.8243717" lon="7.9424167"><ele>296.0</ele><time>2026-04-05T11:06:47.846Z</time></trkpt><trkpt lat="44.824425" lon="7.9422833"><ele>295.40000000000003</ele><time>2026-04-05T11:06:48.846Z</time></trkpt><trkpt lat="44.8244783" lon="7.9421533"><ele>294.8</ele><time>2026-04-05T11:06:49.845Z</time></trkpt><trkpt lat="44.8245283" lon="7.9420183"><ele>294.20000000000005</ele><time>2026-04-05T11:06:50.845Z</time></trkpt><trkpt lat="44.8245733" lon="7.9418817"><ele>293.6</ele><time>2026-04-05T11:06:51.846Z</time></trkpt><trkpt lat="44.82462" lon="7.94175"><ele>293.0</ele><time>2026-04-05T11:06:52.846Z</time></trkpt><trkpt lat="44.82467" lon="7.9416267"><ele>292.83333333333337</ele><time>2026-04-05T11:06:53.846Z</time></trkpt><trkpt lat="44.8247217" lon="7.9415133"><ele>292.6666666666667</ele><time>2026-04-05T11:06:54.845Z</time></trkpt><trkpt lat="44.8247667" lon="7.9414"><ele>292.5</ele><time>2026-04-05T11:06:55.846Z</time></trkpt><trkpt lat="44.8248083" lon="7.94129"><ele>292.3333333333333</ele><time>2026-04-05T11:06:56.846Z</time></trkpt><trkpt lat="44.824845" lon="7.941185"><ele>292.16666666666663</ele><time>2026-04-05T11:06:57.846Z</time></trkpt><trkpt lat="44.82487" lon="7.9410717"><ele>292.0</ele><time>2026-04-05T11:06:58.846Z</time></trkpt><trkpt lat="44.8248717" lon="7.9409717"><ele>292.0</ele><time>2026-04-05T11:06:59.846Z</time></trkpt><trkpt lat="44.82483" lon="7.9408183"><ele>293.0</ele><time>2026-04-05T11:07:01.846Z</time></trkpt><trkpt lat="44.8247733" lon="7.9407"><ele>293.0</ele><time>2026-04-05T11:07:03.845Z</time></trkpt><trkpt lat="44.8247217" lon="7.9406167"><ele>293.0</ele><time>2026-04-05T11:07:05.846Z</time></trkpt></trkseg><trkseg><trkpt lat="44.828415" lon="7.93381"><ele>290.0</ele><time>2026-04-05T11:18:27.07Z</time></trkpt><trkpt lat="44.8282067" lon="7.9337183"><ele>290.0</ele><time>2026-04-05T11:18:32.07Z</time></trkpt><trkpt lat="44.8281767" lon="7.9336317"><ele>290.0</ele><time>2026-04-05T11:18:42.847Z</time></trkpt><trkpt lat="44.8281267" lon="7.9335317"><ele>290.0</ele><time>2026-04-05T11:18:54.847Z</time></trkpt><trkpt lat="44.8280933" lon="7.93342"><ele>290.0</ele><time>2026-04-05T11:18:56.847Z</time></trkpt><trkpt lat="44.8280417" lon="7.9333633"><ele>290.0</ele><time>2026-04-05T11:18:58.847Z</time></trkpt><trkpt lat="44.8279767" lon="7.9333633"><ele>290.0</ele><time>2026-04-05T11:19:12.846Z</time></trkpt><trkpt lat="44.827895" lon="7.933525"><ele>290.0</ele><time>2026-04-05T11:19:14.847Z</time></trkpt><trkpt lat="44.8278483" lon="7.93364"><ele>290.0</ele><time>2026-04-05T11:19:15.847Z</time></trkpt><trkpt lat="44.8277917" lon="7.9337683"><ele>290.0</ele><time>2026-04-05T11:19:16.846Z</time></trkpt><trkpt lat="44.82774" lon="7.9338933"><ele>290.0</ele><time>2026-04-05T11:19:17.847Z</time></trkpt><trkpt lat="44.8276883" lon="7.9340117"><ele>290.0</ele><time>2026-04-05T11:19:18.847Z</time></trkpt><trkpt lat="44.8276417" lon="7.93414"><ele>290.0</ele><time>2026-04-05T11:19:19.847Z</time></trkpt><trkpt lat="44.8275933" lon="7.9342617"><ele>290.0</ele><time>2026-04-05T11:19:20.847Z</time></trkpt><trkpt lat="44.827545" lon="7.93438"><ele>290.0</ele><time>2026-04-05T11:19:21.846Z</time></trkpt><trkpt lat="44.8275017" lon="7.9344917"><ele>290.0</ele><time>2026-04-05T11:19:22.847Z</time></trkpt><trkpt lat="44.8274633" lon="7.9345967"><ele>290.0</ele><time>2026-04-05T11:19:23.847Z</time></trkpt><trkpt lat="44.8274283" lon="7.9347"><ele>290.0</ele><time>2026-04-05T11:19:24.846Z</time></trkpt><trkpt lat="44.82739" lon="7.9348"><ele>290.0</ele><time>2026-04-05T11:19:25.847Z</time></trkpt><trkpt lat="44.8273483" lon="7.9348933"><ele>290.0</ele><time>2026-04-05T11:19:26.847Z</time></trkpt><trkpt lat="44.8273033" lon="7.9349683"><ele>290.0</ele><time>2026-04-05T11:19:27.847Z</time></trkpt><trkpt lat="44.8272517" lon="7.93503"><ele>290.0</ele><time>2026-04-05T11:19:28.846Z</time></trkpt><trkpt lat="44.8271883" lon="7.93506"><ele>290.0</ele><time>2026-04-05T11:19:29.847Z</time></trkpt><trkpt lat="44.8271133" lon="7.9350467"><ele>290.0</ele><time>2026-04-05T11:19:30.846Z</time></trkpt><trkpt lat="44.8270283" lon="7.935"><ele>290.0</ele><time>2026-04-05T11:19:31.846Z</time></trkpt><trkpt lat="44.8269417" lon="7.9349383"><ele>290.0</ele><time>2026-04-05T11:19:32.847Z</time></trkpt><trkpt lat="44.82685" lon="7.9348733"><ele>289.6</ele><time>2026-04-05T11:19:33.847Z</time></trkpt><trkpt lat="44.8267567" lon="7.9348117"><ele>289.2</ele><time>2026-04-05T11:19:34.847Z</time></trkpt><trkpt lat="44.8266567" lon="7.9347433"><ele>288.8</ele><time>2026-04-05T11:19:35.847Z</time></trkpt><trkpt lat="44.8265533" lon="7.9346717"><ele>288.4</ele><time>2026-04-05T11:19:36.847Z</time></trkpt><trkpt lat="44.82645" lon="7.934605"><ele>288.0</ele><time>2026-04-05T11:19:37.846Z</time></trkpt><trkpt lat="44.826355" lon="7.9345417"><ele>288.0</ele><time>2026-04-05T11:19:38.847Z</time></trkpt><trkpt lat="44.8262617" lon="7.9344817"><ele>288.0</ele><time>2026-04-05T11:19:39.847Z</time></trkpt><trkpt lat="44.8261667" lon="7.9344117"><ele>288.0</ele><time>2026-04-05T11:19:40.847Z</time></trkpt><trkpt lat="44.82607" lon="7.9343383"><ele>288.0</ele><time>2026-04-05T11:19:41.847Z</time></trkpt><trkpt lat="44.82598" lon="7.9342717"><ele>288.0</ele><time>2026-04-05T11:19:42.847Z</time></trkpt><trkpt lat="44.8258967" lon="7.9342067"><ele>288.5</ele><time>2026-04-05T11:19:43.847Z</time></trkpt><trkpt lat="44.8258267" lon="7.934135"><ele>289.0</ele><time>2026-04-05T11:19:44.847Z</time></trkpt><trkpt lat="44.8257717" lon="7.9340533"><ele>289.5</ele><time>2026-04-05T11:19:45.847Z</time></trkpt><trkpt lat="44.8257283" lon="7.933955"><ele>290.0</ele><time>2026-04-05T11:19:46.847Z</time></trkpt><trkpt lat="44.8257067" lon="7.9338367"><ele>290.5</ele><time>2026-04-05T11:19:47.847Z</time></trkpt><trkpt lat="44.8257117" lon="7.9336867"><ele>291.0</ele><time>2026-04-05T11:19:48.846Z</time></trkpt><trkpt lat="44.82573" lon="7.9335267"><ele>290.25</ele><time>2026-04-05T11:19:49.847Z</time></trkpt><trkpt lat="44.8257483" lon="7.9333567"><ele>289.5</ele><time>2026-04-05T11:19:50.847Z</time></trkpt><trkpt lat="44.8257583" lon="7.9331883"><ele>288.75</ele><time>2026-04-05T11:19:51.847Z</time></trkpt><trkpt lat="44.8257617" lon="7.9330233"><ele>288.0</ele><time>2026-04-05T11:19:52.846Z</time></trkpt><trkpt lat="44.8257583" lon="7.9328583"><ele>288.0</ele><time>2026-04-05T11:19:53.846Z</time></trkpt><trkpt lat="44.8257517" lon="7.9327017"><ele>288.0</ele><time>2026-04-05T11:19:54.847Z</time></trkpt><trkpt lat="44.8257483" lon="7.932545"><ele>288.0</ele><time>2026-04-05T11:19:55.847Z</time></trkpt><trkpt lat="44.8257417" lon="7.9323967"><ele>288.0</ele><time>2026-04-05T11:19:56.847Z</time></trkpt><trkpt lat="44.8257333" lon="7.932255"><ele>288.0</ele><time>2026-04-05T11:19:57.847Z</time></trkpt><trkpt lat="44.825725" lon="7.9321133"><ele>288.3333333333333</ele><time>2026-04-05T11:19:58.847Z</time></trkpt><trkpt lat="44.8257217" lon="7.93198"><ele>288.6666666666667</ele><time>2026-04-05T11:19:59.847Z</time></trkpt><trkpt lat="44.8257217" lon="7.9318483"><ele>289.0</ele><time>2026-04-05T11:20:00.847Z</time></trkpt><trkpt lat="44.82572" lon="7.9317217"><ele>289.33333333333337</ele><time>2026-04-05T11:20:01.847Z</time></trkpt><trkpt lat="44.8257117" lon="7.931605"><ele>289.6666666666667</ele><time>2026-04-05T11:20:02.846Z</time></trkpt><trkpt lat="44.8256833" lon="7.931495"><ele>290.0</ele><time>2026-04-05T11:20:03.846Z</time></trkpt><trkpt lat="44.825635" lon="7.9313967"><ele>290.0</ele><time>2026-04-05T11:20:04.847Z</time></trkpt><trkpt lat="44.82556" lon="7.93131"><ele>290.0</ele><time>2026-04-05T11:20:05.847Z</time></trkpt><trkpt lat="44.82547" lon="7.9312283"><ele>290.0</ele><time>2026-04-05T11:20:06.847Z</time></trkpt><trkpt lat="44.8253733" lon="7.93115"><ele>290.0</ele><time>2026-04-05T11:20:07.847Z</time></trkpt><trkpt lat="44.8252783" lon="7.9310733"><ele>290.0</ele><time>2026-04-05T11:20:08.846Z</time></trkpt><trkpt lat="44.825175" lon="7.930995"><ele>289.75</ele><time>2026-04-05T11:20:09.847Z</time></trkpt><trkpt lat="44.825065" lon="7.9309167"><ele>289.5</ele><time>2026-04-05T11:20:10.847Z</time></trkpt><trkpt lat="44.8249533" lon="7.9308383"><ele>289.25</ele><time>2026-04-05T11:20:11.847Z</time></trkpt><trkpt lat="44.8248433" lon="7.9307567"><ele>289.0</ele><time>2026-04-05T11:20:12.847Z</time></trkpt><trkpt lat="44.8247383" lon="7.9306783"><ele>289.5</ele><time>2026-04-05T11:20:13.847Z</time></trkpt><trkpt lat="44.8246283" lon="7.930605"><ele>290.0</ele><time>2026-04-05T11:20:14.846Z</time></trkpt><trkpt lat="44.8245233" lon="7.93054"><ele>290.5</ele><time>2026-04-05T11:20:15.846Z</time></trkpt><trkpt lat="44.82442" lon="7.9304733"><ele>291.0</ele><time>2026-04-05T11:20:16.847Z</time></trkpt><trkpt lat="44.824315" lon="7.9304033"><ele>292.2</ele><time>2026-04-05T11:20:17.847Z</time></trkpt><trkpt lat="44.824215" lon="7.9303317"><ele>293.40000000000003</ele><time>2026-04-05T11:20:18.847Z</time></trkpt><trkpt lat="44.8241233" lon="7.9302617"><ele>294.6</ele><time>2026-04-05T11:20:19.847Z</time></trkpt><trkpt lat="44.8240267" lon="7.930195"><ele>295.8</ele><time>2026-04-05T11:20:20.847Z</time></trkpt><trkpt lat="44.823935" lon="7.9301233"><ele>297.0</ele><time>2026-04-05T11:20:21.846Z</time></trkpt><trkpt lat="44.823835" lon="7.9300517"><ele>297.0</ele><time>2026-04-05T11:20:22.847Z</time></trkpt><trkpt lat="44.8237417" lon="7.9299867"><ele>297.0</ele><time>2026-04-05T11:20:23.847Z</time></trkpt><trkpt lat="44.82364" lon="7.9299217"><ele>297.0</ele><time>2026-04-05T11:20:24.847Z</time></trkpt><trkpt lat="44.8235433" lon="7.9298533"><ele>297.0</ele><time>2026-04-05T11:20:25.847Z</time></trkpt><trkpt lat="44.823445" lon="7.9297817"><ele>297.0</ele><time>2026-04-05T11:20:26.847Z</time></trkpt><trkpt lat="44.82335" lon="7.9297117"><ele>298.2</ele><time>2026-04-05T11:20:27.847Z</time></trkpt><trkpt lat="44.8232567" lon="7.9296467"><ele>299.4</ele><time>2026-04-05T11:20:28.847Z</time></trkpt><trkpt lat="44.8231617" lon="7.9295717"><ele>300.6</ele><time>2026-04-05T11:20:29.847Z</time></trkpt><trkpt lat="44.8230617" lon="7.929495"><ele>301.8</ele><time>2026-04-05T11:20:30.847Z</time></trkpt><trkpt lat="44.822955" lon="7.9294233"><ele>303.0</ele><time>2026-04-05T11:20:31.847Z</time></trkpt><trkpt lat="44.8228567" lon="7.92935"><ele>303.0</ele><time>2026-04-05T11:20:32.847Z</time></trkpt><trkpt lat="44.8227533" lon="7.9292717"><ele>303.0</ele><time>2026-04-05T11:20:33.847Z</time></trkpt><trkpt lat="44.8226517" lon="7.929195"><ele>303.0</ele><time>2026-04-05T11:20:34.847Z</time></trkpt><trkpt lat="44.82254" lon="7.9291133"><ele>303.0</ele><time>2026-04-05T11:20:35.847Z</time></trkpt><trkpt lat="44.82242" lon="7.929025"><ele>303.0</ele><time>2026-04-05T11:20:36.847Z</time></trkpt><trkpt lat="44.8223017" lon="7.9289367"><ele>303.0</ele><time>2026-04-05T11:20:37.847Z</time></trkpt><trkpt lat="44.8221817" lon="7.92885"><ele>303.0</ele><time>2026-04-05T11:20:38.847Z</time></trkpt><trkpt lat="44.8220633" lon="7.9287617"><ele>303.0</ele><time>2026-04-05T11:20:39.847Z</time></trkpt><trkpt lat="44.8219417" lon="7.9286733"><ele>303.0</ele><time>2026-04-05T11:20:40.847Z</time></trkpt><trkpt lat="44.8218183" lon="7.9285833"><ele>303.0</ele><time>2026-04-05T11:20:41.846Z</time></trkpt><trkpt lat="44.8216917" lon="7.9284967"><ele>303.0</ele><time>2026-04-05T11:20:42.847Z</time></trkpt><trkpt lat="44.821565" lon="7.9284067"><ele>303.0</ele><time>2026-04-05T11:20:43.847Z</time></trkpt><trkpt lat="44.8214367" lon="7.9283167"><ele>303.75</ele><time>2026-04-05T11:20:44.847Z</time></trkpt><trkpt lat="44.8213117" lon="7.92823"><ele>304.5</ele><time>2026-04-05T11:20:45.847Z</time></trkpt><trkpt lat="44.82119" lon="7.928145"><ele>305.25</ele><time>2026-04-05T11:20:46.847Z</time></trkpt><trkpt lat="44.8210733" lon="7.928065"><ele>306.0</ele><time>2026-04-05T11:20:47.847Z</time></trkpt><trkpt lat="44.8209583" lon="7.927985"><ele>306.25</ele><time>2026-04-05T11:20:48.847Z</time></trkpt><trkpt lat="44.8208483" lon="7.927905"><ele>306.5</ele><time>2026-04-05T11:20:49.847Z</time></trkpt><trkpt lat="44.8207433" lon="7.9278283"><ele>306.75</ele><time>2026-04-05T11:20:50.847Z</time></trkpt><trkpt lat="44.8206383" lon="7.9277533"><ele>307.0</ele><time>2026-04-05T11:20:51.846Z</time></trkpt><trkpt lat="44.8205267" lon="7.92767"><ele>307.0</ele><time>2026-04-05T11:20:52.846Z</time></trkpt><trkpt lat="44.8204233" lon="7.9275883"><ele>307.0</ele><time>2026-04-05T11:20:53.846Z</time></trkpt><trkpt lat="44.8203267" lon="7.9275133"><ele>307.0</ele><time>2026-04-05T11:20:54.847Z</time></trkpt><trkpt lat="44.820235" lon="7.92745"><ele>307.0</ele><time>2026-04-05T11:20:55.847Z</time></trkpt><trkpt lat="44.82015" lon="7.9274017"><ele>307.0</ele><time>2026-04-05T11:20:56.847Z</time></trkpt><trkpt lat="44.8200667" lon="7.92736"><ele>307.3333333333333</ele><time>2026-04-05T11:20:57.847Z</time></trkpt><trkpt lat="44.819985" lon="7.9273083"><ele>307.66666666666663</ele><time>2026-04-05T11:20:58.847Z</time></trkpt><trkpt lat="44.819905" lon="7.9272467"><ele>308.0</ele><time>2026-04-05T11:20:59.847Z</time></trkpt><trkpt lat="44.8198267" lon="7.9271967"><ele>308.3333333333333</ele><time>2026-04-05T11:21:00.847Z</time></trkpt><trkpt lat="44.8197567" lon="7.92715"><ele>308.6666666666667</ele><time>2026-04-05T11:21:01.847Z</time></trkpt><trkpt lat="44.8196917" lon="7.9270967"><ele>309.0</ele><time>2026-04-05T11:21:02.847Z</time></trkpt><trkpt lat="44.8195817" lon="7.927035"><ele>309.0</ele><time>2026-04-05T11:21:04.847Z</time></trkpt><trkpt lat="44.8194683" lon="7.9270867"><ele>309.0</ele><time>2026-04-05T11:21:06.847Z</time></trkpt><trkpt lat="44.8194117" lon="7.9271533"><ele>309.0</ele><time>2026-04-05T11:21:07.847Z</time></trkpt><trkpt lat="44.81934" lon="7.9272517"><ele>309.0</ele><time>2026-04-05T11:21:08.847Z</time></trkpt><trkpt lat="44.8192617" lon="7.9273467"><ele>309.0</ele><time>2026-04-05T11:21:09.847Z</time></trkpt><trkpt lat="44.8191733" lon="7.9274483"><ele>309.5</ele><time>2026-04-05T11:21:10.847Z</time></trkpt><trkpt lat="44.8190683" lon="7.9275617"><ele>310.0</ele><time>2026-04-05T11:21:11.847Z</time></trkpt><trkpt lat="44.8189583" lon="7.9276617"><ele>310.5</ele><time>2026-04-05T11:21:12.847Z</time></trkpt><trkpt lat="44.8188483" lon="7.9277367"><ele>311.0</ele><time>2026-04-05T11:21:13.846Z</time></trkpt><trkpt lat="44.81874" lon="7.9278117"><ele>311.0</ele><time>2026-04-05T11:21:14.847Z</time></trkpt><trkpt lat="44.818635" lon="7.92789"><ele>311.0</ele><time>2026-04-05T11:21:15.847Z</time></trkpt><trkpt lat="44.81852" lon="7.9279867"><ele>311.0</ele><time>2026-04-05T11:21:16.847Z</time></trkpt><trkpt lat="44.8184" lon="7.928085"><ele>311.0</ele><time>2026-04-05T11:21:17.846Z</time></trkpt><trkpt lat="44.8182817" lon="7.9281867"><ele>310.75</ele><time>2026-04-05T11:21:18.847Z</time></trkpt><trkpt lat="44.8181767" lon="7.92828"><ele>310.5</ele><time>2026-04-05T11:21:19.847Z</time></trkpt><trkpt lat="44.81807" lon="7.9283617"><ele>310.25</ele><time>2026-04-05T11:21:20.847Z</time></trkpt><trkpt lat="44.81797" lon="7.92843"><ele>310.0</ele><time>2026-04-05T11:21:21.847Z</time></trkpt><trkpt lat="44.8178683" lon="7.928455"><ele>310.0</ele><time>2026-04-05T11:21:22.847Z</time></trkpt><trkpt lat="44.817755" lon="7.9284533"><ele>310.0</ele><time>2026-04-05T11:21:23.847Z</time></trkpt><trkpt lat="44.8176417" lon="7.9284283"><ele>310.0</ele><time>2026-04-05T11:21:24.847Z</time></trkpt><trkpt lat="44.8175367" lon="7.9284017"><ele>310.0</ele><time>2026-04-05T11:21:25.846Z</time></trkpt><trkpt lat="44.8174483" lon="7.928405"><ele>310.0</ele><time>2026-04-05T11:21:26.846Z</time></trkpt><trkpt lat="44.8173633" lon="7.9284417"><ele>310.0</ele><time>2026-04-05T11:21:27.847Z</time></trkpt><trkpt lat="44.8173033" lon="7.928495"><ele>310.0</ele><time>2026-04-05T11:21:28.847Z</time></trkpt><trkpt lat="44.8172517" lon="7.9286067"><ele>310.0</ele><time>2026-04-05T11:21:29.847Z</time></trkpt><trkpt lat="44.8172033" lon="7.9287317"><ele>310.0</ele><time>2026-04-05T11:21:30.847Z</time></trkpt><trkpt lat="44.8171583" lon="7.928845"><ele>310.0</ele><time>2026-04-05T11:21:31.847Z</time></trkpt><trkpt lat="44.8170983" lon="7.9289317"><ele>310.0</ele><time>2026-04-05T11:21:32.847Z</time></trkpt><trkpt lat="44.8170217" lon="7.9290017"><ele>310.0</ele><time>2026-04-05T11:21:33.847Z</time></trkpt><trkpt lat="44.8169283" lon="7.9290433"><ele>310.0</ele><time>2026-04-05T11:21:34.847Z</time></trkpt><trkpt lat="44.8168217" lon="7.9290733"><ele>310.0</ele><time>2026-04-05T11:21:35.847Z</time></trkpt><trkpt lat="44.8167033" lon="7.92909"><ele>310.0</ele><time>2026-04-05T11:21:36.847Z</time></trkpt><trkpt lat="44.816585" lon="7.9290917"><ele>310.0</ele><time>2026-04-05T11:21:37.847Z</time></trkpt><trkpt lat="44.816475" lon="7.929095"><ele>310.4</ele><time>2026-04-05T11:21:38.847Z</time></trkpt><trkpt lat="44.8163683" lon="7.9290917"><ele>310.8</ele><time>2026-04-05T11:21:39.846Z</time></trkpt><trkpt lat="44.8162633" lon="7.9290867"><ele>311.2</ele><time>2026-04-05T11:21:40.847Z</time></trkpt><trkpt lat="44.8161567" lon="7.9290683"><ele>311.6</ele><time>2026-04-05T11:21:41.846Z</time></trkpt><trkpt lat="44.816055" lon="7.9290383"><ele>312.0</ele><time>2026-04-05T11:21:42.847Z</time></trkpt><trkpt lat="44.815955" lon="7.9289983"><ele>312.4</ele><time>2026-04-05T11:21:43.847Z</time></trkpt><trkpt lat="44.8158567" lon="7.92897"><ele>312.79999999999995</ele><time>2026-04-05T11:21:44.847Z</time></trkpt><trkpt lat="44.815765" lon="7.9289733"><ele>313.2</ele><time>2026-04-05T11:21:45.847Z</time></trkpt><trkpt lat="44.815685" lon="7.9290133"><ele>313.59999999999997</ele><time>2026-04-05T11:21:46.847Z</time></trkpt><trkpt lat="44.8156167" lon="7.9290883"><ele>314.0</ele><time>2026-04-05T11:21:47.847Z</time></trkpt><trkpt lat="44.8155517" lon="7.9291817"><ele>314.0</ele><time>2026-04-05T11:21:48.846Z</time></trkpt><trkpt lat="44.81548" lon="7.9292583"><ele>314.0</ele><time>2026-04-05T11:21:49.847Z</time></trkpt><trkpt lat="44.8153983" lon="7.9293033"><ele>314.0</ele><time>2026-04-05T11:21:50.847Z</time></trkpt><trkpt lat="44.8153067" lon="7.9293333"><ele>314.0</ele><time>2026-04-05T11:21:51.847Z</time></trkpt><trkpt lat="44.8152183" lon="7.9293567"><ele>314.0</ele><time>2026-04-05T11:21:52.846Z</time></trkpt><trkpt lat="44.8151317" lon="7.9293767"><ele>314.0</ele><time>2026-04-05T11:21:53.847Z</time></trkpt><trkpt lat="44.8150417" lon="7.9293883"><ele>313.8</ele><time>2026-04-05T11:21:54.846Z</time></trkpt><trkpt lat="44.8149433" lon="7.9294"><ele>313.59999999999997</ele><time>2026-04-05T11:21:55.846Z</time></trkpt><trkpt lat="44.8148333" lon="7.9294083"><ele>313.4</ele><time>2026-04-05T11:21:56.847Z</time></trkpt><trkpt lat="44.8147233" lon="7.9294133"><ele>313.2</ele><time>2026-04-05T11:21:57.847Z</time></trkpt><trkpt lat="44.8146267" lon="7.9294183"><ele>313.0</ele><time>2026-04-05T11:21:58.847Z</time></trkpt><trkpt lat="44.8145367" lon="7.9294217"><ele>313.0</ele><time>2026-04-05T11:21:59.846Z</time></trkpt><trkpt lat="44.81445" lon="7.9294233"><ele>313.0</ele><time>2026-04-05T11:22:00.847Z</time></trkpt><trkpt lat="44.8143533" lon="7.92943"><ele>313.0</ele><time>2026-04-05T11:22:01.847Z</time></trkpt><trkpt lat="44.81425" lon="7.9294383"><ele>313.0</ele><time>2026-04-05T11:22:02.847Z</time></trkpt><trkpt lat="44.8141483" lon="7.92946"><ele>313.0</ele><time>2026-04-05T11:22:03.847Z</time></trkpt><trkpt lat="44.8140617" lon="7.9294933"><ele>313.0</ele><time>2026-04-05T11:22:04.847Z</time></trkpt><trkpt lat="44.813985" lon="7.9295"><ele>313.0</ele><time>2026-04-05T11:22:05.847Z</time></trkpt><trkpt lat="44.8139083" lon="7.92947"><ele>313.0</ele><time>2026-04-05T11:22:06.847Z</time></trkpt><trkpt lat="44.8138283" lon="7.9294133"><ele>313.0</ele><time>2026-04-05T11:22:07.846Z</time></trkpt><trkpt lat="44.8137433" lon="7.9293183"><ele>313.0</ele><time>2026-04-05T11:22:08.847Z</time></trkpt><trkpt lat="44.8136683" lon="7.929225"><ele>312.8333333333333</ele><time>2026-04-05T11:22:09.847Z</time></trkpt><trkpt lat="44.813595" lon="7.929145"><ele>312.66666666666663</ele><time>2026-04-05T11:22:10.847Z</time></trkpt><trkpt lat="44.8135267" lon="7.9290733"><ele>312.5</ele><time>2026-04-05T11:22:11.847Z</time></trkpt><trkpt lat="44.8134533" lon="7.9290017"><ele>312.3333333333333</ele><time>2026-04-05T11:22:12.847Z</time></trkpt><trkpt lat="44.8133867" lon="7.9289333"><ele>312.1666666666667</ele><time>2026-04-05T11:22:13.847Z</time></trkpt><trkpt lat="44.8133217" lon="7.9288533"><ele>312.0</ele><time>2026-04-05T11:22:14.846Z</time></trkpt><trkpt lat="44.8132633" lon="7.92878"><ele>312.4</ele><time>2026-04-05T11:22:15.847Z</time></trkpt><trkpt lat="44.8131933" lon="7.92872"><ele>312.79999999999995</ele><time>2026-04-05T11:22:16.847Z</time></trkpt><trkpt lat="44.813115" lon="7.9286783"><ele>313.2</ele><time>2026-04-05T11:22:17.846Z</time></trkpt><trkpt lat="44.813025" lon="7.9286583"><ele>313.59999999999997</ele><time>2026-04-05T11:22:18.846Z</time></trkpt><trkpt lat="44.8129233" lon="7.9286683"><ele>314.0</ele><time>2026-04-05T11:22:19.847Z</time></trkpt><trkpt lat="44.8128167" lon="7.9286933"><ele>314.0</ele><time>2026-04-05T11:22:20.847Z</time></trkpt><trkpt lat="44.8126983" lon="7.92873"><ele>314.0</ele><time>2026-04-05T11:22:21.847Z</time></trkpt><trkpt lat="44.8125767" lon="7.928765"><ele>314.0</ele><time>2026-04-05T11:22:22.847Z</time></trkpt><trkpt lat="44.8124683" lon="7.9287933"><ele>314.0</ele><time>2026-04-05T11:22:23.847Z</time></trkpt><trkpt lat="44.81236" lon="7.9288167"><ele>314.25</ele><time>2026-04-05T11:22:24.847Z</time></trkpt><trkpt lat="44.8122483" lon="7.9288317"><ele>314.5</ele><time>2026-04-05T11:22:25.847Z</time></trkpt><trkpt lat="44.81213" lon="7.928835"><ele>314.75</ele><time>2026-04-05T11:22:26.847Z</time></trkpt><trkpt lat="44.8120067" lon="7.9288333"><ele>315.0</ele><time>2026-04-05T11:22:27.847Z</time></trkpt><trkpt lat="44.81188" lon="7.928825"><ele>315.0</ele><time>2026-04-05T11:22:28.847Z</time></trkpt><trkpt lat="44.8117617" lon="7.9288117"><ele>315.0</ele><time>2026-04-05T11:22:29.847Z</time></trkpt><trkpt lat="44.8116483" lon="7.9287917"><ele>315.0</ele><time>2026-04-05T11:22:30.846Z</time></trkpt><trkpt lat="44.81154" lon="7.928765"><ele>315.0</ele><time>2026-04-05T11:22:31.846Z</time></trkpt><trkpt lat="44.8114417" lon="7.92874"><ele>315.0</ele><time>2026-04-05T11:22:32.847Z</time></trkpt><trkpt lat="44.81135" lon="7.92872"><ele>315.0</ele><time>2026-04-05T11:22:33.847Z</time></trkpt><trkpt lat="44.8112683" lon="7.9286967"><ele>315.0</ele><time>2026-04-05T11:22:34.847Z</time></trkpt><trkpt lat="44.8111967" lon="7.9286567"><ele>315.0</ele><time>2026-04-05T11:22:35.847Z</time></trkpt><trkpt lat="44.8111317" lon="7.9285967"><ele>315.0</ele><time>2026-04-05T11:22:36.847Z</time></trkpt><trkpt lat="44.8110783" lon="7.92852"><ele>315.0</ele><time>2026-04-05T11:22:37.847Z</time></trkpt><trkpt lat="44.811015" lon="7.9284267"><ele>315.0</ele><time>2026-04-05T11:22:38.846Z</time></trkpt><trkpt lat="44.8109567" lon="7.9283033"><ele>315.6666666666667</ele><time>2026-04-05T11:22:39.847Z</time></trkpt><trkpt lat="44.8108983" lon="7.9281683"><ele>316.3333333333333</ele><time>2026-04-05T11:22:40.847Z</time></trkpt><trkpt lat="44.8108467" lon="7.928065"><ele>317.0</ele><time>2026-04-05T11:22:41.847Z</time></trkpt><trkpt lat="44.810795" lon="7.9280117"><ele>317.66666666666663</ele><time>2026-04-05T11:22:42.847Z</time></trkpt><trkpt lat="44.8107317" lon="7.92799"><ele>318.3333333333333</ele><time>2026-04-05T11:22:43.847Z</time></trkpt><trkpt lat="44.810655" lon="7.9279933"><ele>319.0</ele><time>2026-04-05T11:22:44.847Z</time></trkpt><trkpt lat="44.810585" lon="7.9279983"><ele>319.0</ele><time>2026-04-05T11:22:45.847Z</time></trkpt><trkpt lat="44.8105033" lon="7.928005"><ele>319.0</ele><time>2026-04-05T11:22:46.847Z</time></trkpt><trkpt lat="44.8104217" lon="7.9280083"><ele>319.0</ele><time>2026-04-05T11:22:47.847Z</time></trkpt><trkpt lat="44.8103333" lon="7.9280083"><ele>319.0</ele><time>2026-04-05T11:22:48.847Z</time></trkpt><trkpt lat="44.8102317" lon="7.9279833"><ele>319.0</ele><time>2026-04-05T11:22:49.847Z</time></trkpt><trkpt lat="44.8101233" lon="7.9279433"><ele>318.75</ele><time>2026-04-05T11:22:50.847Z</time></trkpt><trkpt lat="44.8100017" lon="7.9279033"><ele>318.5</ele><time>2026-04-05T11:22:51.847Z</time></trkpt><trkpt lat="44.8098767" lon="7.9278683"><ele>318.25</ele><time>2026-04-05T11:22:52.847Z</time></trkpt><trkpt lat="44.809755" lon="7.9278383"><ele>318.0</ele><time>2026-04-05T11:22:53.847Z</time></trkpt><trkpt lat="44.8096383" lon="7.9278133"><ele>318.0</ele><time>2026-04-05T11:22:54.847Z</time></trkpt><trkpt lat="44.809525" lon="7.9277883"><ele>318.0</ele><time>2026-04-05T11:22:55.847Z</time></trkpt><trkpt lat="44.8094183" lon="7.9277683"><ele>318.0</ele><time>2026-04-05T11:22:56.846Z</time></trkpt><trkpt lat="44.80932" lon="7.9277383"><ele>318.0</ele><time>2026-04-05T11:22:57.847Z</time></trkpt><trkpt lat="44.8092167" lon="7.9277033"><ele>318.0</ele><time>2026-04-05T11:22:58.846Z</time></trkpt><trkpt lat="44.8091133" lon="7.9276717"><ele>319.5</ele><time>2026-04-05T11:22:59.847Z</time></trkpt><trkpt lat="44.8090033" lon="7.92764"><ele>321.0</ele><time>2026-04-05T11:23:00.847Z</time></trkpt><trkpt lat="44.8088783" lon="7.9276217"><ele>322.5</ele><time>2026-04-05T11:23:01.847Z</time></trkpt><trkpt lat="44.80876" lon="7.9276133"><ele>324.0</ele><time>2026-04-05T11:23:02.847Z</time></trkpt><trkpt lat="44.8086483" lon="7.9276017"><ele>324.0</ele><time>2026-04-05T11:23:03.846Z</time></trkpt><trkpt lat="44.8085483" lon="7.927575"><ele>324.0</ele><time>2026-04-05T11:23:04.847Z</time></trkpt><trkpt lat="44.80847" lon="7.9275483"><ele>324.0</ele><time>2026-04-05T11:23:05.847Z</time></trkpt><trkpt lat="44.8084017" lon="7.9275283"><ele>324.0</ele><time>2026-04-05T11:23:06.847Z</time></trkpt><trkpt lat="44.8082933" lon="7.92755"><ele>324.0</ele><time>2026-04-05T11:23:08.847Z</time></trkpt><trkpt lat="44.808195" lon="7.92759"><ele>325.0</ele><time>2026-04-05T11:23:10.847Z</time></trkpt><trkpt lat="44.8080733" lon="7.9275067"><ele>326.0</ele><time>2026-04-05T11:23:12.847Z</time></trkpt><trkpt lat="44.8080033" lon="7.92741"><ele>327.0</ele><time>2026-04-05T11:23:13.847Z</time></trkpt><trkpt lat="44.80794" lon="7.9272833"><ele>328.0</ele><time>2026-04-05T11:23:14.846Z</time></trkpt><trkpt lat="44.8078883" lon="7.92716"><ele>329.0</ele><time>2026-04-05T11:23:15.846Z</time></trkpt><trkpt lat="44.8078483" lon="7.9270533"><ele>329.0</ele><time>2026-04-05T11:23:16.846Z</time></trkpt><trkpt lat="44.807805" lon="7.9269667"><ele>329.0</ele><time>2026-04-05T11:23:17.846Z</time></trkpt><trkpt lat="44.8077483" lon="7.9268967"><ele>329.0</ele><time>2026-04-05T11:23:18.847Z</time></trkpt><trkpt lat="44.8076917" lon="7.9268217"><ele>329.0</ele><time>2026-04-05T11:23:19.846Z</time></trkpt><trkpt lat="44.8076333" lon="7.9267467"><ele>329.0</ele><time>2026-04-05T11:23:20.847Z</time></trkpt><trkpt lat="44.8075783" lon="7.9266783"><ele>329.0</ele><time>2026-04-05T11:23:21.846Z</time></trkpt><trkpt lat="44.8075217" lon="7.9266233"><ele>329.0</ele><time>2026-04-05T11:23:22.847Z</time></trkpt><trkpt lat="44.8074517" lon="7.9265817"><ele>330.5</ele><time>2026-04-05T11:23:23.847Z</time></trkpt><trkpt lat="44.8073733" lon="7.9265517"><ele>332.0</ele><time>2026-04-05T11:23:24.847Z</time></trkpt><trkpt lat="44.8072883" lon="7.9265333"><ele>333.5</ele><time>2026-04-05T11:23:25.847Z</time></trkpt><trkpt lat="44.8072017" lon="7.926515"><ele>335.0</ele><time>2026-04-05T11:23:26.847Z</time></trkpt><trkpt lat="44.8071167" lon="7.9264983"><ele>336.5</ele><time>2026-04-05T11:23:27.847Z</time></trkpt><trkpt lat="44.8070333" lon="7.9264833"><ele>338.0</ele><time>2026-04-05T11:23:28.847Z</time></trkpt><trkpt lat="44.8069533" lon="7.926475"><ele>338.0</ele><time>2026-04-05T11:23:29.847Z</time></trkpt><trkpt lat="44.8068867" lon="7.9264767"><ele>338.0</ele><time>2026-04-05T11:23:30.847Z</time></trkpt><trkpt lat="44.8067717" lon="7.9264733"><ele>338.0</ele><time>2026-04-05T11:23:32.846Z</time></trkpt><trkpt lat="44.8066767" lon="7.9264067"><ele>338.0</ele><time>2026-04-05T11:23:34.847Z</time></trkpt><trkpt lat="44.8066217" lon="7.926245"><ele>338.0</ele><time>2026-04-05T11:23:36.847Z</time></trkpt><trkpt lat="44.8065983" lon="7.9261283"><ele>339.83333333333337</ele><time>2026-04-05T11:23:37.847Z</time></trkpt><trkpt lat="44.8065781" lon="7.926019"><ele>341.6666666666667</ele><time>2026-04-05T11:23:38.846Z</time></trkpt><trkpt lat="44.8065616" lon="7.9259303"><ele>343.5</ele><time>2026-04-05T11:23:39.847Z</time></trkpt><trkpt lat="44.8065477" lon="7.9258306"><ele>345.3333333333333</ele><time>2026-04-05T11:23:41.847Z</time></trkpt><trkpt lat="44.8064797" lon="7.9257973"><ele>347.16666666666663</ele><time>2026-04-05T11:23:45.847Z</time></trkpt><trkpt lat="44.8063852" lon="7.9258764"><ele>349.0</ele><time>2026-04-05T11:23:47.847Z</time></trkpt><trkpt lat="44.8063123" lon="7.9259275"><ele>349.0</ele><time>2026-04-05T11:23:48.847Z</time></trkpt><trkpt lat="44.8062268" lon="7.9259667"><ele>349.0</ele><time>2026-04-05T11:23:49.847Z</time></trkpt><trkpt lat="44.8061452" lon="7.9259864"><ele>349.0</ele><time>2026-04-05T11:23:50.847Z</time></trkpt><trkpt lat="44.8060484" lon="7.9259537"><ele>349.0</ele><time>2026-04-05T11:23:52.846Z</time></trkpt><trkpt lat="44.8060151" lon="7.9258193"><ele>349.0</ele><time>2026-04-05T11:23:55.847Z</time></trkpt><trkpt lat="44.8060309" lon="7.9256254"><ele>349.5</ele><time>2026-04-05T11:23:57.847Z</time></trkpt><trkpt lat="44.8060534" lon="7.925513"><ele>350.0</ele><time>2026-04-05T11:23:58.847Z</time></trkpt><trkpt lat="44.8060858" lon="7.9254061"><ele>350.5</ele><time>2026-04-05T11:23:59.847Z</time></trkpt><trkpt lat="44.8061372" lon="7.9253153"><ele>351.0</ele><time>2026-04-05T11:24:00.847Z</time></trkpt><trkpt lat="44.8062072" lon="7.925233"><ele>351.5</ele><time>2026-04-05T11:24:01.847Z</time></trkpt><trkpt lat="44.8062824" lon="7.9251521"><ele>352.0</ele><time>2026-04-05T11:24:02.847Z</time></trkpt><trkpt lat="44.8063544" lon="7.9250709"><ele>352.0</ele><time>2026-04-05T11:24:03.847Z</time></trkpt><trkpt lat="44.806421" lon="7.9249815"><ele>352.0</ele><time>2026-04-05T11:24:04.847Z</time></trkpt><trkpt lat="44.8064793" lon="7.9248846"><ele>352.0</ele><time>2026-04-05T11:24:05.847Z</time></trkpt><trkpt lat="44.8065256" lon="7.9247792"><ele>352.0</ele><time>2026-04-05T11:24:06.847Z</time></trkpt><trkpt lat="44.8065529" lon="7.924664"><ele>352.0</ele><time>2026-04-05T11:24:07.847Z</time></trkpt><trkpt lat="44.8065656" lon="7.9245385"><ele>352.0</ele><time>2026-04-05T11:24:08.847Z</time></trkpt><trkpt lat="44.8065715" lon="7.9244053"><ele>352.0</ele><time>2026-04-05T11:24:09.847Z</time></trkpt><trkpt lat="44.8065752" lon="7.9242636"><ele>352.0</ele><time>2026-04-05T11:24:10.847Z</time></trkpt><trkpt lat="44.8065807" lon="7.9241216"><ele>352.0</ele><time>2026-04-05T11:24:11.847Z</time></trkpt><trkpt lat="44.8065861" lon="7.9239791"><ele>352.0</ele><time>2026-04-05T11:24:12.847Z</time></trkpt><trkpt lat="44.8065995" lon="7.9238379"><ele>352.0</ele><time>2026-04-05T11:24:13.847Z</time></trkpt><trkpt lat="44.806614" lon="7.9236976"><ele>351.8</ele><time>2026-04-05T11:24:14.847Z</time></trkpt><trkpt lat="44.8066364" lon="7.9235543"><ele>351.6</ele><time>2026-04-05T11:24:15.846Z</time></trkpt><trkpt lat="44.8066528" lon="7.923417"><ele>351.40000000000003</ele><time>2026-04-05T11:24:16.847Z</time></trkpt><trkpt lat="44.8066752" lon="7.9232903"><ele>351.20000000000005</ele><time>2026-04-05T11:24:17.847Z</time></trkpt><trkpt lat="44.8067007" lon="7.9231811"><ele>351.0</ele><time>2026-04-05T11:24:18.847Z</time></trkpt><trkpt lat="44.80673" lon="7.9230737"><ele>351.14285714285717</ele><time>2026-04-05T11:24:19.847Z</time></trkpt><trkpt lat="44.8067653" lon="7.9229754"><ele>351.2857142857143</ele><time>2026-04-05T11:24:20.846Z</time></trkpt><trkpt lat="44.8068045" lon="7.9228818"><ele>351.42857142857144</ele><time>2026-04-05T11:24:21.847Z</time></trkpt><trkpt lat="44.8068348" lon="7.9227831"><ele>351.57142857142856</ele><time>2026-04-05T11:24:22.846Z</time></trkpt><trkpt lat="44.8068649" lon="7.9226893"><ele>351.7142857142857</ele><time>2026-04-05T11:24:23.847Z</time></trkpt><trkpt lat="44.8068971" lon="7.9226018"><ele>351.8571428571429</ele><time>2026-04-05T11:24:24.847Z</time></trkpt><trkpt lat="44.8069344" lon="7.9225195"><ele>352.0</ele><time>2026-04-05T11:24:25.847Z</time></trkpt><trkpt lat="44.8069717" lon="7.92243"><ele>352.0</ele><time>2026-04-05T11:24:26.846Z</time></trkpt><trkpt lat="44.8070083" lon="7.9223367"><ele>352.0</ele><time>2026-04-05T11:24:27.847Z</time></trkpt><trkpt lat="44.807045" lon="7.9222417"><ele>352.0</ele><time>2026-04-05T11:24:28.847Z</time></trkpt><trkpt lat="44.8070667" lon="7.9221433"><ele>352.0</ele><time>2026-04-05T11:24:29.846Z</time></trkpt><trkpt lat="44.8070783" lon="7.92204"><ele>352.0</ele><time>2026-04-05T11:24:30.846Z</time></trkpt><trkpt lat="44.8070767" lon="7.9219317"><ele>352.0</ele><time>2026-04-05T11:24:31.847Z</time></trkpt><trkpt lat="44.80707" lon="7.9218083"><ele>351.6</ele><time>2026-04-05T11:24:32.847Z</time></trkpt><trkpt lat="44.80706" lon="7.921675"><ele>351.20000000000005</ele><time>2026-04-05T11:24:33.847Z</time></trkpt><trkpt lat="44.8070433" lon="7.9215217"><ele>350.8</ele><time>2026-04-05T11:24:34.846Z</time></trkpt><trkpt lat="44.8070183" lon="7.9213583"><ele>350.4</ele><time>2026-04-05T11:24:35.846Z</time></trkpt><trkpt lat="44.8069883" lon="7.921195"><ele>350.0</ele><time>2026-04-05T11:24:36.847Z</time></trkpt><trkpt lat="44.806965" lon="7.9210417"><ele>350.5</ele><time>2026-04-05T11:24:37.846Z</time></trkpt><trkpt lat="44.8069317" lon="7.920885"><ele>351.0</ele><time>2026-04-05T11:24:38.847Z</time></trkpt><trkpt lat="44.806905" lon="7.9207283"><ele>351.5</ele><time>2026-04-05T11:24:39.846Z</time></trkpt><trkpt lat="44.8068717" lon="7.9205767"><ele>352.0</ele><time>2026-04-05T11:24:40.847Z</time></trkpt><trkpt lat="44.8068383" lon="7.9204317"><ele>349.6</ele><time>2026-04-05T11:24:41.847Z</time></trkpt><trkpt lat="44.8068117" lon="7.9202967"><ele>347.20000000000005</ele><time>2026-04-05T11:24:42.847Z</time></trkpt><trkpt lat="44.806785" lon="7.9201433"><ele>344.8</ele><time>2026-04-05T11:24:43.846Z</time></trkpt><trkpt lat="44.80676" lon="7.9199867"><ele>342.4</ele><time>2026-04-05T11:24:44.847Z</time></trkpt><trkpt lat="44.80674" lon="7.9198383"><ele>340.0</ele><time>2026-04-05T11:24:45.847Z</time></trkpt><trkpt lat="44.8067217" lon="7.9196883"><ele>339.2</ele><time>2026-04-05T11:24:46.847Z</time></trkpt><trkpt lat="44.8067117" lon="7.9195383"><ele>338.4</ele><time>2026-04-05T11:24:47.846Z</time></trkpt><trkpt lat="44.80669" lon="7.9193867"><ele>337.6</ele><time>2026-04-05T11:24:48.847Z</time></trkpt><trkpt lat="44.8066783" lon="7.9192433"><ele>336.8</ele><time>2026-04-05T11:24:49.846Z</time></trkpt><trkpt lat="44.80667" lon="7.9191017"><ele>336.0</ele><time>2026-04-05T11:24:50.847Z</time></trkpt><trkpt lat="44.806665" lon="7.9189567"><ele>336.0</ele><time>2026-04-05T11:24:51.847Z</time></trkpt><trkpt lat="44.8066567" lon="7.9188117"><ele>336.0</ele><time>2026-04-05T11:24:52.847Z</time></trkpt><trkpt lat="44.80665" lon="7.91867"><ele>336.0</ele><time>2026-04-05T11:24:53.847Z</time></trkpt><trkpt lat="44.8066283" lon="7.9185167"><ele>336.0</ele><time>2026-04-05T11:24:54.847Z</time></trkpt><trkpt lat="44.8066117" lon="7.9183583"><ele>336.0</ele><time>2026-04-05T11:24:55.847Z</time></trkpt><trkpt lat="44.806585" lon="7.9182"><ele>336.75</ele><time>2026-04-05T11:24:56.846Z</time></trkpt><trkpt lat="44.8065483" lon="7.918055"><ele>337.5</ele><time>2026-04-05T11:24:57.847Z</time></trkpt><trkpt lat="44.80651" lon="7.91791"><ele>338.25</ele><time>2026-04-05T11:24:58.847Z</time></trkpt><trkpt lat="44.8064617" lon="7.9177617"><ele>339.0</ele><time>2026-04-05T11:24:59.847Z</time></trkpt><trkpt lat="44.806415" lon="7.9176133"><ele>339.25</ele><time>2026-04-05T11:25:00.847Z</time></trkpt><trkpt lat="44.8063683" lon="7.9174633"><ele>339.5</ele><time>2026-04-05T11:25:01.847Z</time></trkpt><trkpt lat="44.8063167" lon="7.91732"><ele>339.75</ele><time>2026-04-05T11:25:02.847Z</time></trkpt><trkpt lat="44.8062717" lon="7.917175"><ele>340.0</ele><time>2026-04-05T11:25:03.847Z</time></trkpt><trkpt lat="44.8062267" lon="7.917025"><ele>340.0</ele><time>2026-04-05T11:25:04.847Z</time></trkpt><trkpt lat="44.8061783" lon="7.9168617"><ele>340.0</ele><time>2026-04-05T11:25:05.847Z</time></trkpt><trkpt lat="44.806125" lon="7.916675"><ele>340.0</ele><time>2026-04-05T11:25:06.847Z</time></trkpt><trkpt lat="44.8060717" lon="7.916485"><ele>340.0</ele><time>2026-04-05T11:25:07.847Z</time></trkpt><trkpt lat="44.80602" lon="7.9163"><ele>337.25</ele><time>2026-04-05T11:25:08.846Z</time></trkpt><trkpt lat="44.805965" lon="7.9161233"><ele>334.5</ele><time>2026-04-05T11:25:09.846Z</time></trkpt><trkpt lat="44.8059167" lon="7.9159533"><ele>331.75</ele><time>2026-04-05T11:25:10.847Z</time></trkpt><trkpt lat="44.80587" lon="7.915785"><ele>329.0</ele><time>2026-04-05T11:25:11.847Z</time></trkpt><trkpt lat="44.80582" lon="7.91562"><ele>329.0</ele><time>2026-04-05T11:25:12.847Z</time></trkpt><trkpt lat="44.8057817" lon="7.9154583"><ele>329.0</ele><time>2026-04-05T11:25:13.847Z</time></trkpt><trkpt lat="44.8057533" lon="7.9152667"><ele>329.0</ele><time>2026-04-05T11:25:14.847Z</time></trkpt><trkpt lat="44.8057517" lon="7.9150667"><ele>329.0</ele><time>2026-04-05T11:25:15.847Z</time></trkpt><trkpt lat="44.8057683" lon="7.9148667"><ele>328.0</ele><time>2026-04-05T11:25:16.847Z</time></trkpt><trkpt lat="44.805815" lon="7.9146567"><ele>327.0</ele><time>2026-04-05T11:25:17.847Z</time></trkpt><trkpt lat="44.8058817" lon="7.9144583"><ele>326.0</ele><time>2026-04-05T11:25:18.846Z</time></trkpt><trkpt lat="44.8059483" lon="7.91427"><ele>328.75</ele><time>2026-04-05T11:25:19.847Z</time></trkpt><trkpt lat="44.80601" lon="7.914095"><ele>331.5</ele><time>2026-04-05T11:25:20.847Z</time></trkpt><trkpt lat="44.80608" lon="7.9139183"><ele>334.25</ele><time>2026-04-05T11:25:21.847Z</time></trkpt><trkpt lat="44.80615" lon="7.913725"><ele>337.0</ele><time>2026-04-05T11:25:22.847Z</time></trkpt><trkpt lat="44.8062233" lon="7.91353"><ele>334.66666666666663</ele><time>2026-04-05T11:25:23.847Z</time></trkpt><trkpt lat="44.806285" lon="7.9133333"><ele>332.3333333333333</ele><time>2026-04-05T11:25:24.847Z</time></trkpt><trkpt lat="44.8063367" lon="7.9131333"><ele>330.0</ele><time>2026-04-05T11:25:25.847Z</time></trkpt><trkpt lat="44.806385" lon="7.9129267"><ele>330.0</ele><time>2026-04-05T11:25:26.847Z</time></trkpt><trkpt lat="44.8064233" lon="7.9127083"><ele>330.0</ele><time>2026-04-05T11:25:27.847Z</time></trkpt><trkpt lat="44.8064583" lon="7.9125133"><ele>330.0</ele><time>2026-04-05T11:25:28.847Z</time></trkpt><trkpt lat="44.8064933" lon="7.91233"><ele>330.0</ele><time>2026-04-05T11:25:29.847Z</time></trkpt><trkpt lat="44.8065367" lon="7.912135"><ele>328.5</ele><time>2026-04-05T11:25:30.847Z</time></trkpt><trkpt lat="44.8065817" lon="7.911945"><ele>327.0</ele><time>2026-04-05T11:25:31.847Z</time></trkpt><trkpt lat="44.8066217" lon="7.9117533"><ele>325.5</ele><time>2026-04-05T11:25:32.847Z</time></trkpt><trkpt lat="44.8066617" lon="7.9115733"><ele>324.0</ele><time>2026-04-05T11:25:33.847Z</time></trkpt><trkpt lat="44.8067033" lon="7.9113917"><ele>324.0</ele><time>2026-04-05T11:25:34.847Z</time></trkpt><trkpt lat="44.806745" lon="7.911205"><ele>324.0</ele><time>2026-04-05T11:25:35.847Z</time></trkpt><trkpt lat="44.806795" lon="7.91102"><ele>324.0</ele><time>2026-04-05T11:25:36.847Z</time></trkpt><trkpt lat="44.8068517" lon="7.91084"><ele>324.0</ele><time>2026-04-05T11:25:37.846Z</time></trkpt><trkpt lat="44.80691" lon="7.9106683"><ele>324.0</ele><time>2026-04-05T11:25:38.847Z</time></trkpt><trkpt lat="44.8069733" lon="7.9104967"><ele>324.0</ele><time>2026-04-05T11:25:39.847Z</time></trkpt><trkpt lat="44.8070333" lon="7.910325"><ele>324.0</ele><time>2026-04-05T11:25:40.846Z</time></trkpt><trkpt lat="44.8071067" lon="7.9101633"><ele>324.0</ele><time>2026-04-05T11:25:41.847Z</time></trkpt><trkpt lat="44.8071867" lon="7.910015"><ele>321.75</ele><time>2026-04-05T11:25:42.847Z</time></trkpt><trkpt lat="44.8072833" lon="7.9098767"><ele>319.5</ele><time>2026-04-05T11:25:43.847Z</time></trkpt><trkpt lat="44.807385" lon="7.9097583"><ele>317.25</ele><time>2026-04-05T11:25:44.847Z</time></trkpt><trkpt lat="44.8074817" lon="7.9096383"><ele>315.0</ele><time>2026-04-05T11:25:45.847Z</time></trkpt><trkpt lat="44.8075767" lon="7.9095333"><ele>315.0</ele><time>2026-04-05T11:25:46.847Z</time></trkpt><trkpt lat="44.8076583" lon="7.9094233"><ele>315.0</ele><time>2026-04-05T11:25:47.846Z</time></trkpt><trkpt lat="44.80774" lon="7.9093167"><ele>315.0</ele><time>2026-04-05T11:25:48.846Z</time></trkpt><trkpt lat="44.8078117" lon="7.9092167"><ele>315.0</ele><time>2026-04-05T11:25:49.847Z</time></trkpt><trkpt lat="44.8078767" lon="7.90912"><ele>315.0</ele><time>2026-04-05T11:25:50.847Z</time></trkpt><trkpt lat="44.8079367" lon="7.9090317"><ele>314.0</ele><time>2026-04-05T11:25:51.847Z</time></trkpt><trkpt lat="44.807995" lon="7.9089633"><ele>313.0</ele><time>2026-04-05T11:25:52.847Z</time></trkpt><trkpt lat="44.8080467" lon="7.9089067"><ele>312.0</ele><time>2026-04-05T11:25:53.847Z</time></trkpt><trkpt lat="44.8081133" lon="7.9088483"><ele>311.0</ele><time>2026-04-05T11:25:55.847Z</time></trkpt><trkpt lat="44.80818" lon="7.90882"><ele>310.0</ele><time>2026-04-05T11:25:57.846Z</time></trkpt><trkpt lat="44.8082867" lon="7.908825"><ele>309.0</ele><time>2026-04-05T11:25:59.847Z</time></trkpt><trkpt lat="44.80835" lon="7.908845"><ele>309.0</ele><time>2026-04-05T11:26:00.846Z</time></trkpt><trkpt lat="44.8084133" lon="7.908875"><ele>309.0</ele><time>2026-04-05T11:26:01.847Z</time></trkpt><trkpt lat="44.8084767" lon="7.9089017"><ele>309.0</ele><time>2026-04-05T11:26:02.846Z</time></trkpt><trkpt lat="44.8085933" lon="7.908915"><ele>309.0</ele><time>2026-04-05T11:26:04.847Z</time></trkpt><trkpt lat="44.808645" lon="7.908855"><ele>309.0</ele><time>2026-04-05T11:26:05.847Z</time></trkpt><trkpt lat="44.8086888" lon="7.9087521"><ele>309.0</ele><time>2026-04-05T11:26:06.847Z</time></trkpt><trkpt lat="44.8087264" lon="7.9086116"><ele>309.0</ele><time>2026-04-05T11:26:07.847Z</time></trkpt><trkpt lat="44.8087613" lon="7.9084471"><ele>309.0</ele><time>2026-04-05T11:26:08.847Z</time></trkpt><trkpt lat="44.8088005" lon="7.9082755"><ele>309.0</ele><time>2026-04-05T11:26:09.847Z</time></trkpt><trkpt lat="44.8088593" lon="7.9081046"><ele>309.0</ele><time>2026-04-05T11:26:10.846Z</time></trkpt><trkpt lat="44.8089346" lon="7.9079352"><ele>308.75</ele><time>2026-04-05T11:26:11.847Z</time></trkpt><trkpt lat="44.8090142" lon="7.9077701"><ele>308.5</ele><time>2026-04-05T11:26:12.847Z</time></trkpt><trkpt lat="44.8090891" lon="7.907612"><ele>308.25</ele><time>2026-04-05T11:26:13.846Z</time></trkpt><trkpt lat="44.8091539" lon="7.9074546"><ele>308.0</ele><time>2026-04-05T11:26:14.847Z</time></trkpt><trkpt lat="44.8092027" lon="7.9072985"><ele>309.2</ele><time>2026-04-05T11:26:15.847Z</time></trkpt><trkpt lat="44.8092284" lon="7.9071493"><ele>310.4</ele><time>2026-04-05T11:26:16.847Z</time></trkpt><trkpt lat="44.8092265" lon="7.9070112"><ele>311.59999999999997</ele><time>2026-04-05T11:26:17.847Z</time></trkpt><trkpt lat="44.8092031" lon="7.9068702"><ele>312.8</ele><time>2026-04-05T11:26:18.847Z</time></trkpt><trkpt lat="44.8091721" lon="7.9067155"><ele>314.0</ele><time>2026-04-05T11:26:19.847Z</time></trkpt><trkpt lat="44.8091363" lon="7.9065553"><ele>315.5</ele><time>2026-04-05T11:26:20.847Z</time></trkpt><trkpt lat="44.8091036" lon="7.9063893"><ele>317.0</ele><time>2026-04-05T11:26:21.847Z</time></trkpt><trkpt lat="44.8090709" lon="7.9062332"><ele>318.5</ele><time>2026-04-05T11:26:22.847Z</time></trkpt><trkpt lat="44.8090411" lon="7.90608"><ele>320.0</ele><time>2026-04-05T11:26:23.847Z</time></trkpt><trkpt lat="44.8090151" lon="7.9059297"><ele>320.5</ele><time>2026-04-05T11:26:24.846Z</time></trkpt><trkpt lat="44.8089888" lon="7.90577"><ele>321.0</ele><time>2026-04-05T11:26:25.847Z</time></trkpt><trkpt lat="44.8089655" lon="7.905611"><ele>321.5</ele><time>2026-04-05T11:26:26.847Z</time></trkpt><trkpt lat="44.8089455" lon="7.9054542"><ele>322.0</ele><time>2026-04-05T11:26:27.847Z</time></trkpt><trkpt lat="44.808928" lon="7.9053042"><ele>322.0</ele><time>2026-04-05T11:26:28.847Z</time></trkpt><trkpt lat="44.8089099" lon="7.9051563"><ele>322.0</ele><time>2026-04-05T11:26:29.847Z</time></trkpt><trkpt lat="44.8088929" lon="7.9050058"><ele>322.0</ele><time>2026-04-05T11:26:30.847Z</time></trkpt><trkpt lat="44.8088754" lon="7.9048528"><ele>322.0</ele><time>2026-04-05T11:26:31.847Z</time></trkpt><trkpt lat="44.8088412" lon="7.9047029"><ele>322.0</ele><time>2026-04-05T11:26:32.847Z</time></trkpt><trkpt lat="44.8087872" lon="7.9045645"><ele>323.20000000000005</ele><time>2026-04-05T11:26:33.847Z</time></trkpt><trkpt lat="44.8087123" lon="7.9044427"><ele>324.4</ele><time>2026-04-05T11:26:34.847Z</time></trkpt><trkpt lat="44.8086267" lon="7.9043394"><ele>325.6</ele><time>2026-04-05T11:26:35.847Z</time></trkpt><trkpt lat="44.8085434" lon="7.9042411"><ele>326.79999999999995</ele><time>2026-04-05T11:26:36.847Z</time></trkpt><trkpt lat="44.8084688" lon="7.9041266"><ele>328.0</ele><time>2026-04-05T11:26:37.846Z</time></trkpt><trkpt lat="44.8084116" lon="7.9039802"><ele>330.25</ele><time>2026-04-05T11:26:38.847Z</time></trkpt><trkpt lat="44.8083757" lon="7.9038187"><ele>332.5</ele><time>2026-04-05T11:26:39.847Z</time></trkpt><trkpt lat="44.8083559" lon="7.9036423"><ele>334.75</ele><time>2026-04-05T11:26:40.847Z</time></trkpt><trkpt lat="44.8083455" lon="7.9034768"><ele>337.0</ele><time>2026-04-05T11:26:41.847Z</time></trkpt><trkpt lat="44.8083364" lon="7.9033249"><ele>337.40000000000003</ele><time>2026-04-05T11:26:42.847Z</time></trkpt><trkpt lat="44.8083288" lon="7.9031899"><ele>337.8</ele><time>2026-04-05T11:26:43.847Z</time></trkpt><trkpt lat="44.8083243" lon="7.9030637"><ele>338.2</ele><time>2026-04-05T11:26:44.847Z</time></trkpt><trkpt lat="44.8083235" lon="7.9029318"><ele>338.6</ele><time>2026-04-05T11:26:45.847Z</time></trkpt><trkpt lat="44.8083181" lon="7.9027917"><ele>339.0</ele><time>2026-04-05T11:26:46.847Z</time></trkpt><trkpt lat="44.8082931" lon="7.9026561"><ele>338.0</ele><time>2026-04-05T11:26:47.847Z</time></trkpt><trkpt lat="44.8082495" lon="7.9025317"><ele>337.0</ele><time>2026-04-05T11:26:48.847Z</time></trkpt><trkpt lat="44.8081955" lon="7.9024189"><ele>336.0</ele><time>2026-04-05T11:26:49.846Z</time></trkpt><trkpt lat="44.8081392" lon="7.9023125"><ele>335.0</ele><time>2026-04-05T11:26:50.847Z</time></trkpt><trkpt lat="44.8080747" lon="7.902214"><ele>334.0</ele><time>2026-04-05T11:26:51.847Z</time></trkpt><trkpt lat="44.808011" lon="7.9021216"><ele>334.0</ele><time>2026-04-05T11:26:52.846Z</time></trkpt><trkpt lat="44.8079521" lon="7.9020326"><ele>334.0</ele><time>2026-04-05T11:26:53.847Z</time></trkpt><trkpt lat="44.8078933" lon="7.9019498"><ele>334.0</ele><time>2026-04-05T11:26:54.847Z</time></trkpt><trkpt lat="44.8078283" lon="7.90188"><ele>334.0</ele><time>2026-04-05T11:26:55.847Z</time></trkpt><trkpt lat="44.80775" lon="7.90181"><ele>334.0</ele><time>2026-04-05T11:26:56.847Z</time></trkpt><trkpt lat="44.8076733" lon="7.9017517"><ele>334.0</ele><time>2026-04-05T11:26:57.846Z</time></trkpt><trkpt lat="44.8075967" lon="7.90171"><ele>333.66666666666663</ele><time>2026-04-05T11:26:58.846Z</time></trkpt><trkpt lat="44.8075183" lon="7.9016817"><ele>333.3333333333333</ele><time>2026-04-05T11:26:59.847Z</time></trkpt><trkpt lat="44.80743" lon="7.9016683"><ele>333.0</ele><time>2026-04-05T11:27:00.847Z</time></trkpt><trkpt lat="44.8073483" lon="7.90166"><ele>332.6666666666667</ele><time>2026-04-05T11:27:01.847Z</time></trkpt><trkpt lat="44.8072733" lon="7.9016583"><ele>332.33333333333337</ele><time>2026-04-05T11:27:02.847Z</time></trkpt><trkpt lat="44.8072083" lon="7.90166"><ele>332.0</ele><time>2026-04-05T11:27:03.847Z</time></trkpt><trkpt lat="44.8071067" lon="7.901615"><ele>332.0</ele><time>2026-04-05T11:27:05.846Z</time></trkpt><trkpt lat="44.8070733" lon="7.9014533"><ele>332.0</ele><time>2026-04-05T11:27:07.847Z</time></trkpt><trkpt lat="44.8070817" lon="7.9013467"><ele>332.0</ele><time>2026-04-05T11:27:08.847Z</time></trkpt><trkpt lat="44.8070983" lon="7.9012383"><ele>332.0</ele><time>2026-04-05T11:27:09.847Z</time></trkpt><trkpt lat="44.8071317" lon="7.9011333"><ele>332.0</ele><time>2026-04-05T11:27:10.847Z</time></trkpt><trkpt lat="44.807175" lon="7.90104"><ele>332.0</ele><time>2026-04-05T11:27:11.847Z</time></trkpt><trkpt lat="44.80722" lon="7.9009433"><ele>330.33333333333337</ele><time>2026-04-05T11:27:12.847Z</time></trkpt><trkpt lat="44.8072533" lon="7.9008467"><ele>328.6666666666667</ele><time>2026-04-05T11:27:13.847Z</time></trkpt><trkpt lat="44.80728" lon="7.9007467"><ele>327.0</ele><time>2026-04-05T11:27:14.847Z</time></trkpt><trkpt lat="44.8073033" lon="7.9006433"><ele>325.3333333333333</ele><time>2026-04-05T11:27:15.847Z</time></trkpt><trkpt lat="44.8073183" lon="7.9005367"><ele>323.66666666666663</ele><time>2026-04-05T11:27:16.847Z</time></trkpt><trkpt lat="44.807335" lon="7.900435"><ele>322.0</ele><time>2026-04-05T11:27:17.847Z</time></trkpt><trkpt lat="44.807345" lon="7.90033"><ele>322.0</ele><time>2026-04-05T11:27:18.847Z</time></trkpt><trkpt lat="44.807345" lon="7.9002167"><ele>322.0</ele><time>2026-04-05T11:27:19.846Z</time></trkpt><trkpt lat="44.8073383" lon="7.90011"><ele>322.0</ele><time>2026-04-05T11:27:20.847Z</time></trkpt><trkpt lat="44.8073233" lon="7.900005"><ele>322.0</ele><time>2026-04-05T11:27:21.846Z</time></trkpt><trkpt lat="44.8072917" lon="7.8999083"><ele>322.0</ele><time>2026-04-05T11:27:22.847Z</time></trkpt><trkpt lat="44.807255" lon="7.8998183"><ele>322.0</ele><time>2026-04-05T11:27:23.847Z</time></trkpt><trkpt lat="44.8072567" lon="7.8996583"><ele>321.0</ele><time>2026-04-05T11:27:25.847Z</time></trkpt><trkpt lat="44.807355" lon="7.899535"><ele>320.0</ele><time>2026-04-05T11:27:27.846Z</time></trkpt><trkpt lat="44.8074267" lon="7.899475"><ele>319.0</ele><time>2026-04-05T11:27:28.846Z</time></trkpt><trkpt lat="44.8074883" lon="7.8994267"><ele>318.0</ele><time>2026-04-05T11:27:29.847Z</time></trkpt><trkpt lat="44.8075717" lon="7.8993217"><ele>317.0</ele><time>2026-04-05T11:27:31.847Z</time></trkpt><trkpt lat="44.80757" lon="7.8991383"><ele>316.6</ele><time>2026-04-05T11:27:33.847Z</time></trkpt><trkpt lat="44.8075533" lon="7.8990033"><ele>316.2</ele><time>2026-04-05T11:27:34.847Z</time></trkpt><trkpt lat="44.807545" lon="7.898875"><ele>315.8</ele><time>2026-04-05T11:27:35.847Z</time></trkpt><trkpt lat="44.80753" lon="7.8987517"><ele>315.4</ele><time>2026-04-05T11:27:36.847Z</time></trkpt><trkpt lat="44.807505" lon="7.8986383"><ele>315.0</ele><time>2026-04-05T11:27:37.847Z</time></trkpt><trkpt lat="44.80746" lon="7.89852"><ele>315.6</ele><time>2026-04-05T11:27:38.847Z</time></trkpt><trkpt lat="44.8073817" lon="7.898405"><ele>316.2</ele><time>2026-04-05T11:27:39.847Z</time></trkpt><trkpt lat="44.80731" lon="7.8982917"><ele>316.8</ele><time>2026-04-05T11:27:40.846Z</time></trkpt><trkpt lat="44.80725" lon="7.898185"><ele>317.4</ele><time>2026-04-05T11:27:41.847Z</time></trkpt><trkpt lat="44.8072033" lon="7.8981"><ele>318.0</ele><time>2026-04-05T11:27:42.847Z</time></trkpt><trkpt lat="44.8071517" lon="7.8980117"><ele>318.0</ele><time>2026-04-05T11:27:44.847Z</time></trkpt><trkpt lat="44.8070433" lon="7.8980267"><ele>318.0</ele><time>2026-04-05T11:27:48.847Z</time></trkpt><trkpt lat="44.8069833" lon="7.8980767"><ele>318.0</ele><time>2026-04-05T11:27:49.847Z</time></trkpt><trkpt lat="44.8069117" lon="7.89813"><ele>318.0</ele><time>2026-04-05T11:27:50.846Z</time></trkpt><trkpt lat="44.8068383" lon="7.898195"><ele>318.0</ele><time>2026-04-05T11:27:51.847Z</time></trkpt><trkpt lat="44.8067683" lon="7.89825"><ele>318.0</ele><time>2026-04-05T11:27:52.847Z</time></trkpt><trkpt lat="44.8067" lon="7.898275"><ele>318.6</ele><time>2026-04-05T11:27:53.847Z</time></trkpt><trkpt lat="44.8065933" lon="7.8981917"><ele>319.20000000000005</ele><time>2026-04-05T11:27:55.847Z</time></trkpt><trkpt lat="44.8065433" lon="7.8980983"><ele>319.8</ele><time>2026-04-05T11:27:56.847Z</time></trkpt><trkpt lat="44.8064833" lon="7.8979817"><ele>320.40000000000003</ele><time>2026-04-05T11:27:57.847Z</time></trkpt><trkpt lat="44.8064233" lon="7.89786"><ele>321.0</ele><time>2026-04-05T11:27:58.847Z</time></trkpt><trkpt lat="44.8063583" lon="7.8977383"><ele>321.0</ele><time>2026-04-05T11:27:59.847Z</time></trkpt><trkpt lat="44.8062933" lon="7.8976233"><ele>321.0</ele><time>2026-04-05T11:28:00.847Z</time></trkpt><trkpt lat="44.8062267" lon="7.897515"><ele>321.0</ele><time>2026-04-05T11:28:01.846Z</time></trkpt><trkpt lat="44.8061583" lon="7.8974217"><ele>321.0</ele><time>2026-04-05T11:28:02.847Z</time></trkpt><trkpt lat="44.8060933" lon="7.8973417"><ele>321.0</ele><time>2026-04-05T11:28:03.846Z</time></trkpt><trkpt lat="44.8060267" lon="7.8972833"><ele>322.1428571428571</ele><time>2026-04-05T11:28:04.847Z</time></trkpt><trkpt lat="44.8059583" lon="7.8972767"><ele>323.2857142857143</ele><time>2026-04-05T11:28:05.847Z</time></trkpt><trkpt lat="44.8058933" lon="7.8972983"><ele>324.42857142857144</ele><time>2026-04-05T11:28:06.847Z</time></trkpt><trkpt lat="44.8058233" lon="7.8973417"><ele>325.57142857142856</ele><time>2026-04-05T11:28:07.847Z</time></trkpt><trkpt lat="44.8057517" lon="7.8973633"><ele>326.7142857142857</ele><time>2026-04-05T11:28:08.847Z</time></trkpt><trkpt lat="44.8056883" lon="7.8973267"><ele>327.85714285714283</ele><time>2026-04-05T11:28:09.847Z</time></trkpt><trkpt lat="44.8056217" lon="7.897265"><ele>329.0</ele><time>2026-04-05T11:28:10.847Z</time></trkpt><trkpt lat="44.805555" lon="7.8971833"><ele>329.0</ele><time>2026-04-05T11:28:11.847Z</time></trkpt><trkpt lat="44.8054833" lon="7.8970967"><ele>329.0</ele><time>2026-04-05T11:28:12.846Z</time></trkpt><trkpt lat="44.8054117" lon="7.89702"><ele>329.0</ele><time>2026-04-05T11:28:13.847Z</time></trkpt><trkpt lat="44.80534" lon="7.8969533"><ele>329.0</ele><time>2026-04-05T11:28:14.847Z</time></trkpt><trkpt lat="44.8052667" lon="7.8969"><ele>329.0</ele><time>2026-04-05T11:28:15.847Z</time></trkpt><trkpt lat="44.8051867" lon="7.89685"><ele>329.0</ele><time>2026-04-05T11:28:16.847Z</time></trkpt><trkpt lat="44.8051083" lon="7.8968033"><ele>329.6666666666667</ele><time>2026-04-05T11:28:17.847Z</time></trkpt><trkpt lat="44.805035" lon="7.89676"><ele>330.33333333333337</ele><time>2026-04-05T11:28:18.846Z</time></trkpt><trkpt lat="44.80496" lon="7.89672"><ele>331.0</ele><time>2026-04-05T11:28:19.847Z</time></trkpt><trkpt lat="44.8048883" lon="7.8966833"><ele>331.6666666666667</ele><time>2026-04-05T11:28:20.847Z</time></trkpt><trkpt lat="44.8048183" lon="7.8966517"><ele>332.3333333333333</ele><time>2026-04-05T11:28:21.847Z</time></trkpt><trkpt lat="44.8047483" lon="7.8966133"><ele>333.0</ele><time>2026-04-05T11:28:22.847Z</time></trkpt><trkpt lat="44.8046767" lon="7.8965717"><ele>333.0</ele><time>2026-04-05T11:28:23.847Z</time></trkpt><trkpt lat="44.8046017" lon="7.8965233"><ele>333.0</ele><time>2026-04-05T11:28:24.847Z</time></trkpt><trkpt lat="44.8045267" lon="7.8964833"><ele>333.0</ele><time>2026-04-05T11:28:25.847Z</time></trkpt><trkpt lat="44.8044583" lon="7.8964533"><ele>333.0</ele><time>2026-04-05T11:28:26.847Z</time></trkpt><trkpt lat="44.804395" lon="7.896425"><ele>333.0</ele><time>2026-04-05T11:28:27.847Z</time></trkpt><trkpt lat="44.8043317" lon="7.896405"><ele>333.0</ele><time>2026-04-05T11:28:28.846Z</time></trkpt><trkpt lat="44.804225" lon="7.8963483"><ele>333.0</ele><time>2026-04-05T11:28:30.847Z</time></trkpt><trkpt lat="44.8041467" lon="7.8962733"><ele>333.0</ele><time>2026-04-05T11:28:32.847Z</time></trkpt><trkpt lat="44.804075" lon="7.8962617"><ele>333.0</ele><time>2026-04-05T11:28:35.847Z</time></trkpt><trkpt lat="44.8041783" lon="7.89631"><ele>333.0</ele><time>2026-04-05T11:28:38.847Z</time></trkpt><trkpt lat="44.8042517" lon="7.8963467"><ele>333.0</ele><time>2026-04-05T11:28:39.847Z</time></trkpt><trkpt lat="44.80435" lon="7.8964017"><ele>333.0</ele><time>2026-04-05T11:28:40.846Z</time></trkpt><trkpt lat="44.8044667" lon="7.8964717"><ele>333.0</ele><time>2026-04-05T11:28:41.847Z</time></trkpt><trkpt lat="44.8045867" lon="7.8965333"><ele>333.0</ele><time>2026-04-05T11:28:42.847Z</time></trkpt><trkpt lat="44.8047133" lon="7.8965983"><ele>333.0</ele><time>2026-04-05T11:28:43.847Z</time></trkpt><trkpt lat="44.8048567" lon="7.89667"><ele>333.0</ele><time>2026-04-05T11:28:44.847Z</time></trkpt><trkpt lat="44.8049917" lon="7.8967383"><ele>333.0</ele><time>2026-04-05T11:28:45.846Z</time></trkpt><trkpt lat="44.8051217" lon="7.8968167"><ele>333.0</ele><time>2026-04-05T11:28:46.847Z</time></trkpt><trkpt lat="44.8052367" lon="7.8969"><ele>333.0</ele><time>2026-04-05T11:28:47.847Z</time></trkpt><trkpt lat="44.8053517" lon="7.8969733"><ele>332.0</ele><time>2026-04-05T11:28:48.847Z</time></trkpt><trkpt lat="44.80546" lon="7.89707"><ele>331.0</ele><time>2026-04-05T11:28:49.847Z</time></trkpt><trkpt lat="44.8055517" lon="7.8971817"><ele>330.0</ele><time>2026-04-05T11:28:50.847Z</time></trkpt><trkpt lat="44.8056333" lon="7.89729"><ele>329.0</ele><time>2026-04-05T11:28:51.847Z</time></trkpt><trkpt lat="44.8057083" lon="7.89737"><ele>329.0</ele><time>2026-04-05T11:28:52.847Z</time></trkpt><trkpt lat="44.80578" lon="7.8974167"><ele>329.0</ele><time>2026-04-05T11:28:53.847Z</time></trkpt><trkpt lat="44.8058617" lon="7.8974"><ele>329.0</ele><time>2026-04-05T11:28:54.847Z</time></trkpt><trkpt lat="44.805935" lon="7.8973517"><ele>329.0</ele><time>2026-04-05T11:28:55.847Z</time></trkpt><trkpt lat="44.80601" lon="7.89733"><ele>329.0</ele><time>2026-04-05T11:28:56.847Z</time></trkpt><trkpt lat="44.80608" lon="7.8973483"><ele>329.0</ele><time>2026-04-05T11:28:57.847Z</time></trkpt><trkpt lat="44.806155" lon="7.8974317"><ele>327.0</ele><time>2026-04-05T11:28:58.847Z</time></trkpt><trkpt lat="44.8062333" lon="7.897555"><ele>325.0</ele><time>2026-04-05T11:28:59.846Z</time></trkpt><trkpt lat="44.8063133" lon="7.8976917"><ele>323.0</ele><time>2026-04-05T11:29:00.846Z</time></trkpt><trkpt lat="44.8063817" lon="7.89783"><ele>321.0</ele><time>2026-04-05T11:29:01.847Z</time></trkpt><trkpt lat="44.8064467" lon="7.8979617"><ele>321.0</ele><time>2026-04-05T11:29:02.847Z</time></trkpt><trkpt lat="44.806505" lon="7.89808"><ele>321.0</ele><time>2026-04-05T11:29:03.847Z</time></trkpt><trkpt lat="44.806555" lon="7.89818"><ele>321.0</ele><time>2026-04-05T11:29:04.847Z</time></trkpt><trkpt lat="44.8066" lon="7.8982633"><ele>321.0</ele><time>2026-04-05T11:29:05.846Z</time></trkpt><trkpt lat="44.8066983" lon="7.8983467"><ele>321.0</ele><time>2026-04-05T11:29:07.847Z</time></trkpt><trkpt lat="44.8067783" lon="7.8982817"><ele>320.5</ele><time>2026-04-05T11:29:08.847Z</time></trkpt><trkpt lat="44.8068683" lon="7.8982083"><ele>320.0</ele><time>2026-04-05T11:29:09.847Z</time></trkpt><trkpt lat="44.80695" lon="7.89814"><ele>319.5</ele><time>2026-04-05T11:29:10.847Z</time></trkpt><trkpt lat="44.807025" lon="7.89808"><ele>319.0</ele><time>2026-04-05T11:29:11.847Z</time></trkpt><trkpt lat="44.8070867" lon="7.89804"><ele>318.5</ele><time>2026-04-05T11:29:12.847Z</time></trkpt><trkpt lat="44.8071617" lon="7.8980067"><ele>318.0</ele><time>2026-04-05T11:29:14.847Z</time></trkpt><trkpt lat="44.8071383" lon="7.8979117"><ele>318.0</ele><time>2026-04-05T11:29:17.847Z</time></trkpt><trkpt lat="44.8070717" lon="7.89776"><ele>318.0</ele><time>2026-04-05T11:29:19.847Z</time></trkpt><trkpt lat="44.8070417" lon="7.8976017"><ele>318.0</ele><time>2026-04-05T11:29:21.847Z</time></trkpt><trkpt lat="44.8070567" lon="7.8974383"><ele>318.0</ele><time>2026-04-05T11:29:23.847Z</time></trkpt><trkpt lat="44.807075" lon="7.8972967"><ele>318.4</ele><time>2026-04-05T11:29:25.847Z</time></trkpt><trkpt lat="44.8070467" lon="7.8971967"><ele>318.8</ele><time>2026-04-05T11:29:27.847Z</time></trkpt><trkpt lat="44.80694" lon="7.89709"><ele>319.2</ele><time>2026-04-05T11:29:29.847Z</time></trkpt><trkpt lat="44.8068783" lon="7.8970217"><ele>319.6</ele><time>2026-04-05T11:29:30.847Z</time></trkpt><trkpt lat="44.806805" lon="7.8969567"><ele>320.0</ele><time>2026-04-05T11:29:31.847Z</time></trkpt><trkpt lat="44.80672" lon="7.8968667"><ele>320.0</ele><time>2026-04-05T11:29:33.846Z</time></trkpt><trkpt lat="44.8067933" lon="7.896945"><ele>320.0</ele><time>2026-04-05T11:29:45.847Z</time></trkpt><trkpt lat="44.8068667" lon="7.8970183"><ele>320.0</ele><time>2026-04-05T11:29:47.847Z</time></trkpt><trkpt lat="44.8069417" lon="7.8970983"><ele>320.0</ele><time>2026-04-05T11:29:49.847Z</time></trkpt><trkpt lat="44.807005" lon="7.8971817"><ele>320.0</ele><time>2026-04-05T11:29:51.847Z</time></trkpt><trkpt lat="44.8070367" lon="7.8972983"><ele>319.6666666666667</ele><time>2026-04-05T11:29:53.847Z</time></trkpt><trkpt lat="44.807035" lon="7.89745"><ele>319.33333333333337</ele><time>2026-04-05T11:29:55.847Z</time></trkpt><trkpt lat="44.8070233" lon="7.89755"><ele>319.0</ele><time>2026-04-05T11:29:56.847Z</time></trkpt><trkpt lat="44.8070217" lon="7.8976483"><ele>318.6666666666667</ele><time>2026-04-05T11:29:57.847Z</time></trkpt><trkpt lat="44.8070383" lon="7.8977417"><ele>318.3333333333333</ele><time>2026-04-05T11:29:58.847Z</time></trkpt><trkpt lat="44.80707" lon="7.8978367"><ele>318.0</ele><time>2026-04-05T11:29:59.847Z</time></trkpt><trkpt lat="44.807105" lon="7.8979317"><ele>318.0</ele><time>2026-04-05T11:30:00.847Z</time></trkpt><trkpt lat="44.8071367" lon="7.8980367"><ele>318.0</ele><time>2026-04-05T11:30:01.846Z</time></trkpt><trkpt lat="44.8071967" lon="7.8981617"><ele>318.0</ele><time>2026-04-05T11:30:02.847Z</time></trkpt><trkpt lat="44.807255" lon="7.8982883"><ele>318.0</ele><time>2026-04-05T11:30:03.847Z</time></trkpt><trkpt lat="44.8073217" lon="7.8984017"><ele>318.0</ele><time>2026-04-05T11:30:04.847Z</time></trkpt><trkpt lat="44.80738" lon="7.8984967"><ele>317.5</ele><time>2026-04-05T11:30:05.846Z</time></trkpt><trkpt lat="44.807435" lon="7.8985883"><ele>317.0</ele><time>2026-04-05T11:30:06.847Z</time></trkpt><trkpt lat="44.80749" lon="7.89868"><ele>316.5</ele><time>2026-04-05T11:30:07.847Z</time></trkpt><trkpt lat="44.8075267" lon="7.8987817"><ele>316.0</ele><time>2026-04-05T11:30:08.847Z</time></trkpt><trkpt lat="44.807545" lon="7.8988933"><ele>315.5</ele><time>2026-04-05T11:30:09.846Z</time></trkpt><trkpt lat="44.8075617" lon="7.899"><ele>315.0</ele><time>2026-04-05T11:30:10.846Z</time></trkpt><trkpt lat="44.80757" lon="7.8990917"><ele>315.0</ele><time>2026-04-05T11:30:11.847Z</time></trkpt><trkpt lat="44.80759" lon="7.8992267"><ele>315.0</ele><time>2026-04-05T11:30:13.846Z</time></trkpt><trkpt lat="44.8076833" lon="7.89927"><ele>315.0</ele><time>2026-04-05T11:30:16.847Z</time></trkpt><trkpt lat="44.80775" lon="7.8992333"><ele>315.0</ele><time>2026-04-05T11:30:17.847Z</time></trkpt><trkpt lat="44.8078133" lon="7.8991867"><ele>315.0</ele><time>2026-04-05T11:30:18.847Z</time></trkpt><trkpt lat="44.80786" lon="7.8991233"><ele>315.0</ele><time>2026-04-05T11:30:19.846Z</time></trkpt><trkpt lat="44.8078883" lon="7.89902"><ele>315.8</ele><time>2026-04-05T11:30:20.846Z</time></trkpt><trkpt lat="44.8079083" lon="7.8988833"><ele>316.6</ele><time>2026-04-05T11:30:21.846Z</time></trkpt><trkpt lat="44.8079283" lon="7.8987517"><ele>317.4</ele><time>2026-04-05T11:30:22.847Z</time></trkpt><trkpt lat="44.8079583" lon="7.8986333"><ele>318.2</ele><time>2026-04-05T11:30:23.847Z</time></trkpt><trkpt lat="44.8080167" lon="7.898535"><ele>319.0</ele><time>2026-04-05T11:30:24.846Z</time></trkpt><trkpt lat="44.808095" lon="7.8984533"><ele>320.5</ele><time>2026-04-05T11:30:25.847Z</time></trkpt><trkpt lat="44.8081533" lon="7.898395"><ele>322.0</ele><time>2026-04-05T11:30:26.847Z</time></trkpt><trkpt lat="44.8082133" lon="7.8983333"><ele>323.5</ele><time>2026-04-05T11:30:27.847Z</time></trkpt><trkpt lat="44.8082783" lon="7.8982717"><ele>325.0</ele><time>2026-04-05T11:30:28.847Z</time></trkpt><trkpt lat="44.8083483" lon="7.8982033"><ele>326.5</ele><time>2026-04-05T11:30:29.847Z</time></trkpt><trkpt lat="44.8084133" lon="7.898125"><ele>328.0</ele><time>2026-04-05T11:30:30.847Z</time></trkpt><trkpt lat="44.808475" lon="7.8980483"><ele>330.3333333333333</ele><time>2026-04-05T11:30:31.847Z</time></trkpt><trkpt lat="44.8085233" lon="7.8979717"><ele>332.66666666666663</ele><time>2026-04-05T11:30:32.847Z</time></trkpt><trkpt lat="44.80856" lon="7.89789"><ele>335.0</ele><time>2026-04-05T11:30:33.847Z</time></trkpt><trkpt lat="44.8086067" lon="7.8977867"><ele>337.3333333333333</ele><time>2026-04-05T11:30:35.847Z</time></trkpt><trkpt lat="44.80867" lon="7.897795"><ele>339.6666666666667</ele><time>2026-04-05T11:30:37.846Z</time></trkpt><trkpt lat="44.8087617" lon="7.8978817"><ele>342.0</ele><time>2026-04-05T11:30:39.847Z</time></trkpt><trkpt lat="44.808825" lon="7.8979517"><ele>342.0</ele><time>2026-04-05T11:30:40.847Z</time></trkpt><trkpt lat="44.8089067" lon="7.89806"><ele>342.0</ele><time>2026-04-05T11:30:41.847Z</time></trkpt><trkpt lat="44.8089717" lon="7.8981533"><ele>342.0</ele><time>2026-04-05T11:30:42.847Z</time></trkpt><trkpt lat="44.8090467" lon="7.8982467"><ele>342.0</ele><time>2026-04-05T11:30:43.847Z</time></trkpt><trkpt lat="44.8091283" lon="7.8983133"><ele>342.0</ele><time>2026-04-05T11:30:44.846Z</time></trkpt><trkpt lat="44.8092033" lon="7.89836"><ele>342.0</ele><time>2026-04-05T11:30:45.847Z</time></trkpt><trkpt lat="44.80927" lon="7.8983967"><ele>342.0</ele><time>2026-04-05T11:30:46.847Z</time></trkpt><trkpt lat="44.8093367" lon="7.898435"><ele>342.0</ele><time>2026-04-05T11:30:47.847Z</time></trkpt><trkpt lat="44.8094017" lon="7.898465"><ele>342.0</ele><time>2026-04-05T11:30:48.847Z</time></trkpt><trkpt lat="44.8094767" lon="7.898455"><ele>342.0</ele><time>2026-04-05T11:30:50.846Z</time></trkpt><trkpt lat="44.809545" lon="7.898385"><ele>342.0</ele><time>2026-04-05T11:30:52.846Z</time></trkpt><trkpt lat="44.8096283" lon="7.89825"><ele>342.8</ele><time>2026-04-05T11:30:54.846Z</time></trkpt><trkpt lat="44.8096717" lon="7.89817"><ele>343.6</ele><time>2026-04-05T11:30:55.845Z</time></trkpt><trkpt lat="44.8097233" lon="7.8980167"><ele>344.40000000000003</ele><time>2026-04-05T11:30:57.846Z</time></trkpt><trkpt lat="44.80971" lon="7.8978683"><ele>345.20000000000005</ele><time>2026-04-05T11:30:59.846Z</time></trkpt><trkpt lat="44.8096783" lon="7.8977783"><ele>346.0</ele><time>2026-04-05T11:31:00.846Z</time></trkpt><trkpt lat="44.8096133" lon="7.8976783"><ele>346.0</ele><time>2026-04-05T11:31:01.846Z</time></trkpt><trkpt lat="44.8095333" lon="7.8975883"><ele>346.0</ele><time>2026-04-05T11:31:02.846Z</time></trkpt><trkpt lat="44.8094517" lon="7.8975"><ele>346.0</ele><time>2026-04-05T11:31:03.845Z</time></trkpt><trkpt lat="44.8093733" lon="7.897415"><ele>346.0</ele><time>2026-04-05T11:31:04.846Z</time></trkpt><trkpt lat="44.8092917" lon="7.8973267"><ele>346.0</ele><time>2026-04-05T11:31:05.846Z</time></trkpt><trkpt lat="44.809215" lon="7.8972317"><ele>346.0</ele><time>2026-04-05T11:31:06.846Z</time></trkpt><trkpt lat="44.809145" lon="7.897135"><ele>346.0</ele><time>2026-04-05T11:31:07.846Z</time></trkpt><trkpt lat="44.8090767" lon="7.8970417"><ele>346.0</ele><time>2026-04-05T11:31:08.846Z</time></trkpt><trkpt lat="44.8090067" lon="7.89695"><ele>346.0</ele><time>2026-04-05T11:31:09.846Z</time></trkpt><trkpt lat="44.8089367" lon="7.89686"><ele>346.0</ele><time>2026-04-05T11:31:10.845Z</time></trkpt><trkpt lat="44.80887" lon="7.896775"><ele>346.3333333333333</ele><time>2026-04-05T11:31:11.845Z</time></trkpt><trkpt lat="44.8087983" lon="7.8967"><ele>346.66666666666663</ele><time>2026-04-05T11:31:12.846Z</time></trkpt><trkpt lat="44.8087233" lon="7.8966283"><ele>347.0</ele><time>2026-04-05T11:31:13.846Z</time></trkpt><trkpt lat="44.8086533" lon="7.8965583"><ele>347.3333333333333</ele><time>2026-04-05T11:31:14.845Z</time></trkpt><trkpt lat="44.8085817" lon="7.8965"><ele>347.6666666666667</ele><time>2026-04-05T11:31:15.846Z</time></trkpt><trkpt lat="44.8085117" lon="7.89644"><ele>348.0</ele><time>2026-04-05T11:31:16.846Z</time></trkpt><trkpt lat="44.8084383" lon="7.8963717"><ele>348.2</ele><time>2026-04-05T11:31:17.846Z</time></trkpt><trkpt lat="44.8083583" lon="7.896295"><ele>348.4</ele><time>2026-04-05T11:31:18.846Z</time></trkpt><trkpt lat="44.80828" lon="7.8962117"><ele>348.59999999999997</ele><time>2026-04-05T11:31:19.846Z</time></trkpt><trkpt lat="44.808205" lon="7.8961383"><ele>348.79999999999995</ele><time>2026-04-05T11:31:20.846Z</time></trkpt><trkpt lat="44.8081267" lon="7.8960583"><ele>349.0</ele><time>2026-04-05T11:31:21.845Z</time></trkpt><trkpt lat="44.8080467" lon="7.895985"><ele>349.0</ele><time>2026-04-05T11:31:22.846Z</time></trkpt><trkpt lat="44.8079667" lon="7.895925"><ele>349.0</ele><time>2026-04-05T11:31:23.846Z</time></trkpt><trkpt lat="44.80788" lon="7.8958633"><ele>349.0</ele><time>2026-04-05T11:31:24.845Z</time></trkpt><trkpt lat="44.8077883" lon="7.8958033"><ele>349.0</ele><time>2026-04-05T11:31:25.846Z</time></trkpt><trkpt lat="44.8077183" lon="7.8957383"><ele>349.0</ele><time>2026-04-05T11:31:26.846Z</time></trkpt><trkpt lat="44.8076467" lon="7.8956717"><ele>349.3333333333333</ele><time>2026-04-05T11:31:27.846Z</time></trkpt><trkpt lat="44.8075733" lon="7.8956083"><ele>349.66666666666663</ele><time>2026-04-05T11:31:28.845Z</time></trkpt><trkpt lat="44.8075" lon="7.8955433"><ele>350.0</ele><time>2026-04-05T11:31:29.846Z</time></trkpt><trkpt lat="44.807425" lon="7.8954767"><ele>350.3333333333333</ele><time>2026-04-05T11:31:30.846Z</time></trkpt><trkpt lat="44.8073483" lon="7.895405"><ele>350.6666666666667</ele><time>2026-04-05T11:31:31.846Z</time></trkpt><trkpt lat="44.80727" lon="7.89533"><ele>351.0</ele><time>2026-04-05T11:31:32.846Z</time></trkpt><trkpt lat="44.8071917" lon="7.8952667"><ele>351.0</ele><time>2026-04-05T11:31:33.845Z</time></trkpt><trkpt lat="44.80711" lon="7.895215"><ele>351.0</ele><time>2026-04-05T11:31:34.846Z</time></trkpt><trkpt lat="44.8070333" lon="7.8951717"><ele>351.0</ele><time>2026-04-05T11:31:35.846Z</time></trkpt><trkpt lat="44.806955" lon="7.895135"><ele>351.0</ele><time>2026-04-05T11:31:36.846Z</time></trkpt><trkpt lat="44.8068767" lon="7.8951017"><ele>351.0</ele><time>2026-04-05T11:31:37.846Z</time></trkpt><trkpt lat="44.8068067" lon="7.895075"><ele>351.0</ele><time>2026-04-05T11:31:38.846Z</time></trkpt><trkpt lat="44.8067283" lon="7.8950367"><ele>351.5</ele><time>2026-04-05T11:31:39.846Z</time></trkpt><trkpt lat="44.8066483" lon="7.8949867"><ele>352.0</ele><time>2026-04-05T11:31:40.846Z</time></trkpt><trkpt lat="44.8065667" lon="7.8949233"><ele>352.5</ele><time>2026-04-05T11:31:41.846Z</time></trkpt><trkpt lat="44.806495" lon="7.8948483"><ele>353.0</ele><time>2026-04-05T11:31:42.846Z</time></trkpt><trkpt lat="44.8064383" lon="7.8947967"><ele>353.5</ele><time>2026-04-05T11:31:43.846Z</time></trkpt><trkpt lat="44.8063767" lon="7.8947617"><ele>354.0</ele><time>2026-04-05T11:31:44.846Z</time></trkpt><trkpt lat="44.8063033" lon="7.8947233"><ele>354.0</ele><time>2026-04-05T11:31:45.846Z</time></trkpt><trkpt lat="44.806215" lon="7.8946817"><ele>354.0</ele><time>2026-04-05T11:31:46.846Z</time></trkpt><trkpt lat="44.8060983" lon="7.8946217"><ele>354.0</ele><time>2026-04-05T11:31:47.846Z</time></trkpt><trkpt lat="44.8059833" lon="7.8945683"><ele>354.0</ele><time>2026-04-05T11:31:48.846Z</time></trkpt><trkpt lat="44.8058783" lon="7.8945167"><ele>353.0</ele><time>2026-04-05T11:31:49.846Z</time></trkpt><trkpt lat="44.8057667" lon="7.8944617"><ele>352.0</ele><time>2026-04-05T11:31:50.846Z</time></trkpt><trkpt lat="44.8056467" lon="7.8944067"><ele>351.0</ele><time>2026-04-05T11:31:51.846Z</time></trkpt><trkpt lat="44.8055333" lon="7.89435"><ele>350.0</ele><time>2026-04-05T11:31:52.845Z</time></trkpt><trkpt lat="44.805435" lon="7.8942917"><ele>351.0</ele><time>2026-04-05T11:31:53.846Z</time></trkpt><trkpt lat="44.80534" lon="7.8942317"><ele>352.0</ele><time>2026-04-05T11:31:54.846Z</time></trkpt><trkpt lat="44.8052533" lon="7.89418"><ele>353.0</ele><time>2026-04-05T11:31:55.846Z</time></trkpt><trkpt lat="44.805175" lon="7.8941367"><ele>354.0</ele><time>2026-04-05T11:31:56.846Z</time></trkpt><trkpt lat="44.8051017" lon="7.89408"><ele>355.0</ele><time>2026-04-05T11:31:57.846Z</time></trkpt><trkpt lat="44.80503" lon="7.8939967"><ele>355.4</ele><time>2026-04-05T11:31:58.846Z</time></trkpt><trkpt lat="44.8049533" lon="7.89389"><ele>355.8</ele><time>2026-04-05T11:31:59.846Z</time></trkpt><trkpt lat="44.8048683" lon="7.8937817"><ele>356.20000000000005</ele><time>2026-04-05T11:32:00.846Z</time></trkpt><trkpt lat="44.8047817" lon="7.8936817"><ele>356.6</ele><time>2026-04-05T11:32:01.846Z</time></trkpt><trkpt lat="44.8046917" lon="7.8935867"><ele>357.0</ele><time>2026-04-05T11:32:02.846Z</time></trkpt><trkpt lat="44.8046017" lon="7.8934917"><ele>357.20000000000005</ele><time>2026-04-05T11:32:03.845Z</time></trkpt><trkpt lat="44.80451" lon="7.8933933"><ele>357.4</ele><time>2026-04-05T11:32:04.845Z</time></trkpt><trkpt lat="44.80442" lon="7.8933283"><ele>357.6</ele><time>2026-04-05T11:32:05.845Z</time></trkpt><trkpt lat="44.8043317" lon="7.8932933"><ele>357.79999999999995</ele><time>2026-04-05T11:32:06.846Z</time></trkpt><trkpt lat="44.8042433" lon="7.8932833"><ele>358.0</ele><time>2026-04-05T11:32:07.845Z</time></trkpt><trkpt lat="44.8041667" lon="7.8932767"><ele>359.16666666666663</ele><time>2026-04-05T11:32:08.846Z</time></trkpt><trkpt lat="44.8040617" lon="7.8932133"><ele>360.3333333333333</ele><time>2026-04-05T11:32:10.846Z</time></trkpt><trkpt lat="44.8040233" lon="7.8931383"><ele>361.5</ele><time>2026-04-05T11:32:11.846Z</time></trkpt><trkpt lat="44.8039917" lon="7.8930583"><ele>362.6666666666667</ele><time>2026-04-05T11:32:12.845Z</time></trkpt><trkpt lat="44.8039683" lon="7.8929683"><ele>363.83333333333337</ele><time>2026-04-05T11:32:13.846Z</time></trkpt><trkpt lat="44.803915" lon="7.892855"><ele>365.0</ele><time>2026-04-05T11:32:15.846Z</time></trkpt><trkpt lat="44.8038633" lon="7.8927633"><ele>365.00000000000006</ele><time>2026-04-05T11:32:17.845Z</time></trkpt><trkpt lat="44.80384" lon="7.8926633"><ele>365.0</ele><time>2026-04-05T11:32:21.846Z</time></trkpt><trkpt lat="44.8039167" lon="7.8926433"><ele>365.0</ele><time>2026-04-05T11:32:26.846Z</time></trkpt><trkpt lat="44.8039967" lon="7.892665"><ele>365.0</ele><time>2026-04-05T11:32:29.846Z</time></trkpt><trkpt lat="44.8040567" lon="7.8926133"><ele>365.0</ele><time>2026-04-05T11:32:31.846Z</time></trkpt><trkpt lat="44.8041167" lon="7.8925783"><ele>365.00000000000006</ele><time>2026-04-05T11:32:33.846Z</time></trkpt><trkpt lat="44.8041917" lon="7.8925817"><ele>365.0</ele><time>2026-04-05T11:32:35.846Z</time></trkpt><trkpt lat="44.8042583" lon="7.892565"><ele>363.33333333333337</ele><time>2026-04-05T11:32:37.846Z</time></trkpt><trkpt lat="44.8043367" lon="7.8925333"><ele>361.6666666666667</ele><time>2026-04-05T11:32:40.846Z</time></trkpt><trkpt lat="44.8044117" lon="7.8925333"><ele>360.0</ele><time>2026-04-05T11:32:43.846Z</time></trkpt><trkpt lat="44.8044783" lon="7.892525"><ele>358.3333333333333</ele><time>2026-04-05T11:32:45.846Z</time></trkpt><trkpt lat="44.80456" lon="7.89251"><ele>356.66666666666663</ele><time>2026-04-05T11:32:47.846Z</time></trkpt><trkpt lat="44.804635" lon="7.8924817"><ele>355.0</ele><time>2026-04-05T11:32:49.845Z</time></trkpt><trkpt lat="44.8047133" lon="7.892435"><ele>355.0</ele><time>2026-04-05T11:32:51.846Z</time></trkpt><trkpt lat="44.80477" lon="7.89236"><ele>355.0</ele><time>2026-04-05T11:32:53.846Z</time></trkpt><trkpt lat="44.80486" lon="7.8922833"><ele>355.0</ele><time>2026-04-05T11:32:59.845Z</time></trkpt><trkpt lat="44.8049283" lon="7.89233"><ele>355.0</ele><time>2026-04-05T11:33:01.845Z</time></trkpt><trkpt lat="44.80502" lon="7.8923883"><ele>355.0</ele><time>2026-04-05T11:33:03.846Z</time></trkpt><trkpt lat="44.8051217" lon="7.8924417"><ele>354.16666666666663</ele><time>2026-04-05T11:33:05.845Z</time></trkpt><trkpt lat="44.8051917" lon="7.8925033"><ele>353.3333333333333</ele><time>2026-04-05T11:33:07.846Z</time></trkpt><trkpt lat="44.8052617" lon="7.8925017"><ele>352.5</ele><time>2026-04-05T11:33:10.845Z</time></trkpt><trkpt lat="44.8053233" lon="7.89243"><ele>351.6666666666667</ele><time>2026-04-05T11:33:14.846Z</time></trkpt><trkpt lat="44.8053817" lon="7.8923833"><ele>350.83333333333337</ele><time>2026-04-05T11:33:17.846Z</time></trkpt><trkpt lat="44.8054367" lon="7.8923267"><ele>350.0</ele><time>2026-04-05T11:33:19.846Z</time></trkpt><trkpt lat="44.8055217" lon="7.8922917"><ele>350.0</ele><time>2026-04-05T11:33:21.846Z</time></trkpt><trkpt lat="44.8056217" lon="7.8922633"><ele>350.0</ele><time>2026-04-05T11:33:23.846Z</time></trkpt><trkpt lat="44.80573" lon="7.892175"><ele>350.0</ele><time>2026-04-05T11:33:25.846Z</time></trkpt><trkpt lat="44.8058033" lon="7.89207"><ele>350.0</ele><time>2026-04-05T11:33:27.845Z</time></trkpt><trkpt lat="44.805885" lon="7.89205"><ele>350.0</ele><time>2026-04-05T11:33:30.846Z</time></trkpt><trkpt lat="44.805925" lon="7.8921467"><ele>350.0</ele><time>2026-04-05T11:33:34.846Z</time></trkpt><trkpt lat="44.80596" lon="7.8922333"><ele>350.0</ele><time>2026-04-05T11:33:37.846Z</time></trkpt><trkpt lat="44.8060283" lon="7.8923133"><ele>350.0</ele><time>2026-04-05T11:33:40.846Z</time></trkpt><trkpt lat="44.8061383" lon="7.892395"><ele>350.0</ele><time>2026-04-05T11:36:53.846Z</time></trkpt><trkpt lat="44.8061767" lon="7.8923067"><ele>350.0</ele><time>2026-04-05T11:36:56.845Z</time></trkpt><trkpt lat="44.806245" lon="7.8922133"><ele>349.1666666666667</ele><time>2026-04-05T11:36:59.845Z</time></trkpt><trkpt lat="44.8063367" lon="7.8922433"><ele>348.33333333333337</ele><time>2026-04-05T11:37:02.846Z</time></trkpt><trkpt lat="44.80636" lon="7.89235"><ele>347.5</ele><time>2026-04-05T11:37:04.846Z</time></trkpt><trkpt lat="44.8063517" lon="7.89247"><ele>346.6666666666667</ele><time>2026-04-05T11:37:06.846Z</time></trkpt><trkpt lat="44.8063433" lon="7.892585"><ele>345.8333333333333</ele><time>2026-04-05T11:37:08.846Z</time></trkpt><trkpt lat="44.8063583" lon="7.8926983"><ele>345.0</ele><time>2026-04-05T11:37:10.845Z</time></trkpt><trkpt lat="44.80641" lon="7.8927667"><ele>345.0</ele><time>2026-04-05T11:37:12.846Z</time></trkpt><trkpt lat="44.806495" lon="7.8927883"><ele>345.0</ele><time>2026-04-05T11:37:14.846Z</time></trkpt><trkpt lat="44.8065633" lon="7.8927183"><ele>345.0</ele><time>2026-04-05T11:37:17.846Z</time></trkpt><trkpt lat="44.8065717" lon="7.8925883"><ele>345.0</ele><time>2026-04-05T11:37:19.846Z</time></trkpt><trkpt lat="44.8065817" lon="7.892445"><ele>345.0</ele><time>2026-04-05T11:37:21.846Z</time></trkpt><trkpt lat="44.806645" lon="7.892295"><ele>345.0</ele><time>2026-04-05T11:37:23.846Z</time></trkpt><trkpt lat="44.8066833" lon="7.892215"><ele>345.0</ele><time>2026-04-05T11:37:24.846Z</time></trkpt><trkpt lat="44.8067083" lon="7.8921333"><ele>345.0</ele><time>2026-04-05T11:37:25.845Z</time></trkpt><trkpt lat="44.8067017" lon="7.8919667"><ele>345.0</ele><time>2026-04-05T11:37:27.846Z</time></trkpt><trkpt lat="44.8066717" lon="7.8918633"><ele>345.0</ele><time>2026-04-05T11:37:28.846Z</time></trkpt><trkpt lat="44.8066483" lon="7.8917667"><ele>345.0</ele><time>2026-04-05T11:37:29.845Z</time></trkpt><trkpt lat="44.806615" lon="7.89164"><ele>346.57142857142856</ele><time>2026-04-05T11:37:31.845Z</time></trkpt><trkpt lat="44.806545" lon="7.8916583"><ele>348.1428571428571</ele><time>2026-04-05T11:37:34.846Z</time></trkpt><trkpt lat="44.8064817" lon="7.8916517"><ele>349.71428571428567</ele><time>2026-04-05T11:37:36.846Z</time></trkpt><trkpt lat="44.8064233" lon="7.8916183"><ele>351.2857142857143</ele><time>2026-04-05T11:37:38.846Z</time></trkpt><trkpt lat="44.8063533" lon="7.8916133"><ele>352.85714285714283</ele><time>2026-04-05T11:37:40.846Z</time></trkpt><trkpt lat="44.8062583" lon="7.891595"><ele>354.4285714285714</ele><time>2026-04-05T11:37:42.846Z</time></trkpt><trkpt lat="44.80619" lon="7.89157"><ele>356.0</ele><time>2026-04-05T11:37:44.846Z</time></trkpt><trkpt lat="44.8061183" lon="7.8915117"><ele>356.0</ele><time>2026-04-05T11:37:48.846Z</time></trkpt><trkpt lat="44.8060417" lon="7.891485"><ele>356.0</ele><time>2026-04-05T11:37:51.846Z</time></trkpt><trkpt lat="44.80596" lon="7.891475"><ele>356.0</ele><time>2026-04-05T11:37:53.846Z</time></trkpt><trkpt lat="44.80588" lon="7.8914283"><ele>356.0</ele><time>2026-04-05T11:37:56.845Z</time></trkpt><trkpt lat="44.805865" lon="7.8913217"><ele>356.0</ele><time>2026-04-05T11:37:58.846Z</time></trkpt><trkpt lat="44.80586" lon="7.8912217"><ele>356.0</ele><time>2026-04-05T11:38:00.846Z</time></trkpt><trkpt lat="44.805805" lon="7.8911217"><ele>356.2857142857143</ele><time>2026-04-05T11:38:03.846Z</time></trkpt><trkpt lat="44.8057433" lon="7.8910617"><ele>356.57142857142856</ele><time>2026-04-05T11:38:08.846Z</time></trkpt><trkpt lat="44.8056533" lon="7.8910283"><ele>356.8571428571429</ele><time>2026-04-05T11:38:10.846Z</time></trkpt><trkpt lat="44.805585" lon="7.8910267"><ele>357.1428571428571</ele><time>2026-04-05T11:38:11.845Z</time></trkpt><trkpt lat="44.8055133" lon="7.8910267"><ele>357.42857142857144</ele><time>2026-04-05T11:38:12.846Z</time></trkpt><trkpt lat="44.805445" lon="7.8910233"><ele>357.7142857142857</ele><time>2026-04-05T11:38:13.845Z</time></trkpt><trkpt lat="44.8053767" lon="7.8910217"><ele>358.0</ele><time>2026-04-05T11:38:14.845Z</time></trkpt><trkpt lat="44.8053117" lon="7.8910233"><ele>358.00000000000006</ele><time>2026-04-05T11:38:15.846Z</time></trkpt><trkpt lat="44.8052433" lon="7.8910283"><ele>358.0</ele><time>2026-04-05T11:38:16.845Z</time></trkpt><trkpt lat="44.8051783" lon="7.8910333"><ele>358.0</ele><time>2026-04-05T11:38:17.846Z</time></trkpt><trkpt lat="44.80511" lon="7.8910317"><ele>358.0</ele><time>2026-04-05T11:38:18.846Z</time></trkpt><trkpt lat="44.8050417" lon="7.8910317"><ele>358.0</ele><time>2026-04-05T11:38:19.846Z</time></trkpt><trkpt lat="44.8049767" lon="7.8910333"><ele>358.00000000000006</ele><time>2026-04-05T11:38:20.846Z</time></trkpt><trkpt lat="44.8049067" lon="7.8910383"><ele>358.0</ele><time>2026-04-05T11:38:21.846Z</time></trkpt><trkpt lat="44.8048317" lon="7.8910367"><ele>358.3333333333333</ele><time>2026-04-05T11:38:22.845Z</time></trkpt><trkpt lat="44.8047683" lon="7.8910383"><ele>358.66666666666663</ele><time>2026-04-05T11:38:23.846Z</time></trkpt><trkpt lat="44.804645" lon="7.891035"><ele>359.0</ele><time>2026-04-05T11:38:25.846Z</time></trkpt><trkpt lat="44.8045417" lon="7.8910267"><ele>359.3333333333333</ele><time>2026-04-05T11:38:27.846Z</time></trkpt><trkpt lat="44.8046133" lon="7.8910383"><ele>359.6666666666667</ele><time>2026-04-05T11:38:46.846Z</time></trkpt><trkpt lat="44.8046683" lon="7.8909667"><ele>360.0</ele><time>2026-04-05T11:38:49.845Z</time></trkpt><trkpt lat="44.80467" lon="7.890865"><ele>360.5</ele><time>2026-04-05T11:38:53.846Z</time></trkpt><trkpt lat="44.8046417" lon="7.8907667"><ele>361.0</ele><time>2026-04-05T11:38:57.846Z</time></trkpt><trkpt lat="44.80458" lon="7.8907117"><ele>361.5</ele><time>2026-04-05T11:38:59.846Z</time></trkpt><trkpt lat="44.8044983" lon="7.8906633"><ele>362.0</ele><time>2026-04-05T11:39:01.845Z</time></trkpt><trkpt lat="44.8044083" lon="7.8906233"><ele>362.5</ele><time>2026-04-05T11:39:03.846Z</time></trkpt><trkpt lat="44.8043017" lon="7.8905883"><ele>363.0</ele><time>2026-04-05T11:39:05.846Z</time></trkpt><trkpt lat="44.8041983" lon="7.890565"><ele>363.3333333333333</ele><time>2026-04-05T11:39:07.846Z</time></trkpt><trkpt lat="44.8041083" lon="7.8904867"><ele>363.6666666666667</ele><time>2026-04-05T11:39:13.846Z</time></trkpt><trkpt lat="44.804045" lon="7.8904267"><ele>364.0</ele><time>2026-04-05T11:39:16.846Z</time></trkpt><trkpt lat="44.80399" lon="7.890355"><ele>364.33333333333337</ele><time>2026-04-05T11:39:19.845Z</time></trkpt><trkpt lat="44.8039733" lon="7.8902117"><ele>364.6666666666667</ele><time>2026-04-05T11:39:22.846Z</time></trkpt><trkpt lat="44.80395" lon="7.8901"><ele>365.0</ele><time>2026-04-05T11:39:24.846Z</time></trkpt><trkpt lat="44.8039333" lon="7.8899933"><ele>363.1666666666667</ele><time>2026-04-05T11:39:26.846Z</time></trkpt><trkpt lat="44.803915" lon="7.8898633"><ele>361.33333333333337</ele><time>2026-04-05T11:39:29.846Z</time></trkpt><trkpt lat="44.80388" lon="7.889745"><ele>359.5</ele><time>2026-04-05T11:39:32.846Z</time></trkpt><trkpt lat="44.80386" lon="7.88964"><ele>357.6666666666667</ele><time>2026-04-05T11:39:35.846Z</time></trkpt><trkpt lat="44.803895" lon="7.8895317"><ele>355.8333333333333</ele><time>2026-04-05T11:39:39.846Z</time></trkpt><trkpt lat="44.80392" lon="7.8894233"><ele>354.0</ele><time>2026-04-05T11:39:42.846Z</time></trkpt><trkpt lat="44.8039183" lon="7.8893217"><ele>352.0</ele><time>2026-04-05T11:39:45.846Z</time></trkpt><trkpt lat="44.803935" lon="7.8892233"><ele>350.0</ele><time>2026-04-05T11:39:50.846Z</time></trkpt><trkpt lat="44.803955" lon="7.8891217"><ele>348.0</ele><time>2026-04-05T11:39:58.846Z</time></trkpt><trkpt lat="44.8039467" lon="7.8890333"><ele>346.0</ele><time>2026-04-05T11:40:01.845Z</time></trkpt><trkpt lat="44.8039617" lon="7.8889233"><ele>344.0</ele><time>2026-04-05T11:40:05.846Z</time></trkpt><trkpt lat="44.8040117" lon="7.8888117"><ele>342.0</ele><time>2026-04-05T11:40:08.846Z</time></trkpt><trkpt lat="44.8040667" lon="7.8887467"><ele>342.0</ele><time>2026-04-05T11:40:10.845Z</time></trkpt><trkpt lat="44.8041333" lon="7.8886883"><ele>342.0</ele><time>2026-04-05T11:40:12.846Z</time></trkpt><trkpt lat="44.8041917" lon="7.88863"><ele>342.0</ele><time>2026-04-05T11:40:14.846Z</time></trkpt><trkpt lat="44.8042483" lon="7.888565"><ele>342.0</ele><time>2026-04-05T11:40:16.846Z</time></trkpt><trkpt lat="44.8042867" lon="7.8884633"><ele>342.0</ele><time>2026-04-05T11:40:18.846Z</time></trkpt><trkpt lat="44.8043467" lon="7.888365"><ele>342.0</ele><time>2026-04-05T11:40:20.846Z</time></trkpt><trkpt lat="44.8044217" lon="7.8883133"><ele>340.40000000000003</ele><time>2026-04-05T11:40:22.846Z</time></trkpt><trkpt lat="44.80451" lon="7.888225"><ele>338.8</ele><time>2026-04-05T11:40:24.846Z</time></trkpt><trkpt lat="44.8045867" lon="7.8881317"><ele>337.2</ele><time>2026-04-05T11:40:26.846Z</time></trkpt><trkpt lat="44.80467" lon="7.888065"><ele>335.6</ele><time>2026-04-05T11:40:28.846Z</time></trkpt><trkpt lat="44.8047267" lon="7.8880083"><ele>334.0</ele><time>2026-04-05T11:40:30.845Z</time></trkpt><trkpt lat="44.80476" lon="7.88789"><ele>334.0</ele><time>2026-04-05T11:40:33.846Z</time></trkpt><trkpt lat="44.804765" lon="7.8877883"><ele>334.0</ele><time>2026-04-05T11:40:36.846Z</time></trkpt><trkpt lat="44.80476" lon="7.8876733"><ele>334.0</ele><time>2026-04-05T11:40:39.846Z</time></trkpt><trkpt lat="44.8047617" lon="7.887575"><ele>334.0</ele><time>2026-04-05T11:40:41.846Z</time></trkpt><trkpt lat="44.8047517" lon="7.8874467"><ele>334.0</ele><time>2026-04-05T11:40:43.846Z</time></trkpt><trkpt lat="44.8047317" lon="7.887335"><ele>334.0</ele><time>2026-04-05T11:40:45.845Z</time></trkpt><trkpt lat="44.8047" lon="7.8872383"><ele>334.0</ele><time>2026-04-05T11:40:48.845Z</time></trkpt><trkpt lat="44.80463" lon="7.887155"><ele>334.0</ele><time>2026-04-05T11:40:50.846Z</time></trkpt><trkpt lat="44.8045633" lon="7.8870917"><ele>334.0</ele><time>2026-04-05T11:40:52.846Z</time></trkpt><trkpt lat="44.80451" lon="7.88701"><ele>334.0</ele><time>2026-04-05T11:40:54.846Z</time></trkpt><trkpt lat="44.8044467" lon="7.8869267"><ele>334.0</ele><time>2026-04-05T11:40:56.846Z</time></trkpt><trkpt lat="44.8043817" lon="7.8868883"><ele>334.0</ele><time>2026-04-05T11:40:58.846Z</time></trkpt><trkpt lat="44.8043433" lon="7.886815"><ele>334.0</ele><time>2026-04-05T11:41:00.846Z</time></trkpt><trkpt lat="44.8043267" lon="7.8867183"><ele>334.0</ele><time>2026-04-05T11:41:02.845Z</time></trkpt><trkpt lat="44.8043067" lon="7.8866233"><ele>334.0</ele><time>2026-04-05T11:41:06.846Z</time></trkpt><trkpt lat="44.8042967" lon="7.8865117"><ele>334.0</ele><time>2026-04-05T11:41:10.846Z</time></trkpt><trkpt lat="44.8042667" lon="7.886425"><ele>334.0</ele><time>2026-04-05T11:41:13.846Z</time></trkpt><trkpt lat="44.8042667" lon="7.8863167"><ele>334.0</ele><time>2026-04-05T11:41:17.845Z</time></trkpt><trkpt lat="44.8043467" lon="7.886265"><ele>334.0</ele><time>2026-04-05T11:41:21.846Z</time></trkpt><trkpt lat="44.8044133" lon="7.886215"><ele>334.0</ele><time>2026-04-05T11:41:23.846Z</time></trkpt><trkpt lat="44.8044883" lon="7.8861717"><ele>334.0</ele><time>2026-04-05T11:41:27.846Z</time></trkpt><trkpt lat="44.8046083" lon="7.8861617"><ele>334.0</ele><time>2026-04-05T11:41:34.845Z</time></trkpt><trkpt lat="44.8046733" lon="7.8861783"><ele>334.0</ele><time>2026-04-05T11:41:37.846Z</time></trkpt><trkpt lat="44.8047533" lon="7.8862683"><ele>334.0</ele><time>2026-04-05T11:41:42.846Z</time></trkpt><trkpt lat="44.8048267" lon="7.8862833"><ele>334.0</ele><time>2026-04-05T11:41:45.846Z</time></trkpt><trkpt lat="44.8049" lon="7.8863033"><ele>334.0</ele><time>2026-04-05T11:41:48.846Z</time></trkpt><trkpt lat="44.8049683" lon="7.8863817"><ele>334.0</ele><time>2026-04-05T11:42:00.845Z</time></trkpt><trkpt lat="44.8050217" lon="7.8864667"><ele>334.0</ele><time>2026-04-05T11:42:03.846Z</time></trkpt><trkpt lat="44.8050617" lon="7.8865467"><ele>334.0</ele><time>2026-04-05T11:42:05.846Z</time></trkpt><trkpt lat="44.8051267" lon="7.8866783"><ele>334.0</ele><time>2026-04-05T11:42:07.846Z</time></trkpt><trkpt lat="44.8051867" lon="7.886785"><ele>334.0</ele><time>2026-04-05T11:42:09.846Z</time></trkpt><trkpt lat="44.8052317" lon="7.88688"><ele>334.0</ele><time>2026-04-05T11:42:11.846Z</time></trkpt><trkpt lat="44.80525" lon="7.886985"><ele>334.0</ele><time>2026-04-05T11:42:14.846Z</time></trkpt><trkpt lat="44.8052367" lon="7.887075"><ele>334.0</ele><time>2026-04-05T11:42:17.846Z</time></trkpt><trkpt lat="44.8052017" lon="7.887165"><ele>334.0</ele><time>2026-04-05T11:42:19.845Z</time></trkpt><trkpt lat="44.8051717" lon="7.8872483"><ele>334.0</ele><time>2026-04-05T11:42:23.846Z</time></trkpt><trkpt lat="44.8051467" lon="7.887345"><ele>334.0</ele><time>2026-04-05T11:42:26.845Z</time></trkpt><trkpt lat="44.805125" lon="7.8874467"><ele>334.0</ele><time>2026-04-05T11:42:32.846Z</time></trkpt><trkpt lat="44.8051367" lon="7.8873583"><ele>334.0</ele><time>2026-04-05T11:44:22.846Z</time></trkpt><trkpt lat="44.80515" lon="7.887255"><ele>334.0</ele><time>2026-04-05T11:44:25.846Z</time></trkpt><trkpt lat="44.805195" lon="7.8871783"><ele>334.0</ele><time>2026-04-05T11:44:27.846Z</time></trkpt><trkpt lat="44.8052267" lon="7.8870883"><ele>334.0</ele><time>2026-04-05T11:44:29.845Z</time></trkpt><trkpt lat="44.80523" lon="7.88699"><ele>334.0</ele><time>2026-04-05T11:44:31.846Z</time></trkpt><trkpt lat="44.8052083" lon="7.8868983"><ele>334.0</ele><time>2026-04-05T11:44:33.846Z</time></trkpt><trkpt lat="44.8051767" lon="7.8868167"><ele>334.0</ele><time>2026-04-05T11:44:35.846Z</time></trkpt><trkpt lat="44.80514" lon="7.886735"><ele>334.0</ele><time>2026-04-05T11:44:37.846Z</time></trkpt><trkpt lat="44.8051017" lon="7.88663"><ele>334.0</ele><time>2026-04-05T11:44:40.846Z</time></trkpt><trkpt lat="44.805055" lon="7.8865317"><ele>334.0</ele><time>2026-04-05T11:44:44.845Z</time></trkpt><trkpt lat="44.804995" lon="7.88645"><ele>334.0</ele><time>2026-04-05T11:44:47.846Z</time></trkpt><trkpt lat="44.8049517" lon="7.8863617"><ele>334.0</ele><time>2026-04-05T11:44:50.846Z</time></trkpt><trkpt lat="44.8048917" lon="7.886305"><ele>334.0</ele><time>2026-04-05T11:44:59.846Z</time></trkpt><trkpt lat="44.8047883" lon="7.8862733"><ele>334.0</ele><time>2026-04-05T11:45:46.846Z</time></trkpt><trkpt lat="44.8048567" lon="7.88628"><ele>334.0</ele><time>2026-04-05T11:45:50.846Z</time></trkpt><trkpt lat="44.8049183" lon="7.88634"><ele>334.0</ele><time>2026-04-05T11:45:53.846Z</time></trkpt><trkpt lat="44.8049783" lon="7.8864067"><ele>334.0</ele><time>2026-04-05T11:45:56.846Z</time></trkpt><trkpt lat="44.8050517" lon="7.8865117"><ele>334.0</ele><time>2026-04-05T11:45:59.846Z</time></trkpt><trkpt lat="44.8049983" lon="7.886625"><ele>334.0</ele><time>2026-04-05T11:46:02.846Z</time></trkpt><trkpt lat="44.80492" lon="7.8866917"><ele>334.0</ele><time>2026-04-05T11:46:04.845Z</time></trkpt><trkpt lat="44.8048083" lon="7.8867383"><ele>334.0</ele><time>2026-04-05T11:46:06.845Z</time></trkpt><trkpt lat="44.804745" lon="7.8867633"><ele>334.0</ele><time>2026-04-05T11:46:08.846Z</time></trkpt><trkpt lat="44.8047633" lon="7.886885"><ele>334.0</ele><time>2026-04-05T11:46:11.846Z</time></trkpt><trkpt lat="44.80479" lon="7.8870233"><ele>334.0</ele><time>2026-04-05T11:46:13.846Z</time></trkpt><trkpt lat="44.8047817" lon="7.8871333"><ele>334.0</ele><time>2026-04-05T11:46:15.846Z</time></trkpt><trkpt lat="44.80472" lon="7.8872267"><ele>334.0</ele><time>2026-04-05T11:46:17.846Z</time></trkpt><trkpt lat="44.8046733" lon="7.8872883"><ele>334.0</ele><time>2026-04-05T11:46:18.846Z</time></trkpt><trkpt lat="44.804625" lon="7.887355"><ele>334.0</ele><time>2026-04-05T11:46:19.846Z</time></trkpt><trkpt lat="44.80457" lon="7.8874267"><ele>334.0</ele><time>2026-04-05T11:46:20.845Z</time></trkpt><trkpt lat="44.804505" lon="7.88749"><ele>334.0</ele><time>2026-04-05T11:46:21.846Z</time></trkpt><trkpt lat="44.804445" lon="7.8875467"><ele>334.0</ele><time>2026-04-05T11:46:22.846Z</time></trkpt><trkpt lat="44.8043733" lon="7.8876217"><ele>334.0</ele><time>2026-04-05T11:46:23.846Z</time></trkpt><trkpt lat="44.80431" lon="7.88769"><ele>334.0</ele><time>2026-04-05T11:46:24.846Z</time></trkpt><trkpt lat="44.8042517" lon="7.8877417"><ele>334.0</ele><time>2026-04-05T11:46:25.846Z</time></trkpt><trkpt lat="44.80414" lon="7.8877767"><ele>334.0</ele><time>2026-04-05T11:46:27.846Z</time></trkpt><trkpt lat="44.8040167" lon="7.8877933"><ele>335.0</ele><time>2026-04-05T11:46:29.846Z</time></trkpt><trkpt lat="44.80394" lon="7.8878233"><ele>336.0</ele><time>2026-04-05T11:46:30.846Z</time></trkpt><trkpt lat="44.8038567" lon="7.8878383"><ele>337.0</ele><time>2026-04-05T11:46:31.846Z</time></trkpt><trkpt lat="44.80378" lon="7.8878567"><ele>338.0</ele><time>2026-04-05T11:46:32.846Z</time></trkpt><trkpt lat="44.8036917" lon="7.8878883"><ele>339.0</ele><time>2026-04-05T11:46:33.846Z</time></trkpt><trkpt lat="44.8036" lon="7.887935"><ele>340.0</ele><time>2026-04-05T11:46:34.846Z</time></trkpt><trkpt lat="44.8035217" lon="7.887985"><ele>342.66666666666663</ele><time>2026-04-05T11:46:35.846Z</time></trkpt><trkpt lat="44.8034533" lon="7.8880283"><ele>345.3333333333333</ele><time>2026-04-05T11:46:36.846Z</time></trkpt><trkpt lat="44.80333" lon="7.8880583"><ele>348.0</ele><time>2026-04-05T11:46:38.846Z</time></trkpt><trkpt lat="44.8032667" lon="7.88805"><ele>350.6666666666667</ele><time>2026-04-05T11:46:39.846Z</time></trkpt><trkpt lat="44.8031567" lon="7.8880567"><ele>353.33333333333337</ele><time>2026-04-05T11:46:41.846Z</time></trkpt><trkpt lat="44.8030983" lon="7.8880933"><ele>356.0</ele><time>2026-04-05T11:46:42.845Z</time></trkpt><trkpt lat="44.80303" lon="7.8881417"><ele>356.0</ele><time>2026-04-05T11:46:43.846Z</time></trkpt><trkpt lat="44.8029483" lon="7.8882"><ele>356.0</ele><time>2026-04-05T11:46:44.845Z</time></trkpt><trkpt lat="44.8028683" lon="7.8882633"><ele>356.0</ele><time>2026-04-05T11:46:45.845Z</time></trkpt><trkpt lat="44.8028017" lon="7.888315"><ele>356.0</ele><time>2026-04-05T11:46:46.846Z</time></trkpt><trkpt lat="44.8027217" lon="7.88836"><ele>356.0</ele><time>2026-04-05T11:46:48.846Z</time></trkpt><trkpt lat="44.8026733" lon="7.8884383"><ele>356.0</ele><time>2026-04-05T11:46:52.846Z</time></trkpt><trkpt lat="44.8026483" lon="7.8885883"><ele>356.85714285714283</ele><time>2026-04-05T11:46:54.846Z</time></trkpt><trkpt lat="44.80263" lon="7.888675"><ele>357.7142857142857</ele><time>2026-04-05T11:46:55.846Z</time></trkpt><trkpt lat="44.80261" lon="7.8887617"><ele>358.57142857142856</ele><time>2026-04-05T11:46:56.846Z</time></trkpt><trkpt lat="44.8025933" lon="7.8888533"><ele>359.42857142857144</ele><time>2026-04-05T11:46:57.845Z</time></trkpt><trkpt lat="44.8025783" lon="7.8889467"><ele>360.2857142857143</ele><time>2026-04-05T11:46:58.846Z</time></trkpt><trkpt lat="44.80256" lon="7.8890417"><ele>361.1428571428571</ele><time>2026-04-05T11:46:59.846Z</time></trkpt><trkpt lat="44.8025467" lon="7.88913"><ele>362.0</ele><time>2026-04-05T11:47:00.846Z</time></trkpt><trkpt lat="44.8025167" lon="7.8892833"><ele>363.20000000000005</ele><time>2026-04-05T11:47:02.846Z</time></trkpt><trkpt lat="44.802485" lon="7.88944"><ele>364.4</ele><time>2026-04-05T11:47:04.846Z</time></trkpt><trkpt lat="44.802455" lon="7.8895967"><ele>365.6</ele><time>2026-04-05T11:47:06.846Z</time></trkpt><trkpt lat="44.8024217" lon="7.8897033"><ele>366.79999999999995</ele><time>2026-04-05T11:47:08.846Z</time></trkpt><trkpt lat="44.802465" lon="7.8895717"><ele>368.0</ele><time>2026-04-05T11:47:15.846Z</time></trkpt><trkpt lat="44.802475" lon="7.8894833"><ele>368.0</ele><time>2026-04-05T11:47:16.846Z</time></trkpt><trkpt lat="44.8024917" lon="7.8893717"><ele>368.0</ele><time>2026-04-05T11:47:17.846Z</time></trkpt><trkpt lat="44.80251" lon="7.8892433"><ele>368.0</ele><time>2026-04-05T11:47:18.845Z</time></trkpt><trkpt lat="44.8025367" lon="7.8891167"><ele>368.0</ele><time>2026-04-05T11:47:19.846Z</time></trkpt><trkpt lat="44.8025617" lon="7.8889817"><ele>368.0</ele><time>2026-04-05T11:47:20.846Z</time></trkpt><trkpt lat="44.8025883" lon="7.88884"><ele>366.79999999999995</ele><time>2026-04-05T11:47:21.846Z</time></trkpt><trkpt lat="44.8026217" lon="7.8886883"><ele>365.6</ele><time>2026-04-05T11:47:22.846Z</time></trkpt><trkpt lat="44.8026583" lon="7.8885333"><ele>364.4</ele><time>2026-04-05T11:47:23.846Z</time></trkpt><trkpt lat="44.802695" lon="7.8883917"><ele>363.20000000000005</ele><time>2026-04-05T11:47:24.846Z</time></trkpt><trkpt lat="44.8027317" lon="7.88825"><ele>362.0</ele><time>2026-04-05T11:47:25.846Z</time></trkpt><trkpt lat="44.80277" lon="7.888105"><ele>361.6</ele><time>2026-04-05T11:47:26.846Z</time></trkpt><trkpt lat="44.802815" lon="7.8879683"><ele>361.20000000000005</ele><time>2026-04-05T11:47:27.846Z</time></trkpt><trkpt lat="44.8028717" lon="7.8878383"><ele>360.8</ele><time>2026-04-05T11:47:28.846Z</time></trkpt><trkpt lat="44.8029317" lon="7.8877083"><ele>360.4</ele><time>2026-04-05T11:47:29.846Z</time></trkpt><trkpt lat="44.802995" lon="7.8875833"><ele>360.0</ele><time>2026-04-05T11:47:30.846Z</time></trkpt><trkpt lat="44.8030517" lon="7.8874633"><ele>360.0</ele><time>2026-04-05T11:47:31.846Z</time></trkpt><trkpt lat="44.8031" lon="7.88734"><ele>360.0</ele><time>2026-04-05T11:47:32.845Z</time></trkpt><trkpt lat="44.8031417" lon="7.887205"><ele>360.0</ele><time>2026-04-05T11:47:33.846Z</time></trkpt><trkpt lat="44.8031683" lon="7.8870567"><ele>360.0</ele><time>2026-04-05T11:47:34.846Z</time></trkpt><trkpt lat="44.803185" lon="7.8868983"><ele>360.0</ele><time>2026-04-05T11:47:35.846Z</time></trkpt><trkpt lat="44.80319" lon="7.8867317"><ele>359.75</ele><time>2026-04-05T11:47:36.846Z</time></trkpt><trkpt lat="44.80319" lon="7.8865767"><ele>359.5</ele><time>2026-04-05T11:47:37.846Z</time></trkpt><trkpt lat="44.8031867" lon="7.886415"><ele>359.25</ele><time>2026-04-05T11:47:38.846Z</time></trkpt><trkpt lat="44.8031867" lon="7.886255"><ele>359.0</ele><time>2026-04-05T11:47:39.846Z</time></trkpt><trkpt lat="44.803185" lon="7.8860967"><ele>359.0</ele><time>2026-04-05T11:47:40.845Z</time></trkpt><trkpt lat="44.8031817" lon="7.885945"><ele>359.0</ele><time>2026-04-05T11:47:41.846Z</time></trkpt><trkpt lat="44.8031817" lon="7.8857883"><ele>359.0</ele><time>2026-04-05T11:47:42.846Z</time></trkpt><trkpt lat="44.8031817" lon="7.88563"><ele>359.0</ele><time>2026-04-05T11:47:43.846Z</time></trkpt><trkpt lat="44.8031867" lon="7.8854717"><ele>359.0</ele><time>2026-04-05T11:47:44.845Z</time></trkpt><trkpt lat="44.8032017" lon="7.8853183"><ele>358.0</ele><time>2026-04-05T11:47:45.846Z</time></trkpt><trkpt lat="44.8032233" lon="7.885165"><ele>357.0</ele><time>2026-04-05T11:47:46.846Z</time></trkpt><trkpt lat="44.8032467" lon="7.8850233"><ele>356.0</ele><time>2026-04-05T11:47:47.846Z</time></trkpt><trkpt lat="44.8032767" lon="7.884885"><ele>355.0</ele><time>2026-04-05T11:47:48.846Z</time></trkpt><trkpt lat="44.803315" lon="7.8847467"><ele>354.0</ele><time>2026-04-05T11:47:49.846Z</time></trkpt><trkpt lat="44.8033533" lon="7.8846083"><ele>354.0</ele><time>2026-04-05T11:47:50.846Z</time></trkpt><trkpt lat="44.8033983" lon="7.8844733"><ele>354.0</ele><time>2026-04-05T11:47:51.845Z</time></trkpt><trkpt lat="44.80345" lon="7.8843467"><ele>354.0</ele><time>2026-04-05T11:47:52.846Z</time></trkpt><trkpt lat="44.803505" lon="7.8842167"><ele>354.0</ele><time>2026-04-05T11:47:53.846Z</time></trkpt><trkpt lat="44.8035567" lon="7.88408"><ele>354.0</ele><time>2026-04-05T11:47:54.846Z</time></trkpt><trkpt lat="44.80361" lon="7.88394"><ele>354.0</ele><time>2026-04-05T11:47:55.846Z</time></trkpt><trkpt lat="44.8036667" lon="7.88381"><ele>354.0</ele><time>2026-04-05T11:47:56.846Z</time></trkpt><trkpt lat="44.8037283" lon="7.88369"><ele>354.0</ele><time>2026-04-05T11:47:57.846Z</time></trkpt><trkpt lat="44.8038" lon="7.8835783"><ele>354.0</ele><time>2026-04-05T11:47:58.846Z</time></trkpt><trkpt lat="44.803885" lon="7.8834833"><ele>354.0</ele><time>2026-04-05T11:47:59.846Z</time></trkpt><trkpt lat="44.8039717" lon="7.8833933"><ele>354.6</ele><time>2026-04-05T11:48:00.846Z</time></trkpt><trkpt lat="44.804055" lon="7.8833083"><ele>355.2</ele><time>2026-04-05T11:48:01.846Z</time></trkpt><trkpt lat="44.80414" lon="7.8832217"><ele>355.8</ele><time>2026-04-05T11:48:02.845Z</time></trkpt><trkpt lat="44.80422" lon="7.883135"><ele>356.40000000000003</ele><time>2026-04-05T11:48:03.846Z</time></trkpt><trkpt lat="44.8043083" lon="7.8830517"><ele>357.0</ele><time>2026-04-05T11:48:04.846Z</time></trkpt><trkpt lat="44.8044" lon="7.8829767"><ele>357.8</ele><time>2026-04-05T11:48:05.846Z</time></trkpt><trkpt lat="44.8045" lon="7.8829167"><ele>358.6</ele><time>2026-04-05T11:48:06.846Z</time></trkpt><trkpt lat="44.8046" lon="7.8828617"><ele>359.40000000000003</ele><time>2026-04-05T11:48:07.846Z</time></trkpt><trkpt lat="44.8047033" lon="7.8828083"><ele>360.20000000000005</ele><time>2026-04-05T11:48:08.846Z</time></trkpt><trkpt lat="44.8048017" lon="7.88275"><ele>361.0</ele><time>2026-04-05T11:48:09.845Z</time></trkpt><trkpt lat="44.8048967" lon="7.8826667"><ele>359.5</ele><time>2026-04-05T11:48:10.846Z</time></trkpt><trkpt lat="44.8049967" lon="7.8825833"><ele>358.0</ele><time>2026-04-05T11:48:11.846Z</time></trkpt><trkpt lat="44.805095" lon="7.88248"><ele>356.5</ele><time>2026-04-05T11:48:12.846Z</time></trkpt><trkpt lat="44.8051883" lon="7.8823517"><ele>355.0</ele><time>2026-04-05T11:48:13.846Z</time></trkpt><trkpt lat="44.8052917" lon="7.8822133"><ele>355.0</ele><time>2026-04-05T11:48:14.846Z</time></trkpt><trkpt lat="44.8053833" lon="7.8820867"><ele>355.0</ele><time>2026-04-05T11:48:15.846Z</time></trkpt><trkpt lat="44.8054783" lon="7.8819683"><ele>355.0</ele><time>2026-04-05T11:48:16.846Z</time></trkpt><trkpt lat="44.8055683" lon="7.8818567"><ele>355.0</ele><time>2026-04-05T11:48:17.846Z</time></trkpt><trkpt lat="44.805655" lon="7.88173"><ele>354.5</ele><time>2026-04-05T11:48:18.846Z</time></trkpt><trkpt lat="44.8057433" lon="7.88161"><ele>354.0</ele><time>2026-04-05T11:48:19.846Z</time></trkpt><trkpt lat="44.8058383" lon="7.8814917"><ele>353.5</ele><time>2026-04-05T11:48:20.846Z</time></trkpt><trkpt lat="44.8059283" lon="7.88138"><ele>353.0</ele><time>2026-04-05T11:48:21.846Z</time></trkpt><trkpt lat="44.806015" lon="7.881275"><ele>352.0</ele><time>2026-04-05T11:48:22.845Z</time></trkpt><trkpt lat="44.8061" lon="7.881175"><ele>351.0</ele><time>2026-04-05T11:48:23.846Z</time></trkpt><trkpt lat="44.8061883" lon="7.8810767"><ele>350.0</ele><time>2026-04-05T11:48:24.846Z</time></trkpt><trkpt lat="44.8062867" lon="7.88098"><ele>349.0</ele><time>2026-04-05T11:48:25.846Z</time></trkpt><trkpt lat="44.80639" lon="7.880895"><ele>349.0</ele><time>2026-04-05T11:48:26.846Z</time></trkpt><trkpt lat="44.8065" lon="7.8808167"><ele>349.0</ele><time>2026-04-05T11:48:27.846Z</time></trkpt><trkpt lat="44.8066133" lon="7.8807483"><ele>349.0</ele><time>2026-04-05T11:48:28.846Z</time></trkpt><trkpt lat="44.8067283" lon="7.88068"><ele>349.0</ele><time>2026-04-05T11:48:29.846Z</time></trkpt><trkpt lat="44.806845" lon="7.8806033"><ele>348.25</ele><time>2026-04-05T11:48:30.846Z</time></trkpt><trkpt lat="44.8069583" lon="7.880515"><ele>347.5</ele><time>2026-04-05T11:48:31.846Z</time></trkpt><trkpt lat="44.8070733" lon="7.88043"><ele>346.75</ele><time>2026-04-05T11:48:32.846Z</time></trkpt><trkpt lat="44.8072" lon="7.8803467"><ele>346.0</ele><time>2026-04-05T11:48:33.845Z</time></trkpt><trkpt lat="44.8073167" lon="7.8802717"><ele>346.0</ele><time>2026-04-05T11:48:34.846Z</time></trkpt><trkpt lat="44.80743" lon="7.880195"><ele>346.0</ele><time>2026-04-05T11:48:35.846Z</time></trkpt><trkpt lat="44.8075383" lon="7.8801133"><ele>346.0</ele><time>2026-04-05T11:48:36.846Z</time></trkpt><trkpt lat="44.8076417" lon="7.880015"><ele>346.0</ele><time>2026-04-05T11:48:37.846Z</time></trkpt><trkpt lat="44.807745" lon="7.879905"><ele>345.0</ele><time>2026-04-05T11:48:38.845Z</time></trkpt><trkpt lat="44.8078483" lon="7.8798"><ele>344.0</ele><time>2026-04-05T11:48:39.846Z</time></trkpt><trkpt lat="44.807955" lon="7.8796933"><ele>343.0</ele><time>2026-04-05T11:48:40.846Z</time></trkpt><trkpt lat="44.8080667" lon="7.8795817"><ele>342.0</ele><time>2026-04-05T11:48:41.846Z</time></trkpt><trkpt lat="44.8081767" lon="7.879485"><ele>342.0</ele><time>2026-04-05T11:48:42.846Z</time></trkpt><trkpt lat="44.8082967" lon="7.879405"><ele>342.0</ele><time>2026-04-05T11:48:43.846Z</time></trkpt><trkpt lat="44.80842" lon="7.8793317"><ele>342.0</ele><time>2026-04-05T11:48:44.846Z</time></trkpt><trkpt lat="44.808545" lon="7.8792717"><ele>342.0</ele><time>2026-04-05T11:48:45.846Z</time></trkpt><trkpt lat="44.80868" lon="7.87924"><ele>343.5</ele><time>2026-04-05T11:48:46.846Z</time></trkpt><trkpt lat="44.808815" lon="7.8792233"><ele>345.0</ele><time>2026-04-05T11:48:47.846Z</time></trkpt><trkpt lat="44.808945" lon="7.8792167"><ele>346.5</ele><time>2026-04-05T11:48:48.846Z</time></trkpt><trkpt lat="44.8090717" lon="7.8792067"><ele>348.0</ele><time>2026-04-05T11:48:49.846Z</time></trkpt><trkpt lat="44.8091933" lon="7.8791917"><ele>348.0</ele><time>2026-04-05T11:48:50.846Z</time></trkpt><trkpt lat="44.8093033" lon="7.8791617"><ele>348.0</ele><time>2026-04-05T11:48:51.846Z</time></trkpt><trkpt lat="44.8094067" lon="7.879105"><ele>348.0</ele><time>2026-04-05T11:48:52.846Z</time></trkpt><trkpt lat="44.8095133" lon="7.8790183"><ele>348.0</ele><time>2026-04-05T11:48:53.846Z</time></trkpt><trkpt lat="44.8096133" lon="7.8789117"><ele>347.5</ele><time>2026-04-05T11:48:54.846Z</time></trkpt><trkpt lat="44.8097067" lon="7.8788"><ele>347.0</ele><time>2026-04-05T11:48:55.846Z</time></trkpt><trkpt lat="44.8097983" lon="7.8786833"><ele>346.5</ele><time>2026-04-05T11:48:56.846Z</time></trkpt><trkpt lat="44.8098933" lon="7.8785583"><ele>346.0</ele><time>2026-04-05T11:48:57.846Z</time></trkpt><trkpt lat="44.8099917" lon="7.8784233"><ele>346.0</ele><time>2026-04-05T11:48:58.846Z</time></trkpt><trkpt lat="44.8100933" lon="7.8782883"><ele>346.0</ele><time>2026-04-05T11:48:59.846Z</time></trkpt><trkpt lat="44.81019" lon="7.8781467"><ele>346.0</ele><time>2026-04-05T11:49:00.845Z</time></trkpt><trkpt lat="44.81028" lon="7.8780033"><ele>346.0</ele><time>2026-04-05T11:49:01.846Z</time></trkpt><trkpt lat="44.810365" lon="7.8778567"><ele>345.5</ele><time>2026-04-05T11:49:02.846Z</time></trkpt><trkpt lat="44.8104383" lon="7.8776917"><ele>345.0</ele><time>2026-04-05T11:49:03.846Z</time></trkpt><trkpt lat="44.8105033" lon="7.8775333"><ele>344.5</ele><time>2026-04-05T11:49:04.846Z</time></trkpt><trkpt lat="44.8105567" lon="7.8773683"><ele>344.0</ele><time>2026-04-05T11:49:05.846Z</time></trkpt><trkpt lat="44.8106083" lon="7.8771983"><ele>344.0</ele><time>2026-04-05T11:49:06.846Z</time></trkpt><trkpt lat="44.810655" lon="7.877025"><ele>344.0</ele><time>2026-04-05T11:49:07.846Z</time></trkpt><trkpt lat="44.810695" lon="7.8768533"><ele>344.0</ele><time>2026-04-05T11:49:08.846Z</time></trkpt><trkpt lat="44.810735" lon="7.8766817"><ele>344.0</ele><time>2026-04-05T11:49:09.845Z</time></trkpt><trkpt lat="44.8107767" lon="7.8765083"><ele>344.6</ele><time>2026-04-05T11:49:10.845Z</time></trkpt><trkpt lat="44.8108167" lon="7.8763483"><ele>345.2</ele><time>2026-04-05T11:49:11.845Z</time></trkpt><trkpt lat="44.810855" lon="7.8762067"><ele>345.8</ele><time>2026-04-05T11:49:12.846Z</time></trkpt><trkpt lat="44.81089" lon="7.8760733"><ele>346.40000000000003</ele><time>2026-04-05T11:49:13.846Z</time></trkpt><trkpt lat="44.8109283" lon="7.8759533"><ele>347.0</ele><time>2026-04-05T11:49:14.845Z</time></trkpt><trkpt lat="44.810985" lon="7.875845"><ele>345.40000000000003</ele><time>2026-04-05T11:49:15.845Z</time></trkpt><trkpt lat="44.8110633" lon="7.87576"><ele>343.8</ele><time>2026-04-05T11:49:16.845Z</time></trkpt><trkpt lat="44.8111583" lon="7.8756833"><ele>342.2</ele><time>2026-04-05T11:49:17.845Z</time></trkpt><trkpt lat="44.8112667" lon="7.8756083"><ele>340.6</ele><time>2026-04-05T11:49:18.845Z</time></trkpt><trkpt lat="44.811375" lon="7.875535"><ele>339.0</ele><time>2026-04-05T11:49:19.845Z</time></trkpt><trkpt lat="44.8114733" lon="7.875455"><ele>339.0</ele><time>2026-04-05T11:49:20.845Z</time></trkpt><trkpt lat="44.8115733" lon="7.87537"><ele>339.0</ele><time>2026-04-05T11:49:21.845Z</time></trkpt><trkpt lat="44.8116717" lon="7.8752833"><ele>339.0</ele><time>2026-04-05T11:49:22.844Z</time></trkpt><trkpt lat="44.8117683" lon="7.8752"><ele>339.0</ele><time>2026-04-05T11:49:23.844Z</time></trkpt><trkpt lat="44.8118633" lon="7.8751267"><ele>339.79999999999995</ele><time>2026-04-05T11:49:24.845Z</time></trkpt><trkpt lat="44.8119617" lon="7.8750583"><ele>340.59999999999997</ele><time>2026-04-05T11:49:25.845Z</time></trkpt><trkpt lat="44.81206" lon="7.875"><ele>341.4</ele><time>2026-04-05T11:49:26.844Z</time></trkpt><trkpt lat="44.8121533" lon="7.874965"><ele>342.2</ele><time>2026-04-05T11:49:27.845Z</time></trkpt><trkpt lat="44.8122433" lon="7.8749633"><ele>343.0</ele><time>2026-04-05T11:49:28.845Z</time></trkpt><trkpt lat="44.812345" lon="7.874995"><ele>343.0</ele><time>2026-04-05T11:49:29.845Z</time></trkpt><trkpt lat="44.812465" lon="7.87505"><ele>343.0</ele><time>2026-04-05T11:49:30.845Z</time></trkpt><trkpt lat="44.8125867" lon="7.875105"><ele>343.0</ele><time>2026-04-05T11:49:31.845Z</time></trkpt><trkpt lat="44.8126983" lon="7.8751467"><ele>343.0</ele><time>2026-04-05T11:49:32.845Z</time></trkpt><trkpt lat="44.8128033" lon="7.875185"><ele>343.0</ele><time>2026-04-05T11:49:33.844Z</time></trkpt><trkpt lat="44.8129033" lon="7.87522"><ele>343.0</ele><time>2026-04-05T11:49:34.845Z</time></trkpt><trkpt lat="44.8129983" lon="7.8752533"><ele>343.0</ele><time>2026-04-05T11:49:35.844Z</time></trkpt><trkpt lat="44.8131067" lon="7.8752783"><ele>343.0</ele><time>2026-04-05T11:49:36.845Z</time></trkpt><trkpt lat="44.813225" lon="7.8752983"><ele>343.0</ele><time>2026-04-05T11:49:37.845Z</time></trkpt><trkpt lat="44.81334" lon="7.8753117"><ele>343.0</ele><time>2026-04-05T11:49:38.844Z</time></trkpt><trkpt lat="44.8134433" lon="7.8753033"><ele>343.0</ele><time>2026-04-05T11:49:39.845Z</time></trkpt><trkpt lat="44.813545" lon="7.8752733"><ele>343.0</ele><time>2026-04-05T11:49:40.845Z</time></trkpt><trkpt lat="44.813635" lon="7.8752333"><ele>343.0</ele><time>2026-04-05T11:49:41.845Z</time></trkpt><trkpt lat="44.8137233" lon="7.8751933"><ele>343.0</ele><time>2026-04-05T11:49:42.845Z</time></trkpt><trkpt lat="44.8138033" lon="7.8751567"><ele>343.16666666666663</ele><time>2026-04-05T11:49:43.845Z</time></trkpt><trkpt lat="44.8138717" lon="7.875115"><ele>343.3333333333333</ele><time>2026-04-05T11:49:44.845Z</time></trkpt><trkpt lat="44.8139283" lon="7.8750583"><ele>343.5</ele><time>2026-04-05T11:49:45.845Z</time></trkpt><trkpt lat="44.81398" lon="7.8749933"><ele>343.6666666666667</ele><time>2026-04-05T11:49:46.845Z</time></trkpt><trkpt lat="44.81405" lon="7.8748867"><ele>343.83333333333337</ele><time>2026-04-05T11:49:48.845Z</time></trkpt><trkpt lat="44.8141283" lon="7.8748133"><ele>344.0</ele><time>2026-04-05T11:49:50.844Z</time></trkpt><trkpt lat="44.8142283" lon="7.87478"><ele>343.2</ele><time>2026-04-05T11:49:52.844Z</time></trkpt><trkpt lat="44.81434" lon="7.87491"><ele>342.4</ele><time>2026-04-05T11:49:54.845Z</time></trkpt><trkpt lat="44.814395" lon="7.875025"><ele>341.6</ele><time>2026-04-05T11:49:55.845Z</time></trkpt><trkpt lat="44.8144517" lon="7.875135"><ele>340.8</ele><time>2026-04-05T11:49:56.844Z</time></trkpt><trkpt lat="44.8145" lon="7.8752333"><ele>340.0</ele><time>2026-04-05T11:49:57.844Z</time></trkpt><trkpt lat="44.8145417" lon="7.8753267"><ele>340.0</ele><time>2026-04-05T11:49:58.845Z</time></trkpt><trkpt lat="44.81458" lon="7.875415"><ele>340.0</ele><time>2026-04-05T11:49:59.845Z</time></trkpt><trkpt lat="44.8146183" lon="7.8754883"><ele>340.0</ele><time>2026-04-05T11:50:00.845Z</time></trkpt><trkpt lat="44.8147183" lon="7.8755767"><ele>340.0</ele><time>2026-04-05T11:50:02.845Z</time></trkpt><trkpt lat="44.8147917" lon="7.875605"><ele>340.0</ele><time>2026-04-05T11:50:03.845Z</time></trkpt><trkpt lat="44.8148733" lon="7.8756367"><ele>340.0</ele><time>2026-04-05T11:50:04.845Z</time></trkpt><trkpt lat="44.8149517" lon="7.875675"><ele>340.0</ele><time>2026-04-05T11:50:05.845Z</time></trkpt><trkpt lat="44.8150283" lon="7.8757183"><ele>340.0</ele><time>2026-04-05T11:50:06.845Z</time></trkpt><trkpt lat="44.8150917" lon="7.8757767"><ele>340.0</ele><time>2026-04-05T11:50:07.845Z</time></trkpt><trkpt lat="44.81514" lon="7.8758583"><ele>340.0</ele><time>2026-04-05T11:50:08.845Z</time></trkpt><trkpt lat="44.8151833" lon="7.875935"><ele>340.0</ele><time>2026-04-05T11:50:09.845Z</time></trkpt><trkpt lat="44.8152783" lon="7.8760483"><ele>340.0</ele><time>2026-04-05T11:50:11.845Z</time></trkpt><trkpt lat="44.8153317" lon="7.8761167"><ele>340.0</ele><time>2026-04-05T11:50:12.845Z</time></trkpt><trkpt lat="44.8154" lon="7.876195"><ele>340.0</ele><time>2026-04-05T11:50:13.845Z</time></trkpt><trkpt lat="44.8154867" lon="7.87628"><ele>340.0</ele><time>2026-04-05T11:50:14.845Z</time></trkpt><trkpt lat="44.815585" lon="7.87635"><ele>340.0</ele><time>2026-04-05T11:50:15.845Z</time></trkpt><trkpt lat="44.8156767" lon="7.8764067"><ele>340.0</ele><time>2026-04-05T11:50:16.845Z</time></trkpt><trkpt lat="44.8157483" lon="7.8764667"><ele>340.0</ele><time>2026-04-05T11:50:17.845Z</time></trkpt><trkpt lat="44.8158067" lon="7.876515"><ele>340.0</ele><time>2026-04-05T11:50:18.844Z</time></trkpt><trkpt lat="44.81589" lon="7.8766367"><ele>340.0</ele><time>2026-04-05T11:50:20.845Z</time></trkpt><trkpt lat="44.815925" lon="7.876715"><ele>340.0</ele><time>2026-04-05T11:50:21.844Z</time></trkpt><trkpt lat="44.8159533" lon="7.8767983"><ele>340.0</ele><time>2026-04-05T11:50:22.845Z</time></trkpt><trkpt lat="44.8159933" lon="7.876965"><ele>340.0</ele><time>2026-04-05T11:50:24.845Z</time></trkpt><trkpt lat="44.8160117" lon="7.8770583"><ele>338.8</ele><time>2026-04-05T11:50:25.845Z</time></trkpt><trkpt lat="44.8160267" lon="7.8771517"><ele>337.6</ele><time>2026-04-05T11:50:26.845Z</time></trkpt><trkpt lat="44.8160383" lon="7.877245"><ele>336.4</ele><time>2026-04-05T11:50:27.845Z</time></trkpt><trkpt lat="44.8160283" lon="7.8774033"><ele>335.2</ele><time>2026-04-05T11:50:29.845Z</time></trkpt><trkpt lat="44.81595" lon="7.87747"><ele>334.0</ele><time>2026-04-05T11:50:31.845Z</time></trkpt><trkpt lat="44.8158183" lon="7.8774983"><ele>333.7142857142857</ele><time>2026-04-05T11:50:33.845Z</time></trkpt><trkpt lat="44.81576" lon="7.8775383"><ele>333.42857142857144</ele><time>2026-04-05T11:50:34.845Z</time></trkpt><trkpt lat="44.8157067" lon="7.8776067"><ele>333.1428571428571</ele><time>2026-04-05T11:50:35.845Z</time></trkpt><trkpt lat="44.8156567" lon="7.8776817"><ele>332.8571428571429</ele><time>2026-04-05T11:50:36.845Z</time></trkpt><trkpt lat="44.8156133" lon="7.8777583"><ele>332.5714285714286</ele><time>2026-04-05T11:50:37.845Z</time></trkpt><trkpt lat="44.8155833" lon="7.87785"><ele>332.2857142857143</ele><time>2026-04-05T11:50:38.845Z</time></trkpt><trkpt lat="44.8155567" lon="7.8779567"><ele>332.0</ele><time>2026-04-05T11:50:39.845Z</time></trkpt><trkpt lat="44.815525" lon="7.8780717"><ele>330.0</ele><time>2026-04-05T11:50:40.845Z</time></trkpt><trkpt lat="44.8155033" lon="7.8781817"><ele>328.0</ele><time>2026-04-05T11:50:41.845Z</time></trkpt><trkpt lat="44.8154817" lon="7.8782917"><ele>326.0</ele><time>2026-04-05T11:50:42.845Z</time></trkpt><trkpt lat="44.8154517" lon="7.8783917"><ele>324.0</ele><time>2026-04-05T11:50:43.845Z</time></trkpt><trkpt lat="44.8154233" lon="7.878475"><ele>322.0</ele><time>2026-04-05T11:50:44.844Z</time></trkpt><trkpt lat="44.8153517" lon="7.8785767"><ele>320.0</ele><time>2026-04-05T11:50:46.845Z</time></trkpt><trkpt lat="44.8152533" lon="7.8785717"><ele>319.8</ele><time>2026-04-05T11:50:48.845Z</time></trkpt><trkpt lat="44.8151717" lon="7.878535"><ele>319.6</ele><time>2026-04-05T11:50:50.845Z</time></trkpt><trkpt lat="44.8150633" lon="7.8784067"><ele>319.4</ele><time>2026-04-05T11:50:56.845Z</time></trkpt><trkpt lat="44.8150283" lon="7.8783017"><ele>319.2</ele><time>2026-04-05T11:50:57.845Z</time></trkpt><trkpt lat="44.81499" lon="7.878185"><ele>319.0</ele><time>2026-04-05T11:50:58.845Z</time></trkpt><trkpt lat="44.81496" lon="7.8780517"><ele>319.0</ele><time>2026-04-05T11:50:59.845Z</time></trkpt><trkpt lat="44.81492" lon="7.877925"><ele>319.0</ele><time>2026-04-05T11:51:00.845Z</time></trkpt><trkpt lat="44.8148817" lon="7.877805"><ele>319.0</ele><time>2026-04-05T11:51:01.844Z</time></trkpt><trkpt lat="44.8148567" lon="7.87769"><ele>319.0</ele><time>2026-04-05T11:51:02.845Z</time></trkpt><trkpt lat="44.814835" lon="7.8775817"><ele>319.0</ele><time>2026-04-05T11:51:03.845Z</time></trkpt><trkpt lat="44.8148117" lon="7.8774717"><ele>319.0</ele><time>2026-04-05T11:51:04.845Z</time></trkpt><trkpt lat="44.81478" lon="7.8773367"><ele>319.0</ele><time>2026-04-05T11:51:06.844Z</time></trkpt><trkpt lat="44.8147933" lon="7.8774617"><ele>319.0</ele><time>2026-04-05T11:51:20.845Z</time></trkpt><trkpt lat="44.8148133" lon="7.877635"><ele>319.0</ele><time>2026-04-05T11:51:22.844Z</time></trkpt><trkpt lat="44.8148267" lon="7.87773"><ele>319.0</ele><time>2026-04-05T11:51:23.845Z</time></trkpt><trkpt lat="44.814845" lon="7.8778167"><ele>319.0</ele><time>2026-04-05T11:51:24.844Z</time></trkpt><trkpt lat="44.8148633" lon="7.8779067"><ele>319.0</ele><time>2026-04-05T11:51:25.845Z</time></trkpt><trkpt lat="44.81489" lon="7.8779917"><ele>319.0</ele><time>2026-04-05T11:51:26.845Z</time></trkpt><trkpt lat="44.8149317" lon="7.878145"><ele>319.0</ele><time>2026-04-05T11:51:28.844Z</time></trkpt><trkpt lat="44.8149567" lon="7.8782267"><ele>319.0</ele><time>2026-04-05T11:51:29.845Z</time></trkpt><trkpt lat="44.81499" lon="7.878305"><ele>319.0</ele><time>2026-04-05T11:51:30.845Z</time></trkpt><trkpt lat="44.8150483" lon="7.8784183"><ele>319.0</ele><time>2026-04-05T11:51:32.845Z</time></trkpt><trkpt lat="44.81512" lon="7.8784983"><ele>319.0</ele><time>2026-04-05T11:51:34.845Z</time></trkpt><trkpt lat="44.81516" lon="7.8785833"><ele>317.0</ele><time>2026-04-05T11:51:36.845Z</time></trkpt><trkpt lat="44.8151883" lon="7.87867"><ele>315.0</ele><time>2026-04-05T11:51:38.844Z</time></trkpt><trkpt lat="44.815225" lon="7.8787483"><ele>313.0</ele><time>2026-04-05T11:51:41.844Z</time></trkpt><trkpt lat="44.8152817" lon="7.878855"><ele>311.0</ele><time>2026-04-05T11:51:44.844Z</time></trkpt><trkpt lat="44.8153317" lon="7.8789633"><ele>309.0</ele><time>2026-04-05T11:51:47.845Z</time></trkpt><trkpt lat="44.815365" lon="7.8790417"><ele>307.0</ele><time>2026-04-05T11:51:50.845Z</time></trkpt><trkpt lat="44.815435" lon="7.8790967"><ele>307.0</ele><time>2026-04-05T11:52:02.845Z</time></trkpt><trkpt lat="44.8155333" lon="7.8791033"><ele>307.0</ele><time>2026-04-05T11:52:04.844Z</time></trkpt><trkpt lat="44.815625" lon="7.8791033"><ele>307.0</ele><time>2026-04-05T11:52:06.845Z</time></trkpt><trkpt lat="44.81572" lon="7.87909"><ele>307.0</ele><time>2026-04-05T11:52:09.845Z</time></trkpt><trkpt lat="44.8157983" lon="7.87911"><ele>307.0</ele><time>2026-04-05T11:52:11.845Z</time></trkpt><trkpt lat="44.8158733" lon="7.879125"><ele>307.0</ele><time>2026-04-05T11:52:13.845Z</time></trkpt><trkpt lat="44.8159467" lon="7.8791317"><ele>306.8333333333333</ele><time>2026-04-05T11:52:15.845Z</time></trkpt><trkpt lat="44.8160167" lon="7.8791533"><ele>306.66666666666663</ele><time>2026-04-05T11:52:17.845Z</time></trkpt><trkpt lat="44.816095" lon="7.87918"><ele>306.5</ele><time>2026-04-05T11:52:19.845Z</time></trkpt><trkpt lat="44.8161867" lon="7.8791833"><ele>306.3333333333333</ele><time>2026-04-05T11:52:21.845Z</time></trkpt><trkpt lat="44.8162883" lon="7.8792017"><ele>306.1666666666667</ele><time>2026-04-05T11:52:23.845Z</time></trkpt><trkpt lat="44.8163683" lon="7.8792267"><ele>306.0</ele><time>2026-04-05T11:52:25.845Z</time></trkpt><trkpt lat="44.8164467" lon="7.87925"><ele>306.0</ele><time>2026-04-05T11:52:27.845Z</time></trkpt><trkpt lat="44.8165417" lon="7.8792333"><ele>306.0</ele><time>2026-04-05T11:52:29.844Z</time></trkpt><trkpt lat="44.8166433" lon="7.8791983"><ele>306.0</ele><time>2026-04-05T11:52:31.844Z</time></trkpt><trkpt lat="44.8167067" lon="7.8791733"><ele>306.0</ele><time>2026-04-05T11:52:33.845Z</time></trkpt><trkpt lat="44.81677" lon="7.879155"><ele>306.0</ele><time>2026-04-05T11:52:35.845Z</time></trkpt><trkpt lat="44.816835" lon="7.8791583"><ele>306.0</ele><time>2026-04-05T11:52:37.845Z</time></trkpt><trkpt lat="44.81692" lon="7.8791617"><ele>305.5</ele><time>2026-04-05T11:52:40.845Z</time></trkpt><trkpt lat="44.8169833" lon="7.8791567"><ele>305.0</ele><time>2026-04-05T11:52:42.845Z</time></trkpt><trkpt lat="44.8170533" lon="7.8791233"><ele>304.5</ele><time>2026-04-05T11:52:44.845Z</time></trkpt><trkpt lat="44.8171417" lon="7.879075"><ele>304.0</ele><time>2026-04-05T11:52:47.845Z</time></trkpt><trkpt lat="44.817205" lon="7.87907"><ele>303.5</ele><time>2026-04-05T11:52:49.845Z</time></trkpt><trkpt lat="44.8173117" lon="7.8790367"><ele>303.0</ele><time>2026-04-05T11:53:42.845Z</time></trkpt><trkpt lat="44.8172233" lon="7.8790683"><ele>303.0</ele><time>2026-04-05T11:53:44.845Z</time></trkpt><trkpt lat="44.8171217" lon="7.8791383"><ele>303.0</ele><time>2026-04-05T11:53:46.845Z</time></trkpt><trkpt lat="44.8170283" lon="7.8791467"><ele>303.0</ele><time>2026-04-05T11:53:49.845Z</time></trkpt><trkpt lat="44.8169367" lon="7.879155"><ele>303.0</ele><time>2026-04-05T11:53:51.845Z</time></trkpt><trkpt lat="44.8168233" lon="7.8791733"><ele>303.0</ele><time>2026-04-05T11:53:53.845Z</time></trkpt><trkpt lat="44.816755" lon="7.87919"><ele>303.75</ele><time>2026-04-05T11:53:54.844Z</time></trkpt><trkpt lat="44.8166383" lon="7.8792283"><ele>304.5</ele><time>2026-04-05T11:53:56.844Z</time></trkpt><trkpt lat="44.8165233" lon="7.879245"><ele>305.25</ele><time>2026-04-05T11:53:58.845Z</time></trkpt><trkpt lat="44.81642" lon="7.87925"><ele>306.0</ele><time>2026-04-05T11:54:00.845Z</time></trkpt><trkpt lat="44.8163033" lon="7.8792317"><ele>306.0</ele><time>2026-04-05T11:54:02.844Z</time></trkpt><trkpt lat="44.8161867" lon="7.8792083"><ele>306.0</ele><time>2026-04-05T11:54:04.845Z</time></trkpt><trkpt lat="44.8161233" lon="7.879195"><ele>306.0</ele><time>2026-04-05T11:54:05.845Z</time></trkpt><trkpt lat="44.8160383" lon="7.8791633"><ele>306.0</ele><time>2026-04-05T11:54:07.845Z</time></trkpt><trkpt lat="44.8159267" lon="7.879125"><ele>306.0</ele><time>2026-04-05T11:54:09.845Z</time></trkpt><trkpt lat="44.815845" lon="7.8791"><ele>306.1666666666667</ele><time>2026-04-05T11:54:11.845Z</time></trkpt><trkpt lat="44.8157817" lon="7.87909"><ele>306.3333333333333</ele><time>2026-04-05T11:54:13.845Z</time></trkpt><trkpt lat="44.8156983" lon="7.8790983"><ele>306.5</ele><time>2026-04-05T11:54:16.844Z</time></trkpt><trkpt lat="44.8156233" lon="7.8791117"><ele>306.66666666666663</ele><time>2026-04-05T11:54:18.845Z</time></trkpt><trkpt lat="44.8155367" lon="7.879135"><ele>306.8333333333333</ele><time>2026-04-05T11:54:20.845Z</time></trkpt><trkpt lat="44.8154667" lon="7.8791267"><ele>307.0</ele><time>2026-04-05T11:54:22.845Z</time></trkpt><trkpt lat="44.8153917" lon="7.87913"><ele>307.0</ele><time>2026-04-05T11:54:24.845Z</time></trkpt><trkpt lat="44.8153033" lon="7.8791983"><ele>307.0</ele><time>2026-04-05T11:54:26.845Z</time></trkpt><trkpt lat="44.81524" lon="7.87925"><ele>307.0</ele><time>2026-04-05T11:54:28.845Z</time></trkpt><trkpt lat="44.8152067" lon="7.87933"><ele>307.0</ele><time>2026-04-05T11:54:38.845Z</time></trkpt><trkpt lat="44.8152117" lon="7.879425"><ele>307.0</ele><time>2026-04-05T11:54:41.845Z</time></trkpt><trkpt lat="44.8152767" lon="7.879515"><ele>307.0</ele><time>2026-04-05T11:54:47.845Z</time></trkpt><trkpt lat="44.8153483" lon="7.8795933"><ele>306.66666666666663</ele><time>2026-04-05T11:54:50.845Z</time></trkpt><trkpt lat="44.8154033" lon="7.8796817"><ele>306.3333333333333</ele><time>2026-04-05T11:54:52.845Z</time></trkpt><trkpt lat="44.8154267" lon="7.8797883"><ele>306.0</ele><time>2026-04-05T11:54:55.845Z</time></trkpt><trkpt lat="44.81539" lon="7.8798767"><ele>305.6666666666667</ele><time>2026-04-05T11:55:01.845Z</time></trkpt><trkpt lat="44.8153067" lon="7.8799017"><ele>305.33333333333337</ele><time>2026-04-05T11:55:03.845Z</time></trkpt><trkpt lat="44.8152033" lon="7.879945"><ele>305.0</ele><time>2026-04-05T11:55:05.845Z</time></trkpt><trkpt lat="44.8151367" lon="7.8800083"><ele>307.1666666666667</ele><time>2026-04-05T11:55:07.844Z</time></trkpt><trkpt lat="44.8151067" lon="7.8801117"><ele>309.33333333333337</ele><time>2026-04-05T11:55:09.845Z</time></trkpt><trkpt lat="44.8150733" lon="7.8801933"><ele>311.5</ele><time>2026-04-05T11:55:11.845Z</time></trkpt><trkpt lat="44.8149967" lon="7.8802717"><ele>313.6666666666667</ele><time>2026-04-05T11:55:14.845Z</time></trkpt><trkpt lat="44.8149883" lon="7.8803767"><ele>315.8333333333333</ele><time>2026-04-05T11:55:16.845Z</time></trkpt><trkpt lat="44.8150533" lon="7.88054"><ele>318.0</ele><time>2026-04-05T11:55:18.845Z</time></trkpt><trkpt lat="44.8151017" lon="7.8806417"><ele>318.0</ele><time>2026-04-05T11:55:19.844Z</time></trkpt><trkpt lat="44.8151517" lon="7.8807433"><ele>318.0</ele><time>2026-04-05T11:55:20.844Z</time></trkpt><trkpt lat="44.8151933" lon="7.8808267"><ele>318.0</ele><time>2026-04-05T11:55:21.845Z</time></trkpt><trkpt lat="44.8152833" lon="7.880935"><ele>318.0</ele><time>2026-04-05T11:55:23.845Z</time></trkpt><trkpt lat="44.8154067" lon="7.8809217"><ele>318.0</ele><time>2026-04-05T11:55:25.845Z</time></trkpt><trkpt lat="44.8154867" lon="7.8808933"><ele>319.0</ele><time>2026-04-05T11:55:26.845Z</time></trkpt><trkpt lat="44.815565" lon="7.88089"><ele>320.0</ele><time>2026-04-05T11:55:27.844Z</time></trkpt><trkpt lat="44.81564" lon="7.88091"><ele>321.0</ele><time>2026-04-05T11:55:28.845Z</time></trkpt><trkpt lat="44.815705" lon="7.8809683"><ele>322.0</ele><time>2026-04-05T11:55:29.845Z</time></trkpt><trkpt lat="44.81577" lon="7.8810533"><ele>323.0</ele><time>2026-04-05T11:55:30.844Z</time></trkpt><trkpt lat="44.81582" lon="7.881135"><ele>324.0</ele><time>2026-04-05T11:55:31.845Z</time></trkpt><trkpt lat="44.8159233" lon="7.8812433"><ele>324.5</ele><time>2026-04-05T11:55:33.845Z</time></trkpt><trkpt lat="44.8159967" lon="7.88132"><ele>325.0</ele><time>2026-04-05T11:55:35.845Z</time></trkpt><trkpt lat="44.8160083" lon="7.8814083"><ele>325.5</ele><time>2026-04-05T11:55:44.845Z</time></trkpt><trkpt lat="44.815975" lon="7.88155"><ele>326.0</ele><time>2026-04-05T11:55:46.844Z</time></trkpt><trkpt lat="44.815945" lon="7.8816333"><ele>326.5</ele><time>2026-04-05T11:55:47.845Z</time></trkpt><trkpt lat="44.8159067" lon="7.8817817"><ele>327.0</ele><time>2026-04-05T11:55:49.845Z</time></trkpt><trkpt lat="44.815915" lon="7.8818717"><ele>327.6666666666667</ele><time>2026-04-05T11:55:50.845Z</time></trkpt><trkpt lat="44.8159383" lon="7.881975"><ele>328.3333333333333</ele><time>2026-04-05T11:55:51.845Z</time></trkpt><trkpt lat="44.8159517" lon="7.8820717"><ele>329.0</ele><time>2026-04-05T11:55:52.844Z</time></trkpt><trkpt lat="44.8159667" lon="7.882175"><ele>329.66666666666663</ele><time>2026-04-05T11:55:53.845Z</time></trkpt><trkpt lat="44.8159983" lon="7.8823433"><ele>330.3333333333333</ele><time>2026-04-05T11:55:55.845Z</time></trkpt><trkpt lat="44.8160267" lon="7.8824283"><ele>331.0</ele><time>2026-04-05T11:55:56.845Z</time></trkpt><trkpt lat="44.8160683" lon="7.88256"><ele>331.66666666666663</ele><time>2026-04-05T11:55:58.845Z</time></trkpt><trkpt lat="44.816105" lon="7.8826517"><ele>332.3333333333333</ele><time>2026-04-05T11:56:01.845Z</time></trkpt><trkpt lat="44.8161067" lon="7.8827633"><ele>333.0</ele><time>2026-04-05T11:56:03.845Z</time></trkpt><trkpt lat="44.8161217" lon="7.8828933"><ele>333.6666666666667</ele><time>2026-04-05T11:56:05.845Z</time></trkpt><trkpt lat="44.8161583" lon="7.883035"><ele>334.33333333333337</ele><time>2026-04-05T11:56:07.844Z</time></trkpt><trkpt lat="44.8161917" lon="7.8831433"><ele>335.0</ele><time>2026-04-05T11:56:10.845Z</time></trkpt><trkpt lat="44.816215" lon="7.88323"><ele>335.0</ele><time>2026-04-05T11:56:13.845Z</time></trkpt><trkpt lat="44.816245" lon="7.8833367"><ele>335.0</ele><time>2026-04-05T11:56:15.845Z</time></trkpt><trkpt lat="44.8162567" lon="7.883445"><ele>335.0</ele><time>2026-04-05T11:56:17.845Z</time></trkpt><trkpt lat="44.8161933" lon="7.88355"><ele>335.0</ele><time>2026-04-05T11:56:19.845Z</time></trkpt><trkpt lat="44.8161167" lon="7.88361"><ele>335.0</ele><time>2026-04-05T11:56:21.845Z</time></trkpt><trkpt lat="44.8160867" lon="7.88372"><ele>335.0</ele><time>2026-04-05T11:56:24.845Z</time></trkpt><trkpt lat="44.8161267" lon="7.8839067"><ele>335.2</ele><time>2026-04-05T11:56:26.844Z</time></trkpt><trkpt lat="44.8161717" lon="7.884"><ele>335.4</ele><time>2026-04-05T11:56:27.845Z</time></trkpt><trkpt lat="44.8162417" lon="7.8840817"><ele>335.6</ele><time>2026-04-05T11:56:28.845Z</time></trkpt><trkpt lat="44.8163267" lon="7.8841467"><ele>335.8</ele><time>2026-04-05T11:56:29.845Z</time></trkpt><trkpt lat="44.816415" lon="7.8841933"><ele>336.0</ele><time>2026-04-05T11:56:30.845Z</time></trkpt><trkpt lat="44.8165" lon="7.8842233"><ele>336.0</ele><time>2026-04-05T11:56:31.845Z</time></trkpt><trkpt lat="44.8165717" lon="7.8842467"><ele>336.0</ele><time>2026-04-05T11:56:32.845Z</time></trkpt><trkpt lat="44.8166417" lon="7.8842783"><ele>336.0</ele><time>2026-04-05T11:56:33.845Z</time></trkpt><trkpt lat="44.81672" lon="7.8843383"><ele>336.0</ele><time>2026-04-05T11:56:34.845Z</time></trkpt><trkpt lat="44.816805" lon="7.8844167"><ele>336.0</ele><time>2026-04-05T11:56:35.845Z</time></trkpt><trkpt lat="44.8168867" lon="7.8844917"><ele>336.0</ele><time>2026-04-05T11:56:36.845Z</time></trkpt><trkpt lat="44.8169633" lon="7.884555"><ele>334.8</ele><time>2026-04-05T11:56:37.844Z</time></trkpt><trkpt lat="44.8170317" lon="7.8846233"><ele>333.6</ele><time>2026-04-05T11:56:38.845Z</time></trkpt><trkpt lat="44.8170917" lon="7.8846767"><ele>332.4</ele><time>2026-04-05T11:56:39.845Z</time></trkpt><trkpt lat="44.817185" lon="7.884785"><ele>331.2</ele><time>2026-04-05T11:56:41.845Z</time></trkpt><trkpt lat="44.81726" lon="7.8848733"><ele>330.0</ele><time>2026-04-05T11:56:43.845Z</time></trkpt><trkpt lat="44.8173" lon="7.8849683"><ele>330.0</ele><time>2026-04-05T11:56:45.845Z</time></trkpt><trkpt lat="44.8173483" lon="7.8850733"><ele>330.0</ele><time>2026-04-05T11:56:48.844Z</time></trkpt><trkpt lat="44.81743" lon="7.885165"><ele>330.0</ele><time>2026-04-05T11:56:50.845Z</time></trkpt><trkpt lat="44.817485" lon="7.8852267"><ele>330.0</ele><time>2026-04-05T11:56:51.845Z</time></trkpt><trkpt lat="44.8175467" lon="7.88529"><ele>330.0</ele><time>2026-04-05T11:56:52.845Z</time></trkpt><trkpt lat="44.8176033" lon="7.885355"><ele>330.0</ele><time>2026-04-05T11:56:53.844Z</time></trkpt><trkpt lat="44.81766" lon="7.8854217"><ele>328.8</ele><time>2026-04-05T11:56:54.845Z</time></trkpt><trkpt lat="44.8177133" lon="7.88551"><ele>327.6</ele><time>2026-04-05T11:56:55.845Z</time></trkpt><trkpt lat="44.8177683" lon="7.88562"><ele>326.4</ele><time>2026-04-05T11:56:56.844Z</time></trkpt><trkpt lat="44.8178167" lon="7.885745"><ele>325.2</ele><time>2026-04-05T11:56:57.844Z</time></trkpt><trkpt lat="44.81786" lon="7.88587"><ele>324.0</ele><time>2026-04-05T11:56:58.845Z</time></trkpt><trkpt lat="44.8179067" lon="7.885985"><ele>324.0</ele><time>2026-04-05T11:56:59.844Z</time></trkpt><trkpt lat="44.817955" lon="7.8860883"><ele>324.0</ele><time>2026-04-05T11:57:00.845Z</time></trkpt><trkpt lat="44.8179983" lon="7.88618"><ele>324.0</ele><time>2026-04-05T11:57:01.845Z</time></trkpt><trkpt lat="44.818035" lon="7.88628"><ele>324.0</ele><time>2026-04-05T11:57:02.845Z</time></trkpt><trkpt lat="44.8180617" lon="7.886385"><ele>324.0</ele><time>2026-04-05T11:57:03.845Z</time></trkpt><trkpt lat="44.8180833" lon="7.886505"><ele>324.0</ele><time>2026-04-05T11:57:04.845Z</time></trkpt><trkpt lat="44.8181017" lon="7.8866283"><ele>324.0</ele><time>2026-04-05T11:57:05.845Z</time></trkpt><trkpt lat="44.818115" lon="7.88675"><ele>324.0</ele><time>2026-04-05T11:57:06.845Z</time></trkpt><trkpt lat="44.818135" lon="7.8868767"><ele>324.0</ele><time>2026-04-05T11:57:07.844Z</time></trkpt><trkpt lat="44.8181617" lon="7.8869983"><ele>324.0</ele><time>2026-04-05T11:57:08.845Z</time></trkpt><trkpt lat="44.8182017" lon="7.8871167"><ele>324.0</ele><time>2026-04-05T11:57:09.845Z</time></trkpt><trkpt lat="44.8182417" lon="7.8872317"><ele>323.3333333333333</ele><time>2026-04-05T11:57:10.845Z</time></trkpt><trkpt lat="44.81828" lon="7.8873417"><ele>322.6666666666667</ele><time>2026-04-05T11:57:11.845Z</time></trkpt><trkpt lat="44.818315" lon="7.88744"><ele>322.0</ele><time>2026-04-05T11:57:12.845Z</time></trkpt><trkpt lat="44.8183467" lon="7.8875333"><ele>321.33333333333337</ele><time>2026-04-05T11:57:13.845Z</time></trkpt><trkpt lat="44.8183617" lon="7.88762"><ele>320.6666666666667</ele><time>2026-04-05T11:57:14.844Z</time></trkpt><trkpt lat="44.8183917" lon="7.887775"><ele>320.0</ele><time>2026-04-05T11:57:16.845Z</time></trkpt><trkpt lat="44.818435" lon="7.8878867"><ele>318.4</ele><time>2026-04-05T11:57:18.845Z</time></trkpt><trkpt lat="44.818475" lon="7.8879883"><ele>316.8</ele><time>2026-04-05T11:57:20.845Z</time></trkpt><trkpt lat="44.81853" lon="7.8881083"><ele>315.2</ele><time>2026-04-05T11:57:22.845Z</time></trkpt><trkpt lat="44.818585" lon="7.8882333"><ele>313.6</ele><time>2026-04-05T11:57:24.845Z</time></trkpt><trkpt lat="44.8186383" lon="7.8883283"><ele>312.0</ele><time>2026-04-05T11:57:26.845Z</time></trkpt><trkpt lat="44.8186817" lon="7.8884383"><ele>309.8571428571429</ele><time>2026-04-05T11:57:29.845Z</time></trkpt><trkpt lat="44.8187067" lon="7.8885217"><ele>307.71428571428567</ele><time>2026-04-05T11:57:32.845Z</time></trkpt><trkpt lat="44.81874" lon="7.888605"><ele>305.57142857142856</ele><time>2026-04-05T11:57:35.845Z</time></trkpt><trkpt lat="44.818785" lon="7.8886917"><ele>303.42857142857144</ele><time>2026-04-05T11:57:38.845Z</time></trkpt><trkpt lat="44.81884" lon="7.888745"><ele>301.28571428571433</ele><time>2026-04-05T11:57:40.845Z</time></trkpt><trkpt lat="44.8189117" lon="7.888785"><ele>299.14285714285717</ele><time>2026-04-05T11:57:42.844Z</time></trkpt><trkpt lat="44.8189967" lon="7.88884"><ele>297.0</ele><time>2026-04-05T11:57:44.845Z</time></trkpt><trkpt lat="44.8190417" lon="7.888915"><ele>297.0</ele><time>2026-04-05T11:57:46.845Z</time></trkpt><trkpt lat="44.81903" lon="7.88907"><ele>297.0</ele><time>2026-04-05T11:57:48.845Z</time></trkpt><trkpt lat="44.819" lon="7.889195"><ele>297.0</ele><time>2026-04-05T11:57:49.845Z</time></trkpt><trkpt lat="44.8189583" lon="7.8893417"><ele>297.0</ele><time>2026-04-05T11:57:50.845Z</time></trkpt><trkpt lat="44.8189133" lon="7.8894867"><ele>297.0</ele><time>2026-04-05T11:57:51.845Z</time></trkpt><trkpt lat="44.818875" lon="7.88962"><ele>296.6666666666667</ele><time>2026-04-05T11:57:52.845Z</time></trkpt><trkpt lat="44.8188567" lon="7.88974"><ele>296.3333333333333</ele><time>2026-04-05T11:57:53.845Z</time></trkpt><trkpt lat="44.8188467" lon="7.8898533"><ele>296.0</ele><time>2026-04-05T11:57:54.844Z</time></trkpt><trkpt lat="44.8188383" lon="7.8899583"><ele>295.66666666666663</ele><time>2026-04-05T11:57:55.844Z</time></trkpt><trkpt lat="44.8188167" lon="7.8900583"><ele>295.3333333333333</ele><time>2026-04-05T11:57:56.845Z</time></trkpt><trkpt lat="44.818785" lon="7.8901517"><ele>295.0</ele><time>2026-04-05T11:57:57.845Z</time></trkpt><trkpt lat="44.8187383" lon="7.8902767"><ele>295.0</ele><time>2026-04-05T11:57:59.845Z</time></trkpt><trkpt lat="44.818765" lon="7.8903667"><ele>295.0</ele><time>2026-04-05T11:58:01.845Z</time></trkpt><trkpt lat="44.818825" lon="7.890395"><ele>295.0</ele><time>2026-04-05T11:58:02.845Z</time></trkpt><trkpt lat="44.8189067" lon="7.8904217"><ele>295.0</ele><time>2026-04-05T11:58:03.844Z</time></trkpt><trkpt lat="44.8190083" lon="7.8904617"><ele>295.0</ele><time>2026-04-05T11:58:04.845Z</time></trkpt><trkpt lat="44.81913" lon="7.89051"><ele>295.0</ele><time>2026-04-05T11:58:05.845Z</time></trkpt><trkpt lat="44.8192467" lon="7.890565"><ele>294.6</ele><time>2026-04-05T11:58:06.845Z</time></trkpt><trkpt lat="44.81935" lon="7.89061"><ele>294.2</ele><time>2026-04-05T11:58:07.844Z</time></trkpt><trkpt lat="44.819455" lon="7.8906633"><ele>293.8</ele><time>2026-04-05T11:58:08.844Z</time></trkpt><trkpt lat="44.8195617" lon="7.8907167"><ele>293.4</ele><time>2026-04-05T11:58:09.845Z</time></trkpt><trkpt lat="44.819665" lon="7.8907683"><ele>293.0</ele><time>2026-04-05T11:58:10.845Z</time></trkpt><trkpt lat="44.8197683" lon="7.8908167"><ele>293.0</ele><time>2026-04-05T11:58:11.845Z</time></trkpt><trkpt lat="44.8198617" lon="7.8908633"><ele>293.0</ele><time>2026-04-05T11:58:12.845Z</time></trkpt><trkpt lat="44.8199633" lon="7.890905"><ele>293.0</ele><time>2026-04-05T11:58:13.845Z</time></trkpt><trkpt lat="44.8200633" lon="7.89095"><ele>293.0</ele><time>2026-04-05T11:58:14.844Z</time></trkpt><trkpt lat="44.8201567" lon="7.8909983"><ele>293.0</ele><time>2026-04-05T11:58:15.845Z</time></trkpt><trkpt lat="44.8202417" lon="7.8910433"><ele>293.83333333333337</ele><time>2026-04-05T11:58:16.845Z</time></trkpt><trkpt lat="44.820325" lon="7.8910983"><ele>294.6666666666667</ele><time>2026-04-05T11:58:17.845Z</time></trkpt><trkpt lat="44.8204017" lon="7.89115"><ele>295.5</ele><time>2026-04-05T11:58:18.845Z</time></trkpt><trkpt lat="44.8204733" lon="7.8912033"><ele>296.3333333333333</ele><time>2026-04-05T11:58:19.845Z</time></trkpt><trkpt lat="44.82054" lon="7.8912617"><ele>297.16666666666663</ele><time>2026-04-05T11:58:20.845Z</time></trkpt><trkpt lat="44.8205983" lon="7.8913167"><ele>298.0</ele><time>2026-04-05T11:58:21.845Z</time></trkpt><trkpt lat="44.82065" lon="7.8913683"><ele>298.0</ele><time>2026-04-05T11:58:22.845Z</time></trkpt><trkpt lat="44.8207367" lon="7.89145"><ele>298.0</ele><time>2026-04-05T11:58:24.845Z</time></trkpt><trkpt lat="44.8208033" lon="7.8914733"><ele>298.0</ele><time>2026-04-05T11:58:27.844Z</time></trkpt><trkpt lat="44.8208617" lon="7.8913717"><ele>298.0</ele><time>2026-04-05T11:58:29.845Z</time></trkpt><trkpt lat="44.82088" lon="7.891255"><ele>298.0</ele><time>2026-04-05T11:58:30.845Z</time></trkpt><trkpt lat="44.8209017" lon="7.89112"><ele>298.0</ele><time>2026-04-05T11:58:31.845Z</time></trkpt><trkpt lat="44.8209367" lon="7.8909717"><ele>297.6</ele><time>2026-04-05T11:58:32.845Z</time></trkpt><trkpt lat="44.8209783" lon="7.8908267"><ele>297.20000000000005</ele><time>2026-04-05T11:58:33.845Z</time></trkpt><trkpt lat="44.82103" lon="7.8906967"><ele>296.8</ele><time>2026-04-05T11:58:34.845Z</time></trkpt><trkpt lat="44.8210783" lon="7.89059"><ele>296.40000000000003</ele><time>2026-04-05T11:58:35.845Z</time></trkpt><trkpt lat="44.821125" lon="7.8905067"><ele>296.0</ele><time>2026-04-05T11:58:36.844Z</time></trkpt><trkpt lat="44.8212033" lon="7.8904083"><ele>297.1666666666667</ele><time>2026-04-05T11:58:38.845Z</time></trkpt><trkpt lat="44.82129" lon="7.8904833"><ele>298.33333333333337</ele><time>2026-04-05T11:58:41.845Z</time></trkpt><trkpt lat="44.821325" lon="7.8905683"><ele>299.5</ele><time>2026-04-05T11:58:42.845Z</time></trkpt><trkpt lat="44.8213583" lon="7.8906633"><ele>300.6666666666667</ele><time>2026-04-05T11:58:43.845Z</time></trkpt><trkpt lat="44.8213983" lon="7.8907533"><ele>301.8333333333333</ele><time>2026-04-05T11:58:44.844Z</time></trkpt><trkpt lat="44.821445" lon="7.890825"><ele>303.0</ele><time>2026-04-05T11:58:45.845Z</time></trkpt><trkpt lat="44.8215717" lon="7.890885"><ele>303.0</ele><time>2026-04-05T11:58:47.845Z</time></trkpt><trkpt lat="44.8216617" lon="7.890905"><ele>303.0</ele><time>2026-04-05T11:58:48.845Z</time></trkpt><trkpt lat="44.8217667" lon="7.89093"><ele>303.0</ele><time>2026-04-05T11:58:49.845Z</time></trkpt><trkpt lat="44.8218667" lon="7.8909467"><ele>303.0</ele><time>2026-04-05T11:58:50.845Z</time></trkpt><trkpt lat="44.8219683" lon="7.89095"><ele>303.0</ele><time>2026-04-05T11:58:51.845Z</time></trkpt><trkpt lat="44.8220633" lon="7.8909483"><ele>304.6666666666667</ele><time>2026-04-05T11:58:52.845Z</time></trkpt><trkpt lat="44.822155" lon="7.8909567"><ele>306.3333333333333</ele><time>2026-04-05T11:58:53.844Z</time></trkpt><trkpt lat="44.8222383" lon="7.8909817"><ele>308.0</ele><time>2026-04-05T11:58:54.845Z</time></trkpt><trkpt lat="44.8223217" lon="7.890985"><ele>309.66666666666663</ele><time>2026-04-05T11:58:55.845Z</time></trkpt><trkpt lat="44.8224067" lon="7.8909817"><ele>311.3333333333333</ele><time>2026-04-05T11:58:56.844Z</time></trkpt><trkpt lat="44.8224917" lon="7.8909667"><ele>313.0</ele><time>2026-04-05T11:58:57.845Z</time></trkpt><trkpt lat="44.8225683" lon="7.8909383"><ele>316.6</ele><time>2026-04-05T11:58:58.845Z</time></trkpt><trkpt lat="44.8226767" lon="7.8908517"><ele>320.20000000000005</ele><time>2026-04-05T11:59:00.845Z</time></trkpt><trkpt lat="44.8227183" lon="7.890715"><ele>323.8</ele><time>2026-04-05T11:59:01.844Z</time></trkpt><trkpt lat="44.8227633" lon="7.8905767"><ele>327.40000000000003</ele><time>2026-04-05T11:59:02.845Z</time></trkpt><trkpt lat="44.82282" lon="7.8904417"><ele>331.0</ele><time>2026-04-05T11:59:03.845Z</time></trkpt><trkpt lat="44.8228783" lon="7.8903"><ele>331.0</ele><time>2026-04-05T11:59:04.845Z</time></trkpt><trkpt lat="44.822945" lon="7.890175"><ele>331.0</ele><time>2026-04-05T11:59:05.845Z</time></trkpt><trkpt lat="44.82302" lon="7.8900633"><ele>331.0</ele><time>2026-04-05T11:59:06.845Z</time></trkpt><trkpt lat="44.8230883" lon="7.8899817"><ele>331.0</ele><time>2026-04-05T11:59:07.845Z</time></trkpt><trkpt lat="44.8231517" lon="7.8899333"><ele>331.0</ele><time>2026-04-05T11:59:08.845Z</time></trkpt><trkpt lat="44.823215" lon="7.8899033"><ele>331.0</ele><time>2026-04-05T11:59:09.845Z</time></trkpt><trkpt lat="44.823285" lon="7.889915"><ele>330.3333333333333</ele><time>2026-04-05T11:59:10.845Z</time></trkpt><trkpt lat="44.823365" lon="7.8899633"><ele>329.66666666666663</ele><time>2026-04-05T11:59:11.845Z</time></trkpt><trkpt lat="44.8234367" lon="7.8900233"><ele>329.0</ele><time>2026-04-05T11:59:12.845Z</time></trkpt><trkpt lat="44.8235" lon="7.8900783"><ele>328.3333333333333</ele><time>2026-04-05T11:59:13.845Z</time></trkpt><trkpt lat="44.8235617" lon="7.8901167"><ele>327.6666666666667</ele><time>2026-04-05T11:59:14.844Z</time></trkpt><trkpt lat="44.8236283" lon="7.8901317"><ele>327.0</ele><time>2026-04-05T11:59:15.845Z</time></trkpt><trkpt lat="44.8237283" lon="7.8901217"><ele>326.40000000000003</ele><time>2026-04-05T11:59:17.844Z</time></trkpt><trkpt lat="44.8237917" lon="7.8901933"><ele>325.8</ele><time>2026-04-05T11:59:21.845Z</time></trkpt><trkpt lat="44.82379" lon="7.8903617"><ele>325.2</ele><time>2026-04-05T11:59:23.845Z</time></trkpt><trkpt lat="44.8237733" lon="7.8905067"><ele>324.6</ele><time>2026-04-05T11:59:24.844Z</time></trkpt><trkpt lat="44.8237567" lon="7.8906633"><ele>324.0</ele><time>2026-04-05T11:59:25.845Z</time></trkpt><trkpt lat="44.8237433" lon="7.8908333"><ele>324.25</ele><time>2026-04-05T11:59:26.845Z</time></trkpt><trkpt lat="44.82374" lon="7.891005"><ele>324.5</ele><time>2026-04-05T11:59:27.845Z</time></trkpt><trkpt lat="44.8237383" lon="7.8911733"><ele>324.75</ele><time>2026-04-05T11:59:28.845Z</time></trkpt><trkpt lat="44.8237383" lon="7.8913367"><ele>325.0</ele><time>2026-04-05T11:59:29.845Z</time></trkpt><trkpt lat="44.8237417" lon="7.8914983"><ele>325.0</ele><time>2026-04-05T11:59:30.845Z</time></trkpt><trkpt lat="44.8237567" lon="7.89167"><ele>325.0</ele><time>2026-04-05T11:59:31.845Z</time></trkpt><trkpt lat="44.8237717" lon="7.8918317"><ele>325.0</ele><time>2026-04-05T11:59:32.845Z</time></trkpt><trkpt lat="44.8237883" lon="7.8919967"><ele>325.0</ele><time>2026-04-05T11:59:33.845Z</time></trkpt><trkpt lat="44.8237983" lon="7.8921567"><ele>325.8</ele><time>2026-04-05T11:59:34.844Z</time></trkpt><trkpt lat="44.8238033" lon="7.8922983"><ele>326.6</ele><time>2026-04-05T11:59:35.845Z</time></trkpt><trkpt lat="44.8238133" lon="7.8924333"><ele>327.4</ele><time>2026-04-05T11:59:36.845Z</time></trkpt><trkpt lat="44.8238267" lon="7.892565"><ele>328.2</ele><time>2026-04-05T11:59:37.845Z</time></trkpt><trkpt lat="44.82385" lon="7.8926817"><ele>329.0</ele><time>2026-04-05T11:59:38.845Z</time></trkpt><trkpt lat="44.823885" lon="7.8927867"><ele>330.25</ele><time>2026-04-05T11:59:39.845Z</time></trkpt><trkpt lat="44.8239433" lon="7.8928967"><ele>331.5</ele><time>2026-04-05T11:59:40.845Z</time></trkpt><trkpt lat="44.82401" lon="7.8930217"><ele>332.75</ele><time>2026-04-05T11:59:41.845Z</time></trkpt><trkpt lat="44.8240883" lon="7.893165"><ele>334.0</ele><time>2026-04-05T11:59:42.845Z</time></trkpt><trkpt lat="44.8241717" lon="7.8933117"><ele>334.6</ele><time>2026-04-05T11:59:43.845Z</time></trkpt><trkpt lat="44.8242433" lon="7.89343"><ele>335.2</ele><time>2026-04-05T11:59:44.845Z</time></trkpt><trkpt lat="44.8243017" lon="7.8935083"><ele>335.8</ele><time>2026-04-05T11:59:45.845Z</time></trkpt><trkpt lat="44.82434" lon="7.89366"><ele>336.40000000000003</ele><time>2026-04-05T11:59:47.845Z</time></trkpt><trkpt lat="44.8243183" lon="7.89375"><ele>337.0</ele><time>2026-04-05T11:59:48.844Z</time></trkpt><trkpt lat="44.82428" lon="7.8938567"><ele>337.0</ele><time>2026-04-05T11:59:49.844Z</time></trkpt><trkpt lat="44.8242533" lon="7.89399"><ele>337.0</ele><time>2026-04-05T11:59:50.845Z</time></trkpt><trkpt lat="44.8242383" lon="7.894145"><ele>337.0</ele><time>2026-04-05T11:59:51.845Z</time></trkpt><trkpt lat="44.8242183" lon="7.89431"><ele>337.0</ele><time>2026-04-05T11:59:52.845Z</time></trkpt><trkpt lat="44.8242017" lon="7.894455"><ele>337.0</ele><time>2026-04-05T11:59:53.845Z</time></trkpt><trkpt lat="44.8241817" lon="7.8945883"><ele>337.0</ele><time>2026-04-05T11:59:54.845Z</time></trkpt><trkpt lat="44.824165" lon="7.8947067"><ele>337.0</ele><time>2026-04-05T11:59:55.845Z</time></trkpt><trkpt lat="44.8241533" lon="7.8948317"><ele>337.0</ele><time>2026-04-05T11:59:56.845Z</time></trkpt><trkpt lat="44.8241433" lon="7.8949817"><ele>337.0</ele><time>2026-04-05T11:59:57.845Z</time></trkpt><trkpt lat="44.8241283" lon="7.8951383"><ele>337.0</ele><time>2026-04-05T11:59:58.845Z</time></trkpt><trkpt lat="44.824115" lon="7.8952817"><ele>337.0</ele><time>2026-04-05T11:59:59.844Z</time></trkpt><trkpt lat="44.824105" lon="7.8954167"><ele>337.0</ele><time>2026-04-05T12:00:00.845Z</time></trkpt><trkpt lat="44.8241" lon="7.8955433"><ele>337.0</ele><time>2026-04-05T12:00:01.845Z</time></trkpt><trkpt lat="44.8241083" lon="7.8956667"><ele>337.0</ele><time>2026-04-05T12:00:02.845Z</time></trkpt><trkpt lat="44.82413" lon="7.895805"><ele>337.0</ele><time>2026-04-05T12:00:03.845Z</time></trkpt><trkpt lat="44.8241517" lon="7.8959483"><ele>337.20000000000005</ele><time>2026-04-05T12:00:04.845Z</time></trkpt><trkpt lat="44.8241617" lon="7.8961"><ele>337.4</ele><time>2026-04-05T12:00:05.845Z</time></trkpt><trkpt lat="44.82416" lon="7.89626"><ele>337.6</ele><time>2026-04-05T12:00:06.845Z</time></trkpt><trkpt lat="44.8241533" lon="7.8964067"><ele>337.79999999999995</ele><time>2026-04-05T12:00:07.845Z</time></trkpt><trkpt lat="44.82414" lon="7.896525"><ele>338.0</ele><time>2026-04-05T12:00:08.845Z</time></trkpt><trkpt lat="44.8241067" lon="7.8966217"><ele>338.0</ele><time>2026-04-05T12:00:09.844Z</time></trkpt><trkpt lat="44.8240583" lon="7.89668"><ele>338.0</ele><time>2026-04-05T12:00:10.845Z</time></trkpt><trkpt lat="44.8239983" lon="7.8967933"><ele>338.0</ele><time>2026-04-05T12:00:12.845Z</time></trkpt><trkpt lat="44.824015" lon="7.896905"><ele>338.0</ele><time>2026-04-05T12:00:14.845Z</time></trkpt><trkpt lat="44.82404" lon="7.8970067"><ele>338.0</ele><time>2026-04-05T12:00:16.845Z</time></trkpt><trkpt lat="44.824055" lon="7.8970933"><ele>338.0</ele><time>2026-04-05T12:00:19.844Z</time></trkpt><trkpt lat="44.8241083" lon="7.8971467"><ele>337.25</ele><time>2026-04-05T12:00:21.845Z</time></trkpt><trkpt lat="44.8242467" lon="7.8971483"><ele>336.5</ele><time>2026-04-05T12:00:23.845Z</time></trkpt><trkpt lat="44.8243483" lon="7.89713"><ele>335.75</ele><time>2026-04-05T12:00:24.845Z</time></trkpt><trkpt lat="44.8244617" lon="7.8971133"><ele>335.0</ele><time>2026-04-05T12:00:25.844Z</time></trkpt><trkpt lat="44.8245783" lon="7.8970983"><ele>333.4</ele><time>2026-04-05T12:00:26.845Z</time></trkpt><trkpt lat="44.8246917" lon="7.89708"><ele>331.8</ele><time>2026-04-05T12:00:27.845Z</time></trkpt><trkpt lat="44.8248017" lon="7.89706"><ele>330.20000000000005</ele><time>2026-04-05T12:00:28.845Z</time></trkpt><trkpt lat="44.8249083" lon="7.897045"><ele>328.6</ele><time>2026-04-05T12:00:29.845Z</time></trkpt><trkpt lat="44.8250167" lon="7.8970333"><ele>327.0</ele><time>2026-04-05T12:00:30.845Z</time></trkpt><trkpt lat="44.825125" lon="7.897025"><ele>326.20000000000005</ele><time>2026-04-05T12:00:31.845Z</time></trkpt><trkpt lat="44.8252317" lon="7.8970167"><ele>325.4</ele><time>2026-04-05T12:00:32.845Z</time></trkpt><trkpt lat="44.82534" lon="7.8970017"><ele>324.6</ele><time>2026-04-05T12:00:33.845Z</time></trkpt><trkpt lat="44.8254517" lon="7.8969867"><ele>323.79999999999995</ele><time>2026-04-05T12:00:34.844Z</time></trkpt><trkpt lat="44.8255617" lon="7.8969683"><ele>323.0</ele><time>2026-04-05T12:00:35.845Z</time></trkpt><trkpt lat="44.82567" lon="7.8969533"><ele>323.0</ele><time>2026-04-05T12:00:36.845Z</time></trkpt><trkpt lat="44.8257783" lon="7.8969417"><ele>323.0</ele><time>2026-04-05T12:00:37.845Z</time></trkpt><trkpt lat="44.8258867" lon="7.8969317"><ele>323.0</ele><time>2026-04-05T12:00:38.845Z</time></trkpt><trkpt lat="44.825995" lon="7.8969233"><ele>323.0</ele><time>2026-04-05T12:00:39.845Z</time></trkpt><trkpt lat="44.826105" lon="7.8969217"><ele>323.0</ele><time>2026-04-05T12:00:40.844Z</time></trkpt><trkpt lat="44.826215" lon="7.8969283"><ele>322.0</ele><time>2026-04-05T12:00:41.845Z</time></trkpt><trkpt lat="44.82633" lon="7.896945"><ele>321.0</ele><time>2026-04-05T12:00:42.844Z</time></trkpt><trkpt lat="44.826445" lon="7.8969683"><ele>320.0</ele><time>2026-04-05T12:00:43.845Z</time></trkpt><trkpt lat="44.82656" lon="7.8969933"><ele>319.0</ele><time>2026-04-05T12:00:44.845Z</time></trkpt><trkpt lat="44.8266717" lon="7.8970217"><ele>319.0</ele><time>2026-04-05T12:00:45.845Z</time></trkpt><trkpt lat="44.8267833" lon="7.8970567"><ele>319.0</ele><time>2026-04-05T12:00:46.845Z</time></trkpt><trkpt lat="44.8268933" lon="7.8970933"><ele>319.0</ele><time>2026-04-05T12:00:47.845Z</time></trkpt><trkpt lat="44.8270017" lon="7.8971333"><ele>319.0</ele><time>2026-04-05T12:00:48.845Z</time></trkpt><trkpt lat="44.8271083" lon="7.8971733"><ele>319.0</ele><time>2026-04-05T12:00:49.845Z</time></trkpt><trkpt lat="44.8272183" lon="7.8972117"><ele>319.0</ele><time>2026-04-05T12:00:50.845Z</time></trkpt><trkpt lat="44.8273267" lon="7.8972483"><ele>319.0</ele><time>2026-04-05T12:00:51.845Z</time></trkpt><trkpt lat="44.8274367" lon="7.8972833"><ele>319.0</ele><time>2026-04-05T12:00:52.845Z</time></trkpt><trkpt lat="44.8275483" lon="7.8973233"><ele>317.5</ele><time>2026-04-05T12:00:53.845Z</time></trkpt><trkpt lat="44.8276583" lon="7.8973617"><ele>316.0</ele><time>2026-04-05T12:00:54.845Z</time></trkpt><trkpt lat="44.8277717" lon="7.8974017"><ele>314.5</ele><time>2026-04-05T12:00:55.845Z</time></trkpt><trkpt lat="44.8278867" lon="7.8974433"><ele>313.0</ele><time>2026-04-05T12:00:56.844Z</time></trkpt><trkpt lat="44.8279983" lon="7.8974833"><ele>313.0</ele><time>2026-04-05T12:00:57.845Z</time></trkpt><trkpt lat="44.82811" lon="7.8975267"><ele>313.0</ele><time>2026-04-05T12:00:58.845Z</time></trkpt><trkpt lat="44.8282267" lon="7.89757"><ele>313.0</ele><time>2026-04-05T12:00:59.845Z</time></trkpt><trkpt lat="44.8283383" lon="7.897615"><ele>313.0</ele><time>2026-04-05T12:01:00.845Z</time></trkpt><trkpt lat="44.8284467" lon="7.8976533"><ele>312.0</ele><time>2026-04-05T12:01:01.845Z</time></trkpt><trkpt lat="44.828555" lon="7.8976933"><ele>311.0</ele><time>2026-04-05T12:01:02.845Z</time></trkpt><trkpt lat="44.8286667" lon="7.8977333"><ele>310.0</ele><time>2026-04-05T12:01:03.845Z</time></trkpt><trkpt lat="44.82878" lon="7.8977717"><ele>309.0</ele><time>2026-04-05T12:01:04.845Z</time></trkpt><trkpt lat="44.8288933" lon="7.8978067"><ele>309.0</ele><time>2026-04-05T12:01:05.845Z</time></trkpt><trkpt lat="44.829005" lon="7.8978417"><ele>309.0</ele><time>2026-04-05T12:01:06.845Z</time></trkpt><trkpt lat="44.8291133" lon="7.8978667"><ele>309.0</ele><time>2026-04-05T12:01:07.845Z</time></trkpt><trkpt lat="44.8292217" lon="7.8978917"><ele>309.0</ele><time>2026-04-05T12:01:08.845Z</time></trkpt><trkpt lat="44.8293333" lon="7.8979167"><ele>309.0</ele><time>2026-04-05T12:01:09.845Z</time></trkpt><trkpt lat="44.8294467" lon="7.8979467"><ele>308.25</ele><time>2026-04-05T12:01:10.845Z</time></trkpt><trkpt lat="44.82956" lon="7.89797"><ele>307.5</ele><time>2026-04-05T12:01:11.844Z</time></trkpt><trkpt lat="44.829675" lon="7.8979917"><ele>306.75</ele><time>2026-04-05T12:01:12.845Z</time></trkpt><trkpt lat="44.829795" lon="7.8980167"><ele>306.0</ele><time>2026-04-05T12:01:13.844Z</time></trkpt><trkpt lat="44.8299233" lon="7.89804"><ele>306.0</ele><time>2026-04-05T12:01:14.845Z</time></trkpt><trkpt lat="44.830065" lon="7.8980633"><ele>306.0</ele><time>2026-04-05T12:01:15.845Z</time></trkpt><trkpt lat="44.8302083" lon="7.8980867"><ele>306.0</ele><time>2026-04-05T12:01:16.845Z</time></trkpt><trkpt lat="44.83035" lon="7.8981083"><ele>306.0</ele><time>2026-04-05T12:01:17.845Z</time></trkpt><trkpt lat="44.83049" lon="7.89813"><ele>305.25</ele><time>2026-04-05T12:01:18.845Z</time></trkpt><trkpt lat="44.83063" lon="7.89815"><ele>304.5</ele><time>2026-04-05T12:01:19.845Z</time></trkpt><trkpt lat="44.830765" lon="7.89817"><ele>303.75</ele><time>2026-04-05T12:01:20.845Z</time></trkpt><trkpt lat="44.8309017" lon="7.8981933"><ele>303.0</ele><time>2026-04-05T12:01:21.845Z</time></trkpt><trkpt lat="44.8310383" lon="7.8982183"><ele>302.75</ele><time>2026-04-05T12:01:22.845Z</time></trkpt><trkpt lat="44.8311833" lon="7.8982433"><ele>302.5</ele><time>2026-04-05T12:01:23.845Z</time></trkpt><trkpt lat="44.831325" lon="7.8982667"><ele>302.25</ele><time>2026-04-05T12:01:24.845Z</time></trkpt><trkpt lat="44.8314717" lon="7.8982867"><ele>302.0</ele><time>2026-04-05T12:01:25.845Z</time></trkpt><trkpt lat="44.8316167" lon="7.8983117"><ele>302.0</ele><time>2026-04-05T12:01:26.845Z</time></trkpt><trkpt lat="44.8317583" lon="7.8983367"><ele>302.0</ele><time>2026-04-05T12:01:27.845Z</time></trkpt><trkpt lat="44.8319017" lon="7.8983583"><ele>302.0</ele><time>2026-04-05T12:01:28.845Z</time></trkpt><trkpt lat="44.8320483" lon="7.89838"><ele>302.0</ele><time>2026-04-05T12:01:29.844Z</time></trkpt><trkpt lat="44.832195" lon="7.8984017"><ele>302.0</ele><time>2026-04-05T12:01:30.845Z</time></trkpt><trkpt lat="44.83234" lon="7.8984233"><ele>302.0</ele><time>2026-04-05T12:01:31.845Z</time></trkpt><trkpt lat="44.8324833" lon="7.898445"><ele>302.0</ele><time>2026-04-05T12:01:32.845Z</time></trkpt><trkpt lat="44.8326217" lon="7.8984683"><ele>302.0</ele><time>2026-04-05T12:01:33.845Z</time></trkpt><trkpt lat="44.832755" lon="7.898495"><ele>301.25</ele><time>2026-04-05T12:01:34.845Z</time></trkpt><trkpt lat="44.83289" lon="7.8985217"><ele>300.5</ele><time>2026-04-05T12:01:35.845Z</time></trkpt><trkpt lat="44.8330283" lon="7.8985433"><ele>299.75</ele><time>2026-04-05T12:01:36.845Z</time></trkpt><trkpt lat="44.833165" lon="7.8985633"><ele>299.0</ele><time>2026-04-05T12:01:37.845Z</time></trkpt><trkpt lat="44.8332983" lon="7.8985833"><ele>299.0</ele><time>2026-04-05T12:01:38.845Z</time></trkpt><trkpt lat="44.8334267" lon="7.8986033"><ele>299.0</ele><time>2026-04-05T12:01:39.845Z</time></trkpt><trkpt lat="44.8335567" lon="7.8986233"><ele>299.0</ele><time>2026-04-05T12:01:40.845Z</time></trkpt><trkpt lat="44.83369" lon="7.8986433"><ele>299.0</ele><time>2026-04-05T12:01:41.845Z</time></trkpt><trkpt lat="44.8338217" lon="7.898665"><ele>299.0</ele><time>2026-04-05T12:01:42.845Z</time></trkpt><trkpt lat="44.833955" lon="7.898685"><ele>299.0</ele><time>2026-04-05T12:01:43.845Z</time></trkpt><trkpt lat="44.8340933" lon="7.898715"><ele>299.0</ele><time>2026-04-05T12:01:44.845Z</time></trkpt><trkpt lat="44.8342283" lon="7.898755"><ele>299.0</ele><time>2026-04-05T12:01:45.845Z</time></trkpt><trkpt lat="44.8343617" lon="7.8988"><ele>298.5</ele><time>2026-04-05T12:01:46.844Z</time></trkpt><trkpt lat="44.8344967" lon="7.8988483"><ele>298.0</ele><time>2026-04-05T12:01:47.845Z</time></trkpt><trkpt lat="44.8346317" lon="7.8988967"><ele>297.5</ele><time>2026-04-05T12:01:48.845Z</time></trkpt><trkpt lat="44.8347667" lon="7.89894"><ele>297.0</ele><time>2026-04-05T12:01:49.845Z</time></trkpt><trkpt lat="44.8348967" lon="7.8989833"><ele>297.0</ele><time>2026-04-05T12:01:50.845Z</time></trkpt><trkpt lat="44.8350167" lon="7.8990283"><ele>297.0</ele><time>2026-04-05T12:01:51.844Z</time></trkpt><trkpt lat="44.835135" lon="7.899075"><ele>297.0</ele><time>2026-04-05T12:01:52.845Z</time></trkpt><trkpt lat="44.8352633" lon="7.8991233"><ele>297.0</ele><time>2026-04-05T12:01:53.844Z</time></trkpt><trkpt lat="44.8353933" lon="7.89917"><ele>296.5</ele><time>2026-04-05T12:01:54.844Z</time></trkpt><trkpt lat="44.835525" lon="7.899215"><ele>296.0</ele><time>2026-04-05T12:01:55.845Z</time></trkpt><trkpt lat="44.8356567" lon="7.899265"><ele>295.5</ele><time>2026-04-05T12:01:56.845Z</time></trkpt><trkpt lat="44.8357867" lon="7.8993217"><ele>295.0</ele><time>2026-04-05T12:01:57.844Z</time></trkpt><trkpt lat="44.835915" lon="7.8993883"><ele>293.0</ele><time>2026-04-05T12:01:58.845Z</time></trkpt><trkpt lat="44.8360367" lon="7.89947"><ele>291.0</ele><time>2026-04-05T12:01:59.845Z</time></trkpt><trkpt lat="44.8361567" lon="7.8995617"><ele>289.0</ele><time>2026-04-05T12:02:00.845Z</time></trkpt><trkpt lat="44.83627" lon="7.899655"><ele>287.0</ele><time>2026-04-05T12:02:01.845Z</time></trkpt><trkpt lat="44.8363817" lon="7.89975"><ele>287.0</ele><time>2026-04-05T12:02:02.845Z</time></trkpt><trkpt lat="44.8364933" lon="7.8998533"><ele>287.0</ele><time>2026-04-05T12:02:03.845Z</time></trkpt><trkpt lat="44.8366067" lon="7.899955"><ele>287.0</ele><time>2026-04-05T12:02:04.845Z</time></trkpt><trkpt lat="44.836725" lon="7.9000517"><ele>287.0</ele><time>2026-04-05T12:02:05.845Z</time></trkpt><trkpt lat="44.836845" lon="7.9001483"><ele>286.5</ele><time>2026-04-05T12:02:06.845Z</time></trkpt><trkpt lat="44.8369633" lon="7.9002483"><ele>286.0</ele><time>2026-04-05T12:02:07.845Z</time></trkpt><trkpt lat="44.8370817" lon="7.90035"><ele>285.5</ele><time>2026-04-05T12:02:08.845Z</time></trkpt><trkpt lat="44.8372" lon="7.9004467"><ele>285.0</ele><time>2026-04-05T12:02:09.845Z</time></trkpt><trkpt lat="44.8373217" lon="7.9005467"><ele>285.0</ele><time>2026-04-05T12:02:10.845Z</time></trkpt><trkpt lat="44.837445" lon="7.90065"><ele>285.0</ele><time>2026-04-05T12:02:11.844Z</time></trkpt><trkpt lat="44.8375683" lon="7.9007483"><ele>285.0</ele><time>2026-04-05T12:02:12.845Z</time></trkpt><trkpt lat="44.837695" lon="7.9008383"><ele>285.0</ele><time>2026-04-05T12:02:13.845Z</time></trkpt><trkpt lat="44.8378217" lon="7.9009167"><ele>284.75</ele><time>2026-04-05T12:02:14.845Z</time></trkpt><trkpt lat="44.83795" lon="7.90098"><ele>284.5</ele><time>2026-04-05T12:02:15.845Z</time></trkpt><trkpt lat="44.8380783" lon="7.9010317"><ele>284.25</ele><time>2026-04-05T12:02:16.845Z</time></trkpt><trkpt lat="44.8382083" lon="7.9010783"><ele>284.0</ele><time>2026-04-05T12:02:17.845Z</time></trkpt><trkpt lat="44.8383383" lon="7.9011117"><ele>284.0</ele><time>2026-04-05T12:02:18.845Z</time></trkpt><trkpt lat="44.8384633" lon="7.901135"><ele>284.0</ele><time>2026-04-05T12:02:19.844Z</time></trkpt><trkpt lat="44.8385867" lon="7.90114"><ele>284.0</ele><time>2026-04-05T12:02:20.844Z</time></trkpt><trkpt lat="44.838705" lon="7.9011417"><ele>284.0</ele><time>2026-04-05T12:02:21.845Z</time></trkpt><trkpt lat="44.8388183" lon="7.9011417"><ele>283.4</ele><time>2026-04-05T12:02:22.845Z</time></trkpt><trkpt lat="44.8389267" lon="7.9011383"><ele>282.79999999999995</ele><time>2026-04-05T12:02:23.845Z</time></trkpt><trkpt lat="44.83903" lon="7.901135"><ele>282.20000000000005</ele><time>2026-04-05T12:02:24.845Z</time></trkpt><trkpt lat="44.8391333" lon="7.90113"><ele>281.6</ele><time>2026-04-05T12:02:25.845Z</time></trkpt><trkpt lat="44.8392367" lon="7.9011167"><ele>281.0</ele><time>2026-04-05T12:02:26.844Z</time></trkpt><trkpt lat="44.8393417" lon="7.901095"><ele>280.75</ele><time>2026-04-05T12:02:27.845Z</time></trkpt><trkpt lat="44.83945" lon="7.9010617"><ele>280.5</ele><time>2026-04-05T12:02:28.844Z</time></trkpt><trkpt lat="44.839555" lon="7.9010133"><ele>280.25</ele><time>2026-04-05T12:02:29.845Z</time></trkpt><trkpt lat="44.8396633" lon="7.90095"><ele>280.0</ele><time>2026-04-05T12:02:30.845Z</time></trkpt><trkpt lat="44.8397733" lon="7.9008717"><ele>280.25</ele><time>2026-04-05T12:02:31.845Z</time></trkpt><trkpt lat="44.8398833" lon="7.900775"><ele>280.5</ele><time>2026-04-05T12:02:32.845Z</time></trkpt><trkpt lat="44.8399833" lon="7.900665"><ele>280.75</ele><time>2026-04-05T12:02:33.844Z</time></trkpt><trkpt lat="44.8400783" lon="7.9005483"><ele>281.0</ele><time>2026-04-05T12:02:34.845Z</time></trkpt><trkpt lat="44.8401683" lon="7.9004283"><ele>281.0</ele><time>2026-04-05T12:02:35.845Z</time></trkpt><trkpt lat="44.8402517" lon="7.9003033"><ele>281.0</ele><time>2026-04-05T12:02:36.845Z</time></trkpt><trkpt lat="44.8403433" lon="7.900165"><ele>281.0</ele><time>2026-04-05T12:02:37.845Z</time></trkpt><trkpt lat="44.8404333" lon="7.9000217"><ele>281.0</ele><time>2026-04-05T12:02:38.845Z</time></trkpt><trkpt lat="44.8405217" lon="7.8998867"><ele>281.5</ele><time>2026-04-05T12:02:39.845Z</time></trkpt><trkpt lat="44.840605" lon="7.8997567"><ele>282.0</ele><time>2026-04-05T12:02:40.845Z</time></trkpt><trkpt lat="44.84068" lon="7.8996333"><ele>282.5</ele><time>2026-04-05T12:02:41.845Z</time></trkpt><trkpt lat="44.8407517" lon="7.899515"><ele>283.0</ele><time>2026-04-05T12:02:42.845Z</time></trkpt><trkpt lat="44.8408233" lon="7.8994"><ele>283.0</ele><time>2026-04-05T12:02:43.844Z</time></trkpt><trkpt lat="44.8408917" lon="7.89929"><ele>283.0</ele><time>2026-04-05T12:02:44.845Z</time></trkpt><trkpt lat="44.8409517" lon="7.8991783"><ele>283.0</ele><time>2026-04-05T12:02:45.844Z</time></trkpt><trkpt lat="44.841005" lon="7.8990567"><ele>283.0</ele><time>2026-04-05T12:02:46.844Z</time></trkpt><trkpt lat="44.8410583" lon="7.8989233"><ele>283.0</ele><time>2026-04-05T12:02:47.844Z</time></trkpt><trkpt lat="44.841115" lon="7.8987933"><ele>282.75</ele><time>2026-04-05T12:02:48.845Z</time></trkpt><trkpt lat="44.84118" lon="7.8986717"><ele>282.5</ele><time>2026-04-05T12:02:49.845Z</time></trkpt><trkpt lat="44.8412483" lon="7.8985433"><ele>282.25</ele><time>2026-04-05T12:02:50.845Z</time></trkpt><trkpt lat="44.8413133" lon="7.8983917"><ele>282.0</ele><time>2026-04-05T12:02:51.845Z</time></trkpt><trkpt lat="44.84137" lon="7.8982217"><ele>282.5</ele><time>2026-04-05T12:02:52.845Z</time></trkpt><trkpt lat="44.8414167" lon="7.8980683"><ele>283.0</ele><time>2026-04-05T12:02:53.845Z</time></trkpt><trkpt lat="44.8414667" lon="7.8979167"><ele>283.5</ele><time>2026-04-05T12:02:54.845Z</time></trkpt><trkpt lat="44.8415167" lon="7.8977533"><ele>284.0</ele><time>2026-04-05T12:02:55.845Z</time></trkpt><trkpt lat="44.84158" lon="7.8975833"><ele>284.0</ele><time>2026-04-05T12:02:56.845Z</time></trkpt><trkpt lat="44.841645" lon="7.89741"><ele>284.0</ele><time>2026-04-05T12:02:57.845Z</time></trkpt><trkpt lat="44.8417117" lon="7.89724"><ele>284.0</ele><time>2026-04-05T12:02:58.845Z</time></trkpt><trkpt lat="44.841785" lon="7.8970633"><ele>284.0</ele><time>2026-04-05T12:02:59.845Z</time></trkpt><trkpt lat="44.841865" lon="7.8968833"><ele>284.5</ele><time>2026-04-05T12:03:00.845Z</time></trkpt><trkpt lat="44.8419383" lon="7.8967267"><ele>285.0</ele><time>2026-04-05T12:03:01.845Z</time></trkpt><trkpt lat="44.84202" lon="7.896565"><ele>285.5</ele><time>2026-04-05T12:03:02.845Z</time></trkpt><trkpt lat="44.8421067" lon="7.89639"><ele>286.0</ele><time>2026-04-05T12:03:03.845Z</time></trkpt><trkpt lat="44.8421867" lon="7.8962333"><ele>286.0</ele><time>2026-04-05T12:03:04.845Z</time></trkpt><trkpt lat="44.8422783" lon="7.8960817"><ele>286.0</ele><time>2026-04-05T12:03:05.844Z</time></trkpt><trkpt lat="44.8423683" lon="7.8959267"><ele>286.0</ele><time>2026-04-05T12:03:06.845Z</time></trkpt><trkpt lat="44.842455" lon="7.8957617"><ele>286.0</ele><time>2026-04-05T12:03:07.845Z</time></trkpt><trkpt lat="44.8425417" lon="7.8956"><ele>286.25</ele><time>2026-04-05T12:03:08.845Z</time></trkpt><trkpt lat="44.8426217" lon="7.89543"><ele>286.5</ele><time>2026-04-05T12:03:09.845Z</time></trkpt><trkpt lat="44.8426917" lon="7.8952517"><ele>286.75</ele><time>2026-04-05T12:03:10.844Z</time></trkpt><trkpt lat="44.8427617" lon="7.8950967"><ele>287.0</ele><time>2026-04-05T12:03:11.845Z</time></trkpt><trkpt lat="44.8428283" lon="7.89495"><ele>287.0</ele><time>2026-04-05T12:03:12.845Z</time></trkpt><trkpt lat="44.8428883" lon="7.8948233"><ele>287.0</ele><time>2026-04-05T12:03:13.845Z</time></trkpt><trkpt lat="44.8429417" lon="7.894715"><ele>287.0</ele><time>2026-04-05T12:03:14.845Z</time></trkpt><trkpt lat="44.8429933" lon="7.894615"><ele>287.0</ele><time>2026-04-05T12:03:15.845Z</time></trkpt><trkpt lat="44.8430517" lon="7.8945383"><ele>287.0</ele><time>2026-04-05T12:03:16.845Z</time></trkpt><trkpt lat="44.8431183" lon="7.8944933"><ele>287.0</ele><time>2026-04-05T12:03:17.845Z</time></trkpt><trkpt lat="44.8431867" lon="7.8945083"><ele>287.0</ele><time>2026-04-05T12:03:18.845Z</time></trkpt><trkpt lat="44.8432767" lon="7.8945567"><ele>287.0</ele><time>2026-04-05T12:03:19.845Z</time></trkpt><trkpt lat="44.84338" lon="7.89459"><ele>287.0</ele><time>2026-04-05T12:03:20.845Z</time></trkpt><trkpt lat="44.8435" lon="7.8946"><ele>287.0</ele><time>2026-04-05T12:03:21.845Z</time></trkpt><trkpt lat="44.8436283" lon="7.8946"><ele>287.5</ele><time>2026-04-05T12:03:22.845Z</time></trkpt><trkpt lat="44.8437683" lon="7.8945933"><ele>288.0</ele><time>2026-04-05T12:03:23.844Z</time></trkpt><trkpt lat="44.8439117" lon="7.8945917"><ele>288.5</ele><time>2026-04-05T12:03:24.844Z</time></trkpt><trkpt lat="44.84406" lon="7.89459"><ele>289.0</ele><time>2026-04-05T12:03:25.844Z</time></trkpt><trkpt lat="44.844205" lon="7.8945817"><ele>287.75</ele><time>2026-04-05T12:03:26.845Z</time></trkpt><trkpt lat="44.8443433" lon="7.894555"><ele>286.5</ele><time>2026-04-05T12:03:27.845Z</time></trkpt><trkpt lat="44.8444717" lon="7.8945"><ele>285.25</ele><time>2026-04-05T12:03:28.845Z</time></trkpt><trkpt lat="44.8445767" lon="7.8944067"><ele>284.0</ele><time>2026-04-05T12:03:29.845Z</time></trkpt><trkpt lat="44.8446617" lon="7.8942767"><ele>285.0</ele><time>2026-04-05T12:03:30.844Z</time></trkpt><trkpt lat="44.844735" lon="7.8941317"><ele>286.0</ele><time>2026-04-05T12:03:31.844Z</time></trkpt><trkpt lat="44.844815" lon="7.894005"><ele>287.0</ele><time>2026-04-05T12:03:32.845Z</time></trkpt><trkpt lat="44.8449067" lon="7.893895"><ele>288.0</ele><time>2026-04-05T12:03:33.845Z</time></trkpt><trkpt lat="44.8450167" lon="7.893815"><ele>287.0</ele><time>2026-04-05T12:03:34.845Z</time></trkpt><trkpt lat="44.845145" lon="7.8937733"><ele>286.0</ele><time>2026-04-05T12:03:35.845Z</time></trkpt><trkpt lat="44.8452833" lon="7.8937417"><ele>285.0</ele><time>2026-04-05T12:03:36.845Z</time></trkpt><trkpt lat="44.8454333" lon="7.8937"><ele>284.0</ele><time>2026-04-05T12:03:37.845Z</time></trkpt><trkpt lat="44.8455933" lon="7.89367"><ele>284.0</ele><time>2026-04-05T12:03:38.845Z</time></trkpt><trkpt lat="44.8457533" lon="7.8936267"><ele>284.0</ele><time>2026-04-05T12:03:39.845Z</time></trkpt><trkpt lat="44.8459033" lon="7.8935817"><ele>284.0</ele><time>2026-04-05T12:03:40.845Z</time></trkpt><trkpt lat="44.84605" lon="7.893535"><ele>284.25</ele><time>2026-04-05T12:03:41.845Z</time></trkpt><trkpt lat="44.8461867" lon="7.893475"><ele>284.5</ele><time>2026-04-05T12:03:42.845Z</time></trkpt><trkpt lat="44.8463167" lon="7.8933867"><ele>284.75</ele><time>2026-04-05T12:03:43.845Z</time></trkpt><trkpt lat="44.84644" lon="7.8932733"><ele>285.0</ele><time>2026-04-05T12:03:44.845Z</time></trkpt><trkpt lat="44.8465667" lon="7.8931633"><ele>285.0</ele><time>2026-04-05T12:03:45.845Z</time></trkpt><trkpt lat="44.8467117" lon="7.893065"><ele>285.0</ele><time>2026-04-05T12:03:46.845Z</time></trkpt><trkpt lat="44.8468583" lon="7.8929733"><ele>285.0</ele><time>2026-04-05T12:03:47.844Z</time></trkpt><trkpt lat="44.847005" lon="7.8928917"><ele>284.6666666666667</ele><time>2026-04-05T12:03:48.844Z</time></trkpt><trkpt lat="44.847155" lon="7.89282"><ele>284.33333333333337</ele><time>2026-04-05T12:03:49.845Z</time></trkpt><trkpt lat="44.847315" lon="7.8927517"><ele>284.0</ele><time>2026-04-05T12:03:50.845Z</time></trkpt><trkpt lat="44.8474883" lon="7.8926883"><ele>283.6666666666667</ele><time>2026-04-05T12:03:51.845Z</time></trkpt><trkpt lat="44.8476567" lon="7.8926317"><ele>283.3333333333333</ele><time>2026-04-05T12:03:52.844Z</time></trkpt><trkpt lat="44.8478217" lon="7.8925767"><ele>283.0</ele><time>2026-04-05T12:03:53.845Z</time></trkpt><trkpt lat="44.847975" lon="7.8925267"><ele>284.0</ele><time>2026-04-05T12:03:54.845Z</time></trkpt><trkpt lat="44.8481283" lon="7.8924817"><ele>285.0</ele><time>2026-04-05T12:03:55.845Z</time></trkpt><trkpt lat="44.8482867" lon="7.8924367"><ele>286.0</ele><time>2026-04-05T12:03:56.845Z</time></trkpt><trkpt lat="44.8484467" lon="7.8923933"><ele>284.66666666666663</ele><time>2026-04-05T12:03:57.845Z</time></trkpt><trkpt lat="44.8486033" lon="7.8923517"><ele>283.3333333333333</ele><time>2026-04-05T12:03:58.844Z</time></trkpt><trkpt lat="44.8487567" lon="7.8923067"><ele>282.0</ele><time>2026-04-05T12:03:59.845Z</time></trkpt><trkpt lat="44.8489033" lon="7.89226"><ele>282.0</ele><time>2026-04-05T12:04:00.845Z</time></trkpt><trkpt lat="44.84905" lon="7.8922133"><ele>282.0</ele><time>2026-04-05T12:04:01.845Z</time></trkpt><trkpt lat="44.8491967" lon="7.8921467"><ele>282.0</ele><time>2026-04-05T12:04:02.845Z</time></trkpt><trkpt lat="44.849355" lon="7.89209"><ele>281.0</ele><time>2026-04-05T12:04:03.845Z</time></trkpt><trkpt lat="44.8495217" lon="7.89205"><ele>280.0</ele><time>2026-04-05T12:04:04.845Z</time></trkpt><trkpt lat="44.8496983" lon="7.8920267"><ele>279.0</ele><time>2026-04-05T12:04:05.845Z</time></trkpt><trkpt lat="44.8498633" lon="7.892005"><ele>279.0</ele><time>2026-04-05T12:04:06.845Z</time></trkpt><trkpt lat="44.8500267" lon="7.891975"><ele>279.0</ele><time>2026-04-05T12:04:07.845Z</time></trkpt><trkpt lat="44.8501783" lon="7.8919517"><ele>279.0</ele><time>2026-04-05T12:04:08.845Z</time></trkpt><trkpt lat="44.8503133" lon="7.89192"><ele>279.25</ele><time>2026-04-05T12:04:09.844Z</time></trkpt><trkpt lat="44.85044" lon="7.8918583"><ele>279.5</ele><time>2026-04-05T12:04:10.844Z</time></trkpt><trkpt lat="44.8505633" lon="7.891765"><ele>279.75</ele><time>2026-04-05T12:04:11.844Z</time></trkpt><trkpt lat="44.850675" lon="7.8916383"><ele>280.0</ele><time>2026-04-05T12:04:12.845Z</time></trkpt><trkpt lat="44.850765" lon="7.8915117"><ele>279.75</ele><time>2026-04-05T12:04:13.845Z</time></trkpt><trkpt lat="44.850845" lon="7.8913983"><ele>279.5</ele><time>2026-04-05T12:04:14.845Z</time></trkpt><trkpt lat="44.8509367" lon="7.8913083"><ele>279.25</ele><time>2026-04-05T12:04:15.845Z</time></trkpt><trkpt lat="44.8510517" lon="7.891255"><ele>279.0</ele><time>2026-04-05T12:04:16.845Z</time></trkpt><trkpt lat="44.8511817" lon="7.8912317"><ele>279.0</ele><time>2026-04-05T12:04:17.844Z</time></trkpt><trkpt lat="44.8513133" lon="7.891225"><ele>279.0</ele><time>2026-04-05T12:04:18.844Z</time></trkpt><trkpt lat="44.8514283" lon="7.8912217"><ele>279.0</ele><time>2026-04-05T12:04:19.844Z</time></trkpt><trkpt lat="44.8515167" lon="7.8912167"><ele>279.0</ele><time>2026-04-05T12:04:20.844Z</time></trkpt><trkpt lat="44.8515833" lon="7.8912083"><ele>279.0</ele><time>2026-04-05T12:04:21.845Z</time></trkpt><trkpt lat="44.8516667" lon="7.89115"><ele>279.0</ele><time>2026-04-05T12:04:23.845Z</time></trkpt><trkpt lat="44.8517017" lon="7.8910217"><ele>279.0</ele><time>2026-04-05T12:04:25.845Z</time></trkpt><trkpt lat="44.8517033" lon="7.8908667"><ele>279.0</ele><time>2026-04-05T12:04:27.845Z</time></trkpt><trkpt lat="44.8517117" lon="7.8907083"><ele>279.0</ele><time>2026-04-05T12:04:29.845Z</time></trkpt><trkpt lat="44.85176" lon="7.8905783"><ele>279.0</ele><time>2026-04-05T12:04:31.845Z</time></trkpt><trkpt lat="44.8518983" lon="7.8905233"><ele>278.75</ele><time>2026-04-05T12:04:33.845Z</time></trkpt><trkpt lat="44.8520117" lon="7.89052"><ele>278.5</ele><time>2026-04-05T12:04:34.845Z</time></trkpt><trkpt lat="44.8521383" lon="7.8905083"><ele>278.25</ele><time>2026-04-05T12:04:35.845Z</time></trkpt><trkpt lat="44.85228" lon="7.8905"><ele>278.0</ele><time>2026-04-05T12:04:36.845Z</time></trkpt><trkpt lat="44.8524417" lon="7.8905033"><ele>278.0</ele><time>2026-04-05T12:04:37.845Z</time></trkpt><trkpt lat="44.852605" lon="7.8905067"><ele>278.0</ele><time>2026-04-05T12:04:38.845Z</time></trkpt><trkpt lat="44.8527683" lon="7.8905083"><ele>278.0</ele><time>2026-04-05T12:04:39.845Z</time></trkpt><trkpt lat="44.8529383" lon="7.89051"><ele>277.6666666666667</ele><time>2026-04-05T12:04:40.845Z</time></trkpt><trkpt lat="44.8531217" lon="7.89051"><ele>277.3333333333333</ele><time>2026-04-05T12:04:41.844Z</time></trkpt><trkpt lat="44.853305" lon="7.8905283"><ele>277.0</ele><time>2026-04-05T12:04:42.845Z</time></trkpt><trkpt lat="44.8534933" lon="7.8905433"><ele>277.0</ele><time>2026-04-05T12:04:43.845Z</time></trkpt><trkpt lat="44.85368" lon="7.89057"><ele>277.0</ele><time>2026-04-05T12:04:44.845Z</time></trkpt><trkpt lat="44.8538667" lon="7.89058"><ele>277.0</ele><time>2026-04-05T12:04:45.844Z</time></trkpt><trkpt lat="44.85404" lon="7.8905933"><ele>277.0</ele><time>2026-04-05T12:04:46.845Z</time></trkpt><trkpt lat="44.8542117" lon="7.8906067"><ele>277.0</ele><time>2026-04-05T12:04:47.845Z</time></trkpt><trkpt lat="44.8543883" lon="7.8906217"><ele>277.0</ele><time>2026-04-05T12:04:48.845Z</time></trkpt><trkpt lat="44.8545517" lon="7.8906367"><ele>276.66666666666663</ele><time>2026-04-05T12:04:49.845Z</time></trkpt><trkpt lat="44.8547217" lon="7.8906683"><ele>276.3333333333333</ele><time>2026-04-05T12:04:50.845Z</time></trkpt><trkpt lat="44.8548817" lon="7.8907067"><ele>276.0</ele><time>2026-04-05T12:04:51.845Z</time></trkpt><trkpt lat="44.8550467" lon="7.8907433"><ele>275.6666666666667</ele><time>2026-04-05T12:04:52.845Z</time></trkpt><trkpt lat="44.85521" lon="7.8907883"><ele>275.33333333333337</ele><time>2026-04-05T12:04:53.845Z</time></trkpt><trkpt lat="44.8553867" lon="7.89084"><ele>275.0</ele><time>2026-04-05T12:04:54.845Z</time></trkpt><trkpt lat="44.8555633" lon="7.8909017"><ele>275.33333333333337</ele><time>2026-04-05T12:04:55.845Z</time></trkpt><trkpt lat="44.8557333" lon="7.8909583"><ele>275.6666666666667</ele><time>2026-04-05T12:04:56.845Z</time></trkpt><trkpt lat="44.855905" lon="7.8910117"><ele>276.0</ele><time>2026-04-05T12:04:57.844Z</time></trkpt><trkpt lat="44.856085" lon="7.891065"><ele>275.0</ele><time>2026-04-05T12:04:58.844Z</time></trkpt><trkpt lat="44.85625" lon="7.89112"><ele>274.0</ele><time>2026-04-05T12:04:59.845Z</time></trkpt><trkpt lat="44.8564117" lon="7.8911717"><ele>273.0</ele><time>2026-04-05T12:05:00.844Z</time></trkpt><trkpt lat="44.8565767" lon="7.8912283"><ele>273.0</ele><time>2026-04-05T12:05:01.845Z</time></trkpt><trkpt lat="44.8567467" lon="7.8912783"><ele>273.0</ele><time>2026-04-05T12:05:02.845Z</time></trkpt><trkpt lat="44.85692" lon="7.8913233"><ele>273.0</ele><time>2026-04-05T12:05:03.845Z</time></trkpt><trkpt lat="44.8570983" lon="7.89137"><ele>272.3333333333333</ele><time>2026-04-05T12:05:04.844Z</time></trkpt><trkpt lat="44.8572633" lon="7.89141"><ele>271.66666666666663</ele><time>2026-04-05T12:05:05.845Z</time></trkpt><trkpt lat="44.85742" lon="7.8914567"><ele>271.0</ele><time>2026-04-05T12:05:06.845Z</time></trkpt><trkpt lat="44.8575833" lon="7.8914967"><ele>270.66666666666663</ele><time>2026-04-05T12:05:07.845Z</time></trkpt><trkpt lat="44.8577467" lon="7.89154"><ele>270.3333333333333</ele><time>2026-04-05T12:05:08.845Z</time></trkpt><trkpt lat="44.8579" lon="7.89157"><ele>270.0</ele><time>2026-04-05T12:05:09.845Z</time></trkpt><trkpt lat="44.8580433" lon="7.8915967"><ele>270.0</ele><time>2026-04-05T12:05:10.845Z</time></trkpt><trkpt lat="44.85818" lon="7.8916267"><ele>270.0</ele><time>2026-04-05T12:05:11.845Z</time></trkpt><trkpt lat="44.8583033" lon="7.8916433"><ele>270.0</ele><time>2026-04-05T12:05:12.844Z</time></trkpt><trkpt lat="44.85841" lon="7.8916817"><ele>270.0</ele><time>2026-04-05T12:05:13.845Z</time></trkpt><trkpt lat="44.8585083" lon="7.8917483"><ele>269.75</ele><time>2026-04-05T12:05:14.845Z</time></trkpt><trkpt lat="44.8586017" lon="7.8918467"><ele>269.5</ele><time>2026-04-05T12:05:15.845Z</time></trkpt><trkpt lat="44.8587017" lon="7.8919717"><ele>269.25</ele><time>2026-04-05T12:05:16.844Z</time></trkpt><trkpt lat="44.8588083" lon="7.8920933"><ele>269.0</ele><time>2026-04-05T12:05:17.845Z</time></trkpt><trkpt lat="44.8589267" lon="7.892205"><ele>269.0</ele><time>2026-04-05T12:05:18.845Z</time></trkpt><trkpt lat="44.8590417" lon="7.8923033"><ele>269.0</ele><time>2026-04-05T12:05:19.845Z</time></trkpt><trkpt lat="44.8591583" lon="7.8923933"><ele>269.0</ele><time>2026-04-05T12:05:20.845Z</time></trkpt><trkpt lat="44.8592883" lon="7.89248"><ele>269.0</ele><time>2026-04-05T12:05:21.844Z</time></trkpt><trkpt lat="44.8594317" lon="7.8925583"><ele>269.0</ele><time>2026-04-05T12:05:22.844Z</time></trkpt><trkpt lat="44.8595733" lon="7.8926333"><ele>269.0</ele><time>2026-04-05T12:05:23.845Z</time></trkpt><trkpt lat="44.8597117" lon="7.8926933"><ele>269.0</ele><time>2026-04-05T12:05:24.845Z</time></trkpt><trkpt lat="44.8598383" lon="7.892755"><ele>269.0</ele><time>2026-04-05T12:05:25.845Z</time></trkpt><trkpt lat="44.8599567" lon="7.8928"><ele>269.0</ele><time>2026-04-05T12:05:26.845Z</time></trkpt><trkpt lat="44.86007" lon="7.8928483"><ele>269.0</ele><time>2026-04-05T12:05:27.845Z</time></trkpt><trkpt lat="44.8601767" lon="7.89289"><ele>269.0</ele><time>2026-04-05T12:05:28.845Z</time></trkpt><trkpt lat="44.860275" lon="7.892925"><ele>269.0</ele><time>2026-04-05T12:05:29.845Z</time></trkpt><trkpt lat="44.8603667" lon="7.89297"><ele>269.0</ele><time>2026-04-05T12:05:30.845Z</time></trkpt><trkpt lat="44.860445" lon="7.8930117"><ele>268.33333333333337</ele><time>2026-04-05T12:05:31.845Z</time></trkpt><trkpt lat="44.8605133" lon="7.89306"><ele>267.6666666666667</ele><time>2026-04-05T12:05:32.845Z</time></trkpt><trkpt lat="44.860575" lon="7.8931067"><ele>267.0</ele><time>2026-04-05T12:05:33.845Z</time></trkpt><trkpt lat="44.8606367" lon="7.8931517"><ele>266.3333333333333</ele><time>2026-04-05T12:05:34.844Z</time></trkpt><trkpt lat="44.86072" lon="7.893195"><ele>265.66666666666663</ele><time>2026-04-05T12:05:36.845Z</time></trkpt><trkpt lat="44.8607867" lon="7.8932233"><ele>265.0</ele><time>2026-04-05T12:05:45.845Z</time></trkpt><trkpt lat="44.86085" lon="7.8933383"><ele>264.6</ele><time>2026-04-05T12:05:46.845Z</time></trkpt><trkpt lat="44.860915" lon="7.89347"><ele>264.2</ele><time>2026-04-05T12:05:47.845Z</time></trkpt><trkpt lat="44.8609733" lon="7.8936017"><ele>263.8</ele><time>2026-04-05T12:05:48.845Z</time></trkpt><trkpt lat="44.8610367" lon="7.893735"><ele>263.4</ele><time>2026-04-05T12:05:49.845Z</time></trkpt><trkpt lat="44.861095" lon="7.8938633"><ele>263.0</ele><time>2026-04-05T12:05:50.845Z</time></trkpt><trkpt lat="44.8611567" lon="7.8939867"><ele>263.0</ele><time>2026-04-05T12:05:51.845Z</time></trkpt><trkpt lat="44.8612117" lon="7.8941117"><ele>263.0</ele><time>2026-04-05T12:05:52.844Z</time></trkpt><trkpt lat="44.8612667" lon="7.8942283"><ele>263.0</ele><time>2026-04-05T12:05:53.845Z</time></trkpt><trkpt lat="44.86132" lon="7.8943417"><ele>263.0</ele><time>2026-04-05T12:05:54.845Z</time></trkpt><trkpt lat="44.8613783" lon="7.8944533"><ele>263.0</ele><time>2026-04-05T12:05:55.845Z</time></trkpt><trkpt lat="44.8614333" lon="7.8945717"><ele>263.0</ele><time>2026-04-05T12:05:56.844Z</time></trkpt><trkpt lat="44.8614883" lon="7.894695"><ele>263.0</ele><time>2026-04-05T12:05:57.845Z</time></trkpt><trkpt lat="44.8615433" lon="7.89481"><ele>263.0</ele><time>2026-04-05T12:05:58.845Z</time></trkpt><trkpt lat="44.8615967" lon="7.8949217"><ele>263.0</ele><time>2026-04-05T12:05:59.845Z</time></trkpt><trkpt lat="44.8616467" lon="7.895035"><ele>263.0</ele><time>2026-04-05T12:06:00.845Z</time></trkpt><trkpt lat="44.8617017" lon="7.89514"><ele>263.33333333333337</ele><time>2026-04-05T12:06:01.845Z</time></trkpt><trkpt lat="44.8617467" lon="7.8952433"><ele>263.6666666666667</ele><time>2026-04-05T12:06:02.845Z</time></trkpt><trkpt lat="44.861795" lon="7.89533"><ele>264.0</ele><time>2026-04-05T12:06:03.845Z</time></trkpt><trkpt lat="44.8618367" lon="7.895415"><ele>264.3333333333333</ele><time>2026-04-05T12:06:04.844Z</time></trkpt><trkpt lat="44.8618633" lon="7.8955067"><ele>264.66666666666663</ele><time>2026-04-05T12:06:05.845Z</time></trkpt><trkpt lat="44.86188" lon="7.8956783"><ele>265.0</ele><time>2026-04-05T12:06:07.845Z</time></trkpt><trkpt lat="44.861885" lon="7.895775"><ele>265.0</ele><time>2026-04-05T12:06:08.845Z</time></trkpt><trkpt lat="44.861895" lon="7.8958683"><ele>265.0</ele><time>2026-04-05T12:06:09.844Z</time></trkpt><trkpt lat="44.8619267" lon="7.8959533"><ele>265.0</ele><time>2026-04-05T12:06:10.845Z</time></trkpt><trkpt lat="44.8620383" lon="7.8960383"><ele>265.0</ele><time>2026-04-05T12:06:12.845Z</time></trkpt><trkpt lat="44.8621117" lon="7.89605"><ele>265.0</ele><time>2026-04-05T12:06:13.845Z</time></trkpt><trkpt lat="44.8621917" lon="7.896065"><ele>265.0</ele><time>2026-04-05T12:06:14.845Z</time></trkpt><trkpt lat="44.8622733" lon="7.8960967"><ele>265.6</ele><time>2026-04-05T12:06:15.845Z</time></trkpt><trkpt lat="44.86235" lon="7.8961283"><ele>266.2</ele><time>2026-04-05T12:06:16.844Z</time></trkpt><trkpt lat="44.8624333" lon="7.8961617"><ele>266.8</ele><time>2026-04-05T12:06:17.845Z</time></trkpt><trkpt lat="44.862525" lon="7.8961917"><ele>267.4</ele><time>2026-04-05T12:06:18.845Z</time></trkpt><trkpt lat="44.8626183" lon="7.8962183"><ele>268.0</ele><time>2026-04-05T12:06:19.844Z</time></trkpt><trkpt lat="44.8627167" lon="7.8962467"><ele>268.0</ele><time>2026-04-05T12:06:20.845Z</time></trkpt><trkpt lat="44.8628117" lon="7.8962667"><ele>268.0</ele><time>2026-04-05T12:06:21.844Z</time></trkpt><trkpt lat="44.86291" lon="7.8962967"><ele>268.0</ele><time>2026-04-05T12:06:22.844Z</time></trkpt><trkpt lat="44.86301" lon="7.8963133"><ele>268.0</ele><time>2026-04-05T12:06:23.845Z</time></trkpt><trkpt lat="44.8631117" lon="7.8963417"><ele>268.0</ele><time>2026-04-05T12:06:24.844Z</time></trkpt><trkpt lat="44.8632083" lon="7.8963683"><ele>268.0</ele><time>2026-04-05T12:06:25.845Z</time></trkpt><trkpt lat="44.8633067" lon="7.8963933"><ele>268.0</ele><time>2026-04-05T12:06:26.844Z</time></trkpt><trkpt lat="44.86341" lon="7.8964317"><ele>268.0</ele><time>2026-04-05T12:06:27.844Z</time></trkpt><trkpt lat="44.8635067" lon="7.896455"><ele>268.0</ele><time>2026-04-05T12:06:28.845Z</time></trkpt><trkpt lat="44.8636133" lon="7.896485"><ele>268.0</ele><time>2026-04-05T12:06:29.845Z</time></trkpt><trkpt lat="44.8637217" lon="7.89651"><ele>268.2</ele><time>2026-04-05T12:06:30.845Z</time></trkpt><trkpt lat="44.86382" lon="7.8965317"><ele>268.4</ele><time>2026-04-05T12:06:31.845Z</time></trkpt><trkpt lat="44.8639233" lon="7.8965483"><ele>268.59999999999997</ele><time>2026-04-05T12:06:32.845Z</time></trkpt><trkpt lat="44.86403" lon="7.89656"><ele>268.8</ele><time>2026-04-05T12:06:33.845Z</time></trkpt><trkpt lat="44.8641367" lon="7.8965733"><ele>269.0</ele><time>2026-04-05T12:06:34.845Z</time></trkpt><trkpt lat="44.8642483" lon="7.8965817"><ele>270.0</ele><time>2026-04-05T12:06:35.844Z</time></trkpt><trkpt lat="44.8643517" lon="7.8965783"><ele>271.0</ele><time>2026-04-05T12:06:36.845Z</time></trkpt><trkpt lat="44.8644533" lon="7.8965667"><ele>272.0</ele><time>2026-04-05T12:06:37.845Z</time></trkpt><trkpt lat="44.8645467" lon="7.8965617"><ele>273.0</ele><time>2026-04-05T12:06:38.844Z</time></trkpt><trkpt lat="44.86463" lon="7.8965583"><ele>274.0</ele><time>2026-04-05T12:06:39.845Z</time></trkpt><trkpt lat="44.8647083" lon="7.8965517"><ele>274.00000000000006</ele><time>2026-04-05T12:06:40.844Z</time></trkpt><trkpt lat="44.8647867" lon="7.896545"><ele>274.0</ele><time>2026-04-05T12:06:41.845Z</time></trkpt><trkpt lat="44.8648583" lon="7.89654"><ele>274.0</ele><time>2026-04-05T12:06:42.845Z</time></trkpt><trkpt lat="44.8649233" lon="7.8965417"><ele>274.0</ele><time>2026-04-05T12:06:43.845Z</time></trkpt><trkpt lat="44.86502" lon="7.89653"><ele>274.0</ele><time>2026-04-05T12:06:45.845Z</time></trkpt><trkpt lat="44.8650883" lon="7.8965233"><ele>274.00000000000006</ele><time>2026-04-05T12:06:47.845Z</time></trkpt><trkpt lat="44.8651517" lon="7.8965183"><ele>274.0</ele><time>2026-04-05T12:06:49.844Z</time></trkpt><trkpt lat="44.8652283" lon="7.896515"><ele>274.0</ele><time>2026-04-05T12:06:51.845Z</time></trkpt><trkpt lat="44.865295" lon="7.89651"><ele>274.0</ele><time>2026-04-05T12:06:53.845Z</time></trkpt><trkpt lat="44.8653983" lon="7.8964983"><ele>274.0</ele><time>2026-04-05T12:06:55.845Z</time></trkpt><trkpt lat="44.865475" lon="7.8964917"><ele>274.0</ele><time>2026-04-05T12:06:56.845Z</time></trkpt><trkpt lat="44.8655667" lon="7.8964883"><ele>274.0</ele><time>2026-04-05T12:06:57.845Z</time></trkpt><trkpt lat="44.8656733" lon="7.896485"><ele>274.0</ele><time>2026-04-05T12:06:58.845Z</time></trkpt><trkpt lat="44.8657983" lon="7.8964783"><ele>274.0</ele><time>2026-04-05T12:06:59.845Z</time></trkpt><trkpt lat="44.8659283" lon="7.8964683"><ele>274.0</ele><time>2026-04-05T12:07:00.845Z</time></trkpt><trkpt lat="44.8660633" lon="7.896455"><ele>274.0</ele><time>2026-04-05T12:07:01.845Z</time></trkpt><trkpt lat="44.8662083" lon="7.8964383"><ele>274.0</ele><time>2026-04-05T12:07:02.845Z</time></trkpt><trkpt lat="44.8663583" lon="7.8964283"><ele>275.5</ele><time>2026-04-05T12:07:03.845Z</time></trkpt><trkpt lat="44.866505" lon="7.89642"><ele>277.0</ele><time>2026-04-05T12:07:04.845Z</time></trkpt><trkpt lat="44.8666517" lon="7.8964183"><ele>278.5</ele><time>2026-04-05T12:07:05.845Z</time></trkpt><trkpt lat="44.8667933" lon="7.896405"><ele>280.0</ele><time>2026-04-05T12:07:06.845Z</time></trkpt><trkpt lat="44.866935" lon="7.89639"><ele>282.0</ele><time>2026-04-05T12:07:07.845Z</time></trkpt><trkpt lat="44.867075" lon="7.8963833"><ele>284.0</ele><time>2026-04-05T12:07:08.844Z</time></trkpt><trkpt lat="44.8672217" lon="7.89637"><ele>286.0</ele><time>2026-04-05T12:07:09.845Z</time></trkpt><trkpt lat="44.8673667" lon="7.8963533"><ele>288.0</ele><time>2026-04-05T12:07:10.845Z</time></trkpt><trkpt lat="44.8675067" lon="7.8963433"><ele>289.5</ele><time>2026-04-05T12:07:11.845Z</time></trkpt><trkpt lat="44.8676367" lon="7.896335"><ele>291.0</ele><time>2026-04-05T12:07:12.844Z</time></trkpt><trkpt lat="44.867775" lon="7.8963267"><ele>292.5</ele><time>2026-04-05T12:07:13.845Z</time></trkpt><trkpt lat="44.8678983" lon="7.896315"><ele>294.0</ele><time>2026-04-05T12:07:14.845Z</time></trkpt><trkpt lat="44.868015" lon="7.8963083"><ele>294.0</ele><time>2026-04-05T12:07:15.845Z</time></trkpt><trkpt lat="44.8681117" lon="7.896305"><ele>294.0</ele><time>2026-04-05T12:07:16.845Z</time></trkpt><trkpt lat="44.868215" lon="7.89631"><ele>294.0</ele><time>2026-04-05T12:07:17.845Z</time></trkpt><trkpt lat="44.86831" lon="7.896315"><ele>294.0</ele><time>2026-04-05T12:07:18.845Z</time></trkpt><trkpt lat="44.868395" lon="7.8963183"><ele>294.0</ele><time>2026-04-05T12:07:19.845Z</time></trkpt><trkpt lat="44.8684683" lon="7.8963183"><ele>295.0</ele><time>2026-04-05T12:07:20.845Z</time></trkpt><trkpt lat="44.8685767" lon="7.896355"><ele>296.0</ele><time>2026-04-05T12:07:22.845Z</time></trkpt><trkpt lat="44.8686083" lon="7.896495"><ele>297.0</ele><time>2026-04-05T12:07:24.845Z</time></trkpt><trkpt lat="44.8685867" lon="7.8965983"><ele>298.0</ele><time>2026-04-05T12:07:25.844Z</time></trkpt><trkpt lat="44.868545" lon="7.8967383"><ele>299.0</ele><time>2026-04-05T12:07:26.845Z</time></trkpt><trkpt lat="44.8684833" lon="7.896905"><ele>299.0</ele><time>2026-04-05T12:07:27.845Z</time></trkpt><trkpt lat="44.8684217" lon="7.897115"><ele>299.0</ele><time>2026-04-05T12:07:28.844Z</time></trkpt><trkpt lat="44.8683617" lon="7.89734"><ele>299.0</ele><time>2026-04-05T12:07:29.845Z</time></trkpt><trkpt lat="44.8683033" lon="7.89755"><ele>299.25</ele><time>2026-04-05T12:07:30.845Z</time></trkpt><trkpt lat="44.8682517" lon="7.89773"><ele>299.5</ele><time>2026-04-05T12:07:31.845Z</time></trkpt><trkpt lat="44.8681967" lon="7.897885"><ele>299.75</ele><time>2026-04-05T12:07:32.845Z</time></trkpt><trkpt lat="44.86816" lon="7.8980217"><ele>300.0</ele><time>2026-04-05T12:07:33.845Z</time></trkpt><trkpt lat="44.8681233" lon="7.8981583"><ele>300.0</ele><time>2026-04-05T12:07:34.845Z</time></trkpt><trkpt lat="44.8680933" lon="7.8982767"><ele>300.0</ele><time>2026-04-05T12:07:35.845Z</time></trkpt><trkpt lat="44.868075" lon="7.8983683"><ele>300.0</ele><time>2026-04-05T12:07:36.845Z</time></trkpt><trkpt lat="44.8681017" lon="7.8985067"><ele>300.0</ele><time>2026-04-05T12:07:38.845Z</time></trkpt><trkpt lat="44.8681617" lon="7.8985633"><ele>300.0</ele><time>2026-04-05T12:07:39.845Z</time></trkpt><trkpt lat="44.8682317" lon="7.89861"><ele>300.0</ele><time>2026-04-05T12:07:40.844Z</time></trkpt><trkpt lat="44.8683083" lon="7.8986583"><ele>299.8333333333333</ele><time>2026-04-05T12:07:41.844Z</time></trkpt><trkpt lat="44.8683867" lon="7.8986983"><ele>299.6666666666667</ele><time>2026-04-05T12:07:42.844Z</time></trkpt><trkpt lat="44.8684583" lon="7.898745"><ele>299.5</ele><time>2026-04-05T12:07:43.845Z</time></trkpt><trkpt lat="44.868525" lon="7.89879"><ele>299.33333333333337</ele><time>2026-04-05T12:07:44.845Z</time></trkpt><trkpt lat="44.8685933" lon="7.89884"><ele>299.1666666666667</ele><time>2026-04-05T12:07:45.845Z</time></trkpt><trkpt lat="44.8686583" lon="7.8988917"><ele>299.0</ele><time>2026-04-05T12:07:46.844Z</time></trkpt><trkpt lat="44.8687167" lon="7.8989583"><ele>298.83333333333337</ele><time>2026-04-05T12:07:47.845Z</time></trkpt><trkpt lat="44.8687783" lon="7.8990517"><ele>298.6666666666667</ele><time>2026-04-05T12:07:48.845Z</time></trkpt><trkpt lat="44.86883" lon="7.8991467"><ele>298.5</ele><time>2026-04-05T12:07:49.845Z</time></trkpt><trkpt lat="44.8688717" lon="7.899245"><ele>298.3333333333333</ele><time>2026-04-05T12:07:50.845Z</time></trkpt><trkpt lat="44.86891" lon="7.8993417"><ele>298.16666666666663</ele><time>2026-04-05T12:07:51.845Z</time></trkpt><trkpt lat="44.8689517" lon="7.8994267"><ele>298.0</ele><time>2026-04-05T12:07:52.845Z</time></trkpt><trkpt lat="44.8690017" lon="7.8995017"><ele>298.0</ele><time>2026-04-05T12:07:53.845Z</time></trkpt><trkpt lat="44.8690617" lon="7.899565"><ele>298.0</ele><time>2026-04-05T12:07:54.845Z</time></trkpt><trkpt lat="44.8691333" lon="7.8996117"><ele>298.0</ele><time>2026-04-05T12:07:55.845Z</time></trkpt><trkpt lat="44.8692083" lon="7.8996483"><ele>298.0</ele><time>2026-04-05T12:07:56.845Z</time></trkpt><trkpt lat="44.869285" lon="7.8996667"><ele>298.0</ele><time>2026-04-05T12:07:57.845Z</time></trkpt><trkpt lat="44.8693567" lon="7.8996733"><ele>298.0</ele><time>2026-04-05T12:07:58.845Z</time></trkpt><trkpt lat="44.869425" lon="7.89967"><ele>297.2</ele><time>2026-04-05T12:07:59.845Z</time></trkpt><trkpt lat="44.86954" lon="7.8996367"><ele>296.4</ele><time>2026-04-05T12:08:01.845Z</time></trkpt><trkpt lat="44.8696417" lon="7.8996017"><ele>295.59999999999997</ele><time>2026-04-05T12:08:03.845Z</time></trkpt><trkpt lat="44.8697167" lon="7.89957"><ele>294.8</ele><time>2026-04-05T12:08:05.845Z</time></trkpt><trkpt lat="44.8697983" lon="7.899535"><ele>294.0</ele><time>2026-04-05T12:08:24.845Z</time></trkpt><trkpt lat="44.869895" lon="7.8994683"><ele>294.0</ele><time>2026-04-05T12:08:26.845Z</time></trkpt><trkpt lat="44.8699867" lon="7.8994117"><ele>294.0</ele><time>2026-04-05T12:08:28.845Z</time></trkpt><trkpt lat="44.8700717" lon="7.899375"><ele>294.0</ele><time>2026-04-05T12:08:30.845Z</time></trkpt><trkpt lat="44.870145" lon="7.8994167"><ele>291.0</ele><time>2026-04-05T12:08:32.845Z</time></trkpt><trkpt lat="44.8701833" lon="7.89949"><ele>291.0</ele><time>2026-04-05T12:08:34.845Z</time></trkpt><trkpt lat="44.8702" lon="7.8995783"><ele>291.0</ele><time>2026-04-05T12:08:36.845Z</time></trkpt></trkseg></trk></gpx>